<?xml version="1.0" encoding="UTF-8" standalone="no" ?>
<gpx xmlns="http://www.topografix.com/GPX/1/1" xmlns:xsi="http://www.w3.org/2001/XMLSchema-instance" xsi:schemaLocation="http://www.topografix.com/GPX/1/1 http://www.topografix.com/GPX/1/1/gpx.xsd" version="1.1" creator="VisuGPX - https://www.visugpx.com">
  <metadata>
    <name>Mémorial</name>
  </metadata>
  <trk>
    <name><![CDATA[Mémorial_1]]></name>
    <trkseg>
      <trkpt lat="49.88539" lon="2.5087">
        <ele>74.4</ele>
        <time>2023-09-27T11:54:48Z</time>
      </trkpt>
      <trkpt lat="49.88538" lon="2.50868">
        <ele>74.4</ele>
        <time>2023-09-27T11:54:49Z</time>
      </trkpt>
      <trkpt lat="49.88537" lon="2.50868">
        <ele>74.4</ele>
        <time>2023-09-27T11:54:50Z</time>
      </trkpt>
      <trkpt lat="49.8854" lon="2.50866">
        <ele>74.3</ele>
        <time>2023-09-27T11:54:52Z</time>
      </trkpt>
      <trkpt lat="49.88541" lon="2.50865">
        <ele>74.3</ele>
        <time>2023-09-27T11:54:53Z</time>
      </trkpt>
      <trkpt lat="49.88541" lon="2.50865">
        <ele>74.3</ele>
        <time>2023-09-27T11:54:54Z</time>
      </trkpt>
      <trkpt lat="49.88541" lon="2.50865">
        <ele>74.3</ele>
        <time>2023-09-27T11:54:55Z</time>
      </trkpt>
      <trkpt lat="49.88541" lon="2.50865">
        <ele>74.3</ele>
        <time>2023-09-27T11:54:56Z</time>
      </trkpt>
      <trkpt lat="49.88541" lon="2.50865">
        <ele>74.3</ele>
        <time>2023-09-27T11:54:57Z</time>
      </trkpt>
      <trkpt lat="49.88541" lon="2.50865">
        <ele>74.3</ele>
        <time>2023-09-27T11:54:58Z</time>
      </trkpt>
      <trkpt lat="49.88541" lon="2.50865">
        <ele>74.3</ele>
        <time>2023-09-27T11:54:59Z</time>
      </trkpt>
      <trkpt lat="49.88541" lon="2.50865">
        <ele>74.3</ele>
        <time>2023-09-27T11:55:00Z</time>
      </trkpt>
      <trkpt lat="49.88541" lon="2.50865">
        <ele>74.3</ele>
        <time>2023-09-27T11:55:01Z</time>
      </trkpt>
      <trkpt lat="49.88541" lon="2.50865">
        <ele>74.3</ele>
        <time>2023-09-27T11:55:02Z</time>
      </trkpt>
      <trkpt lat="49.88541" lon="2.50865">
        <ele>74.3</ele>
        <time>2023-09-27T11:55:03Z</time>
      </trkpt>
      <trkpt lat="49.88541" lon="2.50865">
        <ele>74.3</ele>
        <time>2023-09-27T11:55:04Z</time>
      </trkpt>
      <trkpt lat="49.88541" lon="2.50865">
        <ele>74.3</ele>
        <time>2023-09-27T11:55:05Z</time>
      </trkpt>
      <trkpt lat="49.88541" lon="2.50865">
        <ele>74.3</ele>
        <time>2023-09-27T11:55:06Z</time>
      </trkpt>
      <trkpt lat="49.88541" lon="2.50865">
        <ele>74.3</ele>
        <time>2023-09-27T11:55:07Z</time>
      </trkpt>
      <trkpt lat="49.88541" lon="2.50865">
        <ele>74.3</ele>
        <time>2023-09-27T11:55:08Z</time>
      </trkpt>
      <trkpt lat="49.88541" lon="2.50865">
        <ele>74.3</ele>
        <time>2023-09-27T11:55:09Z</time>
      </trkpt>
      <trkpt lat="49.88541" lon="2.50865">
        <ele>74.3</ele>
        <time>2023-09-27T11:55:10Z</time>
      </trkpt>
      <trkpt lat="49.88541" lon="2.50865">
        <ele>74.3</ele>
        <time>2023-09-27T11:55:11Z</time>
      </trkpt>
      <trkpt lat="49.88541" lon="2.50865">
        <ele>74.3</ele>
        <time>2023-09-27T11:55:12Z</time>
      </trkpt>
      <trkpt lat="49.88541" lon="2.50865">
        <ele>74.3</ele>
        <time>2023-09-27T11:55:13Z</time>
      </trkpt>
      <trkpt lat="49.88541" lon="2.50865">
        <ele>74.3</ele>
        <time>2023-09-27T11:55:14Z</time>
      </trkpt>
      <trkpt lat="49.88541" lon="2.50865">
        <ele>74.3</ele>
        <time>2023-09-27T11:55:15Z</time>
      </trkpt>
      <trkpt lat="49.88541" lon="2.50865">
        <ele>74.3</ele>
        <time>2023-09-27T11:55:16Z</time>
      </trkpt>
      <trkpt lat="49.88541" lon="2.50865">
        <ele>74.3</ele>
        <time>2023-09-27T11:55:17Z</time>
      </trkpt>
      <trkpt lat="49.88541" lon="2.50865">
        <ele>74.3</ele>
        <time>2023-09-27T11:55:18Z</time>
      </trkpt>
      <trkpt lat="49.88541" lon="2.50865">
        <ele>74.3</ele>
        <time>2023-09-27T11:55:19Z</time>
      </trkpt>
      <trkpt lat="49.88541" lon="2.50865">
        <ele>74.3</ele>
        <time>2023-09-27T11:55:20Z</time>
      </trkpt>
      <trkpt lat="49.88541" lon="2.50865">
        <ele>74.3</ele>
        <time>2023-09-27T11:55:21Z</time>
      </trkpt>
      <trkpt lat="49.88541" lon="2.50865">
        <ele>74.3</ele>
        <time>2023-09-27T11:55:22Z</time>
      </trkpt>
      <trkpt lat="49.88541" lon="2.50865">
        <ele>74.3</ele>
        <time>2023-09-27T11:55:23Z</time>
      </trkpt>
      <trkpt lat="49.88541" lon="2.50865">
        <ele>74.3</ele>
        <time>2023-09-27T11:55:24Z</time>
      </trkpt>
      <trkpt lat="49.88541" lon="2.50865">
        <ele>74.3</ele>
        <time>2023-09-27T11:55:25Z</time>
      </trkpt>
      <trkpt lat="49.88541" lon="2.50865">
        <ele>74.3</ele>
        <time>2023-09-27T11:55:26Z</time>
      </trkpt>
      <trkpt lat="49.88541" lon="2.50865">
        <ele>74.3</ele>
        <time>2023-09-27T11:55:27Z</time>
      </trkpt>
      <trkpt lat="49.88541" lon="2.50865">
        <ele>74.3</ele>
        <time>2023-09-27T11:55:28Z</time>
      </trkpt>
      <trkpt lat="49.88541" lon="2.50865">
        <ele>74.3</ele>
        <time>2023-09-27T11:55:29Z</time>
      </trkpt>
      <trkpt lat="49.88541" lon="2.50865">
        <ele>74.3</ele>
        <time>2023-09-27T11:55:30Z</time>
      </trkpt>
      <trkpt lat="49.88541" lon="2.50865">
        <ele>74.3</ele>
        <time>2023-09-27T11:55:31Z</time>
      </trkpt>
      <trkpt lat="49.88541" lon="2.50865">
        <ele>74.3</ele>
        <time>2023-09-27T11:55:32Z</time>
      </trkpt>
      <trkpt lat="49.88541" lon="2.50865">
        <ele>74.3</ele>
        <time>2023-09-27T11:55:33Z</time>
      </trkpt>
      <trkpt lat="49.88541" lon="2.50865">
        <ele>74.3</ele>
        <time>2023-09-27T11:55:34Z</time>
      </trkpt>
      <trkpt lat="49.88541" lon="2.50865">
        <ele>74.3</ele>
        <time>2023-09-27T11:55:35Z</time>
      </trkpt>
      <trkpt lat="49.88541" lon="2.50865">
        <ele>74.3</ele>
        <time>2023-09-27T11:55:36Z</time>
      </trkpt>
      <trkpt lat="49.88541" lon="2.50865">
        <ele>74.3</ele>
        <time>2023-09-27T11:55:37Z</time>
      </trkpt>
      <trkpt lat="49.88541" lon="2.50865">
        <ele>74.3</ele>
        <time>2023-09-27T11:55:38Z</time>
      </trkpt>
      <trkpt lat="49.88541" lon="2.50865">
        <ele>74.3</ele>
        <time>2023-09-27T11:55:39Z</time>
      </trkpt>
      <trkpt lat="49.88541" lon="2.50865">
        <ele>74.3</ele>
        <time>2023-09-27T11:55:40Z</time>
      </trkpt>
      <trkpt lat="49.88541" lon="2.50865">
        <ele>74.3</ele>
        <time>2023-09-27T11:55:41Z</time>
      </trkpt>
      <trkpt lat="49.88541" lon="2.50865">
        <ele>74.3</ele>
        <time>2023-09-27T11:55:42Z</time>
      </trkpt>
      <trkpt lat="49.88541" lon="2.50865">
        <ele>74.3</ele>
        <time>2023-09-27T11:55:43Z</time>
      </trkpt>
      <trkpt lat="49.88541" lon="2.50865">
        <ele>74.3</ele>
        <time>2023-09-27T11:55:44Z</time>
      </trkpt>
      <trkpt lat="49.88541" lon="2.50865">
        <ele>74.3</ele>
        <time>2023-09-27T11:55:45Z</time>
      </trkpt>
      <trkpt lat="49.88541" lon="2.50865">
        <ele>74.3</ele>
        <time>2023-09-27T11:55:46Z</time>
      </trkpt>
      <trkpt lat="49.88541" lon="2.50865">
        <ele>74.3</ele>
        <time>2023-09-27T11:55:47Z</time>
      </trkpt>
      <trkpt lat="49.88541" lon="2.50865">
        <ele>74.3</ele>
        <time>2023-09-27T11:55:48Z</time>
      </trkpt>
      <trkpt lat="49.88541" lon="2.50865">
        <ele>74.3</ele>
        <time>2023-09-27T11:55:49Z</time>
      </trkpt>
      <trkpt lat="49.88541" lon="2.50865">
        <ele>74.3</ele>
        <time>2023-09-27T11:55:50Z</time>
      </trkpt>
      <trkpt lat="49.88541" lon="2.50865">
        <ele>74.3</ele>
        <time>2023-09-27T11:55:51Z</time>
      </trkpt>
      <trkpt lat="49.88541" lon="2.50865">
        <ele>74.3</ele>
        <time>2023-09-27T11:55:52Z</time>
      </trkpt>
      <trkpt lat="49.88541" lon="2.50865">
        <ele>74.3</ele>
        <time>2023-09-27T11:55:53Z</time>
      </trkpt>
      <trkpt lat="49.88541" lon="2.50865">
        <ele>74.3</ele>
        <time>2023-09-27T11:55:54Z</time>
      </trkpt>
      <trkpt lat="49.88541" lon="2.50865">
        <ele>74.3</ele>
        <time>2023-09-27T11:55:55Z</time>
      </trkpt>
      <trkpt lat="49.88541" lon="2.50865">
        <ele>74.3</ele>
        <time>2023-09-27T11:55:56Z</time>
      </trkpt>
      <trkpt lat="49.88541" lon="2.50865">
        <ele>74.3</ele>
        <time>2023-09-27T11:55:57Z</time>
      </trkpt>
      <trkpt lat="49.88541" lon="2.50865">
        <ele>74.3</ele>
        <time>2023-09-27T11:55:58Z</time>
      </trkpt>
      <trkpt lat="49.88541" lon="2.50865">
        <ele>74.3</ele>
        <time>2023-09-27T11:55:59Z</time>
      </trkpt>
      <trkpt lat="49.88541" lon="2.50865">
        <ele>74.3</ele>
        <time>2023-09-27T11:56:00Z</time>
      </trkpt>
      <trkpt lat="49.88541" lon="2.50865">
        <ele>74.3</ele>
        <time>2023-09-27T11:56:01Z</time>
      </trkpt>
      <trkpt lat="49.88541" lon="2.50865">
        <ele>74.3</ele>
        <time>2023-09-27T11:56:02Z</time>
      </trkpt>
      <trkpt lat="49.88541" lon="2.50865">
        <ele>74.3</ele>
        <time>2023-09-27T11:56:04Z</time>
      </trkpt>
      <trkpt lat="49.88541" lon="2.50865">
        <ele>74.3</ele>
        <time>2023-09-27T11:56:05Z</time>
      </trkpt>
      <trkpt lat="49.88541" lon="2.50865">
        <ele>74.3</ele>
        <time>2023-09-27T11:56:06Z</time>
      </trkpt>
      <trkpt lat="49.88541" lon="2.50865">
        <ele>74.3</ele>
        <time>2023-09-27T11:56:07Z</time>
      </trkpt>
      <trkpt lat="49.88541" lon="2.50865">
        <ele>74.3</ele>
        <time>2023-09-27T11:56:08Z</time>
      </trkpt>
      <trkpt lat="49.88541" lon="2.50865">
        <ele>74.3</ele>
        <time>2023-09-27T11:56:09Z</time>
      </trkpt>
      <trkpt lat="49.88541" lon="2.50865">
        <ele>74.3</ele>
        <time>2023-09-27T11:56:10Z</time>
      </trkpt>
      <trkpt lat="49.88541" lon="2.50865">
        <ele>74.3</ele>
        <time>2023-09-27T11:56:11Z</time>
      </trkpt>
      <trkpt lat="49.88541" lon="2.50865">
        <ele>74.3</ele>
        <time>2023-09-27T11:56:12Z</time>
      </trkpt>
      <trkpt lat="49.88541" lon="2.50865">
        <ele>74.3</ele>
        <time>2023-09-27T11:56:13Z</time>
      </trkpt>
      <trkpt lat="49.88541" lon="2.50865">
        <ele>74.3</ele>
        <time>2023-09-27T11:56:14Z</time>
      </trkpt>
      <trkpt lat="49.88541" lon="2.50865">
        <ele>74.3</ele>
        <time>2023-09-27T11:56:15Z</time>
      </trkpt>
      <trkpt lat="49.88541" lon="2.50865">
        <ele>74.3</ele>
        <time>2023-09-27T11:56:16Z</time>
      </trkpt>
      <trkpt lat="49.88541" lon="2.50865">
        <ele>74.3</ele>
        <time>2023-09-27T11:56:17Z</time>
      </trkpt>
      <trkpt lat="49.88541" lon="2.50865">
        <ele>74.3</ele>
        <time>2023-09-27T11:56:18Z</time>
      </trkpt>
      <trkpt lat="49.88541" lon="2.50865">
        <ele>74.3</ele>
        <time>2023-09-27T11:56:19Z</time>
      </trkpt>
      <trkpt lat="49.88541" lon="2.50865">
        <ele>74.3</ele>
        <time>2023-09-27T11:56:20Z</time>
      </trkpt>
      <trkpt lat="49.88541" lon="2.50865">
        <ele>74.3</ele>
        <time>2023-09-27T11:56:21Z</time>
      </trkpt>
      <trkpt lat="49.88541" lon="2.50865">
        <ele>74.3</ele>
        <time>2023-09-27T11:56:22Z</time>
      </trkpt>
      <trkpt lat="49.88541" lon="2.50865">
        <ele>74.3</ele>
        <time>2023-09-27T11:56:23Z</time>
      </trkpt>
      <trkpt lat="49.88541" lon="2.50865">
        <ele>74.3</ele>
        <time>2023-09-27T11:56:24Z</time>
      </trkpt>
      <trkpt lat="49.88541" lon="2.50865">
        <ele>74.3</ele>
        <time>2023-09-27T11:56:25Z</time>
      </trkpt>
      <trkpt lat="49.88541" lon="2.50865">
        <ele>74.3</ele>
        <time>2023-09-27T11:56:26Z</time>
      </trkpt>
      <trkpt lat="49.88541" lon="2.50865">
        <ele>74.3</ele>
        <time>2023-09-27T11:56:27Z</time>
      </trkpt>
      <trkpt lat="49.88541" lon="2.50865">
        <ele>74.3</ele>
        <time>2023-09-27T11:56:28Z</time>
      </trkpt>
      <trkpt lat="49.88541" lon="2.50865">
        <ele>74.3</ele>
        <time>2023-09-27T11:56:29Z</time>
      </trkpt>
      <trkpt lat="49.88541" lon="2.50865">
        <ele>74.3</ele>
        <time>2023-09-27T11:56:30Z</time>
      </trkpt>
      <trkpt lat="49.88541" lon="2.50865">
        <ele>74.3</ele>
        <time>2023-09-27T11:56:31Z</time>
      </trkpt>
      <trkpt lat="49.88541" lon="2.50865">
        <ele>74.3</ele>
        <time>2023-09-27T11:56:32Z</time>
      </trkpt>
      <trkpt lat="49.88541" lon="2.50865">
        <ele>74.3</ele>
        <time>2023-09-27T11:56:33Z</time>
      </trkpt>
      <trkpt lat="49.88541" lon="2.50865">
        <ele>74.3</ele>
        <time>2023-09-27T11:56:34Z</time>
      </trkpt>
      <trkpt lat="49.88541" lon="2.50865">
        <ele>74.3</ele>
        <time>2023-09-27T11:56:35Z</time>
      </trkpt>
      <trkpt lat="49.88541" lon="2.50865">
        <ele>74.3</ele>
        <time>2023-09-27T11:56:36Z</time>
      </trkpt>
      <trkpt lat="49.88541" lon="2.50865">
        <ele>74.3</ele>
        <time>2023-09-27T11:56:37Z</time>
      </trkpt>
      <trkpt lat="49.88541" lon="2.50865">
        <ele>74.3</ele>
        <time>2023-09-27T11:56:38Z</time>
      </trkpt>
      <trkpt lat="49.88541" lon="2.50865">
        <ele>74.3</ele>
        <time>2023-09-27T11:56:39Z</time>
      </trkpt>
      <trkpt lat="49.88541" lon="2.50865">
        <ele>74.3</ele>
        <time>2023-09-27T11:56:40Z</time>
      </trkpt>
      <trkpt lat="49.88541" lon="2.50865">
        <ele>74.3</ele>
        <time>2023-09-27T11:56:41Z</time>
      </trkpt>
      <trkpt lat="49.88541" lon="2.50865">
        <ele>74.3</ele>
        <time>2023-09-27T11:56:42Z</time>
      </trkpt>
      <trkpt lat="49.88541" lon="2.50865">
        <ele>74.3</ele>
        <time>2023-09-27T11:56:43Z</time>
      </trkpt>
      <trkpt lat="49.88541" lon="2.50865">
        <ele>74.3</ele>
        <time>2023-09-27T11:56:44Z</time>
      </trkpt>
      <trkpt lat="49.88541" lon="2.50865">
        <ele>74.3</ele>
        <time>2023-09-27T11:56:45Z</time>
      </trkpt>
      <trkpt lat="49.88541" lon="2.50865">
        <ele>74.3</ele>
        <time>2023-09-27T11:56:46Z</time>
      </trkpt>
      <trkpt lat="49.88541" lon="2.50865">
        <ele>74.3</ele>
        <time>2023-09-27T11:56:47Z</time>
      </trkpt>
      <trkpt lat="49.88541" lon="2.50865">
        <ele>74.3</ele>
        <time>2023-09-27T11:56:48Z</time>
      </trkpt>
      <trkpt lat="49.88541" lon="2.50865">
        <ele>74.3</ele>
        <time>2023-09-27T11:56:49Z</time>
      </trkpt>
      <trkpt lat="49.88541" lon="2.50865">
        <ele>74.3</ele>
        <time>2023-09-27T11:56:50Z</time>
      </trkpt>
      <trkpt lat="49.88541" lon="2.50865">
        <ele>74.3</ele>
        <time>2023-09-27T11:56:51Z</time>
      </trkpt>
      <trkpt lat="49.88541" lon="2.50865">
        <ele>74.3</ele>
        <time>2023-09-27T11:56:52Z</time>
      </trkpt>
      <trkpt lat="49.88541" lon="2.50865">
        <ele>74.3</ele>
        <time>2023-09-27T11:56:53Z</time>
      </trkpt>
      <trkpt lat="49.88541" lon="2.50865">
        <ele>74.3</ele>
        <time>2023-09-27T11:56:54Z</time>
      </trkpt>
      <trkpt lat="49.88541" lon="2.50865">
        <ele>74.3</ele>
        <time>2023-09-27T11:56:55Z</time>
      </trkpt>
      <trkpt lat="49.88541" lon="2.50865">
        <ele>74.3</ele>
        <time>2023-09-27T11:56:56Z</time>
      </trkpt>
      <trkpt lat="49.88541" lon="2.50865">
        <ele>74.3</ele>
        <time>2023-09-27T11:56:57Z</time>
      </trkpt>
      <trkpt lat="49.88541" lon="2.50865">
        <ele>74.3</ele>
        <time>2023-09-27T11:56:58Z</time>
      </trkpt>
      <trkpt lat="49.88541" lon="2.50865">
        <ele>74.3</ele>
        <time>2023-09-27T11:56:59Z</time>
      </trkpt>
      <trkpt lat="49.88541" lon="2.50865">
        <ele>74.3</ele>
        <time>2023-09-27T11:57:00Z</time>
      </trkpt>
      <trkpt lat="49.88541" lon="2.50865">
        <ele>74.3</ele>
        <time>2023-09-27T11:57:01Z</time>
      </trkpt>
      <trkpt lat="49.88541" lon="2.50865">
        <ele>74.3</ele>
        <time>2023-09-27T11:57:02Z</time>
      </trkpt>
      <trkpt lat="49.88541" lon="2.50865">
        <ele>74.3</ele>
        <time>2023-09-27T11:57:03Z</time>
      </trkpt>
      <trkpt lat="49.88541" lon="2.50866">
        <ele>74.3</ele>
        <time>2023-09-27T11:57:04Z</time>
      </trkpt>
      <trkpt lat="49.88541" lon="2.50866">
        <ele>74.3</ele>
        <time>2023-09-27T11:57:05Z</time>
      </trkpt>
      <trkpt lat="49.88541" lon="2.50865">
        <ele>74.3</ele>
        <time>2023-09-27T11:57:06Z</time>
      </trkpt>
      <trkpt lat="49.88541" lon="2.50865">
        <ele>74.3</ele>
        <time>2023-09-27T11:57:07Z</time>
      </trkpt>
      <trkpt lat="49.88541" lon="2.50865">
        <ele>74.3</ele>
        <time>2023-09-27T11:57:08Z</time>
      </trkpt>
      <trkpt lat="49.88541" lon="2.50865">
        <ele>74.3</ele>
        <time>2023-09-27T11:57:09Z</time>
      </trkpt>
      <trkpt lat="49.88541" lon="2.50865">
        <ele>74.3</ele>
        <time>2023-09-27T11:57:10Z</time>
      </trkpt>
      <trkpt lat="49.88541" lon="2.50865">
        <ele>74.3</ele>
        <time>2023-09-27T11:57:11Z</time>
      </trkpt>
      <trkpt lat="49.88541" lon="2.50865">
        <ele>74.3</ele>
        <time>2023-09-27T11:57:12Z</time>
      </trkpt>
      <trkpt lat="49.88541" lon="2.50865">
        <ele>74.3</ele>
        <time>2023-09-27T11:57:13Z</time>
      </trkpt>
      <trkpt lat="49.88541" lon="2.50865">
        <ele>74.3</ele>
        <time>2023-09-27T11:57:14Z</time>
      </trkpt>
      <trkpt lat="49.88541" lon="2.50865">
        <ele>74.3</ele>
        <time>2023-09-27T11:57:15Z</time>
      </trkpt>
      <trkpt lat="49.88541" lon="2.50865">
        <ele>74.3</ele>
        <time>2023-09-27T11:57:16Z</time>
      </trkpt>
      <trkpt lat="49.88541" lon="2.50865">
        <ele>74.3</ele>
        <time>2023-09-27T11:57:17Z</time>
      </trkpt>
      <trkpt lat="49.88541" lon="2.50865">
        <ele>74.3</ele>
        <time>2023-09-27T11:57:18Z</time>
      </trkpt>
      <trkpt lat="49.88541" lon="2.50865">
        <ele>74.3</ele>
        <time>2023-09-27T11:57:19Z</time>
      </trkpt>
      <trkpt lat="49.88541" lon="2.50865">
        <ele>74.3</ele>
        <time>2023-09-27T11:57:20Z</time>
      </trkpt>
      <trkpt lat="49.88541" lon="2.50865">
        <ele>74.3</ele>
        <time>2023-09-27T11:57:21Z</time>
      </trkpt>
      <trkpt lat="49.88541" lon="2.50865">
        <ele>74.3</ele>
        <time>2023-09-27T11:57:22Z</time>
      </trkpt>
      <trkpt lat="49.88541" lon="2.50865">
        <ele>74.3</ele>
        <time>2023-09-27T11:57:23Z</time>
      </trkpt>
      <trkpt lat="49.88541" lon="2.50865">
        <ele>74.3</ele>
        <time>2023-09-27T11:57:24Z</time>
      </trkpt>
      <trkpt lat="49.88541" lon="2.50865">
        <ele>74.3</ele>
        <time>2023-09-27T11:57:25Z</time>
      </trkpt>
      <trkpt lat="49.88541" lon="2.50865">
        <ele>74.3</ele>
        <time>2023-09-27T11:57:26Z</time>
      </trkpt>
      <trkpt lat="49.88541" lon="2.50865">
        <ele>74.3</ele>
        <time>2023-09-27T11:57:27Z</time>
      </trkpt>
      <trkpt lat="49.88541" lon="2.50865">
        <ele>74.3</ele>
        <time>2023-09-27T11:57:28Z</time>
      </trkpt>
      <trkpt lat="49.88541" lon="2.50865">
        <ele>74.3</ele>
        <time>2023-09-27T11:57:29Z</time>
      </trkpt>
      <trkpt lat="49.88541" lon="2.50865">
        <ele>74.3</ele>
        <time>2023-09-27T11:57:30Z</time>
      </trkpt>
      <trkpt lat="49.88541" lon="2.50866">
        <ele>74.3</ele>
        <time>2023-09-27T11:57:31Z</time>
      </trkpt>
      <trkpt lat="49.88541" lon="2.50866">
        <ele>74.3</ele>
        <time>2023-09-27T11:57:32Z</time>
      </trkpt>
      <trkpt lat="49.88541" lon="2.50866">
        <ele>74.3</ele>
        <time>2023-09-27T11:57:33Z</time>
      </trkpt>
      <trkpt lat="49.88541" lon="2.50866">
        <ele>74.3</ele>
        <time>2023-09-27T11:57:34Z</time>
      </trkpt>
      <trkpt lat="49.88541" lon="2.50866">
        <ele>74.3</ele>
        <time>2023-09-27T11:57:35Z</time>
      </trkpt>
      <trkpt lat="49.88541" lon="2.50866">
        <ele>74.3</ele>
        <time>2023-09-27T11:57:36Z</time>
      </trkpt>
      <trkpt lat="49.88541" lon="2.50866">
        <ele>74.3</ele>
        <time>2023-09-27T11:57:37Z</time>
      </trkpt>
      <trkpt lat="49.88541" lon="2.50866">
        <ele>74.3</ele>
        <time>2023-09-27T11:57:38Z</time>
      </trkpt>
      <trkpt lat="49.88541" lon="2.50866">
        <ele>74.3</ele>
        <time>2023-09-27T11:57:39Z</time>
      </trkpt>
      <trkpt lat="49.88541" lon="2.50866">
        <ele>74.3</ele>
        <time>2023-09-27T11:57:40Z</time>
      </trkpt>
      <trkpt lat="49.88541" lon="2.50866">
        <ele>74.3</ele>
        <time>2023-09-27T11:57:41Z</time>
      </trkpt>
      <trkpt lat="49.88541" lon="2.50866">
        <ele>74.3</ele>
        <time>2023-09-27T11:57:42Z</time>
      </trkpt>
      <trkpt lat="49.88541" lon="2.50866">
        <ele>74.3</ele>
        <time>2023-09-27T11:57:43Z</time>
      </trkpt>
      <trkpt lat="49.88541" lon="2.50866">
        <ele>74.3</ele>
        <time>2023-09-27T11:57:44Z</time>
      </trkpt>
      <trkpt lat="49.88541" lon="2.50866">
        <ele>74.3</ele>
        <time>2023-09-27T11:57:45Z</time>
      </trkpt>
      <trkpt lat="49.88541" lon="2.50866">
        <ele>74.3</ele>
        <time>2023-09-27T11:57:46Z</time>
      </trkpt>
      <trkpt lat="49.88541" lon="2.50866">
        <ele>74.3</ele>
        <time>2023-09-27T11:57:47Z</time>
      </trkpt>
      <trkpt lat="49.88541" lon="2.50866">
        <ele>74.3</ele>
        <time>2023-09-27T11:57:48Z</time>
      </trkpt>
      <trkpt lat="49.88541" lon="2.50865">
        <ele>74.2</ele>
        <time>2023-09-27T11:57:49Z</time>
      </trkpt>
      <trkpt lat="49.88541" lon="2.50865">
        <ele>74.2</ele>
        <time>2023-09-27T11:57:50Z</time>
      </trkpt>
      <trkpt lat="49.88541" lon="2.50865">
        <ele>74.2</ele>
        <time>2023-09-27T11:57:51Z</time>
      </trkpt>
      <trkpt lat="49.88541" lon="2.50865">
        <ele>74.2</ele>
        <time>2023-09-27T11:57:52Z</time>
      </trkpt>
      <trkpt lat="49.88541" lon="2.50865">
        <ele>74.2</ele>
        <time>2023-09-27T11:57:53Z</time>
      </trkpt>
      <trkpt lat="49.88541" lon="2.50865">
        <ele>74.2</ele>
        <time>2023-09-27T11:57:54Z</time>
      </trkpt>
      <trkpt lat="49.88541" lon="2.50865">
        <ele>74.2</ele>
        <time>2023-09-27T11:57:55Z</time>
      </trkpt>
      <trkpt lat="49.88541" lon="2.50865">
        <ele>74.2</ele>
        <time>2023-09-27T11:57:56Z</time>
      </trkpt>
      <trkpt lat="49.88541" lon="2.50865">
        <ele>74.2</ele>
        <time>2023-09-27T11:57:57Z</time>
      </trkpt>
      <trkpt lat="49.88541" lon="2.50865">
        <ele>74.2</ele>
        <time>2023-09-27T11:57:58Z</time>
      </trkpt>
      <trkpt lat="49.88541" lon="2.50865">
        <ele>74.2</ele>
        <time>2023-09-27T11:57:59Z</time>
      </trkpt>
      <trkpt lat="49.88541" lon="2.50865">
        <ele>74.2</ele>
        <time>2023-09-27T11:58:00Z</time>
      </trkpt>
      <trkpt lat="49.88541" lon="2.50865">
        <ele>74.2</ele>
        <time>2023-09-27T11:58:01Z</time>
      </trkpt>
      <trkpt lat="49.88541" lon="2.50865">
        <ele>74.2</ele>
        <time>2023-09-27T11:58:02Z</time>
      </trkpt>
      <trkpt lat="49.88541" lon="2.50865">
        <ele>74.2</ele>
        <time>2023-09-27T11:58:03Z</time>
      </trkpt>
      <trkpt lat="49.88541" lon="2.50865">
        <ele>74.2</ele>
        <time>2023-09-27T11:58:04Z</time>
      </trkpt>
      <trkpt lat="49.88541" lon="2.50865">
        <ele>74.2</ele>
        <time>2023-09-27T11:58:05Z</time>
      </trkpt>
      <trkpt lat="49.88541" lon="2.50865">
        <ele>74.2</ele>
        <time>2023-09-27T11:58:06Z</time>
      </trkpt>
      <trkpt lat="49.88541" lon="2.50865">
        <ele>74.2</ele>
        <time>2023-09-27T11:58:07Z</time>
      </trkpt>
      <trkpt lat="49.88541" lon="2.50865">
        <ele>74.2</ele>
        <time>2023-09-27T11:58:08Z</time>
      </trkpt>
      <trkpt lat="49.88541" lon="2.50865">
        <ele>74.2</ele>
        <time>2023-09-27T11:58:09Z</time>
      </trkpt>
      <trkpt lat="49.88541" lon="2.50865">
        <ele>74.2</ele>
        <time>2023-09-27T11:58:10Z</time>
      </trkpt>
      <trkpt lat="49.88541" lon="2.50865">
        <ele>74.2</ele>
        <time>2023-09-27T11:58:11Z</time>
      </trkpt>
      <trkpt lat="49.88541" lon="2.50865">
        <ele>74.2</ele>
        <time>2023-09-27T11:58:12Z</time>
      </trkpt>
      <trkpt lat="49.88541" lon="2.50865">
        <ele>74.2</ele>
        <time>2023-09-27T11:58:13Z</time>
      </trkpt>
      <trkpt lat="49.88541" lon="2.50865">
        <ele>74.2</ele>
        <time>2023-09-27T11:58:14Z</time>
      </trkpt>
      <trkpt lat="49.88541" lon="2.50865">
        <ele>74.2</ele>
        <time>2023-09-27T11:58:15Z</time>
      </trkpt>
      <trkpt lat="49.88541" lon="2.50865">
        <ele>74.2</ele>
        <time>2023-09-27T11:58:16Z</time>
      </trkpt>
      <trkpt lat="49.88541" lon="2.50865">
        <ele>74.2</ele>
        <time>2023-09-27T11:58:17Z</time>
      </trkpt>
      <trkpt lat="49.88541" lon="2.50865">
        <ele>74.2</ele>
        <time>2023-09-27T11:58:18Z</time>
      </trkpt>
      <trkpt lat="49.88541" lon="2.50865">
        <ele>74.2</ele>
        <time>2023-09-27T11:58:19Z</time>
      </trkpt>
      <trkpt lat="49.88541" lon="2.50865">
        <ele>74.2</ele>
        <time>2023-09-27T11:58:20Z</time>
      </trkpt>
      <trkpt lat="49.88541" lon="2.50865">
        <ele>74.2</ele>
        <time>2023-09-27T11:58:21Z</time>
      </trkpt>
      <trkpt lat="49.88541" lon="2.50865">
        <ele>74.2</ele>
        <time>2023-09-27T11:58:22Z</time>
      </trkpt>
      <trkpt lat="49.88541" lon="2.50865">
        <ele>74.2</ele>
        <time>2023-09-27T11:58:23Z</time>
      </trkpt>
      <trkpt lat="49.88541" lon="2.50865">
        <ele>74.2</ele>
        <time>2023-09-27T11:58:24Z</time>
      </trkpt>
      <trkpt lat="49.88541" lon="2.50865">
        <ele>74.2</ele>
        <time>2023-09-27T11:58:25Z</time>
      </trkpt>
      <trkpt lat="49.88541" lon="2.50865">
        <ele>74.2</ele>
        <time>2023-09-27T11:58:26Z</time>
      </trkpt>
      <trkpt lat="49.88541" lon="2.50865">
        <ele>74.2</ele>
        <time>2023-09-27T11:58:27Z</time>
      </trkpt>
      <trkpt lat="49.88541" lon="2.50865">
        <ele>74.2</ele>
        <time>2023-09-27T11:58:28Z</time>
      </trkpt>
      <trkpt lat="49.88541" lon="2.50865">
        <ele>74.2</ele>
        <time>2023-09-27T11:58:29Z</time>
      </trkpt>
      <trkpt lat="49.88541" lon="2.50865">
        <ele>74.2</ele>
        <time>2023-09-27T11:58:30Z</time>
      </trkpt>
      <trkpt lat="49.88541" lon="2.50865">
        <ele>74.2</ele>
        <time>2023-09-27T11:58:31Z</time>
      </trkpt>
      <trkpt lat="49.88541" lon="2.50865">
        <ele>74.2</ele>
        <time>2023-09-27T11:58:32Z</time>
      </trkpt>
      <trkpt lat="49.88541" lon="2.50865">
        <ele>74.2</ele>
        <time>2023-09-27T11:58:33Z</time>
      </trkpt>
      <trkpt lat="49.88541" lon="2.50865">
        <ele>74.2</ele>
        <time>2023-09-27T11:58:34Z</time>
      </trkpt>
      <trkpt lat="49.88541" lon="2.50865">
        <ele>74.2</ele>
        <time>2023-09-27T11:58:35Z</time>
      </trkpt>
      <trkpt lat="49.88541" lon="2.50865">
        <ele>74.2</ele>
        <time>2023-09-27T11:58:36Z</time>
      </trkpt>
      <trkpt lat="49.88541" lon="2.50865">
        <ele>74.2</ele>
        <time>2023-09-27T11:58:37Z</time>
      </trkpt>
      <trkpt lat="49.88541" lon="2.50865">
        <ele>74.2</ele>
        <time>2023-09-27T11:58:38Z</time>
      </trkpt>
      <trkpt lat="49.88541" lon="2.50865">
        <ele>74.2</ele>
        <time>2023-09-27T11:58:39Z</time>
      </trkpt>
      <trkpt lat="49.88541" lon="2.50865">
        <ele>74.2</ele>
        <time>2023-09-27T11:58:40Z</time>
      </trkpt>
      <trkpt lat="49.88541" lon="2.50865">
        <ele>74.2</ele>
        <time>2023-09-27T11:58:41Z</time>
      </trkpt>
      <trkpt lat="49.88541" lon="2.50865">
        <ele>74.2</ele>
        <time>2023-09-27T11:58:42Z</time>
      </trkpt>
      <trkpt lat="49.88541" lon="2.50865">
        <ele>74.2</ele>
        <time>2023-09-27T11:58:43Z</time>
      </trkpt>
      <trkpt lat="49.88541" lon="2.50865">
        <ele>74.2</ele>
        <time>2023-09-27T11:58:44Z</time>
      </trkpt>
      <trkpt lat="49.88541" lon="2.50865">
        <ele>74.2</ele>
        <time>2023-09-27T11:58:45Z</time>
      </trkpt>
      <trkpt lat="49.88541" lon="2.50865">
        <ele>74.2</ele>
        <time>2023-09-27T11:58:46Z</time>
      </trkpt>
      <trkpt lat="49.88541" lon="2.50865">
        <ele>74.2</ele>
        <time>2023-09-27T11:58:47Z</time>
      </trkpt>
      <trkpt lat="49.88541" lon="2.50865">
        <ele>74.2</ele>
        <time>2023-09-27T11:58:48Z</time>
      </trkpt>
      <trkpt lat="49.88541" lon="2.50865">
        <ele>74.2</ele>
        <time>2023-09-27T11:58:49Z</time>
      </trkpt>
      <trkpt lat="49.88541" lon="2.50865">
        <ele>74.2</ele>
        <time>2023-09-27T11:58:50Z</time>
      </trkpt>
      <trkpt lat="49.88541" lon="2.50865">
        <ele>74.2</ele>
        <time>2023-09-27T11:58:51Z</time>
      </trkpt>
      <trkpt lat="49.88541" lon="2.50865">
        <ele>74.2</ele>
        <time>2023-09-27T11:58:52Z</time>
      </trkpt>
      <trkpt lat="49.88541" lon="2.50865">
        <ele>74.2</ele>
        <time>2023-09-27T11:58:53Z</time>
      </trkpt>
      <trkpt lat="49.88541" lon="2.50865">
        <ele>74.2</ele>
        <time>2023-09-27T11:58:54Z</time>
      </trkpt>
      <trkpt lat="49.88541" lon="2.50865">
        <ele>74.2</ele>
        <time>2023-09-27T11:58:55Z</time>
      </trkpt>
      <trkpt lat="49.88541" lon="2.50865">
        <ele>74.2</ele>
        <time>2023-09-27T11:58:56Z</time>
      </trkpt>
      <trkpt lat="49.88541" lon="2.50865">
        <ele>74.2</ele>
        <time>2023-09-27T11:58:57Z</time>
      </trkpt>
      <trkpt lat="49.88541" lon="2.50865">
        <ele>74.2</ele>
        <time>2023-09-27T11:58:58Z</time>
      </trkpt>
      <trkpt lat="49.88541" lon="2.50865">
        <ele>74.2</ele>
        <time>2023-09-27T11:58:59Z</time>
      </trkpt>
      <trkpt lat="49.88541" lon="2.50865">
        <ele>74.2</ele>
        <time>2023-09-27T11:59:00Z</time>
      </trkpt>
      <trkpt lat="49.88541" lon="2.50865">
        <ele>74.2</ele>
        <time>2023-09-27T11:59:01Z</time>
      </trkpt>
      <trkpt lat="49.88541" lon="2.50865">
        <ele>74.2</ele>
        <time>2023-09-27T11:59:02Z</time>
      </trkpt>
      <trkpt lat="49.88541" lon="2.50865">
        <ele>74.2</ele>
        <time>2023-09-27T11:59:03Z</time>
      </trkpt>
      <trkpt lat="49.88541" lon="2.50865">
        <ele>74.2</ele>
        <time>2023-09-27T11:59:04Z</time>
      </trkpt>
      <trkpt lat="49.88541" lon="2.50865">
        <ele>74.2</ele>
        <time>2023-09-27T11:59:05Z</time>
      </trkpt>
      <trkpt lat="49.88541" lon="2.50865">
        <ele>74.2</ele>
        <time>2023-09-27T11:59:06Z</time>
      </trkpt>
      <trkpt lat="49.88541" lon="2.50865">
        <ele>74.2</ele>
        <time>2023-09-27T11:59:07Z</time>
      </trkpt>
      <trkpt lat="49.88541" lon="2.50865">
        <ele>74.2</ele>
        <time>2023-09-27T11:59:08Z</time>
      </trkpt>
      <trkpt lat="49.88541" lon="2.50865">
        <ele>74.2</ele>
        <time>2023-09-27T11:59:09Z</time>
      </trkpt>
      <trkpt lat="49.88541" lon="2.50865">
        <ele>74.2</ele>
        <time>2023-09-27T11:59:10Z</time>
      </trkpt>
      <trkpt lat="49.88541" lon="2.50865">
        <ele>74.2</ele>
        <time>2023-09-27T11:59:11Z</time>
      </trkpt>
      <trkpt lat="49.88541" lon="2.50865">
        <ele>74.2</ele>
        <time>2023-09-27T11:59:12Z</time>
      </trkpt>
      <trkpt lat="49.88541" lon="2.50865">
        <ele>74.2</ele>
        <time>2023-09-27T11:59:13Z</time>
      </trkpt>
      <trkpt lat="49.88541" lon="2.50865">
        <ele>74.2</ele>
        <time>2023-09-27T11:59:14Z</time>
      </trkpt>
      <trkpt lat="49.88541" lon="2.50865">
        <ele>74.2</ele>
        <time>2023-09-27T11:59:15Z</time>
      </trkpt>
      <trkpt lat="49.88541" lon="2.50865">
        <ele>74.2</ele>
        <time>2023-09-27T11:59:16Z</time>
      </trkpt>
      <trkpt lat="49.88541" lon="2.50865">
        <ele>74.2</ele>
        <time>2023-09-27T11:59:17Z</time>
      </trkpt>
      <trkpt lat="49.88541" lon="2.50865">
        <ele>74.2</ele>
        <time>2023-09-27T11:59:18Z</time>
      </trkpt>
      <trkpt lat="49.88541" lon="2.50865">
        <ele>74.2</ele>
        <time>2023-09-27T11:59:19Z</time>
      </trkpt>
      <trkpt lat="49.88541" lon="2.50865">
        <ele>74.2</ele>
        <time>2023-09-27T11:59:20Z</time>
      </trkpt>
      <trkpt lat="49.88541" lon="2.50865">
        <ele>74.2</ele>
        <time>2023-09-27T11:59:21Z</time>
      </trkpt>
      <trkpt lat="49.88541" lon="2.50865">
        <ele>74.2</ele>
        <time>2023-09-27T11:59:22Z</time>
      </trkpt>
      <trkpt lat="49.88541" lon="2.50865">
        <ele>74.2</ele>
        <time>2023-09-27T11:59:23Z</time>
      </trkpt>
      <trkpt lat="49.88541" lon="2.50865">
        <ele>74.2</ele>
        <time>2023-09-27T11:59:24Z</time>
      </trkpt>
      <trkpt lat="49.88541" lon="2.50865">
        <ele>74.2</ele>
        <time>2023-09-27T11:59:25Z</time>
      </trkpt>
      <trkpt lat="49.88541" lon="2.50865">
        <ele>74.2</ele>
        <time>2023-09-27T11:59:26Z</time>
      </trkpt>
      <trkpt lat="49.88541" lon="2.50865">
        <ele>74.2</ele>
        <time>2023-09-27T11:59:27Z</time>
      </trkpt>
      <trkpt lat="49.88541" lon="2.50865">
        <ele>74.2</ele>
        <time>2023-09-27T11:59:28Z</time>
      </trkpt>
      <trkpt lat="49.88541" lon="2.50865">
        <ele>74.2</ele>
        <time>2023-09-27T11:59:29Z</time>
      </trkpt>
      <trkpt lat="49.88541" lon="2.50865">
        <ele>74.2</ele>
        <time>2023-09-27T11:59:30Z</time>
      </trkpt>
      <trkpt lat="49.88541" lon="2.50865">
        <ele>74.2</ele>
        <time>2023-09-27T11:59:31Z</time>
      </trkpt>
      <trkpt lat="49.88541" lon="2.50865">
        <ele>74.2</ele>
        <time>2023-09-27T11:59:32Z</time>
      </trkpt>
      <trkpt lat="49.88541" lon="2.50865">
        <ele>74.2</ele>
        <time>2023-09-27T11:59:33Z</time>
      </trkpt>
      <trkpt lat="49.88541" lon="2.50865">
        <ele>74.2</ele>
        <time>2023-09-27T11:59:34Z</time>
      </trkpt>
      <trkpt lat="49.88541" lon="2.50865">
        <ele>74.2</ele>
        <time>2023-09-27T11:59:35Z</time>
      </trkpt>
      <trkpt lat="49.88541" lon="2.50865">
        <ele>74.2</ele>
        <time>2023-09-27T11:59:36Z</time>
      </trkpt>
      <trkpt lat="49.88541" lon="2.50865">
        <ele>74.2</ele>
        <time>2023-09-27T11:59:37Z</time>
      </trkpt>
      <trkpt lat="49.88541" lon="2.50865">
        <ele>74.2</ele>
        <time>2023-09-27T11:59:38Z</time>
      </trkpt>
      <trkpt lat="49.88541" lon="2.50865">
        <ele>74.2</ele>
        <time>2023-09-27T11:59:39Z</time>
      </trkpt>
      <trkpt lat="49.88541" lon="2.50865">
        <ele>74.2</ele>
        <time>2023-09-27T11:59:40Z</time>
      </trkpt>
      <trkpt lat="49.88541" lon="2.50865">
        <ele>74.2</ele>
        <time>2023-09-27T11:59:41Z</time>
      </trkpt>
      <trkpt lat="49.88541" lon="2.50865">
        <ele>74.2</ele>
        <time>2023-09-27T11:59:42Z</time>
      </trkpt>
      <trkpt lat="49.88541" lon="2.50865">
        <ele>74.2</ele>
        <time>2023-09-27T11:59:43Z</time>
      </trkpt>
      <trkpt lat="49.88541" lon="2.50865">
        <ele>74.2</ele>
        <time>2023-09-27T11:59:44Z</time>
      </trkpt>
      <trkpt lat="49.88541" lon="2.50865">
        <ele>74.2</ele>
        <time>2023-09-27T11:59:45Z</time>
      </trkpt>
      <trkpt lat="49.88541" lon="2.50865">
        <ele>74.2</ele>
        <time>2023-09-27T11:59:46Z</time>
      </trkpt>
      <trkpt lat="49.88541" lon="2.50865">
        <ele>74.2</ele>
        <time>2023-09-27T11:59:47Z</time>
      </trkpt>
      <trkpt lat="49.88541" lon="2.50865">
        <ele>74.2</ele>
        <time>2023-09-27T11:59:48Z</time>
      </trkpt>
      <trkpt lat="49.88541" lon="2.50865">
        <ele>74.2</ele>
        <time>2023-09-27T11:59:49Z</time>
      </trkpt>
      <trkpt lat="49.88541" lon="2.50865">
        <ele>74.2</ele>
        <time>2023-09-27T11:59:50Z</time>
      </trkpt>
      <trkpt lat="49.88541" lon="2.50865">
        <ele>74.2</ele>
        <time>2023-09-27T11:59:51Z</time>
      </trkpt>
      <trkpt lat="49.88541" lon="2.50865">
        <ele>74.2</ele>
        <time>2023-09-27T11:59:52Z</time>
      </trkpt>
      <trkpt lat="49.88541" lon="2.50865">
        <ele>74.2</ele>
        <time>2023-09-27T11:59:53Z</time>
      </trkpt>
      <trkpt lat="49.88541" lon="2.50865">
        <ele>74.2</ele>
        <time>2023-09-27T11:59:54Z</time>
      </trkpt>
      <trkpt lat="49.88541" lon="2.50865">
        <ele>74.2</ele>
        <time>2023-09-27T11:59:55Z</time>
      </trkpt>
      <trkpt lat="49.88541" lon="2.50865">
        <ele>74.2</ele>
        <time>2023-09-27T11:59:56Z</time>
      </trkpt>
      <trkpt lat="49.88541" lon="2.50865">
        <ele>74.2</ele>
        <time>2023-09-27T11:59:57Z</time>
      </trkpt>
      <trkpt lat="49.88541" lon="2.50865">
        <ele>74.2</ele>
        <time>2023-09-27T11:59:58Z</time>
      </trkpt>
      <trkpt lat="49.88541" lon="2.50865">
        <ele>74.2</ele>
        <time>2023-09-27T11:59:59Z</time>
      </trkpt>
      <trkpt lat="49.88541" lon="2.50865">
        <ele>74.2</ele>
        <time>2023-09-27T12:00:00Z</time>
      </trkpt>
      <trkpt lat="49.88541" lon="2.50865">
        <ele>74.2</ele>
        <time>2023-09-27T12:00:01Z</time>
      </trkpt>
      <trkpt lat="49.88541" lon="2.50865">
        <ele>74.2</ele>
        <time>2023-09-27T12:00:02Z</time>
      </trkpt>
      <trkpt lat="49.88541" lon="2.50865">
        <ele>74.2</ele>
        <time>2023-09-27T12:00:03Z</time>
      </trkpt>
      <trkpt lat="49.88541" lon="2.50865">
        <ele>74.2</ele>
        <time>2023-09-27T12:00:04Z</time>
      </trkpt>
      <trkpt lat="49.88541" lon="2.50865">
        <ele>74.2</ele>
        <time>2023-09-27T12:00:05Z</time>
      </trkpt>
      <trkpt lat="49.88541" lon="2.50865">
        <ele>74.2</ele>
        <time>2023-09-27T12:00:06Z</time>
      </trkpt>
      <trkpt lat="49.88541" lon="2.50865">
        <ele>74.2</ele>
        <time>2023-09-27T12:00:07Z</time>
      </trkpt>
      <trkpt lat="49.88541" lon="2.50865">
        <ele>74.2</ele>
        <time>2023-09-27T12:00:08Z</time>
      </trkpt>
      <trkpt lat="49.88541" lon="2.50865">
        <ele>74.2</ele>
        <time>2023-09-27T12:00:09Z</time>
      </trkpt>
      <trkpt lat="49.88541" lon="2.50865">
        <ele>74.2</ele>
        <time>2023-09-27T12:00:10Z</time>
      </trkpt>
      <trkpt lat="49.88541" lon="2.50865">
        <ele>74.2</ele>
        <time>2023-09-27T12:00:11Z</time>
      </trkpt>
      <trkpt lat="49.88541" lon="2.50865">
        <ele>74.2</ele>
        <time>2023-09-27T12:00:12Z</time>
      </trkpt>
      <trkpt lat="49.88541" lon="2.50865">
        <ele>74.2</ele>
        <time>2023-09-27T12:00:13Z</time>
      </trkpt>
      <trkpt lat="49.88541" lon="2.50865">
        <ele>74.2</ele>
        <time>2023-09-27T12:00:14Z</time>
      </trkpt>
      <trkpt lat="49.88541" lon="2.50865">
        <ele>74.2</ele>
        <time>2023-09-27T12:00:15Z</time>
      </trkpt>
      <trkpt lat="49.88541" lon="2.50865">
        <ele>74.2</ele>
        <time>2023-09-27T12:00:16Z</time>
      </trkpt>
      <trkpt lat="49.88541" lon="2.50865">
        <ele>74.2</ele>
        <time>2023-09-27T12:00:17Z</time>
      </trkpt>
      <trkpt lat="49.8854" lon="2.50865">
        <ele>74.2</ele>
        <time>2023-09-27T12:00:18Z</time>
      </trkpt>
      <trkpt lat="49.8854" lon="2.50865">
        <ele>74.2</ele>
        <time>2023-09-27T12:00:19Z</time>
      </trkpt>
      <trkpt lat="49.8854" lon="2.50865">
        <ele>74.2</ele>
        <time>2023-09-27T12:00:20Z</time>
      </trkpt>
      <trkpt lat="49.8854" lon="2.50865">
        <ele>74.2</ele>
        <time>2023-09-27T12:00:21Z</time>
      </trkpt>
      <trkpt lat="49.8854" lon="2.50865">
        <ele>74.2</ele>
        <time>2023-09-27T12:00:22Z</time>
      </trkpt>
      <trkpt lat="49.8854" lon="2.50865">
        <ele>74.2</ele>
        <time>2023-09-27T12:00:23Z</time>
      </trkpt>
      <trkpt lat="49.8854" lon="2.50865">
        <ele>74.2</ele>
        <time>2023-09-27T12:00:24Z</time>
      </trkpt>
      <trkpt lat="49.8854" lon="2.50865">
        <ele>74.2</ele>
        <time>2023-09-27T12:00:25Z</time>
      </trkpt>
      <trkpt lat="49.8854" lon="2.50865">
        <ele>74.2</ele>
        <time>2023-09-27T12:00:26Z</time>
      </trkpt>
      <trkpt lat="49.8854" lon="2.50865">
        <ele>74.2</ele>
        <time>2023-09-27T12:00:27Z</time>
      </trkpt>
      <trkpt lat="49.8854" lon="2.50865">
        <ele>74.2</ele>
        <time>2023-09-27T12:00:28Z</time>
      </trkpt>
      <trkpt lat="49.8854" lon="2.50865">
        <ele>74.2</ele>
        <time>2023-09-27T12:00:29Z</time>
      </trkpt>
      <trkpt lat="49.8854" lon="2.50865">
        <ele>74.2</ele>
        <time>2023-09-27T12:00:30Z</time>
      </trkpt>
      <trkpt lat="49.8854" lon="2.50865">
        <ele>74.2</ele>
        <time>2023-09-27T12:00:31Z</time>
      </trkpt>
      <trkpt lat="49.8854" lon="2.50865">
        <ele>74.2</ele>
        <time>2023-09-27T12:00:32Z</time>
      </trkpt>
      <trkpt lat="49.8854" lon="2.50865">
        <ele>74.2</ele>
        <time>2023-09-27T12:00:33Z</time>
      </trkpt>
      <trkpt lat="49.8854" lon="2.50865">
        <ele>74.2</ele>
        <time>2023-09-27T12:00:34Z</time>
      </trkpt>
      <trkpt lat="49.8854" lon="2.50865">
        <ele>74.2</ele>
        <time>2023-09-27T12:00:35Z</time>
      </trkpt>
      <trkpt lat="49.8854" lon="2.50865">
        <ele>74.2</ele>
        <time>2023-09-27T12:00:36Z</time>
      </trkpt>
      <trkpt lat="49.8854" lon="2.50865">
        <ele>74.2</ele>
        <time>2023-09-27T12:00:37Z</time>
      </trkpt>
      <trkpt lat="49.8854" lon="2.50865">
        <ele>74.2</ele>
        <time>2023-09-27T12:00:38Z</time>
      </trkpt>
      <trkpt lat="49.8854" lon="2.50865">
        <ele>74.2</ele>
        <time>2023-09-27T12:00:39Z</time>
      </trkpt>
      <trkpt lat="49.8854" lon="2.50865">
        <ele>74.2</ele>
        <time>2023-09-27T12:00:40Z</time>
      </trkpt>
      <trkpt lat="49.8854" lon="2.50865">
        <ele>74.2</ele>
        <time>2023-09-27T12:00:41Z</time>
      </trkpt>
      <trkpt lat="49.8854" lon="2.50865">
        <ele>74.2</ele>
        <time>2023-09-27T12:00:42Z</time>
      </trkpt>
      <trkpt lat="49.8854" lon="2.50864">
        <ele>74.2</ele>
        <time>2023-09-27T12:00:43Z</time>
      </trkpt>
      <trkpt lat="49.8854" lon="2.50864">
        <ele>74.2</ele>
        <time>2023-09-27T12:00:44Z</time>
      </trkpt>
      <trkpt lat="49.8854" lon="2.50863">
        <ele>74.2</ele>
        <time>2023-09-27T12:00:45Z</time>
      </trkpt>
      <trkpt lat="49.8854" lon="2.50863">
        <ele>74.2</ele>
        <time>2023-09-27T12:00:46Z</time>
      </trkpt>
      <trkpt lat="49.8854" lon="2.50862">
        <ele>74.2</ele>
        <time>2023-09-27T12:00:47Z</time>
      </trkpt>
      <trkpt lat="49.88539" lon="2.50861">
        <ele>74.2</ele>
        <time>2023-09-27T12:00:48Z</time>
      </trkpt>
      <trkpt lat="49.88539" lon="2.5086">
        <ele>74.1</ele>
        <time>2023-09-27T12:00:49Z</time>
      </trkpt>
      <trkpt lat="49.88538" lon="2.50859">
        <ele>74.1</ele>
        <time>2023-09-27T12:00:50Z</time>
      </trkpt>
      <trkpt lat="49.88538" lon="2.50857">
        <ele>74.1</ele>
        <time>2023-09-27T12:00:51Z</time>
      </trkpt>
      <trkpt lat="49.88538" lon="2.50856">
        <ele>74.1</ele>
        <time>2023-09-27T12:00:52Z</time>
      </trkpt>
      <trkpt lat="49.88537" lon="2.50855">
        <ele>74.1</ele>
        <time>2023-09-27T12:00:53Z</time>
      </trkpt>
      <trkpt lat="49.88537" lon="2.50854">
        <ele>74.1</ele>
        <time>2023-09-27T12:00:54Z</time>
      </trkpt>
      <trkpt lat="49.88537" lon="2.50853">
        <ele>74</ele>
        <time>2023-09-27T12:00:55Z</time>
      </trkpt>
      <trkpt lat="49.88536" lon="2.50852">
        <ele>74</ele>
        <time>2023-09-27T12:00:56Z</time>
      </trkpt>
      <trkpt lat="49.88536" lon="2.50851">
        <ele>74</ele>
        <time>2023-09-27T12:00:57Z</time>
      </trkpt>
      <trkpt lat="49.88535" lon="2.5085">
        <ele>74</ele>
        <time>2023-09-27T12:00:58Z</time>
      </trkpt>
      <trkpt lat="49.88535" lon="2.50849">
        <ele>74</ele>
        <time>2023-09-27T12:00:59Z</time>
      </trkpt>
      <trkpt lat="49.88535" lon="2.50848">
        <ele>74</ele>
        <time>2023-09-27T12:01:00Z</time>
      </trkpt>
      <trkpt lat="49.88535" lon="2.50847">
        <ele>73.9</ele>
        <time>2023-09-27T12:01:01Z</time>
      </trkpt>
      <trkpt lat="49.88535" lon="2.50846">
        <ele>73.9</ele>
        <time>2023-09-27T12:01:02Z</time>
      </trkpt>
      <trkpt lat="49.88535" lon="2.50845">
        <ele>73.9</ele>
        <time>2023-09-27T12:01:03Z</time>
      </trkpt>
      <trkpt lat="49.88534" lon="2.50845">
        <ele>73.9</ele>
        <time>2023-09-27T12:01:04Z</time>
      </trkpt>
      <trkpt lat="49.88534" lon="2.50844">
        <ele>73.9</ele>
        <time>2023-09-27T12:01:05Z</time>
      </trkpt>
      <trkpt lat="49.88534" lon="2.50844">
        <ele>73.9</ele>
        <time>2023-09-27T12:01:06Z</time>
      </trkpt>
      <trkpt lat="49.88534" lon="2.50843">
        <ele>73.9</ele>
        <time>2023-09-27T12:01:07Z</time>
      </trkpt>
      <trkpt lat="49.88534" lon="2.50843">
        <ele>73.9</ele>
        <time>2023-09-27T12:01:08Z</time>
      </trkpt>
      <trkpt lat="49.88534" lon="2.50843">
        <ele>73.9</ele>
        <time>2023-09-27T12:01:09Z</time>
      </trkpt>
      <trkpt lat="49.88534" lon="2.50843">
        <ele>73.9</ele>
        <time>2023-09-27T12:01:10Z</time>
      </trkpt>
      <trkpt lat="49.88534" lon="2.50842">
        <ele>73.9</ele>
        <time>2023-09-27T12:01:11Z</time>
      </trkpt>
      <trkpt lat="49.88534" lon="2.50842">
        <ele>73.9</ele>
        <time>2023-09-27T12:01:12Z</time>
      </trkpt>
      <trkpt lat="49.88534" lon="2.50842">
        <ele>73.9</ele>
        <time>2023-09-27T12:01:13Z</time>
      </trkpt>
      <trkpt lat="49.88534" lon="2.50842">
        <ele>73.9</ele>
        <time>2023-09-27T12:01:14Z</time>
      </trkpt>
      <trkpt lat="49.88534" lon="2.50842">
        <ele>73.9</ele>
        <time>2023-09-27T12:01:15Z</time>
      </trkpt>
      <trkpt lat="49.88534" lon="2.50842">
        <ele>73.9</ele>
        <time>2023-09-27T12:01:16Z</time>
      </trkpt>
      <trkpt lat="49.88534" lon="2.50842">
        <ele>73.9</ele>
        <time>2023-09-27T12:01:17Z</time>
      </trkpt>
      <trkpt lat="49.88534" lon="2.50842">
        <ele>73.9</ele>
        <time>2023-09-27T12:01:18Z</time>
      </trkpt>
      <trkpt lat="49.88534" lon="2.50842">
        <ele>73.9</ele>
        <time>2023-09-27T12:01:19Z</time>
      </trkpt>
      <trkpt lat="49.88534" lon="2.50842">
        <ele>73.9</ele>
        <time>2023-09-27T12:01:20Z</time>
      </trkpt>
      <trkpt lat="49.88534" lon="2.50842">
        <ele>73.9</ele>
        <time>2023-09-27T12:01:21Z</time>
      </trkpt>
      <trkpt lat="49.88534" lon="2.50841">
        <ele>73.9</ele>
        <time>2023-09-27T12:01:22Z</time>
      </trkpt>
      <trkpt lat="49.88534" lon="2.50841">
        <ele>73.9</ele>
        <time>2023-09-27T12:01:23Z</time>
      </trkpt>
      <trkpt lat="49.88534" lon="2.50841">
        <ele>73.9</ele>
        <time>2023-09-27T12:01:24Z</time>
      </trkpt>
      <trkpt lat="49.88534" lon="2.50841">
        <ele>73.9</ele>
        <time>2023-09-27T12:01:25Z</time>
      </trkpt>
      <trkpt lat="49.88534" lon="2.50841">
        <ele>73.9</ele>
        <time>2023-09-27T12:01:26Z</time>
      </trkpt>
      <trkpt lat="49.88534" lon="2.50841">
        <ele>73.9</ele>
        <time>2023-09-27T12:01:27Z</time>
      </trkpt>
      <trkpt lat="49.88534" lon="2.50841">
        <ele>73.9</ele>
        <time>2023-09-27T12:01:28Z</time>
      </trkpt>
      <trkpt lat="49.88534" lon="2.50841">
        <ele>73.9</ele>
        <time>2023-09-27T12:01:29Z</time>
      </trkpt>
      <trkpt lat="49.88534" lon="2.50841">
        <ele>73.9</ele>
        <time>2023-09-27T12:01:30Z</time>
      </trkpt>
      <trkpt lat="49.88534" lon="2.50841">
        <ele>73.9</ele>
        <time>2023-09-27T12:01:31Z</time>
      </trkpt>
      <trkpt lat="49.88534" lon="2.5084">
        <ele>73.8</ele>
        <time>2023-09-27T12:01:32Z</time>
      </trkpt>
      <trkpt lat="49.88534" lon="2.50839">
        <ele>73.8</ele>
        <time>2023-09-27T12:01:33Z</time>
      </trkpt>
      <trkpt lat="49.88534" lon="2.50839">
        <ele>73.8</ele>
        <time>2023-09-27T12:01:34Z</time>
      </trkpt>
      <trkpt lat="49.88534" lon="2.50838">
        <ele>73.8</ele>
        <time>2023-09-27T12:01:35Z</time>
      </trkpt>
      <trkpt lat="49.88533" lon="2.50837">
        <ele>73.8</ele>
        <time>2023-09-27T12:01:36Z</time>
      </trkpt>
      <trkpt lat="49.88533" lon="2.50837">
        <ele>73.8</ele>
        <time>2023-09-27T12:01:37Z</time>
      </trkpt>
      <trkpt lat="49.88533" lon="2.50836">
        <ele>73.8</ele>
        <time>2023-09-27T12:01:38Z</time>
      </trkpt>
      <trkpt lat="49.88533" lon="2.50836">
        <ele>73.8</ele>
        <time>2023-09-27T12:01:39Z</time>
      </trkpt>
      <trkpt lat="49.88533" lon="2.50835">
        <ele>73.8</ele>
        <time>2023-09-27T12:01:40Z</time>
      </trkpt>
      <trkpt lat="49.88533" lon="2.50835">
        <ele>73.8</ele>
        <time>2023-09-27T12:01:41Z</time>
      </trkpt>
      <trkpt lat="49.88533" lon="2.50834">
        <ele>73.8</ele>
        <time>2023-09-27T12:01:42Z</time>
      </trkpt>
      <trkpt lat="49.88533" lon="2.50834">
        <ele>73.8</ele>
        <time>2023-09-27T12:01:43Z</time>
      </trkpt>
      <trkpt lat="49.88533" lon="2.50834">
        <ele>73.8</ele>
        <time>2023-09-27T12:01:44Z</time>
      </trkpt>
      <trkpt lat="49.88533" lon="2.50833">
        <ele>73.8</ele>
        <time>2023-09-27T12:01:45Z</time>
      </trkpt>
      <trkpt lat="49.88533" lon="2.50833">
        <ele>73.7</ele>
        <time>2023-09-27T12:01:46Z</time>
      </trkpt>
      <trkpt lat="49.88533" lon="2.50833">
        <ele>73.7</ele>
        <time>2023-09-27T12:01:47Z</time>
      </trkpt>
      <trkpt lat="49.88533" lon="2.50832">
        <ele>73.7</ele>
        <time>2023-09-27T12:01:48Z</time>
      </trkpt>
      <trkpt lat="49.88533" lon="2.50832">
        <ele>73.7</ele>
        <time>2023-09-27T12:01:49Z</time>
      </trkpt>
      <trkpt lat="49.88533" lon="2.50832">
        <ele>73.7</ele>
        <time>2023-09-27T12:01:50Z</time>
      </trkpt>
      <trkpt lat="49.88533" lon="2.50832">
        <ele>73.7</ele>
        <time>2023-09-27T12:01:52Z</time>
      </trkpt>
      <trkpt lat="49.88533" lon="2.50831">
        <ele>73.7</ele>
        <time>2023-09-27T12:01:53Z</time>
      </trkpt>
      <trkpt lat="49.88533" lon="2.50831">
        <ele>73.7</ele>
        <time>2023-09-27T12:01:54Z</time>
      </trkpt>
      <trkpt lat="49.88533" lon="2.50831">
        <ele>73.7</ele>
        <time>2023-09-27T12:01:55Z</time>
      </trkpt>
      <trkpt lat="49.88533" lon="2.5083">
        <ele>73.7</ele>
        <time>2023-09-27T12:01:56Z</time>
      </trkpt>
      <trkpt lat="49.88533" lon="2.5083">
        <ele>73.7</ele>
        <time>2023-09-27T12:01:57Z</time>
      </trkpt>
      <trkpt lat="49.88533" lon="2.5083">
        <ele>73.7</ele>
        <time>2023-09-27T12:01:58Z</time>
      </trkpt>
      <trkpt lat="49.88533" lon="2.5083">
        <ele>73.7</ele>
        <time>2023-09-27T12:01:59Z</time>
      </trkpt>
      <trkpt lat="49.88533" lon="2.50829">
        <ele>73.7</ele>
        <time>2023-09-27T12:02:00Z</time>
      </trkpt>
      <trkpt lat="49.88533" lon="2.50829">
        <ele>73.7</ele>
        <time>2023-09-27T12:02:01Z</time>
      </trkpt>
      <trkpt lat="49.88533" lon="2.50829">
        <ele>73.7</ele>
        <time>2023-09-27T12:02:02Z</time>
      </trkpt>
      <trkpt lat="49.88533" lon="2.50828">
        <ele>73.7</ele>
        <time>2023-09-27T12:02:03Z</time>
      </trkpt>
      <trkpt lat="49.88533" lon="2.50828">
        <ele>73.7</ele>
        <time>2023-09-27T12:02:04Z</time>
      </trkpt>
      <trkpt lat="49.88533" lon="2.50828">
        <ele>73.7</ele>
        <time>2023-09-27T12:02:05Z</time>
      </trkpt>
      <trkpt lat="49.88533" lon="2.50828">
        <ele>73.7</ele>
        <time>2023-09-27T12:02:06Z</time>
      </trkpt>
      <trkpt lat="49.88533" lon="2.50827">
        <ele>73.7</ele>
        <time>2023-09-27T12:02:07Z</time>
      </trkpt>
      <trkpt lat="49.88533" lon="2.50827">
        <ele>73.7</ele>
        <time>2023-09-27T12:02:08Z</time>
      </trkpt>
      <trkpt lat="49.88533" lon="2.50827">
        <ele>73.7</ele>
        <time>2023-09-27T12:02:09Z</time>
      </trkpt>
      <trkpt lat="49.88533" lon="2.50826">
        <ele>73.7</ele>
        <time>2023-09-27T12:02:10Z</time>
      </trkpt>
      <trkpt lat="49.88533" lon="2.50826">
        <ele>73.6</ele>
        <time>2023-09-27T12:02:11Z</time>
      </trkpt>
      <trkpt lat="49.88533" lon="2.50826">
        <ele>73.6</ele>
        <time>2023-09-27T12:02:12Z</time>
      </trkpt>
      <trkpt lat="49.88533" lon="2.50825">
        <ele>73.6</ele>
        <time>2023-09-27T12:02:13Z</time>
      </trkpt>
      <trkpt lat="49.88533" lon="2.50825">
        <ele>73.6</ele>
        <time>2023-09-27T12:02:14Z</time>
      </trkpt>
      <trkpt lat="49.88533" lon="2.50825">
        <ele>73.6</ele>
        <time>2023-09-27T12:02:15Z</time>
      </trkpt>
      <trkpt lat="49.88533" lon="2.50825">
        <ele>73.6</ele>
        <time>2023-09-27T12:02:16Z</time>
      </trkpt>
      <trkpt lat="49.88533" lon="2.50824">
        <ele>73.6</ele>
        <time>2023-09-27T12:02:17Z</time>
      </trkpt>
      <trkpt lat="49.88533" lon="2.50824">
        <ele>73.6</ele>
        <time>2023-09-27T12:02:18Z</time>
      </trkpt>
      <trkpt lat="49.88533" lon="2.50822">
        <ele>73.6</ele>
        <time>2023-09-27T12:02:19Z</time>
      </trkpt>
      <trkpt lat="49.88532" lon="2.5082">
        <ele>74.1</ele>
        <time>2023-09-27T12:02:20Z</time>
      </trkpt>
      <trkpt lat="49.88532" lon="2.50819">
        <ele>74.7</ele>
        <time>2023-09-27T12:02:21Z</time>
      </trkpt>
      <trkpt lat="49.88531" lon="2.50818">
        <ele>75.2</ele>
        <time>2023-09-27T12:02:22Z</time>
      </trkpt>
      <trkpt lat="49.88531" lon="2.50816">
        <ele>75.7</ele>
        <time>2023-09-27T12:02:23Z</time>
      </trkpt>
      <trkpt lat="49.88531" lon="2.50815">
        <ele>76.2</ele>
        <time>2023-09-27T12:02:24Z</time>
      </trkpt>
      <trkpt lat="49.88531" lon="2.50814">
        <ele>76.6</ele>
        <time>2023-09-27T12:02:25Z</time>
      </trkpt>
      <trkpt lat="49.88531" lon="2.50813">
        <ele>76.7</ele>
        <time>2023-09-27T12:02:26Z</time>
      </trkpt>
      <trkpt lat="49.88531" lon="2.50812">
        <ele>76.7</ele>
        <time>2023-09-27T12:02:27Z</time>
      </trkpt>
      <trkpt lat="49.88531" lon="2.5081">
        <ele>76.7</ele>
        <time>2023-09-27T12:02:28Z</time>
      </trkpt>
      <trkpt lat="49.88532" lon="2.50809">
        <ele>76.8</ele>
        <time>2023-09-27T12:02:29Z</time>
      </trkpt>
      <trkpt lat="49.88533" lon="2.50808">
        <ele>76.8</ele>
        <time>2023-09-27T12:02:30Z</time>
      </trkpt>
      <trkpt lat="49.88534" lon="2.50807">
        <ele>76.8</ele>
        <time>2023-09-27T12:02:31Z</time>
      </trkpt>
      <trkpt lat="49.88534" lon="2.50805">
        <ele>76.8</ele>
        <time>2023-09-27T12:02:32Z</time>
      </trkpt>
      <trkpt lat="49.88535" lon="2.50804">
        <ele>76.9</ele>
        <time>2023-09-27T12:02:33Z</time>
      </trkpt>
      <trkpt lat="49.88536" lon="2.50803">
        <ele>76.9</ele>
        <time>2023-09-27T12:02:34Z</time>
      </trkpt>
      <trkpt lat="49.88537" lon="2.50803">
        <ele>76.9</ele>
        <time>2023-09-27T12:02:35Z</time>
      </trkpt>
      <trkpt lat="49.88538" lon="2.50802">
        <ele>76.9</ele>
        <time>2023-09-27T12:02:36Z</time>
      </trkpt>
      <trkpt lat="49.88538" lon="2.50802">
        <ele>77</ele>
        <time>2023-09-27T12:02:37Z</time>
      </trkpt>
      <trkpt lat="49.88539" lon="2.50801">
        <ele>77</ele>
        <time>2023-09-27T12:02:38Z</time>
      </trkpt>
      <trkpt lat="49.8854" lon="2.50801">
        <ele>77</ele>
        <time>2023-09-27T12:02:39Z</time>
      </trkpt>
      <trkpt lat="49.88541" lon="2.50801">
        <ele>77</ele>
        <time>2023-09-27T12:02:40Z</time>
      </trkpt>
      <trkpt lat="49.88541" lon="2.508">
        <ele>77</ele>
        <time>2023-09-27T12:02:41Z</time>
      </trkpt>
      <trkpt lat="49.88542" lon="2.508">
        <ele>77.1</ele>
        <time>2023-09-27T12:02:42Z</time>
      </trkpt>
      <trkpt lat="49.88543" lon="2.508">
        <ele>77.1</ele>
        <time>2023-09-27T12:02:43Z</time>
      </trkpt>
      <trkpt lat="49.88544" lon="2.508">
        <ele>77.1</ele>
        <time>2023-09-27T12:02:44Z</time>
      </trkpt>
      <trkpt lat="49.88545" lon="2.508">
        <ele>77.1</ele>
        <time>2023-09-27T12:02:45Z</time>
      </trkpt>
      <trkpt lat="49.88546" lon="2.50799">
        <ele>77.2</ele>
        <time>2023-09-27T12:02:46Z</time>
      </trkpt>
      <trkpt lat="49.88547" lon="2.50799">
        <ele>77.2</ele>
        <time>2023-09-27T12:02:47Z</time>
      </trkpt>
      <trkpt lat="49.88548" lon="2.50799">
        <ele>77.2</ele>
        <time>2023-09-27T12:02:48Z</time>
      </trkpt>
      <trkpt lat="49.88549" lon="2.50798">
        <ele>77.3</ele>
        <time>2023-09-27T12:02:49Z</time>
      </trkpt>
      <trkpt lat="49.88551" lon="2.50798">
        <ele>77.3</ele>
        <time>2023-09-27T12:02:50Z</time>
      </trkpt>
      <trkpt lat="49.88553" lon="2.50797">
        <ele>77.3</ele>
        <time>2023-09-27T12:02:51Z</time>
      </trkpt>
      <trkpt lat="49.88554" lon="2.50796">
        <ele>77.4</ele>
        <time>2023-09-27T12:02:52Z</time>
      </trkpt>
      <trkpt lat="49.88556" lon="2.50795">
        <ele>77.4</ele>
        <time>2023-09-27T12:02:53Z</time>
      </trkpt>
      <trkpt lat="49.88557" lon="2.50794">
        <ele>77.5</ele>
        <time>2023-09-27T12:02:54Z</time>
      </trkpt>
      <trkpt lat="49.88559" lon="2.50794">
        <ele>77.5</ele>
        <time>2023-09-27T12:02:55Z</time>
      </trkpt>
      <trkpt lat="49.8856" lon="2.50793">
        <ele>77.6</ele>
        <time>2023-09-27T12:02:56Z</time>
      </trkpt>
      <trkpt lat="49.88561" lon="2.50792">
        <ele>77.6</ele>
        <time>2023-09-27T12:02:57Z</time>
      </trkpt>
      <trkpt lat="49.88563" lon="2.50792">
        <ele>77.6</ele>
        <time>2023-09-27T12:02:58Z</time>
      </trkpt>
      <trkpt lat="49.88564" lon="2.50791">
        <ele>77.7</ele>
        <time>2023-09-27T12:02:59Z</time>
      </trkpt>
      <trkpt lat="49.88565" lon="2.50791">
        <ele>77.7</ele>
        <time>2023-09-27T12:03:00Z</time>
      </trkpt>
      <trkpt lat="49.88566" lon="2.5079">
        <ele>77.7</ele>
        <time>2023-09-27T12:03:01Z</time>
      </trkpt>
      <trkpt lat="49.88567" lon="2.5079">
        <ele>77.7</ele>
        <time>2023-09-27T12:03:02Z</time>
      </trkpt>
      <trkpt lat="49.88568" lon="2.50789">
        <ele>77.8</ele>
        <time>2023-09-27T12:03:03Z</time>
      </trkpt>
      <trkpt lat="49.88569" lon="2.50789">
        <ele>77.8</ele>
        <time>2023-09-27T12:03:04Z</time>
      </trkpt>
      <trkpt lat="49.8857" lon="2.50788">
        <ele>77.8</ele>
        <time>2023-09-27T12:03:05Z</time>
      </trkpt>
      <trkpt lat="49.88571" lon="2.50787">
        <ele>77.9</ele>
        <time>2023-09-27T12:03:06Z</time>
      </trkpt>
      <trkpt lat="49.88572" lon="2.50787">
        <ele>77.9</ele>
        <time>2023-09-27T12:03:07Z</time>
      </trkpt>
      <trkpt lat="49.88573" lon="2.50786">
        <ele>77.9</ele>
        <time>2023-09-27T12:03:08Z</time>
      </trkpt>
      <trkpt lat="49.88574" lon="2.50786">
        <ele>77.9</ele>
        <time>2023-09-27T12:03:09Z</time>
      </trkpt>
      <trkpt lat="49.88574" lon="2.50786">
        <ele>78</ele>
        <time>2023-09-27T12:03:10Z</time>
      </trkpt>
      <trkpt lat="49.88575" lon="2.50785">
        <ele>78</ele>
        <time>2023-09-27T12:03:11Z</time>
      </trkpt>
      <trkpt lat="49.88576" lon="2.50785">
        <ele>78</ele>
        <time>2023-09-27T12:03:12Z</time>
      </trkpt>
      <trkpt lat="49.88577" lon="2.50784">
        <ele>78</ele>
        <time>2023-09-27T12:03:13Z</time>
      </trkpt>
      <trkpt lat="49.88578" lon="2.50784">
        <ele>78.1</ele>
        <time>2023-09-27T12:03:14Z</time>
      </trkpt>
      <trkpt lat="49.8858" lon="2.50783">
        <ele>78.1</ele>
        <time>2023-09-27T12:03:15Z</time>
      </trkpt>
      <trkpt lat="49.88581" lon="2.50783">
        <ele>78.1</ele>
        <time>2023-09-27T12:03:16Z</time>
      </trkpt>
      <trkpt lat="49.88582" lon="2.50782">
        <ele>78.1</ele>
        <time>2023-09-27T12:03:17Z</time>
      </trkpt>
      <trkpt lat="49.88583" lon="2.50782">
        <ele>78.1</ele>
        <time>2023-09-27T12:03:18Z</time>
      </trkpt>
      <trkpt lat="49.88583" lon="2.50781">
        <ele>78.1</ele>
        <time>2023-09-27T12:03:19Z</time>
      </trkpt>
      <trkpt lat="49.88584" lon="2.50781">
        <ele>78.1</ele>
        <time>2023-09-27T12:03:20Z</time>
      </trkpt>
      <trkpt lat="49.88585" lon="2.50781">
        <ele>78.2</ele>
        <time>2023-09-27T12:03:21Z</time>
      </trkpt>
      <trkpt lat="49.88586" lon="2.5078">
        <ele>78.2</ele>
        <time>2023-09-27T12:03:22Z</time>
      </trkpt>
      <trkpt lat="49.88587" lon="2.5078">
        <ele>78.2</ele>
        <time>2023-09-27T12:03:23Z</time>
      </trkpt>
      <trkpt lat="49.88588" lon="2.50779">
        <ele>78.2</ele>
        <time>2023-09-27T12:03:24Z</time>
      </trkpt>
      <trkpt lat="49.8859" lon="2.50779">
        <ele>78.2</ele>
        <time>2023-09-27T12:03:25Z</time>
      </trkpt>
      <trkpt lat="49.88591" lon="2.50779">
        <ele>78.2</ele>
        <time>2023-09-27T12:03:26Z</time>
      </trkpt>
      <trkpt lat="49.88592" lon="2.50778">
        <ele>78.2</ele>
        <time>2023-09-27T12:03:27Z</time>
      </trkpt>
      <trkpt lat="49.88593" lon="2.50778">
        <ele>78.2</ele>
        <time>2023-09-27T12:03:28Z</time>
      </trkpt>
      <trkpt lat="49.88594" lon="2.50778">
        <ele>78.2</ele>
        <time>2023-09-27T12:03:29Z</time>
      </trkpt>
      <trkpt lat="49.88595" lon="2.50777">
        <ele>78.3</ele>
        <time>2023-09-27T12:03:30Z</time>
      </trkpt>
      <trkpt lat="49.88596" lon="2.50777">
        <ele>78.3</ele>
        <time>2023-09-27T12:03:31Z</time>
      </trkpt>
      <trkpt lat="49.88597" lon="2.50777">
        <ele>78.3</ele>
        <time>2023-09-27T12:03:32Z</time>
      </trkpt>
      <trkpt lat="49.88598" lon="2.50776">
        <ele>78.3</ele>
        <time>2023-09-27T12:03:33Z</time>
      </trkpt>
      <trkpt lat="49.88599" lon="2.50776">
        <ele>78.3</ele>
        <time>2023-09-27T12:03:34Z</time>
      </trkpt>
      <trkpt lat="49.886" lon="2.50776">
        <ele>78.3</ele>
        <time>2023-09-27T12:03:35Z</time>
      </trkpt>
      <trkpt lat="49.88601" lon="2.50775">
        <ele>78.3</ele>
        <time>2023-09-27T12:03:36Z</time>
      </trkpt>
      <trkpt lat="49.88603" lon="2.50775">
        <ele>78.3</ele>
        <time>2023-09-27T12:03:37Z</time>
      </trkpt>
      <trkpt lat="49.88604" lon="2.50775">
        <ele>78.3</ele>
        <time>2023-09-27T12:03:38Z</time>
      </trkpt>
      <trkpt lat="49.88605" lon="2.50774">
        <ele>78.3</ele>
        <time>2023-09-27T12:03:39Z</time>
      </trkpt>
      <trkpt lat="49.88606" lon="2.50774">
        <ele>78.4</ele>
        <time>2023-09-27T12:03:40Z</time>
      </trkpt>
      <trkpt lat="49.88607" lon="2.50773">
        <ele>78.4</ele>
        <time>2023-09-27T12:03:41Z</time>
      </trkpt>
      <trkpt lat="49.88608" lon="2.50773">
        <ele>78.4</ele>
        <time>2023-09-27T12:03:42Z</time>
      </trkpt>
      <trkpt lat="49.88609" lon="2.50773">
        <ele>78.4</ele>
        <time>2023-09-27T12:03:43Z</time>
      </trkpt>
      <trkpt lat="49.8861" lon="2.50772">
        <ele>78.4</ele>
        <time>2023-09-27T12:03:44Z</time>
      </trkpt>
      <trkpt lat="49.88611" lon="2.50772">
        <ele>78.4</ele>
        <time>2023-09-27T12:03:45Z</time>
      </trkpt>
      <trkpt lat="49.88612" lon="2.50772">
        <ele>78.4</ele>
        <time>2023-09-27T12:03:46Z</time>
      </trkpt>
      <trkpt lat="49.88613" lon="2.50771">
        <ele>78.4</ele>
        <time>2023-09-27T12:03:47Z</time>
      </trkpt>
      <trkpt lat="49.88614" lon="2.50771">
        <ele>78.4</ele>
        <time>2023-09-27T12:03:48Z</time>
      </trkpt>
      <trkpt lat="49.88615" lon="2.50771">
        <ele>78.4</ele>
        <time>2023-09-27T12:03:49Z</time>
      </trkpt>
      <trkpt lat="49.88616" lon="2.50771">
        <ele>78.4</ele>
        <time>2023-09-27T12:03:50Z</time>
      </trkpt>
      <trkpt lat="49.88617" lon="2.5077">
        <ele>78.4</ele>
        <time>2023-09-27T12:03:51Z</time>
      </trkpt>
      <trkpt lat="49.88618" lon="2.5077">
        <ele>78.4</ele>
        <time>2023-09-27T12:03:52Z</time>
      </trkpt>
      <trkpt lat="49.88619" lon="2.5077">
        <ele>78.5</ele>
        <time>2023-09-27T12:03:53Z</time>
      </trkpt>
      <trkpt lat="49.8862" lon="2.50769">
        <ele>78.5</ele>
        <time>2023-09-27T12:03:54Z</time>
      </trkpt>
      <trkpt lat="49.88621" lon="2.50769">
        <ele>78.5</ele>
        <time>2023-09-27T12:03:55Z</time>
      </trkpt>
      <trkpt lat="49.88622" lon="2.50769">
        <ele>78.5</ele>
        <time>2023-09-27T12:03:56Z</time>
      </trkpt>
      <trkpt lat="49.88623" lon="2.50769">
        <ele>78.5</ele>
        <time>2023-09-27T12:03:57Z</time>
      </trkpt>
      <trkpt lat="49.88624" lon="2.50768">
        <ele>78.5</ele>
        <time>2023-09-27T12:03:58Z</time>
      </trkpt>
      <trkpt lat="49.88625" lon="2.50768">
        <ele>78.5</ele>
        <time>2023-09-27T12:03:59Z</time>
      </trkpt>
      <trkpt lat="49.88626" lon="2.50768">
        <ele>78.5</ele>
        <time>2023-09-27T12:04:00Z</time>
      </trkpt>
      <trkpt lat="49.88628" lon="2.50768">
        <ele>78.5</ele>
        <time>2023-09-27T12:04:01Z</time>
      </trkpt>
      <trkpt lat="49.88629" lon="2.50767">
        <ele>78.5</ele>
        <time>2023-09-27T12:04:02Z</time>
      </trkpt>
      <trkpt lat="49.8863" lon="2.50767">
        <ele>78.5</ele>
        <time>2023-09-27T12:04:03Z</time>
      </trkpt>
      <trkpt lat="49.88632" lon="2.50767">
        <ele>78.5</ele>
        <time>2023-09-27T12:04:04Z</time>
      </trkpt>
      <trkpt lat="49.88633" lon="2.50766">
        <ele>78.5</ele>
        <time>2023-09-27T12:04:05Z</time>
      </trkpt>
      <trkpt lat="49.88634" lon="2.50766">
        <ele>78.5</ele>
        <time>2023-09-27T12:04:06Z</time>
      </trkpt>
      <trkpt lat="49.88635" lon="2.50766">
        <ele>78.5</ele>
        <time>2023-09-27T12:04:07Z</time>
      </trkpt>
      <trkpt lat="49.88636" lon="2.50766">
        <ele>78.5</ele>
        <time>2023-09-27T12:04:08Z</time>
      </trkpt>
      <trkpt lat="49.88637" lon="2.50765">
        <ele>78.4</ele>
        <time>2023-09-27T12:04:09Z</time>
      </trkpt>
      <trkpt lat="49.88639" lon="2.50765">
        <ele>78.4</ele>
        <time>2023-09-27T12:04:10Z</time>
      </trkpt>
      <trkpt lat="49.8864" lon="2.50764">
        <ele>78.4</ele>
        <time>2023-09-27T12:04:11Z</time>
      </trkpt>
      <trkpt lat="49.88641" lon="2.50764">
        <ele>78.4</ele>
        <time>2023-09-27T12:04:12Z</time>
      </trkpt>
      <trkpt lat="49.88642" lon="2.50764">
        <ele>78.4</ele>
        <time>2023-09-27T12:04:13Z</time>
      </trkpt>
      <trkpt lat="49.88644" lon="2.50763">
        <ele>78.4</ele>
        <time>2023-09-27T12:04:14Z</time>
      </trkpt>
      <trkpt lat="49.88646" lon="2.50763">
        <ele>78.4</ele>
        <time>2023-09-27T12:04:15Z</time>
      </trkpt>
      <trkpt lat="49.88647" lon="2.50762">
        <ele>78.4</ele>
        <time>2023-09-27T12:04:16Z</time>
      </trkpt>
      <trkpt lat="49.88647" lon="2.50762">
        <ele>78.4</ele>
        <time>2023-09-27T12:04:17Z</time>
      </trkpt>
      <trkpt lat="49.88648" lon="2.50762">
        <ele>78.4</ele>
        <time>2023-09-27T12:04:18Z</time>
      </trkpt>
      <trkpt lat="49.8865" lon="2.50762">
        <ele>78.4</ele>
        <time>2023-09-27T12:04:19Z</time>
      </trkpt>
      <trkpt lat="49.88651" lon="2.50761">
        <ele>78.4</ele>
        <time>2023-09-27T12:04:20Z</time>
      </trkpt>
      <trkpt lat="49.88653" lon="2.50761">
        <ele>78.4</ele>
        <time>2023-09-27T12:04:21Z</time>
      </trkpt>
      <trkpt lat="49.88653" lon="2.50761">
        <ele>78.4</ele>
        <time>2023-09-27T12:04:22Z</time>
      </trkpt>
      <trkpt lat="49.88654" lon="2.50761">
        <ele>78.4</ele>
        <time>2023-09-27T12:04:23Z</time>
      </trkpt>
      <trkpt lat="49.88656" lon="2.5076">
        <ele>78.4</ele>
        <time>2023-09-27T12:04:24Z</time>
      </trkpt>
      <trkpt lat="49.88657" lon="2.5076">
        <ele>78.4</ele>
        <time>2023-09-27T12:04:25Z</time>
      </trkpt>
      <trkpt lat="49.88658" lon="2.50759">
        <ele>78.4</ele>
        <time>2023-09-27T12:04:26Z</time>
      </trkpt>
      <trkpt lat="49.88659" lon="2.50759">
        <ele>78.3</ele>
        <time>2023-09-27T12:04:27Z</time>
      </trkpt>
      <trkpt lat="49.8866" lon="2.50759">
        <ele>78.3</ele>
        <time>2023-09-27T12:04:28Z</time>
      </trkpt>
      <trkpt lat="49.88661" lon="2.50759">
        <ele>78.3</ele>
        <time>2023-09-27T12:04:29Z</time>
      </trkpt>
      <trkpt lat="49.88663" lon="2.50758">
        <ele>78.3</ele>
        <time>2023-09-27T12:04:30Z</time>
      </trkpt>
      <trkpt lat="49.88664" lon="2.50758">
        <ele>78.3</ele>
        <time>2023-09-27T12:04:31Z</time>
      </trkpt>
      <trkpt lat="49.88665" lon="2.50758">
        <ele>78.3</ele>
        <time>2023-09-27T12:04:32Z</time>
      </trkpt>
      <trkpt lat="49.88667" lon="2.50758">
        <ele>78.3</ele>
        <time>2023-09-27T12:04:33Z</time>
      </trkpt>
      <trkpt lat="49.88668" lon="2.50758">
        <ele>78.3</ele>
        <time>2023-09-27T12:04:34Z</time>
      </trkpt>
      <trkpt lat="49.88668" lon="2.50758">
        <ele>78.3</ele>
        <time>2023-09-27T12:04:35Z</time>
      </trkpt>
      <trkpt lat="49.88671" lon="2.50758">
        <ele>78.2</ele>
        <time>2023-09-27T12:04:36Z</time>
      </trkpt>
      <trkpt lat="49.88671" lon="2.50757">
        <ele>78.2</ele>
        <time>2023-09-27T12:04:37Z</time>
      </trkpt>
      <trkpt lat="49.88672" lon="2.50757">
        <ele>78.2</ele>
        <time>2023-09-27T12:04:38Z</time>
      </trkpt>
      <trkpt lat="49.88675" lon="2.50757">
        <ele>78.2</ele>
        <time>2023-09-27T12:04:39Z</time>
      </trkpt>
      <trkpt lat="49.88675" lon="2.50757">
        <ele>78.2</ele>
        <time>2023-09-27T12:04:40Z</time>
      </trkpt>
      <trkpt lat="49.88676" lon="2.50757">
        <ele>78.1</ele>
        <time>2023-09-27T12:04:41Z</time>
      </trkpt>
      <trkpt lat="49.88678" lon="2.50757">
        <ele>78.1</ele>
        <time>2023-09-27T12:04:42Z</time>
      </trkpt>
      <trkpt lat="49.88679" lon="2.50757">
        <ele>78.1</ele>
        <time>2023-09-27T12:04:43Z</time>
      </trkpt>
      <trkpt lat="49.8868" lon="2.50757">
        <ele>78.1</ele>
        <time>2023-09-27T12:04:44Z</time>
      </trkpt>
      <trkpt lat="49.88682" lon="2.50757">
        <ele>78</ele>
        <time>2023-09-27T12:04:45Z</time>
      </trkpt>
      <trkpt lat="49.88683" lon="2.50757">
        <ele>78</ele>
        <time>2023-09-27T12:04:46Z</time>
      </trkpt>
      <trkpt lat="49.88684" lon="2.50757">
        <ele>78</ele>
        <time>2023-09-27T12:04:47Z</time>
      </trkpt>
      <trkpt lat="49.88686" lon="2.50756">
        <ele>78</ele>
        <time>2023-09-27T12:04:48Z</time>
      </trkpt>
      <trkpt lat="49.88687" lon="2.50756">
        <ele>78</ele>
        <time>2023-09-27T12:04:49Z</time>
      </trkpt>
      <trkpt lat="49.88687" lon="2.50756">
        <ele>77.9</ele>
        <time>2023-09-27T12:04:50Z</time>
      </trkpt>
      <trkpt lat="49.8869" lon="2.50756">
        <ele>77.9</ele>
        <time>2023-09-27T12:04:51Z</time>
      </trkpt>
      <trkpt lat="49.8869" lon="2.50756">
        <ele>77.9</ele>
        <time>2023-09-27T12:04:52Z</time>
      </trkpt>
      <trkpt lat="49.88691" lon="2.50756">
        <ele>77.9</ele>
        <time>2023-09-27T12:04:53Z</time>
      </trkpt>
      <trkpt lat="49.88693" lon="2.50756">
        <ele>77.8</ele>
        <time>2023-09-27T12:04:54Z</time>
      </trkpt>
      <trkpt lat="49.88694" lon="2.50756">
        <ele>77.8</ele>
        <time>2023-09-27T12:04:55Z</time>
      </trkpt>
      <trkpt lat="49.88695" lon="2.50756">
        <ele>77.8</ele>
        <time>2023-09-27T12:04:56Z</time>
      </trkpt>
      <trkpt lat="49.88696" lon="2.50756">
        <ele>77.8</ele>
        <time>2023-09-27T12:04:57Z</time>
      </trkpt>
      <trkpt lat="49.88697" lon="2.50757">
        <ele>77.7</ele>
        <time>2023-09-27T12:04:58Z</time>
      </trkpt>
      <trkpt lat="49.88698" lon="2.50757">
        <ele>77.7</ele>
        <time>2023-09-27T12:04:59Z</time>
      </trkpt>
      <trkpt lat="49.88699" lon="2.50757">
        <ele>77.7</ele>
        <time>2023-09-27T12:05:00Z</time>
      </trkpt>
      <trkpt lat="49.887" lon="2.50757">
        <ele>77.7</ele>
        <time>2023-09-27T12:05:01Z</time>
      </trkpt>
      <trkpt lat="49.88701" lon="2.50757">
        <ele>77.6</ele>
        <time>2023-09-27T12:05:02Z</time>
      </trkpt>
      <trkpt lat="49.88703" lon="2.50756">
        <ele>77.6</ele>
        <time>2023-09-27T12:05:03Z</time>
      </trkpt>
      <trkpt lat="49.88703" lon="2.50755">
        <ele>77.6</ele>
        <time>2023-09-27T12:05:04Z</time>
      </trkpt>
      <trkpt lat="49.88704" lon="2.50755">
        <ele>77.6</ele>
        <time>2023-09-27T12:05:05Z</time>
      </trkpt>
      <trkpt lat="49.88705" lon="2.50754">
        <ele>77.6</ele>
        <time>2023-09-27T12:05:06Z</time>
      </trkpt>
      <trkpt lat="49.88705" lon="2.50753">
        <ele>77.6</ele>
        <time>2023-09-27T12:05:07Z</time>
      </trkpt>
      <trkpt lat="49.88706" lon="2.50751">
        <ele>77.6</ele>
        <time>2023-09-27T12:05:08Z</time>
      </trkpt>
      <trkpt lat="49.88706" lon="2.5075">
        <ele>77.6</ele>
        <time>2023-09-27T12:05:09Z</time>
      </trkpt>
      <trkpt lat="49.88706" lon="2.50748">
        <ele>77.6</ele>
        <time>2023-09-27T12:05:10Z</time>
      </trkpt>
      <trkpt lat="49.88706" lon="2.50747">
        <ele>77.7</ele>
        <time>2023-09-27T12:05:11Z</time>
      </trkpt>
      <trkpt lat="49.88706" lon="2.50746">
        <ele>77.7</ele>
        <time>2023-09-27T12:05:12Z</time>
      </trkpt>
      <trkpt lat="49.88706" lon="2.50744">
        <ele>77.7</ele>
        <time>2023-09-27T12:05:13Z</time>
      </trkpt>
      <trkpt lat="49.88706" lon="2.50743">
        <ele>77.7</ele>
        <time>2023-09-27T12:05:14Z</time>
      </trkpt>
      <trkpt lat="49.88705" lon="2.50742">
        <ele>77.7</ele>
        <time>2023-09-27T12:05:15Z</time>
      </trkpt>
      <trkpt lat="49.88705" lon="2.50741">
        <ele>77.7</ele>
        <time>2023-09-27T12:05:16Z</time>
      </trkpt>
      <trkpt lat="49.88705" lon="2.50739">
        <ele>77.7</ele>
        <time>2023-09-27T12:05:17Z</time>
      </trkpt>
      <trkpt lat="49.88705" lon="2.50738">
        <ele>77.7</ele>
        <time>2023-09-27T12:05:18Z</time>
      </trkpt>
      <trkpt lat="49.88705" lon="2.50736">
        <ele>77.7</ele>
        <time>2023-09-27T12:05:19Z</time>
      </trkpt>
      <trkpt lat="49.88704" lon="2.50735">
        <ele>77.7</ele>
        <time>2023-09-27T12:05:20Z</time>
      </trkpt>
      <trkpt lat="49.88704" lon="2.50734">
        <ele>77.7</ele>
        <time>2023-09-27T12:05:21Z</time>
      </trkpt>
      <trkpt lat="49.88704" lon="2.50732">
        <ele>77.7</ele>
        <time>2023-09-27T12:05:22Z</time>
      </trkpt>
      <trkpt lat="49.88704" lon="2.5073">
        <ele>77.7</ele>
        <time>2023-09-27T12:05:23Z</time>
      </trkpt>
      <trkpt lat="49.88704" lon="2.50728">
        <ele>77.6</ele>
        <time>2023-09-27T12:05:24Z</time>
      </trkpt>
      <trkpt lat="49.88703" lon="2.50727">
        <ele>77.6</ele>
        <time>2023-09-27T12:05:25Z</time>
      </trkpt>
      <trkpt lat="49.88703" lon="2.50725">
        <ele>77.6</ele>
        <time>2023-09-27T12:05:26Z</time>
      </trkpt>
      <trkpt lat="49.88703" lon="2.50723">
        <ele>77.6</ele>
        <time>2023-09-27T12:05:27Z</time>
      </trkpt>
      <trkpt lat="49.88703" lon="2.50721">
        <ele>77.6</ele>
        <time>2023-09-27T12:05:28Z</time>
      </trkpt>
      <trkpt lat="49.88702" lon="2.5072">
        <ele>77.5</ele>
        <time>2023-09-27T12:05:29Z</time>
      </trkpt>
      <trkpt lat="49.88702" lon="2.50718">
        <ele>77.5</ele>
        <time>2023-09-27T12:05:30Z</time>
      </trkpt>
      <trkpt lat="49.88702" lon="2.50716">
        <ele>77.5</ele>
        <time>2023-09-27T12:05:31Z</time>
      </trkpt>
      <trkpt lat="49.88702" lon="2.50714">
        <ele>77.5</ele>
        <time>2023-09-27T12:05:32Z</time>
      </trkpt>
      <trkpt lat="49.88702" lon="2.50711">
        <ele>77.4</ele>
        <time>2023-09-27T12:05:33Z</time>
      </trkpt>
      <trkpt lat="49.88701" lon="2.5071">
        <ele>77.4</ele>
        <time>2023-09-27T12:05:34Z</time>
      </trkpt>
      <trkpt lat="49.88701" lon="2.50709">
        <ele>77.4</ele>
        <time>2023-09-27T12:05:35Z</time>
      </trkpt>
      <trkpt lat="49.88701" lon="2.50707">
        <ele>77.3</ele>
        <time>2023-09-27T12:05:36Z</time>
      </trkpt>
      <trkpt lat="49.88701" lon="2.50705">
        <ele>77.3</ele>
        <time>2023-09-27T12:05:37Z</time>
      </trkpt>
      <trkpt lat="49.88701" lon="2.50704">
        <ele>77.3</ele>
        <time>2023-09-27T12:05:38Z</time>
      </trkpt>
      <trkpt lat="49.88701" lon="2.50702">
        <ele>77.2</ele>
        <time>2023-09-27T12:05:39Z</time>
      </trkpt>
      <trkpt lat="49.88701" lon="2.507">
        <ele>77.2</ele>
        <time>2023-09-27T12:05:40Z</time>
      </trkpt>
      <trkpt lat="49.887" lon="2.50698">
        <ele>77.1</ele>
        <time>2023-09-27T12:05:41Z</time>
      </trkpt>
      <trkpt lat="49.887" lon="2.50697">
        <ele>77.1</ele>
        <time>2023-09-27T12:05:42Z</time>
      </trkpt>
      <trkpt lat="49.887" lon="2.50695">
        <ele>77.1</ele>
        <time>2023-09-27T12:05:43Z</time>
      </trkpt>
      <trkpt lat="49.887" lon="2.50693">
        <ele>77</ele>
        <time>2023-09-27T12:05:44Z</time>
      </trkpt>
      <trkpt lat="49.88699" lon="2.50692">
        <ele>77</ele>
        <time>2023-09-27T12:05:45Z</time>
      </trkpt>
      <trkpt lat="49.88699" lon="2.5069">
        <ele>76.9</ele>
        <time>2023-09-27T12:05:46Z</time>
      </trkpt>
      <trkpt lat="49.88699" lon="2.50688">
        <ele>76.9</ele>
        <time>2023-09-27T12:05:47Z</time>
      </trkpt>
      <trkpt lat="49.88698" lon="2.50685">
        <ele>76.8</ele>
        <time>2023-09-27T12:05:48Z</time>
      </trkpt>
      <trkpt lat="49.88698" lon="2.50684">
        <ele>76.8</ele>
        <time>2023-09-27T12:05:49Z</time>
      </trkpt>
      <trkpt lat="49.88698" lon="2.50683">
        <ele>76.7</ele>
        <time>2023-09-27T12:05:50Z</time>
      </trkpt>
      <trkpt lat="49.88698" lon="2.50681">
        <ele>76.7</ele>
        <time>2023-09-27T12:05:51Z</time>
      </trkpt>
      <trkpt lat="49.88698" lon="2.50679">
        <ele>76.7</ele>
        <time>2023-09-27T12:05:52Z</time>
      </trkpt>
      <trkpt lat="49.88698" lon="2.50678">
        <ele>76.6</ele>
        <time>2023-09-27T12:05:53Z</time>
      </trkpt>
      <trkpt lat="49.88698" lon="2.50676">
        <ele>76.6</ele>
        <time>2023-09-27T12:05:54Z</time>
      </trkpt>
      <trkpt lat="49.88698" lon="2.50674">
        <ele>76.5</ele>
        <time>2023-09-27T12:05:55Z</time>
      </trkpt>
      <trkpt lat="49.88698" lon="2.50673">
        <ele>76.5</ele>
        <time>2023-09-27T12:05:56Z</time>
      </trkpt>
      <trkpt lat="49.88697" lon="2.50671">
        <ele>76.5</ele>
        <time>2023-09-27T12:05:57Z</time>
      </trkpt>
      <trkpt lat="49.88697" lon="2.50669">
        <ele>76.4</ele>
        <time>2023-09-27T12:05:58Z</time>
      </trkpt>
      <trkpt lat="49.88697" lon="2.50667">
        <ele>76.4</ele>
        <time>2023-09-27T12:05:59Z</time>
      </trkpt>
      <trkpt lat="49.88697" lon="2.50665">
        <ele>76.3</ele>
        <time>2023-09-27T12:06:00Z</time>
      </trkpt>
      <trkpt lat="49.88697" lon="2.50664">
        <ele>76.3</ele>
        <time>2023-09-27T12:06:01Z</time>
      </trkpt>
      <trkpt lat="49.88696" lon="2.50662">
        <ele>76.3</ele>
        <time>2023-09-27T12:06:02Z</time>
      </trkpt>
      <trkpt lat="49.88696" lon="2.50661">
        <ele>76.2</ele>
        <time>2023-09-27T12:06:03Z</time>
      </trkpt>
      <trkpt lat="49.88696" lon="2.50659">
        <ele>76.2</ele>
        <time>2023-09-27T12:06:04Z</time>
      </trkpt>
      <trkpt lat="49.88696" lon="2.50657">
        <ele>76.1</ele>
        <time>2023-09-27T12:06:05Z</time>
      </trkpt>
      <trkpt lat="49.88696" lon="2.50654">
        <ele>76.1</ele>
        <time>2023-09-27T12:06:06Z</time>
      </trkpt>
      <trkpt lat="49.88696" lon="2.50653">
        <ele>76.1</ele>
        <time>2023-09-27T12:06:07Z</time>
      </trkpt>
      <trkpt lat="49.88696" lon="2.50652">
        <ele>76</ele>
        <time>2023-09-27T12:06:08Z</time>
      </trkpt>
      <trkpt lat="49.88695" lon="2.50649">
        <ele>76</ele>
        <time>2023-09-27T12:06:09Z</time>
      </trkpt>
      <trkpt lat="49.88695" lon="2.50647">
        <ele>75.9</ele>
        <time>2023-09-27T12:06:10Z</time>
      </trkpt>
      <trkpt lat="49.88695" lon="2.50646">
        <ele>75.9</ele>
        <time>2023-09-27T12:06:11Z</time>
      </trkpt>
      <trkpt lat="49.88695" lon="2.50644">
        <ele>75.9</ele>
        <time>2023-09-27T12:06:12Z</time>
      </trkpt>
      <trkpt lat="49.88695" lon="2.50643">
        <ele>75.8</ele>
        <time>2023-09-27T12:06:13Z</time>
      </trkpt>
      <trkpt lat="49.88695" lon="2.50641">
        <ele>75.8</ele>
        <time>2023-09-27T12:06:14Z</time>
      </trkpt>
      <trkpt lat="49.88695" lon="2.50638">
        <ele>75.7</ele>
        <time>2023-09-27T12:06:15Z</time>
      </trkpt>
      <trkpt lat="49.88695" lon="2.50637">
        <ele>75.7</ele>
        <time>2023-09-27T12:06:16Z</time>
      </trkpt>
      <trkpt lat="49.88695" lon="2.50635">
        <ele>75.7</ele>
        <time>2023-09-27T12:06:17Z</time>
      </trkpt>
      <trkpt lat="49.88694" lon="2.50632">
        <ele>75.6</ele>
        <time>2023-09-27T12:06:18Z</time>
      </trkpt>
      <trkpt lat="49.88694" lon="2.50631">
        <ele>75.6</ele>
        <time>2023-09-27T12:06:19Z</time>
      </trkpt>
      <trkpt lat="49.88694" lon="2.5063">
        <ele>75.6</ele>
        <time>2023-09-27T12:06:20Z</time>
      </trkpt>
      <trkpt lat="49.88694" lon="2.50628">
        <ele>75.5</ele>
        <time>2023-09-27T12:06:21Z</time>
      </trkpt>
      <trkpt lat="49.88694" lon="2.50626">
        <ele>75.5</ele>
        <time>2023-09-27T12:06:22Z</time>
      </trkpt>
      <trkpt lat="49.88694" lon="2.50624">
        <ele>75.4</ele>
        <time>2023-09-27T12:06:23Z</time>
      </trkpt>
      <trkpt lat="49.88694" lon="2.50621">
        <ele>75.4</ele>
        <time>2023-09-27T12:06:24Z</time>
      </trkpt>
      <trkpt lat="49.88694" lon="2.5062">
        <ele>75.4</ele>
        <time>2023-09-27T12:06:25Z</time>
      </trkpt>
      <trkpt lat="49.88694" lon="2.50619">
        <ele>75.3</ele>
        <time>2023-09-27T12:06:26Z</time>
      </trkpt>
      <trkpt lat="49.88693" lon="2.50615">
        <ele>75.3</ele>
        <time>2023-09-27T12:06:27Z</time>
      </trkpt>
      <trkpt lat="49.88693" lon="2.50614">
        <ele>75.2</ele>
        <time>2023-09-27T12:06:28Z</time>
      </trkpt>
      <trkpt lat="49.88693" lon="2.50613">
        <ele>75.2</ele>
        <time>2023-09-27T12:06:29Z</time>
      </trkpt>
      <trkpt lat="49.88693" lon="2.50611">
        <ele>75.2</ele>
        <time>2023-09-27T12:06:30Z</time>
      </trkpt>
      <trkpt lat="49.88693" lon="2.5061">
        <ele>75.2</ele>
        <time>2023-09-27T12:06:31Z</time>
      </trkpt>
      <trkpt lat="49.88693" lon="2.50608">
        <ele>75.1</ele>
        <time>2023-09-27T12:06:32Z</time>
      </trkpt>
      <trkpt lat="49.88693" lon="2.50606">
        <ele>75.1</ele>
        <time>2023-09-27T12:06:33Z</time>
      </trkpt>
      <trkpt lat="49.88693" lon="2.50605">
        <ele>75.1</ele>
        <time>2023-09-27T12:06:34Z</time>
      </trkpt>
      <trkpt lat="49.88693" lon="2.50603">
        <ele>75.1</ele>
        <time>2023-09-27T12:06:35Z</time>
      </trkpt>
      <trkpt lat="49.88693" lon="2.50601">
        <ele>75</ele>
        <time>2023-09-27T12:06:36Z</time>
      </trkpt>
      <trkpt lat="49.88693" lon="2.506">
        <ele>75</ele>
        <time>2023-09-27T12:06:37Z</time>
      </trkpt>
      <trkpt lat="49.88692" lon="2.50598">
        <ele>75</ele>
        <time>2023-09-27T12:06:38Z</time>
      </trkpt>
      <trkpt lat="49.88692" lon="2.50596">
        <ele>74.9</ele>
        <time>2023-09-27T12:06:39Z</time>
      </trkpt>
      <trkpt lat="49.88692" lon="2.50595">
        <ele>74.9</ele>
        <time>2023-09-27T12:06:40Z</time>
      </trkpt>
      <trkpt lat="49.88692" lon="2.50593">
        <ele>74.9</ele>
        <time>2023-09-27T12:06:41Z</time>
      </trkpt>
      <trkpt lat="49.88692" lon="2.50591">
        <ele>74.9</ele>
        <time>2023-09-27T12:06:42Z</time>
      </trkpt>
      <trkpt lat="49.88692" lon="2.5059">
        <ele>74.8</ele>
        <time>2023-09-27T12:06:43Z</time>
      </trkpt>
      <trkpt lat="49.88692" lon="2.50588">
        <ele>74.8</ele>
        <time>2023-09-27T12:06:44Z</time>
      </trkpt>
      <trkpt lat="49.88692" lon="2.50586">
        <ele>74.8</ele>
        <time>2023-09-27T12:06:45Z</time>
      </trkpt>
      <trkpt lat="49.88692" lon="2.50585">
        <ele>74.8</ele>
        <time>2023-09-27T12:06:46Z</time>
      </trkpt>
      <trkpt lat="49.88692" lon="2.50583">
        <ele>74.7</ele>
        <time>2023-09-27T12:06:47Z</time>
      </trkpt>
      <trkpt lat="49.88692" lon="2.50581">
        <ele>74.7</ele>
        <time>2023-09-27T12:06:48Z</time>
      </trkpt>
      <trkpt lat="49.88692" lon="2.5058">
        <ele>74.7</ele>
        <time>2023-09-27T12:06:49Z</time>
      </trkpt>
      <trkpt lat="49.88692" lon="2.50578">
        <ele>74.6</ele>
        <time>2023-09-27T12:06:50Z</time>
      </trkpt>
      <trkpt lat="49.88691" lon="2.50577">
        <ele>74.6</ele>
        <time>2023-09-27T12:06:51Z</time>
      </trkpt>
      <trkpt lat="49.88691" lon="2.50575">
        <ele>74.6</ele>
        <time>2023-09-27T12:06:52Z</time>
      </trkpt>
      <trkpt lat="49.88691" lon="2.50574">
        <ele>74.6</ele>
        <time>2023-09-27T12:06:53Z</time>
      </trkpt>
      <trkpt lat="49.88691" lon="2.50572">
        <ele>74.5</ele>
        <time>2023-09-27T12:06:54Z</time>
      </trkpt>
      <trkpt lat="49.88691" lon="2.50571">
        <ele>74.5</ele>
        <time>2023-09-27T12:06:55Z</time>
      </trkpt>
      <trkpt lat="49.88691" lon="2.50569">
        <ele>74.5</ele>
        <time>2023-09-27T12:06:56Z</time>
      </trkpt>
      <trkpt lat="49.88691" lon="2.50568">
        <ele>74.5</ele>
        <time>2023-09-27T12:06:57Z</time>
      </trkpt>
      <trkpt lat="49.8869" lon="2.50566">
        <ele>74.4</ele>
        <time>2023-09-27T12:06:58Z</time>
      </trkpt>
      <trkpt lat="49.8869" lon="2.50565">
        <ele>74.4</ele>
        <time>2023-09-27T12:06:59Z</time>
      </trkpt>
      <trkpt lat="49.8869" lon="2.50563">
        <ele>74.4</ele>
        <time>2023-09-27T12:07:00Z</time>
      </trkpt>
      <trkpt lat="49.8869" lon="2.50561">
        <ele>74.3</ele>
        <time>2023-09-27T12:07:01Z</time>
      </trkpt>
      <trkpt lat="49.8869" lon="2.5056">
        <ele>74.3</ele>
        <time>2023-09-27T12:07:02Z</time>
      </trkpt>
      <trkpt lat="49.8869" lon="2.50558">
        <ele>74.3</ele>
        <time>2023-09-27T12:07:03Z</time>
      </trkpt>
      <trkpt lat="49.88689" lon="2.50555">
        <ele>74.2</ele>
        <time>2023-09-27T12:07:05Z</time>
      </trkpt>
      <trkpt lat="49.88689" lon="2.50553">
        <ele>74.2</ele>
        <time>2023-09-27T12:07:06Z</time>
      </trkpt>
      <trkpt lat="49.88688" lon="2.50552">
        <ele>74.2</ele>
        <time>2023-09-27T12:07:07Z</time>
      </trkpt>
      <trkpt lat="49.88687" lon="2.50551">
        <ele>74.2</ele>
        <time>2023-09-27T12:07:08Z</time>
      </trkpt>
      <trkpt lat="49.88686" lon="2.50551">
        <ele>74.1</ele>
        <time>2023-09-27T12:07:09Z</time>
      </trkpt>
      <trkpt lat="49.88685" lon="2.5055">
        <ele>74.1</ele>
        <time>2023-09-27T12:07:10Z</time>
      </trkpt>
      <trkpt lat="49.88685" lon="2.50549">
        <ele>74.1</ele>
        <time>2023-09-27T12:07:11Z</time>
      </trkpt>
      <trkpt lat="49.88684" lon="2.50547">
        <ele>74</ele>
        <time>2023-09-27T12:07:12Z</time>
      </trkpt>
      <trkpt lat="49.88684" lon="2.50546">
        <ele>74</ele>
        <time>2023-09-27T12:07:13Z</time>
      </trkpt>
      <trkpt lat="49.88683" lon="2.50545">
        <ele>74</ele>
        <time>2023-09-27T12:07:14Z</time>
      </trkpt>
      <trkpt lat="49.88683" lon="2.50542">
        <ele>74</ele>
        <time>2023-09-27T12:07:15Z</time>
      </trkpt>
      <trkpt lat="49.88683" lon="2.50541">
        <ele>74</ele>
        <time>2023-09-27T12:07:16Z</time>
      </trkpt>
      <trkpt lat="49.88683" lon="2.5054">
        <ele>73.9</ele>
        <time>2023-09-27T12:07:17Z</time>
      </trkpt>
      <trkpt lat="49.88683" lon="2.50539">
        <ele>73.9</ele>
        <time>2023-09-27T12:07:18Z</time>
      </trkpt>
      <trkpt lat="49.88683" lon="2.50537">
        <ele>73.9</ele>
        <time>2023-09-27T12:07:19Z</time>
      </trkpt>
      <trkpt lat="49.88683" lon="2.50536">
        <ele>73.9</ele>
        <time>2023-09-27T12:07:20Z</time>
      </trkpt>
      <trkpt lat="49.88683" lon="2.50534">
        <ele>73.8</ele>
        <time>2023-09-27T12:07:21Z</time>
      </trkpt>
      <trkpt lat="49.88683" lon="2.50532">
        <ele>73.8</ele>
        <time>2023-09-27T12:07:22Z</time>
      </trkpt>
      <trkpt lat="49.88683" lon="2.5053">
        <ele>73.8</ele>
        <time>2023-09-27T12:07:23Z</time>
      </trkpt>
      <trkpt lat="49.88683" lon="2.50529">
        <ele>73.8</ele>
        <time>2023-09-27T12:07:24Z</time>
      </trkpt>
      <trkpt lat="49.88683" lon="2.50527">
        <ele>73.8</ele>
        <time>2023-09-27T12:07:25Z</time>
      </trkpt>
      <trkpt lat="49.88683" lon="2.50526">
        <ele>73.8</ele>
        <time>2023-09-27T12:07:26Z</time>
      </trkpt>
      <trkpt lat="49.88683" lon="2.50525">
        <ele>73.7</ele>
        <time>2023-09-27T12:07:27Z</time>
      </trkpt>
      <trkpt lat="49.88683" lon="2.50524">
        <ele>73.7</ele>
        <time>2023-09-27T12:07:28Z</time>
      </trkpt>
      <trkpt lat="49.88683" lon="2.50524">
        <ele>73.7</ele>
        <time>2023-09-27T12:07:29Z</time>
      </trkpt>
      <trkpt lat="49.88683" lon="2.50523">
        <ele>73.7</ele>
        <time>2023-09-27T12:07:30Z</time>
      </trkpt>
      <trkpt lat="49.88683" lon="2.50523">
        <ele>73.7</ele>
        <time>2023-09-27T12:07:31Z</time>
      </trkpt>
      <trkpt lat="49.88683" lon="2.50522">
        <ele>73.7</ele>
        <time>2023-09-27T12:07:32Z</time>
      </trkpt>
      <trkpt lat="49.88683" lon="2.50521">
        <ele>73.7</ele>
        <time>2023-09-27T12:07:33Z</time>
      </trkpt>
      <trkpt lat="49.88683" lon="2.5052">
        <ele>73.7</ele>
        <time>2023-09-27T12:07:34Z</time>
      </trkpt>
      <trkpt lat="49.88682" lon="2.50519">
        <ele>73.7</ele>
        <time>2023-09-27T12:07:35Z</time>
      </trkpt>
      <trkpt lat="49.88682" lon="2.50517">
        <ele>73.7</ele>
        <time>2023-09-27T12:07:36Z</time>
      </trkpt>
      <trkpt lat="49.88682" lon="2.50516">
        <ele>73.6</ele>
        <time>2023-09-27T12:07:37Z</time>
      </trkpt>
      <trkpt lat="49.88682" lon="2.50515">
        <ele>73.6</ele>
        <time>2023-09-27T12:07:38Z</time>
      </trkpt>
      <trkpt lat="49.88682" lon="2.50513">
        <ele>73.6</ele>
        <time>2023-09-27T12:07:39Z</time>
      </trkpt>
      <trkpt lat="49.88682" lon="2.50512">
        <ele>73.6</ele>
        <time>2023-09-27T12:07:40Z</time>
      </trkpt>
      <trkpt lat="49.88681" lon="2.5051">
        <ele>73.6</ele>
        <time>2023-09-27T12:07:41Z</time>
      </trkpt>
      <trkpt lat="49.88681" lon="2.50508">
        <ele>73.5</ele>
        <time>2023-09-27T12:07:42Z</time>
      </trkpt>
      <trkpt lat="49.88681" lon="2.50507">
        <ele>73.5</ele>
        <time>2023-09-27T12:07:43Z</time>
      </trkpt>
      <trkpt lat="49.88681" lon="2.50505">
        <ele>73.5</ele>
        <time>2023-09-27T12:07:44Z</time>
      </trkpt>
      <trkpt lat="49.88681" lon="2.50503">
        <ele>73.4</ele>
        <time>2023-09-27T12:07:45Z</time>
      </trkpt>
      <trkpt lat="49.88681" lon="2.50501">
        <ele>73.4</ele>
        <time>2023-09-27T12:07:46Z</time>
      </trkpt>
      <trkpt lat="49.88681" lon="2.50499">
        <ele>73.4</ele>
        <time>2023-09-27T12:07:47Z</time>
      </trkpt>
      <trkpt lat="49.88681" lon="2.50497">
        <ele>73.4</ele>
        <time>2023-09-27T12:07:48Z</time>
      </trkpt>
      <trkpt lat="49.88681" lon="2.50496">
        <ele>73.3</ele>
        <time>2023-09-27T12:07:49Z</time>
      </trkpt>
      <trkpt lat="49.88681" lon="2.50494">
        <ele>73.3</ele>
        <time>2023-09-27T12:07:50Z</time>
      </trkpt>
      <trkpt lat="49.88681" lon="2.50493">
        <ele>73.3</ele>
        <time>2023-09-27T12:07:51Z</time>
      </trkpt>
      <trkpt lat="49.88681" lon="2.50491">
        <ele>73.3</ele>
        <time>2023-09-27T12:07:52Z</time>
      </trkpt>
      <trkpt lat="49.88681" lon="2.50489">
        <ele>73.2</ele>
        <time>2023-09-27T12:07:53Z</time>
      </trkpt>
      <trkpt lat="49.88681" lon="2.50488">
        <ele>73.2</ele>
        <time>2023-09-27T12:07:54Z</time>
      </trkpt>
      <trkpt lat="49.88681" lon="2.50486">
        <ele>73.2</ele>
        <time>2023-09-27T12:07:55Z</time>
      </trkpt>
      <trkpt lat="49.88681" lon="2.50484">
        <ele>73.2</ele>
        <time>2023-09-27T12:07:56Z</time>
      </trkpt>
      <trkpt lat="49.88681" lon="2.50483">
        <ele>73.1</ele>
        <time>2023-09-27T12:07:57Z</time>
      </trkpt>
      <trkpt lat="49.88681" lon="2.50481">
        <ele>73.1</ele>
        <time>2023-09-27T12:07:58Z</time>
      </trkpt>
      <trkpt lat="49.88681" lon="2.50479">
        <ele>73.1</ele>
        <time>2023-09-27T12:07:59Z</time>
      </trkpt>
      <trkpt lat="49.88681" lon="2.50478">
        <ele>73.1</ele>
        <time>2023-09-27T12:08:00Z</time>
      </trkpt>
      <trkpt lat="49.88681" lon="2.50476">
        <ele>73</ele>
        <time>2023-09-27T12:08:01Z</time>
      </trkpt>
      <trkpt lat="49.88681" lon="2.50474">
        <ele>73</ele>
        <time>2023-09-27T12:08:02Z</time>
      </trkpt>
      <trkpt lat="49.88681" lon="2.50472">
        <ele>73</ele>
        <time>2023-09-27T12:08:03Z</time>
      </trkpt>
      <trkpt lat="49.88681" lon="2.5047">
        <ele>73</ele>
        <time>2023-09-27T12:08:04Z</time>
      </trkpt>
      <trkpt lat="49.88681" lon="2.50469">
        <ele>72.9</ele>
        <time>2023-09-27T12:08:05Z</time>
      </trkpt>
      <trkpt lat="49.88681" lon="2.50466">
        <ele>72.9</ele>
        <time>2023-09-27T12:08:06Z</time>
      </trkpt>
      <trkpt lat="49.8868" lon="2.50461">
        <ele>72.8</ele>
        <time>2023-09-27T12:08:07Z</time>
      </trkpt>
      <trkpt lat="49.8868" lon="2.5046">
        <ele>72.8</ele>
        <time>2023-09-27T12:08:08Z</time>
      </trkpt>
      <trkpt lat="49.8868" lon="2.50457">
        <ele>72.8</ele>
        <time>2023-09-27T12:08:09Z</time>
      </trkpt>
      <trkpt lat="49.8868" lon="2.50455">
        <ele>72.7</ele>
        <time>2023-09-27T12:08:10Z</time>
      </trkpt>
      <trkpt lat="49.88679" lon="2.50453">
        <ele>72.7</ele>
        <time>2023-09-27T12:08:11Z</time>
      </trkpt>
      <trkpt lat="49.88679" lon="2.50452">
        <ele>72.7</ele>
        <time>2023-09-27T12:08:12Z</time>
      </trkpt>
      <trkpt lat="49.88678" lon="2.50451">
        <ele>72.7</ele>
        <time>2023-09-27T12:08:13Z</time>
      </trkpt>
      <trkpt lat="49.88678" lon="2.5045">
        <ele>72.7</ele>
        <time>2023-09-27T12:08:14Z</time>
      </trkpt>
      <trkpt lat="49.88678" lon="2.50449">
        <ele>72.7</ele>
        <time>2023-09-27T12:08:15Z</time>
      </trkpt>
      <trkpt lat="49.88677" lon="2.50449">
        <ele>72.7</ele>
        <time>2023-09-27T12:08:16Z</time>
      </trkpt>
      <trkpt lat="49.88677" lon="2.50448">
        <ele>72.7</ele>
        <time>2023-09-27T12:08:17Z</time>
      </trkpt>
      <trkpt lat="49.88678" lon="2.50447">
        <ele>72.6</ele>
        <time>2023-09-27T12:08:18Z</time>
      </trkpt>
      <trkpt lat="49.88678" lon="2.50446">
        <ele>72.6</ele>
        <time>2023-09-27T12:08:19Z</time>
      </trkpt>
      <trkpt lat="49.88678" lon="2.50445">
        <ele>72.6</ele>
        <time>2023-09-27T12:08:20Z</time>
      </trkpt>
      <trkpt lat="49.88679" lon="2.50443">
        <ele>72.6</ele>
        <time>2023-09-27T12:08:21Z</time>
      </trkpt>
      <trkpt lat="49.88679" lon="2.50442">
        <ele>72.6</ele>
        <time>2023-09-27T12:08:22Z</time>
      </trkpt>
      <trkpt lat="49.88679" lon="2.5044">
        <ele>72.6</ele>
        <time>2023-09-27T12:08:23Z</time>
      </trkpt>
      <trkpt lat="49.88679" lon="2.50438">
        <ele>72.5</ele>
        <time>2023-09-27T12:08:24Z</time>
      </trkpt>
      <trkpt lat="49.88679" lon="2.50436">
        <ele>72.5</ele>
        <time>2023-09-27T12:08:25Z</time>
      </trkpt>
      <trkpt lat="49.88679" lon="2.50433">
        <ele>72.5</ele>
        <time>2023-09-27T12:08:26Z</time>
      </trkpt>
      <trkpt lat="49.88679" lon="2.50432">
        <ele>72.5</ele>
        <time>2023-09-27T12:08:27Z</time>
      </trkpt>
      <trkpt lat="49.88679" lon="2.50431">
        <ele>72.4</ele>
        <time>2023-09-27T12:08:28Z</time>
      </trkpt>
      <trkpt lat="49.88679" lon="2.50427">
        <ele>72.4</ele>
        <time>2023-09-27T12:08:29Z</time>
      </trkpt>
      <trkpt lat="49.88678" lon="2.50426">
        <ele>72.4</ele>
        <time>2023-09-27T12:08:30Z</time>
      </trkpt>
      <trkpt lat="49.88678" lon="2.50425">
        <ele>72.4</ele>
        <time>2023-09-27T12:08:31Z</time>
      </trkpt>
      <trkpt lat="49.88678" lon="2.50423">
        <ele>72.4</ele>
        <time>2023-09-27T12:08:32Z</time>
      </trkpt>
      <trkpt lat="49.88678" lon="2.50422">
        <ele>72.3</ele>
        <time>2023-09-27T12:08:33Z</time>
      </trkpt>
      <trkpt lat="49.88677" lon="2.5042">
        <ele>72.3</ele>
        <time>2023-09-27T12:08:34Z</time>
      </trkpt>
      <trkpt lat="49.88677" lon="2.50418">
        <ele>72.3</ele>
        <time>2023-09-27T12:08:35Z</time>
      </trkpt>
      <trkpt lat="49.88677" lon="2.50417">
        <ele>72.3</ele>
        <time>2023-09-27T12:08:36Z</time>
      </trkpt>
      <trkpt lat="49.88678" lon="2.50416">
        <ele>72.3</ele>
        <time>2023-09-27T12:08:37Z</time>
      </trkpt>
      <trkpt lat="49.88678" lon="2.50415">
        <ele>72.3</ele>
        <time>2023-09-27T12:08:38Z</time>
      </trkpt>
      <trkpt lat="49.88678" lon="2.50414">
        <ele>72.3</ele>
        <time>2023-09-27T12:08:39Z</time>
      </trkpt>
      <trkpt lat="49.88677" lon="2.50414">
        <ele>72.2</ele>
        <time>2023-09-27T12:08:40Z</time>
      </trkpt>
      <trkpt lat="49.88677" lon="2.50413">
        <ele>72.2</ele>
        <time>2023-09-27T12:08:41Z</time>
      </trkpt>
      <trkpt lat="49.88676" lon="2.50413">
        <ele>72.2</ele>
        <time>2023-09-27T12:08:42Z</time>
      </trkpt>
      <trkpt lat="49.88676" lon="2.50412">
        <ele>72.2</ele>
        <time>2023-09-27T12:08:43Z</time>
      </trkpt>
      <trkpt lat="49.88676" lon="2.50411">
        <ele>72.2</ele>
        <time>2023-09-27T12:08:44Z</time>
      </trkpt>
      <trkpt lat="49.88676" lon="2.5041">
        <ele>72.2</ele>
        <time>2023-09-27T12:08:45Z</time>
      </trkpt>
      <trkpt lat="49.88676" lon="2.50408">
        <ele>72.2</ele>
        <time>2023-09-27T12:08:46Z</time>
      </trkpt>
      <trkpt lat="49.88676" lon="2.50407">
        <ele>72.2</ele>
        <time>2023-09-27T12:08:47Z</time>
      </trkpt>
      <trkpt lat="49.88675" lon="2.50406">
        <ele>72.2</ele>
        <time>2023-09-27T12:08:48Z</time>
      </trkpt>
      <trkpt lat="49.88675" lon="2.50404">
        <ele>72.2</ele>
        <time>2023-09-27T12:08:49Z</time>
      </trkpt>
      <trkpt lat="49.88675" lon="2.50403">
        <ele>72.1</ele>
        <time>2023-09-27T12:08:50Z</time>
      </trkpt>
      <trkpt lat="49.88675" lon="2.50401">
        <ele>72.1</ele>
        <time>2023-09-27T12:08:51Z</time>
      </trkpt>
      <trkpt lat="49.88675" lon="2.504">
        <ele>72.1</ele>
        <time>2023-09-27T12:08:52Z</time>
      </trkpt>
      <trkpt lat="49.88675" lon="2.50399">
        <ele>72.1</ele>
        <time>2023-09-27T12:08:53Z</time>
      </trkpt>
      <trkpt lat="49.88674" lon="2.50397">
        <ele>72.1</ele>
        <time>2023-09-27T12:08:54Z</time>
      </trkpt>
      <trkpt lat="49.88674" lon="2.50395">
        <ele>72.1</ele>
        <time>2023-09-27T12:08:55Z</time>
      </trkpt>
      <trkpt lat="49.88674" lon="2.50394">
        <ele>72.1</ele>
        <time>2023-09-27T12:08:56Z</time>
      </trkpt>
      <trkpt lat="49.88674" lon="2.50392">
        <ele>72.1</ele>
        <time>2023-09-27T12:08:57Z</time>
      </trkpt>
      <trkpt lat="49.88674" lon="2.5039">
        <ele>72.1</ele>
        <time>2023-09-27T12:08:58Z</time>
      </trkpt>
      <trkpt lat="49.88673" lon="2.50385">
        <ele>72</ele>
        <time>2023-09-27T12:08:59Z</time>
      </trkpt>
      <trkpt lat="49.88673" lon="2.50384">
        <ele>72</ele>
        <time>2023-09-27T12:09:00Z</time>
      </trkpt>
      <trkpt lat="49.88673" lon="2.50381">
        <ele>72</ele>
        <time>2023-09-27T12:09:01Z</time>
      </trkpt>
      <trkpt lat="49.88673" lon="2.50378">
        <ele>72</ele>
        <time>2023-09-27T12:09:02Z</time>
      </trkpt>
      <trkpt lat="49.88672" lon="2.50376">
        <ele>72</ele>
        <time>2023-09-27T12:09:03Z</time>
      </trkpt>
      <trkpt lat="49.88672" lon="2.50373">
        <ele>71.9</ele>
        <time>2023-09-27T12:09:04Z</time>
      </trkpt>
      <trkpt lat="49.88672" lon="2.50371">
        <ele>71.9</ele>
        <time>2023-09-27T12:09:05Z</time>
      </trkpt>
      <trkpt lat="49.88672" lon="2.50369">
        <ele>71.9</ele>
        <time>2023-09-27T12:09:06Z</time>
      </trkpt>
      <trkpt lat="49.88672" lon="2.50367">
        <ele>71.9</ele>
        <time>2023-09-27T12:09:07Z</time>
      </trkpt>
      <trkpt lat="49.88673" lon="2.50366">
        <ele>71.9</ele>
        <time>2023-09-27T12:09:08Z</time>
      </trkpt>
      <trkpt lat="49.88673" lon="2.50365">
        <ele>71.9</ele>
        <time>2023-09-27T12:09:09Z</time>
      </trkpt>
      <trkpt lat="49.88674" lon="2.50364">
        <ele>71.9</ele>
        <time>2023-09-27T12:09:10Z</time>
      </trkpt>
      <trkpt lat="49.88674" lon="2.50364">
        <ele>71.9</ele>
        <time>2023-09-27T12:09:11Z</time>
      </trkpt>
      <trkpt lat="49.88675" lon="2.50363">
        <ele>71.8</ele>
        <time>2023-09-27T12:09:12Z</time>
      </trkpt>
      <trkpt lat="49.88674" lon="2.50362">
        <ele>71.8</ele>
        <time>2023-09-27T12:09:13Z</time>
      </trkpt>
      <trkpt lat="49.88674" lon="2.50361">
        <ele>71.8</ele>
        <time>2023-09-27T12:09:14Z</time>
      </trkpt>
      <trkpt lat="49.88674" lon="2.5036">
        <ele>71.8</ele>
        <time>2023-09-27T12:09:15Z</time>
      </trkpt>
      <trkpt lat="49.88673" lon="2.50359">
        <ele>71.8</ele>
        <time>2023-09-27T12:09:16Z</time>
      </trkpt>
      <trkpt lat="49.88673" lon="2.50357">
        <ele>71.8</ele>
        <time>2023-09-27T12:09:17Z</time>
      </trkpt>
      <trkpt lat="49.88672" lon="2.50355">
        <ele>71.8</ele>
        <time>2023-09-27T12:09:18Z</time>
      </trkpt>
      <trkpt lat="49.88671" lon="2.50352">
        <ele>71.7</ele>
        <time>2023-09-27T12:09:19Z</time>
      </trkpt>
      <trkpt lat="49.88671" lon="2.50351">
        <ele>71.7</ele>
        <time>2023-09-27T12:09:20Z</time>
      </trkpt>
      <trkpt lat="49.88671" lon="2.5035">
        <ele>71.7</ele>
        <time>2023-09-27T12:09:21Z</time>
      </trkpt>
      <trkpt lat="49.8867" lon="2.50347">
        <ele>71.6</ele>
        <time>2023-09-27T12:09:22Z</time>
      </trkpt>
      <trkpt lat="49.8867" lon="2.50346">
        <ele>71.6</ele>
        <time>2023-09-27T12:09:23Z</time>
      </trkpt>
      <trkpt lat="49.8867" lon="2.50344">
        <ele>71.6</ele>
        <time>2023-09-27T12:09:24Z</time>
      </trkpt>
      <trkpt lat="49.8867" lon="2.50342">
        <ele>71.6</ele>
        <time>2023-09-27T12:09:25Z</time>
      </trkpt>
      <trkpt lat="49.88669" lon="2.5034">
        <ele>71.5</ele>
        <time>2023-09-27T12:09:26Z</time>
      </trkpt>
      <trkpt lat="49.88669" lon="2.50338">
        <ele>71.5</ele>
        <time>2023-09-27T12:09:27Z</time>
      </trkpt>
      <trkpt lat="49.88669" lon="2.50336">
        <ele>71.5</ele>
        <time>2023-09-27T12:09:28Z</time>
      </trkpt>
      <trkpt lat="49.88668" lon="2.50334">
        <ele>71.5</ele>
        <time>2023-09-27T12:09:29Z</time>
      </trkpt>
      <trkpt lat="49.88668" lon="2.50332">
        <ele>71.4</ele>
        <time>2023-09-27T12:09:30Z</time>
      </trkpt>
      <trkpt lat="49.88668" lon="2.50328">
        <ele>71.4</ele>
        <time>2023-09-27T12:09:31Z</time>
      </trkpt>
      <trkpt lat="49.88668" lon="2.50327">
        <ele>71.4</ele>
        <time>2023-09-27T12:09:32Z</time>
      </trkpt>
      <trkpt lat="49.88668" lon="2.50326">
        <ele>71.3</ele>
        <time>2023-09-27T12:09:33Z</time>
      </trkpt>
      <trkpt lat="49.88668" lon="2.50324">
        <ele>71.3</ele>
        <time>2023-09-27T12:09:34Z</time>
      </trkpt>
      <trkpt lat="49.88668" lon="2.50322">
        <ele>71.3</ele>
        <time>2023-09-27T12:09:35Z</time>
      </trkpt>
      <trkpt lat="49.88668" lon="2.5032">
        <ele>71.3</ele>
        <time>2023-09-27T12:09:36Z</time>
      </trkpt>
      <trkpt lat="49.88668" lon="2.50319">
        <ele>71.3</ele>
        <time>2023-09-27T12:09:37Z</time>
      </trkpt>
      <trkpt lat="49.88668" lon="2.50317">
        <ele>71.3</ele>
        <time>2023-09-27T12:09:38Z</time>
      </trkpt>
      <trkpt lat="49.88667" lon="2.50315">
        <ele>71.3</ele>
        <time>2023-09-27T12:09:39Z</time>
      </trkpt>
      <trkpt lat="49.88667" lon="2.50312">
        <ele>71.2</ele>
        <time>2023-09-27T12:09:40Z</time>
      </trkpt>
      <trkpt lat="49.88667" lon="2.5031">
        <ele>71.2</ele>
        <time>2023-09-27T12:09:41Z</time>
      </trkpt>
      <trkpt lat="49.88667" lon="2.50309">
        <ele>71.2</ele>
        <time>2023-09-27T12:09:42Z</time>
      </trkpt>
      <trkpt lat="49.88667" lon="2.50306">
        <ele>71.2</ele>
        <time>2023-09-27T12:09:43Z</time>
      </trkpt>
      <trkpt lat="49.88667" lon="2.50304">
        <ele>71.2</ele>
        <time>2023-09-27T12:09:44Z</time>
      </trkpt>
      <trkpt lat="49.88666" lon="2.50303">
        <ele>71.2</ele>
        <time>2023-09-27T12:09:45Z</time>
      </trkpt>
      <trkpt lat="49.88666" lon="2.503">
        <ele>71.1</ele>
        <time>2023-09-27T12:09:46Z</time>
      </trkpt>
      <trkpt lat="49.88666" lon="2.50298">
        <ele>71.1</ele>
        <time>2023-09-27T12:09:47Z</time>
      </trkpt>
      <trkpt lat="49.88666" lon="2.50297">
        <ele>71.1</ele>
        <time>2023-09-27T12:09:48Z</time>
      </trkpt>
      <trkpt lat="49.88666" lon="2.50294">
        <ele>71.1</ele>
        <time>2023-09-27T12:09:49Z</time>
      </trkpt>
      <trkpt lat="49.88665" lon="2.50292">
        <ele>71.1</ele>
        <time>2023-09-27T12:09:50Z</time>
      </trkpt>
      <trkpt lat="49.88665" lon="2.50291">
        <ele>71.1</ele>
        <time>2023-09-27T12:09:51Z</time>
      </trkpt>
      <trkpt lat="49.88665" lon="2.50289">
        <ele>71</ele>
        <time>2023-09-27T12:09:52Z</time>
      </trkpt>
      <trkpt lat="49.88665" lon="2.50287">
        <ele>71</ele>
        <time>2023-09-27T12:09:53Z</time>
      </trkpt>
      <trkpt lat="49.88665" lon="2.50283">
        <ele>71</ele>
        <time>2023-09-27T12:09:54Z</time>
      </trkpt>
      <trkpt lat="49.88665" lon="2.50282">
        <ele>71</ele>
        <time>2023-09-27T12:09:55Z</time>
      </trkpt>
      <trkpt lat="49.88665" lon="2.50281">
        <ele>71</ele>
        <time>2023-09-27T12:09:56Z</time>
      </trkpt>
      <trkpt lat="49.88664" lon="2.50277">
        <ele>70.9</ele>
        <time>2023-09-27T12:09:57Z</time>
      </trkpt>
      <trkpt lat="49.88664" lon="2.50276">
        <ele>70.9</ele>
        <time>2023-09-27T12:09:58Z</time>
      </trkpt>
      <trkpt lat="49.88664" lon="2.50275">
        <ele>70.9</ele>
        <time>2023-09-27T12:09:59Z</time>
      </trkpt>
      <trkpt lat="49.88664" lon="2.50271">
        <ele>70.8</ele>
        <time>2023-09-27T12:10:00Z</time>
      </trkpt>
      <trkpt lat="49.88664" lon="2.5027">
        <ele>70.8</ele>
        <time>2023-09-27T12:10:01Z</time>
      </trkpt>
      <trkpt lat="49.88664" lon="2.50269">
        <ele>70.8</ele>
        <time>2023-09-27T12:10:02Z</time>
      </trkpt>
      <trkpt lat="49.88663" lon="2.50265">
        <ele>70.8</ele>
        <time>2023-09-27T12:10:03Z</time>
      </trkpt>
      <trkpt lat="49.88663" lon="2.50264">
        <ele>70.8</ele>
        <time>2023-09-27T12:10:04Z</time>
      </trkpt>
      <trkpt lat="49.88663" lon="2.50263">
        <ele>70.7</ele>
        <time>2023-09-27T12:10:05Z</time>
      </trkpt>
      <trkpt lat="49.88663" lon="2.50261">
        <ele>70.7</ele>
        <time>2023-09-27T12:10:06Z</time>
      </trkpt>
      <trkpt lat="49.88663" lon="2.50259">
        <ele>70.7</ele>
        <time>2023-09-27T12:10:07Z</time>
      </trkpt>
      <trkpt lat="49.88663" lon="2.50256">
        <ele>70.7</ele>
        <time>2023-09-27T12:10:08Z</time>
      </trkpt>
      <trkpt lat="49.88663" lon="2.50254">
        <ele>70.6</ele>
        <time>2023-09-27T12:10:09Z</time>
      </trkpt>
      <trkpt lat="49.88663" lon="2.50251">
        <ele>70.6</ele>
        <time>2023-09-27T12:10:10Z</time>
      </trkpt>
      <trkpt lat="49.88663" lon="2.50249">
        <ele>70.6</ele>
        <time>2023-09-27T12:10:11Z</time>
      </trkpt>
      <trkpt lat="49.88663" lon="2.50248">
        <ele>70.6</ele>
        <time>2023-09-27T12:10:12Z</time>
      </trkpt>
      <trkpt lat="49.88663" lon="2.50245">
        <ele>70.5</ele>
        <time>2023-09-27T12:10:13Z</time>
      </trkpt>
      <trkpt lat="49.88663" lon="2.50243">
        <ele>70.5</ele>
        <time>2023-09-27T12:10:14Z</time>
      </trkpt>
      <trkpt lat="49.88663" lon="2.50242">
        <ele>70.5</ele>
        <time>2023-09-27T12:10:15Z</time>
      </trkpt>
      <trkpt lat="49.88662" lon="2.50239">
        <ele>70.4</ele>
        <time>2023-09-27T12:10:16Z</time>
      </trkpt>
      <trkpt lat="49.88662" lon="2.50238">
        <ele>70.4</ele>
        <time>2023-09-27T12:10:17Z</time>
      </trkpt>
      <trkpt lat="49.88662" lon="2.50236">
        <ele>70.4</ele>
        <time>2023-09-27T12:10:18Z</time>
      </trkpt>
      <trkpt lat="49.88662" lon="2.50233">
        <ele>70.4</ele>
        <time>2023-09-27T12:10:19Z</time>
      </trkpt>
      <trkpt lat="49.88662" lon="2.50232">
        <ele>70.4</ele>
        <time>2023-09-27T12:10:20Z</time>
      </trkpt>
      <trkpt lat="49.88662" lon="2.50231">
        <ele>70.3</ele>
        <time>2023-09-27T12:10:21Z</time>
      </trkpt>
      <trkpt lat="49.88661" lon="2.50227">
        <ele>70.3</ele>
        <time>2023-09-27T12:10:22Z</time>
      </trkpt>
      <trkpt lat="49.88661" lon="2.50226">
        <ele>70.3</ele>
        <time>2023-09-27T12:10:23Z</time>
      </trkpt>
      <trkpt lat="49.88661" lon="2.50225">
        <ele>70.3</ele>
        <time>2023-09-27T12:10:24Z</time>
      </trkpt>
      <trkpt lat="49.88661" lon="2.50222">
        <ele>70.2</ele>
        <time>2023-09-27T12:10:25Z</time>
      </trkpt>
      <trkpt lat="49.8866" lon="2.5022">
        <ele>70.2</ele>
        <time>2023-09-27T12:10:26Z</time>
      </trkpt>
      <trkpt lat="49.8866" lon="2.50218">
        <ele>70.2</ele>
        <time>2023-09-27T12:10:27Z</time>
      </trkpt>
      <trkpt lat="49.8866" lon="2.50216">
        <ele>70.1</ele>
        <time>2023-09-27T12:10:28Z</time>
      </trkpt>
      <trkpt lat="49.8866" lon="2.50213">
        <ele>70.1</ele>
        <time>2023-09-27T12:10:29Z</time>
      </trkpt>
      <trkpt lat="49.8866" lon="2.50211">
        <ele>70.1</ele>
        <time>2023-09-27T12:10:30Z</time>
      </trkpt>
      <trkpt lat="49.8866" lon="2.50209">
        <ele>70.1</ele>
        <time>2023-09-27T12:10:31Z</time>
      </trkpt>
      <trkpt lat="49.8866" lon="2.50207">
        <ele>70</ele>
        <time>2023-09-27T12:10:32Z</time>
      </trkpt>
      <trkpt lat="49.8866" lon="2.50204">
        <ele>70</ele>
        <time>2023-09-27T12:10:33Z</time>
      </trkpt>
      <trkpt lat="49.88659" lon="2.50202">
        <ele>70</ele>
        <time>2023-09-27T12:10:34Z</time>
      </trkpt>
      <trkpt lat="49.88659" lon="2.502">
        <ele>70</ele>
        <time>2023-09-27T12:10:35Z</time>
      </trkpt>
      <trkpt lat="49.88659" lon="2.50198">
        <ele>69.9</ele>
        <time>2023-09-27T12:10:36Z</time>
      </trkpt>
      <trkpt lat="49.88659" lon="2.50196">
        <ele>69.9</ele>
        <time>2023-09-27T12:10:37Z</time>
      </trkpt>
      <trkpt lat="49.88659" lon="2.50194">
        <ele>69.9</ele>
        <time>2023-09-27T12:10:38Z</time>
      </trkpt>
      <trkpt lat="49.88659" lon="2.50192">
        <ele>69.8</ele>
        <time>2023-09-27T12:10:39Z</time>
      </trkpt>
      <trkpt lat="49.88659" lon="2.5019">
        <ele>69.8</ele>
        <time>2023-09-27T12:10:40Z</time>
      </trkpt>
      <trkpt lat="49.88659" lon="2.50186">
        <ele>69.8</ele>
        <time>2023-09-27T12:10:41Z</time>
      </trkpt>
      <trkpt lat="49.88658" lon="2.50185">
        <ele>69.8</ele>
        <time>2023-09-27T12:10:42Z</time>
      </trkpt>
      <trkpt lat="49.88658" lon="2.50184">
        <ele>69.7</ele>
        <time>2023-09-27T12:10:43Z</time>
      </trkpt>
      <trkpt lat="49.88658" lon="2.50181">
        <ele>69.7</ele>
        <time>2023-09-27T12:10:44Z</time>
      </trkpt>
      <trkpt lat="49.88658" lon="2.50179">
        <ele>69.7</ele>
        <time>2023-09-27T12:10:45Z</time>
      </trkpt>
      <trkpt lat="49.88658" lon="2.50178">
        <ele>69.7</ele>
        <time>2023-09-27T12:10:46Z</time>
      </trkpt>
      <trkpt lat="49.88658" lon="2.50176">
        <ele>69.7</ele>
        <time>2023-09-27T12:10:47Z</time>
      </trkpt>
      <trkpt lat="49.88658" lon="2.50174">
        <ele>69.6</ele>
        <time>2023-09-27T12:10:48Z</time>
      </trkpt>
      <trkpt lat="49.88657" lon="2.50172">
        <ele>69.6</ele>
        <time>2023-09-27T12:10:49Z</time>
      </trkpt>
      <trkpt lat="49.88657" lon="2.5017">
        <ele>69.6</ele>
        <time>2023-09-27T12:10:50Z</time>
      </trkpt>
      <trkpt lat="49.88657" lon="2.50167">
        <ele>69.5</ele>
        <time>2023-09-27T12:10:51Z</time>
      </trkpt>
      <trkpt lat="49.88657" lon="2.50165">
        <ele>69.5</ele>
        <time>2023-09-27T12:10:52Z</time>
      </trkpt>
      <trkpt lat="49.88657" lon="2.50163">
        <ele>69.5</ele>
        <time>2023-09-27T12:10:53Z</time>
      </trkpt>
      <trkpt lat="49.88657" lon="2.50161">
        <ele>69.5</ele>
        <time>2023-09-27T12:10:54Z</time>
      </trkpt>
      <trkpt lat="49.88657" lon="2.50159">
        <ele>69.4</ele>
        <time>2023-09-27T12:10:55Z</time>
      </trkpt>
      <trkpt lat="49.88657" lon="2.50157">
        <ele>69.4</ele>
        <time>2023-09-27T12:10:56Z</time>
      </trkpt>
      <trkpt lat="49.88656" lon="2.50153">
        <ele>69.4</ele>
        <time>2023-09-27T12:10:57Z</time>
      </trkpt>
      <trkpt lat="49.88656" lon="2.50152">
        <ele>69.3</ele>
        <time>2023-09-27T12:10:58Z</time>
      </trkpt>
      <trkpt lat="49.88656" lon="2.50151">
        <ele>69.3</ele>
        <time>2023-09-27T12:10:59Z</time>
      </trkpt>
      <trkpt lat="49.88656" lon="2.50147">
        <ele>69.3</ele>
        <time>2023-09-27T12:11:00Z</time>
      </trkpt>
      <trkpt lat="49.88656" lon="2.50146">
        <ele>69.2</ele>
        <time>2023-09-27T12:11:01Z</time>
      </trkpt>
      <trkpt lat="49.88656" lon="2.50145">
        <ele>69.2</ele>
        <time>2023-09-27T12:11:02Z</time>
      </trkpt>
      <trkpt lat="49.88656" lon="2.50141">
        <ele>69.2</ele>
        <time>2023-09-27T12:11:03Z</time>
      </trkpt>
      <trkpt lat="49.88656" lon="2.5014">
        <ele>69.1</ele>
        <time>2023-09-27T12:11:04Z</time>
      </trkpt>
      <trkpt lat="49.88655" lon="2.50139">
        <ele>69.1</ele>
        <time>2023-09-27T12:11:05Z</time>
      </trkpt>
      <trkpt lat="49.88655" lon="2.50136">
        <ele>69.1</ele>
        <time>2023-09-27T12:11:06Z</time>
      </trkpt>
      <trkpt lat="49.88655" lon="2.50134">
        <ele>69</ele>
        <time>2023-09-27T12:11:07Z</time>
      </trkpt>
      <trkpt lat="49.88655" lon="2.50131">
        <ele>69</ele>
        <time>2023-09-27T12:11:08Z</time>
      </trkpt>
      <trkpt lat="49.88655" lon="2.5013">
        <ele>69</ele>
        <time>2023-09-27T12:11:09Z</time>
      </trkpt>
      <trkpt lat="49.88655" lon="2.50128">
        <ele>68.9</ele>
        <time>2023-09-27T12:11:10Z</time>
      </trkpt>
      <trkpt lat="49.88654" lon="2.50125">
        <ele>68.9</ele>
        <time>2023-09-27T12:11:11Z</time>
      </trkpt>
      <trkpt lat="49.88654" lon="2.50123">
        <ele>68.9</ele>
        <time>2023-09-27T12:11:12Z</time>
      </trkpt>
      <trkpt lat="49.88654" lon="2.50122">
        <ele>68.8</ele>
        <time>2023-09-27T12:11:13Z</time>
      </trkpt>
      <trkpt lat="49.88654" lon="2.5012">
        <ele>68.8</ele>
        <time>2023-09-27T12:11:14Z</time>
      </trkpt>
      <trkpt lat="49.88654" lon="2.50118">
        <ele>68.8</ele>
        <time>2023-09-27T12:11:15Z</time>
      </trkpt>
      <trkpt lat="49.88653" lon="2.50116">
        <ele>68.7</ele>
        <time>2023-09-27T12:11:16Z</time>
      </trkpt>
      <trkpt lat="49.88653" lon="2.50113">
        <ele>68.7</ele>
        <time>2023-09-27T12:11:17Z</time>
      </trkpt>
      <trkpt lat="49.88653" lon="2.5011">
        <ele>68.6</ele>
        <time>2023-09-27T12:11:18Z</time>
      </trkpt>
      <trkpt lat="49.88654" lon="2.50109">
        <ele>68.6</ele>
        <time>2023-09-27T12:11:19Z</time>
      </trkpt>
      <trkpt lat="49.88654" lon="2.50107">
        <ele>68.6</ele>
        <time>2023-09-27T12:11:20Z</time>
      </trkpt>
      <trkpt lat="49.88654" lon="2.50104">
        <ele>68.5</ele>
        <time>2023-09-27T12:11:21Z</time>
      </trkpt>
      <trkpt lat="49.88654" lon="2.50103">
        <ele>68.5</ele>
        <time>2023-09-27T12:11:22Z</time>
      </trkpt>
      <trkpt lat="49.88655" lon="2.50102">
        <ele>68.5</ele>
        <time>2023-09-27T12:11:23Z</time>
      </trkpt>
      <trkpt lat="49.88655" lon="2.501">
        <ele>68.5</ele>
        <time>2023-09-27T12:11:24Z</time>
      </trkpt>
      <trkpt lat="49.88655" lon="2.50098">
        <ele>68.4</ele>
        <time>2023-09-27T12:11:25Z</time>
      </trkpt>
      <trkpt lat="49.88655" lon="2.50097">
        <ele>68.4</ele>
        <time>2023-09-27T12:11:26Z</time>
      </trkpt>
      <trkpt lat="49.88655" lon="2.50094">
        <ele>68.3</ele>
        <time>2023-09-27T12:11:27Z</time>
      </trkpt>
      <trkpt lat="49.88655" lon="2.50092">
        <ele>68.3</ele>
        <time>2023-09-27T12:11:28Z</time>
      </trkpt>
      <trkpt lat="49.88655" lon="2.50091">
        <ele>68.3</ele>
        <time>2023-09-27T12:11:29Z</time>
      </trkpt>
      <trkpt lat="49.88654" lon="2.50088">
        <ele>68.2</ele>
        <time>2023-09-27T12:11:30Z</time>
      </trkpt>
      <trkpt lat="49.88654" lon="2.50086">
        <ele>68.2</ele>
        <time>2023-09-27T12:11:31Z</time>
      </trkpt>
      <trkpt lat="49.88654" lon="2.50085">
        <ele>68.2</ele>
        <time>2023-09-27T12:11:32Z</time>
      </trkpt>
      <trkpt lat="49.88654" lon="2.50082">
        <ele>68.1</ele>
        <time>2023-09-27T12:11:33Z</time>
      </trkpt>
      <trkpt lat="49.88653" lon="2.5008">
        <ele>68.1</ele>
        <time>2023-09-27T12:11:34Z</time>
      </trkpt>
      <trkpt lat="49.88653" lon="2.50077">
        <ele>68</ele>
        <time>2023-09-27T12:11:35Z</time>
      </trkpt>
      <trkpt lat="49.88653" lon="2.50075">
        <ele>68</ele>
        <time>2023-09-27T12:11:36Z</time>
      </trkpt>
      <trkpt lat="49.88654" lon="2.50072">
        <ele>67.9</ele>
        <time>2023-09-27T12:11:37Z</time>
      </trkpt>
      <trkpt lat="49.88654" lon="2.5007">
        <ele>67.9</ele>
        <time>2023-09-27T12:11:38Z</time>
      </trkpt>
      <trkpt lat="49.88654" lon="2.50067">
        <ele>67.9</ele>
        <time>2023-09-27T12:11:39Z</time>
      </trkpt>
      <trkpt lat="49.88654" lon="2.50065">
        <ele>67.8</ele>
        <time>2023-09-27T12:11:40Z</time>
      </trkpt>
      <trkpt lat="49.88654" lon="2.50062">
        <ele>67.8</ele>
        <time>2023-09-27T12:11:41Z</time>
      </trkpt>
      <trkpt lat="49.88654" lon="2.5006">
        <ele>67.8</ele>
        <time>2023-09-27T12:11:42Z</time>
      </trkpt>
      <trkpt lat="49.88654" lon="2.50058">
        <ele>67.7</ele>
        <time>2023-09-27T12:11:43Z</time>
      </trkpt>
      <trkpt lat="49.88654" lon="2.50055">
        <ele>67.7</ele>
        <time>2023-09-27T12:11:44Z</time>
      </trkpt>
      <trkpt lat="49.88653" lon="2.50052">
        <ele>67.6</ele>
        <time>2023-09-27T12:11:45Z</time>
      </trkpt>
      <trkpt lat="49.88653" lon="2.50051">
        <ele>67.6</ele>
        <time>2023-09-27T12:11:46Z</time>
      </trkpt>
      <trkpt lat="49.88653" lon="2.50049">
        <ele>67.6</ele>
        <time>2023-09-27T12:11:47Z</time>
      </trkpt>
      <trkpt lat="49.88653" lon="2.50046">
        <ele>67.5</ele>
        <time>2023-09-27T12:11:48Z</time>
      </trkpt>
      <trkpt lat="49.88653" lon="2.50045">
        <ele>67.5</ele>
        <time>2023-09-27T12:11:49Z</time>
      </trkpt>
      <trkpt lat="49.88653" lon="2.50043">
        <ele>67.5</ele>
        <time>2023-09-27T12:11:50Z</time>
      </trkpt>
      <trkpt lat="49.88653" lon="2.5004">
        <ele>67.4</ele>
        <time>2023-09-27T12:11:51Z</time>
      </trkpt>
      <trkpt lat="49.88653" lon="2.50039">
        <ele>67.4</ele>
        <time>2023-09-27T12:11:52Z</time>
      </trkpt>
      <trkpt lat="49.88653" lon="2.50037">
        <ele>67.4</ele>
        <time>2023-09-27T12:11:53Z</time>
      </trkpt>
      <trkpt lat="49.88652" lon="2.50034">
        <ele>67.3</ele>
        <time>2023-09-27T12:11:54Z</time>
      </trkpt>
      <trkpt lat="49.88652" lon="2.50033">
        <ele>67.3</ele>
        <time>2023-09-27T12:11:55Z</time>
      </trkpt>
      <trkpt lat="49.88652" lon="2.50032">
        <ele>67.2</ele>
        <time>2023-09-27T12:11:56Z</time>
      </trkpt>
      <trkpt lat="49.88651" lon="2.5003">
        <ele>67.2</ele>
        <time>2023-09-27T12:11:57Z</time>
      </trkpt>
      <trkpt lat="49.88651" lon="2.50028">
        <ele>67.2</ele>
        <time>2023-09-27T12:11:58Z</time>
      </trkpt>
      <trkpt lat="49.88651" lon="2.50026">
        <ele>67.1</ele>
        <time>2023-09-27T12:11:59Z</time>
      </trkpt>
      <trkpt lat="49.88651" lon="2.50025">
        <ele>67.1</ele>
        <time>2023-09-27T12:12:00Z</time>
      </trkpt>
      <trkpt lat="49.88651" lon="2.50023">
        <ele>67.1</ele>
        <time>2023-09-27T12:12:01Z</time>
      </trkpt>
      <trkpt lat="49.8865" lon="2.50021">
        <ele>67</ele>
        <time>2023-09-27T12:12:02Z</time>
      </trkpt>
      <trkpt lat="49.8865" lon="2.50019">
        <ele>67</ele>
        <time>2023-09-27T12:12:03Z</time>
      </trkpt>
      <trkpt lat="49.8865" lon="2.50018">
        <ele>67</ele>
        <time>2023-09-27T12:12:04Z</time>
      </trkpt>
      <trkpt lat="49.8865" lon="2.50016">
        <ele>66.9</ele>
        <time>2023-09-27T12:12:05Z</time>
      </trkpt>
      <trkpt lat="49.8865" lon="2.50015">
        <ele>66.9</ele>
        <time>2023-09-27T12:12:06Z</time>
      </trkpt>
      <trkpt lat="49.8865" lon="2.50013">
        <ele>66.9</ele>
        <time>2023-09-27T12:12:07Z</time>
      </trkpt>
      <trkpt lat="49.88649" lon="2.50011">
        <ele>66.9</ele>
        <time>2023-09-27T12:12:08Z</time>
      </trkpt>
      <trkpt lat="49.88649" lon="2.50008">
        <ele>66.8</ele>
        <time>2023-09-27T12:12:09Z</time>
      </trkpt>
      <trkpt lat="49.88649" lon="2.50007">
        <ele>66.8</ele>
        <time>2023-09-27T12:12:10Z</time>
      </trkpt>
      <trkpt lat="49.88649" lon="2.50006">
        <ele>66.8</ele>
        <time>2023-09-27T12:12:11Z</time>
      </trkpt>
      <trkpt lat="49.88648" lon="2.50002">
        <ele>66.7</ele>
        <time>2023-09-27T12:12:12Z</time>
      </trkpt>
      <trkpt lat="49.88648" lon="2.50001">
        <ele>66.7</ele>
        <time>2023-09-27T12:12:13Z</time>
      </trkpt>
      <trkpt lat="49.88648" lon="2.5">
        <ele>66.7</ele>
        <time>2023-09-27T12:12:14Z</time>
      </trkpt>
      <trkpt lat="49.88648" lon="2.49998">
        <ele>66.6</ele>
        <time>2023-09-27T12:12:15Z</time>
      </trkpt>
      <trkpt lat="49.88648" lon="2.49996">
        <ele>66.6</ele>
        <time>2023-09-27T12:12:16Z</time>
      </trkpt>
      <trkpt lat="49.88648" lon="2.49994">
        <ele>66.6</ele>
        <time>2023-09-27T12:12:17Z</time>
      </trkpt>
      <trkpt lat="49.88647" lon="2.49993">
        <ele>66.6</ele>
        <time>2023-09-27T12:12:18Z</time>
      </trkpt>
      <trkpt lat="49.88647" lon="2.49991">
        <ele>66.5</ele>
        <time>2023-09-27T12:12:19Z</time>
      </trkpt>
      <trkpt lat="49.88647" lon="2.49989">
        <ele>66.5</ele>
        <time>2023-09-27T12:12:20Z</time>
      </trkpt>
      <trkpt lat="49.88647" lon="2.49988">
        <ele>66.5</ele>
        <time>2023-09-27T12:12:21Z</time>
      </trkpt>
      <trkpt lat="49.88647" lon="2.49986">
        <ele>66.5</ele>
        <time>2023-09-27T12:12:22Z</time>
      </trkpt>
      <trkpt lat="49.88647" lon="2.49985">
        <ele>66.4</ele>
        <time>2023-09-27T12:12:23Z</time>
      </trkpt>
      <trkpt lat="49.88646" lon="2.49984">
        <ele>66.4</ele>
        <time>2023-09-27T12:12:24Z</time>
      </trkpt>
      <trkpt lat="49.88646" lon="2.49982">
        <ele>66.4</ele>
        <time>2023-09-27T12:12:25Z</time>
      </trkpt>
      <trkpt lat="49.88646" lon="2.4998">
        <ele>66.4</ele>
        <time>2023-09-27T12:12:26Z</time>
      </trkpt>
      <trkpt lat="49.88646" lon="2.49978">
        <ele>66.3</ele>
        <time>2023-09-27T12:12:27Z</time>
      </trkpt>
      <trkpt lat="49.88646" lon="2.49977">
        <ele>66.3</ele>
        <time>2023-09-27T12:12:28Z</time>
      </trkpt>
      <trkpt lat="49.88646" lon="2.49975">
        <ele>66.3</ele>
        <time>2023-09-27T12:12:29Z</time>
      </trkpt>
      <trkpt lat="49.88645" lon="2.49971">
        <ele>66.2</ele>
        <time>2023-09-27T12:12:30Z</time>
      </trkpt>
      <trkpt lat="49.88645" lon="2.4997">
        <ele>66.2</ele>
        <time>2023-09-27T12:12:31Z</time>
      </trkpt>
      <trkpt lat="49.88645" lon="2.49969">
        <ele>66.2</ele>
        <time>2023-09-27T12:12:32Z</time>
      </trkpt>
      <trkpt lat="49.88645" lon="2.49967">
        <ele>66.2</ele>
        <time>2023-09-27T12:12:33Z</time>
      </trkpt>
      <trkpt lat="49.88645" lon="2.49965">
        <ele>66.1</ele>
        <time>2023-09-27T12:12:34Z</time>
      </trkpt>
      <trkpt lat="49.88645" lon="2.49964">
        <ele>66.1</ele>
        <time>2023-09-27T12:12:35Z</time>
      </trkpt>
      <trkpt lat="49.88645" lon="2.49962">
        <ele>66.1</ele>
        <time>2023-09-27T12:12:36Z</time>
      </trkpt>
      <trkpt lat="49.88645" lon="2.49961">
        <ele>66.1</ele>
        <time>2023-09-27T12:12:37Z</time>
      </trkpt>
      <trkpt lat="49.88645" lon="2.49959">
        <ele>66.1</ele>
        <time>2023-09-27T12:12:38Z</time>
      </trkpt>
      <trkpt lat="49.88645" lon="2.49958">
        <ele>66</ele>
        <time>2023-09-27T12:12:39Z</time>
      </trkpt>
      <trkpt lat="49.88645" lon="2.49956">
        <ele>66</ele>
        <time>2023-09-27T12:12:40Z</time>
      </trkpt>
      <trkpt lat="49.88645" lon="2.49955">
        <ele>66</ele>
        <time>2023-09-27T12:12:41Z</time>
      </trkpt>
      <trkpt lat="49.88645" lon="2.49953">
        <ele>66</ele>
        <time>2023-09-27T12:12:42Z</time>
      </trkpt>
      <trkpt lat="49.88645" lon="2.49951">
        <ele>65.9</ele>
        <time>2023-09-27T12:12:43Z</time>
      </trkpt>
      <trkpt lat="49.88644" lon="2.4995">
        <ele>65.9</ele>
        <time>2023-09-27T12:12:44Z</time>
      </trkpt>
      <trkpt lat="49.88644" lon="2.49948">
        <ele>65.9</ele>
        <time>2023-09-27T12:12:45Z</time>
      </trkpt>
      <trkpt lat="49.88644" lon="2.49947">
        <ele>65.9</ele>
        <time>2023-09-27T12:12:46Z</time>
      </trkpt>
      <trkpt lat="49.88644" lon="2.49946">
        <ele>65.8</ele>
        <time>2023-09-27T12:12:47Z</time>
      </trkpt>
      <trkpt lat="49.88644" lon="2.49944">
        <ele>65.8</ele>
        <time>2023-09-27T12:12:48Z</time>
      </trkpt>
      <trkpt lat="49.88644" lon="2.49943">
        <ele>65.8</ele>
        <time>2023-09-27T12:12:49Z</time>
      </trkpt>
      <trkpt lat="49.88645" lon="2.49941">
        <ele>65.7</ele>
        <time>2023-09-27T12:12:50Z</time>
      </trkpt>
      <trkpt lat="49.88645" lon="2.4994">
        <ele>65.7</ele>
        <time>2023-09-27T12:12:51Z</time>
      </trkpt>
      <trkpt lat="49.88645" lon="2.49938">
        <ele>65.7</ele>
        <time>2023-09-27T12:12:52Z</time>
      </trkpt>
      <trkpt lat="49.88645" lon="2.49936">
        <ele>65.7</ele>
        <time>2023-09-27T12:12:53Z</time>
      </trkpt>
      <trkpt lat="49.88645" lon="2.49935">
        <ele>65.6</ele>
        <time>2023-09-27T12:12:54Z</time>
      </trkpt>
      <trkpt lat="49.88645" lon="2.49934">
        <ele>65.6</ele>
        <time>2023-09-27T12:12:55Z</time>
      </trkpt>
      <trkpt lat="49.88645" lon="2.49932">
        <ele>65.6</ele>
        <time>2023-09-27T12:12:56Z</time>
      </trkpt>
      <trkpt lat="49.88644" lon="2.49931">
        <ele>65.6</ele>
        <time>2023-09-27T12:12:57Z</time>
      </trkpt>
      <trkpt lat="49.88644" lon="2.4993">
        <ele>65.5</ele>
        <time>2023-09-27T12:12:58Z</time>
      </trkpt>
      <trkpt lat="49.88644" lon="2.49928">
        <ele>65.5</ele>
        <time>2023-09-27T12:12:59Z</time>
      </trkpt>
      <trkpt lat="49.88644" lon="2.49927">
        <ele>65.5</ele>
        <time>2023-09-27T12:13:00Z</time>
      </trkpt>
      <trkpt lat="49.88644" lon="2.49927">
        <ele>65.5</ele>
        <time>2023-09-27T12:13:01Z</time>
      </trkpt>
      <trkpt lat="49.88643" lon="2.49926">
        <ele>65.5</ele>
        <time>2023-09-27T12:13:02Z</time>
      </trkpt>
      <trkpt lat="49.88643" lon="2.49927">
        <ele>65.5</ele>
        <time>2023-09-27T12:13:03Z</time>
      </trkpt>
      <trkpt lat="49.88642" lon="2.49927">
        <ele>65.5</ele>
        <time>2023-09-27T12:13:04Z</time>
      </trkpt>
      <trkpt lat="49.88642" lon="2.49927">
        <ele>65.5</ele>
        <time>2023-09-27T12:13:05Z</time>
      </trkpt>
      <trkpt lat="49.88642" lon="2.49927">
        <ele>65.4</ele>
        <time>2023-09-27T12:13:06Z</time>
      </trkpt>
      <trkpt lat="49.88641" lon="2.49928">
        <ele>65.4</ele>
        <time>2023-09-27T12:13:07Z</time>
      </trkpt>
      <trkpt lat="49.88641" lon="2.49928">
        <ele>65.4</ele>
        <time>2023-09-27T12:13:08Z</time>
      </trkpt>
      <trkpt lat="49.88641" lon="2.49928">
        <ele>65.4</ele>
        <time>2023-09-27T12:13:09Z</time>
      </trkpt>
      <trkpt lat="49.88641" lon="2.49928">
        <ele>65.4</ele>
        <time>2023-09-27T12:13:10Z</time>
      </trkpt>
      <trkpt lat="49.88641" lon="2.49928">
        <ele>65.4</ele>
        <time>2023-09-27T12:13:11Z</time>
      </trkpt>
      <trkpt lat="49.88641" lon="2.49928">
        <ele>65.4</ele>
        <time>2023-09-27T12:13:12Z</time>
      </trkpt>
      <trkpt lat="49.88641" lon="2.49928">
        <ele>65.4</ele>
        <time>2023-09-27T12:13:13Z</time>
      </trkpt>
      <trkpt lat="49.88641" lon="2.49928">
        <ele>65.4</ele>
        <time>2023-09-27T12:13:14Z</time>
      </trkpt>
      <trkpt lat="49.88641" lon="2.49928">
        <ele>65.4</ele>
        <time>2023-09-27T12:13:15Z</time>
      </trkpt>
      <trkpt lat="49.88641" lon="2.49928">
        <ele>65.4</ele>
        <time>2023-09-27T12:13:16Z</time>
      </trkpt>
      <trkpt lat="49.88641" lon="2.49928">
        <ele>65.4</ele>
        <time>2023-09-27T12:13:17Z</time>
      </trkpt>
      <trkpt lat="49.88641" lon="2.49928">
        <ele>65.4</ele>
        <time>2023-09-27T12:13:18Z</time>
      </trkpt>
      <trkpt lat="49.88641" lon="2.49928">
        <ele>65.4</ele>
        <time>2023-09-27T12:13:19Z</time>
      </trkpt>
      <trkpt lat="49.88641" lon="2.49928">
        <ele>65.4</ele>
        <time>2023-09-27T12:13:20Z</time>
      </trkpt>
      <trkpt lat="49.88641" lon="2.49928">
        <ele>65.4</ele>
        <time>2023-09-27T12:13:21Z</time>
      </trkpt>
      <trkpt lat="49.88641" lon="2.49928">
        <ele>65.4</ele>
        <time>2023-09-27T12:13:22Z</time>
      </trkpt>
      <trkpt lat="49.88641" lon="2.49928">
        <ele>65.4</ele>
        <time>2023-09-27T12:13:23Z</time>
      </trkpt>
      <trkpt lat="49.88641" lon="2.49928">
        <ele>65.4</ele>
        <time>2023-09-27T12:13:24Z</time>
      </trkpt>
      <trkpt lat="49.88641" lon="2.49928">
        <ele>65.4</ele>
        <time>2023-09-27T12:13:25Z</time>
      </trkpt>
      <trkpt lat="49.88641" lon="2.49928">
        <ele>65.4</ele>
        <time>2023-09-27T12:13:26Z</time>
      </trkpt>
      <trkpt lat="49.88641" lon="2.49928">
        <ele>65.4</ele>
        <time>2023-09-27T12:13:27Z</time>
      </trkpt>
      <trkpt lat="49.88641" lon="2.49928">
        <ele>65.4</ele>
        <time>2023-09-27T12:13:28Z</time>
      </trkpt>
      <trkpt lat="49.88641" lon="2.49928">
        <ele>65.4</ele>
        <time>2023-09-27T12:13:29Z</time>
      </trkpt>
      <trkpt lat="49.88641" lon="2.49928">
        <ele>65.4</ele>
        <time>2023-09-27T12:13:30Z</time>
      </trkpt>
      <trkpt lat="49.88641" lon="2.49928">
        <ele>65.4</ele>
        <time>2023-09-27T12:13:31Z</time>
      </trkpt>
      <trkpt lat="49.88641" lon="2.49928">
        <ele>65.4</ele>
        <time>2023-09-27T12:13:32Z</time>
      </trkpt>
      <trkpt lat="49.88641" lon="2.49928">
        <ele>65.4</ele>
        <time>2023-09-27T12:13:33Z</time>
      </trkpt>
      <trkpt lat="49.88641" lon="2.49928">
        <ele>65.4</ele>
        <time>2023-09-27T12:13:34Z</time>
      </trkpt>
      <trkpt lat="49.88641" lon="2.49928">
        <ele>65.4</ele>
        <time>2023-09-27T12:13:35Z</time>
      </trkpt>
      <trkpt lat="49.88641" lon="2.49928">
        <ele>65.4</ele>
        <time>2023-09-27T12:13:36Z</time>
      </trkpt>
      <trkpt lat="49.88641" lon="2.49928">
        <ele>65.4</ele>
        <time>2023-09-27T12:13:37Z</time>
      </trkpt>
      <trkpt lat="49.88641" lon="2.49928">
        <ele>65.4</ele>
        <time>2023-09-27T12:13:38Z</time>
      </trkpt>
      <trkpt lat="49.88641" lon="2.49928">
        <ele>65.4</ele>
        <time>2023-09-27T12:13:39Z</time>
      </trkpt>
      <trkpt lat="49.88641" lon="2.49928">
        <ele>65.4</ele>
        <time>2023-09-27T12:13:40Z</time>
      </trkpt>
      <trkpt lat="49.88641" lon="2.49928">
        <ele>65.4</ele>
        <time>2023-09-27T12:13:41Z</time>
      </trkpt>
      <trkpt lat="49.88641" lon="2.49928">
        <ele>65.4</ele>
        <time>2023-09-27T12:13:42Z</time>
      </trkpt>
      <trkpt lat="49.88641" lon="2.49928">
        <ele>65.4</ele>
        <time>2023-09-27T12:13:43Z</time>
      </trkpt>
      <trkpt lat="49.88641" lon="2.49928">
        <ele>65.4</ele>
        <time>2023-09-27T12:13:44Z</time>
      </trkpt>
      <trkpt lat="49.88641" lon="2.49928">
        <ele>65.4</ele>
        <time>2023-09-27T12:13:45Z</time>
      </trkpt>
      <trkpt lat="49.88641" lon="2.49928">
        <ele>65.4</ele>
        <time>2023-09-27T12:13:46Z</time>
      </trkpt>
      <trkpt lat="49.88641" lon="2.49928">
        <ele>65.4</ele>
        <time>2023-09-27T12:13:47Z</time>
      </trkpt>
      <trkpt lat="49.88641" lon="2.49928">
        <ele>65.4</ele>
        <time>2023-09-27T12:13:48Z</time>
      </trkpt>
      <trkpt lat="49.88645" lon="2.4993">
        <ele>65.3</ele>
        <time>2023-09-27T12:13:49Z</time>
      </trkpt>
      <trkpt lat="49.88647" lon="2.4993">
        <ele>65.3</ele>
        <time>2023-09-27T12:13:50Z</time>
      </trkpt>
      <trkpt lat="49.88647" lon="2.49929">
        <ele>65.3</ele>
        <time>2023-09-27T12:13:51Z</time>
      </trkpt>
      <trkpt lat="49.88647" lon="2.49928">
        <ele>65.3</ele>
        <time>2023-09-27T12:13:52Z</time>
      </trkpt>
      <trkpt lat="49.88647" lon="2.49927">
        <ele>65.2</ele>
        <time>2023-09-27T12:13:53Z</time>
      </trkpt>
      <trkpt lat="49.88647" lon="2.49926">
        <ele>65.2</ele>
        <time>2023-09-27T12:13:54Z</time>
      </trkpt>
      <trkpt lat="49.88647" lon="2.49925">
        <ele>65.2</ele>
        <time>2023-09-27T12:13:55Z</time>
      </trkpt>
      <trkpt lat="49.88646" lon="2.49923">
        <ele>65.2</ele>
        <time>2023-09-27T12:13:56Z</time>
      </trkpt>
      <trkpt lat="49.88646" lon="2.49921">
        <ele>65.2</ele>
        <time>2023-09-27T12:13:57Z</time>
      </trkpt>
      <trkpt lat="49.88645" lon="2.4992">
        <ele>65.1</ele>
        <time>2023-09-27T12:13:58Z</time>
      </trkpt>
      <trkpt lat="49.88644" lon="2.49918">
        <ele>65.1</ele>
        <time>2023-09-27T12:13:59Z</time>
      </trkpt>
      <trkpt lat="49.88643" lon="2.49917">
        <ele>65.1</ele>
        <time>2023-09-27T12:14:00Z</time>
      </trkpt>
      <trkpt lat="49.88642" lon="2.49915">
        <ele>65</ele>
        <time>2023-09-27T12:14:01Z</time>
      </trkpt>
      <trkpt lat="49.8864" lon="2.49914">
        <ele>64.9</ele>
        <time>2023-09-27T12:14:02Z</time>
      </trkpt>
      <trkpt lat="49.88639" lon="2.49914">
        <ele>64.9</ele>
        <time>2023-09-27T12:14:03Z</time>
      </trkpt>
      <trkpt lat="49.88638" lon="2.49914">
        <ele>64.8</ele>
        <time>2023-09-27T12:14:04Z</time>
      </trkpt>
      <trkpt lat="49.88637" lon="2.49914">
        <ele>64.8</ele>
        <time>2023-09-27T12:14:05Z</time>
      </trkpt>
      <trkpt lat="49.88637" lon="2.49913">
        <ele>64.7</ele>
        <time>2023-09-27T12:14:06Z</time>
      </trkpt>
      <trkpt lat="49.88636" lon="2.49912">
        <ele>64.7</ele>
        <time>2023-09-27T12:14:07Z</time>
      </trkpt>
      <trkpt lat="49.88636" lon="2.49911">
        <ele>64.7</ele>
        <time>2023-09-27T12:14:08Z</time>
      </trkpt>
      <trkpt lat="49.88636" lon="2.4991">
        <ele>64.7</ele>
        <time>2023-09-27T12:14:09Z</time>
      </trkpt>
      <trkpt lat="49.88635" lon="2.4991">
        <ele>64.6</ele>
        <time>2023-09-27T12:14:10Z</time>
      </trkpt>
      <trkpt lat="49.88635" lon="2.4991">
        <ele>64.6</ele>
        <time>2023-09-27T12:14:11Z</time>
      </trkpt>
      <trkpt lat="49.88634" lon="2.4991">
        <ele>64.6</ele>
        <time>2023-09-27T12:14:12Z</time>
      </trkpt>
      <trkpt lat="49.88633" lon="2.4991">
        <ele>64.5</ele>
        <time>2023-09-27T12:14:13Z</time>
      </trkpt>
      <trkpt lat="49.88632" lon="2.49909">
        <ele>64.5</ele>
        <time>2023-09-27T12:14:14Z</time>
      </trkpt>
      <trkpt lat="49.88631" lon="2.49909">
        <ele>64.4</ele>
        <time>2023-09-27T12:14:15Z</time>
      </trkpt>
      <trkpt lat="49.8863" lon="2.49909">
        <ele>64.4</ele>
        <time>2023-09-27T12:14:16Z</time>
      </trkpt>
      <trkpt lat="49.88629" lon="2.49908">
        <ele>64.3</ele>
        <time>2023-09-27T12:14:17Z</time>
      </trkpt>
      <trkpt lat="49.88628" lon="2.49908">
        <ele>64.3</ele>
        <time>2023-09-27T12:14:18Z</time>
      </trkpt>
      <trkpt lat="49.88627" lon="2.49907">
        <ele>64.2</ele>
        <time>2023-09-27T12:14:19Z</time>
      </trkpt>
      <trkpt lat="49.88625" lon="2.49906">
        <ele>64.1</ele>
        <time>2023-09-27T12:14:20Z</time>
      </trkpt>
      <trkpt lat="49.88624" lon="2.49906">
        <ele>64.1</ele>
        <time>2023-09-27T12:14:21Z</time>
      </trkpt>
      <trkpt lat="49.88623" lon="2.49906">
        <ele>64</ele>
        <time>2023-09-27T12:14:22Z</time>
      </trkpt>
      <trkpt lat="49.88621" lon="2.49905">
        <ele>63.9</ele>
        <time>2023-09-27T12:14:23Z</time>
      </trkpt>
      <trkpt lat="49.88621" lon="2.49904">
        <ele>63.9</ele>
        <time>2023-09-27T12:14:24Z</time>
      </trkpt>
      <trkpt lat="49.8862" lon="2.49904">
        <ele>63.9</ele>
        <time>2023-09-27T12:14:25Z</time>
      </trkpt>
      <trkpt lat="49.88618" lon="2.49903">
        <ele>63.8</ele>
        <time>2023-09-27T12:14:26Z</time>
      </trkpt>
      <trkpt lat="49.88617" lon="2.49903">
        <ele>63.7</ele>
        <time>2023-09-27T12:14:27Z</time>
      </trkpt>
      <trkpt lat="49.88616" lon="2.49902">
        <ele>63.7</ele>
        <time>2023-09-27T12:14:28Z</time>
      </trkpt>
      <trkpt lat="49.88615" lon="2.49902">
        <ele>63.6</ele>
        <time>2023-09-27T12:14:29Z</time>
      </trkpt>
      <trkpt lat="49.88614" lon="2.49901">
        <ele>63.5</ele>
        <time>2023-09-27T12:14:30Z</time>
      </trkpt>
      <trkpt lat="49.88613" lon="2.49901">
        <ele>63.5</ele>
        <time>2023-09-27T12:14:31Z</time>
      </trkpt>
      <trkpt lat="49.88612" lon="2.499">
        <ele>63.4</ele>
        <time>2023-09-27T12:14:32Z</time>
      </trkpt>
      <trkpt lat="49.88611" lon="2.499">
        <ele>63.3</ele>
        <time>2023-09-27T12:14:33Z</time>
      </trkpt>
      <trkpt lat="49.8861" lon="2.49899">
        <ele>63.3</ele>
        <time>2023-09-27T12:14:34Z</time>
      </trkpt>
      <trkpt lat="49.88609" lon="2.49899">
        <ele>63.2</ele>
        <time>2023-09-27T12:14:35Z</time>
      </trkpt>
      <trkpt lat="49.88608" lon="2.49898">
        <ele>63.2</ele>
        <time>2023-09-27T12:14:36Z</time>
      </trkpt>
      <trkpt lat="49.88607" lon="2.49897">
        <ele>63.1</ele>
        <time>2023-09-27T12:14:37Z</time>
      </trkpt>
      <trkpt lat="49.88606" lon="2.49897">
        <ele>63</ele>
        <time>2023-09-27T12:14:38Z</time>
      </trkpt>
      <trkpt lat="49.88605" lon="2.49896">
        <ele>63</ele>
        <time>2023-09-27T12:14:39Z</time>
      </trkpt>
      <trkpt lat="49.88603" lon="2.49896">
        <ele>62.9</ele>
        <time>2023-09-27T12:14:40Z</time>
      </trkpt>
      <trkpt lat="49.88602" lon="2.49895">
        <ele>62.9</ele>
        <time>2023-09-27T12:14:41Z</time>
      </trkpt>
      <trkpt lat="49.88601" lon="2.49895">
        <ele>62.8</ele>
        <time>2023-09-27T12:14:42Z</time>
      </trkpt>
      <trkpt lat="49.886" lon="2.49894">
        <ele>62.7</ele>
        <time>2023-09-27T12:14:43Z</time>
      </trkpt>
      <trkpt lat="49.88599" lon="2.49894">
        <ele>62.7</ele>
        <time>2023-09-27T12:14:44Z</time>
      </trkpt>
      <trkpt lat="49.88598" lon="2.49894">
        <ele>62.6</ele>
        <time>2023-09-27T12:14:45Z</time>
      </trkpt>
      <trkpt lat="49.88597" lon="2.49893">
        <ele>62.5</ele>
        <time>2023-09-27T12:14:46Z</time>
      </trkpt>
      <trkpt lat="49.88595" lon="2.49892">
        <ele>62.5</ele>
        <time>2023-09-27T12:14:47Z</time>
      </trkpt>
      <trkpt lat="49.88594" lon="2.49892">
        <ele>62.4</ele>
        <time>2023-09-27T12:14:48Z</time>
      </trkpt>
      <trkpt lat="49.88593" lon="2.49892">
        <ele>62.3</ele>
        <time>2023-09-27T12:14:49Z</time>
      </trkpt>
      <trkpt lat="49.88592" lon="2.49891">
        <ele>62.3</ele>
        <time>2023-09-27T12:14:50Z</time>
      </trkpt>
      <trkpt lat="49.88591" lon="2.49891">
        <ele>62.2</ele>
        <time>2023-09-27T12:14:51Z</time>
      </trkpt>
      <trkpt lat="49.8859" lon="2.49891">
        <ele>62.2</ele>
        <time>2023-09-27T12:14:52Z</time>
      </trkpt>
      <trkpt lat="49.88589" lon="2.4989">
        <ele>62.1</ele>
        <time>2023-09-27T12:14:53Z</time>
      </trkpt>
      <trkpt lat="49.88588" lon="2.4989">
        <ele>62</ele>
        <time>2023-09-27T12:14:54Z</time>
      </trkpt>
      <trkpt lat="49.88587" lon="2.49889">
        <ele>62</ele>
        <time>2023-09-27T12:14:55Z</time>
      </trkpt>
      <trkpt lat="49.88586" lon="2.49889">
        <ele>61.9</ele>
        <time>2023-09-27T12:14:56Z</time>
      </trkpt>
      <trkpt lat="49.88585" lon="2.49889">
        <ele>61.8</ele>
        <time>2023-09-27T12:14:57Z</time>
      </trkpt>
      <trkpt lat="49.88584" lon="2.49888">
        <ele>61.8</ele>
        <time>2023-09-27T12:14:58Z</time>
      </trkpt>
      <trkpt lat="49.88583" lon="2.49888">
        <ele>61.7</ele>
        <time>2023-09-27T12:14:59Z</time>
      </trkpt>
      <trkpt lat="49.88581" lon="2.49887">
        <ele>61.6</ele>
        <time>2023-09-27T12:15:00Z</time>
      </trkpt>
      <trkpt lat="49.8858" lon="2.49887">
        <ele>61.5</ele>
        <time>2023-09-27T12:15:01Z</time>
      </trkpt>
      <trkpt lat="49.88578" lon="2.49886">
        <ele>61.4</ele>
        <time>2023-09-27T12:15:02Z</time>
      </trkpt>
      <trkpt lat="49.88578" lon="2.49886">
        <ele>61.4</ele>
        <time>2023-09-27T12:15:03Z</time>
      </trkpt>
      <trkpt lat="49.88577" lon="2.49886">
        <ele>61.3</ele>
        <time>2023-09-27T12:15:04Z</time>
      </trkpt>
      <trkpt lat="49.88576" lon="2.49885">
        <ele>61.2</ele>
        <time>2023-09-27T12:15:05Z</time>
      </trkpt>
      <trkpt lat="49.88574" lon="2.49885">
        <ele>61.2</ele>
        <time>2023-09-27T12:15:06Z</time>
      </trkpt>
      <trkpt lat="49.88573" lon="2.49884">
        <ele>61.1</ele>
        <time>2023-09-27T12:15:07Z</time>
      </trkpt>
      <trkpt lat="49.88572" lon="2.49884">
        <ele>61</ele>
        <time>2023-09-27T12:15:08Z</time>
      </trkpt>
      <trkpt lat="49.88571" lon="2.49883">
        <ele>61</ele>
        <time>2023-09-27T12:15:09Z</time>
      </trkpt>
      <trkpt lat="49.8857" lon="2.49883">
        <ele>60.9</ele>
        <time>2023-09-27T12:15:10Z</time>
      </trkpt>
      <trkpt lat="49.88569" lon="2.49883">
        <ele>60.8</ele>
        <time>2023-09-27T12:15:11Z</time>
      </trkpt>
      <trkpt lat="49.88568" lon="2.49882">
        <ele>60.8</ele>
        <time>2023-09-27T12:15:12Z</time>
      </trkpt>
      <trkpt lat="49.88567" lon="2.49882">
        <ele>60.7</ele>
        <time>2023-09-27T12:15:13Z</time>
      </trkpt>
      <trkpt lat="49.88565" lon="2.49881">
        <ele>60.5</ele>
        <time>2023-09-27T12:15:14Z</time>
      </trkpt>
      <trkpt lat="49.88564" lon="2.49881">
        <ele>60.5</ele>
        <time>2023-09-27T12:15:15Z</time>
      </trkpt>
      <trkpt lat="49.88563" lon="2.4988">
        <ele>60.4</ele>
        <time>2023-09-27T12:15:16Z</time>
      </trkpt>
      <trkpt lat="49.88562" lon="2.49879">
        <ele>60.4</ele>
        <time>2023-09-27T12:15:17Z</time>
      </trkpt>
      <trkpt lat="49.88561" lon="2.49879">
        <ele>60.3</ele>
        <time>2023-09-27T12:15:18Z</time>
      </trkpt>
      <trkpt lat="49.8856" lon="2.49878">
        <ele>60.2</ele>
        <time>2023-09-27T12:15:19Z</time>
      </trkpt>
      <trkpt lat="49.88559" lon="2.49877">
        <ele>60.1</ele>
        <time>2023-09-27T12:15:20Z</time>
      </trkpt>
      <trkpt lat="49.88558" lon="2.49877">
        <ele>60.1</ele>
        <time>2023-09-27T12:15:21Z</time>
      </trkpt>
      <trkpt lat="49.88557" lon="2.49876">
        <ele>60</ele>
        <time>2023-09-27T12:15:22Z</time>
      </trkpt>
      <trkpt lat="49.88555" lon="2.49876">
        <ele>59.9</ele>
        <time>2023-09-27T12:15:23Z</time>
      </trkpt>
      <trkpt lat="49.88554" lon="2.49875">
        <ele>59.8</ele>
        <time>2023-09-27T12:15:24Z</time>
      </trkpt>
      <trkpt lat="49.88553" lon="2.49875">
        <ele>59.8</ele>
        <time>2023-09-27T12:15:25Z</time>
      </trkpt>
      <trkpt lat="49.88552" lon="2.49875">
        <ele>59.7</ele>
        <time>2023-09-27T12:15:26Z</time>
      </trkpt>
      <trkpt lat="49.88551" lon="2.49875">
        <ele>59.6</ele>
        <time>2023-09-27T12:15:27Z</time>
      </trkpt>
      <trkpt lat="49.88549" lon="2.49874">
        <ele>59.5</ele>
        <time>2023-09-27T12:15:28Z</time>
      </trkpt>
      <trkpt lat="49.88548" lon="2.49874">
        <ele>59.5</ele>
        <time>2023-09-27T12:15:29Z</time>
      </trkpt>
      <trkpt lat="49.88547" lon="2.49874">
        <ele>59.4</ele>
        <time>2023-09-27T12:15:30Z</time>
      </trkpt>
      <trkpt lat="49.88546" lon="2.49873">
        <ele>59.3</ele>
        <time>2023-09-27T12:15:31Z</time>
      </trkpt>
      <trkpt lat="49.88545" lon="2.49873">
        <ele>59.3</ele>
        <time>2023-09-27T12:15:32Z</time>
      </trkpt>
      <trkpt lat="49.88544" lon="2.49873">
        <ele>59.2</ele>
        <time>2023-09-27T12:15:33Z</time>
      </trkpt>
      <trkpt lat="49.88543" lon="2.49872">
        <ele>59.1</ele>
        <time>2023-09-27T12:15:34Z</time>
      </trkpt>
      <trkpt lat="49.88542" lon="2.49872">
        <ele>59</ele>
        <time>2023-09-27T12:15:35Z</time>
      </trkpt>
      <trkpt lat="49.88541" lon="2.49872">
        <ele>59</ele>
        <time>2023-09-27T12:15:36Z</time>
      </trkpt>
      <trkpt lat="49.8854" lon="2.49872">
        <ele>58.9</ele>
        <time>2023-09-27T12:15:37Z</time>
      </trkpt>
      <trkpt lat="49.88539" lon="2.49871">
        <ele>58.8</ele>
        <time>2023-09-27T12:15:38Z</time>
      </trkpt>
      <trkpt lat="49.88538" lon="2.49871">
        <ele>58.7</ele>
        <time>2023-09-27T12:15:39Z</time>
      </trkpt>
      <trkpt lat="49.88537" lon="2.4987">
        <ele>58.7</ele>
        <time>2023-09-27T12:15:40Z</time>
      </trkpt>
      <trkpt lat="49.88536" lon="2.4987">
        <ele>58.6</ele>
        <time>2023-09-27T12:15:41Z</time>
      </trkpt>
      <trkpt lat="49.88535" lon="2.4987">
        <ele>58.5</ele>
        <time>2023-09-27T12:15:42Z</time>
      </trkpt>
      <trkpt lat="49.88533" lon="2.49869">
        <ele>58.4</ele>
        <time>2023-09-27T12:15:43Z</time>
      </trkpt>
      <trkpt lat="49.88532" lon="2.49869">
        <ele>58.4</ele>
        <time>2023-09-27T12:15:44Z</time>
      </trkpt>
      <trkpt lat="49.88532" lon="2.49869">
        <ele>58.3</ele>
        <time>2023-09-27T12:15:45Z</time>
      </trkpt>
      <trkpt lat="49.88531" lon="2.49868">
        <ele>58.2</ele>
        <time>2023-09-27T12:15:46Z</time>
      </trkpt>
      <trkpt lat="49.88529" lon="2.49868">
        <ele>58.2</ele>
        <time>2023-09-27T12:15:47Z</time>
      </trkpt>
      <trkpt lat="49.88528" lon="2.49867">
        <ele>58.1</ele>
        <time>2023-09-27T12:15:48Z</time>
      </trkpt>
      <trkpt lat="49.88527" lon="2.49867">
        <ele>58</ele>
        <time>2023-09-27T12:15:49Z</time>
      </trkpt>
      <trkpt lat="49.88526" lon="2.49867">
        <ele>57.9</ele>
        <time>2023-09-27T12:15:50Z</time>
      </trkpt>
      <trkpt lat="49.88525" lon="2.49866">
        <ele>57.8</ele>
        <time>2023-09-27T12:15:51Z</time>
      </trkpt>
      <trkpt lat="49.88524" lon="2.49866">
        <ele>57.8</ele>
        <time>2023-09-27T12:15:52Z</time>
      </trkpt>
      <trkpt lat="49.88522" lon="2.49865">
        <ele>57.6</ele>
        <time>2023-09-27T12:15:53Z</time>
      </trkpt>
      <trkpt lat="49.88521" lon="2.49864">
        <ele>57.6</ele>
        <time>2023-09-27T12:15:54Z</time>
      </trkpt>
      <trkpt lat="49.8852" lon="2.49864">
        <ele>57.5</ele>
        <time>2023-09-27T12:15:55Z</time>
      </trkpt>
      <trkpt lat="49.88518" lon="2.49863">
        <ele>57.4</ele>
        <time>2023-09-27T12:15:56Z</time>
      </trkpt>
      <trkpt lat="49.88517" lon="2.49863">
        <ele>57.3</ele>
        <time>2023-09-27T12:15:57Z</time>
      </trkpt>
      <trkpt lat="49.88516" lon="2.49863">
        <ele>57.2</ele>
        <time>2023-09-27T12:15:58Z</time>
      </trkpt>
      <trkpt lat="49.88515" lon="2.49862">
        <ele>57.1</ele>
        <time>2023-09-27T12:15:59Z</time>
      </trkpt>
      <trkpt lat="49.88514" lon="2.49861">
        <ele>57.1</ele>
        <time>2023-09-27T12:16:00Z</time>
      </trkpt>
      <trkpt lat="49.88512" lon="2.4986">
        <ele>56.9</ele>
        <time>2023-09-27T12:16:01Z</time>
      </trkpt>
      <trkpt lat="49.88511" lon="2.4986">
        <ele>56.8</ele>
        <time>2023-09-27T12:16:02Z</time>
      </trkpt>
      <trkpt lat="49.8851" lon="2.49859">
        <ele>56.8</ele>
        <time>2023-09-27T12:16:03Z</time>
      </trkpt>
      <trkpt lat="49.88508" lon="2.49859">
        <ele>56.7</ele>
        <time>2023-09-27T12:16:04Z</time>
      </trkpt>
      <trkpt lat="49.88507" lon="2.49858">
        <ele>56.6</ele>
        <time>2023-09-27T12:16:05Z</time>
      </trkpt>
      <trkpt lat="49.88507" lon="2.49858">
        <ele>56.6</ele>
        <time>2023-09-27T12:16:06Z</time>
      </trkpt>
      <trkpt lat="49.88505" lon="2.49857">
        <ele>56.4</ele>
        <time>2023-09-27T12:16:07Z</time>
      </trkpt>
      <trkpt lat="49.88504" lon="2.49856">
        <ele>56.4</ele>
        <time>2023-09-27T12:16:08Z</time>
      </trkpt>
      <trkpt lat="49.88503" lon="2.49856">
        <ele>56.3</ele>
        <time>2023-09-27T12:16:09Z</time>
      </trkpt>
      <trkpt lat="49.88501" lon="2.49855">
        <ele>56.2</ele>
        <time>2023-09-27T12:16:10Z</time>
      </trkpt>
      <trkpt lat="49.885" lon="2.49855">
        <ele>56.1</ele>
        <time>2023-09-27T12:16:11Z</time>
      </trkpt>
      <trkpt lat="49.88499" lon="2.49855">
        <ele>56.1</ele>
        <time>2023-09-27T12:16:12Z</time>
      </trkpt>
      <trkpt lat="49.88498" lon="2.49854">
        <ele>56</ele>
        <time>2023-09-27T12:16:13Z</time>
      </trkpt>
      <trkpt lat="49.88497" lon="2.49854">
        <ele>55.9</ele>
        <time>2023-09-27T12:16:14Z</time>
      </trkpt>
      <trkpt lat="49.88496" lon="2.49854">
        <ele>55.8</ele>
        <time>2023-09-27T12:16:15Z</time>
      </trkpt>
      <trkpt lat="49.88495" lon="2.49853">
        <ele>55.8</ele>
        <time>2023-09-27T12:16:16Z</time>
      </trkpt>
      <trkpt lat="49.88494" lon="2.49853">
        <ele>55.7</ele>
        <time>2023-09-27T12:16:17Z</time>
      </trkpt>
      <trkpt lat="49.88493" lon="2.49852">
        <ele>55.6</ele>
        <time>2023-09-27T12:16:18Z</time>
      </trkpt>
      <trkpt lat="49.88492" lon="2.49852">
        <ele>55.6</ele>
        <time>2023-09-27T12:16:19Z</time>
      </trkpt>
      <trkpt lat="49.88491" lon="2.49852">
        <ele>55.5</ele>
        <time>2023-09-27T12:16:20Z</time>
      </trkpt>
      <trkpt lat="49.8849" lon="2.49851">
        <ele>55.4</ele>
        <time>2023-09-27T12:16:21Z</time>
      </trkpt>
      <trkpt lat="49.88489" lon="2.49851">
        <ele>55.4</ele>
        <time>2023-09-27T12:16:22Z</time>
      </trkpt>
      <trkpt lat="49.88488" lon="2.4985">
        <ele>55.3</ele>
        <time>2023-09-27T12:16:23Z</time>
      </trkpt>
      <trkpt lat="49.88486" lon="2.4985">
        <ele>55.2</ele>
        <time>2023-09-27T12:16:24Z</time>
      </trkpt>
      <trkpt lat="49.88485" lon="2.49849">
        <ele>55.1</ele>
        <time>2023-09-27T12:16:25Z</time>
      </trkpt>
      <trkpt lat="49.88484" lon="2.49849">
        <ele>55</ele>
        <time>2023-09-27T12:16:26Z</time>
      </trkpt>
      <trkpt lat="49.88483" lon="2.49849">
        <ele>55</ele>
        <time>2023-09-27T12:16:27Z</time>
      </trkpt>
      <trkpt lat="49.88482" lon="2.49849">
        <ele>54.9</ele>
        <time>2023-09-27T12:16:28Z</time>
      </trkpt>
      <trkpt lat="49.88481" lon="2.49848">
        <ele>54.8</ele>
        <time>2023-09-27T12:16:29Z</time>
      </trkpt>
      <trkpt lat="49.8848" lon="2.49848">
        <ele>54.8</ele>
        <time>2023-09-27T12:16:30Z</time>
      </trkpt>
      <trkpt lat="49.88478" lon="2.49847">
        <ele>54.6</ele>
        <time>2023-09-27T12:16:31Z</time>
      </trkpt>
      <trkpt lat="49.88477" lon="2.49847">
        <ele>54.6</ele>
        <time>2023-09-27T12:16:32Z</time>
      </trkpt>
      <trkpt lat="49.88476" lon="2.49847">
        <ele>54.5</ele>
        <time>2023-09-27T12:16:33Z</time>
      </trkpt>
      <trkpt lat="49.88475" lon="2.49847">
        <ele>54.5</ele>
        <time>2023-09-27T12:16:34Z</time>
      </trkpt>
      <trkpt lat="49.88474" lon="2.49846">
        <ele>54.4</ele>
        <time>2023-09-27T12:16:35Z</time>
      </trkpt>
      <trkpt lat="49.88473" lon="2.49846">
        <ele>54.3</ele>
        <time>2023-09-27T12:16:36Z</time>
      </trkpt>
      <trkpt lat="49.88471" lon="2.49846">
        <ele>54.3</ele>
        <time>2023-09-27T12:16:37Z</time>
      </trkpt>
      <trkpt lat="49.8847" lon="2.49846">
        <ele>54.2</ele>
        <time>2023-09-27T12:16:38Z</time>
      </trkpt>
      <trkpt lat="49.88469" lon="2.49845">
        <ele>54.1</ele>
        <time>2023-09-27T12:16:39Z</time>
      </trkpt>
      <trkpt lat="49.88467" lon="2.49845">
        <ele>54</ele>
        <time>2023-09-27T12:16:40Z</time>
      </trkpt>
      <trkpt lat="49.88466" lon="2.49844">
        <ele>54</ele>
        <time>2023-09-27T12:16:41Z</time>
      </trkpt>
      <trkpt lat="49.88465" lon="2.49844">
        <ele>53.9</ele>
        <time>2023-09-27T12:16:42Z</time>
      </trkpt>
      <trkpt lat="49.88463" lon="2.49843">
        <ele>53.8</ele>
        <time>2023-09-27T12:16:43Z</time>
      </trkpt>
      <trkpt lat="49.88462" lon="2.49843">
        <ele>53.8</ele>
        <time>2023-09-27T12:16:44Z</time>
      </trkpt>
      <trkpt lat="49.88461" lon="2.49843">
        <ele>53.7</ele>
        <time>2023-09-27T12:16:45Z</time>
      </trkpt>
      <trkpt lat="49.88459" lon="2.49842">
        <ele>53.6</ele>
        <time>2023-09-27T12:16:46Z</time>
      </trkpt>
      <trkpt lat="49.88459" lon="2.49842">
        <ele>53.6</ele>
        <time>2023-09-27T12:16:47Z</time>
      </trkpt>
      <trkpt lat="49.88458" lon="2.49841">
        <ele>53.5</ele>
        <time>2023-09-27T12:16:48Z</time>
      </trkpt>
      <trkpt lat="49.88456" lon="2.49841">
        <ele>53.4</ele>
        <time>2023-09-27T12:16:49Z</time>
      </trkpt>
      <trkpt lat="49.88455" lon="2.4984">
        <ele>53.4</ele>
        <time>2023-09-27T12:16:50Z</time>
      </trkpt>
      <trkpt lat="49.88454" lon="2.4984">
        <ele>53.3</ele>
        <time>2023-09-27T12:16:51Z</time>
      </trkpt>
      <trkpt lat="49.88453" lon="2.4984">
        <ele>53.3</ele>
        <time>2023-09-27T12:16:52Z</time>
      </trkpt>
      <trkpt lat="49.88452" lon="2.4984">
        <ele>53.2</ele>
        <time>2023-09-27T12:16:53Z</time>
      </trkpt>
      <trkpt lat="49.88451" lon="2.49839">
        <ele>53.2</ele>
        <time>2023-09-27T12:16:54Z</time>
      </trkpt>
      <trkpt lat="49.8845" lon="2.49839">
        <ele>53.1</ele>
        <time>2023-09-27T12:16:55Z</time>
      </trkpt>
      <trkpt lat="49.88449" lon="2.49839">
        <ele>53.1</ele>
        <time>2023-09-27T12:16:56Z</time>
      </trkpt>
      <trkpt lat="49.88448" lon="2.49838">
        <ele>53</ele>
        <time>2023-09-27T12:16:57Z</time>
      </trkpt>
      <trkpt lat="49.88446" lon="2.49837">
        <ele>52.9</ele>
        <time>2023-09-27T12:16:58Z</time>
      </trkpt>
      <trkpt lat="49.88445" lon="2.49837">
        <ele>52.9</ele>
        <time>2023-09-27T12:16:59Z</time>
      </trkpt>
      <trkpt lat="49.88444" lon="2.49837">
        <ele>52.8</ele>
        <time>2023-09-27T12:17:00Z</time>
      </trkpt>
      <trkpt lat="49.88442" lon="2.49836">
        <ele>52.7</ele>
        <time>2023-09-27T12:17:01Z</time>
      </trkpt>
      <trkpt lat="49.88441" lon="2.49835">
        <ele>52.7</ele>
        <time>2023-09-27T12:17:02Z</time>
      </trkpt>
      <trkpt lat="49.88441" lon="2.49835">
        <ele>52.7</ele>
        <time>2023-09-27T12:17:03Z</time>
      </trkpt>
      <trkpt lat="49.88439" lon="2.49834">
        <ele>52.6</ele>
        <time>2023-09-27T12:17:04Z</time>
      </trkpt>
      <trkpt lat="49.88438" lon="2.49834">
        <ele>52.6</ele>
        <time>2023-09-27T12:17:05Z</time>
      </trkpt>
      <trkpt lat="49.88437" lon="2.49833">
        <ele>52.5</ele>
        <time>2023-09-27T12:17:06Z</time>
      </trkpt>
      <trkpt lat="49.88436" lon="2.49833">
        <ele>52.5</ele>
        <time>2023-09-27T12:17:07Z</time>
      </trkpt>
      <trkpt lat="49.88435" lon="2.49832">
        <ele>52.4</ele>
        <time>2023-09-27T12:17:08Z</time>
      </trkpt>
      <trkpt lat="49.88434" lon="2.49832">
        <ele>52.4</ele>
        <time>2023-09-27T12:17:09Z</time>
      </trkpt>
      <trkpt lat="49.88433" lon="2.49832">
        <ele>52.3</ele>
        <time>2023-09-27T12:17:10Z</time>
      </trkpt>
      <trkpt lat="49.88432" lon="2.49831">
        <ele>52.3</ele>
        <time>2023-09-27T12:17:11Z</time>
      </trkpt>
      <trkpt lat="49.88431" lon="2.49831">
        <ele>52.2</ele>
        <time>2023-09-27T12:17:12Z</time>
      </trkpt>
      <trkpt lat="49.8843" lon="2.4983">
        <ele>52.2</ele>
        <time>2023-09-27T12:17:13Z</time>
      </trkpt>
      <trkpt lat="49.88429" lon="2.4983">
        <ele>52.1</ele>
        <time>2023-09-27T12:17:14Z</time>
      </trkpt>
      <trkpt lat="49.88428" lon="2.4983">
        <ele>52.1</ele>
        <time>2023-09-27T12:17:15Z</time>
      </trkpt>
      <trkpt lat="49.88427" lon="2.49829">
        <ele>52</ele>
        <time>2023-09-27T12:17:16Z</time>
      </trkpt>
      <trkpt lat="49.88425" lon="2.49829">
        <ele>52</ele>
        <time>2023-09-27T12:17:17Z</time>
      </trkpt>
      <trkpt lat="49.88424" lon="2.49829">
        <ele>51.9</ele>
        <time>2023-09-27T12:17:18Z</time>
      </trkpt>
      <trkpt lat="49.88423" lon="2.49829">
        <ele>51.9</ele>
        <time>2023-09-27T12:17:19Z</time>
      </trkpt>
      <trkpt lat="49.88422" lon="2.49829">
        <ele>51.8</ele>
        <time>2023-09-27T12:17:20Z</time>
      </trkpt>
      <trkpt lat="49.88421" lon="2.49828">
        <ele>51.8</ele>
        <time>2023-09-27T12:17:21Z</time>
      </trkpt>
      <trkpt lat="49.8842" lon="2.49828">
        <ele>51.7</ele>
        <time>2023-09-27T12:17:22Z</time>
      </trkpt>
      <trkpt lat="49.88419" lon="2.49828">
        <ele>51.7</ele>
        <time>2023-09-27T12:17:23Z</time>
      </trkpt>
      <trkpt lat="49.88418" lon="2.49828">
        <ele>51.6</ele>
        <time>2023-09-27T12:17:24Z</time>
      </trkpt>
      <trkpt lat="49.88417" lon="2.49827">
        <ele>51.6</ele>
        <time>2023-09-27T12:17:25Z</time>
      </trkpt>
      <trkpt lat="49.88416" lon="2.49827">
        <ele>51.5</ele>
        <time>2023-09-27T12:17:26Z</time>
      </trkpt>
      <trkpt lat="49.88415" lon="2.49827">
        <ele>51.5</ele>
        <time>2023-09-27T12:17:27Z</time>
      </trkpt>
      <trkpt lat="49.88413" lon="2.49826">
        <ele>51.4</ele>
        <time>2023-09-27T12:17:28Z</time>
      </trkpt>
      <trkpt lat="49.88412" lon="2.49826">
        <ele>51.4</ele>
        <time>2023-09-27T12:17:29Z</time>
      </trkpt>
      <trkpt lat="49.88411" lon="2.49826">
        <ele>51.3</ele>
        <time>2023-09-27T12:17:30Z</time>
      </trkpt>
      <trkpt lat="49.8841" lon="2.49825">
        <ele>51.3</ele>
        <time>2023-09-27T12:17:31Z</time>
      </trkpt>
      <trkpt lat="49.88409" lon="2.49825">
        <ele>51.2</ele>
        <time>2023-09-27T12:17:32Z</time>
      </trkpt>
      <trkpt lat="49.88408" lon="2.49824">
        <ele>51.2</ele>
        <time>2023-09-27T12:17:33Z</time>
      </trkpt>
      <trkpt lat="49.88407" lon="2.49824">
        <ele>51.1</ele>
        <time>2023-09-27T12:17:34Z</time>
      </trkpt>
      <trkpt lat="49.88406" lon="2.49823">
        <ele>51.1</ele>
        <time>2023-09-27T12:17:35Z</time>
      </trkpt>
      <trkpt lat="49.88405" lon="2.49823">
        <ele>51</ele>
        <time>2023-09-27T12:17:36Z</time>
      </trkpt>
      <trkpt lat="49.88404" lon="2.49823">
        <ele>51</ele>
        <time>2023-09-27T12:17:37Z</time>
      </trkpt>
      <trkpt lat="49.88403" lon="2.49822">
        <ele>50.9</ele>
        <time>2023-09-27T12:17:38Z</time>
      </trkpt>
      <trkpt lat="49.88401" lon="2.49822">
        <ele>50.9</ele>
        <time>2023-09-27T12:17:39Z</time>
      </trkpt>
      <trkpt lat="49.88399" lon="2.49821">
        <ele>50.8</ele>
        <time>2023-09-27T12:17:40Z</time>
      </trkpt>
      <trkpt lat="49.88399" lon="2.49821">
        <ele>50.8</ele>
        <time>2023-09-27T12:17:41Z</time>
      </trkpt>
      <trkpt lat="49.88398" lon="2.49821">
        <ele>50.7</ele>
        <time>2023-09-27T12:17:42Z</time>
      </trkpt>
      <trkpt lat="49.88396" lon="2.4982">
        <ele>50.6</ele>
        <time>2023-09-27T12:17:43Z</time>
      </trkpt>
      <trkpt lat="49.88395" lon="2.4982">
        <ele>50.6</ele>
        <time>2023-09-27T12:17:44Z</time>
      </trkpt>
      <trkpt lat="49.88394" lon="2.4982">
        <ele>50.6</ele>
        <time>2023-09-27T12:17:45Z</time>
      </trkpt>
      <trkpt lat="49.88393" lon="2.49819">
        <ele>50.5</ele>
        <time>2023-09-27T12:17:46Z</time>
      </trkpt>
      <trkpt lat="49.88391" lon="2.49819">
        <ele>50.5</ele>
        <time>2023-09-27T12:17:47Z</time>
      </trkpt>
      <trkpt lat="49.8839" lon="2.49819">
        <ele>50.4</ele>
        <time>2023-09-27T12:17:48Z</time>
      </trkpt>
      <trkpt lat="49.88389" lon="2.49818">
        <ele>50.4</ele>
        <time>2023-09-27T12:17:49Z</time>
      </trkpt>
      <trkpt lat="49.88388" lon="2.49818">
        <ele>50.3</ele>
        <time>2023-09-27T12:17:50Z</time>
      </trkpt>
      <trkpt lat="49.88386" lon="2.49818">
        <ele>50.3</ele>
        <time>2023-09-27T12:17:51Z</time>
      </trkpt>
      <trkpt lat="49.88385" lon="2.49818">
        <ele>50.2</ele>
        <time>2023-09-27T12:17:52Z</time>
      </trkpt>
      <trkpt lat="49.88384" lon="2.49818">
        <ele>50.2</ele>
        <time>2023-09-27T12:17:53Z</time>
      </trkpt>
      <trkpt lat="49.88382" lon="2.49817">
        <ele>50.1</ele>
        <time>2023-09-27T12:17:54Z</time>
      </trkpt>
      <trkpt lat="49.88381" lon="2.49817">
        <ele>50.1</ele>
        <time>2023-09-27T12:17:55Z</time>
      </trkpt>
      <trkpt lat="49.8838" lon="2.49816">
        <ele>50</ele>
        <time>2023-09-27T12:17:56Z</time>
      </trkpt>
      <trkpt lat="49.88378" lon="2.49815">
        <ele>50</ele>
        <time>2023-09-27T12:17:57Z</time>
      </trkpt>
      <trkpt lat="49.88377" lon="2.49815">
        <ele>49.9</ele>
        <time>2023-09-27T12:17:58Z</time>
      </trkpt>
      <trkpt lat="49.88377" lon="2.49815">
        <ele>49.9</ele>
        <time>2023-09-27T12:17:59Z</time>
      </trkpt>
      <trkpt lat="49.88375" lon="2.49815">
        <ele>49.9</ele>
        <time>2023-09-27T12:18:00Z</time>
      </trkpt>
      <trkpt lat="49.88374" lon="2.49814">
        <ele>49.8</ele>
        <time>2023-09-27T12:18:01Z</time>
      </trkpt>
      <trkpt lat="49.88373" lon="2.49814">
        <ele>49.8</ele>
        <time>2023-09-27T12:18:02Z</time>
      </trkpt>
      <trkpt lat="49.88372" lon="2.49814">
        <ele>49.7</ele>
        <time>2023-09-27T12:18:03Z</time>
      </trkpt>
      <trkpt lat="49.88371" lon="2.49814">
        <ele>49.7</ele>
        <time>2023-09-27T12:18:04Z</time>
      </trkpt>
      <trkpt lat="49.8837" lon="2.49814">
        <ele>49.7</ele>
        <time>2023-09-27T12:18:05Z</time>
      </trkpt>
      <trkpt lat="49.88369" lon="2.49813">
        <ele>49.6</ele>
        <time>2023-09-27T12:18:06Z</time>
      </trkpt>
      <trkpt lat="49.88368" lon="2.49813">
        <ele>49.6</ele>
        <time>2023-09-27T12:18:07Z</time>
      </trkpt>
      <trkpt lat="49.88367" lon="2.49813">
        <ele>49.5</ele>
        <time>2023-09-27T12:18:08Z</time>
      </trkpt>
      <trkpt lat="49.88365" lon="2.49812">
        <ele>49.4</ele>
        <time>2023-09-27T12:18:09Z</time>
      </trkpt>
      <trkpt lat="49.88364" lon="2.49812">
        <ele>49.4</ele>
        <time>2023-09-27T12:18:10Z</time>
      </trkpt>
      <trkpt lat="49.88363" lon="2.49812">
        <ele>49.4</ele>
        <time>2023-09-27T12:18:11Z</time>
      </trkpt>
      <trkpt lat="49.88361" lon="2.49811">
        <ele>49.3</ele>
        <time>2023-09-27T12:18:12Z</time>
      </trkpt>
      <trkpt lat="49.8836" lon="2.49811">
        <ele>49.3</ele>
        <time>2023-09-27T12:18:13Z</time>
      </trkpt>
      <trkpt lat="49.88359" lon="2.49811">
        <ele>49.2</ele>
        <time>2023-09-27T12:18:14Z</time>
      </trkpt>
      <trkpt lat="49.88358" lon="2.4981">
        <ele>49.2</ele>
        <time>2023-09-27T12:18:15Z</time>
      </trkpt>
      <trkpt lat="49.88357" lon="2.4981">
        <ele>49.1</ele>
        <time>2023-09-27T12:18:16Z</time>
      </trkpt>
      <trkpt lat="49.88356" lon="2.4981">
        <ele>49.1</ele>
        <time>2023-09-27T12:18:17Z</time>
      </trkpt>
      <trkpt lat="49.88355" lon="2.49809">
        <ele>49.1</ele>
        <time>2023-09-27T12:18:18Z</time>
      </trkpt>
      <trkpt lat="49.88354" lon="2.49809">
        <ele>49</ele>
        <time>2023-09-27T12:18:19Z</time>
      </trkpt>
      <trkpt lat="49.88353" lon="2.49809">
        <ele>49</ele>
        <time>2023-09-27T12:18:20Z</time>
      </trkpt>
      <trkpt lat="49.88352" lon="2.49808">
        <ele>48.9</ele>
        <time>2023-09-27T12:18:21Z</time>
      </trkpt>
      <trkpt lat="49.88351" lon="2.49808">
        <ele>48.9</ele>
        <time>2023-09-27T12:18:22Z</time>
      </trkpt>
      <trkpt lat="49.88349" lon="2.49808">
        <ele>48.8</ele>
        <time>2023-09-27T12:18:23Z</time>
      </trkpt>
      <trkpt lat="49.88347" lon="2.49807">
        <ele>48.7</ele>
        <time>2023-09-27T12:18:24Z</time>
      </trkpt>
      <trkpt lat="49.88346" lon="2.49807">
        <ele>48.7</ele>
        <time>2023-09-27T12:18:25Z</time>
      </trkpt>
      <trkpt lat="49.88346" lon="2.49807">
        <ele>48.7</ele>
        <time>2023-09-27T12:18:26Z</time>
      </trkpt>
      <trkpt lat="49.88344" lon="2.49807">
        <ele>48.6</ele>
        <time>2023-09-27T12:18:27Z</time>
      </trkpt>
      <trkpt lat="49.88343" lon="2.49807">
        <ele>48.6</ele>
        <time>2023-09-27T12:18:28Z</time>
      </trkpt>
      <trkpt lat="49.88342" lon="2.49807">
        <ele>48.6</ele>
        <time>2023-09-27T12:18:29Z</time>
      </trkpt>
      <trkpt lat="49.8834" lon="2.49806">
        <ele>48.5</ele>
        <time>2023-09-27T12:18:30Z</time>
      </trkpt>
      <trkpt lat="49.88339" lon="2.49806">
        <ele>48.4</ele>
        <time>2023-09-27T12:18:31Z</time>
      </trkpt>
      <trkpt lat="49.88338" lon="2.49805">
        <ele>48.4</ele>
        <time>2023-09-27T12:18:32Z</time>
      </trkpt>
      <trkpt lat="49.88336" lon="2.49805">
        <ele>48.3</ele>
        <time>2023-09-27T12:18:33Z</time>
      </trkpt>
      <trkpt lat="49.88335" lon="2.49804">
        <ele>48.3</ele>
        <time>2023-09-27T12:18:34Z</time>
      </trkpt>
      <trkpt lat="49.88334" lon="2.49804">
        <ele>48.3</ele>
        <time>2023-09-27T12:18:35Z</time>
      </trkpt>
      <trkpt lat="49.88333" lon="2.49803">
        <ele>48.3</ele>
        <time>2023-09-27T12:18:36Z</time>
      </trkpt>
      <trkpt lat="49.88332" lon="2.49803">
        <ele>48.2</ele>
        <time>2023-09-27T12:18:37Z</time>
      </trkpt>
      <trkpt lat="49.88331" lon="2.49802">
        <ele>48.2</ele>
        <time>2023-09-27T12:18:38Z</time>
      </trkpt>
      <trkpt lat="49.88329" lon="2.49801">
        <ele>48.1</ele>
        <time>2023-09-27T12:18:39Z</time>
      </trkpt>
      <trkpt lat="49.88328" lon="2.49801">
        <ele>48.1</ele>
        <time>2023-09-27T12:18:40Z</time>
      </trkpt>
      <trkpt lat="49.88327" lon="2.498">
        <ele>48.1</ele>
        <time>2023-09-27T12:18:41Z</time>
      </trkpt>
      <trkpt lat="49.88325" lon="2.49799">
        <ele>48</ele>
        <time>2023-09-27T12:18:42Z</time>
      </trkpt>
      <trkpt lat="49.88325" lon="2.49798">
        <ele>48</ele>
        <time>2023-09-27T12:18:43Z</time>
      </trkpt>
      <trkpt lat="49.88324" lon="2.49797">
        <ele>48</ele>
        <time>2023-09-27T12:18:44Z</time>
      </trkpt>
      <trkpt lat="49.88323" lon="2.49794">
        <ele>47.9</ele>
        <time>2023-09-27T12:18:45Z</time>
      </trkpt>
      <trkpt lat="49.88323" lon="2.49793">
        <ele>47.9</ele>
        <time>2023-09-27T12:18:46Z</time>
      </trkpt>
      <trkpt lat="49.88322" lon="2.49792">
        <ele>47.7</ele>
        <time>2023-09-27T12:18:47Z</time>
      </trkpt>
      <trkpt lat="49.88322" lon="2.49789">
        <ele>47.6</ele>
        <time>2023-09-27T12:18:48Z</time>
      </trkpt>
      <trkpt lat="49.88323" lon="2.49787">
        <ele>47.6</ele>
        <time>2023-09-27T12:18:49Z</time>
      </trkpt>
      <trkpt lat="49.88323" lon="2.49786">
        <ele>47.6</ele>
        <time>2023-09-27T12:18:50Z</time>
      </trkpt>
      <trkpt lat="49.88324" lon="2.49784">
        <ele>47.6</ele>
        <time>2023-09-27T12:18:51Z</time>
      </trkpt>
      <trkpt lat="49.88325" lon="2.49783">
        <ele>47.6</ele>
        <time>2023-09-27T12:18:52Z</time>
      </trkpt>
      <trkpt lat="49.88325" lon="2.49782">
        <ele>47.6</ele>
        <time>2023-09-27T12:18:53Z</time>
      </trkpt>
      <trkpt lat="49.88326" lon="2.49781">
        <ele>47.6</ele>
        <time>2023-09-27T12:18:54Z</time>
      </trkpt>
      <trkpt lat="49.88327" lon="2.4978">
        <ele>47.6</ele>
        <time>2023-09-27T12:18:55Z</time>
      </trkpt>
      <trkpt lat="49.88328" lon="2.4978">
        <ele>47.6</ele>
        <time>2023-09-27T12:18:56Z</time>
      </trkpt>
      <trkpt lat="49.88329" lon="2.49779">
        <ele>47.6</ele>
        <time>2023-09-27T12:18:57Z</time>
      </trkpt>
      <trkpt lat="49.8833" lon="2.49778">
        <ele>47.6</ele>
        <time>2023-09-27T12:18:58Z</time>
      </trkpt>
      <trkpt lat="49.88331" lon="2.49777">
        <ele>47.6</ele>
        <time>2023-09-27T12:18:59Z</time>
      </trkpt>
      <trkpt lat="49.88332" lon="2.49777">
        <ele>47.6</ele>
        <time>2023-09-27T12:19:00Z</time>
      </trkpt>
      <trkpt lat="49.88333" lon="2.49776">
        <ele>47.6</ele>
        <time>2023-09-27T12:19:01Z</time>
      </trkpt>
      <trkpt lat="49.88334" lon="2.49774">
        <ele>47.6</ele>
        <time>2023-09-27T12:19:02Z</time>
      </trkpt>
      <trkpt lat="49.88336" lon="2.49773">
        <ele>47.6</ele>
        <time>2023-09-27T12:19:03Z</time>
      </trkpt>
      <trkpt lat="49.88337" lon="2.49772">
        <ele>47.6</ele>
        <time>2023-09-27T12:19:04Z</time>
      </trkpt>
      <trkpt lat="49.88337" lon="2.49771">
        <ele>47.6</ele>
        <time>2023-09-27T12:19:05Z</time>
      </trkpt>
      <trkpt lat="49.88339" lon="2.49769">
        <ele>47.6</ele>
        <time>2023-09-27T12:19:06Z</time>
      </trkpt>
      <trkpt lat="49.8834" lon="2.49768">
        <ele>47.6</ele>
        <time>2023-09-27T12:19:07Z</time>
      </trkpt>
      <trkpt lat="49.8834" lon="2.49768">
        <ele>47.6</ele>
        <time>2023-09-27T12:19:08Z</time>
      </trkpt>
      <trkpt lat="49.88341" lon="2.49766">
        <ele>47.6</ele>
        <time>2023-09-27T12:19:09Z</time>
      </trkpt>
      <trkpt lat="49.88343" lon="2.49765">
        <ele>47.6</ele>
        <time>2023-09-27T12:19:10Z</time>
      </trkpt>
      <trkpt lat="49.88344" lon="2.49764">
        <ele>47.6</ele>
        <time>2023-09-27T12:19:11Z</time>
      </trkpt>
      <trkpt lat="49.88344" lon="2.49763">
        <ele>47.6</ele>
        <time>2023-09-27T12:19:12Z</time>
      </trkpt>
      <trkpt lat="49.88345" lon="2.49762">
        <ele>47.6</ele>
        <time>2023-09-27T12:19:13Z</time>
      </trkpt>
      <trkpt lat="49.88346" lon="2.49761">
        <ele>47.6</ele>
        <time>2023-09-27T12:19:14Z</time>
      </trkpt>
      <trkpt lat="49.88347" lon="2.4976">
        <ele>47.6</ele>
        <time>2023-09-27T12:19:15Z</time>
      </trkpt>
      <trkpt lat="49.88348" lon="2.49758">
        <ele>47.6</ele>
        <time>2023-09-27T12:19:16Z</time>
      </trkpt>
      <trkpt lat="49.8835" lon="2.49756">
        <ele>47.6</ele>
        <time>2023-09-27T12:19:17Z</time>
      </trkpt>
      <trkpt lat="49.8835" lon="2.49756">
        <ele>47.6</ele>
        <time>2023-09-27T12:19:18Z</time>
      </trkpt>
      <trkpt lat="49.88351" lon="2.49755">
        <ele>47.6</ele>
        <time>2023-09-27T12:19:19Z</time>
      </trkpt>
      <trkpt lat="49.88353" lon="2.49753">
        <ele>47.6</ele>
        <time>2023-09-27T12:19:20Z</time>
      </trkpt>
      <trkpt lat="49.88353" lon="2.49752">
        <ele>47.6</ele>
        <time>2023-09-27T12:19:21Z</time>
      </trkpt>
      <trkpt lat="49.88354" lon="2.49751">
        <ele>47.6</ele>
        <time>2023-09-27T12:19:22Z</time>
      </trkpt>
      <trkpt lat="49.88356" lon="2.49749">
        <ele>47.6</ele>
        <time>2023-09-27T12:19:23Z</time>
      </trkpt>
      <trkpt lat="49.88356" lon="2.49748">
        <ele>47.6</ele>
        <time>2023-09-27T12:19:24Z</time>
      </trkpt>
      <trkpt lat="49.88357" lon="2.49747">
        <ele>47.6</ele>
        <time>2023-09-27T12:19:25Z</time>
      </trkpt>
      <trkpt lat="49.88359" lon="2.49745">
        <ele>47.6</ele>
        <time>2023-09-27T12:19:26Z</time>
      </trkpt>
      <trkpt lat="49.88359" lon="2.49745">
        <ele>47.7</ele>
        <time>2023-09-27T12:19:27Z</time>
      </trkpt>
      <trkpt lat="49.8836" lon="2.49744">
        <ele>47.7</ele>
        <time>2023-09-27T12:19:28Z</time>
      </trkpt>
      <trkpt lat="49.88361" lon="2.49742">
        <ele>47.7</ele>
        <time>2023-09-27T12:19:29Z</time>
      </trkpt>
      <trkpt lat="49.88362" lon="2.49741">
        <ele>47.7</ele>
        <time>2023-09-27T12:19:30Z</time>
      </trkpt>
      <trkpt lat="49.88363" lon="2.4974">
        <ele>47.7</ele>
        <time>2023-09-27T12:19:31Z</time>
      </trkpt>
      <trkpt lat="49.88365" lon="2.49738">
        <ele>47.7</ele>
        <time>2023-09-27T12:19:32Z</time>
      </trkpt>
      <trkpt lat="49.88365" lon="2.49738">
        <ele>47.7</ele>
        <time>2023-09-27T12:19:33Z</time>
      </trkpt>
      <trkpt lat="49.88366" lon="2.49737">
        <ele>47.7</ele>
        <time>2023-09-27T12:19:34Z</time>
      </trkpt>
      <trkpt lat="49.88367" lon="2.49735">
        <ele>47.7</ele>
        <time>2023-09-27T12:19:35Z</time>
      </trkpt>
      <trkpt lat="49.88368" lon="2.49734">
        <ele>47.7</ele>
        <time>2023-09-27T12:19:36Z</time>
      </trkpt>
      <trkpt lat="49.88369" lon="2.49733">
        <ele>47.8</ele>
        <time>2023-09-27T12:19:37Z</time>
      </trkpt>
      <trkpt lat="49.8837" lon="2.49731">
        <ele>47.8</ele>
        <time>2023-09-27T12:19:38Z</time>
      </trkpt>
      <trkpt lat="49.88372" lon="2.49729">
        <ele>47.8</ele>
        <time>2023-09-27T12:19:39Z</time>
      </trkpt>
      <trkpt lat="49.88373" lon="2.49728">
        <ele>47.8</ele>
        <time>2023-09-27T12:19:40Z</time>
      </trkpt>
      <trkpt lat="49.88373" lon="2.49727">
        <ele>47.8</ele>
        <time>2023-09-27T12:19:41Z</time>
      </trkpt>
      <trkpt lat="49.88375" lon="2.49725">
        <ele>47.8</ele>
        <time>2023-09-27T12:19:42Z</time>
      </trkpt>
      <trkpt lat="49.88375" lon="2.49724">
        <ele>47.8</ele>
        <time>2023-09-27T12:19:43Z</time>
      </trkpt>
      <trkpt lat="49.88376" lon="2.49723">
        <ele>47.8</ele>
        <time>2023-09-27T12:19:44Z</time>
      </trkpt>
      <trkpt lat="49.88377" lon="2.49722">
        <ele>47.8</ele>
        <time>2023-09-27T12:19:45Z</time>
      </trkpt>
      <trkpt lat="49.88377" lon="2.49721">
        <ele>47.8</ele>
        <time>2023-09-27T12:19:46Z</time>
      </trkpt>
      <trkpt lat="49.88378" lon="2.4972">
        <ele>47.8</ele>
        <time>2023-09-27T12:19:47Z</time>
      </trkpt>
      <trkpt lat="49.88378" lon="2.49718">
        <ele>47.9</ele>
        <time>2023-09-27T12:19:48Z</time>
      </trkpt>
      <trkpt lat="49.88379" lon="2.49717">
        <ele>47.9</ele>
        <time>2023-09-27T12:19:49Z</time>
      </trkpt>
      <trkpt lat="49.8838" lon="2.49716">
        <ele>47.9</ele>
        <time>2023-09-27T12:19:50Z</time>
      </trkpt>
      <trkpt lat="49.8838" lon="2.49714">
        <ele>47.9</ele>
        <time>2023-09-27T12:19:51Z</time>
      </trkpt>
      <trkpt lat="49.88381" lon="2.49713">
        <ele>47.9</ele>
        <time>2023-09-27T12:19:52Z</time>
      </trkpt>
      <trkpt lat="49.88382" lon="2.49711">
        <ele>47.9</ele>
        <time>2023-09-27T12:19:53Z</time>
      </trkpt>
      <trkpt lat="49.88383" lon="2.49709">
        <ele>47.9</ele>
        <time>2023-09-27T12:19:54Z</time>
      </trkpt>
      <trkpt lat="49.88383" lon="2.49707">
        <ele>47.9</ele>
        <time>2023-09-27T12:19:55Z</time>
      </trkpt>
      <trkpt lat="49.88384" lon="2.49706">
        <ele>48</ele>
        <time>2023-09-27T12:19:56Z</time>
      </trkpt>
      <trkpt lat="49.88385" lon="2.49704">
        <ele>48</ele>
        <time>2023-09-27T12:19:57Z</time>
      </trkpt>
      <trkpt lat="49.88385" lon="2.49702">
        <ele>48</ele>
        <time>2023-09-27T12:19:58Z</time>
      </trkpt>
      <trkpt lat="49.88386" lon="2.49701">
        <ele>48</ele>
        <time>2023-09-27T12:19:59Z</time>
      </trkpt>
      <trkpt lat="49.88386" lon="2.497">
        <ele>48</ele>
        <time>2023-09-27T12:20:00Z</time>
      </trkpt>
      <trkpt lat="49.88387" lon="2.49698">
        <ele>48.1</ele>
        <time>2023-09-27T12:20:01Z</time>
      </trkpt>
      <trkpt lat="49.88388" lon="2.49697">
        <ele>48.1</ele>
        <time>2023-09-27T12:20:02Z</time>
      </trkpt>
      <trkpt lat="49.88388" lon="2.49696">
        <ele>48.1</ele>
        <time>2023-09-27T12:20:03Z</time>
      </trkpt>
      <trkpt lat="49.88389" lon="2.49694">
        <ele>48.1</ele>
        <time>2023-09-27T12:20:04Z</time>
      </trkpt>
      <trkpt lat="49.88389" lon="2.49693">
        <ele>48.1</ele>
        <time>2023-09-27T12:20:05Z</time>
      </trkpt>
      <trkpt lat="49.8839" lon="2.49692">
        <ele>48.1</ele>
        <time>2023-09-27T12:20:06Z</time>
      </trkpt>
      <trkpt lat="49.88391" lon="2.49691">
        <ele>48.2</ele>
        <time>2023-09-27T12:20:07Z</time>
      </trkpt>
      <trkpt lat="49.88391" lon="2.49689">
        <ele>48.2</ele>
        <time>2023-09-27T12:20:08Z</time>
      </trkpt>
      <trkpt lat="49.88392" lon="2.49688">
        <ele>48.2</ele>
        <time>2023-09-27T12:20:09Z</time>
      </trkpt>
      <trkpt lat="49.88393" lon="2.49687">
        <ele>48.2</ele>
        <time>2023-09-27T12:20:10Z</time>
      </trkpt>
      <trkpt lat="49.88393" lon="2.49685">
        <ele>48.2</ele>
        <time>2023-09-27T12:20:11Z</time>
      </trkpt>
      <trkpt lat="49.88394" lon="2.49684">
        <ele>48.3</ele>
        <time>2023-09-27T12:20:12Z</time>
      </trkpt>
      <trkpt lat="49.88394" lon="2.49682">
        <ele>48.3</ele>
        <time>2023-09-27T12:20:13Z</time>
      </trkpt>
      <trkpt lat="49.88394" lon="2.49681">
        <ele>48.3</ele>
        <time>2023-09-27T12:20:14Z</time>
      </trkpt>
      <trkpt lat="49.88395" lon="2.4968">
        <ele>48.3</ele>
        <time>2023-09-27T12:20:15Z</time>
      </trkpt>
      <trkpt lat="49.88395" lon="2.49678">
        <ele>48.3</ele>
        <time>2023-09-27T12:20:16Z</time>
      </trkpt>
      <trkpt lat="49.88395" lon="2.49677">
        <ele>48.2</ele>
        <time>2023-09-27T12:20:17Z</time>
      </trkpt>
      <trkpt lat="49.88395" lon="2.49675">
        <ele>48.2</ele>
        <time>2023-09-27T12:20:18Z</time>
      </trkpt>
      <trkpt lat="49.88394" lon="2.49673">
        <ele>48.1</ele>
        <time>2023-09-27T12:20:19Z</time>
      </trkpt>
      <trkpt lat="49.88394" lon="2.49672">
        <ele>48.1</ele>
        <time>2023-09-27T12:20:20Z</time>
      </trkpt>
      <trkpt lat="49.88394" lon="2.4967">
        <ele>48</ele>
        <time>2023-09-27T12:20:21Z</time>
      </trkpt>
      <trkpt lat="49.88394" lon="2.49668">
        <ele>48</ele>
        <time>2023-09-27T12:20:22Z</time>
      </trkpt>
      <trkpt lat="49.88394" lon="2.49667">
        <ele>47.9</ele>
        <time>2023-09-27T12:20:23Z</time>
      </trkpt>
      <trkpt lat="49.88394" lon="2.49665">
        <ele>47.9</ele>
        <time>2023-09-27T12:20:24Z</time>
      </trkpt>
      <trkpt lat="49.88393" lon="2.49663">
        <ele>47.8</ele>
        <time>2023-09-27T12:20:25Z</time>
      </trkpt>
      <trkpt lat="49.88393" lon="2.49662">
        <ele>47.8</ele>
        <time>2023-09-27T12:20:26Z</time>
      </trkpt>
      <trkpt lat="49.88393" lon="2.49661">
        <ele>47.7</ele>
        <time>2023-09-27T12:20:27Z</time>
      </trkpt>
      <trkpt lat="49.88393" lon="2.49659">
        <ele>47.7</ele>
        <time>2023-09-27T12:20:28Z</time>
      </trkpt>
      <trkpt lat="49.88393" lon="2.49658">
        <ele>47.6</ele>
        <time>2023-09-27T12:20:29Z</time>
      </trkpt>
      <trkpt lat="49.88393" lon="2.49656">
        <ele>47.6</ele>
        <time>2023-09-27T12:20:30Z</time>
      </trkpt>
      <trkpt lat="49.88393" lon="2.49655">
        <ele>47.6</ele>
        <time>2023-09-27T12:20:31Z</time>
      </trkpt>
      <trkpt lat="49.88393" lon="2.49654">
        <ele>47.5</ele>
        <time>2023-09-27T12:20:32Z</time>
      </trkpt>
      <trkpt lat="49.88393" lon="2.49653">
        <ele>47.5</ele>
        <time>2023-09-27T12:20:33Z</time>
      </trkpt>
      <trkpt lat="49.88393" lon="2.49651">
        <ele>47.5</ele>
        <time>2023-09-27T12:20:34Z</time>
      </trkpt>
      <trkpt lat="49.88393" lon="2.4965">
        <ele>47.4</ele>
        <time>2023-09-27T12:20:35Z</time>
      </trkpt>
      <trkpt lat="49.88394" lon="2.49649">
        <ele>47.4</ele>
        <time>2023-09-27T12:20:36Z</time>
      </trkpt>
      <trkpt lat="49.88394" lon="2.49648">
        <ele>47.4</ele>
        <time>2023-09-27T12:20:37Z</time>
      </trkpt>
      <trkpt lat="49.88394" lon="2.49648">
        <ele>47.4</ele>
        <time>2023-09-27T12:20:38Z</time>
      </trkpt>
      <trkpt lat="49.88394" lon="2.49648">
        <ele>47.4</ele>
        <time>2023-09-27T12:20:39Z</time>
      </trkpt>
      <trkpt lat="49.88394" lon="2.49648">
        <ele>47.4</ele>
        <time>2023-09-27T12:20:40Z</time>
      </trkpt>
      <trkpt lat="49.88394" lon="2.49648">
        <ele>47.4</ele>
        <time>2023-09-27T12:20:41Z</time>
      </trkpt>
      <trkpt lat="49.88394" lon="2.49648">
        <ele>47.4</ele>
        <time>2023-09-27T12:20:42Z</time>
      </trkpt>
      <trkpt lat="49.88394" lon="2.49648">
        <ele>47.4</ele>
        <time>2023-09-27T12:20:43Z</time>
      </trkpt>
      <trkpt lat="49.88394" lon="2.49648">
        <ele>47.4</ele>
        <time>2023-09-27T12:20:44Z</time>
      </trkpt>
      <trkpt lat="49.88394" lon="2.49648">
        <ele>47.4</ele>
        <time>2023-09-27T12:20:45Z</time>
      </trkpt>
      <trkpt lat="49.88394" lon="2.49649">
        <ele>47.4</ele>
        <time>2023-09-27T12:20:46Z</time>
      </trkpt>
      <trkpt lat="49.88394" lon="2.49649">
        <ele>47.4</ele>
        <time>2023-09-27T12:20:47Z</time>
      </trkpt>
      <trkpt lat="49.88394" lon="2.49649">
        <ele>47.4</ele>
        <time>2023-09-27T12:20:48Z</time>
      </trkpt>
      <trkpt lat="49.88394" lon="2.49649">
        <ele>47.4</ele>
        <time>2023-09-27T12:20:49Z</time>
      </trkpt>
      <trkpt lat="49.88394" lon="2.49649">
        <ele>47.4</ele>
        <time>2023-09-27T12:20:50Z</time>
      </trkpt>
      <trkpt lat="49.88394" lon="2.49649">
        <ele>47.4</ele>
        <time>2023-09-27T12:20:51Z</time>
      </trkpt>
      <trkpt lat="49.88394" lon="2.49649">
        <ele>47.4</ele>
        <time>2023-09-27T12:20:52Z</time>
      </trkpt>
      <trkpt lat="49.88394" lon="2.49649">
        <ele>47.4</ele>
        <time>2023-09-27T12:20:53Z</time>
      </trkpt>
      <trkpt lat="49.88394" lon="2.49649">
        <ele>47.4</ele>
        <time>2023-09-27T12:20:54Z</time>
      </trkpt>
      <trkpt lat="49.88394" lon="2.49649">
        <ele>47.4</ele>
        <time>2023-09-27T12:20:55Z</time>
      </trkpt>
      <trkpt lat="49.88394" lon="2.49649">
        <ele>47.4</ele>
        <time>2023-09-27T12:20:56Z</time>
      </trkpt>
      <trkpt lat="49.88394" lon="2.49649">
        <ele>47.4</ele>
        <time>2023-09-27T12:20:57Z</time>
      </trkpt>
      <trkpt lat="49.88394" lon="2.49649">
        <ele>47.4</ele>
        <time>2023-09-27T12:20:58Z</time>
      </trkpt>
      <trkpt lat="49.88394" lon="2.49649">
        <ele>47.4</ele>
        <time>2023-09-27T12:20:59Z</time>
      </trkpt>
      <trkpt lat="49.88394" lon="2.49649">
        <ele>47.4</ele>
        <time>2023-09-27T12:21:00Z</time>
      </trkpt>
      <trkpt lat="49.88394" lon="2.49649">
        <ele>47.4</ele>
        <time>2023-09-27T12:21:01Z</time>
      </trkpt>
      <trkpt lat="49.88394" lon="2.49649">
        <ele>47.4</ele>
        <time>2023-09-27T12:21:02Z</time>
      </trkpt>
      <trkpt lat="49.88394" lon="2.49649">
        <ele>47.4</ele>
        <time>2023-09-27T12:21:03Z</time>
      </trkpt>
      <trkpt lat="49.88394" lon="2.49649">
        <ele>47.4</ele>
        <time>2023-09-27T12:21:04Z</time>
      </trkpt>
      <trkpt lat="49.88394" lon="2.49649">
        <ele>47.4</ele>
        <time>2023-09-27T12:21:05Z</time>
      </trkpt>
      <trkpt lat="49.88394" lon="2.49649">
        <ele>47.4</ele>
        <time>2023-09-27T12:21:06Z</time>
      </trkpt>
      <trkpt lat="49.88394" lon="2.49649">
        <ele>47.4</ele>
        <time>2023-09-27T12:21:07Z</time>
      </trkpt>
      <trkpt lat="49.88394" lon="2.49649">
        <ele>47.4</ele>
        <time>2023-09-27T12:21:08Z</time>
      </trkpt>
      <trkpt lat="49.88394" lon="2.49649">
        <ele>47.4</ele>
        <time>2023-09-27T12:21:09Z</time>
      </trkpt>
      <trkpt lat="49.88394" lon="2.49649">
        <ele>47.4</ele>
        <time>2023-09-27T12:21:10Z</time>
      </trkpt>
      <trkpt lat="49.88394" lon="2.49649">
        <ele>47.4</ele>
        <time>2023-09-27T12:21:11Z</time>
      </trkpt>
      <trkpt lat="49.88394" lon="2.49649">
        <ele>47.4</ele>
        <time>2023-09-27T12:21:12Z</time>
      </trkpt>
      <trkpt lat="49.88394" lon="2.49649">
        <ele>47.4</ele>
        <time>2023-09-27T12:21:13Z</time>
      </trkpt>
      <trkpt lat="49.88394" lon="2.49649">
        <ele>47.4</ele>
        <time>2023-09-27T12:21:14Z</time>
      </trkpt>
      <trkpt lat="49.88394" lon="2.49649">
        <ele>47.4</ele>
        <time>2023-09-27T12:21:15Z</time>
      </trkpt>
      <trkpt lat="49.88394" lon="2.49649">
        <ele>47.4</ele>
        <time>2023-09-27T12:21:16Z</time>
      </trkpt>
      <trkpt lat="49.88394" lon="2.49649">
        <ele>47.4</ele>
        <time>2023-09-27T12:21:17Z</time>
      </trkpt>
      <trkpt lat="49.88394" lon="2.49649">
        <ele>47.4</ele>
        <time>2023-09-27T12:21:18Z</time>
      </trkpt>
      <trkpt lat="49.88394" lon="2.49649">
        <ele>47.4</ele>
        <time>2023-09-27T12:21:19Z</time>
      </trkpt>
      <trkpt lat="49.88394" lon="2.49649">
        <ele>47.4</ele>
        <time>2023-09-27T12:21:20Z</time>
      </trkpt>
      <trkpt lat="49.88394" lon="2.49649">
        <ele>47.4</ele>
        <time>2023-09-27T12:21:21Z</time>
      </trkpt>
      <trkpt lat="49.88394" lon="2.49649">
        <ele>47.4</ele>
        <time>2023-09-27T12:21:22Z</time>
      </trkpt>
      <trkpt lat="49.88394" lon="2.49649">
        <ele>47.4</ele>
        <time>2023-09-27T12:21:23Z</time>
      </trkpt>
      <trkpt lat="49.88394" lon="2.49649">
        <ele>47.4</ele>
        <time>2023-09-27T12:21:24Z</time>
      </trkpt>
      <trkpt lat="49.88394" lon="2.49649">
        <ele>47.4</ele>
        <time>2023-09-27T12:21:25Z</time>
      </trkpt>
      <trkpt lat="49.88394" lon="2.49649">
        <ele>47.4</ele>
        <time>2023-09-27T12:21:26Z</time>
      </trkpt>
      <trkpt lat="49.88394" lon="2.49649">
        <ele>47.4</ele>
        <time>2023-09-27T12:21:27Z</time>
      </trkpt>
      <trkpt lat="49.88394" lon="2.49649">
        <ele>47.4</ele>
        <time>2023-09-27T12:21:28Z</time>
      </trkpt>
      <trkpt lat="49.88394" lon="2.49649">
        <ele>47.4</ele>
        <time>2023-09-27T12:21:29Z</time>
      </trkpt>
      <trkpt lat="49.88394" lon="2.49649">
        <ele>47.4</ele>
        <time>2023-09-27T12:21:30Z</time>
      </trkpt>
      <trkpt lat="49.88394" lon="2.49649">
        <ele>47.4</ele>
        <time>2023-09-27T12:21:31Z</time>
      </trkpt>
      <trkpt lat="49.88394" lon="2.49649">
        <ele>47.4</ele>
        <time>2023-09-27T12:21:32Z</time>
      </trkpt>
      <trkpt lat="49.88394" lon="2.49649">
        <ele>47.4</ele>
        <time>2023-09-27T12:21:33Z</time>
      </trkpt>
      <trkpt lat="49.88394" lon="2.49649">
        <ele>47.4</ele>
        <time>2023-09-27T12:21:34Z</time>
      </trkpt>
      <trkpt lat="49.88394" lon="2.49649">
        <ele>47.4</ele>
        <time>2023-09-27T12:21:35Z</time>
      </trkpt>
      <trkpt lat="49.88394" lon="2.49649">
        <ele>47.4</ele>
        <time>2023-09-27T12:21:36Z</time>
      </trkpt>
      <trkpt lat="49.88394" lon="2.49649">
        <ele>47.4</ele>
        <time>2023-09-27T12:21:37Z</time>
      </trkpt>
      <trkpt lat="49.88394" lon="2.49649">
        <ele>47.4</ele>
        <time>2023-09-27T12:21:38Z</time>
      </trkpt>
      <trkpt lat="49.88394" lon="2.49649">
        <ele>47.4</ele>
        <time>2023-09-27T12:21:39Z</time>
      </trkpt>
      <trkpt lat="49.88394" lon="2.49649">
        <ele>47.4</ele>
        <time>2023-09-27T12:21:40Z</time>
      </trkpt>
      <trkpt lat="49.88394" lon="2.49649">
        <ele>47.4</ele>
        <time>2023-09-27T12:21:41Z</time>
      </trkpt>
      <trkpt lat="49.88394" lon="2.49649">
        <ele>47.4</ele>
        <time>2023-09-27T12:21:42Z</time>
      </trkpt>
      <trkpt lat="49.88394" lon="2.49649">
        <ele>47.4</ele>
        <time>2023-09-27T12:21:43Z</time>
      </trkpt>
      <trkpt lat="49.88394" lon="2.49649">
        <ele>47.4</ele>
        <time>2023-09-27T12:21:44Z</time>
      </trkpt>
      <trkpt lat="49.88394" lon="2.49649">
        <ele>47.4</ele>
        <time>2023-09-27T12:21:45Z</time>
      </trkpt>
      <trkpt lat="49.88394" lon="2.49649">
        <ele>47.4</ele>
        <time>2023-09-27T12:21:46Z</time>
      </trkpt>
      <trkpt lat="49.88394" lon="2.49649">
        <ele>47.4</ele>
        <time>2023-09-27T12:21:47Z</time>
      </trkpt>
      <trkpt lat="49.88394" lon="2.49649">
        <ele>47.4</ele>
        <time>2023-09-27T12:21:48Z</time>
      </trkpt>
      <trkpt lat="49.88394" lon="2.49649">
        <ele>47.4</ele>
        <time>2023-09-27T12:21:49Z</time>
      </trkpt>
      <trkpt lat="49.88394" lon="2.49649">
        <ele>47.4</ele>
        <time>2023-09-27T12:21:50Z</time>
      </trkpt>
      <trkpt lat="49.88394" lon="2.49649">
        <ele>47.4</ele>
        <time>2023-09-27T12:21:51Z</time>
      </trkpt>
      <trkpt lat="49.88394" lon="2.49649">
        <ele>47.4</ele>
        <time>2023-09-27T12:21:52Z</time>
      </trkpt>
      <trkpt lat="49.88394" lon="2.49649">
        <ele>47.4</ele>
        <time>2023-09-27T12:21:53Z</time>
      </trkpt>
      <trkpt lat="49.88394" lon="2.49649">
        <ele>47.4</ele>
        <time>2023-09-27T12:21:54Z</time>
      </trkpt>
      <trkpt lat="49.88394" lon="2.49649">
        <ele>47.4</ele>
        <time>2023-09-27T12:21:55Z</time>
      </trkpt>
      <trkpt lat="49.88394" lon="2.49649">
        <ele>47.4</ele>
        <time>2023-09-27T12:21:56Z</time>
      </trkpt>
      <trkpt lat="49.88394" lon="2.49649">
        <ele>47.4</ele>
        <time>2023-09-27T12:21:57Z</time>
      </trkpt>
      <trkpt lat="49.88394" lon="2.49649">
        <ele>47.4</ele>
        <time>2023-09-27T12:21:58Z</time>
      </trkpt>
      <trkpt lat="49.88394" lon="2.49649">
        <ele>47.4</ele>
        <time>2023-09-27T12:21:59Z</time>
      </trkpt>
      <trkpt lat="49.88394" lon="2.49649">
        <ele>47.4</ele>
        <time>2023-09-27T12:22:00Z</time>
      </trkpt>
      <trkpt lat="49.88394" lon="2.49649">
        <ele>47.4</ele>
        <time>2023-09-27T12:22:01Z</time>
      </trkpt>
      <trkpt lat="49.88393" lon="2.49651">
        <ele>47.3</ele>
        <time>2023-09-27T12:22:02Z</time>
      </trkpt>
      <trkpt lat="49.88393" lon="2.49652">
        <ele>47.3</ele>
        <time>2023-09-27T12:22:03Z</time>
      </trkpt>
      <trkpt lat="49.88393" lon="2.49652">
        <ele>47.3</ele>
        <time>2023-09-27T12:22:04Z</time>
      </trkpt>
      <trkpt lat="49.88393" lon="2.49652">
        <ele>47.3</ele>
        <time>2023-09-27T12:22:05Z</time>
      </trkpt>
      <trkpt lat="49.88393" lon="2.49652">
        <ele>47.3</ele>
        <time>2023-09-27T12:22:06Z</time>
      </trkpt>
      <trkpt lat="49.88393" lon="2.49652">
        <ele>47.3</ele>
        <time>2023-09-27T12:22:07Z</time>
      </trkpt>
      <trkpt lat="49.88393" lon="2.49651">
        <ele>47.3</ele>
        <time>2023-09-27T12:22:08Z</time>
      </trkpt>
      <trkpt lat="49.88393" lon="2.49651">
        <ele>47.2</ele>
        <time>2023-09-27T12:22:09Z</time>
      </trkpt>
      <trkpt lat="49.88392" lon="2.49649">
        <ele>47.2</ele>
        <time>2023-09-27T12:22:10Z</time>
      </trkpt>
      <trkpt lat="49.88392" lon="2.49648">
        <ele>47.2</ele>
        <time>2023-09-27T12:22:11Z</time>
      </trkpt>
      <trkpt lat="49.88392" lon="2.49647">
        <ele>47.1</ele>
        <time>2023-09-27T12:22:12Z</time>
      </trkpt>
      <trkpt lat="49.88392" lon="2.49645">
        <ele>47.1</ele>
        <time>2023-09-27T12:22:13Z</time>
      </trkpt>
      <trkpt lat="49.88392" lon="2.49644">
        <ele>47.1</ele>
        <time>2023-09-27T12:22:14Z</time>
      </trkpt>
      <trkpt lat="49.88392" lon="2.49643">
        <ele>47.1</ele>
        <time>2023-09-27T12:22:15Z</time>
      </trkpt>
      <trkpt lat="49.88392" lon="2.49642">
        <ele>47</ele>
        <time>2023-09-27T12:22:16Z</time>
      </trkpt>
      <trkpt lat="49.88392" lon="2.49641">
        <ele>47</ele>
        <time>2023-09-27T12:22:17Z</time>
      </trkpt>
      <trkpt lat="49.88392" lon="2.4964">
        <ele>47</ele>
        <time>2023-09-27T12:22:18Z</time>
      </trkpt>
      <trkpt lat="49.88392" lon="2.49639">
        <ele>47</ele>
        <time>2023-09-27T12:22:19Z</time>
      </trkpt>
      <trkpt lat="49.88392" lon="2.49639">
        <ele>47</ele>
        <time>2023-09-27T12:22:20Z</time>
      </trkpt>
      <trkpt lat="49.88392" lon="2.49639">
        <ele>46.9</ele>
        <time>2023-09-27T12:22:21Z</time>
      </trkpt>
      <trkpt lat="49.88392" lon="2.49639">
        <ele>46.9</ele>
        <time>2023-09-27T12:22:22Z</time>
      </trkpt>
      <trkpt lat="49.88392" lon="2.49638">
        <ele>46.9</ele>
        <time>2023-09-27T12:22:23Z</time>
      </trkpt>
      <trkpt lat="49.88392" lon="2.49638">
        <ele>46.9</ele>
        <time>2023-09-27T12:22:24Z</time>
      </trkpt>
      <trkpt lat="49.88392" lon="2.49638">
        <ele>46.9</ele>
        <time>2023-09-27T12:22:25Z</time>
      </trkpt>
      <trkpt lat="49.88392" lon="2.49638">
        <ele>46.9</ele>
        <time>2023-09-27T12:22:26Z</time>
      </trkpt>
      <trkpt lat="49.88392" lon="2.49638">
        <ele>46.9</ele>
        <time>2023-09-27T12:22:27Z</time>
      </trkpt>
      <trkpt lat="49.88392" lon="2.49638">
        <ele>46.9</ele>
        <time>2023-09-27T12:22:28Z</time>
      </trkpt>
      <trkpt lat="49.88392" lon="2.49638">
        <ele>46.9</ele>
        <time>2023-09-27T12:22:29Z</time>
      </trkpt>
      <trkpt lat="49.88392" lon="2.49638">
        <ele>46.9</ele>
        <time>2023-09-27T12:22:30Z</time>
      </trkpt>
      <trkpt lat="49.88392" lon="2.49638">
        <ele>46.9</ele>
        <time>2023-09-27T12:22:31Z</time>
      </trkpt>
      <trkpt lat="49.88392" lon="2.49638">
        <ele>46.9</ele>
        <time>2023-09-27T12:22:32Z</time>
      </trkpt>
      <trkpt lat="49.88392" lon="2.49638">
        <ele>46.9</ele>
        <time>2023-09-27T12:22:33Z</time>
      </trkpt>
      <trkpt lat="49.88392" lon="2.49638">
        <ele>46.9</ele>
        <time>2023-09-27T12:22:34Z</time>
      </trkpt>
      <trkpt lat="49.88392" lon="2.49638">
        <ele>46.9</ele>
        <time>2023-09-27T12:22:35Z</time>
      </trkpt>
      <trkpt lat="49.88392" lon="2.49638">
        <ele>46.9</ele>
        <time>2023-09-27T12:22:36Z</time>
      </trkpt>
      <trkpt lat="49.88392" lon="2.49638">
        <ele>46.9</ele>
        <time>2023-09-27T12:22:37Z</time>
      </trkpt>
      <trkpt lat="49.88392" lon="2.49638">
        <ele>46.9</ele>
        <time>2023-09-27T12:22:38Z</time>
      </trkpt>
      <trkpt lat="49.88392" lon="2.49638">
        <ele>46.9</ele>
        <time>2023-09-27T12:22:39Z</time>
      </trkpt>
      <trkpt lat="49.88392" lon="2.49638">
        <ele>46.9</ele>
        <time>2023-09-27T12:22:40Z</time>
      </trkpt>
      <trkpt lat="49.88392" lon="2.49638">
        <ele>46.9</ele>
        <time>2023-09-27T12:22:41Z</time>
      </trkpt>
      <trkpt lat="49.88392" lon="2.49638">
        <ele>46.9</ele>
        <time>2023-09-27T12:22:42Z</time>
      </trkpt>
      <trkpt lat="49.88392" lon="2.49638">
        <ele>46.9</ele>
        <time>2023-09-27T12:22:43Z</time>
      </trkpt>
      <trkpt lat="49.88392" lon="2.49638">
        <ele>46.9</ele>
        <time>2023-09-27T12:22:44Z</time>
      </trkpt>
      <trkpt lat="49.88392" lon="2.49638">
        <ele>46.9</ele>
        <time>2023-09-27T12:22:45Z</time>
      </trkpt>
      <trkpt lat="49.88392" lon="2.49638">
        <ele>46.9</ele>
        <time>2023-09-27T12:22:46Z</time>
      </trkpt>
      <trkpt lat="49.88392" lon="2.49638">
        <ele>46.9</ele>
        <time>2023-09-27T12:22:47Z</time>
      </trkpt>
      <trkpt lat="49.88392" lon="2.49638">
        <ele>46.9</ele>
        <time>2023-09-27T12:22:48Z</time>
      </trkpt>
      <trkpt lat="49.88392" lon="2.49638">
        <ele>46.9</ele>
        <time>2023-09-27T12:22:49Z</time>
      </trkpt>
      <trkpt lat="49.88392" lon="2.49638">
        <ele>46.9</ele>
        <time>2023-09-27T12:22:50Z</time>
      </trkpt>
      <trkpt lat="49.88392" lon="2.49638">
        <ele>46.9</ele>
        <time>2023-09-27T12:22:51Z</time>
      </trkpt>
      <trkpt lat="49.88392" lon="2.49637">
        <ele>46.9</ele>
        <time>2023-09-27T12:22:52Z</time>
      </trkpt>
      <trkpt lat="49.88392" lon="2.49636">
        <ele>46.9</ele>
        <time>2023-09-27T12:22:53Z</time>
      </trkpt>
      <trkpt lat="49.88392" lon="2.49634">
        <ele>46.9</ele>
        <time>2023-09-27T12:22:54Z</time>
      </trkpt>
      <trkpt lat="49.88392" lon="2.49633">
        <ele>46.8</ele>
        <time>2023-09-27T12:22:55Z</time>
      </trkpt>
      <trkpt lat="49.88392" lon="2.49632">
        <ele>46.8</ele>
        <time>2023-09-27T12:22:56Z</time>
      </trkpt>
      <trkpt lat="49.88392" lon="2.49631">
        <ele>46.8</ele>
        <time>2023-09-27T12:22:57Z</time>
      </trkpt>
      <trkpt lat="49.88392" lon="2.4963">
        <ele>46.8</ele>
        <time>2023-09-27T12:22:58Z</time>
      </trkpt>
      <trkpt lat="49.88392" lon="2.49629">
        <ele>46.7</ele>
        <time>2023-09-27T12:22:59Z</time>
      </trkpt>
      <trkpt lat="49.88392" lon="2.49628">
        <ele>46.7</ele>
        <time>2023-09-27T12:23:00Z</time>
      </trkpt>
      <trkpt lat="49.88392" lon="2.49627">
        <ele>46.7</ele>
        <time>2023-09-27T12:23:01Z</time>
      </trkpt>
      <trkpt lat="49.88391" lon="2.49625">
        <ele>46.7</ele>
        <time>2023-09-27T12:23:02Z</time>
      </trkpt>
      <trkpt lat="49.88391" lon="2.49624">
        <ele>46.7</ele>
        <time>2023-09-27T12:23:03Z</time>
      </trkpt>
      <trkpt lat="49.88391" lon="2.49623">
        <ele>46.7</ele>
        <time>2023-09-27T12:23:04Z</time>
      </trkpt>
      <trkpt lat="49.88391" lon="2.49622">
        <ele>46.7</ele>
        <time>2023-09-27T12:23:05Z</time>
      </trkpt>
      <trkpt lat="49.88391" lon="2.49621">
        <ele>46.6</ele>
        <time>2023-09-27T12:23:06Z</time>
      </trkpt>
      <trkpt lat="49.8839" lon="2.4962">
        <ele>46.6</ele>
        <time>2023-09-27T12:23:07Z</time>
      </trkpt>
      <trkpt lat="49.8839" lon="2.49617">
        <ele>46.6</ele>
        <time>2023-09-27T12:23:08Z</time>
      </trkpt>
      <trkpt lat="49.8839" lon="2.49616">
        <ele>46.6</ele>
        <time>2023-09-27T12:23:09Z</time>
      </trkpt>
      <trkpt lat="49.8839" lon="2.49615">
        <ele>46.6</ele>
        <time>2023-09-27T12:23:10Z</time>
      </trkpt>
      <trkpt lat="49.8839" lon="2.49613">
        <ele>46.6</ele>
        <time>2023-09-27T12:23:11Z</time>
      </trkpt>
      <trkpt lat="49.88389" lon="2.49611">
        <ele>46.5</ele>
        <time>2023-09-27T12:23:12Z</time>
      </trkpt>
      <trkpt lat="49.88389" lon="2.49608">
        <ele>46.5</ele>
        <time>2023-09-27T12:23:13Z</time>
      </trkpt>
      <trkpt lat="49.88389" lon="2.49606">
        <ele>46.4</ele>
        <time>2023-09-27T12:23:14Z</time>
      </trkpt>
      <trkpt lat="49.88388" lon="2.49603">
        <ele>46.4</ele>
        <time>2023-09-27T12:23:15Z</time>
      </trkpt>
      <trkpt lat="49.88388" lon="2.49601">
        <ele>46.4</ele>
        <time>2023-09-27T12:23:16Z</time>
      </trkpt>
      <trkpt lat="49.88388" lon="2.49599">
        <ele>46.3</ele>
        <time>2023-09-27T12:23:17Z</time>
      </trkpt>
      <trkpt lat="49.88388" lon="2.49595">
        <ele>46.2</ele>
        <time>2023-09-27T12:23:18Z</time>
      </trkpt>
      <trkpt lat="49.88388" lon="2.49594">
        <ele>46.2</ele>
        <time>2023-09-27T12:23:19Z</time>
      </trkpt>
      <trkpt lat="49.88388" lon="2.49593">
        <ele>46.2</ele>
        <time>2023-09-27T12:23:20Z</time>
      </trkpt>
      <trkpt lat="49.88388" lon="2.49591">
        <ele>46.2</ele>
        <time>2023-09-27T12:23:21Z</time>
      </trkpt>
      <trkpt lat="49.88388" lon="2.49589">
        <ele>46.1</ele>
        <time>2023-09-27T12:23:22Z</time>
      </trkpt>
      <trkpt lat="49.88388" lon="2.49588">
        <ele>46.1</ele>
        <time>2023-09-27T12:23:23Z</time>
      </trkpt>
      <trkpt lat="49.88388" lon="2.49586">
        <ele>46.1</ele>
        <time>2023-09-27T12:23:24Z</time>
      </trkpt>
      <trkpt lat="49.88388" lon="2.49584">
        <ele>46.1</ele>
        <time>2023-09-27T12:23:25Z</time>
      </trkpt>
      <trkpt lat="49.88388" lon="2.49582">
        <ele>46</ele>
        <time>2023-09-27T12:23:26Z</time>
      </trkpt>
      <trkpt lat="49.88388" lon="2.49581">
        <ele>46</ele>
        <time>2023-09-27T12:23:27Z</time>
      </trkpt>
      <trkpt lat="49.88388" lon="2.49579">
        <ele>46</ele>
        <time>2023-09-27T12:23:28Z</time>
      </trkpt>
      <trkpt lat="49.88388" lon="2.49577">
        <ele>46</ele>
        <time>2023-09-27T12:23:29Z</time>
      </trkpt>
      <trkpt lat="49.88388" lon="2.49574">
        <ele>46</ele>
        <time>2023-09-27T12:23:30Z</time>
      </trkpt>
      <trkpt lat="49.88388" lon="2.49573">
        <ele>46</ele>
        <time>2023-09-27T12:23:31Z</time>
      </trkpt>
      <trkpt lat="49.88388" lon="2.49571">
        <ele>46</ele>
        <time>2023-09-27T12:23:32Z</time>
      </trkpt>
      <trkpt lat="49.88387" lon="2.4957">
        <ele>46</ele>
        <time>2023-09-27T12:23:33Z</time>
      </trkpt>
      <trkpt lat="49.88387" lon="2.49568">
        <ele>46</ele>
        <time>2023-09-27T12:23:34Z</time>
      </trkpt>
      <trkpt lat="49.88387" lon="2.49566">
        <ele>46</ele>
        <time>2023-09-27T12:23:35Z</time>
      </trkpt>
      <trkpt lat="49.88387" lon="2.49565">
        <ele>46</ele>
        <time>2023-09-27T12:23:36Z</time>
      </trkpt>
      <trkpt lat="49.88387" lon="2.49563">
        <ele>46</ele>
        <time>2023-09-27T12:23:37Z</time>
      </trkpt>
      <trkpt lat="49.88387" lon="2.49561">
        <ele>46</ele>
        <time>2023-09-27T12:23:38Z</time>
      </trkpt>
      <trkpt lat="49.88386" lon="2.49558">
        <ele>46</ele>
        <time>2023-09-27T12:23:39Z</time>
      </trkpt>
      <trkpt lat="49.88386" lon="2.49557">
        <ele>46</ele>
        <time>2023-09-27T12:23:40Z</time>
      </trkpt>
      <trkpt lat="49.88386" lon="2.49556">
        <ele>46</ele>
        <time>2023-09-27T12:23:41Z</time>
      </trkpt>
      <trkpt lat="49.88385" lon="2.49553">
        <ele>46.1</ele>
        <time>2023-09-27T12:23:42Z</time>
      </trkpt>
      <trkpt lat="49.88385" lon="2.49551">
        <ele>46.1</ele>
        <time>2023-09-27T12:23:43Z</time>
      </trkpt>
      <trkpt lat="49.88385" lon="2.4955">
        <ele>46.1</ele>
        <time>2023-09-27T12:23:44Z</time>
      </trkpt>
      <trkpt lat="49.88384" lon="2.49548">
        <ele>46.1</ele>
        <time>2023-09-27T12:23:45Z</time>
      </trkpt>
      <trkpt lat="49.88384" lon="2.49546">
        <ele>46.1</ele>
        <time>2023-09-27T12:23:46Z</time>
      </trkpt>
      <trkpt lat="49.88384" lon="2.49545">
        <ele>46.1</ele>
        <time>2023-09-27T12:23:47Z</time>
      </trkpt>
      <trkpt lat="49.88384" lon="2.49543">
        <ele>46.1</ele>
        <time>2023-09-27T12:23:48Z</time>
      </trkpt>
      <trkpt lat="49.88383" lon="2.49542">
        <ele>46.1</ele>
        <time>2023-09-27T12:23:49Z</time>
      </trkpt>
      <trkpt lat="49.88383" lon="2.4954">
        <ele>46.1</ele>
        <time>2023-09-27T12:23:50Z</time>
      </trkpt>
      <trkpt lat="49.88382" lon="2.49537">
        <ele>46.1</ele>
        <time>2023-09-27T12:23:51Z</time>
      </trkpt>
      <trkpt lat="49.88382" lon="2.49536">
        <ele>46.1</ele>
        <time>2023-09-27T12:23:52Z</time>
      </trkpt>
      <trkpt lat="49.88382" lon="2.49534">
        <ele>46.1</ele>
        <time>2023-09-27T12:23:53Z</time>
      </trkpt>
      <trkpt lat="49.88381" lon="2.49531">
        <ele>46.1</ele>
        <time>2023-09-27T12:23:54Z</time>
      </trkpt>
      <trkpt lat="49.88381" lon="2.4953">
        <ele>46.1</ele>
        <time>2023-09-27T12:23:55Z</time>
      </trkpt>
      <trkpt lat="49.88381" lon="2.49529">
        <ele>46.1</ele>
        <time>2023-09-27T12:23:56Z</time>
      </trkpt>
      <trkpt lat="49.88381" lon="2.49527">
        <ele>46.1</ele>
        <time>2023-09-27T12:23:57Z</time>
      </trkpt>
      <trkpt lat="49.88381" lon="2.49525">
        <ele>46</ele>
        <time>2023-09-27T12:23:58Z</time>
      </trkpt>
      <trkpt lat="49.88381" lon="2.49523">
        <ele>46</ele>
        <time>2023-09-27T12:23:59Z</time>
      </trkpt>
      <trkpt lat="49.8838" lon="2.49522">
        <ele>46</ele>
        <time>2023-09-27T12:24:00Z</time>
      </trkpt>
      <trkpt lat="49.8838" lon="2.4952">
        <ele>46</ele>
        <time>2023-09-27T12:24:01Z</time>
      </trkpt>
      <trkpt lat="49.8838" lon="2.49519">
        <ele>46</ele>
        <time>2023-09-27T12:24:02Z</time>
      </trkpt>
      <trkpt lat="49.8838" lon="2.49517">
        <ele>45.9</ele>
        <time>2023-09-27T12:24:03Z</time>
      </trkpt>
      <trkpt lat="49.8838" lon="2.49515">
        <ele>45.9</ele>
        <time>2023-09-27T12:24:04Z</time>
      </trkpt>
      <trkpt lat="49.8838" lon="2.49513">
        <ele>45.9</ele>
        <time>2023-09-27T12:24:05Z</time>
      </trkpt>
      <trkpt lat="49.8838" lon="2.4951">
        <ele>45.8</ele>
        <time>2023-09-27T12:24:06Z</time>
      </trkpt>
      <trkpt lat="49.8838" lon="2.49509">
        <ele>45.8</ele>
        <time>2023-09-27T12:24:07Z</time>
      </trkpt>
      <trkpt lat="49.8838" lon="2.49508">
        <ele>45.7</ele>
        <time>2023-09-27T12:24:08Z</time>
      </trkpt>
      <trkpt lat="49.8838" lon="2.49506">
        <ele>45.7</ele>
        <time>2023-09-27T12:24:09Z</time>
      </trkpt>
      <trkpt lat="49.8838" lon="2.49504">
        <ele>45.7</ele>
        <time>2023-09-27T12:24:10Z</time>
      </trkpt>
      <trkpt lat="49.8838" lon="2.49502">
        <ele>45.6</ele>
        <time>2023-09-27T12:24:11Z</time>
      </trkpt>
      <trkpt lat="49.8838" lon="2.49501">
        <ele>45.6</ele>
        <time>2023-09-27T12:24:12Z</time>
      </trkpt>
      <trkpt lat="49.8838" lon="2.49499">
        <ele>45.5</ele>
        <time>2023-09-27T12:24:13Z</time>
      </trkpt>
      <trkpt lat="49.8838" lon="2.49497">
        <ele>45.5</ele>
        <time>2023-09-27T12:24:14Z</time>
      </trkpt>
      <trkpt lat="49.88379" lon="2.49496">
        <ele>45.5</ele>
        <time>2023-09-27T12:24:15Z</time>
      </trkpt>
      <trkpt lat="49.88379" lon="2.49494">
        <ele>45.4</ele>
        <time>2023-09-27T12:24:16Z</time>
      </trkpt>
      <trkpt lat="49.88379" lon="2.49492">
        <ele>45.4</ele>
        <time>2023-09-27T12:24:17Z</time>
      </trkpt>
      <trkpt lat="49.88379" lon="2.49489">
        <ele>45.3</ele>
        <time>2023-09-27T12:24:18Z</time>
      </trkpt>
      <trkpt lat="49.88379" lon="2.49487">
        <ele>45.3</ele>
        <time>2023-09-27T12:24:19Z</time>
      </trkpt>
      <trkpt lat="49.88379" lon="2.49486">
        <ele>45.2</ele>
        <time>2023-09-27T12:24:20Z</time>
      </trkpt>
      <trkpt lat="49.88379" lon="2.49483">
        <ele>45.1</ele>
        <time>2023-09-27T12:24:21Z</time>
      </trkpt>
      <trkpt lat="49.88379" lon="2.49481">
        <ele>45.1</ele>
        <time>2023-09-27T12:24:22Z</time>
      </trkpt>
      <trkpt lat="49.88379" lon="2.4948">
        <ele>45.1</ele>
        <time>2023-09-27T12:24:23Z</time>
      </trkpt>
      <trkpt lat="49.88379" lon="2.49478">
        <ele>45</ele>
        <time>2023-09-27T12:24:24Z</time>
      </trkpt>
      <trkpt lat="49.88378" lon="2.49476">
        <ele>45</ele>
        <time>2023-09-27T12:24:25Z</time>
      </trkpt>
      <trkpt lat="49.88378" lon="2.49475">
        <ele>45</ele>
        <time>2023-09-27T12:24:26Z</time>
      </trkpt>
      <trkpt lat="49.88378" lon="2.49473">
        <ele>44.9</ele>
        <time>2023-09-27T12:24:27Z</time>
      </trkpt>
      <trkpt lat="49.88378" lon="2.49471">
        <ele>44.9</ele>
        <time>2023-09-27T12:24:28Z</time>
      </trkpt>
      <trkpt lat="49.88378" lon="2.4947">
        <ele>44.8</ele>
        <time>2023-09-27T12:24:29Z</time>
      </trkpt>
      <trkpt lat="49.88377" lon="2.49466">
        <ele>44.8</ele>
        <time>2023-09-27T12:24:30Z</time>
      </trkpt>
      <trkpt lat="49.88377" lon="2.49465">
        <ele>44.8</ele>
        <time>2023-09-27T12:24:31Z</time>
      </trkpt>
      <trkpt lat="49.88377" lon="2.49464">
        <ele>44.7</ele>
        <time>2023-09-27T12:24:32Z</time>
      </trkpt>
      <trkpt lat="49.88377" lon="2.49461">
        <ele>44.7</ele>
        <time>2023-09-27T12:24:33Z</time>
      </trkpt>
      <trkpt lat="49.88376" lon="2.4946">
        <ele>44.7</ele>
        <time>2023-09-27T12:24:34Z</time>
      </trkpt>
      <trkpt lat="49.88376" lon="2.49458">
        <ele>44.6</ele>
        <time>2023-09-27T12:24:35Z</time>
      </trkpt>
      <trkpt lat="49.88376" lon="2.49457">
        <ele>44.6</ele>
        <time>2023-09-27T12:24:36Z</time>
      </trkpt>
      <trkpt lat="49.88376" lon="2.49455">
        <ele>44.6</ele>
        <time>2023-09-27T12:24:37Z</time>
      </trkpt>
      <trkpt lat="49.88376" lon="2.49453">
        <ele>44.6</ele>
        <time>2023-09-27T12:24:38Z</time>
      </trkpt>
      <trkpt lat="49.88376" lon="2.49451">
        <ele>44.5</ele>
        <time>2023-09-27T12:24:39Z</time>
      </trkpt>
      <trkpt lat="49.88375" lon="2.4945">
        <ele>44.5</ele>
        <time>2023-09-27T12:24:40Z</time>
      </trkpt>
      <trkpt lat="49.88375" lon="2.49448">
        <ele>44.5</ele>
        <time>2023-09-27T12:24:41Z</time>
      </trkpt>
      <trkpt lat="49.88375" lon="2.49445">
        <ele>44.5</ele>
        <time>2023-09-27T12:24:42Z</time>
      </trkpt>
      <trkpt lat="49.88375" lon="2.49443">
        <ele>44.5</ele>
        <time>2023-09-27T12:24:43Z</time>
      </trkpt>
      <trkpt lat="49.88375" lon="2.49442">
        <ele>44.5</ele>
        <time>2023-09-27T12:24:44Z</time>
      </trkpt>
      <trkpt lat="49.88374" lon="2.49439">
        <ele>44.5</ele>
        <time>2023-09-27T12:24:45Z</time>
      </trkpt>
      <trkpt lat="49.88374" lon="2.49438">
        <ele>44.5</ele>
        <time>2023-09-27T12:24:46Z</time>
      </trkpt>
      <trkpt lat="49.88374" lon="2.49436">
        <ele>44.5</ele>
        <time>2023-09-27T12:24:47Z</time>
      </trkpt>
      <trkpt lat="49.88374" lon="2.49433">
        <ele>44.5</ele>
        <time>2023-09-27T12:24:48Z</time>
      </trkpt>
      <trkpt lat="49.88373" lon="2.49432">
        <ele>44.5</ele>
        <time>2023-09-27T12:24:49Z</time>
      </trkpt>
      <trkpt lat="49.88373" lon="2.4943">
        <ele>44.5</ele>
        <time>2023-09-27T12:24:50Z</time>
      </trkpt>
      <trkpt lat="49.88373" lon="2.49429">
        <ele>44.5</ele>
        <time>2023-09-27T12:24:51Z</time>
      </trkpt>
      <trkpt lat="49.88373" lon="2.49427">
        <ele>44.5</ele>
        <time>2023-09-27T12:24:52Z</time>
      </trkpt>
      <trkpt lat="49.88373" lon="2.49425">
        <ele>44.5</ele>
        <time>2023-09-27T12:24:53Z</time>
      </trkpt>
      <trkpt lat="49.88372" lon="2.49423">
        <ele>44.4</ele>
        <time>2023-09-27T12:24:54Z</time>
      </trkpt>
      <trkpt lat="49.88372" lon="2.49422">
        <ele>44.4</ele>
        <time>2023-09-27T12:24:55Z</time>
      </trkpt>
      <trkpt lat="49.88372" lon="2.4942">
        <ele>44.4</ele>
        <time>2023-09-27T12:24:56Z</time>
      </trkpt>
      <trkpt lat="49.88372" lon="2.49417">
        <ele>44.3</ele>
        <time>2023-09-27T12:24:57Z</time>
      </trkpt>
      <trkpt lat="49.88371" lon="2.49415">
        <ele>44.3</ele>
        <time>2023-09-27T12:24:58Z</time>
      </trkpt>
      <trkpt lat="49.88371" lon="2.49414">
        <ele>44.3</ele>
        <time>2023-09-27T12:24:59Z</time>
      </trkpt>
      <trkpt lat="49.88371" lon="2.49411">
        <ele>44.2</ele>
        <time>2023-09-27T12:25:00Z</time>
      </trkpt>
      <trkpt lat="49.88371" lon="2.49409">
        <ele>44.2</ele>
        <time>2023-09-27T12:25:01Z</time>
      </trkpt>
      <trkpt lat="49.88371" lon="2.49408">
        <ele>44.1</ele>
        <time>2023-09-27T12:25:02Z</time>
      </trkpt>
      <trkpt lat="49.8837" lon="2.49405">
        <ele>44</ele>
        <time>2023-09-27T12:25:03Z</time>
      </trkpt>
      <trkpt lat="49.8837" lon="2.49404">
        <ele>44</ele>
        <time>2023-09-27T12:25:04Z</time>
      </trkpt>
      <trkpt lat="49.8837" lon="2.49403">
        <ele>43.9</ele>
        <time>2023-09-27T12:25:05Z</time>
      </trkpt>
      <trkpt lat="49.8837" lon="2.49401">
        <ele>43.9</ele>
        <time>2023-09-27T12:25:06Z</time>
      </trkpt>
      <trkpt lat="49.8837" lon="2.49399">
        <ele>43.8</ele>
        <time>2023-09-27T12:25:07Z</time>
      </trkpt>
      <trkpt lat="49.8837" lon="2.49398">
        <ele>43.8</ele>
        <time>2023-09-27T12:25:08Z</time>
      </trkpt>
      <trkpt lat="49.8837" lon="2.49396">
        <ele>43.7</ele>
        <time>2023-09-27T12:25:09Z</time>
      </trkpt>
      <trkpt lat="49.88369" lon="2.49395">
        <ele>43.6</ele>
        <time>2023-09-27T12:25:10Z</time>
      </trkpt>
      <trkpt lat="49.88369" lon="2.49393">
        <ele>43.6</ele>
        <time>2023-09-27T12:25:11Z</time>
      </trkpt>
      <trkpt lat="49.88369" lon="2.4939">
        <ele>43.4</ele>
        <time>2023-09-27T12:25:12Z</time>
      </trkpt>
      <trkpt lat="49.88369" lon="2.49388">
        <ele>43.4</ele>
        <time>2023-09-27T12:25:13Z</time>
      </trkpt>
      <trkpt lat="49.88368" lon="2.49387">
        <ele>43.3</ele>
        <time>2023-09-27T12:25:14Z</time>
      </trkpt>
      <trkpt lat="49.88368" lon="2.49384">
        <ele>43.2</ele>
        <time>2023-09-27T12:25:15Z</time>
      </trkpt>
      <trkpt lat="49.88368" lon="2.49383">
        <ele>43.1</ele>
        <time>2023-09-27T12:25:16Z</time>
      </trkpt>
      <trkpt lat="49.88367" lon="2.49381">
        <ele>43.1</ele>
        <time>2023-09-27T12:25:17Z</time>
      </trkpt>
      <trkpt lat="49.88367" lon="2.49378">
        <ele>42.9</ele>
        <time>2023-09-27T12:25:18Z</time>
      </trkpt>
      <trkpt lat="49.88367" lon="2.49377">
        <ele>42.9</ele>
        <time>2023-09-27T12:25:19Z</time>
      </trkpt>
      <trkpt lat="49.88367" lon="2.49376">
        <ele>42.8</ele>
        <time>2023-09-27T12:25:20Z</time>
      </trkpt>
      <trkpt lat="49.88367" lon="2.49374">
        <ele>42.8</ele>
        <time>2023-09-27T12:25:21Z</time>
      </trkpt>
      <trkpt lat="49.88366" lon="2.49373">
        <ele>42.7</ele>
        <time>2023-09-27T12:25:22Z</time>
      </trkpt>
      <trkpt lat="49.88366" lon="2.49371">
        <ele>42.6</ele>
        <time>2023-09-27T12:25:23Z</time>
      </trkpt>
      <trkpt lat="49.88366" lon="2.49369">
        <ele>42.6</ele>
        <time>2023-09-27T12:25:24Z</time>
      </trkpt>
      <trkpt lat="49.88366" lon="2.49367">
        <ele>42.5</ele>
        <time>2023-09-27T12:25:25Z</time>
      </trkpt>
      <trkpt lat="49.88366" lon="2.49365">
        <ele>42.4</ele>
        <time>2023-09-27T12:25:26Z</time>
      </trkpt>
      <trkpt lat="49.88365" lon="2.49362">
        <ele>42.3</ele>
        <time>2023-09-27T12:25:27Z</time>
      </trkpt>
      <trkpt lat="49.88365" lon="2.49361">
        <ele>42.3</ele>
        <time>2023-09-27T12:25:28Z</time>
      </trkpt>
      <trkpt lat="49.88365" lon="2.4936">
        <ele>42.3</ele>
        <time>2023-09-27T12:25:29Z</time>
      </trkpt>
      <trkpt lat="49.88364" lon="2.49357">
        <ele>42.2</ele>
        <time>2023-09-27T12:25:30Z</time>
      </trkpt>
      <trkpt lat="49.88364" lon="2.49355">
        <ele>42.1</ele>
        <time>2023-09-27T12:25:31Z</time>
      </trkpt>
      <trkpt lat="49.88364" lon="2.49354">
        <ele>42.1</ele>
        <time>2023-09-27T12:25:32Z</time>
      </trkpt>
      <trkpt lat="49.88364" lon="2.49351">
        <ele>42.1</ele>
        <time>2023-09-27T12:25:33Z</time>
      </trkpt>
      <trkpt lat="49.88364" lon="2.4935">
        <ele>42</ele>
        <time>2023-09-27T12:25:34Z</time>
      </trkpt>
      <trkpt lat="49.88364" lon="2.49348">
        <ele>42</ele>
        <time>2023-09-27T12:25:35Z</time>
      </trkpt>
      <trkpt lat="49.88363" lon="2.49347">
        <ele>42</ele>
        <time>2023-09-27T12:25:36Z</time>
      </trkpt>
      <trkpt lat="49.88363" lon="2.49345">
        <ele>42</ele>
        <time>2023-09-27T12:25:37Z</time>
      </trkpt>
      <trkpt lat="49.88363" lon="2.49343">
        <ele>42</ele>
        <time>2023-09-27T12:25:38Z</time>
      </trkpt>
      <trkpt lat="49.88363" lon="2.4934">
        <ele>41.9</ele>
        <time>2023-09-27T12:25:39Z</time>
      </trkpt>
      <trkpt lat="49.88363" lon="2.49339">
        <ele>41.9</ele>
        <time>2023-09-27T12:25:40Z</time>
      </trkpt>
      <trkpt lat="49.88363" lon="2.49337">
        <ele>41.9</ele>
        <time>2023-09-27T12:25:41Z</time>
      </trkpt>
      <trkpt lat="49.88363" lon="2.49335">
        <ele>41.9</ele>
        <time>2023-09-27T12:25:42Z</time>
      </trkpt>
      <trkpt lat="49.88362" lon="2.49333">
        <ele>41.9</ele>
        <time>2023-09-27T12:25:43Z</time>
      </trkpt>
      <trkpt lat="49.88362" lon="2.4933">
        <ele>41.9</ele>
        <time>2023-09-27T12:25:44Z</time>
      </trkpt>
      <trkpt lat="49.88362" lon="2.49329">
        <ele>41.9</ele>
        <time>2023-09-27T12:25:45Z</time>
      </trkpt>
      <trkpt lat="49.88362" lon="2.49327">
        <ele>41.9</ele>
        <time>2023-09-27T12:25:46Z</time>
      </trkpt>
      <trkpt lat="49.88361" lon="2.49324">
        <ele>41.9</ele>
        <time>2023-09-27T12:25:47Z</time>
      </trkpt>
      <trkpt lat="49.88361" lon="2.49323">
        <ele>41.9</ele>
        <time>2023-09-27T12:25:48Z</time>
      </trkpt>
      <trkpt lat="49.88361" lon="2.49322">
        <ele>41.9</ele>
        <time>2023-09-27T12:25:49Z</time>
      </trkpt>
      <trkpt lat="49.88361" lon="2.4932">
        <ele>41.9</ele>
        <time>2023-09-27T12:25:50Z</time>
      </trkpt>
      <trkpt lat="49.88361" lon="2.49318">
        <ele>41.9</ele>
        <time>2023-09-27T12:25:51Z</time>
      </trkpt>
      <trkpt lat="49.8836" lon="2.49317">
        <ele>41.9</ele>
        <time>2023-09-27T12:25:52Z</time>
      </trkpt>
      <trkpt lat="49.8836" lon="2.49315">
        <ele>41.9</ele>
        <time>2023-09-27T12:25:53Z</time>
      </trkpt>
      <trkpt lat="49.8836" lon="2.49314">
        <ele>41.9</ele>
        <time>2023-09-27T12:25:54Z</time>
      </trkpt>
      <trkpt lat="49.8836" lon="2.49312">
        <ele>41.9</ele>
        <time>2023-09-27T12:25:55Z</time>
      </trkpt>
      <trkpt lat="49.88359" lon="2.49309">
        <ele>41.9</ele>
        <time>2023-09-27T12:25:56Z</time>
      </trkpt>
      <trkpt lat="49.88359" lon="2.49307">
        <ele>41.9</ele>
        <time>2023-09-27T12:25:57Z</time>
      </trkpt>
      <trkpt lat="49.88359" lon="2.49306">
        <ele>41.9</ele>
        <time>2023-09-27T12:25:58Z</time>
      </trkpt>
      <trkpt lat="49.88358" lon="2.49303">
        <ele>41.8</ele>
        <time>2023-09-27T12:25:59Z</time>
      </trkpt>
      <trkpt lat="49.88358" lon="2.49301">
        <ele>41.8</ele>
        <time>2023-09-27T12:26:00Z</time>
      </trkpt>
      <trkpt lat="49.88358" lon="2.493">
        <ele>41.8</ele>
        <time>2023-09-27T12:26:01Z</time>
      </trkpt>
      <trkpt lat="49.88358" lon="2.49297">
        <ele>41.7</ele>
        <time>2023-09-27T12:26:02Z</time>
      </trkpt>
      <trkpt lat="49.88358" lon="2.49295">
        <ele>41.7</ele>
        <time>2023-09-27T12:26:03Z</time>
      </trkpt>
      <trkpt lat="49.88358" lon="2.49294">
        <ele>41.7</ele>
        <time>2023-09-27T12:26:04Z</time>
      </trkpt>
      <trkpt lat="49.88357" lon="2.49291">
        <ele>41.6</ele>
        <time>2023-09-27T12:26:05Z</time>
      </trkpt>
      <trkpt lat="49.88357" lon="2.49289">
        <ele>41.6</ele>
        <time>2023-09-27T12:26:06Z</time>
      </trkpt>
      <trkpt lat="49.88357" lon="2.49288">
        <ele>41.5</ele>
        <time>2023-09-27T12:26:07Z</time>
      </trkpt>
      <trkpt lat="49.88357" lon="2.49286">
        <ele>41.5</ele>
        <time>2023-09-27T12:26:08Z</time>
      </trkpt>
      <trkpt lat="49.88357" lon="2.49284">
        <ele>41.5</ele>
        <time>2023-09-27T12:26:09Z</time>
      </trkpt>
      <trkpt lat="49.88356" lon="2.49283">
        <ele>41.4</ele>
        <time>2023-09-27T12:26:10Z</time>
      </trkpt>
      <trkpt lat="49.88356" lon="2.49281">
        <ele>41.4</ele>
        <time>2023-09-27T12:26:11Z</time>
      </trkpt>
      <trkpt lat="49.88356" lon="2.49279">
        <ele>41.4</ele>
        <time>2023-09-27T12:26:12Z</time>
      </trkpt>
      <trkpt lat="49.88356" lon="2.49277">
        <ele>41.3</ele>
        <time>2023-09-27T12:26:13Z</time>
      </trkpt>
      <trkpt lat="49.88355" lon="2.49274">
        <ele>41.2</ele>
        <time>2023-09-27T12:26:14Z</time>
      </trkpt>
      <trkpt lat="49.88355" lon="2.49273">
        <ele>41.2</ele>
        <time>2023-09-27T12:26:15Z</time>
      </trkpt>
      <trkpt lat="49.88355" lon="2.49272">
        <ele>41.2</ele>
        <time>2023-09-27T12:26:16Z</time>
      </trkpt>
      <trkpt lat="49.88355" lon="2.49269">
        <ele>41.1</ele>
        <time>2023-09-27T12:26:17Z</time>
      </trkpt>
      <trkpt lat="49.88354" lon="2.49267">
        <ele>41.1</ele>
        <time>2023-09-27T12:26:18Z</time>
      </trkpt>
      <trkpt lat="49.88354" lon="2.49266">
        <ele>41.1</ele>
        <time>2023-09-27T12:26:19Z</time>
      </trkpt>
      <trkpt lat="49.88354" lon="2.49263">
        <ele>41.1</ele>
        <time>2023-09-27T12:26:20Z</time>
      </trkpt>
      <trkpt lat="49.88353" lon="2.49262">
        <ele>41</ele>
        <time>2023-09-27T12:26:21Z</time>
      </trkpt>
      <trkpt lat="49.88353" lon="2.49261">
        <ele>41</ele>
        <time>2023-09-27T12:26:22Z</time>
      </trkpt>
      <trkpt lat="49.88353" lon="2.49259">
        <ele>41</ele>
        <time>2023-09-27T12:26:23Z</time>
      </trkpt>
      <trkpt lat="49.88353" lon="2.49257">
        <ele>41</ele>
        <time>2023-09-27T12:26:24Z</time>
      </trkpt>
      <trkpt lat="49.88353" lon="2.49256">
        <ele>41</ele>
        <time>2023-09-27T12:26:25Z</time>
      </trkpt>
      <trkpt lat="49.88352" lon="2.49254">
        <ele>41</ele>
        <time>2023-09-27T12:26:26Z</time>
      </trkpt>
      <trkpt lat="49.88352" lon="2.49252">
        <ele>41</ele>
        <time>2023-09-27T12:26:27Z</time>
      </trkpt>
      <trkpt lat="49.88352" lon="2.49251">
        <ele>41</ele>
        <time>2023-09-27T12:26:28Z</time>
      </trkpt>
      <trkpt lat="49.88351" lon="2.49248">
        <ele>40.9</ele>
        <time>2023-09-27T12:26:29Z</time>
      </trkpt>
      <trkpt lat="49.88351" lon="2.49247">
        <ele>40.9</ele>
        <time>2023-09-27T12:26:30Z</time>
      </trkpt>
      <trkpt lat="49.88351" lon="2.49245">
        <ele>40.9</ele>
        <time>2023-09-27T12:26:31Z</time>
      </trkpt>
      <trkpt lat="49.8835" lon="2.49242">
        <ele>40.9</ele>
        <time>2023-09-27T12:26:32Z</time>
      </trkpt>
      <trkpt lat="49.8835" lon="2.49241">
        <ele>40.9</ele>
        <time>2023-09-27T12:26:33Z</time>
      </trkpt>
      <trkpt lat="49.8835" lon="2.4924">
        <ele>40.9</ele>
        <time>2023-09-27T12:26:34Z</time>
      </trkpt>
      <trkpt lat="49.88349" lon="2.49238">
        <ele>40.9</ele>
        <time>2023-09-27T12:26:35Z</time>
      </trkpt>
      <trkpt lat="49.88349" lon="2.49237">
        <ele>40.9</ele>
        <time>2023-09-27T12:26:36Z</time>
      </trkpt>
      <trkpt lat="49.88349" lon="2.49235">
        <ele>40.9</ele>
        <time>2023-09-27T12:26:37Z</time>
      </trkpt>
      <trkpt lat="49.88348" lon="2.49234">
        <ele>40.9</ele>
        <time>2023-09-27T12:26:38Z</time>
      </trkpt>
      <trkpt lat="49.88348" lon="2.49232">
        <ele>40.9</ele>
        <time>2023-09-27T12:26:39Z</time>
      </trkpt>
      <trkpt lat="49.88347" lon="2.4923">
        <ele>40.9</ele>
        <time>2023-09-27T12:26:40Z</time>
      </trkpt>
      <trkpt lat="49.88346" lon="2.49227">
        <ele>40.9</ele>
        <time>2023-09-27T12:26:41Z</time>
      </trkpt>
      <trkpt lat="49.88346" lon="2.49226">
        <ele>40.9</ele>
        <time>2023-09-27T12:26:42Z</time>
      </trkpt>
      <trkpt lat="49.88346" lon="2.49225">
        <ele>40.9</ele>
        <time>2023-09-27T12:26:43Z</time>
      </trkpt>
      <trkpt lat="49.88345" lon="2.49222">
        <ele>40.9</ele>
        <time>2023-09-27T12:26:44Z</time>
      </trkpt>
      <trkpt lat="49.88345" lon="2.4922">
        <ele>40.9</ele>
        <time>2023-09-27T12:26:45Z</time>
      </trkpt>
      <trkpt lat="49.88344" lon="2.49219">
        <ele>40.9</ele>
        <time>2023-09-27T12:26:46Z</time>
      </trkpt>
      <trkpt lat="49.88344" lon="2.49217">
        <ele>40.9</ele>
        <time>2023-09-27T12:26:47Z</time>
      </trkpt>
      <trkpt lat="49.88344" lon="2.49216">
        <ele>40.9</ele>
        <time>2023-09-27T12:26:48Z</time>
      </trkpt>
      <trkpt lat="49.88343" lon="2.49214">
        <ele>40.9</ele>
        <time>2023-09-27T12:26:49Z</time>
      </trkpt>
      <trkpt lat="49.88343" lon="2.49213">
        <ele>40.9</ele>
        <time>2023-09-27T12:26:50Z</time>
      </trkpt>
      <trkpt lat="49.88343" lon="2.49211">
        <ele>40.9</ele>
        <time>2023-09-27T12:26:51Z</time>
      </trkpt>
      <trkpt lat="49.88343" lon="2.49209">
        <ele>40.9</ele>
        <time>2023-09-27T12:26:52Z</time>
      </trkpt>
      <trkpt lat="49.88342" lon="2.49206">
        <ele>40.9</ele>
        <time>2023-09-27T12:26:53Z</time>
      </trkpt>
      <trkpt lat="49.88342" lon="2.49205">
        <ele>40.9</ele>
        <time>2023-09-27T12:26:54Z</time>
      </trkpt>
      <trkpt lat="49.88342" lon="2.49204">
        <ele>40.9</ele>
        <time>2023-09-27T12:26:55Z</time>
      </trkpt>
      <trkpt lat="49.88341" lon="2.49201">
        <ele>40.9</ele>
        <time>2023-09-27T12:26:56Z</time>
      </trkpt>
      <trkpt lat="49.88341" lon="2.49199">
        <ele>40.9</ele>
        <time>2023-09-27T12:26:57Z</time>
      </trkpt>
      <trkpt lat="49.88341" lon="2.49198">
        <ele>40.9</ele>
        <time>2023-09-27T12:26:58Z</time>
      </trkpt>
      <trkpt lat="49.88341" lon="2.49196">
        <ele>40.9</ele>
        <time>2023-09-27T12:26:59Z</time>
      </trkpt>
      <trkpt lat="49.88341" lon="2.49194">
        <ele>40.9</ele>
        <time>2023-09-27T12:27:00Z</time>
      </trkpt>
      <trkpt lat="49.88341" lon="2.49193">
        <ele>40.9</ele>
        <time>2023-09-27T12:27:01Z</time>
      </trkpt>
      <trkpt lat="49.88341" lon="2.49191">
        <ele>40.9</ele>
        <time>2023-09-27T12:27:02Z</time>
      </trkpt>
      <trkpt lat="49.88341" lon="2.49189">
        <ele>40.9</ele>
        <time>2023-09-27T12:27:03Z</time>
      </trkpt>
      <trkpt lat="49.88341" lon="2.49188">
        <ele>40.9</ele>
        <time>2023-09-27T12:27:04Z</time>
      </trkpt>
      <trkpt lat="49.8834" lon="2.49186">
        <ele>40.8</ele>
        <time>2023-09-27T12:27:05Z</time>
      </trkpt>
      <trkpt lat="49.8834" lon="2.49184">
        <ele>40.8</ele>
        <time>2023-09-27T12:27:06Z</time>
      </trkpt>
      <trkpt lat="49.8834" lon="2.49182">
        <ele>40.8</ele>
        <time>2023-09-27T12:27:07Z</time>
      </trkpt>
      <trkpt lat="49.8834" lon="2.49181">
        <ele>40.8</ele>
        <time>2023-09-27T12:27:08Z</time>
      </trkpt>
      <trkpt lat="49.8834" lon="2.49179">
        <ele>40.8</ele>
        <time>2023-09-27T12:27:09Z</time>
      </trkpt>
      <trkpt lat="49.8834" lon="2.49177">
        <ele>40.8</ele>
        <time>2023-09-27T12:27:10Z</time>
      </trkpt>
      <trkpt lat="49.8834" lon="2.49175">
        <ele>40.7</ele>
        <time>2023-09-27T12:27:11Z</time>
      </trkpt>
      <trkpt lat="49.88339" lon="2.49173">
        <ele>40.7</ele>
        <time>2023-09-27T12:27:12Z</time>
      </trkpt>
      <trkpt lat="49.88339" lon="2.49172">
        <ele>40.7</ele>
        <time>2023-09-27T12:27:13Z</time>
      </trkpt>
      <trkpt lat="49.88339" lon="2.4917">
        <ele>40.7</ele>
        <time>2023-09-27T12:27:14Z</time>
      </trkpt>
      <trkpt lat="49.88339" lon="2.49168">
        <ele>40.7</ele>
        <time>2023-09-27T12:27:15Z</time>
      </trkpt>
      <trkpt lat="49.88338" lon="2.49166">
        <ele>40.7</ele>
        <time>2023-09-27T12:27:16Z</time>
      </trkpt>
      <trkpt lat="49.88338" lon="2.49165">
        <ele>40.7</ele>
        <time>2023-09-27T12:27:17Z</time>
      </trkpt>
      <trkpt lat="49.88338" lon="2.49163">
        <ele>40.7</ele>
        <time>2023-09-27T12:27:18Z</time>
      </trkpt>
      <trkpt lat="49.88338" lon="2.49162">
        <ele>40.7</ele>
        <time>2023-09-27T12:27:19Z</time>
      </trkpt>
      <trkpt lat="49.88338" lon="2.4916">
        <ele>40.7</ele>
        <time>2023-09-27T12:27:20Z</time>
      </trkpt>
      <trkpt lat="49.88337" lon="2.49158">
        <ele>40.7</ele>
        <time>2023-09-27T12:27:21Z</time>
      </trkpt>
      <trkpt lat="49.88337" lon="2.49156">
        <ele>40.7</ele>
        <time>2023-09-27T12:27:22Z</time>
      </trkpt>
      <trkpt lat="49.88337" lon="2.49153">
        <ele>40.7</ele>
        <time>2023-09-27T12:27:23Z</time>
      </trkpt>
      <trkpt lat="49.88337" lon="2.49152">
        <ele>40.7</ele>
        <time>2023-09-27T12:27:24Z</time>
      </trkpt>
      <trkpt lat="49.88336" lon="2.49151">
        <ele>40.7</ele>
        <time>2023-09-27T12:27:25Z</time>
      </trkpt>
      <trkpt lat="49.88336" lon="2.49147">
        <ele>40.7</ele>
        <time>2023-09-27T12:27:26Z</time>
      </trkpt>
      <trkpt lat="49.88336" lon="2.49146">
        <ele>40.7</ele>
        <time>2023-09-27T12:27:27Z</time>
      </trkpt>
      <trkpt lat="49.88335" lon="2.49145">
        <ele>40.7</ele>
        <time>2023-09-27T12:27:28Z</time>
      </trkpt>
      <trkpt lat="49.88335" lon="2.49143">
        <ele>40.7</ele>
        <time>2023-09-27T12:27:29Z</time>
      </trkpt>
      <trkpt lat="49.88335" lon="2.49141">
        <ele>40.7</ele>
        <time>2023-09-27T12:27:30Z</time>
      </trkpt>
      <trkpt lat="49.88335" lon="2.4914">
        <ele>40.7</ele>
        <time>2023-09-27T12:27:31Z</time>
      </trkpt>
      <trkpt lat="49.88334" lon="2.49138">
        <ele>40.7</ele>
        <time>2023-09-27T12:27:32Z</time>
      </trkpt>
      <trkpt lat="49.88334" lon="2.49137">
        <ele>40.7</ele>
        <time>2023-09-27T12:27:33Z</time>
      </trkpt>
      <trkpt lat="49.88334" lon="2.49135">
        <ele>40.7</ele>
        <time>2023-09-27T12:27:34Z</time>
      </trkpt>
      <trkpt lat="49.88333" lon="2.49134">
        <ele>40.7</ele>
        <time>2023-09-27T12:27:35Z</time>
      </trkpt>
      <trkpt lat="49.88333" lon="2.49132">
        <ele>40.7</ele>
        <time>2023-09-27T12:27:36Z</time>
      </trkpt>
      <trkpt lat="49.88333" lon="2.4913">
        <ele>40.7</ele>
        <time>2023-09-27T12:27:37Z</time>
      </trkpt>
      <trkpt lat="49.88332" lon="2.49127">
        <ele>40.7</ele>
        <time>2023-09-27T12:27:38Z</time>
      </trkpt>
      <trkpt lat="49.88332" lon="2.49126">
        <ele>40.7</ele>
        <time>2023-09-27T12:27:39Z</time>
      </trkpt>
      <trkpt lat="49.88331" lon="2.49125">
        <ele>40.7</ele>
        <time>2023-09-27T12:27:40Z</time>
      </trkpt>
      <trkpt lat="49.88331" lon="2.49122">
        <ele>40.7</ele>
        <time>2023-09-27T12:27:41Z</time>
      </trkpt>
      <trkpt lat="49.8833" lon="2.49121">
        <ele>40.7</ele>
        <time>2023-09-27T12:27:42Z</time>
      </trkpt>
      <trkpt lat="49.8833" lon="2.4912">
        <ele>40.7</ele>
        <time>2023-09-27T12:27:43Z</time>
      </trkpt>
      <trkpt lat="49.8833" lon="2.49118">
        <ele>40.6</ele>
        <time>2023-09-27T12:27:44Z</time>
      </trkpt>
      <trkpt lat="49.88329" lon="2.49117">
        <ele>40.6</ele>
        <time>2023-09-27T12:27:45Z</time>
      </trkpt>
      <trkpt lat="49.88329" lon="2.49115">
        <ele>40.6</ele>
        <time>2023-09-27T12:27:46Z</time>
      </trkpt>
      <trkpt lat="49.88329" lon="2.49114">
        <ele>40.6</ele>
        <time>2023-09-27T12:27:47Z</time>
      </trkpt>
      <trkpt lat="49.88328" lon="2.49112">
        <ele>40.6</ele>
        <time>2023-09-27T12:27:48Z</time>
      </trkpt>
      <trkpt lat="49.88328" lon="2.4911">
        <ele>40.6</ele>
        <time>2023-09-27T12:27:49Z</time>
      </trkpt>
      <trkpt lat="49.88327" lon="2.49107">
        <ele>40.6</ele>
        <time>2023-09-27T12:27:50Z</time>
      </trkpt>
      <trkpt lat="49.88327" lon="2.49106">
        <ele>40.6</ele>
        <time>2023-09-27T12:27:51Z</time>
      </trkpt>
      <trkpt lat="49.88327" lon="2.49104">
        <ele>40.6</ele>
        <time>2023-09-27T12:27:52Z</time>
      </trkpt>
      <trkpt lat="49.88326" lon="2.49101">
        <ele>40.6</ele>
        <time>2023-09-27T12:27:53Z</time>
      </trkpt>
      <trkpt lat="49.88326" lon="2.491">
        <ele>40.6</ele>
        <time>2023-09-27T12:27:54Z</time>
      </trkpt>
      <trkpt lat="49.88326" lon="2.49099">
        <ele>40.6</ele>
        <time>2023-09-27T12:27:55Z</time>
      </trkpt>
      <trkpt lat="49.88326" lon="2.49097">
        <ele>40.6</ele>
        <time>2023-09-27T12:27:56Z</time>
      </trkpt>
      <trkpt lat="49.88325" lon="2.49095">
        <ele>40.6</ele>
        <time>2023-09-27T12:27:57Z</time>
      </trkpt>
      <trkpt lat="49.88325" lon="2.49094">
        <ele>40.6</ele>
        <time>2023-09-27T12:27:58Z</time>
      </trkpt>
      <trkpt lat="49.88325" lon="2.49092">
        <ele>40.7</ele>
        <time>2023-09-27T12:27:59Z</time>
      </trkpt>
      <trkpt lat="49.88325" lon="2.4909">
        <ele>40.7</ele>
        <time>2023-09-27T12:28:00Z</time>
      </trkpt>
      <trkpt lat="49.88325" lon="2.49088">
        <ele>40.7</ele>
        <time>2023-09-27T12:28:01Z</time>
      </trkpt>
      <trkpt lat="49.88325" lon="2.49085">
        <ele>40.7</ele>
        <time>2023-09-27T12:28:02Z</time>
      </trkpt>
      <trkpt lat="49.88325" lon="2.49084">
        <ele>40.7</ele>
        <time>2023-09-27T12:28:03Z</time>
      </trkpt>
      <trkpt lat="49.88325" lon="2.49083">
        <ele>40.7</ele>
        <time>2023-09-27T12:28:04Z</time>
      </trkpt>
      <trkpt lat="49.88325" lon="2.49081">
        <ele>40.7</ele>
        <time>2023-09-27T12:28:05Z</time>
      </trkpt>
      <trkpt lat="49.88325" lon="2.4908">
        <ele>40.8</ele>
        <time>2023-09-27T12:28:06Z</time>
      </trkpt>
      <trkpt lat="49.88325" lon="2.49078">
        <ele>40.8</ele>
        <time>2023-09-27T12:28:07Z</time>
      </trkpt>
      <trkpt lat="49.88325" lon="2.49077">
        <ele>40.8</ele>
        <time>2023-09-27T12:28:08Z</time>
      </trkpt>
      <trkpt lat="49.88325" lon="2.49075">
        <ele>40.8</ele>
        <time>2023-09-27T12:28:09Z</time>
      </trkpt>
      <trkpt lat="49.88325" lon="2.49074">
        <ele>40.8</ele>
        <time>2023-09-27T12:28:10Z</time>
      </trkpt>
      <trkpt lat="49.88324" lon="2.49072">
        <ele>40.8</ele>
        <time>2023-09-27T12:28:11Z</time>
      </trkpt>
      <trkpt lat="49.88324" lon="2.49071">
        <ele>40.8</ele>
        <time>2023-09-27T12:28:12Z</time>
      </trkpt>
      <trkpt lat="49.88324" lon="2.49069">
        <ele>40.8</ele>
        <time>2023-09-27T12:28:13Z</time>
      </trkpt>
      <trkpt lat="49.88323" lon="2.49067">
        <ele>40.8</ele>
        <time>2023-09-27T12:28:14Z</time>
      </trkpt>
      <trkpt lat="49.88323" lon="2.49066">
        <ele>40.8</ele>
        <time>2023-09-27T12:28:15Z</time>
      </trkpt>
      <trkpt lat="49.88323" lon="2.49064">
        <ele>40.9</ele>
        <time>2023-09-27T12:28:16Z</time>
      </trkpt>
      <trkpt lat="49.88322" lon="2.49062">
        <ele>40.9</ele>
        <time>2023-09-27T12:28:17Z</time>
      </trkpt>
      <trkpt lat="49.88322" lon="2.49061">
        <ele>40.9</ele>
        <time>2023-09-27T12:28:18Z</time>
      </trkpt>
      <trkpt lat="49.88322" lon="2.49059">
        <ele>40.9</ele>
        <time>2023-09-27T12:28:19Z</time>
      </trkpt>
      <trkpt lat="49.88322" lon="2.49058">
        <ele>40.8</ele>
        <time>2023-09-27T12:28:20Z</time>
      </trkpt>
      <trkpt lat="49.88321" lon="2.49057">
        <ele>40.8</ele>
        <time>2023-09-27T12:28:21Z</time>
      </trkpt>
      <trkpt lat="49.88321" lon="2.49055">
        <ele>40.8</ele>
        <time>2023-09-27T12:28:22Z</time>
      </trkpt>
      <trkpt lat="49.88321" lon="2.49053">
        <ele>40.8</ele>
        <time>2023-09-27T12:28:23Z</time>
      </trkpt>
      <trkpt lat="49.88321" lon="2.49052">
        <ele>40.8</ele>
        <time>2023-09-27T12:28:24Z</time>
      </trkpt>
      <trkpt lat="49.8832" lon="2.4905">
        <ele>40.8</ele>
        <time>2023-09-27T12:28:25Z</time>
      </trkpt>
      <trkpt lat="49.8832" lon="2.49048">
        <ele>40.8</ele>
        <time>2023-09-27T12:28:26Z</time>
      </trkpt>
      <trkpt lat="49.8832" lon="2.49046">
        <ele>40.8</ele>
        <time>2023-09-27T12:28:27Z</time>
      </trkpt>
      <trkpt lat="49.8832" lon="2.49045">
        <ele>40.7</ele>
        <time>2023-09-27T12:28:28Z</time>
      </trkpt>
      <trkpt lat="49.88319" lon="2.49043">
        <ele>40.7</ele>
        <time>2023-09-27T12:28:29Z</time>
      </trkpt>
      <trkpt lat="49.88319" lon="2.49041">
        <ele>40.7</ele>
        <time>2023-09-27T12:28:30Z</time>
      </trkpt>
      <trkpt lat="49.88319" lon="2.49039">
        <ele>40.7</ele>
        <time>2023-09-27T12:28:31Z</time>
      </trkpt>
      <trkpt lat="49.88319" lon="2.49038">
        <ele>40.7</ele>
        <time>2023-09-27T12:28:32Z</time>
      </trkpt>
      <trkpt lat="49.88319" lon="2.49036">
        <ele>40.7</ele>
        <time>2023-09-27T12:28:33Z</time>
      </trkpt>
      <trkpt lat="49.88319" lon="2.49035">
        <ele>40.6</ele>
        <time>2023-09-27T12:28:34Z</time>
      </trkpt>
      <trkpt lat="49.88319" lon="2.49033">
        <ele>40.6</ele>
        <time>2023-09-27T12:28:35Z</time>
      </trkpt>
      <trkpt lat="49.88318" lon="2.49031">
        <ele>40.6</ele>
        <time>2023-09-27T12:28:36Z</time>
      </trkpt>
      <trkpt lat="49.88318" lon="2.4903">
        <ele>40.6</ele>
        <time>2023-09-27T12:28:37Z</time>
      </trkpt>
      <trkpt lat="49.88318" lon="2.49027">
        <ele>40.6</ele>
        <time>2023-09-27T12:28:38Z</time>
      </trkpt>
      <trkpt lat="49.88318" lon="2.49025">
        <ele>40.6</ele>
        <time>2023-09-27T12:28:39Z</time>
      </trkpt>
      <trkpt lat="49.88318" lon="2.49024">
        <ele>40.6</ele>
        <time>2023-09-27T12:28:40Z</time>
      </trkpt>
      <trkpt lat="49.88318" lon="2.49021">
        <ele>40.5</ele>
        <time>2023-09-27T12:28:41Z</time>
      </trkpt>
      <trkpt lat="49.88317" lon="2.4902">
        <ele>40.5</ele>
        <time>2023-09-27T12:28:42Z</time>
      </trkpt>
      <trkpt lat="49.88317" lon="2.49018">
        <ele>40.5</ele>
        <time>2023-09-27T12:28:43Z</time>
      </trkpt>
      <trkpt lat="49.88317" lon="2.49015">
        <ele>40.5</ele>
        <time>2023-09-27T12:28:44Z</time>
      </trkpt>
      <trkpt lat="49.88317" lon="2.49014">
        <ele>40.5</ele>
        <time>2023-09-27T12:28:45Z</time>
      </trkpt>
      <trkpt lat="49.88317" lon="2.49013">
        <ele>40.5</ele>
        <time>2023-09-27T12:28:46Z</time>
      </trkpt>
      <trkpt lat="49.88317" lon="2.49011">
        <ele>40.4</ele>
        <time>2023-09-27T12:28:47Z</time>
      </trkpt>
      <trkpt lat="49.88317" lon="2.49009">
        <ele>40.4</ele>
        <time>2023-09-27T12:28:48Z</time>
      </trkpt>
      <trkpt lat="49.88317" lon="2.49008">
        <ele>40.4</ele>
        <time>2023-09-27T12:28:49Z</time>
      </trkpt>
      <trkpt lat="49.88317" lon="2.49006">
        <ele>40.4</ele>
        <time>2023-09-27T12:28:50Z</time>
      </trkpt>
      <trkpt lat="49.88317" lon="2.49004">
        <ele>40.3</ele>
        <time>2023-09-27T12:28:51Z</time>
      </trkpt>
      <trkpt lat="49.88316" lon="2.49002">
        <ele>40.3</ele>
        <time>2023-09-27T12:28:52Z</time>
      </trkpt>
      <trkpt lat="49.88316" lon="2.48999">
        <ele>40.3</ele>
        <time>2023-09-27T12:28:53Z</time>
      </trkpt>
      <trkpt lat="49.88316" lon="2.48998">
        <ele>40.2</ele>
        <time>2023-09-27T12:28:54Z</time>
      </trkpt>
      <trkpt lat="49.88316" lon="2.48997">
        <ele>40.2</ele>
        <time>2023-09-27T12:28:55Z</time>
      </trkpt>
      <trkpt lat="49.88316" lon="2.48993">
        <ele>40.2</ele>
        <time>2023-09-27T12:28:56Z</time>
      </trkpt>
      <trkpt lat="49.88316" lon="2.48992">
        <ele>40.2</ele>
        <time>2023-09-27T12:28:57Z</time>
      </trkpt>
      <trkpt lat="49.88316" lon="2.48991">
        <ele>40.1</ele>
        <time>2023-09-27T12:28:58Z</time>
      </trkpt>
      <trkpt lat="49.88316" lon="2.48989">
        <ele>40.1</ele>
        <time>2023-09-27T12:28:59Z</time>
      </trkpt>
      <trkpt lat="49.88316" lon="2.48987">
        <ele>40.1</ele>
        <time>2023-09-27T12:29:00Z</time>
      </trkpt>
      <trkpt lat="49.88316" lon="2.48986">
        <ele>40.1</ele>
        <time>2023-09-27T12:29:01Z</time>
      </trkpt>
      <trkpt lat="49.88316" lon="2.48984">
        <ele>40</ele>
        <time>2023-09-27T12:29:02Z</time>
      </trkpt>
      <trkpt lat="49.88316" lon="2.48982">
        <ele>40</ele>
        <time>2023-09-27T12:29:03Z</time>
      </trkpt>
      <trkpt lat="49.88315" lon="2.4898">
        <ele>40</ele>
        <time>2023-09-27T12:29:04Z</time>
      </trkpt>
      <trkpt lat="49.88315" lon="2.48977">
        <ele>40</ele>
        <time>2023-09-27T12:29:05Z</time>
      </trkpt>
      <trkpt lat="49.88315" lon="2.48976">
        <ele>40</ele>
        <time>2023-09-27T12:29:06Z</time>
      </trkpt>
      <trkpt lat="49.88315" lon="2.48974">
        <ele>39.9</ele>
        <time>2023-09-27T12:29:07Z</time>
      </trkpt>
      <trkpt lat="49.88314" lon="2.48971">
        <ele>39.9</ele>
        <time>2023-09-27T12:29:08Z</time>
      </trkpt>
      <trkpt lat="49.88314" lon="2.4897">
        <ele>39.9</ele>
        <time>2023-09-27T12:29:09Z</time>
      </trkpt>
      <trkpt lat="49.88314" lon="2.48969">
        <ele>39.9</ele>
        <time>2023-09-27T12:29:10Z</time>
      </trkpt>
      <trkpt lat="49.88314" lon="2.48967">
        <ele>39.9</ele>
        <time>2023-09-27T12:29:11Z</time>
      </trkpt>
      <trkpt lat="49.88314" lon="2.48965">
        <ele>39.8</ele>
        <time>2023-09-27T12:29:12Z</time>
      </trkpt>
      <trkpt lat="49.88314" lon="2.48964">
        <ele>39.8</ele>
        <time>2023-09-27T12:29:13Z</time>
      </trkpt>
      <trkpt lat="49.88313" lon="2.48961">
        <ele>39.8</ele>
        <time>2023-09-27T12:29:14Z</time>
      </trkpt>
      <trkpt lat="49.88313" lon="2.4896">
        <ele>39.8</ele>
        <time>2023-09-27T12:29:15Z</time>
      </trkpt>
      <trkpt lat="49.88313" lon="2.48958">
        <ele>39.8</ele>
        <time>2023-09-27T12:29:16Z</time>
      </trkpt>
      <trkpt lat="49.88313" lon="2.48955">
        <ele>39.7</ele>
        <time>2023-09-27T12:29:17Z</time>
      </trkpt>
      <trkpt lat="49.88313" lon="2.48954">
        <ele>39.7</ele>
        <time>2023-09-27T12:29:18Z</time>
      </trkpt>
      <trkpt lat="49.88312" lon="2.48952">
        <ele>39.7</ele>
        <time>2023-09-27T12:29:19Z</time>
      </trkpt>
      <trkpt lat="49.88312" lon="2.48949">
        <ele>39.7</ele>
        <time>2023-09-27T12:29:20Z</time>
      </trkpt>
      <trkpt lat="49.88312" lon="2.48948">
        <ele>39.6</ele>
        <time>2023-09-27T12:29:21Z</time>
      </trkpt>
      <trkpt lat="49.88312" lon="2.48947">
        <ele>39.6</ele>
        <time>2023-09-27T12:29:22Z</time>
      </trkpt>
      <trkpt lat="49.88312" lon="2.48945">
        <ele>39.6</ele>
        <time>2023-09-27T12:29:23Z</time>
      </trkpt>
      <trkpt lat="49.88312" lon="2.48943">
        <ele>39.6</ele>
        <time>2023-09-27T12:29:24Z</time>
      </trkpt>
      <trkpt lat="49.88312" lon="2.48942">
        <ele>39.6</ele>
        <time>2023-09-27T12:29:25Z</time>
      </trkpt>
      <trkpt lat="49.88312" lon="2.4894">
        <ele>39.5</ele>
        <time>2023-09-27T12:29:26Z</time>
      </trkpt>
      <trkpt lat="49.88311" lon="2.48938">
        <ele>39.5</ele>
        <time>2023-09-27T12:29:27Z</time>
      </trkpt>
      <trkpt lat="49.88311" lon="2.48936">
        <ele>39.5</ele>
        <time>2023-09-27T12:29:28Z</time>
      </trkpt>
      <trkpt lat="49.88311" lon="2.48933">
        <ele>39.5</ele>
        <time>2023-09-27T12:29:29Z</time>
      </trkpt>
      <trkpt lat="49.88311" lon="2.48932">
        <ele>39.4</ele>
        <time>2023-09-27T12:29:30Z</time>
      </trkpt>
      <trkpt lat="49.88311" lon="2.48931">
        <ele>39.4</ele>
        <time>2023-09-27T12:29:31Z</time>
      </trkpt>
      <trkpt lat="49.88311" lon="2.48929">
        <ele>39.4</ele>
        <time>2023-09-27T12:29:32Z</time>
      </trkpt>
      <trkpt lat="49.88311" lon="2.48927">
        <ele>39.4</ele>
        <time>2023-09-27T12:29:33Z</time>
      </trkpt>
      <trkpt lat="49.88311" lon="2.48925">
        <ele>39.3</ele>
        <time>2023-09-27T12:29:34Z</time>
      </trkpt>
      <trkpt lat="49.8831" lon="2.48924">
        <ele>39.3</ele>
        <time>2023-09-27T12:29:35Z</time>
      </trkpt>
      <trkpt lat="49.8831" lon="2.48922">
        <ele>39.3</ele>
        <time>2023-09-27T12:29:36Z</time>
      </trkpt>
      <trkpt lat="49.8831" lon="2.4892">
        <ele>39.3</ele>
        <time>2023-09-27T12:29:37Z</time>
      </trkpt>
      <trkpt lat="49.8831" lon="2.48919">
        <ele>39.3</ele>
        <time>2023-09-27T12:29:38Z</time>
      </trkpt>
      <trkpt lat="49.8831" lon="2.48917">
        <ele>39.2</ele>
        <time>2023-09-27T12:29:39Z</time>
      </trkpt>
      <trkpt lat="49.8831" lon="2.48915">
        <ele>39.2</ele>
        <time>2023-09-27T12:29:40Z</time>
      </trkpt>
      <trkpt lat="49.8831" lon="2.48911">
        <ele>39.2</ele>
        <time>2023-09-27T12:29:41Z</time>
      </trkpt>
      <trkpt lat="49.8831" lon="2.4891">
        <ele>39.1</ele>
        <time>2023-09-27T12:29:42Z</time>
      </trkpt>
      <trkpt lat="49.8831" lon="2.48909">
        <ele>39.1</ele>
        <time>2023-09-27T12:29:43Z</time>
      </trkpt>
      <trkpt lat="49.8831" lon="2.48905">
        <ele>39.1</ele>
        <time>2023-09-27T12:29:44Z</time>
      </trkpt>
      <trkpt lat="49.8831" lon="2.48904">
        <ele>39.1</ele>
        <time>2023-09-27T12:29:45Z</time>
      </trkpt>
      <trkpt lat="49.8831" lon="2.48903">
        <ele>39</ele>
        <time>2023-09-27T12:29:46Z</time>
      </trkpt>
      <trkpt lat="49.8831" lon="2.48901">
        <ele>39</ele>
        <time>2023-09-27T12:29:47Z</time>
      </trkpt>
      <trkpt lat="49.8831" lon="2.48899">
        <ele>39</ele>
        <time>2023-09-27T12:29:48Z</time>
      </trkpt>
      <trkpt lat="49.8831" lon="2.48897">
        <ele>39</ele>
        <time>2023-09-27T12:29:49Z</time>
      </trkpt>
      <trkpt lat="49.8831" lon="2.48896">
        <ele>38.9</ele>
        <time>2023-09-27T12:29:50Z</time>
      </trkpt>
      <trkpt lat="49.8831" lon="2.48894">
        <ele>38.9</ele>
        <time>2023-09-27T12:29:51Z</time>
      </trkpt>
      <trkpt lat="49.8831" lon="2.48892">
        <ele>38.9</ele>
        <time>2023-09-27T12:29:52Z</time>
      </trkpt>
      <trkpt lat="49.88309" lon="2.4889">
        <ele>38.9</ele>
        <time>2023-09-27T12:29:53Z</time>
      </trkpt>
      <trkpt lat="49.88309" lon="2.48889">
        <ele>38.9</ele>
        <time>2023-09-27T12:29:54Z</time>
      </trkpt>
      <trkpt lat="49.88309" lon="2.48887">
        <ele>38.9</ele>
        <time>2023-09-27T12:29:55Z</time>
      </trkpt>
      <trkpt lat="49.88309" lon="2.48884">
        <ele>38.9</ele>
        <time>2023-09-27T12:29:56Z</time>
      </trkpt>
      <trkpt lat="49.88309" lon="2.48882">
        <ele>38.8</ele>
        <time>2023-09-27T12:29:57Z</time>
      </trkpt>
      <trkpt lat="49.88309" lon="2.48881">
        <ele>38.8</ele>
        <time>2023-09-27T12:29:58Z</time>
      </trkpt>
      <trkpt lat="49.88309" lon="2.48879">
        <ele>38.8</ele>
        <time>2023-09-27T12:29:59Z</time>
      </trkpt>
      <trkpt lat="49.88309" lon="2.48878">
        <ele>38.8</ele>
        <time>2023-09-27T12:30:00Z</time>
      </trkpt>
      <trkpt lat="49.88309" lon="2.48876">
        <ele>38.8</ele>
        <time>2023-09-27T12:30:01Z</time>
      </trkpt>
      <trkpt lat="49.88309" lon="2.48874">
        <ele>38.8</ele>
        <time>2023-09-27T12:30:02Z</time>
      </trkpt>
      <trkpt lat="49.88309" lon="2.48872">
        <ele>38.8</ele>
        <time>2023-09-27T12:30:03Z</time>
      </trkpt>
      <trkpt lat="49.88309" lon="2.4887">
        <ele>38.8</ele>
        <time>2023-09-27T12:30:04Z</time>
      </trkpt>
      <trkpt lat="49.88309" lon="2.48867">
        <ele>38.8</ele>
        <time>2023-09-27T12:30:05Z</time>
      </trkpt>
      <trkpt lat="49.88309" lon="2.48866">
        <ele>38.8</ele>
        <time>2023-09-27T12:30:06Z</time>
      </trkpt>
      <trkpt lat="49.88309" lon="2.48865">
        <ele>38.8</ele>
        <time>2023-09-27T12:30:07Z</time>
      </trkpt>
      <trkpt lat="49.88309" lon="2.48861">
        <ele>38.7</ele>
        <time>2023-09-27T12:30:08Z</time>
      </trkpt>
      <trkpt lat="49.88309" lon="2.4886">
        <ele>38.7</ele>
        <time>2023-09-27T12:30:09Z</time>
      </trkpt>
      <trkpt lat="49.88308" lon="2.48859">
        <ele>38.7</ele>
        <time>2023-09-27T12:30:10Z</time>
      </trkpt>
      <trkpt lat="49.88308" lon="2.48857">
        <ele>38.7</ele>
        <time>2023-09-27T12:30:11Z</time>
      </trkpt>
      <trkpt lat="49.88308" lon="2.48855">
        <ele>38.7</ele>
        <time>2023-09-27T12:30:12Z</time>
      </trkpt>
      <trkpt lat="49.88308" lon="2.48854">
        <ele>38.7</ele>
        <time>2023-09-27T12:30:13Z</time>
      </trkpt>
      <trkpt lat="49.88308" lon="2.48852">
        <ele>38.7</ele>
        <time>2023-09-27T12:30:14Z</time>
      </trkpt>
      <trkpt lat="49.88307" lon="2.48851">
        <ele>38.6</ele>
        <time>2023-09-27T12:30:15Z</time>
      </trkpt>
      <trkpt lat="49.88307" lon="2.48849">
        <ele>38.6</ele>
        <time>2023-09-27T12:30:16Z</time>
      </trkpt>
      <trkpt lat="49.88307" lon="2.48847">
        <ele>38.6</ele>
        <time>2023-09-27T12:30:17Z</time>
      </trkpt>
      <trkpt lat="49.88306" lon="2.48846">
        <ele>38.6</ele>
        <time>2023-09-27T12:30:18Z</time>
      </trkpt>
      <trkpt lat="49.88306" lon="2.48844">
        <ele>38.6</ele>
        <time>2023-09-27T12:30:19Z</time>
      </trkpt>
      <trkpt lat="49.88306" lon="2.48841">
        <ele>38.6</ele>
        <time>2023-09-27T12:30:20Z</time>
      </trkpt>
      <trkpt lat="49.88305" lon="2.48839">
        <ele>38.5</ele>
        <time>2023-09-27T12:30:21Z</time>
      </trkpt>
      <trkpt lat="49.88305" lon="2.48838">
        <ele>38.5</ele>
        <time>2023-09-27T12:30:22Z</time>
      </trkpt>
      <trkpt lat="49.88305" lon="2.48836">
        <ele>38.5</ele>
        <time>2023-09-27T12:30:23Z</time>
      </trkpt>
      <trkpt lat="49.88305" lon="2.48834">
        <ele>38.5</ele>
        <time>2023-09-27T12:30:24Z</time>
      </trkpt>
      <trkpt lat="49.88305" lon="2.48833">
        <ele>38.5</ele>
        <time>2023-09-27T12:30:25Z</time>
      </trkpt>
      <trkpt lat="49.88305" lon="2.48831">
        <ele>38.5</ele>
        <time>2023-09-27T12:30:26Z</time>
      </trkpt>
      <trkpt lat="49.88305" lon="2.48829">
        <ele>38.5</ele>
        <time>2023-09-27T12:30:27Z</time>
      </trkpt>
      <trkpt lat="49.88305" lon="2.48827">
        <ele>38.5</ele>
        <time>2023-09-27T12:30:28Z</time>
      </trkpt>
      <trkpt lat="49.88304" lon="2.48824">
        <ele>38.4</ele>
        <time>2023-09-27T12:30:29Z</time>
      </trkpt>
      <trkpt lat="49.88304" lon="2.48823">
        <ele>38.4</ele>
        <time>2023-09-27T12:30:30Z</time>
      </trkpt>
      <trkpt lat="49.88304" lon="2.48822">
        <ele>38.4</ele>
        <time>2023-09-27T12:30:31Z</time>
      </trkpt>
      <trkpt lat="49.88304" lon="2.4882">
        <ele>38.4</ele>
        <time>2023-09-27T12:30:32Z</time>
      </trkpt>
      <trkpt lat="49.88304" lon="2.48818">
        <ele>38.4</ele>
        <time>2023-09-27T12:30:33Z</time>
      </trkpt>
      <trkpt lat="49.88304" lon="2.48816">
        <ele>38.4</ele>
        <time>2023-09-27T12:30:34Z</time>
      </trkpt>
      <trkpt lat="49.88304" lon="2.48814">
        <ele>38.3</ele>
        <time>2023-09-27T12:30:35Z</time>
      </trkpt>
      <trkpt lat="49.88304" lon="2.48812">
        <ele>38.3</ele>
        <time>2023-09-27T12:30:36Z</time>
      </trkpt>
      <trkpt lat="49.88303" lon="2.48811">
        <ele>38.3</ele>
        <time>2023-09-27T12:30:37Z</time>
      </trkpt>
      <trkpt lat="49.88303" lon="2.48809">
        <ele>38.3</ele>
        <time>2023-09-27T12:30:38Z</time>
      </trkpt>
      <trkpt lat="49.88303" lon="2.48808">
        <ele>38.2</ele>
        <time>2023-09-27T12:30:39Z</time>
      </trkpt>
      <trkpt lat="49.88303" lon="2.48806">
        <ele>38.2</ele>
        <time>2023-09-27T12:30:40Z</time>
      </trkpt>
      <trkpt lat="49.88303" lon="2.48804">
        <ele>38.2</ele>
        <time>2023-09-27T12:30:41Z</time>
      </trkpt>
      <trkpt lat="49.88303" lon="2.48803">
        <ele>38.2</ele>
        <time>2023-09-27T12:30:42Z</time>
      </trkpt>
      <trkpt lat="49.88302" lon="2.48801">
        <ele>38.1</ele>
        <time>2023-09-27T12:30:43Z</time>
      </trkpt>
      <trkpt lat="49.88302" lon="2.48798">
        <ele>38.1</ele>
        <time>2023-09-27T12:30:44Z</time>
      </trkpt>
      <trkpt lat="49.88302" lon="2.48796">
        <ele>38.1</ele>
        <time>2023-09-27T12:30:45Z</time>
      </trkpt>
      <trkpt lat="49.88302" lon="2.48795">
        <ele>38.1</ele>
        <time>2023-09-27T12:30:46Z</time>
      </trkpt>
      <trkpt lat="49.88302" lon="2.48793">
        <ele>38</ele>
        <time>2023-09-27T12:30:47Z</time>
      </trkpt>
      <trkpt lat="49.88302" lon="2.48792">
        <ele>38</ele>
        <time>2023-09-27T12:30:48Z</time>
      </trkpt>
      <trkpt lat="49.88302" lon="2.4879">
        <ele>38</ele>
        <time>2023-09-27T12:30:49Z</time>
      </trkpt>
      <trkpt lat="49.88301" lon="2.48789">
        <ele>38</ele>
        <time>2023-09-27T12:30:50Z</time>
      </trkpt>
      <trkpt lat="49.88301" lon="2.48787">
        <ele>38</ele>
        <time>2023-09-27T12:30:51Z</time>
      </trkpt>
      <trkpt lat="49.88301" lon="2.48785">
        <ele>38</ele>
        <time>2023-09-27T12:30:52Z</time>
      </trkpt>
      <trkpt lat="49.88301" lon="2.48784">
        <ele>38</ele>
        <time>2023-09-27T12:30:53Z</time>
      </trkpt>
      <trkpt lat="49.88301" lon="2.48782">
        <ele>38</ele>
        <time>2023-09-27T12:30:54Z</time>
      </trkpt>
      <trkpt lat="49.88301" lon="2.4878">
        <ele>38</ele>
        <time>2023-09-27T12:30:55Z</time>
      </trkpt>
      <trkpt lat="49.88301" lon="2.48778">
        <ele>38.1</ele>
        <time>2023-09-27T12:30:56Z</time>
      </trkpt>
      <trkpt lat="49.88301" lon="2.48777">
        <ele>38.1</ele>
        <time>2023-09-27T12:30:57Z</time>
      </trkpt>
      <trkpt lat="49.88301" lon="2.48775">
        <ele>38.1</ele>
        <time>2023-09-27T12:30:58Z</time>
      </trkpt>
      <trkpt lat="49.88301" lon="2.48773">
        <ele>38.1</ele>
        <time>2023-09-27T12:30:59Z</time>
      </trkpt>
      <trkpt lat="49.88301" lon="2.48772">
        <ele>38.1</ele>
        <time>2023-09-27T12:31:00Z</time>
      </trkpt>
      <trkpt lat="49.88301" lon="2.4877">
        <ele>38.2</ele>
        <time>2023-09-27T12:31:01Z</time>
      </trkpt>
      <trkpt lat="49.883" lon="2.48768">
        <ele>38.2</ele>
        <time>2023-09-27T12:31:02Z</time>
      </trkpt>
      <trkpt lat="49.883" lon="2.48766">
        <ele>38.2</ele>
        <time>2023-09-27T12:31:03Z</time>
      </trkpt>
      <trkpt lat="49.883" lon="2.48765">
        <ele>38.2</ele>
        <time>2023-09-27T12:31:04Z</time>
      </trkpt>
      <trkpt lat="49.883" lon="2.48763">
        <ele>38.3</ele>
        <time>2023-09-27T12:31:05Z</time>
      </trkpt>
      <trkpt lat="49.883" lon="2.48761">
        <ele>38.3</ele>
        <time>2023-09-27T12:31:06Z</time>
      </trkpt>
      <trkpt lat="49.883" lon="2.48759">
        <ele>38.3</ele>
        <time>2023-09-27T12:31:07Z</time>
      </trkpt>
      <trkpt lat="49.88299" lon="2.48758">
        <ele>38.3</ele>
        <time>2023-09-27T12:31:08Z</time>
      </trkpt>
      <trkpt lat="49.88299" lon="2.48756">
        <ele>38.4</ele>
        <time>2023-09-27T12:31:09Z</time>
      </trkpt>
      <trkpt lat="49.88299" lon="2.48755">
        <ele>38.4</ele>
        <time>2023-09-27T12:31:10Z</time>
      </trkpt>
      <trkpt lat="49.88299" lon="2.48753">
        <ele>38.4</ele>
        <time>2023-09-27T12:31:11Z</time>
      </trkpt>
      <trkpt lat="49.88299" lon="2.48751">
        <ele>38.4</ele>
        <time>2023-09-27T12:31:12Z</time>
      </trkpt>
      <trkpt lat="49.88299" lon="2.48749">
        <ele>38.4</ele>
        <time>2023-09-27T12:31:13Z</time>
      </trkpt>
      <trkpt lat="49.88299" lon="2.48746">
        <ele>38.5</ele>
        <time>2023-09-27T12:31:14Z</time>
      </trkpt>
      <trkpt lat="49.88299" lon="2.48745">
        <ele>38.5</ele>
        <time>2023-09-27T12:31:15Z</time>
      </trkpt>
      <trkpt lat="49.88299" lon="2.48744">
        <ele>38.5</ele>
        <time>2023-09-27T12:31:16Z</time>
      </trkpt>
      <trkpt lat="49.88299" lon="2.48742">
        <ele>38.5</ele>
        <time>2023-09-27T12:31:17Z</time>
      </trkpt>
      <trkpt lat="49.88299" lon="2.4874">
        <ele>38.5</ele>
        <time>2023-09-27T12:31:18Z</time>
      </trkpt>
      <trkpt lat="49.88298" lon="2.48739">
        <ele>38.6</ele>
        <time>2023-09-27T12:31:19Z</time>
      </trkpt>
      <trkpt lat="49.88298" lon="2.48737">
        <ele>38.6</ele>
        <time>2023-09-27T12:31:20Z</time>
      </trkpt>
      <trkpt lat="49.88298" lon="2.48736">
        <ele>38.6</ele>
        <time>2023-09-27T12:31:21Z</time>
      </trkpt>
      <trkpt lat="49.88298" lon="2.48734">
        <ele>38.6</ele>
        <time>2023-09-27T12:31:22Z</time>
      </trkpt>
      <trkpt lat="49.88298" lon="2.48732">
        <ele>38.7</ele>
        <time>2023-09-27T12:31:23Z</time>
      </trkpt>
      <trkpt lat="49.88297" lon="2.4873">
        <ele>38.7</ele>
        <time>2023-09-27T12:31:24Z</time>
      </trkpt>
      <trkpt lat="49.88297" lon="2.48729">
        <ele>38.8</ele>
        <time>2023-09-27T12:31:25Z</time>
      </trkpt>
      <trkpt lat="49.88297" lon="2.48727">
        <ele>38.8</ele>
        <time>2023-09-27T12:31:26Z</time>
      </trkpt>
      <trkpt lat="49.88297" lon="2.48725">
        <ele>38.9</ele>
        <time>2023-09-27T12:31:27Z</time>
      </trkpt>
      <trkpt lat="49.88297" lon="2.48724">
        <ele>38.9</ele>
        <time>2023-09-27T12:31:28Z</time>
      </trkpt>
      <trkpt lat="49.88297" lon="2.48722">
        <ele>39</ele>
        <time>2023-09-27T12:31:29Z</time>
      </trkpt>
      <trkpt lat="49.88296" lon="2.48721">
        <ele>39</ele>
        <time>2023-09-27T12:31:30Z</time>
      </trkpt>
      <trkpt lat="49.88296" lon="2.48719">
        <ele>39.1</ele>
        <time>2023-09-27T12:31:31Z</time>
      </trkpt>
      <trkpt lat="49.88296" lon="2.48717">
        <ele>39.1</ele>
        <time>2023-09-27T12:31:32Z</time>
      </trkpt>
      <trkpt lat="49.88296" lon="2.48715">
        <ele>39.2</ele>
        <time>2023-09-27T12:31:33Z</time>
      </trkpt>
      <trkpt lat="49.88296" lon="2.48714">
        <ele>39.3</ele>
        <time>2023-09-27T12:31:34Z</time>
      </trkpt>
      <trkpt lat="49.88295" lon="2.48712">
        <ele>39.3</ele>
        <time>2023-09-27T12:31:35Z</time>
      </trkpt>
      <trkpt lat="49.88295" lon="2.48711">
        <ele>39.4</ele>
        <time>2023-09-27T12:31:36Z</time>
      </trkpt>
      <trkpt lat="49.88295" lon="2.48709">
        <ele>39.4</ele>
        <time>2023-09-27T12:31:37Z</time>
      </trkpt>
      <trkpt lat="49.88295" lon="2.48707">
        <ele>39.5</ele>
        <time>2023-09-27T12:31:38Z</time>
      </trkpt>
      <trkpt lat="49.88295" lon="2.48706">
        <ele>39.6</ele>
        <time>2023-09-27T12:31:39Z</time>
      </trkpt>
      <trkpt lat="49.88295" lon="2.48705">
        <ele>39.6</ele>
        <time>2023-09-27T12:31:40Z</time>
      </trkpt>
      <trkpt lat="49.88295" lon="2.48704">
        <ele>39.6</ele>
        <time>2023-09-27T12:31:41Z</time>
      </trkpt>
      <trkpt lat="49.88295" lon="2.48702">
        <ele>39.6</ele>
        <time>2023-09-27T12:31:42Z</time>
      </trkpt>
      <trkpt lat="49.88295" lon="2.48702">
        <ele>39.6</ele>
        <time>2023-09-27T12:31:43Z</time>
      </trkpt>
      <trkpt lat="49.88296" lon="2.48701">
        <ele>39.6</ele>
        <time>2023-09-27T12:31:44Z</time>
      </trkpt>
      <trkpt lat="49.88296" lon="2.48702">
        <ele>39.6</ele>
        <time>2023-09-27T12:31:45Z</time>
      </trkpt>
      <trkpt lat="49.88296" lon="2.48702">
        <ele>39.6</ele>
        <time>2023-09-27T12:31:46Z</time>
      </trkpt>
      <trkpt lat="49.88297" lon="2.48702">
        <ele>39.6</ele>
        <time>2023-09-27T12:31:47Z</time>
      </trkpt>
      <trkpt lat="49.88297" lon="2.48703">
        <ele>39.6</ele>
        <time>2023-09-27T12:31:48Z</time>
      </trkpt>
      <trkpt lat="49.88297" lon="2.48703">
        <ele>39.6</ele>
        <time>2023-09-27T12:31:49Z</time>
      </trkpt>
      <trkpt lat="49.88297" lon="2.48703">
        <ele>39.6</ele>
        <time>2023-09-27T12:31:50Z</time>
      </trkpt>
      <trkpt lat="49.88297" lon="2.48703">
        <ele>39.6</ele>
        <time>2023-09-27T12:31:51Z</time>
      </trkpt>
      <trkpt lat="49.88297" lon="2.48703">
        <ele>39.6</ele>
        <time>2023-09-27T12:31:52Z</time>
      </trkpt>
      <trkpt lat="49.88297" lon="2.48703">
        <ele>39.6</ele>
        <time>2023-09-27T12:31:53Z</time>
      </trkpt>
      <trkpt lat="49.88297" lon="2.48703">
        <ele>39.6</ele>
        <time>2023-09-27T12:31:54Z</time>
      </trkpt>
      <trkpt lat="49.88297" lon="2.48703">
        <ele>39.6</ele>
        <time>2023-09-27T12:31:55Z</time>
      </trkpt>
      <trkpt lat="49.88297" lon="2.48703">
        <ele>39.6</ele>
        <time>2023-09-27T12:31:56Z</time>
      </trkpt>
      <trkpt lat="49.88297" lon="2.48703">
        <ele>39.6</ele>
        <time>2023-09-27T12:31:57Z</time>
      </trkpt>
      <trkpt lat="49.88297" lon="2.48703">
        <ele>39.6</ele>
        <time>2023-09-27T12:31:58Z</time>
      </trkpt>
      <trkpt lat="49.88297" lon="2.48703">
        <ele>39.6</ele>
        <time>2023-09-27T12:31:59Z</time>
      </trkpt>
      <trkpt lat="49.88297" lon="2.48703">
        <ele>39.6</ele>
        <time>2023-09-27T12:32:00Z</time>
      </trkpt>
      <trkpt lat="49.88297" lon="2.48703">
        <ele>39.6</ele>
        <time>2023-09-27T12:32:01Z</time>
      </trkpt>
      <trkpt lat="49.88297" lon="2.48703">
        <ele>39.6</ele>
        <time>2023-09-27T12:32:02Z</time>
      </trkpt>
      <trkpt lat="49.88297" lon="2.48703">
        <ele>39.6</ele>
        <time>2023-09-27T12:32:03Z</time>
      </trkpt>
      <trkpt lat="49.88297" lon="2.48703">
        <ele>39.6</ele>
        <time>2023-09-27T12:32:04Z</time>
      </trkpt>
      <trkpt lat="49.88297" lon="2.48703">
        <ele>39.6</ele>
        <time>2023-09-27T12:32:05Z</time>
      </trkpt>
      <trkpt lat="49.88297" lon="2.48703">
        <ele>39.6</ele>
        <time>2023-09-27T12:32:06Z</time>
      </trkpt>
      <trkpt lat="49.88297" lon="2.48703">
        <ele>39.6</ele>
        <time>2023-09-27T12:32:07Z</time>
      </trkpt>
      <trkpt lat="49.88297" lon="2.48703">
        <ele>39.6</ele>
        <time>2023-09-27T12:32:08Z</time>
      </trkpt>
      <trkpt lat="49.88297" lon="2.48703">
        <ele>39.6</ele>
        <time>2023-09-27T12:32:09Z</time>
      </trkpt>
      <trkpt lat="49.88297" lon="2.48703">
        <ele>39.6</ele>
        <time>2023-09-27T12:32:10Z</time>
      </trkpt>
      <trkpt lat="49.88297" lon="2.48703">
        <ele>39.6</ele>
        <time>2023-09-27T12:32:11Z</time>
      </trkpt>
      <trkpt lat="49.88297" lon="2.48703">
        <ele>39.6</ele>
        <time>2023-09-27T12:32:12Z</time>
      </trkpt>
      <trkpt lat="49.88297" lon="2.48703">
        <ele>39.6</ele>
        <time>2023-09-27T12:32:13Z</time>
      </trkpt>
      <trkpt lat="49.88297" lon="2.48703">
        <ele>39.6</ele>
        <time>2023-09-27T12:32:14Z</time>
      </trkpt>
      <trkpt lat="49.88297" lon="2.48703">
        <ele>39.6</ele>
        <time>2023-09-27T12:32:15Z</time>
      </trkpt>
      <trkpt lat="49.88297" lon="2.48703">
        <ele>39.6</ele>
        <time>2023-09-27T12:32:16Z</time>
      </trkpt>
      <trkpt lat="49.88297" lon="2.48703">
        <ele>39.6</ele>
        <time>2023-09-27T12:32:17Z</time>
      </trkpt>
      <trkpt lat="49.88297" lon="2.48703">
        <ele>39.6</ele>
        <time>2023-09-27T12:32:18Z</time>
      </trkpt>
      <trkpt lat="49.88297" lon="2.48703">
        <ele>39.6</ele>
        <time>2023-09-27T12:32:19Z</time>
      </trkpt>
      <trkpt lat="49.88297" lon="2.48703">
        <ele>39.6</ele>
        <time>2023-09-27T12:32:20Z</time>
      </trkpt>
      <trkpt lat="49.88297" lon="2.48703">
        <ele>39.6</ele>
        <time>2023-09-27T12:32:21Z</time>
      </trkpt>
      <trkpt lat="49.88297" lon="2.48703">
        <ele>39.6</ele>
        <time>2023-09-27T12:32:22Z</time>
      </trkpt>
      <trkpt lat="49.88297" lon="2.48703">
        <ele>39.6</ele>
        <time>2023-09-27T12:32:23Z</time>
      </trkpt>
      <trkpt lat="49.88297" lon="2.48703">
        <ele>39.6</ele>
        <time>2023-09-27T12:32:24Z</time>
      </trkpt>
      <trkpt lat="49.88297" lon="2.48703">
        <ele>39.6</ele>
        <time>2023-09-27T12:32:25Z</time>
      </trkpt>
      <trkpt lat="49.88297" lon="2.48703">
        <ele>39.6</ele>
        <time>2023-09-27T12:32:26Z</time>
      </trkpt>
      <trkpt lat="49.88297" lon="2.48703">
        <ele>39.6</ele>
        <time>2023-09-27T12:32:27Z</time>
      </trkpt>
      <trkpt lat="49.88297" lon="2.48703">
        <ele>39.6</ele>
        <time>2023-09-27T12:32:28Z</time>
      </trkpt>
      <trkpt lat="49.88297" lon="2.48703">
        <ele>39.6</ele>
        <time>2023-09-27T12:32:29Z</time>
      </trkpt>
      <trkpt lat="49.88297" lon="2.48703">
        <ele>39.6</ele>
        <time>2023-09-27T12:32:30Z</time>
      </trkpt>
      <trkpt lat="49.88297" lon="2.48703">
        <ele>39.6</ele>
        <time>2023-09-27T12:32:31Z</time>
      </trkpt>
      <trkpt lat="49.88297" lon="2.48703">
        <ele>39.6</ele>
        <time>2023-09-27T12:32:32Z</time>
      </trkpt>
      <trkpt lat="49.88297" lon="2.48703">
        <ele>39.6</ele>
        <time>2023-09-27T12:32:33Z</time>
      </trkpt>
      <trkpt lat="49.88297" lon="2.48703">
        <ele>39.6</ele>
        <time>2023-09-27T12:32:34Z</time>
      </trkpt>
      <trkpt lat="49.88297" lon="2.48703">
        <ele>39.6</ele>
        <time>2023-09-27T12:32:35Z</time>
      </trkpt>
      <trkpt lat="49.88297" lon="2.48703">
        <ele>39.6</ele>
        <time>2023-09-27T12:32:36Z</time>
      </trkpt>
      <trkpt lat="49.88297" lon="2.48703">
        <ele>39.6</ele>
        <time>2023-09-27T12:32:37Z</time>
      </trkpt>
      <trkpt lat="49.88297" lon="2.48703">
        <ele>39.6</ele>
        <time>2023-09-27T12:32:38Z</time>
      </trkpt>
      <trkpt lat="49.88297" lon="2.48703">
        <ele>39.6</ele>
        <time>2023-09-27T12:32:39Z</time>
      </trkpt>
      <trkpt lat="49.88297" lon="2.48703">
        <ele>39.6</ele>
        <time>2023-09-27T12:32:40Z</time>
      </trkpt>
      <trkpt lat="49.88297" lon="2.48703">
        <ele>39.6</ele>
        <time>2023-09-27T12:32:41Z</time>
      </trkpt>
      <trkpt lat="49.88297" lon="2.48703">
        <ele>39.6</ele>
        <time>2023-09-27T12:32:42Z</time>
      </trkpt>
      <trkpt lat="49.88297" lon="2.48703">
        <ele>39.6</ele>
        <time>2023-09-27T12:32:43Z</time>
      </trkpt>
      <trkpt lat="49.88297" lon="2.48703">
        <ele>39.6</ele>
        <time>2023-09-27T12:32:44Z</time>
      </trkpt>
      <trkpt lat="49.88297" lon="2.48703">
        <ele>39.6</ele>
        <time>2023-09-27T12:32:45Z</time>
      </trkpt>
      <trkpt lat="49.88297" lon="2.48703">
        <ele>39.6</ele>
        <time>2023-09-27T12:32:46Z</time>
      </trkpt>
      <trkpt lat="49.88297" lon="2.48703">
        <ele>39.6</ele>
        <time>2023-09-27T12:32:47Z</time>
      </trkpt>
      <trkpt lat="49.88297" lon="2.48703">
        <ele>39.6</ele>
        <time>2023-09-27T12:32:48Z</time>
      </trkpt>
      <trkpt lat="49.88297" lon="2.48703">
        <ele>39.6</ele>
        <time>2023-09-27T12:32:49Z</time>
      </trkpt>
      <trkpt lat="49.88297" lon="2.48703">
        <ele>39.6</ele>
        <time>2023-09-27T12:32:50Z</time>
      </trkpt>
      <trkpt lat="49.88297" lon="2.48703">
        <ele>39.6</ele>
        <time>2023-09-27T12:32:51Z</time>
      </trkpt>
      <trkpt lat="49.88297" lon="2.48703">
        <ele>39.6</ele>
        <time>2023-09-27T12:32:52Z</time>
      </trkpt>
      <trkpt lat="49.88297" lon="2.48703">
        <ele>39.6</ele>
        <time>2023-09-27T12:32:53Z</time>
      </trkpt>
      <trkpt lat="49.88297" lon="2.48703">
        <ele>39.6</ele>
        <time>2023-09-27T12:32:54Z</time>
      </trkpt>
      <trkpt lat="49.88297" lon="2.48703">
        <ele>39.6</ele>
        <time>2023-09-27T12:32:55Z</time>
      </trkpt>
      <trkpt lat="49.88297" lon="2.48703">
        <ele>39.6</ele>
        <time>2023-09-27T12:32:56Z</time>
      </trkpt>
      <trkpt lat="49.88297" lon="2.48703">
        <ele>39.6</ele>
        <time>2023-09-27T12:32:57Z</time>
      </trkpt>
      <trkpt lat="49.88297" lon="2.48703">
        <ele>39.6</ele>
        <time>2023-09-27T12:32:58Z</time>
      </trkpt>
      <trkpt lat="49.88297" lon="2.48703">
        <ele>39.6</ele>
        <time>2023-09-27T12:32:59Z</time>
      </trkpt>
      <trkpt lat="49.88297" lon="2.48703">
        <ele>39.6</ele>
        <time>2023-09-27T12:33:00Z</time>
      </trkpt>
      <trkpt lat="49.88297" lon="2.48703">
        <ele>39.6</ele>
        <time>2023-09-27T12:33:01Z</time>
      </trkpt>
      <trkpt lat="49.88297" lon="2.48703">
        <ele>39.6</ele>
        <time>2023-09-27T12:33:02Z</time>
      </trkpt>
      <trkpt lat="49.88297" lon="2.48703">
        <ele>39.6</ele>
        <time>2023-09-27T12:33:03Z</time>
      </trkpt>
      <trkpt lat="49.88297" lon="2.48703">
        <ele>39.6</ele>
        <time>2023-09-27T12:33:04Z</time>
      </trkpt>
      <trkpt lat="49.88297" lon="2.48703">
        <ele>39.6</ele>
        <time>2023-09-27T12:33:05Z</time>
      </trkpt>
      <trkpt lat="49.88297" lon="2.48703">
        <ele>39.6</ele>
        <time>2023-09-27T12:33:06Z</time>
      </trkpt>
      <trkpt lat="49.88297" lon="2.48703">
        <ele>39.6</ele>
        <time>2023-09-27T12:33:07Z</time>
      </trkpt>
      <trkpt lat="49.88297" lon="2.48703">
        <ele>39.6</ele>
        <time>2023-09-27T12:33:08Z</time>
      </trkpt>
      <trkpt lat="49.88297" lon="2.48703">
        <ele>39.6</ele>
        <time>2023-09-27T12:33:09Z</time>
      </trkpt>
      <trkpt lat="49.88297" lon="2.48703">
        <ele>39.6</ele>
        <time>2023-09-27T12:33:10Z</time>
      </trkpt>
      <trkpt lat="49.88297" lon="2.48703">
        <ele>39.6</ele>
        <time>2023-09-27T12:33:11Z</time>
      </trkpt>
      <trkpt lat="49.88297" lon="2.48703">
        <ele>39.6</ele>
        <time>2023-09-27T12:33:12Z</time>
      </trkpt>
      <trkpt lat="49.88297" lon="2.48703">
        <ele>39.6</ele>
        <time>2023-09-27T12:33:13Z</time>
      </trkpt>
      <trkpt lat="49.88297" lon="2.48703">
        <ele>39.6</ele>
        <time>2023-09-27T12:33:14Z</time>
      </trkpt>
      <trkpt lat="49.88297" lon="2.48703">
        <ele>39.6</ele>
        <time>2023-09-27T12:33:15Z</time>
      </trkpt>
      <trkpt lat="49.88297" lon="2.48703">
        <ele>39.6</ele>
        <time>2023-09-27T12:33:16Z</time>
      </trkpt>
      <trkpt lat="49.88297" lon="2.48703">
        <ele>39.6</ele>
        <time>2023-09-27T12:33:17Z</time>
      </trkpt>
      <trkpt lat="49.88297" lon="2.48703">
        <ele>39.6</ele>
        <time>2023-09-27T12:33:18Z</time>
      </trkpt>
      <trkpt lat="49.88297" lon="2.48703">
        <ele>39.6</ele>
        <time>2023-09-27T12:33:19Z</time>
      </trkpt>
      <trkpt lat="49.88297" lon="2.48703">
        <ele>39.6</ele>
        <time>2023-09-27T12:33:20Z</time>
      </trkpt>
      <trkpt lat="49.88297" lon="2.48703">
        <ele>39.6</ele>
        <time>2023-09-27T12:33:21Z</time>
      </trkpt>
      <trkpt lat="49.88297" lon="2.48703">
        <ele>39.6</ele>
        <time>2023-09-27T12:33:22Z</time>
      </trkpt>
      <trkpt lat="49.88297" lon="2.48703">
        <ele>39.6</ele>
        <time>2023-09-27T12:33:23Z</time>
      </trkpt>
      <trkpt lat="49.88297" lon="2.48703">
        <ele>39.6</ele>
        <time>2023-09-27T12:33:24Z</time>
      </trkpt>
      <trkpt lat="49.88297" lon="2.48703">
        <ele>39.6</ele>
        <time>2023-09-27T12:33:25Z</time>
      </trkpt>
      <trkpt lat="49.88297" lon="2.48703">
        <ele>39.6</ele>
        <time>2023-09-27T12:33:26Z</time>
      </trkpt>
      <trkpt lat="49.88297" lon="2.48703">
        <ele>39.6</ele>
        <time>2023-09-27T12:33:27Z</time>
      </trkpt>
      <trkpt lat="49.88297" lon="2.48703">
        <ele>39.6</ele>
        <time>2023-09-27T12:33:28Z</time>
      </trkpt>
      <trkpt lat="49.88297" lon="2.48703">
        <ele>39.6</ele>
        <time>2023-09-27T12:33:29Z</time>
      </trkpt>
      <trkpt lat="49.88297" lon="2.48703">
        <ele>39.6</ele>
        <time>2023-09-27T12:33:30Z</time>
      </trkpt>
      <trkpt lat="49.88297" lon="2.48703">
        <ele>39.6</ele>
        <time>2023-09-27T12:33:31Z</time>
      </trkpt>
      <trkpt lat="49.88297" lon="2.48703">
        <ele>39.6</ele>
        <time>2023-09-27T12:33:32Z</time>
      </trkpt>
      <trkpt lat="49.88297" lon="2.48703">
        <ele>39.6</ele>
        <time>2023-09-27T12:33:33Z</time>
      </trkpt>
      <trkpt lat="49.88297" lon="2.48703">
        <ele>39.6</ele>
        <time>2023-09-27T12:33:34Z</time>
      </trkpt>
      <trkpt lat="49.88297" lon="2.48703">
        <ele>39.6</ele>
        <time>2023-09-27T12:33:35Z</time>
      </trkpt>
      <trkpt lat="49.88297" lon="2.48703">
        <ele>39.6</ele>
        <time>2023-09-27T12:33:36Z</time>
      </trkpt>
      <trkpt lat="49.88297" lon="2.48703">
        <ele>39.6</ele>
        <time>2023-09-27T12:33:37Z</time>
      </trkpt>
      <trkpt lat="49.88297" lon="2.48703">
        <ele>39.6</ele>
        <time>2023-09-27T12:33:38Z</time>
      </trkpt>
      <trkpt lat="49.88297" lon="2.48703">
        <ele>39.6</ele>
        <time>2023-09-27T12:33:39Z</time>
      </trkpt>
      <trkpt lat="49.88297" lon="2.48703">
        <ele>39.6</ele>
        <time>2023-09-27T12:33:40Z</time>
      </trkpt>
      <trkpt lat="49.88297" lon="2.48703">
        <ele>39.6</ele>
        <time>2023-09-27T12:33:41Z</time>
      </trkpt>
      <trkpt lat="49.88297" lon="2.48703">
        <ele>39.6</ele>
        <time>2023-09-27T12:33:42Z</time>
      </trkpt>
      <trkpt lat="49.88297" lon="2.48703">
        <ele>39.6</ele>
        <time>2023-09-27T12:33:43Z</time>
      </trkpt>
      <trkpt lat="49.88297" lon="2.48703">
        <ele>39.6</ele>
        <time>2023-09-27T12:33:44Z</time>
      </trkpt>
      <trkpt lat="49.88297" lon="2.48703">
        <ele>39.6</ele>
        <time>2023-09-27T12:33:45Z</time>
      </trkpt>
      <trkpt lat="49.88297" lon="2.48703">
        <ele>39.6</ele>
        <time>2023-09-27T12:33:46Z</time>
      </trkpt>
      <trkpt lat="49.88297" lon="2.48703">
        <ele>39.6</ele>
        <time>2023-09-27T12:33:47Z</time>
      </trkpt>
      <trkpt lat="49.88297" lon="2.48703">
        <ele>39.6</ele>
        <time>2023-09-27T12:33:48Z</time>
      </trkpt>
      <trkpt lat="49.88297" lon="2.48703">
        <ele>39.6</ele>
        <time>2023-09-27T12:33:49Z</time>
      </trkpt>
      <trkpt lat="49.88297" lon="2.48703">
        <ele>39.6</ele>
        <time>2023-09-27T12:33:50Z</time>
      </trkpt>
      <trkpt lat="49.88297" lon="2.48703">
        <ele>39.6</ele>
        <time>2023-09-27T12:33:51Z</time>
      </trkpt>
      <trkpt lat="49.88297" lon="2.48703">
        <ele>39.6</ele>
        <time>2023-09-27T12:33:52Z</time>
      </trkpt>
      <trkpt lat="49.88297" lon="2.48703">
        <ele>39.6</ele>
        <time>2023-09-27T12:33:53Z</time>
      </trkpt>
      <trkpt lat="49.88297" lon="2.48703">
        <ele>39.6</ele>
        <time>2023-09-27T12:33:54Z</time>
      </trkpt>
      <trkpt lat="49.88297" lon="2.48703">
        <ele>39.6</ele>
        <time>2023-09-27T12:33:55Z</time>
      </trkpt>
      <trkpt lat="49.88297" lon="2.48703">
        <ele>39.6</ele>
        <time>2023-09-27T12:33:56Z</time>
      </trkpt>
      <trkpt lat="49.88297" lon="2.48703">
        <ele>39.6</ele>
        <time>2023-09-27T12:33:57Z</time>
      </trkpt>
      <trkpt lat="49.88297" lon="2.48703">
        <ele>39.6</ele>
        <time>2023-09-27T12:33:58Z</time>
      </trkpt>
      <trkpt lat="49.88297" lon="2.48703">
        <ele>39.6</ele>
        <time>2023-09-27T12:33:59Z</time>
      </trkpt>
      <trkpt lat="49.88297" lon="2.48703">
        <ele>39.6</ele>
        <time>2023-09-27T12:34:00Z</time>
      </trkpt>
      <trkpt lat="49.88297" lon="2.48703">
        <ele>39.6</ele>
        <time>2023-09-27T12:34:01Z</time>
      </trkpt>
      <trkpt lat="49.88297" lon="2.48703">
        <ele>39.6</ele>
        <time>2023-09-27T12:34:02Z</time>
      </trkpt>
      <trkpt lat="49.88297" lon="2.48703">
        <ele>39.6</ele>
        <time>2023-09-27T12:34:03Z</time>
      </trkpt>
      <trkpt lat="49.88297" lon="2.48703">
        <ele>39.6</ele>
        <time>2023-09-27T12:34:04Z</time>
      </trkpt>
      <trkpt lat="49.88297" lon="2.48703">
        <ele>39.6</ele>
        <time>2023-09-27T12:34:05Z</time>
      </trkpt>
      <trkpt lat="49.88297" lon="2.48703">
        <ele>39.6</ele>
        <time>2023-09-27T12:34:06Z</time>
      </trkpt>
      <trkpt lat="49.88297" lon="2.48703">
        <ele>39.6</ele>
        <time>2023-09-27T12:34:07Z</time>
      </trkpt>
      <trkpt lat="49.88297" lon="2.48703">
        <ele>39.6</ele>
        <time>2023-09-27T12:34:08Z</time>
      </trkpt>
      <trkpt lat="49.88297" lon="2.48703">
        <ele>39.6</ele>
        <time>2023-09-27T12:34:09Z</time>
      </trkpt>
      <trkpt lat="49.88297" lon="2.48703">
        <ele>39.6</ele>
        <time>2023-09-27T12:34:10Z</time>
      </trkpt>
      <trkpt lat="49.88297" lon="2.48703">
        <ele>39.6</ele>
        <time>2023-09-27T12:34:11Z</time>
      </trkpt>
      <trkpt lat="49.88297" lon="2.48703">
        <ele>39.6</ele>
        <time>2023-09-27T12:34:12Z</time>
      </trkpt>
      <trkpt lat="49.88297" lon="2.48703">
        <ele>39.6</ele>
        <time>2023-09-27T12:34:13Z</time>
      </trkpt>
      <trkpt lat="49.88297" lon="2.48703">
        <ele>39.6</ele>
        <time>2023-09-27T12:34:14Z</time>
      </trkpt>
      <trkpt lat="49.88297" lon="2.48703">
        <ele>39.6</ele>
        <time>2023-09-27T12:34:15Z</time>
      </trkpt>
      <trkpt lat="49.88297" lon="2.48703">
        <ele>39.6</ele>
        <time>2023-09-27T12:34:16Z</time>
      </trkpt>
      <trkpt lat="49.88297" lon="2.48703">
        <ele>39.6</ele>
        <time>2023-09-27T12:34:17Z</time>
      </trkpt>
      <trkpt lat="49.88297" lon="2.48703">
        <ele>39.6</ele>
        <time>2023-09-27T12:34:18Z</time>
      </trkpt>
      <trkpt lat="49.88297" lon="2.48703">
        <ele>39.6</ele>
        <time>2023-09-27T12:34:19Z</time>
      </trkpt>
      <trkpt lat="49.88297" lon="2.48703">
        <ele>39.6</ele>
        <time>2023-09-27T12:34:20Z</time>
      </trkpt>
      <trkpt lat="49.88297" lon="2.48703">
        <ele>39.6</ele>
        <time>2023-09-27T12:34:21Z</time>
      </trkpt>
      <trkpt lat="49.88297" lon="2.48703">
        <ele>39.6</ele>
        <time>2023-09-27T12:34:22Z</time>
      </trkpt>
      <trkpt lat="49.88297" lon="2.48703">
        <ele>39.6</ele>
        <time>2023-09-27T12:34:23Z</time>
      </trkpt>
      <trkpt lat="49.88297" lon="2.48703">
        <ele>39.6</ele>
        <time>2023-09-27T12:34:24Z</time>
      </trkpt>
      <trkpt lat="49.88297" lon="2.48703">
        <ele>39.6</ele>
        <time>2023-09-27T12:34:25Z</time>
      </trkpt>
      <trkpt lat="49.88297" lon="2.48703">
        <ele>39.6</ele>
        <time>2023-09-27T12:34:26Z</time>
      </trkpt>
      <trkpt lat="49.88297" lon="2.48703">
        <ele>39.6</ele>
        <time>2023-09-27T12:34:27Z</time>
      </trkpt>
      <trkpt lat="49.88297" lon="2.48703">
        <ele>39.6</ele>
        <time>2023-09-27T12:34:28Z</time>
      </trkpt>
      <trkpt lat="49.88297" lon="2.48703">
        <ele>39.6</ele>
        <time>2023-09-27T12:34:29Z</time>
      </trkpt>
      <trkpt lat="49.88297" lon="2.48703">
        <ele>39.6</ele>
        <time>2023-09-27T12:34:30Z</time>
      </trkpt>
      <trkpt lat="49.88297" lon="2.48703">
        <ele>39.6</ele>
        <time>2023-09-27T12:34:31Z</time>
      </trkpt>
      <trkpt lat="49.88297" lon="2.48703">
        <ele>39.6</ele>
        <time>2023-09-27T12:34:32Z</time>
      </trkpt>
      <trkpt lat="49.88297" lon="2.48703">
        <ele>39.6</ele>
        <time>2023-09-27T12:34:33Z</time>
      </trkpt>
      <trkpt lat="49.88297" lon="2.48703">
        <ele>39.6</ele>
        <time>2023-09-27T12:34:34Z</time>
      </trkpt>
      <trkpt lat="49.88297" lon="2.48703">
        <ele>39.6</ele>
        <time>2023-09-27T12:34:35Z</time>
      </trkpt>
      <trkpt lat="49.88297" lon="2.48703">
        <ele>39.6</ele>
        <time>2023-09-27T12:34:36Z</time>
      </trkpt>
      <trkpt lat="49.88297" lon="2.48703">
        <ele>39.6</ele>
        <time>2023-09-27T12:34:37Z</time>
      </trkpt>
      <trkpt lat="49.88297" lon="2.48703">
        <ele>39.6</ele>
        <time>2023-09-27T12:34:38Z</time>
      </trkpt>
      <trkpt lat="49.88297" lon="2.48703">
        <ele>39.6</ele>
        <time>2023-09-27T12:34:39Z</time>
      </trkpt>
      <trkpt lat="49.88297" lon="2.48703">
        <ele>39.6</ele>
        <time>2023-09-27T12:34:40Z</time>
      </trkpt>
      <trkpt lat="49.88297" lon="2.48703">
        <ele>39.6</ele>
        <time>2023-09-27T12:34:41Z</time>
      </trkpt>
      <trkpt lat="49.88297" lon="2.48703">
        <ele>39.6</ele>
        <time>2023-09-27T12:34:42Z</time>
      </trkpt>
      <trkpt lat="49.88297" lon="2.48703">
        <ele>39.6</ele>
        <time>2023-09-27T12:34:43Z</time>
      </trkpt>
      <trkpt lat="49.88297" lon="2.48703">
        <ele>39.6</ele>
        <time>2023-09-27T12:34:44Z</time>
      </trkpt>
      <trkpt lat="49.88297" lon="2.48703">
        <ele>39.6</ele>
        <time>2023-09-27T12:34:45Z</time>
      </trkpt>
      <trkpt lat="49.88297" lon="2.48703">
        <ele>39.6</ele>
        <time>2023-09-27T12:34:46Z</time>
      </trkpt>
      <trkpt lat="49.88297" lon="2.48703">
        <ele>39.6</ele>
        <time>2023-09-27T12:34:47Z</time>
      </trkpt>
      <trkpt lat="49.88297" lon="2.48703">
        <ele>39.6</ele>
        <time>2023-09-27T12:34:48Z</time>
      </trkpt>
      <trkpt lat="49.88297" lon="2.48703">
        <ele>39.6</ele>
        <time>2023-09-27T12:34:49Z</time>
      </trkpt>
      <trkpt lat="49.88297" lon="2.48703">
        <ele>39.6</ele>
        <time>2023-09-27T12:34:50Z</time>
      </trkpt>
      <trkpt lat="49.88297" lon="2.48703">
        <ele>39.6</ele>
        <time>2023-09-27T12:34:51Z</time>
      </trkpt>
      <trkpt lat="49.88297" lon="2.48703">
        <ele>39.6</ele>
        <time>2023-09-27T12:34:52Z</time>
      </trkpt>
      <trkpt lat="49.88297" lon="2.48703">
        <ele>39.6</ele>
        <time>2023-09-27T12:34:53Z</time>
      </trkpt>
      <trkpt lat="49.88297" lon="2.48703">
        <ele>39.6</ele>
        <time>2023-09-27T12:34:54Z</time>
      </trkpt>
      <trkpt lat="49.88297" lon="2.48703">
        <ele>39.6</ele>
        <time>2023-09-27T12:34:55Z</time>
      </trkpt>
      <trkpt lat="49.88297" lon="2.48703">
        <ele>39.6</ele>
        <time>2023-09-27T12:34:56Z</time>
      </trkpt>
      <trkpt lat="49.88297" lon="2.48703">
        <ele>39.6</ele>
        <time>2023-09-27T12:34:57Z</time>
      </trkpt>
      <trkpt lat="49.88297" lon="2.48703">
        <ele>39.6</ele>
        <time>2023-09-27T12:34:58Z</time>
      </trkpt>
      <trkpt lat="49.88297" lon="2.48703">
        <ele>39.6</ele>
        <time>2023-09-27T12:34:59Z</time>
      </trkpt>
      <trkpt lat="49.88297" lon="2.48703">
        <ele>39.6</ele>
        <time>2023-09-27T12:35:00Z</time>
      </trkpt>
      <trkpt lat="49.88297" lon="2.48703">
        <ele>39.6</ele>
        <time>2023-09-27T12:35:01Z</time>
      </trkpt>
      <trkpt lat="49.88297" lon="2.48703">
        <ele>39.6</ele>
        <time>2023-09-27T12:35:02Z</time>
      </trkpt>
      <trkpt lat="49.88297" lon="2.48703">
        <ele>39.6</ele>
        <time>2023-09-27T12:35:03Z</time>
      </trkpt>
      <trkpt lat="49.88297" lon="2.48703">
        <ele>39.6</ele>
        <time>2023-09-27T12:35:04Z</time>
      </trkpt>
      <trkpt lat="49.88297" lon="2.48703">
        <ele>39.6</ele>
        <time>2023-09-27T12:35:05Z</time>
      </trkpt>
      <trkpt lat="49.88297" lon="2.48703">
        <ele>39.6</ele>
        <time>2023-09-27T12:35:06Z</time>
      </trkpt>
      <trkpt lat="49.88297" lon="2.48703">
        <ele>39.6</ele>
        <time>2023-09-27T12:35:07Z</time>
      </trkpt>
      <trkpt lat="49.88297" lon="2.48703">
        <ele>39.6</ele>
        <time>2023-09-27T12:35:08Z</time>
      </trkpt>
      <trkpt lat="49.88297" lon="2.48703">
        <ele>39.6</ele>
        <time>2023-09-27T12:35:09Z</time>
      </trkpt>
      <trkpt lat="49.88297" lon="2.48703">
        <ele>39.6</ele>
        <time>2023-09-27T12:35:10Z</time>
      </trkpt>
      <trkpt lat="49.88297" lon="2.48703">
        <ele>39.6</ele>
        <time>2023-09-27T12:35:11Z</time>
      </trkpt>
      <trkpt lat="49.88297" lon="2.48703">
        <ele>39.6</ele>
        <time>2023-09-27T12:35:12Z</time>
      </trkpt>
      <trkpt lat="49.88297" lon="2.48703">
        <ele>39.6</ele>
        <time>2023-09-27T12:35:13Z</time>
      </trkpt>
      <trkpt lat="49.88297" lon="2.48703">
        <ele>39.6</ele>
        <time>2023-09-27T12:35:14Z</time>
      </trkpt>
      <trkpt lat="49.88297" lon="2.48703">
        <ele>39.6</ele>
        <time>2023-09-27T12:35:15Z</time>
      </trkpt>
      <trkpt lat="49.88297" lon="2.48703">
        <ele>39.6</ele>
        <time>2023-09-27T12:35:16Z</time>
      </trkpt>
      <trkpt lat="49.88297" lon="2.48703">
        <ele>39.6</ele>
        <time>2023-09-27T12:35:17Z</time>
      </trkpt>
      <trkpt lat="49.88297" lon="2.48703">
        <ele>39.6</ele>
        <time>2023-09-27T12:35:18Z</time>
      </trkpt>
      <trkpt lat="49.88297" lon="2.48703">
        <ele>39.6</ele>
        <time>2023-09-27T12:35:19Z</time>
      </trkpt>
      <trkpt lat="49.88297" lon="2.48703">
        <ele>39.6</ele>
        <time>2023-09-27T12:35:20Z</time>
      </trkpt>
      <trkpt lat="49.88297" lon="2.48703">
        <ele>39.6</ele>
        <time>2023-09-27T12:35:21Z</time>
      </trkpt>
      <trkpt lat="49.88297" lon="2.48703">
        <ele>39.6</ele>
        <time>2023-09-27T12:35:22Z</time>
      </trkpt>
      <trkpt lat="49.88297" lon="2.48703">
        <ele>39.6</ele>
        <time>2023-09-27T12:35:23Z</time>
      </trkpt>
      <trkpt lat="49.88297" lon="2.48703">
        <ele>39.6</ele>
        <time>2023-09-27T12:35:24Z</time>
      </trkpt>
      <trkpt lat="49.88297" lon="2.48703">
        <ele>39.6</ele>
        <time>2023-09-27T12:35:25Z</time>
      </trkpt>
      <trkpt lat="49.88297" lon="2.48703">
        <ele>39.6</ele>
        <time>2023-09-27T12:35:26Z</time>
      </trkpt>
      <trkpt lat="49.88297" lon="2.48703">
        <ele>39.6</ele>
        <time>2023-09-27T12:35:27Z</time>
      </trkpt>
      <trkpt lat="49.88297" lon="2.48703">
        <ele>39.6</ele>
        <time>2023-09-27T12:35:28Z</time>
      </trkpt>
      <trkpt lat="49.88297" lon="2.48703">
        <ele>39.6</ele>
        <time>2023-09-27T12:35:29Z</time>
      </trkpt>
      <trkpt lat="49.88295" lon="2.48707">
        <ele>39.6</ele>
        <time>2023-09-27T12:35:30Z</time>
      </trkpt>
      <trkpt lat="49.88295" lon="2.48707">
        <ele>39.6</ele>
        <time>2023-09-27T12:35:31Z</time>
      </trkpt>
      <trkpt lat="49.88295" lon="2.48707">
        <ele>39.6</ele>
        <time>2023-09-27T12:35:32Z</time>
      </trkpt>
      <trkpt lat="49.88294" lon="2.48706">
        <ele>39.6</ele>
        <time>2023-09-27T12:35:33Z</time>
      </trkpt>
      <trkpt lat="49.88294" lon="2.48705">
        <ele>39.6</ele>
        <time>2023-09-27T12:35:34Z</time>
      </trkpt>
      <trkpt lat="49.88294" lon="2.48704">
        <ele>39.6</ele>
        <time>2023-09-27T12:35:35Z</time>
      </trkpt>
      <trkpt lat="49.88294" lon="2.48703">
        <ele>39.6</ele>
        <time>2023-09-27T12:35:36Z</time>
      </trkpt>
      <trkpt lat="49.88293" lon="2.48702">
        <ele>39.6</ele>
        <time>2023-09-27T12:35:37Z</time>
      </trkpt>
      <trkpt lat="49.88293" lon="2.48701">
        <ele>39.7</ele>
        <time>2023-09-27T12:35:38Z</time>
      </trkpt>
      <trkpt lat="49.88292" lon="2.48701">
        <ele>39.7</ele>
        <time>2023-09-27T12:35:39Z</time>
      </trkpt>
      <trkpt lat="49.8829" lon="2.48701">
        <ele>39.7</ele>
        <time>2023-09-27T12:35:40Z</time>
      </trkpt>
      <trkpt lat="49.88289" lon="2.48701">
        <ele>39.7</ele>
        <time>2023-09-27T12:35:41Z</time>
      </trkpt>
      <trkpt lat="49.88289" lon="2.48701">
        <ele>39.7</ele>
        <time>2023-09-27T12:35:42Z</time>
      </trkpt>
      <trkpt lat="49.88288" lon="2.48701">
        <ele>39.7</ele>
        <time>2023-09-27T12:35:43Z</time>
      </trkpt>
      <trkpt lat="49.88287" lon="2.48701">
        <ele>39.7</ele>
        <time>2023-09-27T12:35:44Z</time>
      </trkpt>
      <trkpt lat="49.88286" lon="2.48701">
        <ele>39.7</ele>
        <time>2023-09-27T12:35:45Z</time>
      </trkpt>
      <trkpt lat="49.88284" lon="2.48702">
        <ele>39.7</ele>
        <time>2023-09-27T12:35:46Z</time>
      </trkpt>
      <trkpt lat="49.88284" lon="2.48702">
        <ele>39.7</ele>
        <time>2023-09-27T12:35:47Z</time>
      </trkpt>
      <trkpt lat="49.88283" lon="2.48703">
        <ele>39.7</ele>
        <time>2023-09-27T12:35:48Z</time>
      </trkpt>
      <trkpt lat="49.88282" lon="2.48703">
        <ele>39.7</ele>
        <time>2023-09-27T12:35:49Z</time>
      </trkpt>
      <trkpt lat="49.88281" lon="2.48704">
        <ele>39.7</ele>
        <time>2023-09-27T12:35:50Z</time>
      </trkpt>
      <trkpt lat="49.8828" lon="2.48704">
        <ele>39.7</ele>
        <time>2023-09-27T12:35:51Z</time>
      </trkpt>
      <trkpt lat="49.88279" lon="2.48704">
        <ele>39.7</ele>
        <time>2023-09-27T12:35:52Z</time>
      </trkpt>
      <trkpt lat="49.88279" lon="2.48704">
        <ele>39.7</ele>
        <time>2023-09-27T12:35:53Z</time>
      </trkpt>
      <trkpt lat="49.88278" lon="2.48705">
        <ele>39.7</ele>
        <time>2023-09-27T12:35:54Z</time>
      </trkpt>
      <trkpt lat="49.88277" lon="2.48705">
        <ele>39.7</ele>
        <time>2023-09-27T12:35:55Z</time>
      </trkpt>
      <trkpt lat="49.88276" lon="2.48705">
        <ele>39.8</ele>
        <time>2023-09-27T12:35:56Z</time>
      </trkpt>
      <trkpt lat="49.88275" lon="2.48705">
        <ele>39.8</ele>
        <time>2023-09-27T12:35:57Z</time>
      </trkpt>
      <trkpt lat="49.88274" lon="2.48706">
        <ele>39.8</ele>
        <time>2023-09-27T12:35:58Z</time>
      </trkpt>
      <trkpt lat="49.88273" lon="2.48706">
        <ele>39.8</ele>
        <time>2023-09-27T12:35:59Z</time>
      </trkpt>
      <trkpt lat="49.88272" lon="2.48706">
        <ele>39.8</ele>
        <time>2023-09-27T12:36:00Z</time>
      </trkpt>
      <trkpt lat="49.88272" lon="2.48706">
        <ele>39.8</ele>
        <time>2023-09-27T12:36:01Z</time>
      </trkpt>
      <trkpt lat="49.8827" lon="2.48707">
        <ele>39.8</ele>
        <time>2023-09-27T12:36:02Z</time>
      </trkpt>
      <trkpt lat="49.88269" lon="2.48707">
        <ele>39.8</ele>
        <time>2023-09-27T12:36:03Z</time>
      </trkpt>
      <trkpt lat="49.88268" lon="2.48707">
        <ele>39.8</ele>
        <time>2023-09-27T12:36:04Z</time>
      </trkpt>
      <trkpt lat="49.88267" lon="2.48708">
        <ele>39.8</ele>
        <time>2023-09-27T12:36:05Z</time>
      </trkpt>
      <trkpt lat="49.88266" lon="2.48708">
        <ele>39.8</ele>
        <time>2023-09-27T12:36:06Z</time>
      </trkpt>
      <trkpt lat="49.88264" lon="2.48708">
        <ele>39.9</ele>
        <time>2023-09-27T12:36:07Z</time>
      </trkpt>
      <trkpt lat="49.88263" lon="2.48709">
        <ele>39.9</ele>
        <time>2023-09-27T12:36:08Z</time>
      </trkpt>
      <trkpt lat="49.88262" lon="2.48709">
        <ele>39.9</ele>
        <time>2023-09-27T12:36:09Z</time>
      </trkpt>
      <trkpt lat="49.88261" lon="2.48709">
        <ele>39.9</ele>
        <time>2023-09-27T12:36:10Z</time>
      </trkpt>
      <trkpt lat="49.8826" lon="2.4871">
        <ele>39.9</ele>
        <time>2023-09-27T12:36:11Z</time>
      </trkpt>
      <trkpt lat="49.88259" lon="2.4871">
        <ele>39.9</ele>
        <time>2023-09-27T12:36:12Z</time>
      </trkpt>
      <trkpt lat="49.88258" lon="2.48711">
        <ele>39.9</ele>
        <time>2023-09-27T12:36:13Z</time>
      </trkpt>
      <trkpt lat="49.88257" lon="2.48711">
        <ele>39.9</ele>
        <time>2023-09-27T12:36:14Z</time>
      </trkpt>
      <trkpt lat="49.88257" lon="2.48711">
        <ele>40</ele>
        <time>2023-09-27T12:36:15Z</time>
      </trkpt>
      <trkpt lat="49.88256" lon="2.48712">
        <ele>40</ele>
        <time>2023-09-27T12:36:16Z</time>
      </trkpt>
      <trkpt lat="49.88255" lon="2.48712">
        <ele>40</ele>
        <time>2023-09-27T12:36:17Z</time>
      </trkpt>
      <trkpt lat="49.88254" lon="2.48712">
        <ele>40</ele>
        <time>2023-09-27T12:36:18Z</time>
      </trkpt>
      <trkpt lat="49.88253" lon="2.48713">
        <ele>40</ele>
        <time>2023-09-27T12:36:19Z</time>
      </trkpt>
      <trkpt lat="49.88252" lon="2.48713">
        <ele>40</ele>
        <time>2023-09-27T12:36:20Z</time>
      </trkpt>
      <trkpt lat="49.88251" lon="2.48713">
        <ele>40</ele>
        <time>2023-09-27T12:36:21Z</time>
      </trkpt>
      <trkpt lat="49.88251" lon="2.48714">
        <ele>40.1</ele>
        <time>2023-09-27T12:36:22Z</time>
      </trkpt>
      <trkpt lat="49.88249" lon="2.48714">
        <ele>40.1</ele>
        <time>2023-09-27T12:36:23Z</time>
      </trkpt>
      <trkpt lat="49.88248" lon="2.48714">
        <ele>40.1</ele>
        <time>2023-09-27T12:36:24Z</time>
      </trkpt>
      <trkpt lat="49.88248" lon="2.48714">
        <ele>40.1</ele>
        <time>2023-09-27T12:36:25Z</time>
      </trkpt>
      <trkpt lat="49.88247" lon="2.48714">
        <ele>40.1</ele>
        <time>2023-09-27T12:36:26Z</time>
      </trkpt>
      <trkpt lat="49.88246" lon="2.48714">
        <ele>40.1</ele>
        <time>2023-09-27T12:36:27Z</time>
      </trkpt>
      <trkpt lat="49.88245" lon="2.48713">
        <ele>40.1</ele>
        <time>2023-09-27T12:36:28Z</time>
      </trkpt>
      <trkpt lat="49.88244" lon="2.48713">
        <ele>40.2</ele>
        <time>2023-09-27T12:36:29Z</time>
      </trkpt>
      <trkpt lat="49.88243" lon="2.48712">
        <ele>40.2</ele>
        <time>2023-09-27T12:36:30Z</time>
      </trkpt>
      <trkpt lat="49.88242" lon="2.48712">
        <ele>40.2</ele>
        <time>2023-09-27T12:36:31Z</time>
      </trkpt>
      <trkpt lat="49.88241" lon="2.48711">
        <ele>40.2</ele>
        <time>2023-09-27T12:36:32Z</time>
      </trkpt>
      <trkpt lat="49.8824" lon="2.48711">
        <ele>40.2</ele>
        <time>2023-09-27T12:36:33Z</time>
      </trkpt>
      <trkpt lat="49.88239" lon="2.4871">
        <ele>40.2</ele>
        <time>2023-09-27T12:36:34Z</time>
      </trkpt>
      <trkpt lat="49.88238" lon="2.4871">
        <ele>40.2</ele>
        <time>2023-09-27T12:36:35Z</time>
      </trkpt>
      <trkpt lat="49.88237" lon="2.48709">
        <ele>40.2</ele>
        <time>2023-09-27T12:36:36Z</time>
      </trkpt>
      <trkpt lat="49.88236" lon="2.48708">
        <ele>40.2</ele>
        <time>2023-09-27T12:36:37Z</time>
      </trkpt>
      <trkpt lat="49.88235" lon="2.48707">
        <ele>40.2</ele>
        <time>2023-09-27T12:36:38Z</time>
      </trkpt>
      <trkpt lat="49.88234" lon="2.48707">
        <ele>40.2</ele>
        <time>2023-09-27T12:36:39Z</time>
      </trkpt>
      <trkpt lat="49.88233" lon="2.48706">
        <ele>40.2</ele>
        <time>2023-09-27T12:36:40Z</time>
      </trkpt>
      <trkpt lat="49.88232" lon="2.48705">
        <ele>40.2</ele>
        <time>2023-09-27T12:36:41Z</time>
      </trkpt>
      <trkpt lat="49.88231" lon="2.48704">
        <ele>40.2</ele>
        <time>2023-09-27T12:36:42Z</time>
      </trkpt>
      <trkpt lat="49.8823" lon="2.48703">
        <ele>40.2</ele>
        <time>2023-09-27T12:36:43Z</time>
      </trkpt>
      <trkpt lat="49.88229" lon="2.48702">
        <ele>40.2</ele>
        <time>2023-09-27T12:36:44Z</time>
      </trkpt>
      <trkpt lat="49.88228" lon="2.48702">
        <ele>40.2</ele>
        <time>2023-09-27T12:36:45Z</time>
      </trkpt>
      <trkpt lat="49.88227" lon="2.48701">
        <ele>40.2</ele>
        <time>2023-09-27T12:36:46Z</time>
      </trkpt>
      <trkpt lat="49.88226" lon="2.487">
        <ele>40.2</ele>
        <time>2023-09-27T12:36:47Z</time>
      </trkpt>
      <trkpt lat="49.88225" lon="2.48699">
        <ele>40.2</ele>
        <time>2023-09-27T12:36:48Z</time>
      </trkpt>
      <trkpt lat="49.88224" lon="2.48698">
        <ele>40.2</ele>
        <time>2023-09-27T12:36:49Z</time>
      </trkpt>
      <trkpt lat="49.88223" lon="2.48697">
        <ele>40.2</ele>
        <time>2023-09-27T12:36:50Z</time>
      </trkpt>
      <trkpt lat="49.88222" lon="2.48697">
        <ele>40.2</ele>
        <time>2023-09-27T12:36:51Z</time>
      </trkpt>
      <trkpt lat="49.88221" lon="2.48696">
        <ele>40.2</ele>
        <time>2023-09-27T12:36:52Z</time>
      </trkpt>
      <trkpt lat="49.8822" lon="2.48695">
        <ele>40.2</ele>
        <time>2023-09-27T12:36:53Z</time>
      </trkpt>
      <trkpt lat="49.8822" lon="2.48694">
        <ele>40.2</ele>
        <time>2023-09-27T12:36:54Z</time>
      </trkpt>
      <trkpt lat="49.88219" lon="2.48694">
        <ele>40.2</ele>
        <time>2023-09-27T12:36:55Z</time>
      </trkpt>
      <trkpt lat="49.88218" lon="2.48693">
        <ele>40.2</ele>
        <time>2023-09-27T12:36:56Z</time>
      </trkpt>
      <trkpt lat="49.88217" lon="2.48692">
        <ele>40.2</ele>
        <time>2023-09-27T12:36:57Z</time>
      </trkpt>
      <trkpt lat="49.88216" lon="2.48691">
        <ele>40.3</ele>
        <time>2023-09-27T12:36:58Z</time>
      </trkpt>
      <trkpt lat="49.88215" lon="2.4869">
        <ele>40.3</ele>
        <time>2023-09-27T12:36:59Z</time>
      </trkpt>
      <trkpt lat="49.88215" lon="2.48689">
        <ele>40.3</ele>
        <time>2023-09-27T12:37:00Z</time>
      </trkpt>
      <trkpt lat="49.88214" lon="2.48688">
        <ele>40.3</ele>
        <time>2023-09-27T12:37:01Z</time>
      </trkpt>
      <trkpt lat="49.88213" lon="2.48687">
        <ele>40.3</ele>
        <time>2023-09-27T12:37:02Z</time>
      </trkpt>
      <trkpt lat="49.88212" lon="2.48687">
        <ele>40.3</ele>
        <time>2023-09-27T12:37:03Z</time>
      </trkpt>
      <trkpt lat="49.88211" lon="2.48686">
        <ele>40.3</ele>
        <time>2023-09-27T12:37:04Z</time>
      </trkpt>
      <trkpt lat="49.8821" lon="2.48685">
        <ele>40.3</ele>
        <time>2023-09-27T12:37:05Z</time>
      </trkpt>
      <trkpt lat="49.88209" lon="2.48684">
        <ele>40.3</ele>
        <time>2023-09-27T12:37:06Z</time>
      </trkpt>
      <trkpt lat="49.88208" lon="2.48683">
        <ele>40.3</ele>
        <time>2023-09-27T12:37:07Z</time>
      </trkpt>
      <trkpt lat="49.88207" lon="2.48682">
        <ele>40.4</ele>
        <time>2023-09-27T12:37:08Z</time>
      </trkpt>
      <trkpt lat="49.88207" lon="2.48681">
        <ele>40.4</ele>
        <time>2023-09-27T12:37:09Z</time>
      </trkpt>
      <trkpt lat="49.88206" lon="2.4868">
        <ele>40.4</ele>
        <time>2023-09-27T12:37:10Z</time>
      </trkpt>
      <trkpt lat="49.88205" lon="2.48679">
        <ele>40.4</ele>
        <time>2023-09-27T12:37:11Z</time>
      </trkpt>
      <trkpt lat="49.88204" lon="2.48678">
        <ele>40.4</ele>
        <time>2023-09-27T12:37:12Z</time>
      </trkpt>
      <trkpt lat="49.88203" lon="2.48677">
        <ele>40.4</ele>
        <time>2023-09-27T12:37:13Z</time>
      </trkpt>
      <trkpt lat="49.88202" lon="2.48676">
        <ele>40.4</ele>
        <time>2023-09-27T12:37:14Z</time>
      </trkpt>
      <trkpt lat="49.88202" lon="2.48676">
        <ele>40.5</ele>
        <time>2023-09-27T12:37:15Z</time>
      </trkpt>
      <trkpt lat="49.88201" lon="2.48675">
        <ele>40.5</ele>
        <time>2023-09-27T12:37:16Z</time>
      </trkpt>
      <trkpt lat="49.882" lon="2.48674">
        <ele>40.5</ele>
        <time>2023-09-27T12:37:17Z</time>
      </trkpt>
      <trkpt lat="49.88199" lon="2.48674">
        <ele>40.5</ele>
        <time>2023-09-27T12:37:18Z</time>
      </trkpt>
      <trkpt lat="49.88199" lon="2.48673">
        <ele>40.5</ele>
        <time>2023-09-27T12:37:19Z</time>
      </trkpt>
      <trkpt lat="49.88198" lon="2.48672">
        <ele>40.5</ele>
        <time>2023-09-27T12:37:20Z</time>
      </trkpt>
      <trkpt lat="49.88197" lon="2.48672">
        <ele>40.5</ele>
        <time>2023-09-27T12:37:21Z</time>
      </trkpt>
      <trkpt lat="49.88196" lon="2.48671">
        <ele>40.6</ele>
        <time>2023-09-27T12:37:22Z</time>
      </trkpt>
      <trkpt lat="49.88196" lon="2.4867">
        <ele>40.6</ele>
        <time>2023-09-27T12:37:23Z</time>
      </trkpt>
      <trkpt lat="49.88195" lon="2.4867">
        <ele>40.6</ele>
        <time>2023-09-27T12:37:24Z</time>
      </trkpt>
      <trkpt lat="49.88194" lon="2.48669">
        <ele>40.6</ele>
        <time>2023-09-27T12:37:25Z</time>
      </trkpt>
      <trkpt lat="49.88193" lon="2.48668">
        <ele>40.6</ele>
        <time>2023-09-27T12:37:26Z</time>
      </trkpt>
      <trkpt lat="49.88193" lon="2.48668">
        <ele>40.6</ele>
        <time>2023-09-27T12:37:27Z</time>
      </trkpt>
      <trkpt lat="49.88192" lon="2.48667">
        <ele>40.7</ele>
        <time>2023-09-27T12:37:28Z</time>
      </trkpt>
      <trkpt lat="49.88191" lon="2.48666">
        <ele>40.7</ele>
        <time>2023-09-27T12:37:29Z</time>
      </trkpt>
      <trkpt lat="49.8819" lon="2.48665">
        <ele>40.7</ele>
        <time>2023-09-27T12:37:30Z</time>
      </trkpt>
      <trkpt lat="49.88189" lon="2.48664">
        <ele>40.7</ele>
        <time>2023-09-27T12:37:31Z</time>
      </trkpt>
      <trkpt lat="49.88188" lon="2.48664">
        <ele>40.8</ele>
        <time>2023-09-27T12:37:32Z</time>
      </trkpt>
      <trkpt lat="49.88187" lon="2.48663">
        <ele>40.8</ele>
        <time>2023-09-27T12:37:33Z</time>
      </trkpt>
      <trkpt lat="49.88186" lon="2.48662">
        <ele>40.8</ele>
        <time>2023-09-27T12:37:34Z</time>
      </trkpt>
      <trkpt lat="49.88185" lon="2.48661">
        <ele>40.8</ele>
        <time>2023-09-27T12:37:35Z</time>
      </trkpt>
      <trkpt lat="49.88184" lon="2.48661">
        <ele>40.8</ele>
        <time>2023-09-27T12:37:36Z</time>
      </trkpt>
      <trkpt lat="49.88183" lon="2.4866">
        <ele>40.9</ele>
        <time>2023-09-27T12:37:37Z</time>
      </trkpt>
      <trkpt lat="49.88182" lon="2.48659">
        <ele>40.9</ele>
        <time>2023-09-27T12:37:38Z</time>
      </trkpt>
      <trkpt lat="49.88181" lon="2.48658">
        <ele>40.9</ele>
        <time>2023-09-27T12:37:39Z</time>
      </trkpt>
      <trkpt lat="49.8818" lon="2.48657">
        <ele>41</ele>
        <time>2023-09-27T12:37:40Z</time>
      </trkpt>
      <trkpt lat="49.88179" lon="2.48656">
        <ele>41</ele>
        <time>2023-09-27T12:37:41Z</time>
      </trkpt>
      <trkpt lat="49.88178" lon="2.48656">
        <ele>41</ele>
        <time>2023-09-27T12:37:42Z</time>
      </trkpt>
      <trkpt lat="49.88177" lon="2.48655">
        <ele>41</ele>
        <time>2023-09-27T12:37:43Z</time>
      </trkpt>
      <trkpt lat="49.88176" lon="2.48653">
        <ele>41.1</ele>
        <time>2023-09-27T12:37:44Z</time>
      </trkpt>
      <trkpt lat="49.88176" lon="2.48653">
        <ele>41.1</ele>
        <time>2023-09-27T12:37:45Z</time>
      </trkpt>
      <trkpt lat="49.88175" lon="2.48652">
        <ele>41.1</ele>
        <time>2023-09-27T12:37:46Z</time>
      </trkpt>
      <trkpt lat="49.88174" lon="2.48651">
        <ele>41.2</ele>
        <time>2023-09-27T12:37:47Z</time>
      </trkpt>
      <trkpt lat="49.88173" lon="2.4865">
        <ele>41.2</ele>
        <time>2023-09-27T12:37:48Z</time>
      </trkpt>
      <trkpt lat="49.88172" lon="2.48649">
        <ele>41.2</ele>
        <time>2023-09-27T12:37:49Z</time>
      </trkpt>
      <trkpt lat="49.88171" lon="2.48648">
        <ele>41.2</ele>
        <time>2023-09-27T12:37:50Z</time>
      </trkpt>
      <trkpt lat="49.88171" lon="2.48648">
        <ele>41.3</ele>
        <time>2023-09-27T12:37:51Z</time>
      </trkpt>
      <trkpt lat="49.8817" lon="2.48647">
        <ele>41.3</ele>
        <time>2023-09-27T12:37:52Z</time>
      </trkpt>
      <trkpt lat="49.88169" lon="2.48646">
        <ele>41.3</ele>
        <time>2023-09-27T12:37:53Z</time>
      </trkpt>
      <trkpt lat="49.88168" lon="2.48645">
        <ele>41.3</ele>
        <time>2023-09-27T12:37:54Z</time>
      </trkpt>
      <trkpt lat="49.88168" lon="2.48645">
        <ele>41.4</ele>
        <time>2023-09-27T12:37:55Z</time>
      </trkpt>
      <trkpt lat="49.88167" lon="2.48644">
        <ele>41.4</ele>
        <time>2023-09-27T12:37:56Z</time>
      </trkpt>
      <trkpt lat="49.88166" lon="2.48643">
        <ele>41.4</ele>
        <time>2023-09-27T12:37:57Z</time>
      </trkpt>
      <trkpt lat="49.88165" lon="2.48643">
        <ele>41.4</ele>
        <time>2023-09-27T12:37:58Z</time>
      </trkpt>
      <trkpt lat="49.88165" lon="2.48642">
        <ele>41.5</ele>
        <time>2023-09-27T12:37:59Z</time>
      </trkpt>
      <trkpt lat="49.88164" lon="2.48641">
        <ele>41.5</ele>
        <time>2023-09-27T12:38:00Z</time>
      </trkpt>
      <trkpt lat="49.88163" lon="2.4864">
        <ele>41.5</ele>
        <time>2023-09-27T12:38:01Z</time>
      </trkpt>
      <trkpt lat="49.88162" lon="2.4864">
        <ele>41.6</ele>
        <time>2023-09-27T12:38:02Z</time>
      </trkpt>
      <trkpt lat="49.88162" lon="2.48639">
        <ele>41.6</ele>
        <time>2023-09-27T12:38:03Z</time>
      </trkpt>
      <trkpt lat="49.88161" lon="2.48638">
        <ele>41.6</ele>
        <time>2023-09-27T12:38:04Z</time>
      </trkpt>
      <trkpt lat="49.8816" lon="2.48637">
        <ele>41.7</ele>
        <time>2023-09-27T12:38:05Z</time>
      </trkpt>
      <trkpt lat="49.88159" lon="2.48636">
        <ele>41.7</ele>
        <time>2023-09-27T12:38:06Z</time>
      </trkpt>
      <trkpt lat="49.88158" lon="2.48635">
        <ele>41.7</ele>
        <time>2023-09-27T12:38:07Z</time>
      </trkpt>
      <trkpt lat="49.88157" lon="2.48634">
        <ele>41.8</ele>
        <time>2023-09-27T12:38:08Z</time>
      </trkpt>
      <trkpt lat="49.88156" lon="2.48634">
        <ele>41.8</ele>
        <time>2023-09-27T12:38:09Z</time>
      </trkpt>
      <trkpt lat="49.88155" lon="2.48633">
        <ele>41.8</ele>
        <time>2023-09-27T12:38:10Z</time>
      </trkpt>
      <trkpt lat="49.88154" lon="2.48632">
        <ele>41.9</ele>
        <time>2023-09-27T12:38:11Z</time>
      </trkpt>
      <trkpt lat="49.88153" lon="2.48631">
        <ele>41.9</ele>
        <time>2023-09-27T12:38:12Z</time>
      </trkpt>
      <trkpt lat="49.88152" lon="2.4863">
        <ele>41.9</ele>
        <time>2023-09-27T12:38:13Z</time>
      </trkpt>
      <trkpt lat="49.88151" lon="2.48629">
        <ele>42</ele>
        <time>2023-09-27T12:38:14Z</time>
      </trkpt>
      <trkpt lat="49.8815" lon="2.48628">
        <ele>42</ele>
        <time>2023-09-27T12:38:15Z</time>
      </trkpt>
      <trkpt lat="49.88149" lon="2.48628">
        <ele>42.1</ele>
        <time>2023-09-27T12:38:16Z</time>
      </trkpt>
      <trkpt lat="49.88148" lon="2.48627">
        <ele>42.1</ele>
        <time>2023-09-27T12:38:17Z</time>
      </trkpt>
      <trkpt lat="49.88147" lon="2.48626">
        <ele>42.1</ele>
        <time>2023-09-27T12:38:18Z</time>
      </trkpt>
      <trkpt lat="49.88146" lon="2.48625">
        <ele>42.2</ele>
        <time>2023-09-27T12:38:19Z</time>
      </trkpt>
      <trkpt lat="49.88145" lon="2.48624">
        <ele>42.2</ele>
        <time>2023-09-27T12:38:20Z</time>
      </trkpt>
      <trkpt lat="49.88144" lon="2.48624">
        <ele>42.3</ele>
        <time>2023-09-27T12:38:21Z</time>
      </trkpt>
      <trkpt lat="49.88143" lon="2.48623">
        <ele>42.3</ele>
        <time>2023-09-27T12:38:22Z</time>
      </trkpt>
      <trkpt lat="49.88142" lon="2.48622">
        <ele>42.3</ele>
        <time>2023-09-27T12:38:23Z</time>
      </trkpt>
      <trkpt lat="49.88141" lon="2.48622">
        <ele>42.4</ele>
        <time>2023-09-27T12:38:24Z</time>
      </trkpt>
      <trkpt lat="49.8814" lon="2.48621">
        <ele>42.4</ele>
        <time>2023-09-27T12:38:25Z</time>
      </trkpt>
      <trkpt lat="49.88139" lon="2.4862">
        <ele>42.5</ele>
        <time>2023-09-27T12:38:26Z</time>
      </trkpt>
      <trkpt lat="49.88138" lon="2.4862">
        <ele>42.5</ele>
        <time>2023-09-27T12:38:27Z</time>
      </trkpt>
      <trkpt lat="49.88137" lon="2.48619">
        <ele>42.5</ele>
        <time>2023-09-27T12:38:28Z</time>
      </trkpt>
      <trkpt lat="49.88136" lon="2.48618">
        <ele>42.6</ele>
        <time>2023-09-27T12:38:29Z</time>
      </trkpt>
      <trkpt lat="49.88136" lon="2.48617">
        <ele>42.6</ele>
        <time>2023-09-27T12:38:30Z</time>
      </trkpt>
      <trkpt lat="49.88135" lon="2.48616">
        <ele>42.6</ele>
        <time>2023-09-27T12:38:31Z</time>
      </trkpt>
      <trkpt lat="49.88134" lon="2.48616">
        <ele>42.7</ele>
        <time>2023-09-27T12:38:32Z</time>
      </trkpt>
      <trkpt lat="49.88133" lon="2.48615">
        <ele>42.7</ele>
        <time>2023-09-27T12:38:33Z</time>
      </trkpt>
      <trkpt lat="49.88132" lon="2.48614">
        <ele>42.8</ele>
        <time>2023-09-27T12:38:34Z</time>
      </trkpt>
      <trkpt lat="49.88131" lon="2.48613">
        <ele>42.8</ele>
        <time>2023-09-27T12:38:35Z</time>
      </trkpt>
      <trkpt lat="49.8813" lon="2.48612">
        <ele>42.8</ele>
        <time>2023-09-27T12:38:36Z</time>
      </trkpt>
      <trkpt lat="49.88129" lon="2.48611">
        <ele>42.9</ele>
        <time>2023-09-27T12:38:37Z</time>
      </trkpt>
      <trkpt lat="49.88128" lon="2.48611">
        <ele>42.9</ele>
        <time>2023-09-27T12:38:38Z</time>
      </trkpt>
      <trkpt lat="49.88127" lon="2.4861">
        <ele>43</ele>
        <time>2023-09-27T12:38:39Z</time>
      </trkpt>
      <trkpt lat="49.88126" lon="2.48609">
        <ele>43</ele>
        <time>2023-09-27T12:38:40Z</time>
      </trkpt>
      <trkpt lat="49.88125" lon="2.48608">
        <ele>43</ele>
        <time>2023-09-27T12:38:41Z</time>
      </trkpt>
      <trkpt lat="49.88124" lon="2.48607">
        <ele>43.1</ele>
        <time>2023-09-27T12:38:42Z</time>
      </trkpt>
      <trkpt lat="49.88123" lon="2.48606">
        <ele>43.1</ele>
        <time>2023-09-27T12:38:43Z</time>
      </trkpt>
      <trkpt lat="49.88122" lon="2.48606">
        <ele>43.1</ele>
        <time>2023-09-27T12:38:44Z</time>
      </trkpt>
      <trkpt lat="49.88121" lon="2.48605">
        <ele>43.2</ele>
        <time>2023-09-27T12:38:45Z</time>
      </trkpt>
      <trkpt lat="49.8812" lon="2.48604">
        <ele>43.2</ele>
        <time>2023-09-27T12:38:46Z</time>
      </trkpt>
      <trkpt lat="49.88119" lon="2.48603">
        <ele>43.3</ele>
        <time>2023-09-27T12:38:47Z</time>
      </trkpt>
      <trkpt lat="49.88119" lon="2.48602">
        <ele>43.3</ele>
        <time>2023-09-27T12:38:48Z</time>
      </trkpt>
      <trkpt lat="49.88118" lon="2.48601">
        <ele>43.4</ele>
        <time>2023-09-27T12:38:49Z</time>
      </trkpt>
      <trkpt lat="49.88117" lon="2.486">
        <ele>43.4</ele>
        <time>2023-09-27T12:38:50Z</time>
      </trkpt>
      <trkpt lat="49.88116" lon="2.48599">
        <ele>43.4</ele>
        <time>2023-09-27T12:38:51Z</time>
      </trkpt>
      <trkpt lat="49.88115" lon="2.48598">
        <ele>43.5</ele>
        <time>2023-09-27T12:38:52Z</time>
      </trkpt>
      <trkpt lat="49.88114" lon="2.48598">
        <ele>43.5</ele>
        <time>2023-09-27T12:38:53Z</time>
      </trkpt>
      <trkpt lat="49.88114" lon="2.48597">
        <ele>43.6</ele>
        <time>2023-09-27T12:38:54Z</time>
      </trkpt>
      <trkpt lat="49.88113" lon="2.48596">
        <ele>43.6</ele>
        <time>2023-09-27T12:38:55Z</time>
      </trkpt>
      <trkpt lat="49.88112" lon="2.48595">
        <ele>43.6</ele>
        <time>2023-09-27T12:38:56Z</time>
      </trkpt>
      <trkpt lat="49.88111" lon="2.48594">
        <ele>43.7</ele>
        <time>2023-09-27T12:38:57Z</time>
      </trkpt>
      <trkpt lat="49.88111" lon="2.48594">
        <ele>43.7</ele>
        <time>2023-09-27T12:38:58Z</time>
      </trkpt>
      <trkpt lat="49.8811" lon="2.48593">
        <ele>43.7</ele>
        <time>2023-09-27T12:38:59Z</time>
      </trkpt>
      <trkpt lat="49.88109" lon="2.48592">
        <ele>43.8</ele>
        <time>2023-09-27T12:39:00Z</time>
      </trkpt>
      <trkpt lat="49.88108" lon="2.48591">
        <ele>43.8</ele>
        <time>2023-09-27T12:39:01Z</time>
      </trkpt>
      <trkpt lat="49.88107" lon="2.48591">
        <ele>43.9</ele>
        <time>2023-09-27T12:39:02Z</time>
      </trkpt>
      <trkpt lat="49.88106" lon="2.4859">
        <ele>43.9</ele>
        <time>2023-09-27T12:39:03Z</time>
      </trkpt>
      <trkpt lat="49.88105" lon="2.48589">
        <ele>43.9</ele>
        <time>2023-09-27T12:39:04Z</time>
      </trkpt>
      <trkpt lat="49.88104" lon="2.48588">
        <ele>44</ele>
        <time>2023-09-27T12:39:05Z</time>
      </trkpt>
      <trkpt lat="49.88103" lon="2.48587">
        <ele>44</ele>
        <time>2023-09-27T12:39:06Z</time>
      </trkpt>
      <trkpt lat="49.88102" lon="2.48586">
        <ele>44.1</ele>
        <time>2023-09-27T12:39:07Z</time>
      </trkpt>
      <trkpt lat="49.88101" lon="2.48586">
        <ele>44.1</ele>
        <time>2023-09-27T12:39:08Z</time>
      </trkpt>
      <trkpt lat="49.88101" lon="2.48585">
        <ele>44.2</ele>
        <time>2023-09-27T12:39:09Z</time>
      </trkpt>
      <trkpt lat="49.881" lon="2.48584">
        <ele>44.2</ele>
        <time>2023-09-27T12:39:10Z</time>
      </trkpt>
      <trkpt lat="49.88099" lon="2.48584">
        <ele>44.2</ele>
        <time>2023-09-27T12:39:11Z</time>
      </trkpt>
      <trkpt lat="49.88098" lon="2.48583">
        <ele>44.3</ele>
        <time>2023-09-27T12:39:12Z</time>
      </trkpt>
      <trkpt lat="49.88097" lon="2.48583">
        <ele>44.3</ele>
        <time>2023-09-27T12:39:13Z</time>
      </trkpt>
      <trkpt lat="49.88096" lon="2.48582">
        <ele>44.4</ele>
        <time>2023-09-27T12:39:14Z</time>
      </trkpt>
      <trkpt lat="49.88095" lon="2.48581">
        <ele>44.4</ele>
        <time>2023-09-27T12:39:15Z</time>
      </trkpt>
      <trkpt lat="49.88094" lon="2.48581">
        <ele>44.5</ele>
        <time>2023-09-27T12:39:16Z</time>
      </trkpt>
      <trkpt lat="49.88093" lon="2.4858">
        <ele>44.5</ele>
        <time>2023-09-27T12:39:17Z</time>
      </trkpt>
      <trkpt lat="49.88093" lon="2.4858">
        <ele>44.5</ele>
        <time>2023-09-27T12:39:18Z</time>
      </trkpt>
      <trkpt lat="49.88092" lon="2.48579">
        <ele>44.6</ele>
        <time>2023-09-27T12:39:19Z</time>
      </trkpt>
      <trkpt lat="49.88091" lon="2.48578">
        <ele>44.6</ele>
        <time>2023-09-27T12:39:20Z</time>
      </trkpt>
      <trkpt lat="49.8809" lon="2.48578">
        <ele>44.6</ele>
        <time>2023-09-27T12:39:21Z</time>
      </trkpt>
      <trkpt lat="49.88089" lon="2.48577">
        <ele>44.7</ele>
        <time>2023-09-27T12:39:22Z</time>
      </trkpt>
      <trkpt lat="49.88088" lon="2.48576">
        <ele>44.7</ele>
        <time>2023-09-27T12:39:23Z</time>
      </trkpt>
      <trkpt lat="49.88088" lon="2.48576">
        <ele>44.7</ele>
        <time>2023-09-27T12:39:24Z</time>
      </trkpt>
      <trkpt lat="49.88086" lon="2.48575">
        <ele>44.8</ele>
        <time>2023-09-27T12:39:25Z</time>
      </trkpt>
      <trkpt lat="49.88086" lon="2.48574">
        <ele>44.8</ele>
        <time>2023-09-27T12:39:26Z</time>
      </trkpt>
      <trkpt lat="49.88085" lon="2.48574">
        <ele>44.8</ele>
        <time>2023-09-27T12:39:27Z</time>
      </trkpt>
      <trkpt lat="49.88084" lon="2.48573">
        <ele>44.9</ele>
        <time>2023-09-27T12:39:28Z</time>
      </trkpt>
      <trkpt lat="49.88083" lon="2.48572">
        <ele>44.9</ele>
        <time>2023-09-27T12:39:29Z</time>
      </trkpt>
      <trkpt lat="49.88083" lon="2.48571">
        <ele>45</ele>
        <time>2023-09-27T12:39:30Z</time>
      </trkpt>
      <trkpt lat="49.88082" lon="2.48571">
        <ele>45</ele>
        <time>2023-09-27T12:39:31Z</time>
      </trkpt>
      <trkpt lat="49.88081" lon="2.4857">
        <ele>45</ele>
        <time>2023-09-27T12:39:32Z</time>
      </trkpt>
      <trkpt lat="49.8808" lon="2.48569">
        <ele>45.1</ele>
        <time>2023-09-27T12:39:33Z</time>
      </trkpt>
      <trkpt lat="49.88079" lon="2.48569">
        <ele>45.1</ele>
        <time>2023-09-27T12:39:34Z</time>
      </trkpt>
      <trkpt lat="49.88078" lon="2.48568">
        <ele>45.1</ele>
        <time>2023-09-27T12:39:35Z</time>
      </trkpt>
      <trkpt lat="49.88077" lon="2.48567">
        <ele>45.2</ele>
        <time>2023-09-27T12:39:36Z</time>
      </trkpt>
      <trkpt lat="49.88076" lon="2.48567">
        <ele>45.2</ele>
        <time>2023-09-27T12:39:37Z</time>
      </trkpt>
      <trkpt lat="49.88075" lon="2.48566">
        <ele>45.3</ele>
        <time>2023-09-27T12:39:38Z</time>
      </trkpt>
      <trkpt lat="49.88074" lon="2.48566">
        <ele>45.3</ele>
        <time>2023-09-27T12:39:39Z</time>
      </trkpt>
      <trkpt lat="49.88073" lon="2.48565">
        <ele>45.3</ele>
        <time>2023-09-27T12:39:40Z</time>
      </trkpt>
      <trkpt lat="49.88072" lon="2.48564">
        <ele>45.4</ele>
        <time>2023-09-27T12:39:41Z</time>
      </trkpt>
      <trkpt lat="49.88071" lon="2.48564">
        <ele>45.4</ele>
        <time>2023-09-27T12:39:42Z</time>
      </trkpt>
      <trkpt lat="49.8807" lon="2.48563">
        <ele>45.5</ele>
        <time>2023-09-27T12:39:43Z</time>
      </trkpt>
      <trkpt lat="49.88069" lon="2.48563">
        <ele>45.5</ele>
        <time>2023-09-27T12:39:44Z</time>
      </trkpt>
      <trkpt lat="49.88068" lon="2.48562">
        <ele>45.6</ele>
        <time>2023-09-27T12:39:45Z</time>
      </trkpt>
      <trkpt lat="49.88067" lon="2.48561">
        <ele>45.6</ele>
        <time>2023-09-27T12:39:46Z</time>
      </trkpt>
      <trkpt lat="49.88065" lon="2.4856">
        <ele>45.7</ele>
        <time>2023-09-27T12:39:47Z</time>
      </trkpt>
      <trkpt lat="49.88065" lon="2.4856">
        <ele>45.7</ele>
        <time>2023-09-27T12:39:48Z</time>
      </trkpt>
      <trkpt lat="49.88064" lon="2.48559">
        <ele>45.7</ele>
        <time>2023-09-27T12:39:49Z</time>
      </trkpt>
      <trkpt lat="49.88063" lon="2.48559">
        <ele>45.8</ele>
        <time>2023-09-27T12:39:50Z</time>
      </trkpt>
      <trkpt lat="49.88062" lon="2.48558">
        <ele>45.8</ele>
        <time>2023-09-27T12:39:51Z</time>
      </trkpt>
      <trkpt lat="49.88061" lon="2.48557">
        <ele>45.9</ele>
        <time>2023-09-27T12:39:52Z</time>
      </trkpt>
      <trkpt lat="49.8806" lon="2.48557">
        <ele>45.9</ele>
        <time>2023-09-27T12:39:53Z</time>
      </trkpt>
      <trkpt lat="49.88059" lon="2.48556">
        <ele>46</ele>
        <time>2023-09-27T12:39:54Z</time>
      </trkpt>
      <trkpt lat="49.88058" lon="2.48555">
        <ele>46</ele>
        <time>2023-09-27T12:39:55Z</time>
      </trkpt>
      <trkpt lat="49.88056" lon="2.48553">
        <ele>46.1</ele>
        <time>2023-09-27T12:39:56Z</time>
      </trkpt>
      <trkpt lat="49.88055" lon="2.48553">
        <ele>46.2</ele>
        <time>2023-09-27T12:39:57Z</time>
      </trkpt>
      <trkpt lat="49.88054" lon="2.48552">
        <ele>46.2</ele>
        <time>2023-09-27T12:39:58Z</time>
      </trkpt>
      <trkpt lat="49.88052" lon="2.4855">
        <ele>46.3</ele>
        <time>2023-09-27T12:39:59Z</time>
      </trkpt>
      <trkpt lat="49.88051" lon="2.4855">
        <ele>46.3</ele>
        <time>2023-09-27T12:40:00Z</time>
      </trkpt>
      <trkpt lat="49.88051" lon="2.48549">
        <ele>46.4</ele>
        <time>2023-09-27T12:40:01Z</time>
      </trkpt>
      <trkpt lat="49.88049" lon="2.48548">
        <ele>46.5</ele>
        <time>2023-09-27T12:40:02Z</time>
      </trkpt>
      <trkpt lat="49.88048" lon="2.48547">
        <ele>46.5</ele>
        <time>2023-09-27T12:40:03Z</time>
      </trkpt>
      <trkpt lat="49.88047" lon="2.48546">
        <ele>46.5</ele>
        <time>2023-09-27T12:40:04Z</time>
      </trkpt>
      <trkpt lat="49.88046" lon="2.48546">
        <ele>46.6</ele>
        <time>2023-09-27T12:40:05Z</time>
      </trkpt>
      <trkpt lat="49.88045" lon="2.48545">
        <ele>46.6</ele>
        <time>2023-09-27T12:40:06Z</time>
      </trkpt>
      <trkpt lat="49.88044" lon="2.48544">
        <ele>46.7</ele>
        <time>2023-09-27T12:40:07Z</time>
      </trkpt>
      <trkpt lat="49.88043" lon="2.48543">
        <ele>46.7</ele>
        <time>2023-09-27T12:40:08Z</time>
      </trkpt>
      <trkpt lat="49.88042" lon="2.48542">
        <ele>46.8</ele>
        <time>2023-09-27T12:40:09Z</time>
      </trkpt>
      <trkpt lat="49.88041" lon="2.48541">
        <ele>46.8</ele>
        <time>2023-09-27T12:40:10Z</time>
      </trkpt>
      <trkpt lat="49.8804" lon="2.48541">
        <ele>46.8</ele>
        <time>2023-09-27T12:40:11Z</time>
      </trkpt>
      <trkpt lat="49.8804" lon="2.4854">
        <ele>46.9</ele>
        <time>2023-09-27T12:40:12Z</time>
      </trkpt>
      <trkpt lat="49.88039" lon="2.48539">
        <ele>46.9</ele>
        <time>2023-09-27T12:40:13Z</time>
      </trkpt>
      <trkpt lat="49.88038" lon="2.48538">
        <ele>47</ele>
        <time>2023-09-27T12:40:14Z</time>
      </trkpt>
      <trkpt lat="49.88037" lon="2.48538">
        <ele>47</ele>
        <time>2023-09-27T12:40:15Z</time>
      </trkpt>
      <trkpt lat="49.88036" lon="2.48537">
        <ele>47</ele>
        <time>2023-09-27T12:40:16Z</time>
      </trkpt>
      <trkpt lat="49.88035" lon="2.48536">
        <ele>47.1</ele>
        <time>2023-09-27T12:40:17Z</time>
      </trkpt>
      <trkpt lat="49.88034" lon="2.48535">
        <ele>47.1</ele>
        <time>2023-09-27T12:40:18Z</time>
      </trkpt>
      <trkpt lat="49.88033" lon="2.48535">
        <ele>47.1</ele>
        <time>2023-09-27T12:40:19Z</time>
      </trkpt>
      <trkpt lat="49.88032" lon="2.48534">
        <ele>47.2</ele>
        <time>2023-09-27T12:40:20Z</time>
      </trkpt>
      <trkpt lat="49.88031" lon="2.48534">
        <ele>47.2</ele>
        <time>2023-09-27T12:40:21Z</time>
      </trkpt>
      <trkpt lat="49.88031" lon="2.48533">
        <ele>47.3</ele>
        <time>2023-09-27T12:40:22Z</time>
      </trkpt>
      <trkpt lat="49.8803" lon="2.48532">
        <ele>47.3</ele>
        <time>2023-09-27T12:40:23Z</time>
      </trkpt>
      <trkpt lat="49.88029" lon="2.48532">
        <ele>47.3</ele>
        <time>2023-09-27T12:40:24Z</time>
      </trkpt>
      <trkpt lat="49.88028" lon="2.48531">
        <ele>47.3</ele>
        <time>2023-09-27T12:40:25Z</time>
      </trkpt>
      <trkpt lat="49.88027" lon="2.48531">
        <ele>47.4</ele>
        <time>2023-09-27T12:40:26Z</time>
      </trkpt>
      <trkpt lat="49.88026" lon="2.48531">
        <ele>47.4</ele>
        <time>2023-09-27T12:40:27Z</time>
      </trkpt>
      <trkpt lat="49.88025" lon="2.4853">
        <ele>47.4</ele>
        <time>2023-09-27T12:40:28Z</time>
      </trkpt>
      <trkpt lat="49.88024" lon="2.4853">
        <ele>47.5</ele>
        <time>2023-09-27T12:40:29Z</time>
      </trkpt>
      <trkpt lat="49.88023" lon="2.48529">
        <ele>47.5</ele>
        <time>2023-09-27T12:40:30Z</time>
      </trkpt>
      <trkpt lat="49.88022" lon="2.48529">
        <ele>47.6</ele>
        <time>2023-09-27T12:40:31Z</time>
      </trkpt>
      <trkpt lat="49.88021" lon="2.48528">
        <ele>47.6</ele>
        <time>2023-09-27T12:40:32Z</time>
      </trkpt>
      <trkpt lat="49.8802" lon="2.48527">
        <ele>47.6</ele>
        <time>2023-09-27T12:40:33Z</time>
      </trkpt>
      <trkpt lat="49.88019" lon="2.48527">
        <ele>47.7</ele>
        <time>2023-09-27T12:40:34Z</time>
      </trkpt>
      <trkpt lat="49.88019" lon="2.48526">
        <ele>47.7</ele>
        <time>2023-09-27T12:40:35Z</time>
      </trkpt>
      <trkpt lat="49.88018" lon="2.48525">
        <ele>47.7</ele>
        <time>2023-09-27T12:40:36Z</time>
      </trkpt>
      <trkpt lat="49.88017" lon="2.48525">
        <ele>47.8</ele>
        <time>2023-09-27T12:40:37Z</time>
      </trkpt>
      <trkpt lat="49.88016" lon="2.48524">
        <ele>47.8</ele>
        <time>2023-09-27T12:40:38Z</time>
      </trkpt>
      <trkpt lat="49.88015" lon="2.48523">
        <ele>47.9</ele>
        <time>2023-09-27T12:40:39Z</time>
      </trkpt>
      <trkpt lat="49.88014" lon="2.48523">
        <ele>47.9</ele>
        <time>2023-09-27T12:40:40Z</time>
      </trkpt>
      <trkpt lat="49.88013" lon="2.48522">
        <ele>47.9</ele>
        <time>2023-09-27T12:40:41Z</time>
      </trkpt>
      <trkpt lat="49.88012" lon="2.48522">
        <ele>48</ele>
        <time>2023-09-27T12:40:42Z</time>
      </trkpt>
      <trkpt lat="49.88011" lon="2.48521">
        <ele>48</ele>
        <time>2023-09-27T12:40:43Z</time>
      </trkpt>
      <trkpt lat="49.8801" lon="2.4852">
        <ele>48</ele>
        <time>2023-09-27T12:40:44Z</time>
      </trkpt>
      <trkpt lat="49.88009" lon="2.48519">
        <ele>48.1</ele>
        <time>2023-09-27T12:40:45Z</time>
      </trkpt>
      <trkpt lat="49.88008" lon="2.48519">
        <ele>48.1</ele>
        <time>2023-09-27T12:40:46Z</time>
      </trkpt>
      <trkpt lat="49.88007" lon="2.48518">
        <ele>48.2</ele>
        <time>2023-09-27T12:40:47Z</time>
      </trkpt>
      <trkpt lat="49.88006" lon="2.48517">
        <ele>48.2</ele>
        <time>2023-09-27T12:40:48Z</time>
      </trkpt>
      <trkpt lat="49.88005" lon="2.48516">
        <ele>48.2</ele>
        <time>2023-09-27T12:40:49Z</time>
      </trkpt>
      <trkpt lat="49.88004" lon="2.48515">
        <ele>48.3</ele>
        <time>2023-09-27T12:40:50Z</time>
      </trkpt>
      <trkpt lat="49.88003" lon="2.48514">
        <ele>48.3</ele>
        <time>2023-09-27T12:40:51Z</time>
      </trkpt>
      <trkpt lat="49.88003" lon="2.48513">
        <ele>48.3</ele>
        <time>2023-09-27T12:40:52Z</time>
      </trkpt>
      <trkpt lat="49.88002" lon="2.48512">
        <ele>48.4</ele>
        <time>2023-09-27T12:40:53Z</time>
      </trkpt>
      <trkpt lat="49.88001" lon="2.48511">
        <ele>48.4</ele>
        <time>2023-09-27T12:40:54Z</time>
      </trkpt>
      <trkpt lat="49.88" lon="2.4851">
        <ele>48.5</ele>
        <time>2023-09-27T12:40:55Z</time>
      </trkpt>
      <trkpt lat="49.87999" lon="2.48509">
        <ele>48.5</ele>
        <time>2023-09-27T12:40:56Z</time>
      </trkpt>
      <trkpt lat="49.87998" lon="2.48508">
        <ele>48.5</ele>
        <time>2023-09-27T12:40:57Z</time>
      </trkpt>
      <trkpt lat="49.87997" lon="2.48507">
        <ele>48.6</ele>
        <time>2023-09-27T12:40:58Z</time>
      </trkpt>
      <trkpt lat="49.87996" lon="2.48506">
        <ele>48.6</ele>
        <time>2023-09-27T12:40:59Z</time>
      </trkpt>
      <trkpt lat="49.87995" lon="2.48506">
        <ele>48.6</ele>
        <time>2023-09-27T12:41:00Z</time>
      </trkpt>
      <trkpt lat="49.87994" lon="2.48505">
        <ele>48.7</ele>
        <time>2023-09-27T12:41:01Z</time>
      </trkpt>
      <trkpt lat="49.87993" lon="2.48504">
        <ele>48.7</ele>
        <time>2023-09-27T12:41:02Z</time>
      </trkpt>
      <trkpt lat="49.87992" lon="2.48503">
        <ele>48.7</ele>
        <time>2023-09-27T12:41:03Z</time>
      </trkpt>
      <trkpt lat="49.87991" lon="2.48503">
        <ele>48.8</ele>
        <time>2023-09-27T12:41:04Z</time>
      </trkpt>
      <trkpt lat="49.8799" lon="2.48502">
        <ele>48.8</ele>
        <time>2023-09-27T12:41:05Z</time>
      </trkpt>
      <trkpt lat="49.87989" lon="2.48501">
        <ele>48.9</ele>
        <time>2023-09-27T12:41:06Z</time>
      </trkpt>
      <trkpt lat="49.87988" lon="2.485">
        <ele>48.9</ele>
        <time>2023-09-27T12:41:07Z</time>
      </trkpt>
      <trkpt lat="49.87987" lon="2.485">
        <ele>48.9</ele>
        <time>2023-09-27T12:41:08Z</time>
      </trkpt>
      <trkpt lat="49.87986" lon="2.48499">
        <ele>49</ele>
        <time>2023-09-27T12:41:09Z</time>
      </trkpt>
      <trkpt lat="49.87985" lon="2.48498">
        <ele>49</ele>
        <time>2023-09-27T12:41:10Z</time>
      </trkpt>
      <trkpt lat="49.87984" lon="2.48498">
        <ele>49</ele>
        <time>2023-09-27T12:41:11Z</time>
      </trkpt>
      <trkpt lat="49.87982" lon="2.48496">
        <ele>49.1</ele>
        <time>2023-09-27T12:41:12Z</time>
      </trkpt>
      <trkpt lat="49.87981" lon="2.48496">
        <ele>49.1</ele>
        <time>2023-09-27T12:41:13Z</time>
      </trkpt>
      <trkpt lat="49.87981" lon="2.48495">
        <ele>49.2</ele>
        <time>2023-09-27T12:41:14Z</time>
      </trkpt>
      <trkpt lat="49.8798" lon="2.48494">
        <ele>49.2</ele>
        <time>2023-09-27T12:41:15Z</time>
      </trkpt>
      <trkpt lat="49.87979" lon="2.48494">
        <ele>49.3</ele>
        <time>2023-09-27T12:41:16Z</time>
      </trkpt>
      <trkpt lat="49.87977" lon="2.48493">
        <ele>49.3</ele>
        <time>2023-09-27T12:41:17Z</time>
      </trkpt>
      <trkpt lat="49.87976" lon="2.48492">
        <ele>49.3</ele>
        <time>2023-09-27T12:41:18Z</time>
      </trkpt>
      <trkpt lat="49.87975" lon="2.48491">
        <ele>49.4</ele>
        <time>2023-09-27T12:41:19Z</time>
      </trkpt>
      <trkpt lat="49.87974" lon="2.4849">
        <ele>49.4</ele>
        <time>2023-09-27T12:41:20Z</time>
      </trkpt>
      <trkpt lat="49.87972" lon="2.48489">
        <ele>49.5</ele>
        <time>2023-09-27T12:41:21Z</time>
      </trkpt>
      <trkpt lat="49.87972" lon="2.48488">
        <ele>49.5</ele>
        <time>2023-09-27T12:41:22Z</time>
      </trkpt>
      <trkpt lat="49.87971" lon="2.48488">
        <ele>49.5</ele>
        <time>2023-09-27T12:41:23Z</time>
      </trkpt>
      <trkpt lat="49.8797" lon="2.48487">
        <ele>49.6</ele>
        <time>2023-09-27T12:41:24Z</time>
      </trkpt>
      <trkpt lat="49.87969" lon="2.48487">
        <ele>49.6</ele>
        <time>2023-09-27T12:41:25Z</time>
      </trkpt>
      <trkpt lat="49.87968" lon="2.48486">
        <ele>49.7</ele>
        <time>2023-09-27T12:41:26Z</time>
      </trkpt>
      <trkpt lat="49.87967" lon="2.48486">
        <ele>49.7</ele>
        <time>2023-09-27T12:41:27Z</time>
      </trkpt>
      <trkpt lat="49.87966" lon="2.48485">
        <ele>49.7</ele>
        <time>2023-09-27T12:41:28Z</time>
      </trkpt>
      <trkpt lat="49.87965" lon="2.48485">
        <ele>49.8</ele>
        <time>2023-09-27T12:41:29Z</time>
      </trkpt>
      <trkpt lat="49.87964" lon="2.48484">
        <ele>49.8</ele>
        <time>2023-09-27T12:41:30Z</time>
      </trkpt>
      <trkpt lat="49.87963" lon="2.48484">
        <ele>49.8</ele>
        <time>2023-09-27T12:41:31Z</time>
      </trkpt>
      <trkpt lat="49.87962" lon="2.48484">
        <ele>49.9</ele>
        <time>2023-09-27T12:41:32Z</time>
      </trkpt>
      <trkpt lat="49.87961" lon="2.48483">
        <ele>49.9</ele>
        <time>2023-09-27T12:41:33Z</time>
      </trkpt>
      <trkpt lat="49.8796" lon="2.48483">
        <ele>49.9</ele>
        <time>2023-09-27T12:41:34Z</time>
      </trkpt>
      <trkpt lat="49.87959" lon="2.48482">
        <ele>50</ele>
        <time>2023-09-27T12:41:35Z</time>
      </trkpt>
      <trkpt lat="49.87958" lon="2.48481">
        <ele>50</ele>
        <time>2023-09-27T12:41:36Z</time>
      </trkpt>
      <trkpt lat="49.87957" lon="2.48481">
        <ele>50</ele>
        <time>2023-09-27T12:41:37Z</time>
      </trkpt>
      <trkpt lat="49.87956" lon="2.4848">
        <ele>50.1</ele>
        <time>2023-09-27T12:41:38Z</time>
      </trkpt>
      <trkpt lat="49.87955" lon="2.4848">
        <ele>50.1</ele>
        <time>2023-09-27T12:41:39Z</time>
      </trkpt>
      <trkpt lat="49.87954" lon="2.48479">
        <ele>50.1</ele>
        <time>2023-09-27T12:41:40Z</time>
      </trkpt>
      <trkpt lat="49.87953" lon="2.48478">
        <ele>50.2</ele>
        <time>2023-09-27T12:41:41Z</time>
      </trkpt>
      <trkpt lat="49.87952" lon="2.48478">
        <ele>50.2</ele>
        <time>2023-09-27T12:41:42Z</time>
      </trkpt>
      <trkpt lat="49.87951" lon="2.48477">
        <ele>50.2</ele>
        <time>2023-09-27T12:41:43Z</time>
      </trkpt>
      <trkpt lat="49.8795" lon="2.48476">
        <ele>50.3</ele>
        <time>2023-09-27T12:41:44Z</time>
      </trkpt>
      <trkpt lat="49.87949" lon="2.48476">
        <ele>50.3</ele>
        <time>2023-09-27T12:41:45Z</time>
      </trkpt>
      <trkpt lat="49.87948" lon="2.48475">
        <ele>50.4</ele>
        <time>2023-09-27T12:41:46Z</time>
      </trkpt>
      <trkpt lat="49.87947" lon="2.48474">
        <ele>50.4</ele>
        <time>2023-09-27T12:41:47Z</time>
      </trkpt>
      <trkpt lat="49.87946" lon="2.48473">
        <ele>50.4</ele>
        <time>2023-09-27T12:41:48Z</time>
      </trkpt>
      <trkpt lat="49.87945" lon="2.48473">
        <ele>50.5</ele>
        <time>2023-09-27T12:41:49Z</time>
      </trkpt>
      <trkpt lat="49.87944" lon="2.48472">
        <ele>50.5</ele>
        <time>2023-09-27T12:41:50Z</time>
      </trkpt>
      <trkpt lat="49.87944" lon="2.48472">
        <ele>50.5</ele>
        <time>2023-09-27T12:41:51Z</time>
      </trkpt>
      <trkpt lat="49.87943" lon="2.48472">
        <ele>50.6</ele>
        <time>2023-09-27T12:41:52Z</time>
      </trkpt>
      <trkpt lat="49.87942" lon="2.48471">
        <ele>50.6</ele>
        <time>2023-09-27T12:41:53Z</time>
      </trkpt>
      <trkpt lat="49.87941" lon="2.48471">
        <ele>50.6</ele>
        <time>2023-09-27T12:41:54Z</time>
      </trkpt>
      <trkpt lat="49.8794" lon="2.4847">
        <ele>50.7</ele>
        <time>2023-09-27T12:41:55Z</time>
      </trkpt>
      <trkpt lat="49.87939" lon="2.48469">
        <ele>50.7</ele>
        <time>2023-09-27T12:41:56Z</time>
      </trkpt>
      <trkpt lat="49.87938" lon="2.48469">
        <ele>50.8</ele>
        <time>2023-09-27T12:41:57Z</time>
      </trkpt>
      <trkpt lat="49.87937" lon="2.48468">
        <ele>50.8</ele>
        <time>2023-09-27T12:41:58Z</time>
      </trkpt>
      <trkpt lat="49.87936" lon="2.48468">
        <ele>50.8</ele>
        <time>2023-09-27T12:41:59Z</time>
      </trkpt>
      <trkpt lat="49.87935" lon="2.48468">
        <ele>50.9</ele>
        <time>2023-09-27T12:42:00Z</time>
      </trkpt>
      <trkpt lat="49.87934" lon="2.48467">
        <ele>50.9</ele>
        <time>2023-09-27T12:42:01Z</time>
      </trkpt>
      <trkpt lat="49.87933" lon="2.48466">
        <ele>50.9</ele>
        <time>2023-09-27T12:42:02Z</time>
      </trkpt>
      <trkpt lat="49.87932" lon="2.48466">
        <ele>51</ele>
        <time>2023-09-27T12:42:03Z</time>
      </trkpt>
      <trkpt lat="49.87931" lon="2.48465">
        <ele>51</ele>
        <time>2023-09-27T12:42:04Z</time>
      </trkpt>
      <trkpt lat="49.8793" lon="2.48465">
        <ele>51.1</ele>
        <time>2023-09-27T12:42:05Z</time>
      </trkpt>
      <trkpt lat="49.87929" lon="2.48464">
        <ele>51.1</ele>
        <time>2023-09-27T12:42:06Z</time>
      </trkpt>
      <trkpt lat="49.87927" lon="2.48464">
        <ele>51.2</ele>
        <time>2023-09-27T12:42:07Z</time>
      </trkpt>
      <trkpt lat="49.87926" lon="2.48463">
        <ele>51.2</ele>
        <time>2023-09-27T12:42:08Z</time>
      </trkpt>
      <trkpt lat="49.87926" lon="2.48463">
        <ele>51.2</ele>
        <time>2023-09-27T12:42:09Z</time>
      </trkpt>
      <trkpt lat="49.87924" lon="2.48462">
        <ele>51.3</ele>
        <time>2023-09-27T12:42:10Z</time>
      </trkpt>
      <trkpt lat="49.87923" lon="2.48462">
        <ele>51.3</ele>
        <time>2023-09-27T12:42:11Z</time>
      </trkpt>
      <trkpt lat="49.87922" lon="2.48461">
        <ele>51.4</ele>
        <time>2023-09-27T12:42:12Z</time>
      </trkpt>
      <trkpt lat="49.87921" lon="2.4846">
        <ele>51.4</ele>
        <time>2023-09-27T12:42:13Z</time>
      </trkpt>
      <trkpt lat="49.8792" lon="2.4846">
        <ele>51.4</ele>
        <time>2023-09-27T12:42:14Z</time>
      </trkpt>
      <trkpt lat="49.87919" lon="2.48459">
        <ele>51.5</ele>
        <time>2023-09-27T12:42:15Z</time>
      </trkpt>
      <trkpt lat="49.87918" lon="2.48458">
        <ele>51.5</ele>
        <time>2023-09-27T12:42:16Z</time>
      </trkpt>
      <trkpt lat="49.87917" lon="2.48458">
        <ele>51.6</ele>
        <time>2023-09-27T12:42:17Z</time>
      </trkpt>
      <trkpt lat="49.87917" lon="2.48457">
        <ele>51.6</ele>
        <time>2023-09-27T12:42:18Z</time>
      </trkpt>
      <trkpt lat="49.87916" lon="2.48456">
        <ele>51.6</ele>
        <time>2023-09-27T12:42:19Z</time>
      </trkpt>
      <trkpt lat="49.87915" lon="2.48456">
        <ele>51.7</ele>
        <time>2023-09-27T12:42:20Z</time>
      </trkpt>
      <trkpt lat="49.87914" lon="2.48455">
        <ele>51.7</ele>
        <time>2023-09-27T12:42:21Z</time>
      </trkpt>
      <trkpt lat="49.87913" lon="2.48454">
        <ele>51.7</ele>
        <time>2023-09-27T12:42:22Z</time>
      </trkpt>
      <trkpt lat="49.87912" lon="2.48454">
        <ele>51.8</ele>
        <time>2023-09-27T12:42:23Z</time>
      </trkpt>
      <trkpt lat="49.87911" lon="2.48453">
        <ele>51.8</ele>
        <time>2023-09-27T12:42:24Z</time>
      </trkpt>
      <trkpt lat="49.87911" lon="2.48453">
        <ele>51.8</ele>
        <time>2023-09-27T12:42:25Z</time>
      </trkpt>
      <trkpt lat="49.8791" lon="2.48452">
        <ele>51.9</ele>
        <time>2023-09-27T12:42:26Z</time>
      </trkpt>
      <trkpt lat="49.87909" lon="2.48452">
        <ele>51.9</ele>
        <time>2023-09-27T12:42:27Z</time>
      </trkpt>
      <trkpt lat="49.87909" lon="2.48451">
        <ele>51.9</ele>
        <time>2023-09-27T12:42:28Z</time>
      </trkpt>
      <trkpt lat="49.87909" lon="2.48449">
        <ele>51.9</ele>
        <time>2023-09-27T12:42:29Z</time>
      </trkpt>
      <trkpt lat="49.87909" lon="2.48448">
        <ele>52</ele>
        <time>2023-09-27T12:42:30Z</time>
      </trkpt>
      <trkpt lat="49.87909" lon="2.48446">
        <ele>52</ele>
        <time>2023-09-27T12:42:31Z</time>
      </trkpt>
      <trkpt lat="49.87909" lon="2.48445">
        <ele>52</ele>
        <time>2023-09-27T12:42:32Z</time>
      </trkpt>
      <trkpt lat="49.8791" lon="2.48444">
        <ele>52.1</ele>
        <time>2023-09-27T12:42:33Z</time>
      </trkpt>
      <trkpt lat="49.8791" lon="2.48443">
        <ele>52.1</ele>
        <time>2023-09-27T12:42:34Z</time>
      </trkpt>
      <trkpt lat="49.87911" lon="2.48443">
        <ele>52.1</ele>
        <time>2023-09-27T12:42:35Z</time>
      </trkpt>
      <trkpt lat="49.87911" lon="2.48443">
        <ele>52.1</ele>
        <time>2023-09-27T12:42:36Z</time>
      </trkpt>
      <trkpt lat="49.87912" lon="2.48443">
        <ele>52.2</ele>
        <time>2023-09-27T12:42:37Z</time>
      </trkpt>
      <trkpt lat="49.87912" lon="2.48443">
        <ele>52.2</ele>
        <time>2023-09-27T12:42:38Z</time>
      </trkpt>
      <trkpt lat="49.87912" lon="2.48443">
        <ele>52.2</ele>
        <time>2023-09-27T12:42:39Z</time>
      </trkpt>
      <trkpt lat="49.87912" lon="2.48443">
        <ele>52.2</ele>
        <time>2023-09-27T12:42:40Z</time>
      </trkpt>
      <trkpt lat="49.87912" lon="2.48443">
        <ele>52.2</ele>
        <time>2023-09-27T12:42:41Z</time>
      </trkpt>
      <trkpt lat="49.87912" lon="2.48443">
        <ele>52.2</ele>
        <time>2023-09-27T12:42:42Z</time>
      </trkpt>
      <trkpt lat="49.87913" lon="2.48443">
        <ele>52.2</ele>
        <time>2023-09-27T12:42:43Z</time>
      </trkpt>
      <trkpt lat="49.87913" lon="2.48443">
        <ele>52.2</ele>
        <time>2023-09-27T12:42:44Z</time>
      </trkpt>
      <trkpt lat="49.87912" lon="2.48443">
        <ele>52.2</ele>
        <time>2023-09-27T12:42:45Z</time>
      </trkpt>
      <trkpt lat="49.87912" lon="2.48443">
        <ele>52.2</ele>
        <time>2023-09-27T12:42:46Z</time>
      </trkpt>
      <trkpt lat="49.87912" lon="2.48443">
        <ele>52.2</ele>
        <time>2023-09-27T12:42:47Z</time>
      </trkpt>
      <trkpt lat="49.87912" lon="2.48443">
        <ele>52.2</ele>
        <time>2023-09-27T12:42:48Z</time>
      </trkpt>
      <trkpt lat="49.87912" lon="2.48443">
        <ele>52.2</ele>
        <time>2023-09-27T12:42:49Z</time>
      </trkpt>
      <trkpt lat="49.87912" lon="2.48443">
        <ele>52.2</ele>
        <time>2023-09-27T12:42:50Z</time>
      </trkpt>
      <trkpt lat="49.87912" lon="2.48443">
        <ele>52.2</ele>
        <time>2023-09-27T12:42:51Z</time>
      </trkpt>
      <trkpt lat="49.87912" lon="2.48443">
        <ele>52.2</ele>
        <time>2023-09-27T12:42:52Z</time>
      </trkpt>
      <trkpt lat="49.87912" lon="2.48443">
        <ele>52.2</ele>
        <time>2023-09-27T12:42:53Z</time>
      </trkpt>
      <trkpt lat="49.87912" lon="2.48443">
        <ele>52.2</ele>
        <time>2023-09-27T12:42:54Z</time>
      </trkpt>
      <trkpt lat="49.87912" lon="2.48443">
        <ele>52.2</ele>
        <time>2023-09-27T12:42:55Z</time>
      </trkpt>
      <trkpt lat="49.87912" lon="2.48443">
        <ele>52.2</ele>
        <time>2023-09-27T12:42:56Z</time>
      </trkpt>
      <trkpt lat="49.87912" lon="2.48443">
        <ele>52.2</ele>
        <time>2023-09-27T12:42:57Z</time>
      </trkpt>
      <trkpt lat="49.87912" lon="2.48443">
        <ele>52.2</ele>
        <time>2023-09-27T12:42:58Z</time>
      </trkpt>
      <trkpt lat="49.87912" lon="2.48443">
        <ele>52.2</ele>
        <time>2023-09-27T12:42:59Z</time>
      </trkpt>
      <trkpt lat="49.87912" lon="2.48443">
        <ele>52.2</ele>
        <time>2023-09-27T12:43:00Z</time>
      </trkpt>
      <trkpt lat="49.87912" lon="2.48443">
        <ele>52.2</ele>
        <time>2023-09-27T12:43:01Z</time>
      </trkpt>
      <trkpt lat="49.87912" lon="2.48443">
        <ele>52.2</ele>
        <time>2023-09-27T12:43:02Z</time>
      </trkpt>
      <trkpt lat="49.87912" lon="2.48443">
        <ele>52.2</ele>
        <time>2023-09-27T12:43:03Z</time>
      </trkpt>
      <trkpt lat="49.87912" lon="2.48443">
        <ele>52.2</ele>
        <time>2023-09-27T12:43:04Z</time>
      </trkpt>
      <trkpt lat="49.87912" lon="2.48443">
        <ele>52.2</ele>
        <time>2023-09-27T12:43:05Z</time>
      </trkpt>
      <trkpt lat="49.87912" lon="2.48443">
        <ele>52.2</ele>
        <time>2023-09-27T12:43:06Z</time>
      </trkpt>
      <trkpt lat="49.87912" lon="2.48443">
        <ele>52.2</ele>
        <time>2023-09-27T12:43:07Z</time>
      </trkpt>
      <trkpt lat="49.87912" lon="2.48443">
        <ele>52.2</ele>
        <time>2023-09-27T12:43:08Z</time>
      </trkpt>
      <trkpt lat="49.87912" lon="2.48443">
        <ele>52.2</ele>
        <time>2023-09-27T12:43:09Z</time>
      </trkpt>
      <trkpt lat="49.87912" lon="2.48443">
        <ele>52.2</ele>
        <time>2023-09-27T12:43:10Z</time>
      </trkpt>
      <trkpt lat="49.87912" lon="2.48443">
        <ele>52.2</ele>
        <time>2023-09-27T12:43:11Z</time>
      </trkpt>
      <trkpt lat="49.87912" lon="2.48443">
        <ele>52.2</ele>
        <time>2023-09-27T12:43:12Z</time>
      </trkpt>
      <trkpt lat="49.87912" lon="2.48443">
        <ele>52.2</ele>
        <time>2023-09-27T12:43:13Z</time>
      </trkpt>
      <trkpt lat="49.87912" lon="2.48443">
        <ele>52.2</ele>
        <time>2023-09-27T12:43:14Z</time>
      </trkpt>
      <trkpt lat="49.87912" lon="2.48443">
        <ele>52.2</ele>
        <time>2023-09-27T12:43:15Z</time>
      </trkpt>
      <trkpt lat="49.87912" lon="2.48443">
        <ele>52.2</ele>
        <time>2023-09-27T12:43:16Z</time>
      </trkpt>
      <trkpt lat="49.87912" lon="2.48443">
        <ele>52.2</ele>
        <time>2023-09-27T12:43:17Z</time>
      </trkpt>
      <trkpt lat="49.87912" lon="2.48443">
        <ele>52.2</ele>
        <time>2023-09-27T12:43:18Z</time>
      </trkpt>
      <trkpt lat="49.87912" lon="2.48443">
        <ele>52.2</ele>
        <time>2023-09-27T12:43:19Z</time>
      </trkpt>
      <trkpt lat="49.87912" lon="2.48443">
        <ele>52.2</ele>
        <time>2023-09-27T12:43:20Z</time>
      </trkpt>
      <trkpt lat="49.87912" lon="2.48443">
        <ele>52.2</ele>
        <time>2023-09-27T12:43:21Z</time>
      </trkpt>
      <trkpt lat="49.87912" lon="2.48443">
        <ele>52.2</ele>
        <time>2023-09-27T12:43:22Z</time>
      </trkpt>
      <trkpt lat="49.87912" lon="2.48443">
        <ele>52.2</ele>
        <time>2023-09-27T12:43:23Z</time>
      </trkpt>
      <trkpt lat="49.87912" lon="2.48443">
        <ele>52.2</ele>
        <time>2023-09-27T12:43:24Z</time>
      </trkpt>
      <trkpt lat="49.87912" lon="2.48443">
        <ele>52.2</ele>
        <time>2023-09-27T12:43:25Z</time>
      </trkpt>
      <trkpt lat="49.87912" lon="2.48443">
        <ele>52.2</ele>
        <time>2023-09-27T12:43:26Z</time>
      </trkpt>
      <trkpt lat="49.87912" lon="2.48443">
        <ele>52.2</ele>
        <time>2023-09-27T12:43:27Z</time>
      </trkpt>
      <trkpt lat="49.87912" lon="2.48443">
        <ele>52.2</ele>
        <time>2023-09-27T12:43:28Z</time>
      </trkpt>
      <trkpt lat="49.87912" lon="2.48443">
        <ele>52.2</ele>
        <time>2023-09-27T12:43:29Z</time>
      </trkpt>
      <trkpt lat="49.87912" lon="2.48443">
        <ele>52.2</ele>
        <time>2023-09-27T12:43:30Z</time>
      </trkpt>
      <trkpt lat="49.87912" lon="2.48443">
        <ele>52.2</ele>
        <time>2023-09-27T12:43:31Z</time>
      </trkpt>
      <trkpt lat="49.87912" lon="2.48443">
        <ele>52.2</ele>
        <time>2023-09-27T12:43:32Z</time>
      </trkpt>
      <trkpt lat="49.87911" lon="2.48448">
        <ele>52.3</ele>
        <time>2023-09-27T12:43:33Z</time>
      </trkpt>
      <trkpt lat="49.8791" lon="2.48449">
        <ele>52.4</ele>
        <time>2023-09-27T12:43:34Z</time>
      </trkpt>
      <trkpt lat="49.8791" lon="2.4845">
        <ele>52.4</ele>
        <time>2023-09-27T12:43:35Z</time>
      </trkpt>
      <trkpt lat="49.8791" lon="2.4845">
        <ele>52.4</ele>
        <time>2023-09-27T12:43:36Z</time>
      </trkpt>
      <trkpt lat="49.87909" lon="2.48449">
        <ele>52.4</ele>
        <time>2023-09-27T12:43:37Z</time>
      </trkpt>
      <trkpt lat="49.87909" lon="2.48449">
        <ele>52.5</ele>
        <time>2023-09-27T12:43:38Z</time>
      </trkpt>
      <trkpt lat="49.8791" lon="2.48448">
        <ele>52.5</ele>
        <time>2023-09-27T12:43:39Z</time>
      </trkpt>
      <trkpt lat="49.87911" lon="2.48448">
        <ele>52.5</ele>
        <time>2023-09-27T12:43:40Z</time>
      </trkpt>
      <trkpt lat="49.87911" lon="2.48447">
        <ele>52.5</ele>
        <time>2023-09-27T12:43:41Z</time>
      </trkpt>
      <trkpt lat="49.87911" lon="2.48447">
        <ele>52.6</ele>
        <time>2023-09-27T12:43:42Z</time>
      </trkpt>
      <trkpt lat="49.87912" lon="2.48446">
        <ele>52.6</ele>
        <time>2023-09-27T12:43:43Z</time>
      </trkpt>
      <trkpt lat="49.87912" lon="2.48446">
        <ele>52.6</ele>
        <time>2023-09-27T12:43:44Z</time>
      </trkpt>
      <trkpt lat="49.87912" lon="2.48446">
        <ele>52.6</ele>
        <time>2023-09-27T12:43:45Z</time>
      </trkpt>
      <trkpt lat="49.87912" lon="2.48446">
        <ele>52.6</ele>
        <time>2023-09-27T12:43:46Z</time>
      </trkpt>
      <trkpt lat="49.87912" lon="2.48446">
        <ele>52.6</ele>
        <time>2023-09-27T12:43:47Z</time>
      </trkpt>
      <trkpt lat="49.87912" lon="2.48446">
        <ele>52.6</ele>
        <time>2023-09-27T12:43:48Z</time>
      </trkpt>
      <trkpt lat="49.87912" lon="2.48446">
        <ele>52.6</ele>
        <time>2023-09-27T12:43:49Z</time>
      </trkpt>
      <trkpt lat="49.87912" lon="2.48446">
        <ele>52.6</ele>
        <time>2023-09-27T12:43:50Z</time>
      </trkpt>
      <trkpt lat="49.87912" lon="2.48446">
        <ele>52.6</ele>
        <time>2023-09-27T12:43:51Z</time>
      </trkpt>
      <trkpt lat="49.87912" lon="2.48446">
        <ele>52.6</ele>
        <time>2023-09-27T12:43:52Z</time>
      </trkpt>
      <trkpt lat="49.87912" lon="2.48446">
        <ele>52.6</ele>
        <time>2023-09-27T12:43:53Z</time>
      </trkpt>
      <trkpt lat="49.87912" lon="2.48446">
        <ele>52.6</ele>
        <time>2023-09-27T12:43:54Z</time>
      </trkpt>
      <trkpt lat="49.87912" lon="2.48446">
        <ele>52.6</ele>
        <time>2023-09-27T12:43:55Z</time>
      </trkpt>
      <trkpt lat="49.87912" lon="2.48446">
        <ele>52.6</ele>
        <time>2023-09-27T12:43:56Z</time>
      </trkpt>
      <trkpt lat="49.87912" lon="2.48446">
        <ele>52.6</ele>
        <time>2023-09-27T12:43:57Z</time>
      </trkpt>
      <trkpt lat="49.87912" lon="2.48446">
        <ele>52.6</ele>
        <time>2023-09-27T12:43:58Z</time>
      </trkpt>
      <trkpt lat="49.87912" lon="2.48446">
        <ele>52.6</ele>
        <time>2023-09-27T12:43:59Z</time>
      </trkpt>
      <trkpt lat="49.87912" lon="2.48446">
        <ele>52.6</ele>
        <time>2023-09-27T12:44:00Z</time>
      </trkpt>
      <trkpt lat="49.87912" lon="2.48446">
        <ele>52.6</ele>
        <time>2023-09-27T12:44:01Z</time>
      </trkpt>
      <trkpt lat="49.87912" lon="2.48446">
        <ele>52.6</ele>
        <time>2023-09-27T12:44:02Z</time>
      </trkpt>
      <trkpt lat="49.87912" lon="2.48446">
        <ele>52.6</ele>
        <time>2023-09-27T12:44:03Z</time>
      </trkpt>
      <trkpt lat="49.87912" lon="2.48446">
        <ele>52.6</ele>
        <time>2023-09-27T12:44:04Z</time>
      </trkpt>
      <trkpt lat="49.87912" lon="2.48446">
        <ele>52.6</ele>
        <time>2023-09-27T12:44:05Z</time>
      </trkpt>
      <trkpt lat="49.87912" lon="2.48446">
        <ele>52.6</ele>
        <time>2023-09-27T12:44:06Z</time>
      </trkpt>
      <trkpt lat="49.87912" lon="2.48446">
        <ele>52.6</ele>
        <time>2023-09-27T12:44:07Z</time>
      </trkpt>
      <trkpt lat="49.87912" lon="2.48446">
        <ele>52.6</ele>
        <time>2023-09-27T12:44:08Z</time>
      </trkpt>
      <trkpt lat="49.87912" lon="2.48446">
        <ele>52.6</ele>
        <time>2023-09-27T12:44:09Z</time>
      </trkpt>
      <trkpt lat="49.87912" lon="2.48446">
        <ele>52.6</ele>
        <time>2023-09-27T12:44:10Z</time>
      </trkpt>
      <trkpt lat="49.87912" lon="2.48446">
        <ele>52.6</ele>
        <time>2023-09-27T12:44:11Z</time>
      </trkpt>
      <trkpt lat="49.87912" lon="2.48446">
        <ele>52.6</ele>
        <time>2023-09-27T12:44:12Z</time>
      </trkpt>
      <trkpt lat="49.87912" lon="2.48446">
        <ele>52.6</ele>
        <time>2023-09-27T12:44:13Z</time>
      </trkpt>
      <trkpt lat="49.87912" lon="2.48446">
        <ele>52.6</ele>
        <time>2023-09-27T12:44:14Z</time>
      </trkpt>
      <trkpt lat="49.87912" lon="2.48446">
        <ele>52.6</ele>
        <time>2023-09-27T12:44:15Z</time>
      </trkpt>
      <trkpt lat="49.87912" lon="2.48446">
        <ele>52.6</ele>
        <time>2023-09-27T12:44:16Z</time>
      </trkpt>
      <trkpt lat="49.87912" lon="2.48446">
        <ele>52.6</ele>
        <time>2023-09-27T12:44:17Z</time>
      </trkpt>
      <trkpt lat="49.87912" lon="2.48446">
        <ele>52.6</ele>
        <time>2023-09-27T12:44:18Z</time>
      </trkpt>
      <trkpt lat="49.87912" lon="2.48446">
        <ele>52.6</ele>
        <time>2023-09-27T12:44:19Z</time>
      </trkpt>
      <trkpt lat="49.87912" lon="2.48446">
        <ele>52.6</ele>
        <time>2023-09-27T12:44:20Z</time>
      </trkpt>
      <trkpt lat="49.87912" lon="2.48446">
        <ele>52.6</ele>
        <time>2023-09-27T12:44:21Z</time>
      </trkpt>
      <trkpt lat="49.87912" lon="2.48446">
        <ele>52.6</ele>
        <time>2023-09-27T12:44:22Z</time>
      </trkpt>
      <trkpt lat="49.87912" lon="2.48446">
        <ele>52.6</ele>
        <time>2023-09-27T12:44:23Z</time>
      </trkpt>
      <trkpt lat="49.87912" lon="2.48446">
        <ele>52.6</ele>
        <time>2023-09-27T12:44:24Z</time>
      </trkpt>
      <trkpt lat="49.87912" lon="2.48446">
        <ele>52.6</ele>
        <time>2023-09-27T12:44:25Z</time>
      </trkpt>
      <trkpt lat="49.87912" lon="2.48446">
        <ele>52.6</ele>
        <time>2023-09-27T12:44:26Z</time>
      </trkpt>
      <trkpt lat="49.87912" lon="2.48446">
        <ele>52.6</ele>
        <time>2023-09-27T12:44:27Z</time>
      </trkpt>
      <trkpt lat="49.87912" lon="2.48446">
        <ele>52.6</ele>
        <time>2023-09-27T12:44:28Z</time>
      </trkpt>
      <trkpt lat="49.87912" lon="2.48446">
        <ele>52.6</ele>
        <time>2023-09-27T12:44:29Z</time>
      </trkpt>
      <trkpt lat="49.87912" lon="2.48446">
        <ele>52.6</ele>
        <time>2023-09-27T12:44:30Z</time>
      </trkpt>
      <trkpt lat="49.87912" lon="2.48446">
        <ele>52.6</ele>
        <time>2023-09-27T12:44:31Z</time>
      </trkpt>
      <trkpt lat="49.87912" lon="2.48446">
        <ele>52.6</ele>
        <time>2023-09-27T12:44:32Z</time>
      </trkpt>
      <trkpt lat="49.87911" lon="2.48448">
        <ele>52.7</ele>
        <time>2023-09-27T12:44:33Z</time>
      </trkpt>
      <trkpt lat="49.87909" lon="2.4845">
        <ele>52.8</ele>
        <time>2023-09-27T12:44:34Z</time>
      </trkpt>
      <trkpt lat="49.87908" lon="2.48451">
        <ele>52.8</ele>
        <time>2023-09-27T12:44:35Z</time>
      </trkpt>
      <trkpt lat="49.87907" lon="2.48451">
        <ele>52.9</ele>
        <time>2023-09-27T12:44:36Z</time>
      </trkpt>
      <trkpt lat="49.87907" lon="2.4845">
        <ele>52.9</ele>
        <time>2023-09-27T12:44:37Z</time>
      </trkpt>
      <trkpt lat="49.87906" lon="2.48449">
        <ele>53</ele>
        <time>2023-09-27T12:44:38Z</time>
      </trkpt>
      <trkpt lat="49.87905" lon="2.48448">
        <ele>53</ele>
        <time>2023-09-27T12:44:39Z</time>
      </trkpt>
      <trkpt lat="49.87904" lon="2.48447">
        <ele>53.1</ele>
        <time>2023-09-27T12:44:40Z</time>
      </trkpt>
      <trkpt lat="49.87903" lon="2.48447">
        <ele>53.1</ele>
        <time>2023-09-27T12:44:41Z</time>
      </trkpt>
      <trkpt lat="49.87903" lon="2.48446">
        <ele>53.2</ele>
        <time>2023-09-27T12:44:42Z</time>
      </trkpt>
      <trkpt lat="49.87901" lon="2.48444">
        <ele>53.3</ele>
        <time>2023-09-27T12:44:43Z</time>
      </trkpt>
      <trkpt lat="49.879" lon="2.48443">
        <ele>53.3</ele>
        <time>2023-09-27T12:44:44Z</time>
      </trkpt>
      <trkpt lat="49.87899" lon="2.48443">
        <ele>53.4</ele>
        <time>2023-09-27T12:44:45Z</time>
      </trkpt>
      <trkpt lat="49.87898" lon="2.48441">
        <ele>53.5</ele>
        <time>2023-09-27T12:44:46Z</time>
      </trkpt>
      <trkpt lat="49.87897" lon="2.4844">
        <ele>53.5</ele>
        <time>2023-09-27T12:44:47Z</time>
      </trkpt>
      <trkpt lat="49.87896" lon="2.4844">
        <ele>53.6</ele>
        <time>2023-09-27T12:44:48Z</time>
      </trkpt>
      <trkpt lat="49.87895" lon="2.48439">
        <ele>53.6</ele>
        <time>2023-09-27T12:44:49Z</time>
      </trkpt>
      <trkpt lat="49.87894" lon="2.48438">
        <ele>53.7</ele>
        <time>2023-09-27T12:44:50Z</time>
      </trkpt>
      <trkpt lat="49.87893" lon="2.48437">
        <ele>53.8</ele>
        <time>2023-09-27T12:44:51Z</time>
      </trkpt>
      <trkpt lat="49.87891" lon="2.48435">
        <ele>53.9</ele>
        <time>2023-09-27T12:44:52Z</time>
      </trkpt>
      <trkpt lat="49.87891" lon="2.48434">
        <ele>53.9</ele>
        <time>2023-09-27T12:44:53Z</time>
      </trkpt>
      <trkpt lat="49.8789" lon="2.48433">
        <ele>54</ele>
        <time>2023-09-27T12:44:54Z</time>
      </trkpt>
      <trkpt lat="49.87888" lon="2.48431">
        <ele>54.1</ele>
        <time>2023-09-27T12:44:55Z</time>
      </trkpt>
      <trkpt lat="49.87888" lon="2.48431">
        <ele>54.1</ele>
        <time>2023-09-27T12:44:56Z</time>
      </trkpt>
      <trkpt lat="49.87887" lon="2.4843">
        <ele>54.2</ele>
        <time>2023-09-27T12:44:57Z</time>
      </trkpt>
      <trkpt lat="49.87886" lon="2.48429">
        <ele>54.2</ele>
        <time>2023-09-27T12:44:58Z</time>
      </trkpt>
      <trkpt lat="49.87886" lon="2.48428">
        <ele>54.3</ele>
        <time>2023-09-27T12:44:59Z</time>
      </trkpt>
      <trkpt lat="49.87885" lon="2.48427">
        <ele>54.4</ele>
        <time>2023-09-27T12:45:00Z</time>
      </trkpt>
      <trkpt lat="49.87884" lon="2.48426">
        <ele>54.4</ele>
        <time>2023-09-27T12:45:01Z</time>
      </trkpt>
      <trkpt lat="49.87883" lon="2.48425">
        <ele>54.5</ele>
        <time>2023-09-27T12:45:02Z</time>
      </trkpt>
      <trkpt lat="49.87882" lon="2.48424">
        <ele>54.5</ele>
        <time>2023-09-27T12:45:03Z</time>
      </trkpt>
      <trkpt lat="49.87882" lon="2.48423">
        <ele>54.6</ele>
        <time>2023-09-27T12:45:04Z</time>
      </trkpt>
      <trkpt lat="49.87881" lon="2.48422">
        <ele>54.6</ele>
        <time>2023-09-27T12:45:05Z</time>
      </trkpt>
      <trkpt lat="49.8788" lon="2.48421">
        <ele>54.7</ele>
        <time>2023-09-27T12:45:06Z</time>
      </trkpt>
      <trkpt lat="49.87879" lon="2.4842">
        <ele>54.7</ele>
        <time>2023-09-27T12:45:07Z</time>
      </trkpt>
      <trkpt lat="49.87878" lon="2.48419">
        <ele>54.8</ele>
        <time>2023-09-27T12:45:08Z</time>
      </trkpt>
      <trkpt lat="49.87877" lon="2.48418">
        <ele>54.8</ele>
        <time>2023-09-27T12:45:09Z</time>
      </trkpt>
      <trkpt lat="49.87876" lon="2.48417">
        <ele>54.9</ele>
        <time>2023-09-27T12:45:10Z</time>
      </trkpt>
      <trkpt lat="49.87876" lon="2.48416">
        <ele>55</ele>
        <time>2023-09-27T12:45:11Z</time>
      </trkpt>
      <trkpt lat="49.87875" lon="2.48415">
        <ele>55</ele>
        <time>2023-09-27T12:45:12Z</time>
      </trkpt>
      <trkpt lat="49.87874" lon="2.48414">
        <ele>55.1</ele>
        <time>2023-09-27T12:45:13Z</time>
      </trkpt>
      <trkpt lat="49.87873" lon="2.48413">
        <ele>55.1</ele>
        <time>2023-09-27T12:45:14Z</time>
      </trkpt>
      <trkpt lat="49.87872" lon="2.48413">
        <ele>55.2</ele>
        <time>2023-09-27T12:45:15Z</time>
      </trkpt>
      <trkpt lat="49.87871" lon="2.48412">
        <ele>55.2</ele>
        <time>2023-09-27T12:45:16Z</time>
      </trkpt>
      <trkpt lat="49.87871" lon="2.48411">
        <ele>55.3</ele>
        <time>2023-09-27T12:45:17Z</time>
      </trkpt>
      <trkpt lat="49.8787" lon="2.4841">
        <ele>55.4</ele>
        <time>2023-09-27T12:45:18Z</time>
      </trkpt>
      <trkpt lat="49.87869" lon="2.48409">
        <ele>55.4</ele>
        <time>2023-09-27T12:45:19Z</time>
      </trkpt>
      <trkpt lat="49.87868" lon="2.48407">
        <ele>55.5</ele>
        <time>2023-09-27T12:45:20Z</time>
      </trkpt>
      <trkpt lat="49.87867" lon="2.48407">
        <ele>55.5</ele>
        <time>2023-09-27T12:45:21Z</time>
      </trkpt>
      <trkpt lat="49.87867" lon="2.48406">
        <ele>55.6</ele>
        <time>2023-09-27T12:45:22Z</time>
      </trkpt>
      <trkpt lat="49.87866" lon="2.48405">
        <ele>55.6</ele>
        <time>2023-09-27T12:45:23Z</time>
      </trkpt>
      <trkpt lat="49.87865" lon="2.48404">
        <ele>55.7</ele>
        <time>2023-09-27T12:45:24Z</time>
      </trkpt>
      <trkpt lat="49.87864" lon="2.48403">
        <ele>55.7</ele>
        <time>2023-09-27T12:45:25Z</time>
      </trkpt>
      <trkpt lat="49.87863" lon="2.48402">
        <ele>55.8</ele>
        <time>2023-09-27T12:45:26Z</time>
      </trkpt>
      <trkpt lat="49.87862" lon="2.48401">
        <ele>55.8</ele>
        <time>2023-09-27T12:45:27Z</time>
      </trkpt>
      <trkpt lat="49.87862" lon="2.484">
        <ele>55.9</ele>
        <time>2023-09-27T12:45:28Z</time>
      </trkpt>
      <trkpt lat="49.87861" lon="2.48399">
        <ele>56</ele>
        <time>2023-09-27T12:45:29Z</time>
      </trkpt>
      <trkpt lat="49.8786" lon="2.48398">
        <ele>56</ele>
        <time>2023-09-27T12:45:30Z</time>
      </trkpt>
      <trkpt lat="49.87859" lon="2.48397">
        <ele>56.1</ele>
        <time>2023-09-27T12:45:31Z</time>
      </trkpt>
      <trkpt lat="49.87858" lon="2.48396">
        <ele>56.1</ele>
        <time>2023-09-27T12:45:32Z</time>
      </trkpt>
      <trkpt lat="49.87858" lon="2.48395">
        <ele>56.2</ele>
        <time>2023-09-27T12:45:33Z</time>
      </trkpt>
      <trkpt lat="49.87857" lon="2.48395">
        <ele>56.2</ele>
        <time>2023-09-27T12:45:34Z</time>
      </trkpt>
      <trkpt lat="49.87856" lon="2.48394">
        <ele>56.3</ele>
        <time>2023-09-27T12:45:35Z</time>
      </trkpt>
      <trkpt lat="49.87856" lon="2.48393">
        <ele>56.3</ele>
        <time>2023-09-27T12:45:36Z</time>
      </trkpt>
      <trkpt lat="49.87855" lon="2.48392">
        <ele>56.4</ele>
        <time>2023-09-27T12:45:37Z</time>
      </trkpt>
      <trkpt lat="49.87855" lon="2.48391">
        <ele>56.4</ele>
        <time>2023-09-27T12:45:38Z</time>
      </trkpt>
      <trkpt lat="49.87854" lon="2.4839">
        <ele>56.5</ele>
        <time>2023-09-27T12:45:39Z</time>
      </trkpt>
      <trkpt lat="49.87853" lon="2.4839">
        <ele>56.5</ele>
        <time>2023-09-27T12:45:40Z</time>
      </trkpt>
      <trkpt lat="49.87853" lon="2.48389">
        <ele>56.6</ele>
        <time>2023-09-27T12:45:41Z</time>
      </trkpt>
      <trkpt lat="49.87852" lon="2.48388">
        <ele>56.6</ele>
        <time>2023-09-27T12:45:42Z</time>
      </trkpt>
      <trkpt lat="49.87851" lon="2.48387">
        <ele>56.7</ele>
        <time>2023-09-27T12:45:43Z</time>
      </trkpt>
      <trkpt lat="49.8785" lon="2.48386">
        <ele>56.7</ele>
        <time>2023-09-27T12:45:44Z</time>
      </trkpt>
      <trkpt lat="49.87849" lon="2.48385">
        <ele>56.8</ele>
        <time>2023-09-27T12:45:45Z</time>
      </trkpt>
      <trkpt lat="49.87848" lon="2.48385">
        <ele>56.8</ele>
        <time>2023-09-27T12:45:46Z</time>
      </trkpt>
      <trkpt lat="49.87848" lon="2.48384">
        <ele>56.9</ele>
        <time>2023-09-27T12:45:47Z</time>
      </trkpt>
      <trkpt lat="49.87847" lon="2.48383">
        <ele>57</ele>
        <time>2023-09-27T12:45:48Z</time>
      </trkpt>
      <trkpt lat="49.87846" lon="2.48382">
        <ele>57</ele>
        <time>2023-09-27T12:45:49Z</time>
      </trkpt>
      <trkpt lat="49.87845" lon="2.48381">
        <ele>57.1</ele>
        <time>2023-09-27T12:45:50Z</time>
      </trkpt>
      <trkpt lat="49.87844" lon="2.4838">
        <ele>57.1</ele>
        <time>2023-09-27T12:45:51Z</time>
      </trkpt>
      <trkpt lat="49.87843" lon="2.48379">
        <ele>57.2</ele>
        <time>2023-09-27T12:45:52Z</time>
      </trkpt>
      <trkpt lat="49.87843" lon="2.48378">
        <ele>57.3</ele>
        <time>2023-09-27T12:45:53Z</time>
      </trkpt>
      <trkpt lat="49.87842" lon="2.48378">
        <ele>57.3</ele>
        <time>2023-09-27T12:45:54Z</time>
      </trkpt>
      <trkpt lat="49.87841" lon="2.48377">
        <ele>57.4</ele>
        <time>2023-09-27T12:45:55Z</time>
      </trkpt>
      <trkpt lat="49.8784" lon="2.48376">
        <ele>57.4</ele>
        <time>2023-09-27T12:45:56Z</time>
      </trkpt>
      <trkpt lat="49.8784" lon="2.48376">
        <ele>57.5</ele>
        <time>2023-09-27T12:45:57Z</time>
      </trkpt>
      <trkpt lat="49.87839" lon="2.48375">
        <ele>57.5</ele>
        <time>2023-09-27T12:45:58Z</time>
      </trkpt>
      <trkpt lat="49.87838" lon="2.48374">
        <ele>57.6</ele>
        <time>2023-09-27T12:45:59Z</time>
      </trkpt>
      <trkpt lat="49.87837" lon="2.48373">
        <ele>57.6</ele>
        <time>2023-09-27T12:46:00Z</time>
      </trkpt>
      <trkpt lat="49.87836" lon="2.48373">
        <ele>57.7</ele>
        <time>2023-09-27T12:46:01Z</time>
      </trkpt>
      <trkpt lat="49.87836" lon="2.48372">
        <ele>57.7</ele>
        <time>2023-09-27T12:46:02Z</time>
      </trkpt>
      <trkpt lat="49.87835" lon="2.48371">
        <ele>57.8</ele>
        <time>2023-09-27T12:46:03Z</time>
      </trkpt>
      <trkpt lat="49.87834" lon="2.4837">
        <ele>57.8</ele>
        <time>2023-09-27T12:46:04Z</time>
      </trkpt>
      <trkpt lat="49.87833" lon="2.4837">
        <ele>57.9</ele>
        <time>2023-09-27T12:46:05Z</time>
      </trkpt>
      <trkpt lat="49.87833" lon="2.48369">
        <ele>57.9</ele>
        <time>2023-09-27T12:46:06Z</time>
      </trkpt>
      <trkpt lat="49.87832" lon="2.48368">
        <ele>58</ele>
        <time>2023-09-27T12:46:07Z</time>
      </trkpt>
      <trkpt lat="49.87831" lon="2.48367">
        <ele>58</ele>
        <time>2023-09-27T12:46:08Z</time>
      </trkpt>
      <trkpt lat="49.8783" lon="2.48366">
        <ele>58.1</ele>
        <time>2023-09-27T12:46:09Z</time>
      </trkpt>
      <trkpt lat="49.8783" lon="2.48365">
        <ele>58.1</ele>
        <time>2023-09-27T12:46:10Z</time>
      </trkpt>
      <trkpt lat="49.87829" lon="2.48365">
        <ele>58.2</ele>
        <time>2023-09-27T12:46:11Z</time>
      </trkpt>
      <trkpt lat="49.87828" lon="2.48364">
        <ele>58.3</ele>
        <time>2023-09-27T12:46:12Z</time>
      </trkpt>
      <trkpt lat="49.87828" lon="2.48363">
        <ele>58.3</ele>
        <time>2023-09-27T12:46:13Z</time>
      </trkpt>
      <trkpt lat="49.87827" lon="2.48362">
        <ele>58.4</ele>
        <time>2023-09-27T12:46:14Z</time>
      </trkpt>
      <trkpt lat="49.87826" lon="2.48361">
        <ele>58.4</ele>
        <time>2023-09-27T12:46:15Z</time>
      </trkpt>
      <trkpt lat="49.87826" lon="2.48361">
        <ele>58.5</ele>
        <time>2023-09-27T12:46:16Z</time>
      </trkpt>
      <trkpt lat="49.87825" lon="2.4836">
        <ele>58.5</ele>
        <time>2023-09-27T12:46:17Z</time>
      </trkpt>
      <trkpt lat="49.87824" lon="2.48359">
        <ele>58.6</ele>
        <time>2023-09-27T12:46:18Z</time>
      </trkpt>
      <trkpt lat="49.87823" lon="2.48358">
        <ele>58.6</ele>
        <time>2023-09-27T12:46:19Z</time>
      </trkpt>
      <trkpt lat="49.87823" lon="2.48358">
        <ele>58.7</ele>
        <time>2023-09-27T12:46:20Z</time>
      </trkpt>
      <trkpt lat="49.87822" lon="2.48357">
        <ele>58.7</ele>
        <time>2023-09-27T12:46:21Z</time>
      </trkpt>
      <trkpt lat="49.87821" lon="2.48356">
        <ele>58.8</ele>
        <time>2023-09-27T12:46:22Z</time>
      </trkpt>
      <trkpt lat="49.8782" lon="2.48355">
        <ele>58.8</ele>
        <time>2023-09-27T12:46:23Z</time>
      </trkpt>
      <trkpt lat="49.8782" lon="2.48354">
        <ele>58.9</ele>
        <time>2023-09-27T12:46:24Z</time>
      </trkpt>
      <trkpt lat="49.87819" lon="2.48354">
        <ele>58.9</ele>
        <time>2023-09-27T12:46:25Z</time>
      </trkpt>
      <trkpt lat="49.87818" lon="2.48352">
        <ele>59</ele>
        <time>2023-09-27T12:46:26Z</time>
      </trkpt>
      <trkpt lat="49.87817" lon="2.48352">
        <ele>59.1</ele>
        <time>2023-09-27T12:46:27Z</time>
      </trkpt>
      <trkpt lat="49.87817" lon="2.48351">
        <ele>59.1</ele>
        <time>2023-09-27T12:46:28Z</time>
      </trkpt>
      <trkpt lat="49.87816" lon="2.48351">
        <ele>59.2</ele>
        <time>2023-09-27T12:46:29Z</time>
      </trkpt>
      <trkpt lat="49.87815" lon="2.4835">
        <ele>59.2</ele>
        <time>2023-09-27T12:46:30Z</time>
      </trkpt>
      <trkpt lat="49.87814" lon="2.48349">
        <ele>59.3</ele>
        <time>2023-09-27T12:46:31Z</time>
      </trkpt>
      <trkpt lat="49.87813" lon="2.48348">
        <ele>59.3</ele>
        <time>2023-09-27T12:46:32Z</time>
      </trkpt>
      <trkpt lat="49.87813" lon="2.48348">
        <ele>59.4</ele>
        <time>2023-09-27T12:46:33Z</time>
      </trkpt>
      <trkpt lat="49.87812" lon="2.48347">
        <ele>59.4</ele>
        <time>2023-09-27T12:46:34Z</time>
      </trkpt>
      <trkpt lat="49.87811" lon="2.48346">
        <ele>59.5</ele>
        <time>2023-09-27T12:46:35Z</time>
      </trkpt>
      <trkpt lat="49.87811" lon="2.48346">
        <ele>59.5</ele>
        <time>2023-09-27T12:46:36Z</time>
      </trkpt>
      <trkpt lat="49.8781" lon="2.48345">
        <ele>59.6</ele>
        <time>2023-09-27T12:46:37Z</time>
      </trkpt>
      <trkpt lat="49.87809" lon="2.48345">
        <ele>59.6</ele>
        <time>2023-09-27T12:46:38Z</time>
      </trkpt>
      <trkpt lat="49.87809" lon="2.48345">
        <ele>59.7</ele>
        <time>2023-09-27T12:46:39Z</time>
      </trkpt>
      <trkpt lat="49.87808" lon="2.48344">
        <ele>59.7</ele>
        <time>2023-09-27T12:46:40Z</time>
      </trkpt>
      <trkpt lat="49.87808" lon="2.48344">
        <ele>59.7</ele>
        <time>2023-09-27T12:46:41Z</time>
      </trkpt>
      <trkpt lat="49.87807" lon="2.48344">
        <ele>59.8</ele>
        <time>2023-09-27T12:46:42Z</time>
      </trkpt>
      <trkpt lat="49.87806" lon="2.48343">
        <ele>59.8</ele>
        <time>2023-09-27T12:46:43Z</time>
      </trkpt>
      <trkpt lat="49.87805" lon="2.48343">
        <ele>59.9</ele>
        <time>2023-09-27T12:46:44Z</time>
      </trkpt>
      <trkpt lat="49.87805" lon="2.48342">
        <ele>59.9</ele>
        <time>2023-09-27T12:46:45Z</time>
      </trkpt>
      <trkpt lat="49.87804" lon="2.48342">
        <ele>60</ele>
        <time>2023-09-27T12:46:46Z</time>
      </trkpt>
      <trkpt lat="49.87803" lon="2.48341">
        <ele>60</ele>
        <time>2023-09-27T12:46:47Z</time>
      </trkpt>
      <trkpt lat="49.87803" lon="2.48341">
        <ele>60.1</ele>
        <time>2023-09-27T12:46:48Z</time>
      </trkpt>
      <trkpt lat="49.87802" lon="2.4834">
        <ele>60.1</ele>
        <time>2023-09-27T12:46:49Z</time>
      </trkpt>
      <trkpt lat="49.87801" lon="2.4834">
        <ele>60.2</ele>
        <time>2023-09-27T12:46:50Z</time>
      </trkpt>
      <trkpt lat="49.87801" lon="2.48339">
        <ele>60.2</ele>
        <time>2023-09-27T12:46:51Z</time>
      </trkpt>
      <trkpt lat="49.878" lon="2.48339">
        <ele>60.3</ele>
        <time>2023-09-27T12:46:52Z</time>
      </trkpt>
      <trkpt lat="49.87799" lon="2.48338">
        <ele>60.3</ele>
        <time>2023-09-27T12:46:53Z</time>
      </trkpt>
      <trkpt lat="49.87798" lon="2.48338">
        <ele>60.4</ele>
        <time>2023-09-27T12:46:54Z</time>
      </trkpt>
      <trkpt lat="49.87797" lon="2.48337">
        <ele>60.4</ele>
        <time>2023-09-27T12:46:55Z</time>
      </trkpt>
      <trkpt lat="49.87797" lon="2.48337">
        <ele>60.5</ele>
        <time>2023-09-27T12:46:56Z</time>
      </trkpt>
      <trkpt lat="49.87796" lon="2.48336">
        <ele>60.5</ele>
        <time>2023-09-27T12:46:57Z</time>
      </trkpt>
      <trkpt lat="49.87795" lon="2.48335">
        <ele>60.6</ele>
        <time>2023-09-27T12:46:58Z</time>
      </trkpt>
      <trkpt lat="49.87795" lon="2.48335">
        <ele>60.6</ele>
        <time>2023-09-27T12:46:59Z</time>
      </trkpt>
      <trkpt lat="49.87794" lon="2.48334">
        <ele>60.7</ele>
        <time>2023-09-27T12:47:00Z</time>
      </trkpt>
      <trkpt lat="49.87793" lon="2.48334">
        <ele>60.7</ele>
        <time>2023-09-27T12:47:01Z</time>
      </trkpt>
      <trkpt lat="49.87793" lon="2.48333">
        <ele>60.7</ele>
        <time>2023-09-27T12:47:02Z</time>
      </trkpt>
      <trkpt lat="49.87792" lon="2.48333">
        <ele>60.8</ele>
        <time>2023-09-27T12:47:03Z</time>
      </trkpt>
      <trkpt lat="49.87791" lon="2.48332">
        <ele>60.8</ele>
        <time>2023-09-27T12:47:04Z</time>
      </trkpt>
      <trkpt lat="49.8779" lon="2.48331">
        <ele>60.9</ele>
        <time>2023-09-27T12:47:05Z</time>
      </trkpt>
      <trkpt lat="49.8779" lon="2.48331">
        <ele>60.9</ele>
        <time>2023-09-27T12:47:06Z</time>
      </trkpt>
      <trkpt lat="49.87789" lon="2.4833">
        <ele>61</ele>
        <time>2023-09-27T12:47:07Z</time>
      </trkpt>
      <trkpt lat="49.87788" lon="2.48329">
        <ele>61.1</ele>
        <time>2023-09-27T12:47:08Z</time>
      </trkpt>
      <trkpt lat="49.87787" lon="2.48329">
        <ele>61.1</ele>
        <time>2023-09-27T12:47:09Z</time>
      </trkpt>
      <trkpt lat="49.87786" lon="2.48328">
        <ele>61.2</ele>
        <time>2023-09-27T12:47:10Z</time>
      </trkpt>
      <trkpt lat="49.87785" lon="2.48328">
        <ele>61.2</ele>
        <time>2023-09-27T12:47:11Z</time>
      </trkpt>
      <trkpt lat="49.87784" lon="2.48327">
        <ele>61.3</ele>
        <time>2023-09-27T12:47:12Z</time>
      </trkpt>
      <trkpt lat="49.87783" lon="2.48327">
        <ele>61.3</ele>
        <time>2023-09-27T12:47:13Z</time>
      </trkpt>
      <trkpt lat="49.87782" lon="2.48326">
        <ele>61.4</ele>
        <time>2023-09-27T12:47:14Z</time>
      </trkpt>
      <trkpt lat="49.87781" lon="2.48326">
        <ele>61.4</ele>
        <time>2023-09-27T12:47:15Z</time>
      </trkpt>
      <trkpt lat="49.87781" lon="2.48326">
        <ele>61.5</ele>
        <time>2023-09-27T12:47:16Z</time>
      </trkpt>
      <trkpt lat="49.8778" lon="2.48325">
        <ele>61.5</ele>
        <time>2023-09-27T12:47:17Z</time>
      </trkpt>
      <trkpt lat="49.87779" lon="2.48325">
        <ele>61.6</ele>
        <time>2023-09-27T12:47:18Z</time>
      </trkpt>
      <trkpt lat="49.87778" lon="2.48324">
        <ele>61.6</ele>
        <time>2023-09-27T12:47:19Z</time>
      </trkpt>
      <trkpt lat="49.87778" lon="2.48324">
        <ele>61.6</ele>
        <time>2023-09-27T12:47:20Z</time>
      </trkpt>
      <trkpt lat="49.87777" lon="2.48324">
        <ele>61.7</ele>
        <time>2023-09-27T12:47:21Z</time>
      </trkpt>
      <trkpt lat="49.87776" lon="2.48323">
        <ele>61.7</ele>
        <time>2023-09-27T12:47:22Z</time>
      </trkpt>
      <trkpt lat="49.87776" lon="2.48323">
        <ele>61.8</ele>
        <time>2023-09-27T12:47:23Z</time>
      </trkpt>
      <trkpt lat="49.87775" lon="2.48322">
        <ele>61.8</ele>
        <time>2023-09-27T12:47:24Z</time>
      </trkpt>
      <trkpt lat="49.87774" lon="2.48322">
        <ele>61.8</ele>
        <time>2023-09-27T12:47:25Z</time>
      </trkpt>
      <trkpt lat="49.87774" lon="2.48322">
        <ele>61.9</ele>
        <time>2023-09-27T12:47:26Z</time>
      </trkpt>
      <trkpt lat="49.87773" lon="2.48321">
        <ele>61.9</ele>
        <time>2023-09-27T12:47:27Z</time>
      </trkpt>
      <trkpt lat="49.87772" lon="2.4832">
        <ele>62</ele>
        <time>2023-09-27T12:47:28Z</time>
      </trkpt>
      <trkpt lat="49.87771" lon="2.4832">
        <ele>62</ele>
        <time>2023-09-27T12:47:29Z</time>
      </trkpt>
      <trkpt lat="49.87771" lon="2.48319">
        <ele>62</ele>
        <time>2023-09-27T12:47:30Z</time>
      </trkpt>
      <trkpt lat="49.8777" lon="2.48319">
        <ele>62.1</ele>
        <time>2023-09-27T12:47:31Z</time>
      </trkpt>
      <trkpt lat="49.87769" lon="2.48318">
        <ele>62.1</ele>
        <time>2023-09-27T12:47:32Z</time>
      </trkpt>
      <trkpt lat="49.87768" lon="2.48318">
        <ele>62.1</ele>
        <time>2023-09-27T12:47:33Z</time>
      </trkpt>
      <trkpt lat="49.87767" lon="2.48317">
        <ele>62.2</ele>
        <time>2023-09-27T12:47:34Z</time>
      </trkpt>
      <trkpt lat="49.87767" lon="2.48317">
        <ele>62.2</ele>
        <time>2023-09-27T12:47:35Z</time>
      </trkpt>
      <trkpt lat="49.87766" lon="2.48316">
        <ele>62.2</ele>
        <time>2023-09-27T12:47:36Z</time>
      </trkpt>
      <trkpt lat="49.87765" lon="2.48316">
        <ele>62.3</ele>
        <time>2023-09-27T12:47:37Z</time>
      </trkpt>
      <trkpt lat="49.87764" lon="2.48315">
        <ele>62.3</ele>
        <time>2023-09-27T12:47:38Z</time>
      </trkpt>
      <trkpt lat="49.87763" lon="2.48315">
        <ele>62.4</ele>
        <time>2023-09-27T12:47:39Z</time>
      </trkpt>
      <trkpt lat="49.87763" lon="2.48314">
        <ele>62.4</ele>
        <time>2023-09-27T12:47:40Z</time>
      </trkpt>
      <trkpt lat="49.87762" lon="2.48314">
        <ele>62.4</ele>
        <time>2023-09-27T12:47:41Z</time>
      </trkpt>
      <trkpt lat="49.87761" lon="2.48313">
        <ele>62.5</ele>
        <time>2023-09-27T12:47:42Z</time>
      </trkpt>
      <trkpt lat="49.8776" lon="2.48313">
        <ele>62.5</ele>
        <time>2023-09-27T12:47:43Z</time>
      </trkpt>
      <trkpt lat="49.87759" lon="2.48312">
        <ele>62.5</ele>
        <time>2023-09-27T12:47:44Z</time>
      </trkpt>
      <trkpt lat="49.87758" lon="2.48312">
        <ele>62.6</ele>
        <time>2023-09-27T12:47:45Z</time>
      </trkpt>
      <trkpt lat="49.87757" lon="2.48311">
        <ele>62.6</ele>
        <time>2023-09-27T12:47:46Z</time>
      </trkpt>
      <trkpt lat="49.87756" lon="2.48311">
        <ele>62.6</ele>
        <time>2023-09-27T12:47:47Z</time>
      </trkpt>
      <trkpt lat="49.87756" lon="2.4831">
        <ele>62.7</ele>
        <time>2023-09-27T12:47:48Z</time>
      </trkpt>
      <trkpt lat="49.87755" lon="2.4831">
        <ele>62.7</ele>
        <time>2023-09-27T12:47:49Z</time>
      </trkpt>
      <trkpt lat="49.87754" lon="2.4831">
        <ele>62.7</ele>
        <time>2023-09-27T12:47:50Z</time>
      </trkpt>
      <trkpt lat="49.87753" lon="2.48309">
        <ele>62.7</ele>
        <time>2023-09-27T12:47:51Z</time>
      </trkpt>
      <trkpt lat="49.87752" lon="2.48309">
        <ele>62.8</ele>
        <time>2023-09-27T12:47:52Z</time>
      </trkpt>
      <trkpt lat="49.87751" lon="2.48308">
        <ele>62.8</ele>
        <time>2023-09-27T12:47:53Z</time>
      </trkpt>
      <trkpt lat="49.8775" lon="2.48308">
        <ele>62.9</ele>
        <time>2023-09-27T12:47:54Z</time>
      </trkpt>
      <trkpt lat="49.87749" lon="2.48307">
        <ele>62.9</ele>
        <time>2023-09-27T12:47:55Z</time>
      </trkpt>
      <trkpt lat="49.87748" lon="2.48307">
        <ele>62.9</ele>
        <time>2023-09-27T12:47:56Z</time>
      </trkpt>
      <trkpt lat="49.87747" lon="2.48306">
        <ele>62.9</ele>
        <time>2023-09-27T12:47:57Z</time>
      </trkpt>
      <trkpt lat="49.87746" lon="2.48306">
        <ele>63</ele>
        <time>2023-09-27T12:47:58Z</time>
      </trkpt>
      <trkpt lat="49.87746" lon="2.48306">
        <ele>63</ele>
        <time>2023-09-27T12:47:59Z</time>
      </trkpt>
      <trkpt lat="49.87745" lon="2.48305">
        <ele>63</ele>
        <time>2023-09-27T12:48:00Z</time>
      </trkpt>
      <trkpt lat="49.87744" lon="2.48305">
        <ele>63</ele>
        <time>2023-09-27T12:48:01Z</time>
      </trkpt>
      <trkpt lat="49.87744" lon="2.48305">
        <ele>63.1</ele>
        <time>2023-09-27T12:48:02Z</time>
      </trkpt>
      <trkpt lat="49.87743" lon="2.48305">
        <ele>63.1</ele>
        <time>2023-09-27T12:48:03Z</time>
      </trkpt>
      <trkpt lat="49.87742" lon="2.48304">
        <ele>63.1</ele>
        <time>2023-09-27T12:48:04Z</time>
      </trkpt>
      <trkpt lat="49.87742" lon="2.48304">
        <ele>63.1</ele>
        <time>2023-09-27T12:48:05Z</time>
      </trkpt>
      <trkpt lat="49.87741" lon="2.48304">
        <ele>63.2</ele>
        <time>2023-09-27T12:48:06Z</time>
      </trkpt>
      <trkpt lat="49.8774" lon="2.48304">
        <ele>63.2</ele>
        <time>2023-09-27T12:48:07Z</time>
      </trkpt>
      <trkpt lat="49.8774" lon="2.48304">
        <ele>63.2</ele>
        <time>2023-09-27T12:48:08Z</time>
      </trkpt>
      <trkpt lat="49.87739" lon="2.48304">
        <ele>63.2</ele>
        <time>2023-09-27T12:48:09Z</time>
      </trkpt>
      <trkpt lat="49.87738" lon="2.48303">
        <ele>63.3</ele>
        <time>2023-09-27T12:48:10Z</time>
      </trkpt>
      <trkpt lat="49.87737" lon="2.48303">
        <ele>63.3</ele>
        <time>2023-09-27T12:48:11Z</time>
      </trkpt>
      <trkpt lat="49.87736" lon="2.48302">
        <ele>63.3</ele>
        <time>2023-09-27T12:48:12Z</time>
      </trkpt>
      <trkpt lat="49.87736" lon="2.48301">
        <ele>63.3</ele>
        <time>2023-09-27T12:48:13Z</time>
      </trkpt>
      <trkpt lat="49.87735" lon="2.48301">
        <ele>63.4</ele>
        <time>2023-09-27T12:48:14Z</time>
      </trkpt>
      <trkpt lat="49.87734" lon="2.483">
        <ele>63.4</ele>
        <time>2023-09-27T12:48:15Z</time>
      </trkpt>
      <trkpt lat="49.87733" lon="2.48299">
        <ele>63.4</ele>
        <time>2023-09-27T12:48:16Z</time>
      </trkpt>
      <trkpt lat="49.87732" lon="2.48299">
        <ele>63.5</ele>
        <time>2023-09-27T12:48:17Z</time>
      </trkpt>
      <trkpt lat="49.87731" lon="2.48298">
        <ele>63.5</ele>
        <time>2023-09-27T12:48:18Z</time>
      </trkpt>
      <trkpt lat="49.8773" lon="2.48298">
        <ele>63.5</ele>
        <time>2023-09-27T12:48:19Z</time>
      </trkpt>
      <trkpt lat="49.8773" lon="2.48297">
        <ele>63.6</ele>
        <time>2023-09-27T12:48:20Z</time>
      </trkpt>
      <trkpt lat="49.87729" lon="2.48297">
        <ele>63.6</ele>
        <time>2023-09-27T12:48:21Z</time>
      </trkpt>
      <trkpt lat="49.87728" lon="2.48296">
        <ele>63.6</ele>
        <time>2023-09-27T12:48:22Z</time>
      </trkpt>
      <trkpt lat="49.87727" lon="2.48296">
        <ele>63.6</ele>
        <time>2023-09-27T12:48:23Z</time>
      </trkpt>
      <trkpt lat="49.87726" lon="2.48295">
        <ele>63.7</ele>
        <time>2023-09-27T12:48:24Z</time>
      </trkpt>
      <trkpt lat="49.87725" lon="2.48295">
        <ele>63.7</ele>
        <time>2023-09-27T12:48:25Z</time>
      </trkpt>
      <trkpt lat="49.87724" lon="2.48294">
        <ele>63.7</ele>
        <time>2023-09-27T12:48:26Z</time>
      </trkpt>
      <trkpt lat="49.87723" lon="2.48294">
        <ele>63.7</ele>
        <time>2023-09-27T12:48:27Z</time>
      </trkpt>
      <trkpt lat="49.87722" lon="2.48293">
        <ele>63.8</ele>
        <time>2023-09-27T12:48:28Z</time>
      </trkpt>
      <trkpt lat="49.87721" lon="2.48292">
        <ele>63.8</ele>
        <time>2023-09-27T12:48:29Z</time>
      </trkpt>
      <trkpt lat="49.8772" lon="2.48292">
        <ele>63.8</ele>
        <time>2023-09-27T12:48:30Z</time>
      </trkpt>
      <trkpt lat="49.87719" lon="2.48291">
        <ele>63.8</ele>
        <time>2023-09-27T12:48:31Z</time>
      </trkpt>
      <trkpt lat="49.87719" lon="2.4829">
        <ele>63.8</ele>
        <time>2023-09-27T12:48:32Z</time>
      </trkpt>
      <trkpt lat="49.87718" lon="2.4829">
        <ele>63.8</ele>
        <time>2023-09-27T12:48:33Z</time>
      </trkpt>
      <trkpt lat="49.87717" lon="2.48289">
        <ele>63.9</ele>
        <time>2023-09-27T12:48:34Z</time>
      </trkpt>
      <trkpt lat="49.87716" lon="2.48289">
        <ele>63.9</ele>
        <time>2023-09-27T12:48:35Z</time>
      </trkpt>
      <trkpt lat="49.87715" lon="2.48288">
        <ele>63.9</ele>
        <time>2023-09-27T12:48:36Z</time>
      </trkpt>
      <trkpt lat="49.87714" lon="2.48288">
        <ele>63.9</ele>
        <time>2023-09-27T12:48:37Z</time>
      </trkpt>
      <trkpt lat="49.87714" lon="2.48287">
        <ele>63.9</ele>
        <time>2023-09-27T12:48:38Z</time>
      </trkpt>
      <trkpt lat="49.87713" lon="2.48287">
        <ele>63.9</ele>
        <time>2023-09-27T12:48:39Z</time>
      </trkpt>
      <trkpt lat="49.87712" lon="2.48286">
        <ele>64</ele>
        <time>2023-09-27T12:48:40Z</time>
      </trkpt>
      <trkpt lat="49.87711" lon="2.48286">
        <ele>64</ele>
        <time>2023-09-27T12:48:41Z</time>
      </trkpt>
      <trkpt lat="49.8771" lon="2.48285">
        <ele>64</ele>
        <time>2023-09-27T12:48:42Z</time>
      </trkpt>
      <trkpt lat="49.8771" lon="2.48285">
        <ele>64</ele>
        <time>2023-09-27T12:48:43Z</time>
      </trkpt>
      <trkpt lat="49.87709" lon="2.48285">
        <ele>64</ele>
        <time>2023-09-27T12:48:44Z</time>
      </trkpt>
      <trkpt lat="49.87708" lon="2.48284">
        <ele>64</ele>
        <time>2023-09-27T12:48:45Z</time>
      </trkpt>
      <trkpt lat="49.87707" lon="2.48284">
        <ele>64.1</ele>
        <time>2023-09-27T12:48:46Z</time>
      </trkpt>
      <trkpt lat="49.87707" lon="2.48283">
        <ele>64.1</ele>
        <time>2023-09-27T12:48:47Z</time>
      </trkpt>
      <trkpt lat="49.87706" lon="2.48283">
        <ele>64.1</ele>
        <time>2023-09-27T12:48:48Z</time>
      </trkpt>
      <trkpt lat="49.87705" lon="2.48283">
        <ele>64.1</ele>
        <time>2023-09-27T12:48:49Z</time>
      </trkpt>
      <trkpt lat="49.87705" lon="2.48282">
        <ele>64.1</ele>
        <time>2023-09-27T12:48:50Z</time>
      </trkpt>
      <trkpt lat="49.87704" lon="2.48282">
        <ele>64.1</ele>
        <time>2023-09-27T12:48:51Z</time>
      </trkpt>
      <trkpt lat="49.87704" lon="2.48282">
        <ele>64.1</ele>
        <time>2023-09-27T12:48:52Z</time>
      </trkpt>
      <trkpt lat="49.87703" lon="2.48282">
        <ele>64.2</ele>
        <time>2023-09-27T12:48:53Z</time>
      </trkpt>
      <trkpt lat="49.87702" lon="2.48281">
        <ele>64.2</ele>
        <time>2023-09-27T12:48:54Z</time>
      </trkpt>
      <trkpt lat="49.87702" lon="2.48281">
        <ele>64.2</ele>
        <time>2023-09-27T12:48:55Z</time>
      </trkpt>
      <trkpt lat="49.87701" lon="2.48281">
        <ele>64.2</ele>
        <time>2023-09-27T12:48:56Z</time>
      </trkpt>
      <trkpt lat="49.877" lon="2.4828">
        <ele>64.2</ele>
        <time>2023-09-27T12:48:57Z</time>
      </trkpt>
      <trkpt lat="49.87699" lon="2.4828">
        <ele>64.3</ele>
        <time>2023-09-27T12:48:58Z</time>
      </trkpt>
      <trkpt lat="49.87698" lon="2.48279">
        <ele>64.3</ele>
        <time>2023-09-27T12:48:59Z</time>
      </trkpt>
      <trkpt lat="49.87698" lon="2.48279">
        <ele>64.3</ele>
        <time>2023-09-27T12:49:00Z</time>
      </trkpt>
      <trkpt lat="49.87697" lon="2.48278">
        <ele>64.3</ele>
        <time>2023-09-27T12:49:01Z</time>
      </trkpt>
      <trkpt lat="49.87696" lon="2.48278">
        <ele>64.3</ele>
        <time>2023-09-27T12:49:02Z</time>
      </trkpt>
      <trkpt lat="49.87696" lon="2.48278">
        <ele>64.3</ele>
        <time>2023-09-27T12:49:03Z</time>
      </trkpt>
      <trkpt lat="49.87695" lon="2.48277">
        <ele>64.4</ele>
        <time>2023-09-27T12:49:04Z</time>
      </trkpt>
      <trkpt lat="49.87694" lon="2.48277">
        <ele>64.4</ele>
        <time>2023-09-27T12:49:05Z</time>
      </trkpt>
      <trkpt lat="49.87694" lon="2.48277">
        <ele>64.4</ele>
        <time>2023-09-27T12:49:06Z</time>
      </trkpt>
      <trkpt lat="49.87693" lon="2.48276">
        <ele>64.4</ele>
        <time>2023-09-27T12:49:07Z</time>
      </trkpt>
      <trkpt lat="49.87692" lon="2.48276">
        <ele>64.4</ele>
        <time>2023-09-27T12:49:08Z</time>
      </trkpt>
      <trkpt lat="49.87692" lon="2.48275">
        <ele>64.4</ele>
        <time>2023-09-27T12:49:09Z</time>
      </trkpt>
      <trkpt lat="49.87691" lon="2.48275">
        <ele>64.5</ele>
        <time>2023-09-27T12:49:10Z</time>
      </trkpt>
      <trkpt lat="49.8769" lon="2.48274">
        <ele>64.5</ele>
        <time>2023-09-27T12:49:11Z</time>
      </trkpt>
      <trkpt lat="49.8769" lon="2.48274">
        <ele>64.5</ele>
        <time>2023-09-27T12:49:12Z</time>
      </trkpt>
      <trkpt lat="49.87689" lon="2.48273">
        <ele>64.5</ele>
        <time>2023-09-27T12:49:13Z</time>
      </trkpt>
      <trkpt lat="49.87688" lon="2.48273">
        <ele>64.5</ele>
        <time>2023-09-27T12:49:14Z</time>
      </trkpt>
      <trkpt lat="49.87687" lon="2.48272">
        <ele>64.5</ele>
        <time>2023-09-27T12:49:15Z</time>
      </trkpt>
      <trkpt lat="49.87687" lon="2.48271">
        <ele>64.6</ele>
        <time>2023-09-27T12:49:16Z</time>
      </trkpt>
      <trkpt lat="49.87686" lon="2.4827">
        <ele>64.6</ele>
        <time>2023-09-27T12:49:17Z</time>
      </trkpt>
      <trkpt lat="49.87685" lon="2.4827">
        <ele>64.6</ele>
        <time>2023-09-27T12:49:18Z</time>
      </trkpt>
      <trkpt lat="49.87685" lon="2.48269">
        <ele>64.6</ele>
        <time>2023-09-27T12:49:19Z</time>
      </trkpt>
      <trkpt lat="49.87684" lon="2.48268">
        <ele>64.6</ele>
        <time>2023-09-27T12:49:20Z</time>
      </trkpt>
      <trkpt lat="49.87683" lon="2.48268">
        <ele>64.6</ele>
        <time>2023-09-27T12:49:21Z</time>
      </trkpt>
      <trkpt lat="49.87683" lon="2.48267">
        <ele>64.6</ele>
        <time>2023-09-27T12:49:22Z</time>
      </trkpt>
      <trkpt lat="49.87682" lon="2.48267">
        <ele>64.7</ele>
        <time>2023-09-27T12:49:23Z</time>
      </trkpt>
      <trkpt lat="49.87681" lon="2.48266">
        <ele>64.7</ele>
        <time>2023-09-27T12:49:24Z</time>
      </trkpt>
      <trkpt lat="49.8768" lon="2.48266">
        <ele>64.7</ele>
        <time>2023-09-27T12:49:25Z</time>
      </trkpt>
      <trkpt lat="49.8768" lon="2.48265">
        <ele>64.7</ele>
        <time>2023-09-27T12:49:26Z</time>
      </trkpt>
      <trkpt lat="49.87679" lon="2.48265">
        <ele>64.7</ele>
        <time>2023-09-27T12:49:27Z</time>
      </trkpt>
      <trkpt lat="49.87678" lon="2.48264">
        <ele>64.7</ele>
        <time>2023-09-27T12:49:28Z</time>
      </trkpt>
      <trkpt lat="49.87677" lon="2.48264">
        <ele>64.8</ele>
        <time>2023-09-27T12:49:29Z</time>
      </trkpt>
      <trkpt lat="49.87676" lon="2.48264">
        <ele>64.8</ele>
        <time>2023-09-27T12:49:30Z</time>
      </trkpt>
      <trkpt lat="49.87675" lon="2.48263">
        <ele>64.8</ele>
        <time>2023-09-27T12:49:31Z</time>
      </trkpt>
      <trkpt lat="49.87674" lon="2.48263">
        <ele>64.8</ele>
        <time>2023-09-27T12:49:32Z</time>
      </trkpt>
      <trkpt lat="49.87673" lon="2.48262">
        <ele>64.8</ele>
        <time>2023-09-27T12:49:33Z</time>
      </trkpt>
      <trkpt lat="49.87672" lon="2.48262">
        <ele>64.9</ele>
        <time>2023-09-27T12:49:34Z</time>
      </trkpt>
      <trkpt lat="49.87672" lon="2.48262">
        <ele>64.9</ele>
        <time>2023-09-27T12:49:35Z</time>
      </trkpt>
      <trkpt lat="49.87671" lon="2.48261">
        <ele>64.9</ele>
        <time>2023-09-27T12:49:36Z</time>
      </trkpt>
      <trkpt lat="49.8767" lon="2.48261">
        <ele>64.9</ele>
        <time>2023-09-27T12:49:37Z</time>
      </trkpt>
      <trkpt lat="49.87669" lon="2.4826">
        <ele>64.9</ele>
        <time>2023-09-27T12:49:38Z</time>
      </trkpt>
      <trkpt lat="49.87669" lon="2.48259">
        <ele>65</ele>
        <time>2023-09-27T12:49:39Z</time>
      </trkpt>
      <trkpt lat="49.87667" lon="2.48258">
        <ele>65</ele>
        <time>2023-09-27T12:49:40Z</time>
      </trkpt>
      <trkpt lat="49.87667" lon="2.48258">
        <ele>65</ele>
        <time>2023-09-27T12:49:41Z</time>
      </trkpt>
      <trkpt lat="49.87666" lon="2.48257">
        <ele>65</ele>
        <time>2023-09-27T12:49:42Z</time>
      </trkpt>
      <trkpt lat="49.87665" lon="2.48256">
        <ele>65</ele>
        <time>2023-09-27T12:49:43Z</time>
      </trkpt>
      <trkpt lat="49.87665" lon="2.48256">
        <ele>65.1</ele>
        <time>2023-09-27T12:49:44Z</time>
      </trkpt>
      <trkpt lat="49.87664" lon="2.48255">
        <ele>65.1</ele>
        <time>2023-09-27T12:49:45Z</time>
      </trkpt>
      <trkpt lat="49.87663" lon="2.48254">
        <ele>65.1</ele>
        <time>2023-09-27T12:49:46Z</time>
      </trkpt>
      <trkpt lat="49.87663" lon="2.48253">
        <ele>65.1</ele>
        <time>2023-09-27T12:49:47Z</time>
      </trkpt>
      <trkpt lat="49.87662" lon="2.48252">
        <ele>65.1</ele>
        <time>2023-09-27T12:49:48Z</time>
      </trkpt>
      <trkpt lat="49.87661" lon="2.48252">
        <ele>65.2</ele>
        <time>2023-09-27T12:49:49Z</time>
      </trkpt>
      <trkpt lat="49.87661" lon="2.48251">
        <ele>65.2</ele>
        <time>2023-09-27T12:49:50Z</time>
      </trkpt>
      <trkpt lat="49.8766" lon="2.4825">
        <ele>65.2</ele>
        <time>2023-09-27T12:49:51Z</time>
      </trkpt>
      <trkpt lat="49.87659" lon="2.4825">
        <ele>65.2</ele>
        <time>2023-09-27T12:49:52Z</time>
      </trkpt>
      <trkpt lat="49.87659" lon="2.48249">
        <ele>65.2</ele>
        <time>2023-09-27T12:49:53Z</time>
      </trkpt>
      <trkpt lat="49.87658" lon="2.48248">
        <ele>65.3</ele>
        <time>2023-09-27T12:49:54Z</time>
      </trkpt>
      <trkpt lat="49.87657" lon="2.48248">
        <ele>65.3</ele>
        <time>2023-09-27T12:49:55Z</time>
      </trkpt>
      <trkpt lat="49.87656" lon="2.48247">
        <ele>65.3</ele>
        <time>2023-09-27T12:49:56Z</time>
      </trkpt>
      <trkpt lat="49.87656" lon="2.48247">
        <ele>65.3</ele>
        <time>2023-09-27T12:49:57Z</time>
      </trkpt>
      <trkpt lat="49.87655" lon="2.48246">
        <ele>65.3</ele>
        <time>2023-09-27T12:49:58Z</time>
      </trkpt>
      <trkpt lat="49.87654" lon="2.48245">
        <ele>65.3</ele>
        <time>2023-09-27T12:49:59Z</time>
      </trkpt>
      <trkpt lat="49.87654" lon="2.48245">
        <ele>65.4</ele>
        <time>2023-09-27T12:50:00Z</time>
      </trkpt>
      <trkpt lat="49.87653" lon="2.48244">
        <ele>65.4</ele>
        <time>2023-09-27T12:50:01Z</time>
      </trkpt>
      <trkpt lat="49.87652" lon="2.48244">
        <ele>65.4</ele>
        <time>2023-09-27T12:50:02Z</time>
      </trkpt>
      <trkpt lat="49.87651" lon="2.48243">
        <ele>65.4</ele>
        <time>2023-09-27T12:50:03Z</time>
      </trkpt>
      <trkpt lat="49.8765" lon="2.48243">
        <ele>65.4</ele>
        <time>2023-09-27T12:50:04Z</time>
      </trkpt>
      <trkpt lat="49.87649" lon="2.48242">
        <ele>65.5</ele>
        <time>2023-09-27T12:50:05Z</time>
      </trkpt>
      <trkpt lat="49.87649" lon="2.48242">
        <ele>65.5</ele>
        <time>2023-09-27T12:50:06Z</time>
      </trkpt>
      <trkpt lat="49.87648" lon="2.48241">
        <ele>65.5</ele>
        <time>2023-09-27T12:50:07Z</time>
      </trkpt>
      <trkpt lat="49.87647" lon="2.48241">
        <ele>65.5</ele>
        <time>2023-09-27T12:50:08Z</time>
      </trkpt>
      <trkpt lat="49.87646" lon="2.4824">
        <ele>65.5</ele>
        <time>2023-09-27T12:50:09Z</time>
      </trkpt>
      <trkpt lat="49.87644" lon="2.48239">
        <ele>65.6</ele>
        <time>2023-09-27T12:50:10Z</time>
      </trkpt>
      <trkpt lat="49.87644" lon="2.48239">
        <ele>65.6</ele>
        <time>2023-09-27T12:50:11Z</time>
      </trkpt>
      <trkpt lat="49.87643" lon="2.48239">
        <ele>65.6</ele>
        <time>2023-09-27T12:50:12Z</time>
      </trkpt>
      <trkpt lat="49.87643" lon="2.48238">
        <ele>65.6</ele>
        <time>2023-09-27T12:50:13Z</time>
      </trkpt>
      <trkpt lat="49.87642" lon="2.48237">
        <ele>65.6</ele>
        <time>2023-09-27T12:50:14Z</time>
      </trkpt>
      <trkpt lat="49.87641" lon="2.48237">
        <ele>65.6</ele>
        <time>2023-09-27T12:50:15Z</time>
      </trkpt>
      <trkpt lat="49.8764" lon="2.48236">
        <ele>65.6</ele>
        <time>2023-09-27T12:50:16Z</time>
      </trkpt>
      <trkpt lat="49.87639" lon="2.48235">
        <ele>65.7</ele>
        <time>2023-09-27T12:50:17Z</time>
      </trkpt>
      <trkpt lat="49.87639" lon="2.48235">
        <ele>65.7</ele>
        <time>2023-09-27T12:50:18Z</time>
      </trkpt>
      <trkpt lat="49.87638" lon="2.48234">
        <ele>65.7</ele>
        <time>2023-09-27T12:50:19Z</time>
      </trkpt>
      <trkpt lat="49.87637" lon="2.48234">
        <ele>65.7</ele>
        <time>2023-09-27T12:50:20Z</time>
      </trkpt>
      <trkpt lat="49.87636" lon="2.48234">
        <ele>65.7</ele>
        <time>2023-09-27T12:50:21Z</time>
      </trkpt>
      <trkpt lat="49.87635" lon="2.48233">
        <ele>65.7</ele>
        <time>2023-09-27T12:50:22Z</time>
      </trkpt>
      <trkpt lat="49.87634" lon="2.48232">
        <ele>65.7</ele>
        <time>2023-09-27T12:50:23Z</time>
      </trkpt>
      <trkpt lat="49.87634" lon="2.48232">
        <ele>65.8</ele>
        <time>2023-09-27T12:50:24Z</time>
      </trkpt>
      <trkpt lat="49.87633" lon="2.48231">
        <ele>65.8</ele>
        <time>2023-09-27T12:50:25Z</time>
      </trkpt>
      <trkpt lat="49.87632" lon="2.4823">
        <ele>65.8</ele>
        <time>2023-09-27T12:50:26Z</time>
      </trkpt>
      <trkpt lat="49.87632" lon="2.48229">
        <ele>65.8</ele>
        <time>2023-09-27T12:50:27Z</time>
      </trkpt>
      <trkpt lat="49.87631" lon="2.48228">
        <ele>65.8</ele>
        <time>2023-09-27T12:50:28Z</time>
      </trkpt>
      <trkpt lat="49.8763" lon="2.48228">
        <ele>65.8</ele>
        <time>2023-09-27T12:50:29Z</time>
      </trkpt>
      <trkpt lat="49.87629" lon="2.48227">
        <ele>65.8</ele>
        <time>2023-09-27T12:50:30Z</time>
      </trkpt>
      <trkpt lat="49.87628" lon="2.48227">
        <ele>65.8</ele>
        <time>2023-09-27T12:50:31Z</time>
      </trkpt>
      <trkpt lat="49.87627" lon="2.48226">
        <ele>65.8</ele>
        <time>2023-09-27T12:50:32Z</time>
      </trkpt>
      <trkpt lat="49.87626" lon="2.48226">
        <ele>65.8</ele>
        <time>2023-09-27T12:50:33Z</time>
      </trkpt>
      <trkpt lat="49.87626" lon="2.48225">
        <ele>65.9</ele>
        <time>2023-09-27T12:50:34Z</time>
      </trkpt>
      <trkpt lat="49.87625" lon="2.48225">
        <ele>65.9</ele>
        <time>2023-09-27T12:50:35Z</time>
      </trkpt>
      <trkpt lat="49.87624" lon="2.48224">
        <ele>65.9</ele>
        <time>2023-09-27T12:50:36Z</time>
      </trkpt>
      <trkpt lat="49.87623" lon="2.48224">
        <ele>65.9</ele>
        <time>2023-09-27T12:50:37Z</time>
      </trkpt>
      <trkpt lat="49.87623" lon="2.48223">
        <ele>65.9</ele>
        <time>2023-09-27T12:50:38Z</time>
      </trkpt>
      <trkpt lat="49.87622" lon="2.48223">
        <ele>65.9</ele>
        <time>2023-09-27T12:50:39Z</time>
      </trkpt>
      <trkpt lat="49.87621" lon="2.48222">
        <ele>65.9</ele>
        <time>2023-09-27T12:50:40Z</time>
      </trkpt>
      <trkpt lat="49.8762" lon="2.48221">
        <ele>65.9</ele>
        <time>2023-09-27T12:50:41Z</time>
      </trkpt>
      <trkpt lat="49.8762" lon="2.4822">
        <ele>65.9</ele>
        <time>2023-09-27T12:50:42Z</time>
      </trkpt>
      <trkpt lat="49.87619" lon="2.4822">
        <ele>65.9</ele>
        <time>2023-09-27T12:50:43Z</time>
      </trkpt>
      <trkpt lat="49.87618" lon="2.48219">
        <ele>65.9</ele>
        <time>2023-09-27T12:50:44Z</time>
      </trkpt>
      <trkpt lat="49.87617" lon="2.48218">
        <ele>65.9</ele>
        <time>2023-09-27T12:50:45Z</time>
      </trkpt>
      <trkpt lat="49.87616" lon="2.48217">
        <ele>66</ele>
        <time>2023-09-27T12:50:46Z</time>
      </trkpt>
      <trkpt lat="49.87615" lon="2.48216">
        <ele>66</ele>
        <time>2023-09-27T12:50:47Z</time>
      </trkpt>
      <trkpt lat="49.87614" lon="2.48215">
        <ele>66</ele>
        <time>2023-09-27T12:50:48Z</time>
      </trkpt>
      <trkpt lat="49.87613" lon="2.48215">
        <ele>66</ele>
        <time>2023-09-27T12:50:49Z</time>
      </trkpt>
      <trkpt lat="49.87612" lon="2.48214">
        <ele>66</ele>
        <time>2023-09-27T12:50:50Z</time>
      </trkpt>
      <trkpt lat="49.87612" lon="2.48214">
        <ele>66</ele>
        <time>2023-09-27T12:50:51Z</time>
      </trkpt>
      <trkpt lat="49.87611" lon="2.48213">
        <ele>66</ele>
        <time>2023-09-27T12:50:52Z</time>
      </trkpt>
      <trkpt lat="49.8761" lon="2.48212">
        <ele>66</ele>
        <time>2023-09-27T12:50:53Z</time>
      </trkpt>
      <trkpt lat="49.87609" lon="2.48212">
        <ele>66</ele>
        <time>2023-09-27T12:50:54Z</time>
      </trkpt>
      <trkpt lat="49.87608" lon="2.48211">
        <ele>66</ele>
        <time>2023-09-27T12:50:55Z</time>
      </trkpt>
      <trkpt lat="49.87608" lon="2.48211">
        <ele>66</ele>
        <time>2023-09-27T12:50:56Z</time>
      </trkpt>
      <trkpt lat="49.87607" lon="2.4821">
        <ele>66</ele>
        <time>2023-09-27T12:50:57Z</time>
      </trkpt>
      <trkpt lat="49.87606" lon="2.48209">
        <ele>66.1</ele>
        <time>2023-09-27T12:50:58Z</time>
      </trkpt>
      <trkpt lat="49.87605" lon="2.48209">
        <ele>66.1</ele>
        <time>2023-09-27T12:50:59Z</time>
      </trkpt>
      <trkpt lat="49.87604" lon="2.48208">
        <ele>66.1</ele>
        <time>2023-09-27T12:51:00Z</time>
      </trkpt>
      <trkpt lat="49.87604" lon="2.48208">
        <ele>66.1</ele>
        <time>2023-09-27T12:51:01Z</time>
      </trkpt>
      <trkpt lat="49.87603" lon="2.48207">
        <ele>66.1</ele>
        <time>2023-09-27T12:51:02Z</time>
      </trkpt>
      <trkpt lat="49.87602" lon="2.48207">
        <ele>66.1</ele>
        <time>2023-09-27T12:51:03Z</time>
      </trkpt>
      <trkpt lat="49.87601" lon="2.48206">
        <ele>66.1</ele>
        <time>2023-09-27T12:51:04Z</time>
      </trkpt>
      <trkpt lat="49.876" lon="2.48206">
        <ele>66.1</ele>
        <time>2023-09-27T12:51:05Z</time>
      </trkpt>
      <trkpt lat="49.87599" lon="2.48205">
        <ele>66.1</ele>
        <time>2023-09-27T12:51:06Z</time>
      </trkpt>
      <trkpt lat="49.87599" lon="2.48205">
        <ele>66.1</ele>
        <time>2023-09-27T12:51:07Z</time>
      </trkpt>
      <trkpt lat="49.87598" lon="2.48204">
        <ele>66.1</ele>
        <time>2023-09-27T12:51:08Z</time>
      </trkpt>
      <trkpt lat="49.87597" lon="2.48204">
        <ele>66.2</ele>
        <time>2023-09-27T12:51:09Z</time>
      </trkpt>
      <trkpt lat="49.87596" lon="2.48204">
        <ele>66.2</ele>
        <time>2023-09-27T12:51:10Z</time>
      </trkpt>
      <trkpt lat="49.87595" lon="2.48203">
        <ele>66.2</ele>
        <time>2023-09-27T12:51:11Z</time>
      </trkpt>
      <trkpt lat="49.87595" lon="2.48203">
        <ele>66.2</ele>
        <time>2023-09-27T12:51:12Z</time>
      </trkpt>
      <trkpt lat="49.87594" lon="2.48202">
        <ele>66.2</ele>
        <time>2023-09-27T12:51:13Z</time>
      </trkpt>
      <trkpt lat="49.87593" lon="2.48202">
        <ele>66.2</ele>
        <time>2023-09-27T12:51:14Z</time>
      </trkpt>
      <trkpt lat="49.87592" lon="2.48201">
        <ele>66.2</ele>
        <time>2023-09-27T12:51:15Z</time>
      </trkpt>
      <trkpt lat="49.87592" lon="2.48201">
        <ele>66.2</ele>
        <time>2023-09-27T12:51:16Z</time>
      </trkpt>
      <trkpt lat="49.87591" lon="2.482">
        <ele>66.2</ele>
        <time>2023-09-27T12:51:17Z</time>
      </trkpt>
      <trkpt lat="49.8759" lon="2.482">
        <ele>66.2</ele>
        <time>2023-09-27T12:51:18Z</time>
      </trkpt>
      <trkpt lat="49.87589" lon="2.48199">
        <ele>66.3</ele>
        <time>2023-09-27T12:51:19Z</time>
      </trkpt>
      <trkpt lat="49.87589" lon="2.48198">
        <ele>66.3</ele>
        <time>2023-09-27T12:51:20Z</time>
      </trkpt>
      <trkpt lat="49.87588" lon="2.48198">
        <ele>66.3</ele>
        <time>2023-09-27T12:51:21Z</time>
      </trkpt>
      <trkpt lat="49.87587" lon="2.48197">
        <ele>66.3</ele>
        <time>2023-09-27T12:51:22Z</time>
      </trkpt>
      <trkpt lat="49.87586" lon="2.48197">
        <ele>66.3</ele>
        <time>2023-09-27T12:51:23Z</time>
      </trkpt>
      <trkpt lat="49.87585" lon="2.48196">
        <ele>66.3</ele>
        <time>2023-09-27T12:51:24Z</time>
      </trkpt>
      <trkpt lat="49.87584" lon="2.48196">
        <ele>66.3</ele>
        <time>2023-09-27T12:51:25Z</time>
      </trkpt>
      <trkpt lat="49.87583" lon="2.48196">
        <ele>66.4</ele>
        <time>2023-09-27T12:51:26Z</time>
      </trkpt>
      <trkpt lat="49.87583" lon="2.48195">
        <ele>66.4</ele>
        <time>2023-09-27T12:51:27Z</time>
      </trkpt>
      <trkpt lat="49.87582" lon="2.48195">
        <ele>66.4</ele>
        <time>2023-09-27T12:51:28Z</time>
      </trkpt>
      <trkpt lat="49.87581" lon="2.48194">
        <ele>66.4</ele>
        <time>2023-09-27T12:51:29Z</time>
      </trkpt>
      <trkpt lat="49.8758" lon="2.48193">
        <ele>66.4</ele>
        <time>2023-09-27T12:51:30Z</time>
      </trkpt>
      <trkpt lat="49.87579" lon="2.48193">
        <ele>66.4</ele>
        <time>2023-09-27T12:51:31Z</time>
      </trkpt>
      <trkpt lat="49.87578" lon="2.48192">
        <ele>66.5</ele>
        <time>2023-09-27T12:51:32Z</time>
      </trkpt>
      <trkpt lat="49.87577" lon="2.48191">
        <ele>66.5</ele>
        <time>2023-09-27T12:51:33Z</time>
      </trkpt>
      <trkpt lat="49.87576" lon="2.4819">
        <ele>66.5</ele>
        <time>2023-09-27T12:51:34Z</time>
      </trkpt>
      <trkpt lat="49.87575" lon="2.4819">
        <ele>66.5</ele>
        <time>2023-09-27T12:51:35Z</time>
      </trkpt>
      <trkpt lat="49.87574" lon="2.4819">
        <ele>66.5</ele>
        <time>2023-09-27T12:51:36Z</time>
      </trkpt>
      <trkpt lat="49.87573" lon="2.48189">
        <ele>66.6</ele>
        <time>2023-09-27T12:51:37Z</time>
      </trkpt>
      <trkpt lat="49.87572" lon="2.48189">
        <ele>66.6</ele>
        <time>2023-09-27T12:51:38Z</time>
      </trkpt>
      <trkpt lat="49.87572" lon="2.48188">
        <ele>66.6</ele>
        <time>2023-09-27T12:51:39Z</time>
      </trkpt>
      <trkpt lat="49.87571" lon="2.48188">
        <ele>66.6</ele>
        <time>2023-09-27T12:51:40Z</time>
      </trkpt>
      <trkpt lat="49.8757" lon="2.48187">
        <ele>66.6</ele>
        <time>2023-09-27T12:51:41Z</time>
      </trkpt>
      <trkpt lat="49.87569" lon="2.48187">
        <ele>66.6</ele>
        <time>2023-09-27T12:51:42Z</time>
      </trkpt>
      <trkpt lat="49.87569" lon="2.48187">
        <ele>66.6</ele>
        <time>2023-09-27T12:51:43Z</time>
      </trkpt>
      <trkpt lat="49.87568" lon="2.48186">
        <ele>66.7</ele>
        <time>2023-09-27T12:51:44Z</time>
      </trkpt>
      <trkpt lat="49.87567" lon="2.48185">
        <ele>66.7</ele>
        <time>2023-09-27T12:51:45Z</time>
      </trkpt>
      <trkpt lat="49.87567" lon="2.48185">
        <ele>66.7</ele>
        <time>2023-09-27T12:51:46Z</time>
      </trkpt>
      <trkpt lat="49.87566" lon="2.48184">
        <ele>66.7</ele>
        <time>2023-09-27T12:51:47Z</time>
      </trkpt>
      <trkpt lat="49.87565" lon="2.48184">
        <ele>66.7</ele>
        <time>2023-09-27T12:51:48Z</time>
      </trkpt>
      <trkpt lat="49.87564" lon="2.48183">
        <ele>66.7</ele>
        <time>2023-09-27T12:51:49Z</time>
      </trkpt>
      <trkpt lat="49.87564" lon="2.48182">
        <ele>66.8</ele>
        <time>2023-09-27T12:51:50Z</time>
      </trkpt>
      <trkpt lat="49.87563" lon="2.48182">
        <ele>66.8</ele>
        <time>2023-09-27T12:51:51Z</time>
      </trkpt>
      <trkpt lat="49.87562" lon="2.48181">
        <ele>66.8</ele>
        <time>2023-09-27T12:51:52Z</time>
      </trkpt>
      <trkpt lat="49.87561" lon="2.4818">
        <ele>66.8</ele>
        <time>2023-09-27T12:51:53Z</time>
      </trkpt>
      <trkpt lat="49.8756" lon="2.4818">
        <ele>66.8</ele>
        <time>2023-09-27T12:51:54Z</time>
      </trkpt>
      <trkpt lat="49.8756" lon="2.48179">
        <ele>66.9</ele>
        <time>2023-09-27T12:51:55Z</time>
      </trkpt>
      <trkpt lat="49.87559" lon="2.48178">
        <ele>66.9</ele>
        <time>2023-09-27T12:51:56Z</time>
      </trkpt>
      <trkpt lat="49.87558" lon="2.48178">
        <ele>66.9</ele>
        <time>2023-09-27T12:51:57Z</time>
      </trkpt>
      <trkpt lat="49.87557" lon="2.48177">
        <ele>66.9</ele>
        <time>2023-09-27T12:51:58Z</time>
      </trkpt>
      <trkpt lat="49.87557" lon="2.48177">
        <ele>66.9</ele>
        <time>2023-09-27T12:51:59Z</time>
      </trkpt>
      <trkpt lat="49.87556" lon="2.48177">
        <ele>66.9</ele>
        <time>2023-09-27T12:52:00Z</time>
      </trkpt>
      <trkpt lat="49.87555" lon="2.48176">
        <ele>66.9</ele>
        <time>2023-09-27T12:52:01Z</time>
      </trkpt>
      <trkpt lat="49.87554" lon="2.48176">
        <ele>67</ele>
        <time>2023-09-27T12:52:02Z</time>
      </trkpt>
      <trkpt lat="49.87553" lon="2.48175">
        <ele>67</ele>
        <time>2023-09-27T12:52:03Z</time>
      </trkpt>
      <trkpt lat="49.87552" lon="2.48175">
        <ele>67</ele>
        <time>2023-09-27T12:52:04Z</time>
      </trkpt>
      <trkpt lat="49.87551" lon="2.48174">
        <ele>67</ele>
        <time>2023-09-27T12:52:05Z</time>
      </trkpt>
      <trkpt lat="49.8755" lon="2.48174">
        <ele>67.1</ele>
        <time>2023-09-27T12:52:06Z</time>
      </trkpt>
      <trkpt lat="49.8755" lon="2.48173">
        <ele>67.1</ele>
        <time>2023-09-27T12:52:07Z</time>
      </trkpt>
      <trkpt lat="49.87549" lon="2.48173">
        <ele>67.1</ele>
        <time>2023-09-27T12:52:08Z</time>
      </trkpt>
      <trkpt lat="49.87548" lon="2.48173">
        <ele>67.1</ele>
        <time>2023-09-27T12:52:09Z</time>
      </trkpt>
      <trkpt lat="49.87548" lon="2.48172">
        <ele>67.1</ele>
        <time>2023-09-27T12:52:10Z</time>
      </trkpt>
      <trkpt lat="49.87547" lon="2.48172">
        <ele>67.1</ele>
        <time>2023-09-27T12:52:11Z</time>
      </trkpt>
      <trkpt lat="49.87547" lon="2.48172">
        <ele>67.1</ele>
        <time>2023-09-27T12:52:12Z</time>
      </trkpt>
      <trkpt lat="49.87546" lon="2.48171">
        <ele>67.1</ele>
        <time>2023-09-27T12:52:13Z</time>
      </trkpt>
      <trkpt lat="49.87546" lon="2.4817">
        <ele>67.2</ele>
        <time>2023-09-27T12:52:14Z</time>
      </trkpt>
      <trkpt lat="49.87545" lon="2.48169">
        <ele>67.2</ele>
        <time>2023-09-27T12:52:15Z</time>
      </trkpt>
      <trkpt lat="49.87545" lon="2.48168">
        <ele>67.2</ele>
        <time>2023-09-27T12:52:16Z</time>
      </trkpt>
      <trkpt lat="49.87545" lon="2.48168">
        <ele>67.2</ele>
        <time>2023-09-27T12:52:17Z</time>
      </trkpt>
      <trkpt lat="49.87544" lon="2.48167">
        <ele>67.2</ele>
        <time>2023-09-27T12:52:18Z</time>
      </trkpt>
      <trkpt lat="49.87544" lon="2.48166">
        <ele>67.2</ele>
        <time>2023-09-27T12:52:19Z</time>
      </trkpt>
      <trkpt lat="49.87544" lon="2.48165">
        <ele>67.2</ele>
        <time>2023-09-27T12:52:20Z</time>
      </trkpt>
      <trkpt lat="49.87543" lon="2.48164">
        <ele>67.5</ele>
        <time>2023-09-27T12:52:21Z</time>
      </trkpt>
      <trkpt lat="49.87543" lon="2.48163">
        <ele>67.5</ele>
        <time>2023-09-27T12:52:22Z</time>
      </trkpt>
      <trkpt lat="49.87543" lon="2.48162">
        <ele>67.5</ele>
        <time>2023-09-27T12:52:23Z</time>
      </trkpt>
      <trkpt lat="49.87543" lon="2.48161">
        <ele>67.5</ele>
        <time>2023-09-27T12:52:24Z</time>
      </trkpt>
      <trkpt lat="49.87542" lon="2.48159">
        <ele>67.5</ele>
        <time>2023-09-27T12:52:25Z</time>
      </trkpt>
      <trkpt lat="49.87542" lon="2.48158">
        <ele>67.5</ele>
        <time>2023-09-27T12:52:26Z</time>
      </trkpt>
      <trkpt lat="49.87542" lon="2.48156">
        <ele>67.5</ele>
        <time>2023-09-27T12:52:27Z</time>
      </trkpt>
      <trkpt lat="49.87543" lon="2.48155">
        <ele>67.5</ele>
        <time>2023-09-27T12:52:28Z</time>
      </trkpt>
      <trkpt lat="49.87543" lon="2.48154">
        <ele>67.5</ele>
        <time>2023-09-27T12:52:29Z</time>
      </trkpt>
      <trkpt lat="49.87543" lon="2.48152">
        <ele>67.5</ele>
        <time>2023-09-27T12:52:30Z</time>
      </trkpt>
      <trkpt lat="49.87544" lon="2.48151">
        <ele>67.5</ele>
        <time>2023-09-27T12:52:31Z</time>
      </trkpt>
      <trkpt lat="49.87544" lon="2.48151">
        <ele>67.5</ele>
        <time>2023-09-27T12:52:32Z</time>
      </trkpt>
      <trkpt lat="49.87544" lon="2.4815">
        <ele>67.5</ele>
        <time>2023-09-27T12:52:33Z</time>
      </trkpt>
      <trkpt lat="49.87544" lon="2.48149">
        <ele>66.2</ele>
        <time>2023-09-27T12:52:34Z</time>
      </trkpt>
      <trkpt lat="49.87544" lon="2.48149">
        <ele>66.2</ele>
        <time>2023-09-27T12:52:35Z</time>
      </trkpt>
      <trkpt lat="49.87544" lon="2.48149">
        <ele>66.2</ele>
        <time>2023-09-27T12:52:36Z</time>
      </trkpt>
      <trkpt lat="49.87544" lon="2.48149">
        <ele>66.2</ele>
        <time>2023-09-27T12:52:37Z</time>
      </trkpt>
      <trkpt lat="49.87544" lon="2.48149">
        <ele>66.2</ele>
        <time>2023-09-27T12:52:38Z</time>
      </trkpt>
      <trkpt lat="49.87544" lon="2.48149">
        <ele>66.2</ele>
        <time>2023-09-27T12:52:39Z</time>
      </trkpt>
      <trkpt lat="49.87544" lon="2.48149">
        <ele>66.2</ele>
        <time>2023-09-27T12:52:40Z</time>
      </trkpt>
      <trkpt lat="49.87544" lon="2.48149">
        <ele>66.2</ele>
        <time>2023-09-27T12:52:41Z</time>
      </trkpt>
      <trkpt lat="49.87544" lon="2.48149">
        <ele>66.2</ele>
        <time>2023-09-27T12:52:42Z</time>
      </trkpt>
      <trkpt lat="49.87544" lon="2.48149">
        <ele>66.1</ele>
        <time>2023-09-27T12:52:43Z</time>
      </trkpt>
      <trkpt lat="49.87544" lon="2.48149">
        <ele>66.1</ele>
        <time>2023-09-27T12:52:44Z</time>
      </trkpt>
      <trkpt lat="49.87544" lon="2.48149">
        <ele>66.1</ele>
        <time>2023-09-27T12:52:45Z</time>
      </trkpt>
      <trkpt lat="49.87544" lon="2.48149">
        <ele>66.1</ele>
        <time>2023-09-27T12:52:46Z</time>
      </trkpt>
      <trkpt lat="49.87544" lon="2.48149">
        <ele>66.1</ele>
        <time>2023-09-27T12:52:47Z</time>
      </trkpt>
      <trkpt lat="49.87544" lon="2.48149">
        <ele>66.1</ele>
        <time>2023-09-27T12:52:48Z</time>
      </trkpt>
      <trkpt lat="49.87544" lon="2.48149">
        <ele>66.1</ele>
        <time>2023-09-27T12:52:49Z</time>
      </trkpt>
      <trkpt lat="49.87544" lon="2.48149">
        <ele>66.1</ele>
        <time>2023-09-27T12:52:50Z</time>
      </trkpt>
      <trkpt lat="49.87544" lon="2.48149">
        <ele>66.1</ele>
        <time>2023-09-27T12:52:51Z</time>
      </trkpt>
      <trkpt lat="49.87544" lon="2.48149">
        <ele>66.1</ele>
        <time>2023-09-27T12:52:52Z</time>
      </trkpt>
      <trkpt lat="49.87544" lon="2.48149">
        <ele>66.1</ele>
        <time>2023-09-27T12:52:53Z</time>
      </trkpt>
      <trkpt lat="49.87544" lon="2.48149">
        <ele>66.1</ele>
        <time>2023-09-27T12:52:54Z</time>
      </trkpt>
      <trkpt lat="49.87544" lon="2.48149">
        <ele>66.1</ele>
        <time>2023-09-27T12:52:55Z</time>
      </trkpt>
      <trkpt lat="49.87544" lon="2.48149">
        <ele>66.1</ele>
        <time>2023-09-27T12:52:56Z</time>
      </trkpt>
      <trkpt lat="49.87544" lon="2.48149">
        <ele>66.1</ele>
        <time>2023-09-27T12:52:57Z</time>
      </trkpt>
      <trkpt lat="49.87544" lon="2.48149">
        <ele>66.1</ele>
        <time>2023-09-27T12:52:58Z</time>
      </trkpt>
      <trkpt lat="49.87544" lon="2.48149">
        <ele>66.1</ele>
        <time>2023-09-27T12:52:59Z</time>
      </trkpt>
      <trkpt lat="49.87544" lon="2.48149">
        <ele>66.1</ele>
        <time>2023-09-27T12:53:00Z</time>
      </trkpt>
      <trkpt lat="49.87544" lon="2.48149">
        <ele>66.1</ele>
        <time>2023-09-27T12:53:01Z</time>
      </trkpt>
      <trkpt lat="49.87544" lon="2.48149">
        <ele>66.1</ele>
        <time>2023-09-27T12:53:02Z</time>
      </trkpt>
      <trkpt lat="49.87544" lon="2.48149">
        <ele>66.1</ele>
        <time>2023-09-27T12:53:03Z</time>
      </trkpt>
      <trkpt lat="49.87544" lon="2.48149">
        <ele>66.1</ele>
        <time>2023-09-27T12:53:04Z</time>
      </trkpt>
      <trkpt lat="49.87544" lon="2.48149">
        <ele>66.1</ele>
        <time>2023-09-27T12:53:05Z</time>
      </trkpt>
      <trkpt lat="49.87544" lon="2.48149">
        <ele>66.1</ele>
        <time>2023-09-27T12:53:06Z</time>
      </trkpt>
      <trkpt lat="49.87544" lon="2.4815">
        <ele>66.1</ele>
        <time>2023-09-27T12:53:07Z</time>
      </trkpt>
      <trkpt lat="49.87544" lon="2.4815">
        <ele>66.1</ele>
        <time>2023-09-27T12:53:08Z</time>
      </trkpt>
      <trkpt lat="49.87544" lon="2.4815">
        <ele>66.1</ele>
        <time>2023-09-27T12:53:09Z</time>
      </trkpt>
      <trkpt lat="49.87544" lon="2.4815">
        <ele>66.1</ele>
        <time>2023-09-27T12:53:10Z</time>
      </trkpt>
      <trkpt lat="49.87544" lon="2.4815">
        <ele>66.1</ele>
        <time>2023-09-27T12:53:11Z</time>
      </trkpt>
      <trkpt lat="49.87544" lon="2.4815">
        <ele>66.1</ele>
        <time>2023-09-27T12:53:12Z</time>
      </trkpt>
      <trkpt lat="49.87544" lon="2.4815">
        <ele>66.1</ele>
        <time>2023-09-27T12:53:13Z</time>
      </trkpt>
      <trkpt lat="49.87544" lon="2.4815">
        <ele>66.1</ele>
        <time>2023-09-27T12:53:14Z</time>
      </trkpt>
      <trkpt lat="49.87544" lon="2.4815">
        <ele>66.1</ele>
        <time>2023-09-27T12:53:15Z</time>
      </trkpt>
      <trkpt lat="49.87544" lon="2.4815">
        <ele>66.1</ele>
        <time>2023-09-27T12:53:16Z</time>
      </trkpt>
      <trkpt lat="49.87544" lon="2.4815">
        <ele>66.1</ele>
        <time>2023-09-27T12:53:17Z</time>
      </trkpt>
      <trkpt lat="49.87544" lon="2.4815">
        <ele>66.1</ele>
        <time>2023-09-27T12:53:18Z</time>
      </trkpt>
      <trkpt lat="49.87544" lon="2.4815">
        <ele>66.1</ele>
        <time>2023-09-27T12:53:19Z</time>
      </trkpt>
      <trkpt lat="49.87544" lon="2.4815">
        <ele>66.1</ele>
        <time>2023-09-27T12:53:20Z</time>
      </trkpt>
      <trkpt lat="49.87544" lon="2.4815">
        <ele>66.1</ele>
        <time>2023-09-27T12:53:21Z</time>
      </trkpt>
      <trkpt lat="49.87544" lon="2.4815">
        <ele>66.1</ele>
        <time>2023-09-27T12:53:22Z</time>
      </trkpt>
      <trkpt lat="49.87544" lon="2.4815">
        <ele>66.1</ele>
        <time>2023-09-27T12:53:23Z</time>
      </trkpt>
      <trkpt lat="49.87544" lon="2.4815">
        <ele>66.1</ele>
        <time>2023-09-27T12:53:24Z</time>
      </trkpt>
      <trkpt lat="49.87544" lon="2.4815">
        <ele>66.1</ele>
        <time>2023-09-27T12:53:25Z</time>
      </trkpt>
      <trkpt lat="49.87544" lon="2.4815">
        <ele>66.1</ele>
        <time>2023-09-27T12:53:26Z</time>
      </trkpt>
      <trkpt lat="49.87544" lon="2.4815">
        <ele>66.1</ele>
        <time>2023-09-27T12:53:27Z</time>
      </trkpt>
      <trkpt lat="49.87544" lon="2.4815">
        <ele>66.1</ele>
        <time>2023-09-27T12:53:28Z</time>
      </trkpt>
      <trkpt lat="49.87544" lon="2.4815">
        <ele>66.1</ele>
        <time>2023-09-27T12:53:29Z</time>
      </trkpt>
      <trkpt lat="49.87544" lon="2.4815">
        <ele>66.1</ele>
        <time>2023-09-27T12:53:30Z</time>
      </trkpt>
      <trkpt lat="49.87544" lon="2.4815">
        <ele>66.1</ele>
        <time>2023-09-27T12:53:31Z</time>
      </trkpt>
      <trkpt lat="49.87544" lon="2.4815">
        <ele>66.1</ele>
        <time>2023-09-27T12:53:32Z</time>
      </trkpt>
      <trkpt lat="49.87544" lon="2.4815">
        <ele>66.1</ele>
        <time>2023-09-27T12:53:33Z</time>
      </trkpt>
      <trkpt lat="49.87544" lon="2.4815">
        <ele>66.1</ele>
        <time>2023-09-27T12:53:34Z</time>
      </trkpt>
      <trkpt lat="49.87544" lon="2.4815">
        <ele>66.1</ele>
        <time>2023-09-27T12:53:35Z</time>
      </trkpt>
      <trkpt lat="49.87544" lon="2.4815">
        <ele>66.1</ele>
        <time>2023-09-27T12:53:36Z</time>
      </trkpt>
      <trkpt lat="49.87544" lon="2.4815">
        <ele>66.1</ele>
        <time>2023-09-27T12:53:37Z</time>
      </trkpt>
      <trkpt lat="49.87544" lon="2.4815">
        <ele>66.1</ele>
        <time>2023-09-27T12:53:38Z</time>
      </trkpt>
      <trkpt lat="49.87544" lon="2.4815">
        <ele>66.1</ele>
        <time>2023-09-27T12:53:39Z</time>
      </trkpt>
      <trkpt lat="49.87544" lon="2.4815">
        <ele>66.1</ele>
        <time>2023-09-27T12:53:40Z</time>
      </trkpt>
      <trkpt lat="49.87544" lon="2.4815">
        <ele>66.1</ele>
        <time>2023-09-27T12:53:41Z</time>
      </trkpt>
      <trkpt lat="49.87544" lon="2.4815">
        <ele>66.1</ele>
        <time>2023-09-27T12:53:42Z</time>
      </trkpt>
      <trkpt lat="49.87544" lon="2.4815">
        <ele>66.1</ele>
        <time>2023-09-27T12:53:43Z</time>
      </trkpt>
      <trkpt lat="49.87544" lon="2.4815">
        <ele>66.1</ele>
        <time>2023-09-27T12:53:44Z</time>
      </trkpt>
      <trkpt lat="49.87544" lon="2.4815">
        <ele>66.1</ele>
        <time>2023-09-27T12:53:45Z</time>
      </trkpt>
      <trkpt lat="49.87544" lon="2.4815">
        <ele>66.1</ele>
        <time>2023-09-27T12:53:46Z</time>
      </trkpt>
      <trkpt lat="49.87544" lon="2.4815">
        <ele>66.1</ele>
        <time>2023-09-27T12:53:47Z</time>
      </trkpt>
      <trkpt lat="49.87544" lon="2.4815">
        <ele>66.1</ele>
        <time>2023-09-27T12:53:48Z</time>
      </trkpt>
      <trkpt lat="49.87544" lon="2.4815">
        <ele>66.1</ele>
        <time>2023-09-27T12:53:49Z</time>
      </trkpt>
      <trkpt lat="49.87544" lon="2.4815">
        <ele>66.1</ele>
        <time>2023-09-27T12:53:50Z</time>
      </trkpt>
      <trkpt lat="49.87544" lon="2.4815">
        <ele>66.1</ele>
        <time>2023-09-27T12:53:51Z</time>
      </trkpt>
      <trkpt lat="49.87544" lon="2.4815">
        <ele>66.1</ele>
        <time>2023-09-27T12:53:52Z</time>
      </trkpt>
      <trkpt lat="49.87544" lon="2.4815">
        <ele>66.1</ele>
        <time>2023-09-27T12:53:53Z</time>
      </trkpt>
      <trkpt lat="49.87544" lon="2.4815">
        <ele>66.1</ele>
        <time>2023-09-27T12:53:54Z</time>
      </trkpt>
      <trkpt lat="49.87544" lon="2.4815">
        <ele>66.1</ele>
        <time>2023-09-27T12:53:55Z</time>
      </trkpt>
      <trkpt lat="49.87544" lon="2.4815">
        <ele>66.1</ele>
        <time>2023-09-27T12:53:56Z</time>
      </trkpt>
      <trkpt lat="49.87544" lon="2.4815">
        <ele>66.1</ele>
        <time>2023-09-27T12:53:57Z</time>
      </trkpt>
      <trkpt lat="49.87544" lon="2.4815">
        <ele>66.1</ele>
        <time>2023-09-27T12:53:58Z</time>
      </trkpt>
      <trkpt lat="49.87544" lon="2.4815">
        <ele>66.1</ele>
        <time>2023-09-27T12:53:59Z</time>
      </trkpt>
      <trkpt lat="49.87544" lon="2.4815">
        <ele>66.1</ele>
        <time>2023-09-27T12:54:00Z</time>
      </trkpt>
      <trkpt lat="49.87544" lon="2.4815">
        <ele>66.1</ele>
        <time>2023-09-27T12:54:01Z</time>
      </trkpt>
      <trkpt lat="49.87544" lon="2.4815">
        <ele>66.1</ele>
        <time>2023-09-27T12:54:02Z</time>
      </trkpt>
      <trkpt lat="49.87544" lon="2.4815">
        <ele>66.1</ele>
        <time>2023-09-27T12:54:03Z</time>
      </trkpt>
      <trkpt lat="49.87544" lon="2.4815">
        <ele>66.1</ele>
        <time>2023-09-27T12:54:04Z</time>
      </trkpt>
      <trkpt lat="49.87544" lon="2.4815">
        <ele>66.1</ele>
        <time>2023-09-27T12:54:05Z</time>
      </trkpt>
      <trkpt lat="49.87544" lon="2.4815">
        <ele>66.1</ele>
        <time>2023-09-27T12:54:06Z</time>
      </trkpt>
      <trkpt lat="49.87544" lon="2.4815">
        <ele>66.1</ele>
        <time>2023-09-27T12:54:07Z</time>
      </trkpt>
      <trkpt lat="49.87544" lon="2.4815">
        <ele>66.1</ele>
        <time>2023-09-27T12:54:08Z</time>
      </trkpt>
      <trkpt lat="49.87544" lon="2.4815">
        <ele>66.1</ele>
        <time>2023-09-27T12:54:09Z</time>
      </trkpt>
      <trkpt lat="49.87544" lon="2.4815">
        <ele>66.1</ele>
        <time>2023-09-27T12:54:10Z</time>
      </trkpt>
      <trkpt lat="49.87544" lon="2.4815">
        <ele>66.1</ele>
        <time>2023-09-27T12:54:11Z</time>
      </trkpt>
      <trkpt lat="49.87544" lon="2.4815">
        <ele>66.1</ele>
        <time>2023-09-27T12:54:12Z</time>
      </trkpt>
      <trkpt lat="49.87544" lon="2.4815">
        <ele>66.1</ele>
        <time>2023-09-27T12:54:13Z</time>
      </trkpt>
      <trkpt lat="49.87544" lon="2.4815">
        <ele>66.1</ele>
        <time>2023-09-27T12:54:14Z</time>
      </trkpt>
      <trkpt lat="49.87544" lon="2.4815">
        <ele>66.1</ele>
        <time>2023-09-27T12:54:15Z</time>
      </trkpt>
      <trkpt lat="49.87544" lon="2.4815">
        <ele>66.1</ele>
        <time>2023-09-27T12:54:16Z</time>
      </trkpt>
      <trkpt lat="49.87544" lon="2.4815">
        <ele>66.1</ele>
        <time>2023-09-27T12:54:17Z</time>
      </trkpt>
      <trkpt lat="49.87544" lon="2.4815">
        <ele>66.1</ele>
        <time>2023-09-27T12:54:18Z</time>
      </trkpt>
      <trkpt lat="49.87544" lon="2.4815">
        <ele>66.1</ele>
        <time>2023-09-27T12:54:19Z</time>
      </trkpt>
      <trkpt lat="49.87544" lon="2.4815">
        <ele>66.1</ele>
        <time>2023-09-27T12:54:20Z</time>
      </trkpt>
      <trkpt lat="49.87544" lon="2.4815">
        <ele>66.1</ele>
        <time>2023-09-27T12:54:21Z</time>
      </trkpt>
      <trkpt lat="49.87544" lon="2.4815">
        <ele>66.1</ele>
        <time>2023-09-27T12:54:22Z</time>
      </trkpt>
      <trkpt lat="49.87544" lon="2.4815">
        <ele>66.1</ele>
        <time>2023-09-27T12:54:23Z</time>
      </trkpt>
      <trkpt lat="49.87544" lon="2.4815">
        <ele>66.1</ele>
        <time>2023-09-27T12:54:24Z</time>
      </trkpt>
      <trkpt lat="49.87544" lon="2.4815">
        <ele>66.1</ele>
        <time>2023-09-27T12:54:25Z</time>
      </trkpt>
      <trkpt lat="49.87544" lon="2.4815">
        <ele>66.1</ele>
        <time>2023-09-27T12:54:26Z</time>
      </trkpt>
      <trkpt lat="49.87544" lon="2.4815">
        <ele>66.1</ele>
        <time>2023-09-27T12:54:27Z</time>
      </trkpt>
      <trkpt lat="49.87544" lon="2.4815">
        <ele>66.1</ele>
        <time>2023-09-27T12:54:28Z</time>
      </trkpt>
      <trkpt lat="49.87544" lon="2.4815">
        <ele>66.1</ele>
        <time>2023-09-27T12:54:29Z</time>
      </trkpt>
      <trkpt lat="49.87544" lon="2.4815">
        <ele>66.1</ele>
        <time>2023-09-27T12:54:30Z</time>
      </trkpt>
      <trkpt lat="49.87544" lon="2.4815">
        <ele>66.1</ele>
        <time>2023-09-27T12:54:31Z</time>
      </trkpt>
      <trkpt lat="49.87544" lon="2.4815">
        <ele>66.1</ele>
        <time>2023-09-27T12:54:32Z</time>
      </trkpt>
      <trkpt lat="49.87544" lon="2.4815">
        <ele>66.1</ele>
        <time>2023-09-27T12:54:33Z</time>
      </trkpt>
      <trkpt lat="49.87544" lon="2.4815">
        <ele>66.1</ele>
        <time>2023-09-27T12:54:34Z</time>
      </trkpt>
      <trkpt lat="49.87544" lon="2.4815">
        <ele>66.1</ele>
        <time>2023-09-27T12:54:35Z</time>
      </trkpt>
      <trkpt lat="49.87544" lon="2.4815">
        <ele>66.1</ele>
        <time>2023-09-27T12:54:36Z</time>
      </trkpt>
      <trkpt lat="49.87544" lon="2.4815">
        <ele>66.1</ele>
        <time>2023-09-27T12:54:37Z</time>
      </trkpt>
      <trkpt lat="49.87544" lon="2.4815">
        <ele>66.1</ele>
        <time>2023-09-27T12:54:38Z</time>
      </trkpt>
      <trkpt lat="49.87544" lon="2.4815">
        <ele>66.1</ele>
        <time>2023-09-27T12:54:39Z</time>
      </trkpt>
      <trkpt lat="49.87544" lon="2.4815">
        <ele>66.1</ele>
        <time>2023-09-27T12:54:40Z</time>
      </trkpt>
      <trkpt lat="49.87544" lon="2.4815">
        <ele>66.1</ele>
        <time>2023-09-27T12:54:41Z</time>
      </trkpt>
      <trkpt lat="49.87544" lon="2.4815">
        <ele>66.1</ele>
        <time>2023-09-27T12:54:42Z</time>
      </trkpt>
      <trkpt lat="49.87544" lon="2.4815">
        <ele>66.1</ele>
        <time>2023-09-27T12:54:43Z</time>
      </trkpt>
      <trkpt lat="49.87544" lon="2.4815">
        <ele>66.1</ele>
        <time>2023-09-27T12:54:44Z</time>
      </trkpt>
      <trkpt lat="49.87544" lon="2.4815">
        <ele>66.1</ele>
        <time>2023-09-27T12:54:45Z</time>
      </trkpt>
      <trkpt lat="49.87544" lon="2.4815">
        <ele>66.1</ele>
        <time>2023-09-27T12:54:46Z</time>
      </trkpt>
      <trkpt lat="49.87544" lon="2.4815">
        <ele>66.1</ele>
        <time>2023-09-27T12:54:47Z</time>
      </trkpt>
      <trkpt lat="49.87544" lon="2.4815">
        <ele>66.1</ele>
        <time>2023-09-27T12:54:48Z</time>
      </trkpt>
      <trkpt lat="49.87544" lon="2.4815">
        <ele>66.1</ele>
        <time>2023-09-27T12:54:49Z</time>
      </trkpt>
      <trkpt lat="49.87544" lon="2.4815">
        <ele>66.1</ele>
        <time>2023-09-27T12:54:50Z</time>
      </trkpt>
      <trkpt lat="49.87544" lon="2.4815">
        <ele>66.1</ele>
        <time>2023-09-27T12:54:51Z</time>
      </trkpt>
      <trkpt lat="49.87544" lon="2.4815">
        <ele>66.1</ele>
        <time>2023-09-27T12:54:52Z</time>
      </trkpt>
      <trkpt lat="49.87544" lon="2.4815">
        <ele>66.1</ele>
        <time>2023-09-27T12:54:53Z</time>
      </trkpt>
      <trkpt lat="49.87544" lon="2.4815">
        <ele>66.1</ele>
        <time>2023-09-27T12:54:54Z</time>
      </trkpt>
      <trkpt lat="49.87544" lon="2.4815">
        <ele>66.1</ele>
        <time>2023-09-27T12:54:55Z</time>
      </trkpt>
      <trkpt lat="49.87544" lon="2.4815">
        <ele>66.1</ele>
        <time>2023-09-27T12:54:56Z</time>
      </trkpt>
      <trkpt lat="49.87544" lon="2.4815">
        <ele>66.1</ele>
        <time>2023-09-27T12:54:57Z</time>
      </trkpt>
      <trkpt lat="49.87544" lon="2.4815">
        <ele>66.1</ele>
        <time>2023-09-27T12:54:58Z</time>
      </trkpt>
      <trkpt lat="49.87544" lon="2.4815">
        <ele>66.1</ele>
        <time>2023-09-27T12:54:59Z</time>
      </trkpt>
      <trkpt lat="49.87544" lon="2.4815">
        <ele>66.1</ele>
        <time>2023-09-27T12:55:00Z</time>
      </trkpt>
      <trkpt lat="49.87544" lon="2.4815">
        <ele>66.1</ele>
        <time>2023-09-27T12:55:01Z</time>
      </trkpt>
      <trkpt lat="49.87544" lon="2.4815">
        <ele>66.1</ele>
        <time>2023-09-27T12:55:02Z</time>
      </trkpt>
      <trkpt lat="49.87544" lon="2.4815">
        <ele>66.1</ele>
        <time>2023-09-27T12:55:03Z</time>
      </trkpt>
      <trkpt lat="49.87544" lon="2.4815">
        <ele>66.1</ele>
        <time>2023-09-27T12:55:04Z</time>
      </trkpt>
      <trkpt lat="49.87544" lon="2.4815">
        <ele>66.1</ele>
        <time>2023-09-27T12:55:05Z</time>
      </trkpt>
      <trkpt lat="49.87544" lon="2.4815">
        <ele>66.1</ele>
        <time>2023-09-27T12:55:06Z</time>
      </trkpt>
      <trkpt lat="49.87544" lon="2.4815">
        <ele>66.1</ele>
        <time>2023-09-27T12:55:07Z</time>
      </trkpt>
      <trkpt lat="49.87544" lon="2.4815">
        <ele>66.1</ele>
        <time>2023-09-27T12:55:08Z</time>
      </trkpt>
      <trkpt lat="49.87544" lon="2.4815">
        <ele>66.1</ele>
        <time>2023-09-27T12:55:09Z</time>
      </trkpt>
      <trkpt lat="49.87544" lon="2.4815">
        <ele>66.1</ele>
        <time>2023-09-27T12:55:10Z</time>
      </trkpt>
      <trkpt lat="49.87544" lon="2.4815">
        <ele>66.1</ele>
        <time>2023-09-27T12:55:11Z</time>
      </trkpt>
      <trkpt lat="49.87544" lon="2.4815">
        <ele>66.1</ele>
        <time>2023-09-27T12:55:12Z</time>
      </trkpt>
      <trkpt lat="49.87544" lon="2.4815">
        <ele>66.1</ele>
        <time>2023-09-27T12:55:13Z</time>
      </trkpt>
      <trkpt lat="49.87544" lon="2.4815">
        <ele>66.1</ele>
        <time>2023-09-27T12:55:14Z</time>
      </trkpt>
      <trkpt lat="49.87544" lon="2.4815">
        <ele>66.1</ele>
        <time>2023-09-27T12:55:15Z</time>
      </trkpt>
      <trkpt lat="49.87544" lon="2.4815">
        <ele>66.1</ele>
        <time>2023-09-27T12:55:16Z</time>
      </trkpt>
      <trkpt lat="49.87544" lon="2.4815">
        <ele>66.1</ele>
        <time>2023-09-27T12:55:17Z</time>
      </trkpt>
      <trkpt lat="49.87544" lon="2.4815">
        <ele>66.1</ele>
        <time>2023-09-27T12:55:18Z</time>
      </trkpt>
      <trkpt lat="49.87544" lon="2.4815">
        <ele>66.1</ele>
        <time>2023-09-27T12:55:19Z</time>
      </trkpt>
      <trkpt lat="49.87544" lon="2.4815">
        <ele>66.1</ele>
        <time>2023-09-27T12:55:20Z</time>
      </trkpt>
      <trkpt lat="49.87544" lon="2.4815">
        <ele>66.1</ele>
        <time>2023-09-27T12:55:21Z</time>
      </trkpt>
      <trkpt lat="49.87544" lon="2.4815">
        <ele>66.1</ele>
        <time>2023-09-27T12:55:22Z</time>
      </trkpt>
      <trkpt lat="49.87544" lon="2.4815">
        <ele>66.1</ele>
        <time>2023-09-27T12:55:23Z</time>
      </trkpt>
      <trkpt lat="49.87544" lon="2.4815">
        <ele>66.1</ele>
        <time>2023-09-27T12:55:24Z</time>
      </trkpt>
      <trkpt lat="49.87544" lon="2.4815">
        <ele>66.1</ele>
        <time>2023-09-27T12:55:25Z</time>
      </trkpt>
      <trkpt lat="49.87544" lon="2.4815">
        <ele>66.1</ele>
        <time>2023-09-27T12:55:26Z</time>
      </trkpt>
      <trkpt lat="49.87544" lon="2.4815">
        <ele>66.1</ele>
        <time>2023-09-27T12:55:27Z</time>
      </trkpt>
      <trkpt lat="49.87544" lon="2.4815">
        <ele>66.1</ele>
        <time>2023-09-27T12:55:28Z</time>
      </trkpt>
      <trkpt lat="49.87544" lon="2.4815">
        <ele>66.1</ele>
        <time>2023-09-27T12:55:29Z</time>
      </trkpt>
      <trkpt lat="49.87544" lon="2.4815">
        <ele>66.1</ele>
        <time>2023-09-27T12:55:30Z</time>
      </trkpt>
      <trkpt lat="49.87544" lon="2.4815">
        <ele>66.1</ele>
        <time>2023-09-27T12:55:31Z</time>
      </trkpt>
      <trkpt lat="49.87544" lon="2.4815">
        <ele>66.1</ele>
        <time>2023-09-27T12:55:32Z</time>
      </trkpt>
      <trkpt lat="49.87544" lon="2.4815">
        <ele>66.1</ele>
        <time>2023-09-27T12:55:33Z</time>
      </trkpt>
      <trkpt lat="49.87544" lon="2.4815">
        <ele>66.1</ele>
        <time>2023-09-27T12:55:34Z</time>
      </trkpt>
      <trkpt lat="49.87544" lon="2.4815">
        <ele>66.1</ele>
        <time>2023-09-27T12:55:35Z</time>
      </trkpt>
      <trkpt lat="49.87544" lon="2.4815">
        <ele>66.1</ele>
        <time>2023-09-27T12:55:36Z</time>
      </trkpt>
      <trkpt lat="49.87544" lon="2.4815">
        <ele>66.1</ele>
        <time>2023-09-27T12:55:37Z</time>
      </trkpt>
      <trkpt lat="49.87544" lon="2.4815">
        <ele>66.1</ele>
        <time>2023-09-27T12:55:38Z</time>
      </trkpt>
      <trkpt lat="49.87544" lon="2.4815">
        <ele>66.1</ele>
        <time>2023-09-27T12:55:39Z</time>
      </trkpt>
      <trkpt lat="49.87544" lon="2.4815">
        <ele>66.1</ele>
        <time>2023-09-27T12:55:40Z</time>
      </trkpt>
      <trkpt lat="49.87544" lon="2.4815">
        <ele>66.1</ele>
        <time>2023-09-27T12:55:41Z</time>
      </trkpt>
      <trkpt lat="49.87544" lon="2.4815">
        <ele>66.1</ele>
        <time>2023-09-27T12:55:42Z</time>
      </trkpt>
      <trkpt lat="49.87544" lon="2.4815">
        <ele>66.1</ele>
        <time>2023-09-27T12:55:43Z</time>
      </trkpt>
      <trkpt lat="49.87544" lon="2.4815">
        <ele>66.1</ele>
        <time>2023-09-27T12:55:44Z</time>
      </trkpt>
      <trkpt lat="49.87544" lon="2.4815">
        <ele>66.1</ele>
        <time>2023-09-27T12:55:45Z</time>
      </trkpt>
      <trkpt lat="49.87544" lon="2.4815">
        <ele>66.1</ele>
        <time>2023-09-27T12:55:46Z</time>
      </trkpt>
      <trkpt lat="49.87544" lon="2.4815">
        <ele>66.1</ele>
        <time>2023-09-27T12:55:47Z</time>
      </trkpt>
      <trkpt lat="49.87544" lon="2.4815">
        <ele>66.1</ele>
        <time>2023-09-27T12:55:48Z</time>
      </trkpt>
      <trkpt lat="49.87544" lon="2.4815">
        <ele>66.1</ele>
        <time>2023-09-27T12:55:49Z</time>
      </trkpt>
      <trkpt lat="49.87545" lon="2.48152">
        <ele>66</ele>
        <time>2023-09-27T12:55:50Z</time>
      </trkpt>
      <trkpt lat="49.87546" lon="2.48152">
        <ele>66</ele>
        <time>2023-09-27T12:55:51Z</time>
      </trkpt>
      <trkpt lat="49.87546" lon="2.48151">
        <ele>65.9</ele>
        <time>2023-09-27T12:55:52Z</time>
      </trkpt>
      <trkpt lat="49.87547" lon="2.4815">
        <ele>65.9</ele>
        <time>2023-09-27T12:55:53Z</time>
      </trkpt>
      <trkpt lat="49.87548" lon="2.48149">
        <ele>65.8</ele>
        <time>2023-09-27T12:55:54Z</time>
      </trkpt>
      <trkpt lat="49.87548" lon="2.48148">
        <ele>65.7</ele>
        <time>2023-09-27T12:55:55Z</time>
      </trkpt>
      <trkpt lat="49.87549" lon="2.48148">
        <ele>65.7</ele>
        <time>2023-09-27T12:55:56Z</time>
      </trkpt>
      <trkpt lat="49.87549" lon="2.48148">
        <ele>65.7</ele>
        <time>2023-09-27T12:55:57Z</time>
      </trkpt>
      <trkpt lat="49.87549" lon="2.48148">
        <ele>65.7</ele>
        <time>2023-09-27T12:55:58Z</time>
      </trkpt>
      <trkpt lat="49.87549" lon="2.48147">
        <ele>65.7</ele>
        <time>2023-09-27T12:55:59Z</time>
      </trkpt>
      <trkpt lat="49.8755" lon="2.48147">
        <ele>65.6</ele>
        <time>2023-09-27T12:56:00Z</time>
      </trkpt>
      <trkpt lat="49.8755" lon="2.48147">
        <ele>65.6</ele>
        <time>2023-09-27T12:56:01Z</time>
      </trkpt>
      <trkpt lat="49.87551" lon="2.48146">
        <ele>65.5</ele>
        <time>2023-09-27T12:56:02Z</time>
      </trkpt>
      <trkpt lat="49.87552" lon="2.48146">
        <ele>65.5</ele>
        <time>2023-09-27T12:56:03Z</time>
      </trkpt>
      <trkpt lat="49.87553" lon="2.48145">
        <ele>65.4</ele>
        <time>2023-09-27T12:56:04Z</time>
      </trkpt>
      <trkpt lat="49.87554" lon="2.48145">
        <ele>65.3</ele>
        <time>2023-09-27T12:56:05Z</time>
      </trkpt>
      <trkpt lat="49.87555" lon="2.48144">
        <ele>65.3</ele>
        <time>2023-09-27T12:56:06Z</time>
      </trkpt>
      <trkpt lat="49.87556" lon="2.48144">
        <ele>65.2</ele>
        <time>2023-09-27T12:56:07Z</time>
      </trkpt>
      <trkpt lat="49.87557" lon="2.48144">
        <ele>65.2</ele>
        <time>2023-09-27T12:56:08Z</time>
      </trkpt>
      <trkpt lat="49.87558" lon="2.48144">
        <ele>65.1</ele>
        <time>2023-09-27T12:56:09Z</time>
      </trkpt>
      <trkpt lat="49.8756" lon="2.48143">
        <ele>65</ele>
        <time>2023-09-27T12:56:10Z</time>
      </trkpt>
      <trkpt lat="49.8756" lon="2.48143">
        <ele>64.9</ele>
        <time>2023-09-27T12:56:11Z</time>
      </trkpt>
      <trkpt lat="49.87561" lon="2.48142">
        <ele>64.9</ele>
        <time>2023-09-27T12:56:12Z</time>
      </trkpt>
      <trkpt lat="49.87562" lon="2.48142">
        <ele>64.8</ele>
        <time>2023-09-27T12:56:13Z</time>
      </trkpt>
      <trkpt lat="49.87564" lon="2.48142">
        <ele>64.7</ele>
        <time>2023-09-27T12:56:14Z</time>
      </trkpt>
      <trkpt lat="49.87565" lon="2.48141">
        <ele>64.7</ele>
        <time>2023-09-27T12:56:15Z</time>
      </trkpt>
      <trkpt lat="49.87566" lon="2.48141">
        <ele>64.6</ele>
        <time>2023-09-27T12:56:16Z</time>
      </trkpt>
      <trkpt lat="49.87567" lon="2.48141">
        <ele>64.5</ele>
        <time>2023-09-27T12:56:17Z</time>
      </trkpt>
      <trkpt lat="49.87568" lon="2.4814">
        <ele>64.5</ele>
        <time>2023-09-27T12:56:18Z</time>
      </trkpt>
      <trkpt lat="49.87569" lon="2.4814">
        <ele>64.4</ele>
        <time>2023-09-27T12:56:19Z</time>
      </trkpt>
      <trkpt lat="49.8757" lon="2.48139">
        <ele>64.3</ele>
        <time>2023-09-27T12:56:20Z</time>
      </trkpt>
      <trkpt lat="49.87571" lon="2.48139">
        <ele>64.3</ele>
        <time>2023-09-27T12:56:21Z</time>
      </trkpt>
      <trkpt lat="49.87572" lon="2.48138">
        <ele>64.2</ele>
        <time>2023-09-27T12:56:22Z</time>
      </trkpt>
      <trkpt lat="49.87573" lon="2.48138">
        <ele>64.1</ele>
        <time>2023-09-27T12:56:23Z</time>
      </trkpt>
      <trkpt lat="49.87574" lon="2.48137">
        <ele>64.1</ele>
        <time>2023-09-27T12:56:24Z</time>
      </trkpt>
      <trkpt lat="49.87575" lon="2.48137">
        <ele>64</ele>
        <time>2023-09-27T12:56:25Z</time>
      </trkpt>
      <trkpt lat="49.87576" lon="2.48137">
        <ele>64</ele>
        <time>2023-09-27T12:56:26Z</time>
      </trkpt>
      <trkpt lat="49.87577" lon="2.48137">
        <ele>63.9</ele>
        <time>2023-09-27T12:56:27Z</time>
      </trkpt>
      <trkpt lat="49.87578" lon="2.48136">
        <ele>63.9</ele>
        <time>2023-09-27T12:56:28Z</time>
      </trkpt>
      <trkpt lat="49.87578" lon="2.48136">
        <ele>63.8</ele>
        <time>2023-09-27T12:56:29Z</time>
      </trkpt>
      <trkpt lat="49.87579" lon="2.48136">
        <ele>63.8</ele>
        <time>2023-09-27T12:56:30Z</time>
      </trkpt>
      <trkpt lat="49.8758" lon="2.48136">
        <ele>63.7</ele>
        <time>2023-09-27T12:56:31Z</time>
      </trkpt>
      <trkpt lat="49.87581" lon="2.48136">
        <ele>63.7</ele>
        <time>2023-09-27T12:56:32Z</time>
      </trkpt>
      <trkpt lat="49.87582" lon="2.48136">
        <ele>63.6</ele>
        <time>2023-09-27T12:56:33Z</time>
      </trkpt>
      <trkpt lat="49.87583" lon="2.48135">
        <ele>63.6</ele>
        <time>2023-09-27T12:56:34Z</time>
      </trkpt>
      <trkpt lat="49.87584" lon="2.48135">
        <ele>63.5</ele>
        <time>2023-09-27T12:56:35Z</time>
      </trkpt>
      <trkpt lat="49.87585" lon="2.48135">
        <ele>63.5</ele>
        <time>2023-09-27T12:56:36Z</time>
      </trkpt>
      <trkpt lat="49.87586" lon="2.48134">
        <ele>63.4</ele>
        <time>2023-09-27T12:56:37Z</time>
      </trkpt>
      <trkpt lat="49.87586" lon="2.48134">
        <ele>63.3</ele>
        <time>2023-09-27T12:56:38Z</time>
      </trkpt>
      <trkpt lat="49.87587" lon="2.48134">
        <ele>63.3</ele>
        <time>2023-09-27T12:56:39Z</time>
      </trkpt>
      <trkpt lat="49.87588" lon="2.48134">
        <ele>63.2</ele>
        <time>2023-09-27T12:56:40Z</time>
      </trkpt>
      <trkpt lat="49.87589" lon="2.48133">
        <ele>63.2</ele>
        <time>2023-09-27T12:56:41Z</time>
      </trkpt>
      <trkpt lat="49.8759" lon="2.48133">
        <ele>63.1</ele>
        <time>2023-09-27T12:56:42Z</time>
      </trkpt>
      <trkpt lat="49.87591" lon="2.48133">
        <ele>63.1</ele>
        <time>2023-09-27T12:56:43Z</time>
      </trkpt>
      <trkpt lat="49.87592" lon="2.48132">
        <ele>63</ele>
        <time>2023-09-27T12:56:44Z</time>
      </trkpt>
      <trkpt lat="49.87592" lon="2.48131">
        <ele>63</ele>
        <time>2023-09-27T12:56:45Z</time>
      </trkpt>
      <trkpt lat="49.87593" lon="2.48131">
        <ele>62.9</ele>
        <time>2023-09-27T12:56:46Z</time>
      </trkpt>
      <trkpt lat="49.87594" lon="2.48131">
        <ele>62.9</ele>
        <time>2023-09-27T12:56:47Z</time>
      </trkpt>
      <trkpt lat="49.87595" lon="2.4813">
        <ele>62.8</ele>
        <time>2023-09-27T12:56:48Z</time>
      </trkpt>
      <trkpt lat="49.87596" lon="2.4813">
        <ele>62.8</ele>
        <time>2023-09-27T12:56:49Z</time>
      </trkpt>
      <trkpt lat="49.87597" lon="2.48129">
        <ele>62.7</ele>
        <time>2023-09-27T12:56:50Z</time>
      </trkpt>
      <trkpt lat="49.87598" lon="2.48128">
        <ele>62.7</ele>
        <time>2023-09-27T12:56:51Z</time>
      </trkpt>
      <trkpt lat="49.87599" lon="2.48128">
        <ele>62.6</ele>
        <time>2023-09-27T12:56:52Z</time>
      </trkpt>
      <trkpt lat="49.876" lon="2.48127">
        <ele>62.5</ele>
        <time>2023-09-27T12:56:53Z</time>
      </trkpt>
      <trkpt lat="49.87601" lon="2.48127">
        <ele>62.5</ele>
        <time>2023-09-27T12:56:54Z</time>
      </trkpt>
      <trkpt lat="49.87602" lon="2.48126">
        <ele>62.4</ele>
        <time>2023-09-27T12:56:55Z</time>
      </trkpt>
      <trkpt lat="49.87603" lon="2.48125">
        <ele>62.3</ele>
        <time>2023-09-27T12:56:56Z</time>
      </trkpt>
      <trkpt lat="49.87604" lon="2.48125">
        <ele>62.3</ele>
        <time>2023-09-27T12:56:57Z</time>
      </trkpt>
      <trkpt lat="49.87605" lon="2.48124">
        <ele>62.2</ele>
        <time>2023-09-27T12:56:58Z</time>
      </trkpt>
      <trkpt lat="49.87607" lon="2.48123">
        <ele>62.1</ele>
        <time>2023-09-27T12:56:59Z</time>
      </trkpt>
      <trkpt lat="49.87608" lon="2.48123">
        <ele>62</ele>
        <time>2023-09-27T12:57:00Z</time>
      </trkpt>
      <trkpt lat="49.87609" lon="2.48122">
        <ele>62</ele>
        <time>2023-09-27T12:57:01Z</time>
      </trkpt>
      <trkpt lat="49.87611" lon="2.48121">
        <ele>61.9</ele>
        <time>2023-09-27T12:57:02Z</time>
      </trkpt>
      <trkpt lat="49.87612" lon="2.48121">
        <ele>61.8</ele>
        <time>2023-09-27T12:57:03Z</time>
      </trkpt>
      <trkpt lat="49.87612" lon="2.48121">
        <ele>61.8</ele>
        <time>2023-09-27T12:57:04Z</time>
      </trkpt>
      <trkpt lat="49.87614" lon="2.4812">
        <ele>61.7</ele>
        <time>2023-09-27T12:57:05Z</time>
      </trkpt>
      <trkpt lat="49.87615" lon="2.4812">
        <ele>61.7</ele>
        <time>2023-09-27T12:57:06Z</time>
      </trkpt>
      <trkpt lat="49.87616" lon="2.48119">
        <ele>61.6</ele>
        <time>2023-09-27T12:57:07Z</time>
      </trkpt>
      <trkpt lat="49.87617" lon="2.48118">
        <ele>61.5</ele>
        <time>2023-09-27T12:57:08Z</time>
      </trkpt>
      <trkpt lat="49.87618" lon="2.48118">
        <ele>61.4</ele>
        <time>2023-09-27T12:57:09Z</time>
      </trkpt>
      <trkpt lat="49.87619" lon="2.48117">
        <ele>61.4</ele>
        <time>2023-09-27T12:57:10Z</time>
      </trkpt>
      <trkpt lat="49.87621" lon="2.48116">
        <ele>61.3</ele>
        <time>2023-09-27T12:57:11Z</time>
      </trkpt>
      <trkpt lat="49.87622" lon="2.48116">
        <ele>61.2</ele>
        <time>2023-09-27T12:57:12Z</time>
      </trkpt>
      <trkpt lat="49.87623" lon="2.48115">
        <ele>61.2</ele>
        <time>2023-09-27T12:57:13Z</time>
      </trkpt>
      <trkpt lat="49.87625" lon="2.48114">
        <ele>61.1</ele>
        <time>2023-09-27T12:57:14Z</time>
      </trkpt>
      <trkpt lat="49.87626" lon="2.48114">
        <ele>61.1</ele>
        <time>2023-09-27T12:57:15Z</time>
      </trkpt>
      <trkpt lat="49.87626" lon="2.48113">
        <ele>61</ele>
        <time>2023-09-27T12:57:16Z</time>
      </trkpt>
      <trkpt lat="49.87627" lon="2.48113">
        <ele>61</ele>
        <time>2023-09-27T12:57:17Z</time>
      </trkpt>
      <trkpt lat="49.87628" lon="2.48113">
        <ele>60.9</ele>
        <time>2023-09-27T12:57:18Z</time>
      </trkpt>
      <trkpt lat="49.87629" lon="2.48112">
        <ele>60.9</ele>
        <time>2023-09-27T12:57:19Z</time>
      </trkpt>
      <trkpt lat="49.8763" lon="2.48112">
        <ele>60.9</ele>
        <time>2023-09-27T12:57:20Z</time>
      </trkpt>
      <trkpt lat="49.87631" lon="2.48111">
        <ele>60.8</ele>
        <time>2023-09-27T12:57:21Z</time>
      </trkpt>
      <trkpt lat="49.87632" lon="2.48111">
        <ele>60.8</ele>
        <time>2023-09-27T12:57:22Z</time>
      </trkpt>
      <trkpt lat="49.87634" lon="2.4811">
        <ele>60.7</ele>
        <time>2023-09-27T12:57:23Z</time>
      </trkpt>
      <trkpt lat="49.87635" lon="2.48109">
        <ele>60.7</ele>
        <time>2023-09-27T12:57:24Z</time>
      </trkpt>
      <trkpt lat="49.87636" lon="2.48109">
        <ele>60.7</ele>
        <time>2023-09-27T12:57:25Z</time>
      </trkpt>
      <trkpt lat="49.87637" lon="2.48108">
        <ele>60.6</ele>
        <time>2023-09-27T12:57:26Z</time>
      </trkpt>
      <trkpt lat="49.87638" lon="2.48108">
        <ele>60.6</ele>
        <time>2023-09-27T12:57:27Z</time>
      </trkpt>
      <trkpt lat="49.87639" lon="2.48107">
        <ele>60.6</ele>
        <time>2023-09-27T12:57:28Z</time>
      </trkpt>
      <trkpt lat="49.87641" lon="2.48106">
        <ele>60.5</ele>
        <time>2023-09-27T12:57:29Z</time>
      </trkpt>
      <trkpt lat="49.87641" lon="2.48106">
        <ele>60.5</ele>
        <time>2023-09-27T12:57:30Z</time>
      </trkpt>
      <trkpt lat="49.87642" lon="2.48106">
        <ele>60.5</ele>
        <time>2023-09-27T12:57:31Z</time>
      </trkpt>
      <trkpt lat="49.87643" lon="2.48105">
        <ele>60.5</ele>
        <time>2023-09-27T12:57:32Z</time>
      </trkpt>
      <trkpt lat="49.87643" lon="2.48105">
        <ele>60.4</ele>
        <time>2023-09-27T12:57:33Z</time>
      </trkpt>
      <trkpt lat="49.87644" lon="2.48104">
        <ele>60.4</ele>
        <time>2023-09-27T12:57:34Z</time>
      </trkpt>
      <trkpt lat="49.87645" lon="2.48104">
        <ele>60.4</ele>
        <time>2023-09-27T12:57:35Z</time>
      </trkpt>
      <trkpt lat="49.87646" lon="2.48104">
        <ele>60.3</ele>
        <time>2023-09-27T12:57:36Z</time>
      </trkpt>
      <trkpt lat="49.87647" lon="2.48103">
        <ele>60.3</ele>
        <time>2023-09-27T12:57:37Z</time>
      </trkpt>
      <trkpt lat="49.87648" lon="2.48103">
        <ele>60.3</ele>
        <time>2023-09-27T12:57:38Z</time>
      </trkpt>
      <trkpt lat="49.87649" lon="2.48102">
        <ele>60.3</ele>
        <time>2023-09-27T12:57:39Z</time>
      </trkpt>
      <trkpt lat="49.8765" lon="2.48102">
        <ele>60.2</ele>
        <time>2023-09-27T12:57:40Z</time>
      </trkpt>
      <trkpt lat="49.87651" lon="2.48101">
        <ele>60.2</ele>
        <time>2023-09-27T12:57:41Z</time>
      </trkpt>
      <trkpt lat="49.87652" lon="2.48101">
        <ele>60.2</ele>
        <time>2023-09-27T12:57:42Z</time>
      </trkpt>
      <trkpt lat="49.87653" lon="2.481">
        <ele>60.2</ele>
        <time>2023-09-27T12:57:43Z</time>
      </trkpt>
      <trkpt lat="49.87654" lon="2.48099">
        <ele>60.1</ele>
        <time>2023-09-27T12:57:44Z</time>
      </trkpt>
      <trkpt lat="49.87655" lon="2.48099">
        <ele>60.1</ele>
        <time>2023-09-27T12:57:45Z</time>
      </trkpt>
      <trkpt lat="49.87656" lon="2.48098">
        <ele>60.1</ele>
        <time>2023-09-27T12:57:46Z</time>
      </trkpt>
      <trkpt lat="49.87656" lon="2.48098">
        <ele>60.1</ele>
        <time>2023-09-27T12:57:47Z</time>
      </trkpt>
      <trkpt lat="49.87657" lon="2.48097">
        <ele>60</ele>
        <time>2023-09-27T12:57:48Z</time>
      </trkpt>
      <trkpt lat="49.87658" lon="2.48097">
        <ele>60</ele>
        <time>2023-09-27T12:57:49Z</time>
      </trkpt>
      <trkpt lat="49.87659" lon="2.48096">
        <ele>60</ele>
        <time>2023-09-27T12:57:50Z</time>
      </trkpt>
      <trkpt lat="49.8766" lon="2.48096">
        <ele>59.9</ele>
        <time>2023-09-27T12:57:51Z</time>
      </trkpt>
      <trkpt lat="49.87661" lon="2.48095">
        <ele>59.9</ele>
        <time>2023-09-27T12:57:52Z</time>
      </trkpt>
      <trkpt lat="49.87662" lon="2.48094">
        <ele>59.9</ele>
        <time>2023-09-27T12:57:53Z</time>
      </trkpt>
      <trkpt lat="49.87663" lon="2.48094">
        <ele>59.9</ele>
        <time>2023-09-27T12:57:54Z</time>
      </trkpt>
      <trkpt lat="49.87664" lon="2.48094">
        <ele>59.8</ele>
        <time>2023-09-27T12:57:55Z</time>
      </trkpt>
      <trkpt lat="49.87664" lon="2.48093">
        <ele>59.8</ele>
        <time>2023-09-27T12:57:56Z</time>
      </trkpt>
      <trkpt lat="49.87665" lon="2.48093">
        <ele>59.8</ele>
        <time>2023-09-27T12:57:57Z</time>
      </trkpt>
      <trkpt lat="49.87666" lon="2.48092">
        <ele>59.8</ele>
        <time>2023-09-27T12:57:58Z</time>
      </trkpt>
      <trkpt lat="49.87668" lon="2.48092">
        <ele>59.7</ele>
        <time>2023-09-27T12:57:59Z</time>
      </trkpt>
      <trkpt lat="49.87669" lon="2.48091">
        <ele>59.7</ele>
        <time>2023-09-27T12:58:00Z</time>
      </trkpt>
      <trkpt lat="49.8767" lon="2.48091">
        <ele>59.7</ele>
        <time>2023-09-27T12:58:01Z</time>
      </trkpt>
      <trkpt lat="49.87671" lon="2.4809">
        <ele>59.6</ele>
        <time>2023-09-27T12:58:02Z</time>
      </trkpt>
      <trkpt lat="49.87672" lon="2.4809">
        <ele>59.6</ele>
        <time>2023-09-27T12:58:03Z</time>
      </trkpt>
      <trkpt lat="49.87673" lon="2.48089">
        <ele>59.6</ele>
        <time>2023-09-27T12:58:04Z</time>
      </trkpt>
      <trkpt lat="49.87674" lon="2.48089">
        <ele>59.6</ele>
        <time>2023-09-27T12:58:05Z</time>
      </trkpt>
      <trkpt lat="49.87676" lon="2.48088">
        <ele>59.5</ele>
        <time>2023-09-27T12:58:06Z</time>
      </trkpt>
      <trkpt lat="49.87677" lon="2.48087">
        <ele>59.5</ele>
        <time>2023-09-27T12:58:07Z</time>
      </trkpt>
      <trkpt lat="49.87678" lon="2.48087">
        <ele>59.5</ele>
        <time>2023-09-27T12:58:08Z</time>
      </trkpt>
      <trkpt lat="49.8768" lon="2.48086">
        <ele>59.4</ele>
        <time>2023-09-27T12:58:09Z</time>
      </trkpt>
      <trkpt lat="49.87681" lon="2.48085">
        <ele>59.4</ele>
        <time>2023-09-27T12:58:10Z</time>
      </trkpt>
      <trkpt lat="49.87682" lon="2.48085">
        <ele>59.4</ele>
        <time>2023-09-27T12:58:11Z</time>
      </trkpt>
      <trkpt lat="49.87683" lon="2.48084">
        <ele>59.3</ele>
        <time>2023-09-27T12:58:12Z</time>
      </trkpt>
      <trkpt lat="49.87684" lon="2.48083">
        <ele>59.3</ele>
        <time>2023-09-27T12:58:13Z</time>
      </trkpt>
      <trkpt lat="49.87685" lon="2.48083">
        <ele>59.3</ele>
        <time>2023-09-27T12:58:14Z</time>
      </trkpt>
      <trkpt lat="49.87687" lon="2.48081">
        <ele>59.2</ele>
        <time>2023-09-27T12:58:15Z</time>
      </trkpt>
      <trkpt lat="49.87687" lon="2.48081">
        <ele>59.2</ele>
        <time>2023-09-27T12:58:16Z</time>
      </trkpt>
      <trkpt lat="49.87688" lon="2.48081">
        <ele>59.2</ele>
        <time>2023-09-27T12:58:17Z</time>
      </trkpt>
      <trkpt lat="49.87689" lon="2.4808">
        <ele>59.2</ele>
        <time>2023-09-27T12:58:18Z</time>
      </trkpt>
      <trkpt lat="49.8769" lon="2.48079">
        <ele>59.1</ele>
        <time>2023-09-27T12:58:19Z</time>
      </trkpt>
      <trkpt lat="49.87691" lon="2.48079">
        <ele>59.1</ele>
        <time>2023-09-27T12:58:20Z</time>
      </trkpt>
      <trkpt lat="49.87692" lon="2.48078">
        <ele>59.1</ele>
        <time>2023-09-27T12:58:21Z</time>
      </trkpt>
      <trkpt lat="49.87693" lon="2.48078">
        <ele>59.1</ele>
        <time>2023-09-27T12:58:22Z</time>
      </trkpt>
      <trkpt lat="49.87695" lon="2.48077">
        <ele>59</ele>
        <time>2023-09-27T12:58:23Z</time>
      </trkpt>
      <trkpt lat="49.87697" lon="2.48076">
        <ele>59</ele>
        <time>2023-09-27T12:58:24Z</time>
      </trkpt>
      <trkpt lat="49.87697" lon="2.48075">
        <ele>58.9</ele>
        <time>2023-09-27T12:58:25Z</time>
      </trkpt>
      <trkpt lat="49.87698" lon="2.48075">
        <ele>58.9</ele>
        <time>2023-09-27T12:58:26Z</time>
      </trkpt>
      <trkpt lat="49.877" lon="2.48074">
        <ele>58.8</ele>
        <time>2023-09-27T12:58:27Z</time>
      </trkpt>
      <trkpt lat="49.87701" lon="2.48074">
        <ele>58.8</ele>
        <time>2023-09-27T12:58:28Z</time>
      </trkpt>
      <trkpt lat="49.87702" lon="2.48073">
        <ele>58.8</ele>
        <time>2023-09-27T12:58:29Z</time>
      </trkpt>
      <trkpt lat="49.87703" lon="2.48073">
        <ele>58.8</ele>
        <time>2023-09-27T12:58:30Z</time>
      </trkpt>
      <trkpt lat="49.87704" lon="2.48072">
        <ele>58.7</ele>
        <time>2023-09-27T12:58:31Z</time>
      </trkpt>
      <trkpt lat="49.87705" lon="2.48072">
        <ele>58.7</ele>
        <time>2023-09-27T12:58:32Z</time>
      </trkpt>
      <trkpt lat="49.87706" lon="2.48071">
        <ele>58.6</ele>
        <time>2023-09-27T12:58:33Z</time>
      </trkpt>
      <trkpt lat="49.87707" lon="2.4807">
        <ele>58.6</ele>
        <time>2023-09-27T12:58:34Z</time>
      </trkpt>
      <trkpt lat="49.87708" lon="2.4807">
        <ele>58.6</ele>
        <time>2023-09-27T12:58:35Z</time>
      </trkpt>
      <trkpt lat="49.87709" lon="2.48069">
        <ele>58.5</ele>
        <time>2023-09-27T12:58:36Z</time>
      </trkpt>
      <trkpt lat="49.8771" lon="2.48068">
        <ele>58.5</ele>
        <time>2023-09-27T12:58:37Z</time>
      </trkpt>
      <trkpt lat="49.87711" lon="2.48068">
        <ele>58.4</ele>
        <time>2023-09-27T12:58:38Z</time>
      </trkpt>
      <trkpt lat="49.87712" lon="2.48067">
        <ele>58.4</ele>
        <time>2023-09-27T12:58:39Z</time>
      </trkpt>
      <trkpt lat="49.87713" lon="2.48067">
        <ele>58.4</ele>
        <time>2023-09-27T12:58:40Z</time>
      </trkpt>
      <trkpt lat="49.87714" lon="2.48066">
        <ele>58.3</ele>
        <time>2023-09-27T12:58:41Z</time>
      </trkpt>
      <trkpt lat="49.87715" lon="2.48066">
        <ele>58.3</ele>
        <time>2023-09-27T12:58:42Z</time>
      </trkpt>
      <trkpt lat="49.87716" lon="2.48065">
        <ele>58.2</ele>
        <time>2023-09-27T12:58:43Z</time>
      </trkpt>
      <trkpt lat="49.87717" lon="2.48065">
        <ele>58.2</ele>
        <time>2023-09-27T12:58:44Z</time>
      </trkpt>
      <trkpt lat="49.87719" lon="2.48064">
        <ele>58.1</ele>
        <time>2023-09-27T12:58:45Z</time>
      </trkpt>
      <trkpt lat="49.8772" lon="2.48064">
        <ele>58.1</ele>
        <time>2023-09-27T12:58:46Z</time>
      </trkpt>
      <trkpt lat="49.87721" lon="2.48064">
        <ele>58.1</ele>
        <time>2023-09-27T12:58:47Z</time>
      </trkpt>
      <trkpt lat="49.87723" lon="2.48063">
        <ele>58</ele>
        <time>2023-09-27T12:58:48Z</time>
      </trkpt>
      <trkpt lat="49.87724" lon="2.48062">
        <ele>57.9</ele>
        <time>2023-09-27T12:58:49Z</time>
      </trkpt>
      <trkpt lat="49.87725" lon="2.48062">
        <ele>57.9</ele>
        <time>2023-09-27T12:58:50Z</time>
      </trkpt>
      <trkpt lat="49.87726" lon="2.48061">
        <ele>57.9</ele>
        <time>2023-09-27T12:58:51Z</time>
      </trkpt>
      <trkpt lat="49.87727" lon="2.48061">
        <ele>57.8</ele>
        <time>2023-09-27T12:58:52Z</time>
      </trkpt>
      <trkpt lat="49.87728" lon="2.4806">
        <ele>57.8</ele>
        <time>2023-09-27T12:58:53Z</time>
      </trkpt>
      <trkpt lat="49.87729" lon="2.4806">
        <ele>57.7</ele>
        <time>2023-09-27T12:58:54Z</time>
      </trkpt>
      <trkpt lat="49.8773" lon="2.4806">
        <ele>57.7</ele>
        <time>2023-09-27T12:58:55Z</time>
      </trkpt>
      <trkpt lat="49.87731" lon="2.48059">
        <ele>57.6</ele>
        <time>2023-09-27T12:58:56Z</time>
      </trkpt>
      <trkpt lat="49.87732" lon="2.48059">
        <ele>57.6</ele>
        <time>2023-09-27T12:58:57Z</time>
      </trkpt>
      <trkpt lat="49.87733" lon="2.48058">
        <ele>57.6</ele>
        <time>2023-09-27T12:58:58Z</time>
      </trkpt>
      <trkpt lat="49.87734" lon="2.48058">
        <ele>57.5</ele>
        <time>2023-09-27T12:58:59Z</time>
      </trkpt>
      <trkpt lat="49.87735" lon="2.48058">
        <ele>57.4</ele>
        <time>2023-09-27T12:59:00Z</time>
      </trkpt>
      <trkpt lat="49.87736" lon="2.48057">
        <ele>57.4</ele>
        <time>2023-09-27T12:59:01Z</time>
      </trkpt>
      <trkpt lat="49.87737" lon="2.48057">
        <ele>57.3</ele>
        <time>2023-09-27T12:59:02Z</time>
      </trkpt>
      <trkpt lat="49.87739" lon="2.48056">
        <ele>57.2</ele>
        <time>2023-09-27T12:59:03Z</time>
      </trkpt>
      <trkpt lat="49.8774" lon="2.48056">
        <ele>57.2</ele>
        <time>2023-09-27T12:59:04Z</time>
      </trkpt>
      <trkpt lat="49.87741" lon="2.48055">
        <ele>57.1</ele>
        <time>2023-09-27T12:59:05Z</time>
      </trkpt>
      <trkpt lat="49.87742" lon="2.48055">
        <ele>57.1</ele>
        <time>2023-09-27T12:59:06Z</time>
      </trkpt>
      <trkpt lat="49.87743" lon="2.48055">
        <ele>57</ele>
        <time>2023-09-27T12:59:07Z</time>
      </trkpt>
      <trkpt lat="49.87744" lon="2.48054">
        <ele>57</ele>
        <time>2023-09-27T12:59:08Z</time>
      </trkpt>
      <trkpt lat="49.87746" lon="2.48053">
        <ele>56.9</ele>
        <time>2023-09-27T12:59:09Z</time>
      </trkpt>
      <trkpt lat="49.87747" lon="2.48053">
        <ele>56.8</ele>
        <time>2023-09-27T12:59:10Z</time>
      </trkpt>
      <trkpt lat="49.87748" lon="2.48052">
        <ele>56.8</ele>
        <time>2023-09-27T12:59:11Z</time>
      </trkpt>
      <trkpt lat="49.87749" lon="2.48052">
        <ele>56.7</ele>
        <time>2023-09-27T12:59:12Z</time>
      </trkpt>
      <trkpt lat="49.8775" lon="2.48051">
        <ele>56.6</ele>
        <time>2023-09-27T12:59:13Z</time>
      </trkpt>
      <trkpt lat="49.87752" lon="2.4805">
        <ele>56.5</ele>
        <time>2023-09-27T12:59:14Z</time>
      </trkpt>
      <trkpt lat="49.87753" lon="2.48049">
        <ele>56.5</ele>
        <time>2023-09-27T12:59:15Z</time>
      </trkpt>
      <trkpt lat="49.87754" lon="2.48049">
        <ele>56.4</ele>
        <time>2023-09-27T12:59:16Z</time>
      </trkpt>
      <trkpt lat="49.87755" lon="2.48048">
        <ele>56.4</ele>
        <time>2023-09-27T12:59:17Z</time>
      </trkpt>
      <trkpt lat="49.87756" lon="2.48048">
        <ele>56.3</ele>
        <time>2023-09-27T12:59:18Z</time>
      </trkpt>
      <trkpt lat="49.87757" lon="2.48047">
        <ele>56.2</ele>
        <time>2023-09-27T12:59:19Z</time>
      </trkpt>
      <trkpt lat="49.87758" lon="2.48046">
        <ele>56.2</ele>
        <time>2023-09-27T12:59:20Z</time>
      </trkpt>
      <trkpt lat="49.87759" lon="2.48046">
        <ele>56.1</ele>
        <time>2023-09-27T12:59:21Z</time>
      </trkpt>
      <trkpt lat="49.8776" lon="2.48045">
        <ele>56.1</ele>
        <time>2023-09-27T12:59:22Z</time>
      </trkpt>
      <trkpt lat="49.87762" lon="2.48044">
        <ele>56</ele>
        <time>2023-09-27T12:59:23Z</time>
      </trkpt>
      <trkpt lat="49.87763" lon="2.48044">
        <ele>55.9</ele>
        <time>2023-09-27T12:59:24Z</time>
      </trkpt>
      <trkpt lat="49.87764" lon="2.48043">
        <ele>55.9</ele>
        <time>2023-09-27T12:59:25Z</time>
      </trkpt>
      <trkpt lat="49.87765" lon="2.48043">
        <ele>55.8</ele>
        <time>2023-09-27T12:59:26Z</time>
      </trkpt>
      <trkpt lat="49.87766" lon="2.48042">
        <ele>55.7</ele>
        <time>2023-09-27T12:59:27Z</time>
      </trkpt>
      <trkpt lat="49.87767" lon="2.48042">
        <ele>55.7</ele>
        <time>2023-09-27T12:59:28Z</time>
      </trkpt>
      <trkpt lat="49.87768" lon="2.48041">
        <ele>55.6</ele>
        <time>2023-09-27T12:59:29Z</time>
      </trkpt>
      <trkpt lat="49.87769" lon="2.48041">
        <ele>55.6</ele>
        <time>2023-09-27T12:59:30Z</time>
      </trkpt>
      <trkpt lat="49.8777" lon="2.4804">
        <ele>55.5</ele>
        <time>2023-09-27T12:59:31Z</time>
      </trkpt>
      <trkpt lat="49.87771" lon="2.4804">
        <ele>55.5</ele>
        <time>2023-09-27T12:59:32Z</time>
      </trkpt>
      <trkpt lat="49.87772" lon="2.4804">
        <ele>55.4</ele>
        <time>2023-09-27T12:59:33Z</time>
      </trkpt>
      <trkpt lat="49.87773" lon="2.48039">
        <ele>55.4</ele>
        <time>2023-09-27T12:59:34Z</time>
      </trkpt>
      <trkpt lat="49.87774" lon="2.48039">
        <ele>55.3</ele>
        <time>2023-09-27T12:59:35Z</time>
      </trkpt>
      <trkpt lat="49.87775" lon="2.48038">
        <ele>55.3</ele>
        <time>2023-09-27T12:59:36Z</time>
      </trkpt>
      <trkpt lat="49.87776" lon="2.48038">
        <ele>55.2</ele>
        <time>2023-09-27T12:59:37Z</time>
      </trkpt>
      <trkpt lat="49.87777" lon="2.48037">
        <ele>55.1</ele>
        <time>2023-09-27T12:59:38Z</time>
      </trkpt>
      <trkpt lat="49.87778" lon="2.48037">
        <ele>55.1</ele>
        <time>2023-09-27T12:59:39Z</time>
      </trkpt>
      <trkpt lat="49.87779" lon="2.48036">
        <ele>55</ele>
        <time>2023-09-27T12:59:40Z</time>
      </trkpt>
      <trkpt lat="49.8778" lon="2.48036">
        <ele>55</ele>
        <time>2023-09-27T12:59:41Z</time>
      </trkpt>
      <trkpt lat="49.87781" lon="2.48035">
        <ele>54.9</ele>
        <time>2023-09-27T12:59:42Z</time>
      </trkpt>
      <trkpt lat="49.87782" lon="2.48035">
        <ele>54.9</ele>
        <time>2023-09-27T12:59:43Z</time>
      </trkpt>
      <trkpt lat="49.87783" lon="2.48034">
        <ele>54.8</ele>
        <time>2023-09-27T12:59:44Z</time>
      </trkpt>
      <trkpt lat="49.87784" lon="2.48034">
        <ele>54.8</ele>
        <time>2023-09-27T12:59:45Z</time>
      </trkpt>
      <trkpt lat="49.87785" lon="2.48033">
        <ele>54.7</ele>
        <time>2023-09-27T12:59:46Z</time>
      </trkpt>
      <trkpt lat="49.87787" lon="2.48032">
        <ele>54.6</ele>
        <time>2023-09-27T12:59:47Z</time>
      </trkpt>
      <trkpt lat="49.87788" lon="2.48032">
        <ele>54.5</ele>
        <time>2023-09-27T12:59:48Z</time>
      </trkpt>
      <trkpt lat="49.87789" lon="2.48031">
        <ele>54.5</ele>
        <time>2023-09-27T12:59:49Z</time>
      </trkpt>
      <trkpt lat="49.87791" lon="2.4803">
        <ele>54.4</ele>
        <time>2023-09-27T12:59:50Z</time>
      </trkpt>
      <trkpt lat="49.87792" lon="2.4803">
        <ele>54.4</ele>
        <time>2023-09-27T12:59:51Z</time>
      </trkpt>
      <trkpt lat="49.87793" lon="2.48029">
        <ele>54.3</ele>
        <time>2023-09-27T12:59:52Z</time>
      </trkpt>
      <trkpt lat="49.87794" lon="2.48028">
        <ele>54.3</ele>
        <time>2023-09-27T12:59:53Z</time>
      </trkpt>
      <trkpt lat="49.87795" lon="2.48028">
        <ele>54.2</ele>
        <time>2023-09-27T12:59:54Z</time>
      </trkpt>
      <trkpt lat="49.87796" lon="2.48027">
        <ele>54.2</ele>
        <time>2023-09-27T12:59:55Z</time>
      </trkpt>
      <trkpt lat="49.87797" lon="2.48026">
        <ele>54.1</ele>
        <time>2023-09-27T12:59:56Z</time>
      </trkpt>
      <trkpt lat="49.87798" lon="2.48026">
        <ele>54.1</ele>
        <time>2023-09-27T12:59:57Z</time>
      </trkpt>
      <trkpt lat="49.87799" lon="2.48025">
        <ele>54</ele>
        <time>2023-09-27T12:59:58Z</time>
      </trkpt>
      <trkpt lat="49.878" lon="2.48025">
        <ele>54</ele>
        <time>2023-09-27T12:59:59Z</time>
      </trkpt>
      <trkpt lat="49.87801" lon="2.48024">
        <ele>53.9</ele>
        <time>2023-09-27T13:00:00Z</time>
      </trkpt>
      <trkpt lat="49.87802" lon="2.48023">
        <ele>53.8</ele>
        <time>2023-09-27T13:00:01Z</time>
      </trkpt>
      <trkpt lat="49.87804" lon="2.48022">
        <ele>53.7</ele>
        <time>2023-09-27T13:00:02Z</time>
      </trkpt>
      <trkpt lat="49.87805" lon="2.48022">
        <ele>53.7</ele>
        <time>2023-09-27T13:00:03Z</time>
      </trkpt>
      <trkpt lat="49.87806" lon="2.48022">
        <ele>53.7</ele>
        <time>2023-09-27T13:00:04Z</time>
      </trkpt>
      <trkpt lat="49.87807" lon="2.48021">
        <ele>53.6</ele>
        <time>2023-09-27T13:00:05Z</time>
      </trkpt>
      <trkpt lat="49.87808" lon="2.48021">
        <ele>53.6</ele>
        <time>2023-09-27T13:00:06Z</time>
      </trkpt>
      <trkpt lat="49.87809" lon="2.4802">
        <ele>53.5</ele>
        <time>2023-09-27T13:00:07Z</time>
      </trkpt>
      <trkpt lat="49.8781" lon="2.4802">
        <ele>53.5</ele>
        <time>2023-09-27T13:00:08Z</time>
      </trkpt>
      <trkpt lat="49.87811" lon="2.48019">
        <ele>53.4</ele>
        <time>2023-09-27T13:00:09Z</time>
      </trkpt>
      <trkpt lat="49.87812" lon="2.48019">
        <ele>53.4</ele>
        <time>2023-09-27T13:00:10Z</time>
      </trkpt>
      <trkpt lat="49.87814" lon="2.48018">
        <ele>53.3</ele>
        <time>2023-09-27T13:00:11Z</time>
      </trkpt>
      <trkpt lat="49.87815" lon="2.48017">
        <ele>53.3</ele>
        <time>2023-09-27T13:00:12Z</time>
      </trkpt>
      <trkpt lat="49.87816" lon="2.48017">
        <ele>53.2</ele>
        <time>2023-09-27T13:00:13Z</time>
      </trkpt>
      <trkpt lat="49.87818" lon="2.48016">
        <ele>53.1</ele>
        <time>2023-09-27T13:00:14Z</time>
      </trkpt>
      <trkpt lat="49.87818" lon="2.48015">
        <ele>53.1</ele>
        <time>2023-09-27T13:00:15Z</time>
      </trkpt>
      <trkpt lat="49.87819" lon="2.48015">
        <ele>53.1</ele>
        <time>2023-09-27T13:00:16Z</time>
      </trkpt>
      <trkpt lat="49.8782" lon="2.48015">
        <ele>53</ele>
        <time>2023-09-27T13:00:17Z</time>
      </trkpt>
      <trkpt lat="49.87821" lon="2.48014">
        <ele>53</ele>
        <time>2023-09-27T13:00:18Z</time>
      </trkpt>
      <trkpt lat="49.87823" lon="2.48013">
        <ele>52.9</ele>
        <time>2023-09-27T13:00:19Z</time>
      </trkpt>
      <trkpt lat="49.87823" lon="2.48013">
        <ele>52.9</ele>
        <time>2023-09-27T13:00:20Z</time>
      </trkpt>
      <trkpt lat="49.87824" lon="2.48012">
        <ele>52.8</ele>
        <time>2023-09-27T13:00:21Z</time>
      </trkpt>
      <trkpt lat="49.87825" lon="2.48012">
        <ele>52.8</ele>
        <time>2023-09-27T13:00:22Z</time>
      </trkpt>
      <trkpt lat="49.87826" lon="2.48011">
        <ele>52.7</ele>
        <time>2023-09-27T13:00:23Z</time>
      </trkpt>
      <trkpt lat="49.87828" lon="2.48011">
        <ele>52.7</ele>
        <time>2023-09-27T13:00:24Z</time>
      </trkpt>
      <trkpt lat="49.87829" lon="2.48011">
        <ele>52.6</ele>
        <time>2023-09-27T13:00:25Z</time>
      </trkpt>
      <trkpt lat="49.8783" lon="2.4801">
        <ele>52.6</ele>
        <time>2023-09-27T13:00:26Z</time>
      </trkpt>
      <trkpt lat="49.87831" lon="2.48009">
        <ele>52.6</ele>
        <time>2023-09-27T13:00:27Z</time>
      </trkpt>
      <trkpt lat="49.87832" lon="2.48009">
        <ele>52.5</ele>
        <time>2023-09-27T13:00:28Z</time>
      </trkpt>
      <trkpt lat="49.87833" lon="2.48008">
        <ele>52.5</ele>
        <time>2023-09-27T13:00:29Z</time>
      </trkpt>
      <trkpt lat="49.87834" lon="2.48008">
        <ele>52.4</ele>
        <time>2023-09-27T13:00:30Z</time>
      </trkpt>
      <trkpt lat="49.87834" lon="2.48007">
        <ele>52.4</ele>
        <time>2023-09-27T13:00:31Z</time>
      </trkpt>
      <trkpt lat="49.87835" lon="2.48007">
        <ele>52.3</ele>
        <time>2023-09-27T13:00:32Z</time>
      </trkpt>
      <trkpt lat="49.87836" lon="2.48006">
        <ele>52.3</ele>
        <time>2023-09-27T13:00:33Z</time>
      </trkpt>
      <trkpt lat="49.87837" lon="2.48005">
        <ele>52.2</ele>
        <time>2023-09-27T13:00:34Z</time>
      </trkpt>
      <trkpt lat="49.87838" lon="2.48005">
        <ele>52.2</ele>
        <time>2023-09-27T13:00:35Z</time>
      </trkpt>
      <trkpt lat="49.87839" lon="2.48004">
        <ele>52.1</ele>
        <time>2023-09-27T13:00:36Z</time>
      </trkpt>
      <trkpt lat="49.87841" lon="2.48004">
        <ele>52.1</ele>
        <time>2023-09-27T13:00:37Z</time>
      </trkpt>
      <trkpt lat="49.87842" lon="2.48002">
        <ele>52</ele>
        <time>2023-09-27T13:00:38Z</time>
      </trkpt>
      <trkpt lat="49.87843" lon="2.48002">
        <ele>52</ele>
        <time>2023-09-27T13:00:39Z</time>
      </trkpt>
      <trkpt lat="49.87844" lon="2.48002">
        <ele>51.9</ele>
        <time>2023-09-27T13:00:40Z</time>
      </trkpt>
      <trkpt lat="49.87845" lon="2.48001">
        <ele>51.9</ele>
        <time>2023-09-27T13:00:41Z</time>
      </trkpt>
      <trkpt lat="49.87846" lon="2.48">
        <ele>51.8</ele>
        <time>2023-09-27T13:00:42Z</time>
      </trkpt>
      <trkpt lat="49.87847" lon="2.48">
        <ele>51.8</ele>
        <time>2023-09-27T13:00:43Z</time>
      </trkpt>
      <trkpt lat="49.87848" lon="2.47999">
        <ele>51.7</ele>
        <time>2023-09-27T13:00:44Z</time>
      </trkpt>
      <trkpt lat="49.87849" lon="2.47999">
        <ele>51.7</ele>
        <time>2023-09-27T13:00:45Z</time>
      </trkpt>
      <trkpt lat="49.8785" lon="2.47998">
        <ele>51.7</ele>
        <time>2023-09-27T13:00:46Z</time>
      </trkpt>
      <trkpt lat="49.87851" lon="2.47998">
        <ele>51.6</ele>
        <time>2023-09-27T13:00:47Z</time>
      </trkpt>
      <trkpt lat="49.87852" lon="2.47997">
        <ele>51.6</ele>
        <time>2023-09-27T13:00:48Z</time>
      </trkpt>
      <trkpt lat="49.87853" lon="2.47997">
        <ele>51.5</ele>
        <time>2023-09-27T13:00:49Z</time>
      </trkpt>
      <trkpt lat="49.87854" lon="2.47996">
        <ele>51.5</ele>
        <time>2023-09-27T13:00:50Z</time>
      </trkpt>
      <trkpt lat="49.87855" lon="2.47996">
        <ele>51.4</ele>
        <time>2023-09-27T13:00:51Z</time>
      </trkpt>
      <trkpt lat="49.87856" lon="2.47995">
        <ele>51.4</ele>
        <time>2023-09-27T13:00:52Z</time>
      </trkpt>
      <trkpt lat="49.87858" lon="2.47995">
        <ele>51.3</ele>
        <time>2023-09-27T13:00:53Z</time>
      </trkpt>
      <trkpt lat="49.87859" lon="2.47994">
        <ele>51.3</ele>
        <time>2023-09-27T13:00:54Z</time>
      </trkpt>
      <trkpt lat="49.87859" lon="2.47994">
        <ele>51.2</ele>
        <time>2023-09-27T13:00:55Z</time>
      </trkpt>
      <trkpt lat="49.87861" lon="2.47993">
        <ele>51.2</ele>
        <time>2023-09-27T13:00:56Z</time>
      </trkpt>
      <trkpt lat="49.87862" lon="2.47993">
        <ele>51.1</ele>
        <time>2023-09-27T13:00:57Z</time>
      </trkpt>
      <trkpt lat="49.87863" lon="2.47992">
        <ele>51.1</ele>
        <time>2023-09-27T13:00:58Z</time>
      </trkpt>
      <trkpt lat="49.87865" lon="2.47991">
        <ele>51</ele>
        <time>2023-09-27T13:00:59Z</time>
      </trkpt>
      <trkpt lat="49.87866" lon="2.47991">
        <ele>51</ele>
        <time>2023-09-27T13:01:00Z</time>
      </trkpt>
      <trkpt lat="49.87867" lon="2.4799">
        <ele>50.9</ele>
        <time>2023-09-27T13:01:01Z</time>
      </trkpt>
      <trkpt lat="49.87868" lon="2.4799">
        <ele>50.9</ele>
        <time>2023-09-27T13:01:02Z</time>
      </trkpt>
      <trkpt lat="49.87869" lon="2.47989">
        <ele>50.8</ele>
        <time>2023-09-27T13:01:03Z</time>
      </trkpt>
      <trkpt lat="49.87871" lon="2.47988">
        <ele>50.7</ele>
        <time>2023-09-27T13:01:04Z</time>
      </trkpt>
      <trkpt lat="49.87872" lon="2.47987">
        <ele>50.7</ele>
        <time>2023-09-27T13:01:05Z</time>
      </trkpt>
      <trkpt lat="49.87873" lon="2.47987">
        <ele>50.7</ele>
        <time>2023-09-27T13:01:06Z</time>
      </trkpt>
      <trkpt lat="49.87874" lon="2.47986">
        <ele>50.6</ele>
        <time>2023-09-27T13:01:07Z</time>
      </trkpt>
      <trkpt lat="49.87875" lon="2.47986">
        <ele>50.6</ele>
        <time>2023-09-27T13:01:08Z</time>
      </trkpt>
      <trkpt lat="49.87876" lon="2.47985">
        <ele>50.5</ele>
        <time>2023-09-27T13:01:09Z</time>
      </trkpt>
      <trkpt lat="49.87878" lon="2.47984">
        <ele>50.4</ele>
        <time>2023-09-27T13:01:10Z</time>
      </trkpt>
      <trkpt lat="49.87878" lon="2.47984">
        <ele>50.4</ele>
        <time>2023-09-27T13:01:11Z</time>
      </trkpt>
      <trkpt lat="49.87879" lon="2.47983">
        <ele>50.4</ele>
        <time>2023-09-27T13:01:12Z</time>
      </trkpt>
      <trkpt lat="49.87881" lon="2.47982">
        <ele>50.3</ele>
        <time>2023-09-27T13:01:13Z</time>
      </trkpt>
      <trkpt lat="49.87882" lon="2.47981">
        <ele>50.2</ele>
        <time>2023-09-27T13:01:14Z</time>
      </trkpt>
      <trkpt lat="49.87883" lon="2.47981">
        <ele>50.2</ele>
        <time>2023-09-27T13:01:15Z</time>
      </trkpt>
      <trkpt lat="49.87884" lon="2.4798">
        <ele>50.1</ele>
        <time>2023-09-27T13:01:16Z</time>
      </trkpt>
      <trkpt lat="49.87885" lon="2.4798">
        <ele>50.1</ele>
        <time>2023-09-27T13:01:17Z</time>
      </trkpt>
      <trkpt lat="49.87886" lon="2.47979">
        <ele>50</ele>
        <time>2023-09-27T13:01:18Z</time>
      </trkpt>
      <trkpt lat="49.87887" lon="2.47979">
        <ele>50</ele>
        <time>2023-09-27T13:01:19Z</time>
      </trkpt>
      <trkpt lat="49.87888" lon="2.47979">
        <ele>50</ele>
        <time>2023-09-27T13:01:20Z</time>
      </trkpt>
      <trkpt lat="49.87889" lon="2.47978">
        <ele>49.9</ele>
        <time>2023-09-27T13:01:21Z</time>
      </trkpt>
      <trkpt lat="49.8789" lon="2.47977">
        <ele>49.9</ele>
        <time>2023-09-27T13:01:22Z</time>
      </trkpt>
      <trkpt lat="49.87891" lon="2.47977">
        <ele>49.8</ele>
        <time>2023-09-27T13:01:23Z</time>
      </trkpt>
      <trkpt lat="49.87892" lon="2.47976">
        <ele>49.7</ele>
        <time>2023-09-27T13:01:24Z</time>
      </trkpt>
      <trkpt lat="49.87894" lon="2.47975">
        <ele>49.7</ele>
        <time>2023-09-27T13:01:25Z</time>
      </trkpt>
      <trkpt lat="49.87895" lon="2.47975">
        <ele>49.6</ele>
        <time>2023-09-27T13:01:26Z</time>
      </trkpt>
      <trkpt lat="49.87895" lon="2.47975">
        <ele>49.6</ele>
        <time>2023-09-27T13:01:27Z</time>
      </trkpt>
      <trkpt lat="49.87897" lon="2.47974">
        <ele>49.5</ele>
        <time>2023-09-27T13:01:28Z</time>
      </trkpt>
      <trkpt lat="49.87898" lon="2.47973">
        <ele>49.5</ele>
        <time>2023-09-27T13:01:29Z</time>
      </trkpt>
      <trkpt lat="49.87899" lon="2.47973">
        <ele>49.4</ele>
        <time>2023-09-27T13:01:30Z</time>
      </trkpt>
      <trkpt lat="49.879" lon="2.47972">
        <ele>49.4</ele>
        <time>2023-09-27T13:01:31Z</time>
      </trkpt>
      <trkpt lat="49.87901" lon="2.47972">
        <ele>49.3</ele>
        <time>2023-09-27T13:01:32Z</time>
      </trkpt>
      <trkpt lat="49.87902" lon="2.47971">
        <ele>49.3</ele>
        <time>2023-09-27T13:01:33Z</time>
      </trkpt>
      <trkpt lat="49.87904" lon="2.4797">
        <ele>49.2</ele>
        <time>2023-09-27T13:01:34Z</time>
      </trkpt>
      <trkpt lat="49.87905" lon="2.4797">
        <ele>49.2</ele>
        <time>2023-09-27T13:01:35Z</time>
      </trkpt>
      <trkpt lat="49.87905" lon="2.47969">
        <ele>49.2</ele>
        <time>2023-09-27T13:01:36Z</time>
      </trkpt>
      <trkpt lat="49.87907" lon="2.47968">
        <ele>49.1</ele>
        <time>2023-09-27T13:01:37Z</time>
      </trkpt>
      <trkpt lat="49.87908" lon="2.47968">
        <ele>49.1</ele>
        <time>2023-09-27T13:01:38Z</time>
      </trkpt>
      <trkpt lat="49.87909" lon="2.47968">
        <ele>49</ele>
        <time>2023-09-27T13:01:39Z</time>
      </trkpt>
      <trkpt lat="49.87911" lon="2.47966">
        <ele>49</ele>
        <time>2023-09-27T13:01:40Z</time>
      </trkpt>
      <trkpt lat="49.87912" lon="2.47966">
        <ele>48.9</ele>
        <time>2023-09-27T13:01:41Z</time>
      </trkpt>
      <trkpt lat="49.87913" lon="2.47966">
        <ele>48.9</ele>
        <time>2023-09-27T13:01:42Z</time>
      </trkpt>
      <trkpt lat="49.87914" lon="2.47965">
        <ele>48.8</ele>
        <time>2023-09-27T13:01:43Z</time>
      </trkpt>
      <trkpt lat="49.87915" lon="2.47964">
        <ele>48.8</ele>
        <time>2023-09-27T13:01:44Z</time>
      </trkpt>
      <trkpt lat="49.87916" lon="2.47964">
        <ele>48.8</ele>
        <time>2023-09-27T13:01:45Z</time>
      </trkpt>
      <trkpt lat="49.87918" lon="2.47963">
        <ele>48.7</ele>
        <time>2023-09-27T13:01:46Z</time>
      </trkpt>
      <trkpt lat="49.87919" lon="2.47963">
        <ele>48.7</ele>
        <time>2023-09-27T13:01:47Z</time>
      </trkpt>
      <trkpt lat="49.8792" lon="2.47962">
        <ele>48.7</ele>
        <time>2023-09-27T13:01:48Z</time>
      </trkpt>
      <trkpt lat="49.87922" lon="2.47961">
        <ele>48.6</ele>
        <time>2023-09-27T13:01:49Z</time>
      </trkpt>
      <trkpt lat="49.87923" lon="2.47961">
        <ele>48.6</ele>
        <time>2023-09-27T13:01:50Z</time>
      </trkpt>
      <trkpt lat="49.87923" lon="2.4796">
        <ele>48.5</ele>
        <time>2023-09-27T13:01:51Z</time>
      </trkpt>
      <trkpt lat="49.87925" lon="2.47959">
        <ele>48.5</ele>
        <time>2023-09-27T13:01:52Z</time>
      </trkpt>
      <trkpt lat="49.87926" lon="2.47959">
        <ele>48.4</ele>
        <time>2023-09-27T13:01:53Z</time>
      </trkpt>
      <trkpt lat="49.87927" lon="2.47959">
        <ele>48.4</ele>
        <time>2023-09-27T13:01:54Z</time>
      </trkpt>
      <trkpt lat="49.87928" lon="2.47958">
        <ele>48.4</ele>
        <time>2023-09-27T13:01:55Z</time>
      </trkpt>
      <trkpt lat="49.87929" lon="2.47958">
        <ele>48.4</ele>
        <time>2023-09-27T13:01:56Z</time>
      </trkpt>
      <trkpt lat="49.8793" lon="2.47957">
        <ele>48.3</ele>
        <time>2023-09-27T13:01:57Z</time>
      </trkpt>
      <trkpt lat="49.87931" lon="2.47957">
        <ele>48.3</ele>
        <time>2023-09-27T13:01:58Z</time>
      </trkpt>
      <trkpt lat="49.87932" lon="2.47956">
        <ele>48.2</ele>
        <time>2023-09-27T13:01:59Z</time>
      </trkpt>
      <trkpt lat="49.87934" lon="2.47956">
        <ele>48.2</ele>
        <time>2023-09-27T13:02:00Z</time>
      </trkpt>
      <trkpt lat="49.87935" lon="2.47955">
        <ele>48.2</ele>
        <time>2023-09-27T13:02:01Z</time>
      </trkpt>
      <trkpt lat="49.87936" lon="2.47954">
        <ele>48.1</ele>
        <time>2023-09-27T13:02:02Z</time>
      </trkpt>
      <trkpt lat="49.87937" lon="2.47954">
        <ele>48.1</ele>
        <time>2023-09-27T13:02:03Z</time>
      </trkpt>
      <trkpt lat="49.87938" lon="2.47953">
        <ele>48.1</ele>
        <time>2023-09-27T13:02:04Z</time>
      </trkpt>
      <trkpt lat="49.87939" lon="2.47952">
        <ele>48</ele>
        <time>2023-09-27T13:02:05Z</time>
      </trkpt>
      <trkpt lat="49.8794" lon="2.47952">
        <ele>48</ele>
        <time>2023-09-27T13:02:06Z</time>
      </trkpt>
      <trkpt lat="49.8794" lon="2.47951">
        <ele>48</ele>
        <time>2023-09-27T13:02:07Z</time>
      </trkpt>
      <trkpt lat="49.87941" lon="2.47951">
        <ele>47.9</ele>
        <time>2023-09-27T13:02:08Z</time>
      </trkpt>
      <trkpt lat="49.87942" lon="2.4795">
        <ele>47.9</ele>
        <time>2023-09-27T13:02:09Z</time>
      </trkpt>
      <trkpt lat="49.87943" lon="2.4795">
        <ele>47.9</ele>
        <time>2023-09-27T13:02:10Z</time>
      </trkpt>
      <trkpt lat="49.87944" lon="2.47949">
        <ele>47.8</ele>
        <time>2023-09-27T13:02:11Z</time>
      </trkpt>
      <trkpt lat="49.87945" lon="2.47948">
        <ele>47.8</ele>
        <time>2023-09-27T13:02:12Z</time>
      </trkpt>
      <trkpt lat="49.87946" lon="2.47948">
        <ele>47.7</ele>
        <time>2023-09-27T13:02:13Z</time>
      </trkpt>
      <trkpt lat="49.87947" lon="2.47947">
        <ele>47.7</ele>
        <time>2023-09-27T13:02:14Z</time>
      </trkpt>
      <trkpt lat="49.87949" lon="2.47946">
        <ele>47.7</ele>
        <time>2023-09-27T13:02:15Z</time>
      </trkpt>
      <trkpt lat="49.8795" lon="2.47946">
        <ele>47.6</ele>
        <time>2023-09-27T13:02:16Z</time>
      </trkpt>
      <trkpt lat="49.8795" lon="2.47945">
        <ele>47.6</ele>
        <time>2023-09-27T13:02:17Z</time>
      </trkpt>
      <trkpt lat="49.87951" lon="2.47945">
        <ele>47.6</ele>
        <time>2023-09-27T13:02:18Z</time>
      </trkpt>
      <trkpt lat="49.87952" lon="2.47944">
        <ele>47.5</ele>
        <time>2023-09-27T13:02:19Z</time>
      </trkpt>
      <trkpt lat="49.87953" lon="2.47944">
        <ele>47.5</ele>
        <time>2023-09-27T13:02:20Z</time>
      </trkpt>
      <trkpt lat="49.87954" lon="2.47943">
        <ele>47.5</ele>
        <time>2023-09-27T13:02:21Z</time>
      </trkpt>
      <trkpt lat="49.87955" lon="2.47942">
        <ele>47.4</ele>
        <time>2023-09-27T13:02:22Z</time>
      </trkpt>
      <trkpt lat="49.87956" lon="2.47942">
        <ele>47.4</ele>
        <time>2023-09-27T13:02:23Z</time>
      </trkpt>
      <trkpt lat="49.87957" lon="2.47941">
        <ele>47.3</ele>
        <time>2023-09-27T13:02:24Z</time>
      </trkpt>
      <trkpt lat="49.87959" lon="2.4794">
        <ele>47.3</ele>
        <time>2023-09-27T13:02:25Z</time>
      </trkpt>
      <trkpt lat="49.8796" lon="2.47939">
        <ele>47.2</ele>
        <time>2023-09-27T13:02:26Z</time>
      </trkpt>
      <trkpt lat="49.87961" lon="2.47939">
        <ele>47.2</ele>
        <time>2023-09-27T13:02:27Z</time>
      </trkpt>
      <trkpt lat="49.87962" lon="2.47938">
        <ele>47.2</ele>
        <time>2023-09-27T13:02:28Z</time>
      </trkpt>
      <trkpt lat="49.87963" lon="2.47937">
        <ele>47.2</ele>
        <time>2023-09-27T13:02:29Z</time>
      </trkpt>
      <trkpt lat="49.87964" lon="2.47936">
        <ele>47.1</ele>
        <time>2023-09-27T13:02:30Z</time>
      </trkpt>
      <trkpt lat="49.87965" lon="2.47936">
        <ele>47.1</ele>
        <time>2023-09-27T13:02:31Z</time>
      </trkpt>
      <trkpt lat="49.87966" lon="2.47935">
        <ele>47.1</ele>
        <time>2023-09-27T13:02:32Z</time>
      </trkpt>
      <trkpt lat="49.87967" lon="2.47935">
        <ele>47</ele>
        <time>2023-09-27T13:02:33Z</time>
      </trkpt>
      <trkpt lat="49.87969" lon="2.47935">
        <ele>47</ele>
        <time>2023-09-27T13:02:34Z</time>
      </trkpt>
      <trkpt lat="49.8797" lon="2.47934">
        <ele>47</ele>
        <time>2023-09-27T13:02:35Z</time>
      </trkpt>
      <trkpt lat="49.87971" lon="2.47934">
        <ele>47</ele>
        <time>2023-09-27T13:02:36Z</time>
      </trkpt>
      <trkpt lat="49.87972" lon="2.47934">
        <ele>46.9</ele>
        <time>2023-09-27T13:02:37Z</time>
      </trkpt>
      <trkpt lat="49.87973" lon="2.47933">
        <ele>46.9</ele>
        <time>2023-09-27T13:02:38Z</time>
      </trkpt>
      <trkpt lat="49.87974" lon="2.47933">
        <ele>46.9</ele>
        <time>2023-09-27T13:02:39Z</time>
      </trkpt>
      <trkpt lat="49.87975" lon="2.47933">
        <ele>46.9</ele>
        <time>2023-09-27T13:02:40Z</time>
      </trkpt>
      <trkpt lat="49.87976" lon="2.47933">
        <ele>46.9</ele>
        <time>2023-09-27T13:02:41Z</time>
      </trkpt>
      <trkpt lat="49.87977" lon="2.47932">
        <ele>46.8</ele>
        <time>2023-09-27T13:02:42Z</time>
      </trkpt>
      <trkpt lat="49.87979" lon="2.47931">
        <ele>46.8</ele>
        <time>2023-09-27T13:02:43Z</time>
      </trkpt>
      <trkpt lat="49.8798" lon="2.47931">
        <ele>46.8</ele>
        <time>2023-09-27T13:02:44Z</time>
      </trkpt>
      <trkpt lat="49.87981" lon="2.47931">
        <ele>46.8</ele>
        <time>2023-09-27T13:02:45Z</time>
      </trkpt>
      <trkpt lat="49.87983" lon="2.4793">
        <ele>46.7</ele>
        <time>2023-09-27T13:02:46Z</time>
      </trkpt>
      <trkpt lat="49.87984" lon="2.4793">
        <ele>46.7</ele>
        <time>2023-09-27T13:02:47Z</time>
      </trkpt>
      <trkpt lat="49.87984" lon="2.47929">
        <ele>46.7</ele>
        <time>2023-09-27T13:02:48Z</time>
      </trkpt>
      <trkpt lat="49.87986" lon="2.47929">
        <ele>46.7</ele>
        <time>2023-09-27T13:02:49Z</time>
      </trkpt>
      <trkpt lat="49.87987" lon="2.47928">
        <ele>46.7</ele>
        <time>2023-09-27T13:02:50Z</time>
      </trkpt>
      <trkpt lat="49.87988" lon="2.47928">
        <ele>46.6</ele>
        <time>2023-09-27T13:02:51Z</time>
      </trkpt>
      <trkpt lat="49.87988" lon="2.47927">
        <ele>46.6</ele>
        <time>2023-09-27T13:02:52Z</time>
      </trkpt>
      <trkpt lat="49.87989" lon="2.47927">
        <ele>46.6</ele>
        <time>2023-09-27T13:02:53Z</time>
      </trkpt>
      <trkpt lat="49.8799" lon="2.47926">
        <ele>46.6</ele>
        <time>2023-09-27T13:02:54Z</time>
      </trkpt>
      <trkpt lat="49.87992" lon="2.47926">
        <ele>46.6</ele>
        <time>2023-09-27T13:02:55Z</time>
      </trkpt>
      <trkpt lat="49.87993" lon="2.47925">
        <ele>46.5</ele>
        <time>2023-09-27T13:02:56Z</time>
      </trkpt>
      <trkpt lat="49.87994" lon="2.47925">
        <ele>46.5</ele>
        <time>2023-09-27T13:02:57Z</time>
      </trkpt>
      <trkpt lat="49.87995" lon="2.47924">
        <ele>46.5</ele>
        <time>2023-09-27T13:02:58Z</time>
      </trkpt>
      <trkpt lat="49.87996" lon="2.47923">
        <ele>46.5</ele>
        <time>2023-09-27T13:02:59Z</time>
      </trkpt>
      <trkpt lat="49.87997" lon="2.47923">
        <ele>46.4</ele>
        <time>2023-09-27T13:03:00Z</time>
      </trkpt>
      <trkpt lat="49.87998" lon="2.47922">
        <ele>46.4</ele>
        <time>2023-09-27T13:03:01Z</time>
      </trkpt>
      <trkpt lat="49.87999" lon="2.47922">
        <ele>46.4</ele>
        <time>2023-09-27T13:03:02Z</time>
      </trkpt>
      <trkpt lat="49.88" lon="2.47921">
        <ele>46.4</ele>
        <time>2023-09-27T13:03:03Z</time>
      </trkpt>
      <trkpt lat="49.88002" lon="2.4792">
        <ele>46.4</ele>
        <time>2023-09-27T13:03:04Z</time>
      </trkpt>
      <trkpt lat="49.88003" lon="2.4792">
        <ele>46.4</ele>
        <time>2023-09-27T13:03:05Z</time>
      </trkpt>
      <trkpt lat="49.88004" lon="2.47919">
        <ele>46.4</ele>
        <time>2023-09-27T13:03:06Z</time>
      </trkpt>
      <trkpt lat="49.88006" lon="2.47918">
        <ele>46.3</ele>
        <time>2023-09-27T13:03:07Z</time>
      </trkpt>
      <trkpt lat="49.88007" lon="2.47917">
        <ele>46.3</ele>
        <time>2023-09-27T13:03:08Z</time>
      </trkpt>
      <trkpt lat="49.88008" lon="2.47917">
        <ele>46.3</ele>
        <time>2023-09-27T13:03:09Z</time>
      </trkpt>
      <trkpt lat="49.88009" lon="2.47917">
        <ele>46.3</ele>
        <time>2023-09-27T13:03:10Z</time>
      </trkpt>
      <trkpt lat="49.8801" lon="2.47916">
        <ele>46.3</ele>
        <time>2023-09-27T13:03:11Z</time>
      </trkpt>
      <trkpt lat="49.88011" lon="2.47916">
        <ele>46.3</ele>
        <time>2023-09-27T13:03:12Z</time>
      </trkpt>
      <trkpt lat="49.88012" lon="2.47915">
        <ele>46.3</ele>
        <time>2023-09-27T13:03:13Z</time>
      </trkpt>
      <trkpt lat="49.88013" lon="2.47915">
        <ele>46.3</ele>
        <time>2023-09-27T13:03:14Z</time>
      </trkpt>
      <trkpt lat="49.88014" lon="2.47915">
        <ele>46.3</ele>
        <time>2023-09-27T13:03:15Z</time>
      </trkpt>
      <trkpt lat="49.88016" lon="2.47914">
        <ele>46.3</ele>
        <time>2023-09-27T13:03:16Z</time>
      </trkpt>
      <trkpt lat="49.88017" lon="2.47913">
        <ele>46.3</ele>
        <time>2023-09-27T13:03:17Z</time>
      </trkpt>
      <trkpt lat="49.88017" lon="2.47913">
        <ele>46.2</ele>
        <time>2023-09-27T13:03:18Z</time>
      </trkpt>
      <trkpt lat="49.88018" lon="2.47912">
        <ele>46.2</ele>
        <time>2023-09-27T13:03:19Z</time>
      </trkpt>
      <trkpt lat="49.8802" lon="2.47912">
        <ele>46.2</ele>
        <time>2023-09-27T13:03:20Z</time>
      </trkpt>
      <trkpt lat="49.88021" lon="2.47911">
        <ele>46.2</ele>
        <time>2023-09-27T13:03:21Z</time>
      </trkpt>
      <trkpt lat="49.88022" lon="2.47911">
        <ele>46.2</ele>
        <time>2023-09-27T13:03:22Z</time>
      </trkpt>
      <trkpt lat="49.88023" lon="2.47911">
        <ele>46.2</ele>
        <time>2023-09-27T13:03:23Z</time>
      </trkpt>
      <trkpt lat="49.88023" lon="2.4791">
        <ele>46.2</ele>
        <time>2023-09-27T13:03:24Z</time>
      </trkpt>
      <trkpt lat="49.88024" lon="2.4791">
        <ele>46.2</ele>
        <time>2023-09-27T13:03:25Z</time>
      </trkpt>
      <trkpt lat="49.88025" lon="2.47909">
        <ele>46.2</ele>
        <time>2023-09-27T13:03:26Z</time>
      </trkpt>
      <trkpt lat="49.88026" lon="2.47908">
        <ele>46.2</ele>
        <time>2023-09-27T13:03:27Z</time>
      </trkpt>
      <trkpt lat="49.88027" lon="2.47908">
        <ele>46.2</ele>
        <time>2023-09-27T13:03:28Z</time>
      </trkpt>
      <trkpt lat="49.88028" lon="2.47907">
        <ele>46.2</ele>
        <time>2023-09-27T13:03:29Z</time>
      </trkpt>
      <trkpt lat="49.88029" lon="2.47907">
        <ele>46.2</ele>
        <time>2023-09-27T13:03:30Z</time>
      </trkpt>
      <trkpt lat="49.8803" lon="2.47906">
        <ele>46.2</ele>
        <time>2023-09-27T13:03:31Z</time>
      </trkpt>
      <trkpt lat="49.88031" lon="2.47905">
        <ele>46.2</ele>
        <time>2023-09-27T13:03:32Z</time>
      </trkpt>
      <trkpt lat="49.88033" lon="2.47905">
        <ele>46.2</ele>
        <time>2023-09-27T13:03:33Z</time>
      </trkpt>
      <trkpt lat="49.88034" lon="2.47904">
        <ele>46.2</ele>
        <time>2023-09-27T13:03:34Z</time>
      </trkpt>
      <trkpt lat="49.88034" lon="2.47904">
        <ele>46.2</ele>
        <time>2023-09-27T13:03:35Z</time>
      </trkpt>
      <trkpt lat="49.88035" lon="2.47903">
        <ele>46.2</ele>
        <time>2023-09-27T13:03:36Z</time>
      </trkpt>
      <trkpt lat="49.88036" lon="2.47903">
        <ele>46.2</ele>
        <time>2023-09-27T13:03:37Z</time>
      </trkpt>
      <trkpt lat="49.88038" lon="2.47902">
        <ele>46.2</ele>
        <time>2023-09-27T13:03:38Z</time>
      </trkpt>
      <trkpt lat="49.88039" lon="2.47902">
        <ele>46.2</ele>
        <time>2023-09-27T13:03:39Z</time>
      </trkpt>
      <trkpt lat="49.88041" lon="2.47901">
        <ele>46.2</ele>
        <time>2023-09-27T13:03:40Z</time>
      </trkpt>
      <trkpt lat="49.88041" lon="2.479">
        <ele>46.2</ele>
        <time>2023-09-27T13:03:41Z</time>
      </trkpt>
      <trkpt lat="49.88042" lon="2.479">
        <ele>46.2</ele>
        <time>2023-09-27T13:03:42Z</time>
      </trkpt>
      <trkpt lat="49.88044" lon="2.47899">
        <ele>46.2</ele>
        <time>2023-09-27T13:03:43Z</time>
      </trkpt>
      <trkpt lat="49.88045" lon="2.47899">
        <ele>46.2</ele>
        <time>2023-09-27T13:03:44Z</time>
      </trkpt>
      <trkpt lat="49.88046" lon="2.47898">
        <ele>46.2</ele>
        <time>2023-09-27T13:03:45Z</time>
      </trkpt>
      <trkpt lat="49.88047" lon="2.47898">
        <ele>46.2</ele>
        <time>2023-09-27T13:03:46Z</time>
      </trkpt>
      <trkpt lat="49.88048" lon="2.47897">
        <ele>46.2</ele>
        <time>2023-09-27T13:03:47Z</time>
      </trkpt>
      <trkpt lat="49.88049" lon="2.47896">
        <ele>46.2</ele>
        <time>2023-09-27T13:03:48Z</time>
      </trkpt>
      <trkpt lat="49.88051" lon="2.47895">
        <ele>46.2</ele>
        <time>2023-09-27T13:03:49Z</time>
      </trkpt>
      <trkpt lat="49.88051" lon="2.47895">
        <ele>46.2</ele>
        <time>2023-09-27T13:03:50Z</time>
      </trkpt>
      <trkpt lat="49.88052" lon="2.47895">
        <ele>46.2</ele>
        <time>2023-09-27T13:03:51Z</time>
      </trkpt>
      <trkpt lat="49.88054" lon="2.47894">
        <ele>46.2</ele>
        <time>2023-09-27T13:03:52Z</time>
      </trkpt>
      <trkpt lat="49.88055" lon="2.47893">
        <ele>46.2</ele>
        <time>2023-09-27T13:03:53Z</time>
      </trkpt>
      <trkpt lat="49.88056" lon="2.47893">
        <ele>46.2</ele>
        <time>2023-09-27T13:03:54Z</time>
      </trkpt>
      <trkpt lat="49.88058" lon="2.47892">
        <ele>46.3</ele>
        <time>2023-09-27T13:03:55Z</time>
      </trkpt>
      <trkpt lat="49.88059" lon="2.47892">
        <ele>46.3</ele>
        <time>2023-09-27T13:03:56Z</time>
      </trkpt>
      <trkpt lat="49.8806" lon="2.47891">
        <ele>46.3</ele>
        <time>2023-09-27T13:03:57Z</time>
      </trkpt>
      <trkpt lat="49.88061" lon="2.47891">
        <ele>46.3</ele>
        <time>2023-09-27T13:03:58Z</time>
      </trkpt>
      <trkpt lat="49.88062" lon="2.4789">
        <ele>46.3</ele>
        <time>2023-09-27T13:03:59Z</time>
      </trkpt>
      <trkpt lat="49.88063" lon="2.47889">
        <ele>46.3</ele>
        <time>2023-09-27T13:04:00Z</time>
      </trkpt>
      <trkpt lat="49.88064" lon="2.47889">
        <ele>46.3</ele>
        <time>2023-09-27T13:04:01Z</time>
      </trkpt>
      <trkpt lat="49.88065" lon="2.47888">
        <ele>46.3</ele>
        <time>2023-09-27T13:04:02Z</time>
      </trkpt>
      <trkpt lat="49.88066" lon="2.47887">
        <ele>46.3</ele>
        <time>2023-09-27T13:04:03Z</time>
      </trkpt>
      <trkpt lat="49.88067" lon="2.47887">
        <ele>46.4</ele>
        <time>2023-09-27T13:04:04Z</time>
      </trkpt>
      <trkpt lat="49.88068" lon="2.47886">
        <ele>46.4</ele>
        <time>2023-09-27T13:04:05Z</time>
      </trkpt>
      <trkpt lat="49.88069" lon="2.47885">
        <ele>46.4</ele>
        <time>2023-09-27T13:04:06Z</time>
      </trkpt>
      <trkpt lat="49.8807" lon="2.47885">
        <ele>46.4</ele>
        <time>2023-09-27T13:04:07Z</time>
      </trkpt>
      <trkpt lat="49.88071" lon="2.47884">
        <ele>46.4</ele>
        <time>2023-09-27T13:04:08Z</time>
      </trkpt>
      <trkpt lat="49.88072" lon="2.47884">
        <ele>46.4</ele>
        <time>2023-09-27T13:04:09Z</time>
      </trkpt>
      <trkpt lat="49.88073" lon="2.47883">
        <ele>46.4</ele>
        <time>2023-09-27T13:04:10Z</time>
      </trkpt>
      <trkpt lat="49.88073" lon="2.47883">
        <ele>46.4</ele>
        <time>2023-09-27T13:04:11Z</time>
      </trkpt>
      <trkpt lat="49.88074" lon="2.47882">
        <ele>46.4</ele>
        <time>2023-09-27T13:04:12Z</time>
      </trkpt>
      <trkpt lat="49.88075" lon="2.47881">
        <ele>46.5</ele>
        <time>2023-09-27T13:04:13Z</time>
      </trkpt>
      <trkpt lat="49.88077" lon="2.47881">
        <ele>46.5</ele>
        <time>2023-09-27T13:04:14Z</time>
      </trkpt>
      <trkpt lat="49.88078" lon="2.4788">
        <ele>46.5</ele>
        <time>2023-09-27T13:04:15Z</time>
      </trkpt>
      <trkpt lat="49.88079" lon="2.47879">
        <ele>46.5</ele>
        <time>2023-09-27T13:04:16Z</time>
      </trkpt>
      <trkpt lat="49.88079" lon="2.47879">
        <ele>46.5</ele>
        <time>2023-09-27T13:04:17Z</time>
      </trkpt>
      <trkpt lat="49.8808" lon="2.47878">
        <ele>46.5</ele>
        <time>2023-09-27T13:04:18Z</time>
      </trkpt>
      <trkpt lat="49.88081" lon="2.47878">
        <ele>46.5</ele>
        <time>2023-09-27T13:04:19Z</time>
      </trkpt>
      <trkpt lat="49.88082" lon="2.47877">
        <ele>46.5</ele>
        <time>2023-09-27T13:04:20Z</time>
      </trkpt>
      <trkpt lat="49.88083" lon="2.47876">
        <ele>46.5</ele>
        <time>2023-09-27T13:04:21Z</time>
      </trkpt>
      <trkpt lat="49.88084" lon="2.47876">
        <ele>46.6</ele>
        <time>2023-09-27T13:04:22Z</time>
      </trkpt>
      <trkpt lat="49.88086" lon="2.47875">
        <ele>46.6</ele>
        <time>2023-09-27T13:04:23Z</time>
      </trkpt>
      <trkpt lat="49.88087" lon="2.47874">
        <ele>46.6</ele>
        <time>2023-09-27T13:04:24Z</time>
      </trkpt>
      <trkpt lat="49.88088" lon="2.47874">
        <ele>46.6</ele>
        <time>2023-09-27T13:04:25Z</time>
      </trkpt>
      <trkpt lat="49.88089" lon="2.47874">
        <ele>46.6</ele>
        <time>2023-09-27T13:04:26Z</time>
      </trkpt>
      <trkpt lat="49.8809" lon="2.47873">
        <ele>46.6</ele>
        <time>2023-09-27T13:04:27Z</time>
      </trkpt>
      <trkpt lat="49.88091" lon="2.47873">
        <ele>46.6</ele>
        <time>2023-09-27T13:04:28Z</time>
      </trkpt>
      <trkpt lat="49.88092" lon="2.47873">
        <ele>46.6</ele>
        <time>2023-09-27T13:04:29Z</time>
      </trkpt>
      <trkpt lat="49.88093" lon="2.47872">
        <ele>46.7</ele>
        <time>2023-09-27T13:04:30Z</time>
      </trkpt>
      <trkpt lat="49.88094" lon="2.47872">
        <ele>46.7</ele>
        <time>2023-09-27T13:04:31Z</time>
      </trkpt>
      <trkpt lat="49.88095" lon="2.47871">
        <ele>46.7</ele>
        <time>2023-09-27T13:04:32Z</time>
      </trkpt>
      <trkpt lat="49.88096" lon="2.47871">
        <ele>46.7</ele>
        <time>2023-09-27T13:04:33Z</time>
      </trkpt>
      <trkpt lat="49.88097" lon="2.4787">
        <ele>46.7</ele>
        <time>2023-09-27T13:04:34Z</time>
      </trkpt>
      <trkpt lat="49.88098" lon="2.4787">
        <ele>46.7</ele>
        <time>2023-09-27T13:04:35Z</time>
      </trkpt>
      <trkpt lat="49.88099" lon="2.4787">
        <ele>46.8</ele>
        <time>2023-09-27T13:04:36Z</time>
      </trkpt>
      <trkpt lat="49.881" lon="2.47869">
        <ele>46.8</ele>
        <time>2023-09-27T13:04:37Z</time>
      </trkpt>
      <trkpt lat="49.88101" lon="2.47869">
        <ele>46.8</ele>
        <time>2023-09-27T13:04:38Z</time>
      </trkpt>
      <trkpt lat="49.88102" lon="2.47869">
        <ele>46.8</ele>
        <time>2023-09-27T13:04:39Z</time>
      </trkpt>
      <trkpt lat="49.88103" lon="2.47868">
        <ele>46.8</ele>
        <time>2023-09-27T13:04:40Z</time>
      </trkpt>
      <trkpt lat="49.88104" lon="2.47868">
        <ele>46.8</ele>
        <time>2023-09-27T13:04:41Z</time>
      </trkpt>
      <trkpt lat="49.88106" lon="2.47868">
        <ele>46.9</ele>
        <time>2023-09-27T13:04:42Z</time>
      </trkpt>
      <trkpt lat="49.88107" lon="2.47867">
        <ele>46.9</ele>
        <time>2023-09-27T13:04:43Z</time>
      </trkpt>
      <trkpt lat="49.88108" lon="2.47867">
        <ele>46.9</ele>
        <time>2023-09-27T13:04:44Z</time>
      </trkpt>
      <trkpt lat="49.88109" lon="2.47866">
        <ele>46.9</ele>
        <time>2023-09-27T13:04:45Z</time>
      </trkpt>
      <trkpt lat="49.8811" lon="2.47866">
        <ele>46.9</ele>
        <time>2023-09-27T13:04:46Z</time>
      </trkpt>
      <trkpt lat="49.88111" lon="2.47865">
        <ele>47</ele>
        <time>2023-09-27T13:04:47Z</time>
      </trkpt>
      <trkpt lat="49.88112" lon="2.47865">
        <ele>47</ele>
        <time>2023-09-27T13:04:48Z</time>
      </trkpt>
      <trkpt lat="49.88113" lon="2.47864">
        <ele>47</ele>
        <time>2023-09-27T13:04:49Z</time>
      </trkpt>
      <trkpt lat="49.88114" lon="2.47863">
        <ele>47</ele>
        <time>2023-09-27T13:04:50Z</time>
      </trkpt>
      <trkpt lat="49.88115" lon="2.47863">
        <ele>47.1</ele>
        <time>2023-09-27T13:04:51Z</time>
      </trkpt>
      <trkpt lat="49.88116" lon="2.47862">
        <ele>47.1</ele>
        <time>2023-09-27T13:04:52Z</time>
      </trkpt>
      <trkpt lat="49.88117" lon="2.47861">
        <ele>47.1</ele>
        <time>2023-09-27T13:04:53Z</time>
      </trkpt>
      <trkpt lat="49.88118" lon="2.47861">
        <ele>47.1</ele>
        <time>2023-09-27T13:04:54Z</time>
      </trkpt>
      <trkpt lat="49.88119" lon="2.4786">
        <ele>47.2</ele>
        <time>2023-09-27T13:04:55Z</time>
      </trkpt>
      <trkpt lat="49.8812" lon="2.47859">
        <ele>47.2</ele>
        <time>2023-09-27T13:04:56Z</time>
      </trkpt>
      <trkpt lat="49.88121" lon="2.47859">
        <ele>47.2</ele>
        <time>2023-09-27T13:04:57Z</time>
      </trkpt>
      <trkpt lat="49.88122" lon="2.47858">
        <ele>47.3</ele>
        <time>2023-09-27T13:04:58Z</time>
      </trkpt>
      <trkpt lat="49.88123" lon="2.47857">
        <ele>47.3</ele>
        <time>2023-09-27T13:04:59Z</time>
      </trkpt>
      <trkpt lat="49.88124" lon="2.47857">
        <ele>47.3</ele>
        <time>2023-09-27T13:05:00Z</time>
      </trkpt>
      <trkpt lat="49.88125" lon="2.47856">
        <ele>47.4</ele>
        <time>2023-09-27T13:05:01Z</time>
      </trkpt>
      <trkpt lat="49.88126" lon="2.47855">
        <ele>47.4</ele>
        <time>2023-09-27T13:05:02Z</time>
      </trkpt>
      <trkpt lat="49.88127" lon="2.47854">
        <ele>47.4</ele>
        <time>2023-09-27T13:05:03Z</time>
      </trkpt>
      <trkpt lat="49.88128" lon="2.47853">
        <ele>47.5</ele>
        <time>2023-09-27T13:05:04Z</time>
      </trkpt>
      <trkpt lat="49.88129" lon="2.47853">
        <ele>47.5</ele>
        <time>2023-09-27T13:05:05Z</time>
      </trkpt>
      <trkpt lat="49.8813" lon="2.47852">
        <ele>47.5</ele>
        <time>2023-09-27T13:05:06Z</time>
      </trkpt>
      <trkpt lat="49.88131" lon="2.47851">
        <ele>47.6</ele>
        <time>2023-09-27T13:05:07Z</time>
      </trkpt>
      <trkpt lat="49.88131" lon="2.4785">
        <ele>47.6</ele>
        <time>2023-09-27T13:05:08Z</time>
      </trkpt>
      <trkpt lat="49.88132" lon="2.47849">
        <ele>47.6</ele>
        <time>2023-09-27T13:05:09Z</time>
      </trkpt>
      <trkpt lat="49.88133" lon="2.47849">
        <ele>47.7</ele>
        <time>2023-09-27T13:05:10Z</time>
      </trkpt>
      <trkpt lat="49.88134" lon="2.47848">
        <ele>47.7</ele>
        <time>2023-09-27T13:05:11Z</time>
      </trkpt>
      <trkpt lat="49.88135" lon="2.47847">
        <ele>47.7</ele>
        <time>2023-09-27T13:05:12Z</time>
      </trkpt>
      <trkpt lat="49.88136" lon="2.47846">
        <ele>47.8</ele>
        <time>2023-09-27T13:05:13Z</time>
      </trkpt>
      <trkpt lat="49.88137" lon="2.47846">
        <ele>47.8</ele>
        <time>2023-09-27T13:05:14Z</time>
      </trkpt>
      <trkpt lat="49.88138" lon="2.47845">
        <ele>47.9</ele>
        <time>2023-09-27T13:05:15Z</time>
      </trkpt>
      <trkpt lat="49.88139" lon="2.47845">
        <ele>47.9</ele>
        <time>2023-09-27T13:05:16Z</time>
      </trkpt>
      <trkpt lat="49.8814" lon="2.47845">
        <ele>47.9</ele>
        <time>2023-09-27T13:05:17Z</time>
      </trkpt>
      <trkpt lat="49.88141" lon="2.47844">
        <ele>48</ele>
        <time>2023-09-27T13:05:18Z</time>
      </trkpt>
      <trkpt lat="49.88142" lon="2.47844">
        <ele>48</ele>
        <time>2023-09-27T13:05:19Z</time>
      </trkpt>
      <trkpt lat="49.88143" lon="2.47844">
        <ele>48</ele>
        <time>2023-09-27T13:05:20Z</time>
      </trkpt>
      <trkpt lat="49.88144" lon="2.47843">
        <ele>48.1</ele>
        <time>2023-09-27T13:05:21Z</time>
      </trkpt>
      <trkpt lat="49.88145" lon="2.47843">
        <ele>48.1</ele>
        <time>2023-09-27T13:05:22Z</time>
      </trkpt>
      <trkpt lat="49.88146" lon="2.47843">
        <ele>48.1</ele>
        <time>2023-09-27T13:05:23Z</time>
      </trkpt>
      <trkpt lat="49.88147" lon="2.47842">
        <ele>48.2</ele>
        <time>2023-09-27T13:05:24Z</time>
      </trkpt>
      <trkpt lat="49.88148" lon="2.47842">
        <ele>48.2</ele>
        <time>2023-09-27T13:05:25Z</time>
      </trkpt>
      <trkpt lat="49.88149" lon="2.47842">
        <ele>48.2</ele>
        <time>2023-09-27T13:05:26Z</time>
      </trkpt>
      <trkpt lat="49.8815" lon="2.47841">
        <ele>48.2</ele>
        <time>2023-09-27T13:05:27Z</time>
      </trkpt>
      <trkpt lat="49.88151" lon="2.47841">
        <ele>48.3</ele>
        <time>2023-09-27T13:05:28Z</time>
      </trkpt>
      <trkpt lat="49.88151" lon="2.47841">
        <ele>48.3</ele>
        <time>2023-09-27T13:05:29Z</time>
      </trkpt>
      <trkpt lat="49.88152" lon="2.47841">
        <ele>48.3</ele>
        <time>2023-09-27T13:05:30Z</time>
      </trkpt>
      <trkpt lat="49.88153" lon="2.4784">
        <ele>48.4</ele>
        <time>2023-09-27T13:05:31Z</time>
      </trkpt>
      <trkpt lat="49.88154" lon="2.4784">
        <ele>48.4</ele>
        <time>2023-09-27T13:05:32Z</time>
      </trkpt>
      <trkpt lat="49.88155" lon="2.47839">
        <ele>48.4</ele>
        <time>2023-09-27T13:05:33Z</time>
      </trkpt>
      <trkpt lat="49.88156" lon="2.47839">
        <ele>48.4</ele>
        <time>2023-09-27T13:05:34Z</time>
      </trkpt>
      <trkpt lat="49.88157" lon="2.47839">
        <ele>48.5</ele>
        <time>2023-09-27T13:05:35Z</time>
      </trkpt>
      <trkpt lat="49.88158" lon="2.47839">
        <ele>48.5</ele>
        <time>2023-09-27T13:05:36Z</time>
      </trkpt>
      <trkpt lat="49.88158" lon="2.47839">
        <ele>48.5</ele>
        <time>2023-09-27T13:05:37Z</time>
      </trkpt>
      <trkpt lat="49.88159" lon="2.47838">
        <ele>48.5</ele>
        <time>2023-09-27T13:05:38Z</time>
      </trkpt>
      <trkpt lat="49.8816" lon="2.47838">
        <ele>48.5</ele>
        <time>2023-09-27T13:05:39Z</time>
      </trkpt>
      <trkpt lat="49.8816" lon="2.47837">
        <ele>48.6</ele>
        <time>2023-09-27T13:05:40Z</time>
      </trkpt>
      <trkpt lat="49.88161" lon="2.47837">
        <ele>48.6</ele>
        <time>2023-09-27T13:05:41Z</time>
      </trkpt>
      <trkpt lat="49.88161" lon="2.47837">
        <ele>48.6</ele>
        <time>2023-09-27T13:05:42Z</time>
      </trkpt>
      <trkpt lat="49.88161" lon="2.47837">
        <ele>48.6</ele>
        <time>2023-09-27T13:05:43Z</time>
      </trkpt>
      <trkpt lat="49.88161" lon="2.47837">
        <ele>48.6</ele>
        <time>2023-09-27T13:05:44Z</time>
      </trkpt>
      <trkpt lat="49.88161" lon="2.47837">
        <ele>48.6</ele>
        <time>2023-09-27T13:05:45Z</time>
      </trkpt>
      <trkpt lat="49.88161" lon="2.47837">
        <ele>48.6</ele>
        <time>2023-09-27T13:05:46Z</time>
      </trkpt>
      <trkpt lat="49.88161" lon="2.47837">
        <ele>48.6</ele>
        <time>2023-09-27T13:05:47Z</time>
      </trkpt>
      <trkpt lat="49.88161" lon="2.47837">
        <ele>48.6</ele>
        <time>2023-09-27T13:05:48Z</time>
      </trkpt>
      <trkpt lat="49.88161" lon="2.47837">
        <ele>48.6</ele>
        <time>2023-09-27T13:05:49Z</time>
      </trkpt>
      <trkpt lat="49.88161" lon="2.47837">
        <ele>48.6</ele>
        <time>2023-09-27T13:05:50Z</time>
      </trkpt>
      <trkpt lat="49.88161" lon="2.47837">
        <ele>48.6</ele>
        <time>2023-09-27T13:05:51Z</time>
      </trkpt>
      <trkpt lat="49.88161" lon="2.47837">
        <ele>48.6</ele>
        <time>2023-09-27T13:05:52Z</time>
      </trkpt>
      <trkpt lat="49.88161" lon="2.47837">
        <ele>48.6</ele>
        <time>2023-09-27T13:05:53Z</time>
      </trkpt>
      <trkpt lat="49.88161" lon="2.47837">
        <ele>48.6</ele>
        <time>2023-09-27T13:05:54Z</time>
      </trkpt>
      <trkpt lat="49.88161" lon="2.47837">
        <ele>48.6</ele>
        <time>2023-09-27T13:05:55Z</time>
      </trkpt>
      <trkpt lat="49.88161" lon="2.47837">
        <ele>48.6</ele>
        <time>2023-09-27T13:05:56Z</time>
      </trkpt>
      <trkpt lat="49.88161" lon="2.47837">
        <ele>48.6</ele>
        <time>2023-09-27T13:05:57Z</time>
      </trkpt>
      <trkpt lat="49.88161" lon="2.47837">
        <ele>48.6</ele>
        <time>2023-09-27T13:05:58Z</time>
      </trkpt>
      <trkpt lat="49.88161" lon="2.47837">
        <ele>48.6</ele>
        <time>2023-09-27T13:05:59Z</time>
      </trkpt>
      <trkpt lat="49.88161" lon="2.47837">
        <ele>48.6</ele>
        <time>2023-09-27T13:06:00Z</time>
      </trkpt>
      <trkpt lat="49.88161" lon="2.47837">
        <ele>48.6</ele>
        <time>2023-09-27T13:06:01Z</time>
      </trkpt>
      <trkpt lat="49.88161" lon="2.47837">
        <ele>48.6</ele>
        <time>2023-09-27T13:06:02Z</time>
      </trkpt>
      <trkpt lat="49.8816" lon="2.47837">
        <ele>48.6</ele>
        <time>2023-09-27T13:06:03Z</time>
      </trkpt>
      <trkpt lat="49.8816" lon="2.47837">
        <ele>48.6</ele>
        <time>2023-09-27T13:06:04Z</time>
      </trkpt>
      <trkpt lat="49.8816" lon="2.47837">
        <ele>48.6</ele>
        <time>2023-09-27T13:06:05Z</time>
      </trkpt>
      <trkpt lat="49.8816" lon="2.47837">
        <ele>48.6</ele>
        <time>2023-09-27T13:06:06Z</time>
      </trkpt>
      <trkpt lat="49.8816" lon="2.47837">
        <ele>48.6</ele>
        <time>2023-09-27T13:06:07Z</time>
      </trkpt>
      <trkpt lat="49.8816" lon="2.47837">
        <ele>48.6</ele>
        <time>2023-09-27T13:06:08Z</time>
      </trkpt>
      <trkpt lat="49.8816" lon="2.47838">
        <ele>48.6</ele>
        <time>2023-09-27T13:06:09Z</time>
      </trkpt>
      <trkpt lat="49.8816" lon="2.47838">
        <ele>48.6</ele>
        <time>2023-09-27T13:06:10Z</time>
      </trkpt>
      <trkpt lat="49.8816" lon="2.47838">
        <ele>48.6</ele>
        <time>2023-09-27T13:06:11Z</time>
      </trkpt>
      <trkpt lat="49.8816" lon="2.47838">
        <ele>48.6</ele>
        <time>2023-09-27T13:06:12Z</time>
      </trkpt>
      <trkpt lat="49.8816" lon="2.47838">
        <ele>48.6</ele>
        <time>2023-09-27T13:06:13Z</time>
      </trkpt>
      <trkpt lat="49.8816" lon="2.47838">
        <ele>48.6</ele>
        <time>2023-09-27T13:06:14Z</time>
      </trkpt>
      <trkpt lat="49.8816" lon="2.47838">
        <ele>48.6</ele>
        <time>2023-09-27T13:06:15Z</time>
      </trkpt>
      <trkpt lat="49.8816" lon="2.47838">
        <ele>48.6</ele>
        <time>2023-09-27T13:06:16Z</time>
      </trkpt>
      <trkpt lat="49.8816" lon="2.47838">
        <ele>48.6</ele>
        <time>2023-09-27T13:06:17Z</time>
      </trkpt>
      <trkpt lat="49.8816" lon="2.47838">
        <ele>48.6</ele>
        <time>2023-09-27T13:06:18Z</time>
      </trkpt>
      <trkpt lat="49.8816" lon="2.47838">
        <ele>48.6</ele>
        <time>2023-09-27T13:06:19Z</time>
      </trkpt>
      <trkpt lat="49.8816" lon="2.47838">
        <ele>48.6</ele>
        <time>2023-09-27T13:06:20Z</time>
      </trkpt>
      <trkpt lat="49.8816" lon="2.47838">
        <ele>48.6</ele>
        <time>2023-09-27T13:06:21Z</time>
      </trkpt>
      <trkpt lat="49.8816" lon="2.47838">
        <ele>48.6</ele>
        <time>2023-09-27T13:06:22Z</time>
      </trkpt>
      <trkpt lat="49.8816" lon="2.47838">
        <ele>48.6</ele>
        <time>2023-09-27T13:06:23Z</time>
      </trkpt>
      <trkpt lat="49.8816" lon="2.47838">
        <ele>48.6</ele>
        <time>2023-09-27T13:06:24Z</time>
      </trkpt>
      <trkpt lat="49.8816" lon="2.47838">
        <ele>48.6</ele>
        <time>2023-09-27T13:06:25Z</time>
      </trkpt>
      <trkpt lat="49.8816" lon="2.47838">
        <ele>48.6</ele>
        <time>2023-09-27T13:06:26Z</time>
      </trkpt>
      <trkpt lat="49.8816" lon="2.47838">
        <ele>48.6</ele>
        <time>2023-09-27T13:06:27Z</time>
      </trkpt>
      <trkpt lat="49.8816" lon="2.47838">
        <ele>48.6</ele>
        <time>2023-09-27T13:06:28Z</time>
      </trkpt>
      <trkpt lat="49.8816" lon="2.47838">
        <ele>48.6</ele>
        <time>2023-09-27T13:06:29Z</time>
      </trkpt>
      <trkpt lat="49.8816" lon="2.47838">
        <ele>48.6</ele>
        <time>2023-09-27T13:06:30Z</time>
      </trkpt>
      <trkpt lat="49.8816" lon="2.47838">
        <ele>48.6</ele>
        <time>2023-09-27T13:06:31Z</time>
      </trkpt>
      <trkpt lat="49.8816" lon="2.47838">
        <ele>48.6</ele>
        <time>2023-09-27T13:06:32Z</time>
      </trkpt>
      <trkpt lat="49.8816" lon="2.47838">
        <ele>48.6</ele>
        <time>2023-09-27T13:06:33Z</time>
      </trkpt>
      <trkpt lat="49.8816" lon="2.47838">
        <ele>48.6</ele>
        <time>2023-09-27T13:06:34Z</time>
      </trkpt>
      <trkpt lat="49.8816" lon="2.47838">
        <ele>48.6</ele>
        <time>2023-09-27T13:06:35Z</time>
      </trkpt>
      <trkpt lat="49.8816" lon="2.47838">
        <ele>48.6</ele>
        <time>2023-09-27T13:06:36Z</time>
      </trkpt>
      <trkpt lat="49.8816" lon="2.47838">
        <ele>48.6</ele>
        <time>2023-09-27T13:06:37Z</time>
      </trkpt>
      <trkpt lat="49.8816" lon="2.47838">
        <ele>48.6</ele>
        <time>2023-09-27T13:06:38Z</time>
      </trkpt>
      <trkpt lat="49.8816" lon="2.47838">
        <ele>48.6</ele>
        <time>2023-09-27T13:06:39Z</time>
      </trkpt>
      <trkpt lat="49.8816" lon="2.47838">
        <ele>48.6</ele>
        <time>2023-09-27T13:06:40Z</time>
      </trkpt>
      <trkpt lat="49.8816" lon="2.47838">
        <ele>48.6</ele>
        <time>2023-09-27T13:06:41Z</time>
      </trkpt>
      <trkpt lat="49.8816" lon="2.47838">
        <ele>48.6</ele>
        <time>2023-09-27T13:06:42Z</time>
      </trkpt>
      <trkpt lat="49.8816" lon="2.47838">
        <ele>48.6</ele>
        <time>2023-09-27T13:06:43Z</time>
      </trkpt>
      <trkpt lat="49.8816" lon="2.47838">
        <ele>48.6</ele>
        <time>2023-09-27T13:06:44Z</time>
      </trkpt>
      <trkpt lat="49.8816" lon="2.47838">
        <ele>48.6</ele>
        <time>2023-09-27T13:06:45Z</time>
      </trkpt>
      <trkpt lat="49.8816" lon="2.47838">
        <ele>48.6</ele>
        <time>2023-09-27T13:06:46Z</time>
      </trkpt>
      <trkpt lat="49.8816" lon="2.47838">
        <ele>48.6</ele>
        <time>2023-09-27T13:06:47Z</time>
      </trkpt>
      <trkpt lat="49.8816" lon="2.47838">
        <ele>48.6</ele>
        <time>2023-09-27T13:06:48Z</time>
      </trkpt>
      <trkpt lat="49.8816" lon="2.47838">
        <ele>48.6</ele>
        <time>2023-09-27T13:06:49Z</time>
      </trkpt>
      <trkpt lat="49.8816" lon="2.47838">
        <ele>48.6</ele>
        <time>2023-09-27T13:06:50Z</time>
      </trkpt>
      <trkpt lat="49.8816" lon="2.47838">
        <ele>48.6</ele>
        <time>2023-09-27T13:06:51Z</time>
      </trkpt>
      <trkpt lat="49.8816" lon="2.47838">
        <ele>48.6</ele>
        <time>2023-09-27T13:06:52Z</time>
      </trkpt>
      <trkpt lat="49.8816" lon="2.47838">
        <ele>48.6</ele>
        <time>2023-09-27T13:06:53Z</time>
      </trkpt>
      <trkpt lat="49.8816" lon="2.47838">
        <ele>48.6</ele>
        <time>2023-09-27T13:06:54Z</time>
      </trkpt>
      <trkpt lat="49.8816" lon="2.47838">
        <ele>48.6</ele>
        <time>2023-09-27T13:06:55Z</time>
      </trkpt>
      <trkpt lat="49.88159" lon="2.47838">
        <ele>48.6</ele>
        <time>2023-09-27T13:06:56Z</time>
      </trkpt>
      <trkpt lat="49.88159" lon="2.47838">
        <ele>48.6</ele>
        <time>2023-09-27T13:06:57Z</time>
      </trkpt>
      <trkpt lat="49.88159" lon="2.47838">
        <ele>48.6</ele>
        <time>2023-09-27T13:06:58Z</time>
      </trkpt>
      <trkpt lat="49.88159" lon="2.47838">
        <ele>48.6</ele>
        <time>2023-09-27T13:06:59Z</time>
      </trkpt>
      <trkpt lat="49.88159" lon="2.47838">
        <ele>48.6</ele>
        <time>2023-09-27T13:07:00Z</time>
      </trkpt>
      <trkpt lat="49.88159" lon="2.47838">
        <ele>48.6</ele>
        <time>2023-09-27T13:07:01Z</time>
      </trkpt>
      <trkpt lat="49.88159" lon="2.47838">
        <ele>48.6</ele>
        <time>2023-09-27T13:07:02Z</time>
      </trkpt>
      <trkpt lat="49.88159" lon="2.47838">
        <ele>48.6</ele>
        <time>2023-09-27T13:07:03Z</time>
      </trkpt>
      <trkpt lat="49.88159" lon="2.47838">
        <ele>48.6</ele>
        <time>2023-09-27T13:07:04Z</time>
      </trkpt>
      <trkpt lat="49.88159" lon="2.47838">
        <ele>48.6</ele>
        <time>2023-09-27T13:07:05Z</time>
      </trkpt>
      <trkpt lat="49.88159" lon="2.47838">
        <ele>48.6</ele>
        <time>2023-09-27T13:07:06Z</time>
      </trkpt>
      <trkpt lat="49.88159" lon="2.47838">
        <ele>48.6</ele>
        <time>2023-09-27T13:07:07Z</time>
      </trkpt>
      <trkpt lat="49.88159" lon="2.47838">
        <ele>48.6</ele>
        <time>2023-09-27T13:07:08Z</time>
      </trkpt>
      <trkpt lat="49.88159" lon="2.47838">
        <ele>48.6</ele>
        <time>2023-09-27T13:07:09Z</time>
      </trkpt>
      <trkpt lat="49.88159" lon="2.47838">
        <ele>48.6</ele>
        <time>2023-09-27T13:07:10Z</time>
      </trkpt>
      <trkpt lat="49.88159" lon="2.47838">
        <ele>48.6</ele>
        <time>2023-09-27T13:07:11Z</time>
      </trkpt>
      <trkpt lat="49.88159" lon="2.47838">
        <ele>48.6</ele>
        <time>2023-09-27T13:07:12Z</time>
      </trkpt>
      <trkpt lat="49.88159" lon="2.47838">
        <ele>48.6</ele>
        <time>2023-09-27T13:07:13Z</time>
      </trkpt>
      <trkpt lat="49.88159" lon="2.47838">
        <ele>48.6</ele>
        <time>2023-09-27T13:07:14Z</time>
      </trkpt>
      <trkpt lat="49.88159" lon="2.47838">
        <ele>48.6</ele>
        <time>2023-09-27T13:07:15Z</time>
      </trkpt>
      <trkpt lat="49.88159" lon="2.47838">
        <ele>48.6</ele>
        <time>2023-09-27T13:07:16Z</time>
      </trkpt>
      <trkpt lat="49.88159" lon="2.47838">
        <ele>48.6</ele>
        <time>2023-09-27T13:07:17Z</time>
      </trkpt>
      <trkpt lat="49.88159" lon="2.47838">
        <ele>48.6</ele>
        <time>2023-09-27T13:07:18Z</time>
      </trkpt>
      <trkpt lat="49.88159" lon="2.47838">
        <ele>48.6</ele>
        <time>2023-09-27T13:07:19Z</time>
      </trkpt>
      <trkpt lat="49.88159" lon="2.47838">
        <ele>48.6</ele>
        <time>2023-09-27T13:07:20Z</time>
      </trkpt>
      <trkpt lat="49.88159" lon="2.47838">
        <ele>48.6</ele>
        <time>2023-09-27T13:07:21Z</time>
      </trkpt>
      <trkpt lat="49.88159" lon="2.47838">
        <ele>48.6</ele>
        <time>2023-09-27T13:07:22Z</time>
      </trkpt>
      <trkpt lat="49.88159" lon="2.47838">
        <ele>48.6</ele>
        <time>2023-09-27T13:07:23Z</time>
      </trkpt>
      <trkpt lat="49.88159" lon="2.47838">
        <ele>48.6</ele>
        <time>2023-09-27T13:07:24Z</time>
      </trkpt>
      <trkpt lat="49.88159" lon="2.47838">
        <ele>48.6</ele>
        <time>2023-09-27T13:07:25Z</time>
      </trkpt>
      <trkpt lat="49.88159" lon="2.47838">
        <ele>48.6</ele>
        <time>2023-09-27T13:07:26Z</time>
      </trkpt>
      <trkpt lat="49.88159" lon="2.47838">
        <ele>48.6</ele>
        <time>2023-09-27T13:07:27Z</time>
      </trkpt>
      <trkpt lat="49.88159" lon="2.47838">
        <ele>48.6</ele>
        <time>2023-09-27T13:07:28Z</time>
      </trkpt>
      <trkpt lat="49.88159" lon="2.47838">
        <ele>48.6</ele>
        <time>2023-09-27T13:07:29Z</time>
      </trkpt>
      <trkpt lat="49.88159" lon="2.47838">
        <ele>48.6</ele>
        <time>2023-09-27T13:07:30Z</time>
      </trkpt>
      <trkpt lat="49.88159" lon="2.47838">
        <ele>48.6</ele>
        <time>2023-09-27T13:07:31Z</time>
      </trkpt>
      <trkpt lat="49.88159" lon="2.47838">
        <ele>48.6</ele>
        <time>2023-09-27T13:07:32Z</time>
      </trkpt>
      <trkpt lat="49.88159" lon="2.47838">
        <ele>48.6</ele>
        <time>2023-09-27T13:07:33Z</time>
      </trkpt>
      <trkpt lat="49.88159" lon="2.47838">
        <ele>48.6</ele>
        <time>2023-09-27T13:07:34Z</time>
      </trkpt>
      <trkpt lat="49.88159" lon="2.47838">
        <ele>48.6</ele>
        <time>2023-09-27T13:07:35Z</time>
      </trkpt>
      <trkpt lat="49.88159" lon="2.47838">
        <ele>48.6</ele>
        <time>2023-09-27T13:07:36Z</time>
      </trkpt>
      <trkpt lat="49.88159" lon="2.47839">
        <ele>48.6</ele>
        <time>2023-09-27T13:07:37Z</time>
      </trkpt>
      <trkpt lat="49.88159" lon="2.47839">
        <ele>48.6</ele>
        <time>2023-09-27T13:07:38Z</time>
      </trkpt>
      <trkpt lat="49.88159" lon="2.47839">
        <ele>48.6</ele>
        <time>2023-09-27T13:07:39Z</time>
      </trkpt>
      <trkpt lat="49.88159" lon="2.47839">
        <ele>48.6</ele>
        <time>2023-09-27T13:07:40Z</time>
      </trkpt>
      <trkpt lat="49.88159" lon="2.47839">
        <ele>48.6</ele>
        <time>2023-09-27T13:07:41Z</time>
      </trkpt>
      <trkpt lat="49.88159" lon="2.47839">
        <ele>48.6</ele>
        <time>2023-09-27T13:07:42Z</time>
      </trkpt>
      <trkpt lat="49.88159" lon="2.47839">
        <ele>48.6</ele>
        <time>2023-09-27T13:07:43Z</time>
      </trkpt>
      <trkpt lat="49.88159" lon="2.47839">
        <ele>48.6</ele>
        <time>2023-09-27T13:07:44Z</time>
      </trkpt>
      <trkpt lat="49.88159" lon="2.47839">
        <ele>48.6</ele>
        <time>2023-09-27T13:07:45Z</time>
      </trkpt>
      <trkpt lat="49.88159" lon="2.47839">
        <ele>48.6</ele>
        <time>2023-09-27T13:07:46Z</time>
      </trkpt>
      <trkpt lat="49.88159" lon="2.47839">
        <ele>48.6</ele>
        <time>2023-09-27T13:07:47Z</time>
      </trkpt>
      <trkpt lat="49.88159" lon="2.47839">
        <ele>48.6</ele>
        <time>2023-09-27T13:07:48Z</time>
      </trkpt>
      <trkpt lat="49.88158" lon="2.47839">
        <ele>48.6</ele>
        <time>2023-09-27T13:07:49Z</time>
      </trkpt>
      <trkpt lat="49.88158" lon="2.47839">
        <ele>48.6</ele>
        <time>2023-09-27T13:07:50Z</time>
      </trkpt>
      <trkpt lat="49.88158" lon="2.47839">
        <ele>48.6</ele>
        <time>2023-09-27T13:07:51Z</time>
      </trkpt>
      <trkpt lat="49.88158" lon="2.47839">
        <ele>48.6</ele>
        <time>2023-09-27T13:07:52Z</time>
      </trkpt>
      <trkpt lat="49.88158" lon="2.47839">
        <ele>48.6</ele>
        <time>2023-09-27T13:07:53Z</time>
      </trkpt>
      <trkpt lat="49.88158" lon="2.47839">
        <ele>48.6</ele>
        <time>2023-09-27T13:07:54Z</time>
      </trkpt>
      <trkpt lat="49.88158" lon="2.47839">
        <ele>48.6</ele>
        <time>2023-09-27T13:07:55Z</time>
      </trkpt>
      <trkpt lat="49.88158" lon="2.47839">
        <ele>48.6</ele>
        <time>2023-09-27T13:07:56Z</time>
      </trkpt>
      <trkpt lat="49.88158" lon="2.47839">
        <ele>48.6</ele>
        <time>2023-09-27T13:07:57Z</time>
      </trkpt>
      <trkpt lat="49.88158" lon="2.47839">
        <ele>48.6</ele>
        <time>2023-09-27T13:07:58Z</time>
      </trkpt>
      <trkpt lat="49.88158" lon="2.47839">
        <ele>48.6</ele>
        <time>2023-09-27T13:07:59Z</time>
      </trkpt>
      <trkpt lat="49.88158" lon="2.47839">
        <ele>48.6</ele>
        <time>2023-09-27T13:08:00Z</time>
      </trkpt>
      <trkpt lat="49.88158" lon="2.47839">
        <ele>48.6</ele>
        <time>2023-09-27T13:08:01Z</time>
      </trkpt>
      <trkpt lat="49.88158" lon="2.47839">
        <ele>48.6</ele>
        <time>2023-09-27T13:08:02Z</time>
      </trkpt>
      <trkpt lat="49.88158" lon="2.47839">
        <ele>48.6</ele>
        <time>2023-09-27T13:08:03Z</time>
      </trkpt>
      <trkpt lat="49.88158" lon="2.47839">
        <ele>48.6</ele>
        <time>2023-09-27T13:08:04Z</time>
      </trkpt>
      <trkpt lat="49.88158" lon="2.47839">
        <ele>48.7</ele>
        <time>2023-09-27T13:08:05Z</time>
      </trkpt>
      <trkpt lat="49.88158" lon="2.47839">
        <ele>48.7</ele>
        <time>2023-09-27T13:08:06Z</time>
      </trkpt>
      <trkpt lat="49.88158" lon="2.47839">
        <ele>48.7</ele>
        <time>2023-09-27T13:08:07Z</time>
      </trkpt>
      <trkpt lat="49.88158" lon="2.47839">
        <ele>48.7</ele>
        <time>2023-09-27T13:08:08Z</time>
      </trkpt>
      <trkpt lat="49.88158" lon="2.47839">
        <ele>48.7</ele>
        <time>2023-09-27T13:08:09Z</time>
      </trkpt>
      <trkpt lat="49.88158" lon="2.47839">
        <ele>48.7</ele>
        <time>2023-09-27T13:08:10Z</time>
      </trkpt>
      <trkpt lat="49.88158" lon="2.47839">
        <ele>48.7</ele>
        <time>2023-09-27T13:08:11Z</time>
      </trkpt>
      <trkpt lat="49.88158" lon="2.47839">
        <ele>48.7</ele>
        <time>2023-09-27T13:08:12Z</time>
      </trkpt>
      <trkpt lat="49.88158" lon="2.47839">
        <ele>48.7</ele>
        <time>2023-09-27T13:08:13Z</time>
      </trkpt>
      <trkpt lat="49.88158" lon="2.47839">
        <ele>48.7</ele>
        <time>2023-09-27T13:08:14Z</time>
      </trkpt>
      <trkpt lat="49.88158" lon="2.47839">
        <ele>48.7</ele>
        <time>2023-09-27T13:08:15Z</time>
      </trkpt>
      <trkpt lat="49.88158" lon="2.47839">
        <ele>48.7</ele>
        <time>2023-09-27T13:08:16Z</time>
      </trkpt>
      <trkpt lat="49.88158" lon="2.47839">
        <ele>48.7</ele>
        <time>2023-09-27T13:08:17Z</time>
      </trkpt>
      <trkpt lat="49.88158" lon="2.47839">
        <ele>48.7</ele>
        <time>2023-09-27T13:08:18Z</time>
      </trkpt>
      <trkpt lat="49.88158" lon="2.47839">
        <ele>48.7</ele>
        <time>2023-09-27T13:08:19Z</time>
      </trkpt>
      <trkpt lat="49.88158" lon="2.47839">
        <ele>48.7</ele>
        <time>2023-09-27T13:08:20Z</time>
      </trkpt>
      <trkpt lat="49.88158" lon="2.47839">
        <ele>48.7</ele>
        <time>2023-09-27T13:08:21Z</time>
      </trkpt>
      <trkpt lat="49.88158" lon="2.47839">
        <ele>48.7</ele>
        <time>2023-09-27T13:08:22Z</time>
      </trkpt>
      <trkpt lat="49.88158" lon="2.47839">
        <ele>48.7</ele>
        <time>2023-09-27T13:08:23Z</time>
      </trkpt>
      <trkpt lat="49.88158" lon="2.47839">
        <ele>48.7</ele>
        <time>2023-09-27T13:08:24Z</time>
      </trkpt>
      <trkpt lat="49.88158" lon="2.47839">
        <ele>48.7</ele>
        <time>2023-09-27T13:08:25Z</time>
      </trkpt>
      <trkpt lat="49.88158" lon="2.47839">
        <ele>48.7</ele>
        <time>2023-09-27T13:08:26Z</time>
      </trkpt>
      <trkpt lat="49.88158" lon="2.47839">
        <ele>48.7</ele>
        <time>2023-09-27T13:08:27Z</time>
      </trkpt>
      <trkpt lat="49.88158" lon="2.47839">
        <ele>48.7</ele>
        <time>2023-09-27T13:08:28Z</time>
      </trkpt>
      <trkpt lat="49.88158" lon="2.47839">
        <ele>48.7</ele>
        <time>2023-09-27T13:08:29Z</time>
      </trkpt>
      <trkpt lat="49.88158" lon="2.47839">
        <ele>48.7</ele>
        <time>2023-09-27T13:08:30Z</time>
      </trkpt>
      <trkpt lat="49.88158" lon="2.47839">
        <ele>48.7</ele>
        <time>2023-09-27T13:08:31Z</time>
      </trkpt>
      <trkpt lat="49.88158" lon="2.47839">
        <ele>48.7</ele>
        <time>2023-09-27T13:08:32Z</time>
      </trkpt>
      <trkpt lat="49.88158" lon="2.47839">
        <ele>48.7</ele>
        <time>2023-09-27T13:08:33Z</time>
      </trkpt>
      <trkpt lat="49.88158" lon="2.47839">
        <ele>48.7</ele>
        <time>2023-09-27T13:08:34Z</time>
      </trkpt>
      <trkpt lat="49.88158" lon="2.47839">
        <ele>48.7</ele>
        <time>2023-09-27T13:08:35Z</time>
      </trkpt>
      <trkpt lat="49.88158" lon="2.47839">
        <ele>48.7</ele>
        <time>2023-09-27T13:08:36Z</time>
      </trkpt>
      <trkpt lat="49.88158" lon="2.47839">
        <ele>48.7</ele>
        <time>2023-09-27T13:08:37Z</time>
      </trkpt>
      <trkpt lat="49.88158" lon="2.47839">
        <ele>48.7</ele>
        <time>2023-09-27T13:08:38Z</time>
      </trkpt>
      <trkpt lat="49.88158" lon="2.47839">
        <ele>48.7</ele>
        <time>2023-09-27T13:08:39Z</time>
      </trkpt>
      <trkpt lat="49.88158" lon="2.47839">
        <ele>48.7</ele>
        <time>2023-09-27T13:08:40Z</time>
      </trkpt>
      <trkpt lat="49.88158" lon="2.47839">
        <ele>48.7</ele>
        <time>2023-09-27T13:08:41Z</time>
      </trkpt>
      <trkpt lat="49.88157" lon="2.47839">
        <ele>48.7</ele>
        <time>2023-09-27T13:08:42Z</time>
      </trkpt>
      <trkpt lat="49.88157" lon="2.47839">
        <ele>48.7</ele>
        <time>2023-09-27T13:08:43Z</time>
      </trkpt>
      <trkpt lat="49.88157" lon="2.47839">
        <ele>48.7</ele>
        <time>2023-09-27T13:08:44Z</time>
      </trkpt>
      <trkpt lat="49.88157" lon="2.47839">
        <ele>48.7</ele>
        <time>2023-09-27T13:08:45Z</time>
      </trkpt>
      <trkpt lat="49.88157" lon="2.47839">
        <ele>48.7</ele>
        <time>2023-09-27T13:08:46Z</time>
      </trkpt>
      <trkpt lat="49.88157" lon="2.47839">
        <ele>48.7</ele>
        <time>2023-09-27T13:08:47Z</time>
      </trkpt>
      <trkpt lat="49.88157" lon="2.47839">
        <ele>48.7</ele>
        <time>2023-09-27T13:08:48Z</time>
      </trkpt>
      <trkpt lat="49.88157" lon="2.47839">
        <ele>48.7</ele>
        <time>2023-09-27T13:08:49Z</time>
      </trkpt>
      <trkpt lat="49.88157" lon="2.47839">
        <ele>48.7</ele>
        <time>2023-09-27T13:08:50Z</time>
      </trkpt>
      <trkpt lat="49.88157" lon="2.47839">
        <ele>48.7</ele>
        <time>2023-09-27T13:08:51Z</time>
      </trkpt>
      <trkpt lat="49.88157" lon="2.47839">
        <ele>48.7</ele>
        <time>2023-09-27T13:08:52Z</time>
      </trkpt>
      <trkpt lat="49.88157" lon="2.47839">
        <ele>48.7</ele>
        <time>2023-09-27T13:08:53Z</time>
      </trkpt>
      <trkpt lat="49.88157" lon="2.47839">
        <ele>48.7</ele>
        <time>2023-09-27T13:08:54Z</time>
      </trkpt>
      <trkpt lat="49.88157" lon="2.47839">
        <ele>48.7</ele>
        <time>2023-09-27T13:08:55Z</time>
      </trkpt>
      <trkpt lat="49.88157" lon="2.47839">
        <ele>48.7</ele>
        <time>2023-09-27T13:08:56Z</time>
      </trkpt>
      <trkpt lat="49.88157" lon="2.47839">
        <ele>48.7</ele>
        <time>2023-09-27T13:08:57Z</time>
      </trkpt>
      <trkpt lat="49.88157" lon="2.47839">
        <ele>48.7</ele>
        <time>2023-09-27T13:08:58Z</time>
      </trkpt>
      <trkpt lat="49.88157" lon="2.47839">
        <ele>48.7</ele>
        <time>2023-09-27T13:08:59Z</time>
      </trkpt>
      <trkpt lat="49.88157" lon="2.47839">
        <ele>48.7</ele>
        <time>2023-09-27T13:09:00Z</time>
      </trkpt>
      <trkpt lat="49.88157" lon="2.47839">
        <ele>48.7</ele>
        <time>2023-09-27T13:09:01Z</time>
      </trkpt>
      <trkpt lat="49.88157" lon="2.47839">
        <ele>48.7</ele>
        <time>2023-09-27T13:09:02Z</time>
      </trkpt>
      <trkpt lat="49.88157" lon="2.47839">
        <ele>48.7</ele>
        <time>2023-09-27T13:09:03Z</time>
      </trkpt>
      <trkpt lat="49.88157" lon="2.4784">
        <ele>48.7</ele>
        <time>2023-09-27T13:09:04Z</time>
      </trkpt>
      <trkpt lat="49.88157" lon="2.4784">
        <ele>48.7</ele>
        <time>2023-09-27T13:09:05Z</time>
      </trkpt>
      <trkpt lat="49.88157" lon="2.4784">
        <ele>48.7</ele>
        <time>2023-09-27T13:09:06Z</time>
      </trkpt>
      <trkpt lat="49.88157" lon="2.47839">
        <ele>48.7</ele>
        <time>2023-09-27T13:09:07Z</time>
      </trkpt>
      <trkpt lat="49.88157" lon="2.47839">
        <ele>48.7</ele>
        <time>2023-09-27T13:09:08Z</time>
      </trkpt>
      <trkpt lat="49.88158" lon="2.47839">
        <ele>48.7</ele>
        <time>2023-09-27T13:09:09Z</time>
      </trkpt>
      <trkpt lat="49.88159" lon="2.47839">
        <ele>48.7</ele>
        <time>2023-09-27T13:09:10Z</time>
      </trkpt>
      <trkpt lat="49.8816" lon="2.47839">
        <ele>48.8</ele>
        <time>2023-09-27T13:09:11Z</time>
      </trkpt>
      <trkpt lat="49.88161" lon="2.47839">
        <ele>48.8</ele>
        <time>2023-09-27T13:09:12Z</time>
      </trkpt>
      <trkpt lat="49.88162" lon="2.47839">
        <ele>48.8</ele>
        <time>2023-09-27T13:09:13Z</time>
      </trkpt>
      <trkpt lat="49.88163" lon="2.47838">
        <ele>48.8</ele>
        <time>2023-09-27T13:09:14Z</time>
      </trkpt>
      <trkpt lat="49.88164" lon="2.47838">
        <ele>48.8</ele>
        <time>2023-09-27T13:09:15Z</time>
      </trkpt>
      <trkpt lat="49.88164" lon="2.47838">
        <ele>48.8</ele>
        <time>2023-09-27T13:09:16Z</time>
      </trkpt>
      <trkpt lat="49.88165" lon="2.47837">
        <ele>48.8</ele>
        <time>2023-09-27T13:09:17Z</time>
      </trkpt>
      <trkpt lat="49.88166" lon="2.47837">
        <ele>48.9</ele>
        <time>2023-09-27T13:09:18Z</time>
      </trkpt>
      <trkpt lat="49.88166" lon="2.47837">
        <ele>48.9</ele>
        <time>2023-09-27T13:09:19Z</time>
      </trkpt>
      <trkpt lat="49.88167" lon="2.47836">
        <ele>48.9</ele>
        <time>2023-09-27T13:09:20Z</time>
      </trkpt>
      <trkpt lat="49.88168" lon="2.47836">
        <ele>48.9</ele>
        <time>2023-09-27T13:09:21Z</time>
      </trkpt>
      <trkpt lat="49.88169" lon="2.47835">
        <ele>48.9</ele>
        <time>2023-09-27T13:09:22Z</time>
      </trkpt>
      <trkpt lat="49.8817" lon="2.47835">
        <ele>48.9</ele>
        <time>2023-09-27T13:09:23Z</time>
      </trkpt>
      <trkpt lat="49.8817" lon="2.47834">
        <ele>49</ele>
        <time>2023-09-27T13:09:24Z</time>
      </trkpt>
      <trkpt lat="49.88171" lon="2.47834">
        <ele>49</ele>
        <time>2023-09-27T13:09:25Z</time>
      </trkpt>
      <trkpt lat="49.88172" lon="2.47833">
        <ele>49</ele>
        <time>2023-09-27T13:09:26Z</time>
      </trkpt>
      <trkpt lat="49.88173" lon="2.47833">
        <ele>49</ele>
        <time>2023-09-27T13:09:27Z</time>
      </trkpt>
      <trkpt lat="49.88174" lon="2.47833">
        <ele>49</ele>
        <time>2023-09-27T13:09:28Z</time>
      </trkpt>
      <trkpt lat="49.88175" lon="2.47832">
        <ele>49</ele>
        <time>2023-09-27T13:09:29Z</time>
      </trkpt>
      <trkpt lat="49.88176" lon="2.47832">
        <ele>49.1</ele>
        <time>2023-09-27T13:09:30Z</time>
      </trkpt>
      <trkpt lat="49.88177" lon="2.47831">
        <ele>49.1</ele>
        <time>2023-09-27T13:09:31Z</time>
      </trkpt>
      <trkpt lat="49.88178" lon="2.47831">
        <ele>49.1</ele>
        <time>2023-09-27T13:09:32Z</time>
      </trkpt>
      <trkpt lat="49.88179" lon="2.4783">
        <ele>49.1</ele>
        <time>2023-09-27T13:09:33Z</time>
      </trkpt>
      <trkpt lat="49.8818" lon="2.4783">
        <ele>49.1</ele>
        <time>2023-09-27T13:09:34Z</time>
      </trkpt>
      <trkpt lat="49.88181" lon="2.47829">
        <ele>49.2</ele>
        <time>2023-09-27T13:09:35Z</time>
      </trkpt>
      <trkpt lat="49.88182" lon="2.47828">
        <ele>49.2</ele>
        <time>2023-09-27T13:09:36Z</time>
      </trkpt>
      <trkpt lat="49.88183" lon="2.47827">
        <ele>49.2</ele>
        <time>2023-09-27T13:09:37Z</time>
      </trkpt>
      <trkpt lat="49.88184" lon="2.47827">
        <ele>49.2</ele>
        <time>2023-09-27T13:09:38Z</time>
      </trkpt>
      <trkpt lat="49.88185" lon="2.47826">
        <ele>49.2</ele>
        <time>2023-09-27T13:09:39Z</time>
      </trkpt>
      <trkpt lat="49.88186" lon="2.47825">
        <ele>49.2</ele>
        <time>2023-09-27T13:09:40Z</time>
      </trkpt>
      <trkpt lat="49.88187" lon="2.47825">
        <ele>49.2</ele>
        <time>2023-09-27T13:09:41Z</time>
      </trkpt>
      <trkpt lat="49.88188" lon="2.47824">
        <ele>49.2</ele>
        <time>2023-09-27T13:09:42Z</time>
      </trkpt>
      <trkpt lat="49.88189" lon="2.47824">
        <ele>49.2</ele>
        <time>2023-09-27T13:09:43Z</time>
      </trkpt>
      <trkpt lat="49.8819" lon="2.47823">
        <ele>49.2</ele>
        <time>2023-09-27T13:09:44Z</time>
      </trkpt>
      <trkpt lat="49.88191" lon="2.47823">
        <ele>49.2</ele>
        <time>2023-09-27T13:09:45Z</time>
      </trkpt>
      <trkpt lat="49.88192" lon="2.47822">
        <ele>49.2</ele>
        <time>2023-09-27T13:09:46Z</time>
      </trkpt>
      <trkpt lat="49.88193" lon="2.47822">
        <ele>49.2</ele>
        <time>2023-09-27T13:09:47Z</time>
      </trkpt>
      <trkpt lat="49.88194" lon="2.47821">
        <ele>49.2</ele>
        <time>2023-09-27T13:09:48Z</time>
      </trkpt>
      <trkpt lat="49.88195" lon="2.47821">
        <ele>49.2</ele>
        <time>2023-09-27T13:09:49Z</time>
      </trkpt>
      <trkpt lat="49.88196" lon="2.4782">
        <ele>49.2</ele>
        <time>2023-09-27T13:09:50Z</time>
      </trkpt>
      <trkpt lat="49.88197" lon="2.4782">
        <ele>49.2</ele>
        <time>2023-09-27T13:09:51Z</time>
      </trkpt>
      <trkpt lat="49.88198" lon="2.47819">
        <ele>49.2</ele>
        <time>2023-09-27T13:09:52Z</time>
      </trkpt>
      <trkpt lat="49.88199" lon="2.47819">
        <ele>49.2</ele>
        <time>2023-09-27T13:09:53Z</time>
      </trkpt>
      <trkpt lat="49.882" lon="2.47819">
        <ele>49.2</ele>
        <time>2023-09-27T13:09:54Z</time>
      </trkpt>
      <trkpt lat="49.88201" lon="2.47818">
        <ele>49.2</ele>
        <time>2023-09-27T13:09:55Z</time>
      </trkpt>
      <trkpt lat="49.88201" lon="2.47818">
        <ele>49.2</ele>
        <time>2023-09-27T13:09:56Z</time>
      </trkpt>
      <trkpt lat="49.88202" lon="2.47818">
        <ele>49.2</ele>
        <time>2023-09-27T13:09:57Z</time>
      </trkpt>
      <trkpt lat="49.88203" lon="2.47817">
        <ele>49.2</ele>
        <time>2023-09-27T13:09:58Z</time>
      </trkpt>
      <trkpt lat="49.88203" lon="2.47817">
        <ele>49.2</ele>
        <time>2023-09-27T13:09:59Z</time>
      </trkpt>
      <trkpt lat="49.88204" lon="2.47817">
        <ele>49.2</ele>
        <time>2023-09-27T13:10:00Z</time>
      </trkpt>
      <trkpt lat="49.88204" lon="2.47816">
        <ele>49.2</ele>
        <time>2023-09-27T13:10:01Z</time>
      </trkpt>
      <trkpt lat="49.88205" lon="2.47816">
        <ele>49.2</ele>
        <time>2023-09-27T13:10:02Z</time>
      </trkpt>
      <trkpt lat="49.88206" lon="2.47816">
        <ele>49.2</ele>
        <time>2023-09-27T13:10:03Z</time>
      </trkpt>
      <trkpt lat="49.88206" lon="2.47815">
        <ele>49.2</ele>
        <time>2023-09-27T13:10:04Z</time>
      </trkpt>
      <trkpt lat="49.88207" lon="2.47814">
        <ele>49.2</ele>
        <time>2023-09-27T13:10:05Z</time>
      </trkpt>
      <trkpt lat="49.88208" lon="2.47814">
        <ele>49.2</ele>
        <time>2023-09-27T13:10:06Z</time>
      </trkpt>
      <trkpt lat="49.88208" lon="2.47813">
        <ele>49.2</ele>
        <time>2023-09-27T13:10:07Z</time>
      </trkpt>
      <trkpt lat="49.88209" lon="2.47813">
        <ele>49.2</ele>
        <time>2023-09-27T13:10:08Z</time>
      </trkpt>
      <trkpt lat="49.8821" lon="2.47812">
        <ele>49.2</ele>
        <time>2023-09-27T13:10:09Z</time>
      </trkpt>
      <trkpt lat="49.88211" lon="2.47812">
        <ele>49.2</ele>
        <time>2023-09-27T13:10:10Z</time>
      </trkpt>
      <trkpt lat="49.88212" lon="2.47811">
        <ele>49.2</ele>
        <time>2023-09-27T13:10:11Z</time>
      </trkpt>
      <trkpt lat="49.88213" lon="2.47811">
        <ele>49.2</ele>
        <time>2023-09-27T13:10:12Z</time>
      </trkpt>
      <trkpt lat="49.88213" lon="2.4781">
        <ele>49.2</ele>
        <time>2023-09-27T13:10:13Z</time>
      </trkpt>
      <trkpt lat="49.88214" lon="2.4781">
        <ele>49.2</ele>
        <time>2023-09-27T13:10:14Z</time>
      </trkpt>
      <trkpt lat="49.88215" lon="2.47809">
        <ele>49.2</ele>
        <time>2023-09-27T13:10:15Z</time>
      </trkpt>
      <trkpt lat="49.88216" lon="2.47809">
        <ele>49.3</ele>
        <time>2023-09-27T13:10:16Z</time>
      </trkpt>
      <trkpt lat="49.88217" lon="2.47808">
        <ele>49.3</ele>
        <time>2023-09-27T13:10:17Z</time>
      </trkpt>
      <trkpt lat="49.88218" lon="2.47808">
        <ele>49.3</ele>
        <time>2023-09-27T13:10:18Z</time>
      </trkpt>
      <trkpt lat="49.88219" lon="2.47807">
        <ele>49.3</ele>
        <time>2023-09-27T13:10:19Z</time>
      </trkpt>
      <trkpt lat="49.8822" lon="2.47807">
        <ele>49.3</ele>
        <time>2023-09-27T13:10:20Z</time>
      </trkpt>
      <trkpt lat="49.88221" lon="2.47806">
        <ele>49.3</ele>
        <time>2023-09-27T13:10:21Z</time>
      </trkpt>
      <trkpt lat="49.88222" lon="2.47806">
        <ele>49.3</ele>
        <time>2023-09-27T13:10:22Z</time>
      </trkpt>
      <trkpt lat="49.88223" lon="2.47805">
        <ele>49.3</ele>
        <time>2023-09-27T13:10:23Z</time>
      </trkpt>
      <trkpt lat="49.88224" lon="2.47805">
        <ele>49.3</ele>
        <time>2023-09-27T13:10:24Z</time>
      </trkpt>
      <trkpt lat="49.88225" lon="2.47804">
        <ele>49.3</ele>
        <time>2023-09-27T13:10:25Z</time>
      </trkpt>
      <trkpt lat="49.88226" lon="2.47804">
        <ele>49.3</ele>
        <time>2023-09-27T13:10:26Z</time>
      </trkpt>
      <trkpt lat="49.88226" lon="2.47803">
        <ele>49.3</ele>
        <time>2023-09-27T13:10:27Z</time>
      </trkpt>
      <trkpt lat="49.88227" lon="2.47803">
        <ele>49.3</ele>
        <time>2023-09-27T13:10:28Z</time>
      </trkpt>
      <trkpt lat="49.88228" lon="2.47803">
        <ele>49.4</ele>
        <time>2023-09-27T13:10:29Z</time>
      </trkpt>
      <trkpt lat="49.8823" lon="2.47802">
        <ele>49.4</ele>
        <time>2023-09-27T13:10:30Z</time>
      </trkpt>
      <trkpt lat="49.8823" lon="2.47801">
        <ele>49.4</ele>
        <time>2023-09-27T13:10:31Z</time>
      </trkpt>
      <trkpt lat="49.88231" lon="2.47801">
        <ele>49.4</ele>
        <time>2023-09-27T13:10:32Z</time>
      </trkpt>
      <trkpt lat="49.88232" lon="2.47801">
        <ele>49.4</ele>
        <time>2023-09-27T13:10:33Z</time>
      </trkpt>
      <trkpt lat="49.88233" lon="2.478">
        <ele>49.4</ele>
        <time>2023-09-27T13:10:34Z</time>
      </trkpt>
      <trkpt lat="49.88233" lon="2.478">
        <ele>49.4</ele>
        <time>2023-09-27T13:10:35Z</time>
      </trkpt>
      <trkpt lat="49.88234" lon="2.47799">
        <ele>49.4</ele>
        <time>2023-09-27T13:10:36Z</time>
      </trkpt>
      <trkpt lat="49.88235" lon="2.47799">
        <ele>49.4</ele>
        <time>2023-09-27T13:10:37Z</time>
      </trkpt>
      <trkpt lat="49.88236" lon="2.47798">
        <ele>49.4</ele>
        <time>2023-09-27T13:10:38Z</time>
      </trkpt>
      <trkpt lat="49.88237" lon="2.47798">
        <ele>49.5</ele>
        <time>2023-09-27T13:10:39Z</time>
      </trkpt>
      <trkpt lat="49.88238" lon="2.47797">
        <ele>49.5</ele>
        <time>2023-09-27T13:10:40Z</time>
      </trkpt>
      <trkpt lat="49.88239" lon="2.47797">
        <ele>49.5</ele>
        <time>2023-09-27T13:10:41Z</time>
      </trkpt>
      <trkpt lat="49.8824" lon="2.47796">
        <ele>49.5</ele>
        <time>2023-09-27T13:10:42Z</time>
      </trkpt>
      <trkpt lat="49.88241" lon="2.47796">
        <ele>49.5</ele>
        <time>2023-09-27T13:10:43Z</time>
      </trkpt>
      <trkpt lat="49.88242" lon="2.47795">
        <ele>49.6</ele>
        <time>2023-09-27T13:10:44Z</time>
      </trkpt>
      <trkpt lat="49.88243" lon="2.47794">
        <ele>49.6</ele>
        <time>2023-09-27T13:10:45Z</time>
      </trkpt>
      <trkpt lat="49.88244" lon="2.47794">
        <ele>49.6</ele>
        <time>2023-09-27T13:10:46Z</time>
      </trkpt>
      <trkpt lat="49.88245" lon="2.47794">
        <ele>49.6</ele>
        <time>2023-09-27T13:10:47Z</time>
      </trkpt>
      <trkpt lat="49.88246" lon="2.47793">
        <ele>49.7</ele>
        <time>2023-09-27T13:10:48Z</time>
      </trkpt>
      <trkpt lat="49.88247" lon="2.47792">
        <ele>49.7</ele>
        <time>2023-09-27T13:10:49Z</time>
      </trkpt>
      <trkpt lat="49.88248" lon="2.47792">
        <ele>49.7</ele>
        <time>2023-09-27T13:10:50Z</time>
      </trkpt>
      <trkpt lat="49.88249" lon="2.47791">
        <ele>49.7</ele>
        <time>2023-09-27T13:10:51Z</time>
      </trkpt>
      <trkpt lat="49.8825" lon="2.4779">
        <ele>49.7</ele>
        <time>2023-09-27T13:10:52Z</time>
      </trkpt>
      <trkpt lat="49.88251" lon="2.4779">
        <ele>49.8</ele>
        <time>2023-09-27T13:10:53Z</time>
      </trkpt>
      <trkpt lat="49.88252" lon="2.47789">
        <ele>49.8</ele>
        <time>2023-09-27T13:10:54Z</time>
      </trkpt>
      <trkpt lat="49.88254" lon="2.47788">
        <ele>49.8</ele>
        <time>2023-09-27T13:10:55Z</time>
      </trkpt>
      <trkpt lat="49.88255" lon="2.47788">
        <ele>49.8</ele>
        <time>2023-09-27T13:10:56Z</time>
      </trkpt>
      <trkpt lat="49.88256" lon="2.47788">
        <ele>49.9</ele>
        <time>2023-09-27T13:10:57Z</time>
      </trkpt>
      <trkpt lat="49.88258" lon="2.47787">
        <ele>49.9</ele>
        <time>2023-09-27T13:10:58Z</time>
      </trkpt>
      <trkpt lat="49.88258" lon="2.47786">
        <ele>49.9</ele>
        <time>2023-09-27T13:10:59Z</time>
      </trkpt>
      <trkpt lat="49.88259" lon="2.47786">
        <ele>49.9</ele>
        <time>2023-09-27T13:11:00Z</time>
      </trkpt>
      <trkpt lat="49.8826" lon="2.47786">
        <ele>49.9</ele>
        <time>2023-09-27T13:11:01Z</time>
      </trkpt>
      <trkpt lat="49.88261" lon="2.47785">
        <ele>50</ele>
        <time>2023-09-27T13:11:02Z</time>
      </trkpt>
      <trkpt lat="49.88262" lon="2.47785">
        <ele>50</ele>
        <time>2023-09-27T13:11:03Z</time>
      </trkpt>
      <trkpt lat="49.88264" lon="2.47784">
        <ele>50</ele>
        <time>2023-09-27T13:11:04Z</time>
      </trkpt>
      <trkpt lat="49.88265" lon="2.47784">
        <ele>50</ele>
        <time>2023-09-27T13:11:05Z</time>
      </trkpt>
      <trkpt lat="49.88266" lon="2.47784">
        <ele>50</ele>
        <time>2023-09-27T13:11:06Z</time>
      </trkpt>
      <trkpt lat="49.88267" lon="2.47784">
        <ele>50</ele>
        <time>2023-09-27T13:11:07Z</time>
      </trkpt>
      <trkpt lat="49.88268" lon="2.47783">
        <ele>50</ele>
        <time>2023-09-27T13:11:08Z</time>
      </trkpt>
      <trkpt lat="49.88269" lon="2.47783">
        <ele>50.1</ele>
        <time>2023-09-27T13:11:09Z</time>
      </trkpt>
      <trkpt lat="49.88271" lon="2.47782">
        <ele>50.1</ele>
        <time>2023-09-27T13:11:10Z</time>
      </trkpt>
      <trkpt lat="49.88272" lon="2.47782">
        <ele>50.1</ele>
        <time>2023-09-27T13:11:11Z</time>
      </trkpt>
      <trkpt lat="49.88273" lon="2.47782">
        <ele>50.1</ele>
        <time>2023-09-27T13:11:12Z</time>
      </trkpt>
      <trkpt lat="49.88275" lon="2.47781">
        <ele>50.1</ele>
        <time>2023-09-27T13:11:13Z</time>
      </trkpt>
      <trkpt lat="49.88276" lon="2.47781">
        <ele>50.1</ele>
        <time>2023-09-27T13:11:14Z</time>
      </trkpt>
      <trkpt lat="49.88277" lon="2.47781">
        <ele>50.1</ele>
        <time>2023-09-27T13:11:15Z</time>
      </trkpt>
      <trkpt lat="49.88278" lon="2.4778">
        <ele>50.1</ele>
        <time>2023-09-27T13:11:16Z</time>
      </trkpt>
      <trkpt lat="49.88279" lon="2.4778">
        <ele>50.1</ele>
        <time>2023-09-27T13:11:17Z</time>
      </trkpt>
      <trkpt lat="49.8828" lon="2.47779">
        <ele>50.1</ele>
        <time>2023-09-27T13:11:18Z</time>
      </trkpt>
      <trkpt lat="49.88281" lon="2.47779">
        <ele>50.2</ele>
        <time>2023-09-27T13:11:19Z</time>
      </trkpt>
      <trkpt lat="49.88282" lon="2.47778">
        <ele>50.2</ele>
        <time>2023-09-27T13:11:20Z</time>
      </trkpt>
      <trkpt lat="49.88283" lon="2.47778">
        <ele>50.2</ele>
        <time>2023-09-27T13:11:21Z</time>
      </trkpt>
      <trkpt lat="49.88284" lon="2.47777">
        <ele>50.2</ele>
        <time>2023-09-27T13:11:22Z</time>
      </trkpt>
      <trkpt lat="49.88285" lon="2.47777">
        <ele>50.2</ele>
        <time>2023-09-27T13:11:23Z</time>
      </trkpt>
      <trkpt lat="49.88286" lon="2.47776">
        <ele>50.2</ele>
        <time>2023-09-27T13:11:24Z</time>
      </trkpt>
      <trkpt lat="49.88286" lon="2.47776">
        <ele>50.2</ele>
        <time>2023-09-27T13:11:25Z</time>
      </trkpt>
      <trkpt lat="49.88287" lon="2.47775">
        <ele>50.2</ele>
        <time>2023-09-27T13:11:26Z</time>
      </trkpt>
      <trkpt lat="49.88288" lon="2.47775">
        <ele>50.2</ele>
        <time>2023-09-27T13:11:27Z</time>
      </trkpt>
      <trkpt lat="49.88289" lon="2.47774">
        <ele>50.2</ele>
        <time>2023-09-27T13:11:28Z</time>
      </trkpt>
      <trkpt lat="49.8829" lon="2.47774">
        <ele>50.2</ele>
        <time>2023-09-27T13:11:29Z</time>
      </trkpt>
      <trkpt lat="49.88291" lon="2.47773">
        <ele>50.2</ele>
        <time>2023-09-27T13:11:30Z</time>
      </trkpt>
      <trkpt lat="49.88292" lon="2.47773">
        <ele>50.2</ele>
        <time>2023-09-27T13:11:31Z</time>
      </trkpt>
      <trkpt lat="49.88293" lon="2.47772">
        <ele>50.3</ele>
        <time>2023-09-27T13:11:32Z</time>
      </trkpt>
      <trkpt lat="49.88294" lon="2.47772">
        <ele>50.3</ele>
        <time>2023-09-27T13:11:33Z</time>
      </trkpt>
      <trkpt lat="49.88295" lon="2.47771">
        <ele>50.3</ele>
        <time>2023-09-27T13:11:34Z</time>
      </trkpt>
      <trkpt lat="49.88296" lon="2.47771">
        <ele>50.3</ele>
        <time>2023-09-27T13:11:35Z</time>
      </trkpt>
      <trkpt lat="49.88297" lon="2.4777">
        <ele>50.3</ele>
        <time>2023-09-27T13:11:36Z</time>
      </trkpt>
      <trkpt lat="49.88298" lon="2.47769">
        <ele>50.3</ele>
        <time>2023-09-27T13:11:37Z</time>
      </trkpt>
      <trkpt lat="49.88299" lon="2.47769">
        <ele>50.3</ele>
        <time>2023-09-27T13:11:38Z</time>
      </trkpt>
      <trkpt lat="49.883" lon="2.47768">
        <ele>50.3</ele>
        <time>2023-09-27T13:11:39Z</time>
      </trkpt>
      <trkpt lat="49.88301" lon="2.47768">
        <ele>50.3</ele>
        <time>2023-09-27T13:11:40Z</time>
      </trkpt>
      <trkpt lat="49.88302" lon="2.47767">
        <ele>50.3</ele>
        <time>2023-09-27T13:11:41Z</time>
      </trkpt>
      <trkpt lat="49.88303" lon="2.47766">
        <ele>50.3</ele>
        <time>2023-09-27T13:11:42Z</time>
      </trkpt>
      <trkpt lat="49.88304" lon="2.47766">
        <ele>50.3</ele>
        <time>2023-09-27T13:11:43Z</time>
      </trkpt>
      <trkpt lat="49.88305" lon="2.47765">
        <ele>50.3</ele>
        <time>2023-09-27T13:11:44Z</time>
      </trkpt>
      <trkpt lat="49.88306" lon="2.47765">
        <ele>50.3</ele>
        <time>2023-09-27T13:11:45Z</time>
      </trkpt>
      <trkpt lat="49.88307" lon="2.47764">
        <ele>50.4</ele>
        <time>2023-09-27T13:11:46Z</time>
      </trkpt>
      <trkpt lat="49.88308" lon="2.47763">
        <ele>50.4</ele>
        <time>2023-09-27T13:11:47Z</time>
      </trkpt>
      <trkpt lat="49.88309" lon="2.47763">
        <ele>50.4</ele>
        <time>2023-09-27T13:11:48Z</time>
      </trkpt>
      <trkpt lat="49.8831" lon="2.47763">
        <ele>50.4</ele>
        <time>2023-09-27T13:11:49Z</time>
      </trkpt>
      <trkpt lat="49.88311" lon="2.47762">
        <ele>50.4</ele>
        <time>2023-09-27T13:11:50Z</time>
      </trkpt>
      <trkpt lat="49.88312" lon="2.47762">
        <ele>50.4</ele>
        <time>2023-09-27T13:11:51Z</time>
      </trkpt>
      <trkpt lat="49.88313" lon="2.47761">
        <ele>50.4</ele>
        <time>2023-09-27T13:11:52Z</time>
      </trkpt>
      <trkpt lat="49.88314" lon="2.47761">
        <ele>50.4</ele>
        <time>2023-09-27T13:11:53Z</time>
      </trkpt>
      <trkpt lat="49.88315" lon="2.47761">
        <ele>50.4</ele>
        <time>2023-09-27T13:11:54Z</time>
      </trkpt>
      <trkpt lat="49.88316" lon="2.4776">
        <ele>50.4</ele>
        <time>2023-09-27T13:11:55Z</time>
      </trkpt>
      <trkpt lat="49.88317" lon="2.4776">
        <ele>50.4</ele>
        <time>2023-09-27T13:11:56Z</time>
      </trkpt>
      <trkpt lat="49.88318" lon="2.47759">
        <ele>50.4</ele>
        <time>2023-09-27T13:11:57Z</time>
      </trkpt>
      <trkpt lat="49.88319" lon="2.47759">
        <ele>50.4</ele>
        <time>2023-09-27T13:11:58Z</time>
      </trkpt>
      <trkpt lat="49.8832" lon="2.47758">
        <ele>50.4</ele>
        <time>2023-09-27T13:11:59Z</time>
      </trkpt>
      <trkpt lat="49.88321" lon="2.47758">
        <ele>50.4</ele>
        <time>2023-09-27T13:12:00Z</time>
      </trkpt>
      <trkpt lat="49.88322" lon="2.47757">
        <ele>50.4</ele>
        <time>2023-09-27T13:12:01Z</time>
      </trkpt>
      <trkpt lat="49.88323" lon="2.47757">
        <ele>50.4</ele>
        <time>2023-09-27T13:12:02Z</time>
      </trkpt>
      <trkpt lat="49.88324" lon="2.47757">
        <ele>50.4</ele>
        <time>2023-09-27T13:12:03Z</time>
      </trkpt>
      <trkpt lat="49.88326" lon="2.47756">
        <ele>50.4</ele>
        <time>2023-09-27T13:12:04Z</time>
      </trkpt>
      <trkpt lat="49.88327" lon="2.47756">
        <ele>50.4</ele>
        <time>2023-09-27T13:12:05Z</time>
      </trkpt>
      <trkpt lat="49.88328" lon="2.47755">
        <ele>50.3</ele>
        <time>2023-09-27T13:12:06Z</time>
      </trkpt>
      <trkpt lat="49.8833" lon="2.47755">
        <ele>50.3</ele>
        <time>2023-09-27T13:12:07Z</time>
      </trkpt>
      <trkpt lat="49.88331" lon="2.47754">
        <ele>50.3</ele>
        <time>2023-09-27T13:12:08Z</time>
      </trkpt>
      <trkpt lat="49.88332" lon="2.47754">
        <ele>50.3</ele>
        <time>2023-09-27T13:12:09Z</time>
      </trkpt>
      <trkpt lat="49.88333" lon="2.47754">
        <ele>50.3</ele>
        <time>2023-09-27T13:12:10Z</time>
      </trkpt>
      <trkpt lat="49.88334" lon="2.47753">
        <ele>50.3</ele>
        <time>2023-09-27T13:12:11Z</time>
      </trkpt>
      <trkpt lat="49.88335" lon="2.47753">
        <ele>50.3</ele>
        <time>2023-09-27T13:12:12Z</time>
      </trkpt>
      <trkpt lat="49.88336" lon="2.47752">
        <ele>50.3</ele>
        <time>2023-09-27T13:12:13Z</time>
      </trkpt>
      <trkpt lat="49.88337" lon="2.47752">
        <ele>50.3</ele>
        <time>2023-09-27T13:12:14Z</time>
      </trkpt>
      <trkpt lat="49.88338" lon="2.47752">
        <ele>50.3</ele>
        <time>2023-09-27T13:12:15Z</time>
      </trkpt>
      <trkpt lat="49.8834" lon="2.47751">
        <ele>50.2</ele>
        <time>2023-09-27T13:12:16Z</time>
      </trkpt>
      <trkpt lat="49.88341" lon="2.47751">
        <ele>50.2</ele>
        <time>2023-09-27T13:12:17Z</time>
      </trkpt>
      <trkpt lat="49.88342" lon="2.4775">
        <ele>50.2</ele>
        <time>2023-09-27T13:12:18Z</time>
      </trkpt>
      <trkpt lat="49.88343" lon="2.4775">
        <ele>50.2</ele>
        <time>2023-09-27T13:12:19Z</time>
      </trkpt>
      <trkpt lat="49.88344" lon="2.47749">
        <ele>50.2</ele>
        <time>2023-09-27T13:12:20Z</time>
      </trkpt>
      <trkpt lat="49.88345" lon="2.47749">
        <ele>50.2</ele>
        <time>2023-09-27T13:12:21Z</time>
      </trkpt>
      <trkpt lat="49.88346" lon="2.47749">
        <ele>50.2</ele>
        <time>2023-09-27T13:12:22Z</time>
      </trkpt>
      <trkpt lat="49.88347" lon="2.47748">
        <ele>50.2</ele>
        <time>2023-09-27T13:12:23Z</time>
      </trkpt>
      <trkpt lat="49.88348" lon="2.47748">
        <ele>50.2</ele>
        <time>2023-09-27T13:12:24Z</time>
      </trkpt>
      <trkpt lat="49.88349" lon="2.47747">
        <ele>50.2</ele>
        <time>2023-09-27T13:12:25Z</time>
      </trkpt>
      <trkpt lat="49.8835" lon="2.47747">
        <ele>50.2</ele>
        <time>2023-09-27T13:12:26Z</time>
      </trkpt>
      <trkpt lat="49.8835" lon="2.47746">
        <ele>50.2</ele>
        <time>2023-09-27T13:12:27Z</time>
      </trkpt>
      <trkpt lat="49.88351" lon="2.47746">
        <ele>50.2</ele>
        <time>2023-09-27T13:12:28Z</time>
      </trkpt>
      <trkpt lat="49.88352" lon="2.47746">
        <ele>50.2</ele>
        <time>2023-09-27T13:12:29Z</time>
      </trkpt>
      <trkpt lat="49.88353" lon="2.47745">
        <ele>50.2</ele>
        <time>2023-09-27T13:12:30Z</time>
      </trkpt>
      <trkpt lat="49.88354" lon="2.47745">
        <ele>50.2</ele>
        <time>2023-09-27T13:12:31Z</time>
      </trkpt>
      <trkpt lat="49.88354" lon="2.47744">
        <ele>50.1</ele>
        <time>2023-09-27T13:12:32Z</time>
      </trkpt>
      <trkpt lat="49.88355" lon="2.47744">
        <ele>50.1</ele>
        <time>2023-09-27T13:12:33Z</time>
      </trkpt>
      <trkpt lat="49.88356" lon="2.47743">
        <ele>50.1</ele>
        <time>2023-09-27T13:12:34Z</time>
      </trkpt>
      <trkpt lat="49.88357" lon="2.47743">
        <ele>50.1</ele>
        <time>2023-09-27T13:12:35Z</time>
      </trkpt>
      <trkpt lat="49.88358" lon="2.47742">
        <ele>50.1</ele>
        <time>2023-09-27T13:12:36Z</time>
      </trkpt>
      <trkpt lat="49.88359" lon="2.47742">
        <ele>50.1</ele>
        <time>2023-09-27T13:12:37Z</time>
      </trkpt>
      <trkpt lat="49.88359" lon="2.47741">
        <ele>50</ele>
        <time>2023-09-27T13:12:38Z</time>
      </trkpt>
      <trkpt lat="49.8836" lon="2.47741">
        <ele>50</ele>
        <time>2023-09-27T13:12:39Z</time>
      </trkpt>
      <trkpt lat="49.88361" lon="2.4774">
        <ele>50</ele>
        <time>2023-09-27T13:12:40Z</time>
      </trkpt>
      <trkpt lat="49.88362" lon="2.47739">
        <ele>50</ele>
        <time>2023-09-27T13:12:41Z</time>
      </trkpt>
      <trkpt lat="49.88363" lon="2.47739">
        <ele>49.9</ele>
        <time>2023-09-27T13:12:42Z</time>
      </trkpt>
      <trkpt lat="49.88364" lon="2.47738">
        <ele>49.9</ele>
        <time>2023-09-27T13:12:43Z</time>
      </trkpt>
      <trkpt lat="49.88365" lon="2.47738">
        <ele>49.9</ele>
        <time>2023-09-27T13:12:44Z</time>
      </trkpt>
      <trkpt lat="49.88366" lon="2.47737">
        <ele>49.8</ele>
        <time>2023-09-27T13:12:45Z</time>
      </trkpt>
      <trkpt lat="49.88367" lon="2.47737">
        <ele>49.8</ele>
        <time>2023-09-27T13:12:46Z</time>
      </trkpt>
      <trkpt lat="49.88368" lon="2.47736">
        <ele>49.8</ele>
        <time>2023-09-27T13:12:47Z</time>
      </trkpt>
      <trkpt lat="49.88369" lon="2.47736">
        <ele>49.7</ele>
        <time>2023-09-27T13:12:48Z</time>
      </trkpt>
      <trkpt lat="49.8837" lon="2.47735">
        <ele>49.7</ele>
        <time>2023-09-27T13:12:49Z</time>
      </trkpt>
      <trkpt lat="49.88371" lon="2.47735">
        <ele>49.6</ele>
        <time>2023-09-27T13:12:50Z</time>
      </trkpt>
      <trkpt lat="49.88373" lon="2.47734">
        <ele>49.6</ele>
        <time>2023-09-27T13:12:51Z</time>
      </trkpt>
      <trkpt lat="49.88374" lon="2.47734">
        <ele>49.6</ele>
        <time>2023-09-27T13:12:52Z</time>
      </trkpt>
      <trkpt lat="49.88375" lon="2.47733">
        <ele>49.5</ele>
        <time>2023-09-27T13:12:53Z</time>
      </trkpt>
      <trkpt lat="49.88376" lon="2.47733">
        <ele>49.5</ele>
        <time>2023-09-27T13:12:54Z</time>
      </trkpt>
      <trkpt lat="49.88377" lon="2.47732">
        <ele>49.5</ele>
        <time>2023-09-27T13:12:55Z</time>
      </trkpt>
      <trkpt lat="49.88378" lon="2.47732">
        <ele>49.4</ele>
        <time>2023-09-27T13:12:56Z</time>
      </trkpt>
      <trkpt lat="49.8838" lon="2.47731">
        <ele>49.4</ele>
        <time>2023-09-27T13:12:57Z</time>
      </trkpt>
      <trkpt lat="49.88381" lon="2.47731">
        <ele>49.4</ele>
        <time>2023-09-27T13:12:58Z</time>
      </trkpt>
      <trkpt lat="49.88382" lon="2.4773">
        <ele>49.4</ele>
        <time>2023-09-27T13:12:59Z</time>
      </trkpt>
      <trkpt lat="49.88383" lon="2.4773">
        <ele>49.3</ele>
        <time>2023-09-27T13:13:00Z</time>
      </trkpt>
      <trkpt lat="49.88383" lon="2.47729">
        <ele>49.3</ele>
        <time>2023-09-27T13:13:01Z</time>
      </trkpt>
      <trkpt lat="49.88384" lon="2.47729">
        <ele>49.3</ele>
        <time>2023-09-27T13:13:02Z</time>
      </trkpt>
      <trkpt lat="49.88385" lon="2.47728">
        <ele>49.3</ele>
        <time>2023-09-27T13:13:03Z</time>
      </trkpt>
      <trkpt lat="49.88386" lon="2.47728">
        <ele>49.2</ele>
        <time>2023-09-27T13:13:04Z</time>
      </trkpt>
      <trkpt lat="49.88388" lon="2.47727">
        <ele>49.2</ele>
        <time>2023-09-27T13:13:05Z</time>
      </trkpt>
      <trkpt lat="49.88389" lon="2.47727">
        <ele>49.2</ele>
        <time>2023-09-27T13:13:06Z</time>
      </trkpt>
      <trkpt lat="49.8839" lon="2.47726">
        <ele>49.2</ele>
        <time>2023-09-27T13:13:07Z</time>
      </trkpt>
      <trkpt lat="49.88391" lon="2.47726">
        <ele>49.2</ele>
        <time>2023-09-27T13:13:08Z</time>
      </trkpt>
      <trkpt lat="49.88391" lon="2.47725">
        <ele>49.2</ele>
        <time>2023-09-27T13:13:09Z</time>
      </trkpt>
      <trkpt lat="49.88392" lon="2.47725">
        <ele>49.1</ele>
        <time>2023-09-27T13:13:10Z</time>
      </trkpt>
      <trkpt lat="49.88393" lon="2.47724">
        <ele>49.1</ele>
        <time>2023-09-27T13:13:11Z</time>
      </trkpt>
      <trkpt lat="49.88394" lon="2.47724">
        <ele>49.1</ele>
        <time>2023-09-27T13:13:12Z</time>
      </trkpt>
      <trkpt lat="49.88395" lon="2.47723">
        <ele>49.1</ele>
        <time>2023-09-27T13:13:13Z</time>
      </trkpt>
      <trkpt lat="49.88396" lon="2.47723">
        <ele>49.1</ele>
        <time>2023-09-27T13:13:14Z</time>
      </trkpt>
      <trkpt lat="49.88398" lon="2.47722">
        <ele>49</ele>
        <time>2023-09-27T13:13:15Z</time>
      </trkpt>
      <trkpt lat="49.88398" lon="2.47722">
        <ele>49</ele>
        <time>2023-09-27T13:13:16Z</time>
      </trkpt>
      <trkpt lat="49.88399" lon="2.47721">
        <ele>49</ele>
        <time>2023-09-27T13:13:17Z</time>
      </trkpt>
      <trkpt lat="49.884" lon="2.47721">
        <ele>49</ele>
        <time>2023-09-27T13:13:18Z</time>
      </trkpt>
      <trkpt lat="49.88401" lon="2.47721">
        <ele>49</ele>
        <time>2023-09-27T13:13:19Z</time>
      </trkpt>
      <trkpt lat="49.88402" lon="2.4772">
        <ele>49</ele>
        <time>2023-09-27T13:13:20Z</time>
      </trkpt>
      <trkpt lat="49.88403" lon="2.47719">
        <ele>49</ele>
        <time>2023-09-27T13:13:21Z</time>
      </trkpt>
      <trkpt lat="49.88403" lon="2.47719">
        <ele>49</ele>
        <time>2023-09-27T13:13:22Z</time>
      </trkpt>
      <trkpt lat="49.88404" lon="2.47718">
        <ele>49</ele>
        <time>2023-09-27T13:13:23Z</time>
      </trkpt>
      <trkpt lat="49.88405" lon="2.47718">
        <ele>48.9</ele>
        <time>2023-09-27T13:13:24Z</time>
      </trkpt>
      <trkpt lat="49.88406" lon="2.47718">
        <ele>48.9</ele>
        <time>2023-09-27T13:13:25Z</time>
      </trkpt>
      <trkpt lat="49.88407" lon="2.47717">
        <ele>48.9</ele>
        <time>2023-09-27T13:13:26Z</time>
      </trkpt>
      <trkpt lat="49.88408" lon="2.47717">
        <ele>48.9</ele>
        <time>2023-09-27T13:13:27Z</time>
      </trkpt>
      <trkpt lat="49.88409" lon="2.47716">
        <ele>48.9</ele>
        <time>2023-09-27T13:13:28Z</time>
      </trkpt>
      <trkpt lat="49.8841" lon="2.47716">
        <ele>48.9</ele>
        <time>2023-09-27T13:13:29Z</time>
      </trkpt>
      <trkpt lat="49.88411" lon="2.47715">
        <ele>48.9</ele>
        <time>2023-09-27T13:13:30Z</time>
      </trkpt>
      <trkpt lat="49.88412" lon="2.47715">
        <ele>48.9</ele>
        <time>2023-09-27T13:13:31Z</time>
      </trkpt>
      <trkpt lat="49.88413" lon="2.47714">
        <ele>48.9</ele>
        <time>2023-09-27T13:13:32Z</time>
      </trkpt>
      <trkpt lat="49.88413" lon="2.47714">
        <ele>48.9</ele>
        <time>2023-09-27T13:13:33Z</time>
      </trkpt>
      <trkpt lat="49.88414" lon="2.47713">
        <ele>48.9</ele>
        <time>2023-09-27T13:13:34Z</time>
      </trkpt>
      <trkpt lat="49.88416" lon="2.47713">
        <ele>48.9</ele>
        <time>2023-09-27T13:13:35Z</time>
      </trkpt>
      <trkpt lat="49.88417" lon="2.47713">
        <ele>48.8</ele>
        <time>2023-09-27T13:13:36Z</time>
      </trkpt>
      <trkpt lat="49.88418" lon="2.47712">
        <ele>48.8</ele>
        <time>2023-09-27T13:13:37Z</time>
      </trkpt>
      <trkpt lat="49.88419" lon="2.47712">
        <ele>48.8</ele>
        <time>2023-09-27T13:13:38Z</time>
      </trkpt>
      <trkpt lat="49.8842" lon="2.47711">
        <ele>48.8</ele>
        <time>2023-09-27T13:13:39Z</time>
      </trkpt>
      <trkpt lat="49.88421" lon="2.47711">
        <ele>48.8</ele>
        <time>2023-09-27T13:13:40Z</time>
      </trkpt>
      <trkpt lat="49.88422" lon="2.4771">
        <ele>48.8</ele>
        <time>2023-09-27T13:13:41Z</time>
      </trkpt>
      <trkpt lat="49.88423" lon="2.4771">
        <ele>48.8</ele>
        <time>2023-09-27T13:13:42Z</time>
      </trkpt>
      <trkpt lat="49.88424" lon="2.4771">
        <ele>48.8</ele>
        <time>2023-09-27T13:13:43Z</time>
      </trkpt>
      <trkpt lat="49.88425" lon="2.47709">
        <ele>48.7</ele>
        <time>2023-09-27T13:13:44Z</time>
      </trkpt>
      <trkpt lat="49.88426" lon="2.47709">
        <ele>48.7</ele>
        <time>2023-09-27T13:13:45Z</time>
      </trkpt>
      <trkpt lat="49.88427" lon="2.47708">
        <ele>48.7</ele>
        <time>2023-09-27T13:13:46Z</time>
      </trkpt>
      <trkpt lat="49.88428" lon="2.47708">
        <ele>48.7</ele>
        <time>2023-09-27T13:13:47Z</time>
      </trkpt>
      <trkpt lat="49.88429" lon="2.47707">
        <ele>48.7</ele>
        <time>2023-09-27T13:13:48Z</time>
      </trkpt>
      <trkpt lat="49.8843" lon="2.47707">
        <ele>48.7</ele>
        <time>2023-09-27T13:13:49Z</time>
      </trkpt>
      <trkpt lat="49.88431" lon="2.47706">
        <ele>48.6</ele>
        <time>2023-09-27T13:13:50Z</time>
      </trkpt>
      <trkpt lat="49.88432" lon="2.47705">
        <ele>48.6</ele>
        <time>2023-09-27T13:13:51Z</time>
      </trkpt>
      <trkpt lat="49.88433" lon="2.47705">
        <ele>48.6</ele>
        <time>2023-09-27T13:13:52Z</time>
      </trkpt>
      <trkpt lat="49.88434" lon="2.47704">
        <ele>48.6</ele>
        <time>2023-09-27T13:13:53Z</time>
      </trkpt>
      <trkpt lat="49.88435" lon="2.47704">
        <ele>48.6</ele>
        <time>2023-09-27T13:13:54Z</time>
      </trkpt>
      <trkpt lat="49.88436" lon="2.47703">
        <ele>48.5</ele>
        <time>2023-09-27T13:13:55Z</time>
      </trkpt>
      <trkpt lat="49.88437" lon="2.47703">
        <ele>48.5</ele>
        <time>2023-09-27T13:13:56Z</time>
      </trkpt>
      <trkpt lat="49.88438" lon="2.47702">
        <ele>48.5</ele>
        <time>2023-09-27T13:13:57Z</time>
      </trkpt>
      <trkpt lat="49.88439" lon="2.47702">
        <ele>48.5</ele>
        <time>2023-09-27T13:13:58Z</time>
      </trkpt>
      <trkpt lat="49.8844" lon="2.47701">
        <ele>48.4</ele>
        <time>2023-09-27T13:13:59Z</time>
      </trkpt>
      <trkpt lat="49.88441" lon="2.477">
        <ele>48.4</ele>
        <time>2023-09-27T13:14:00Z</time>
      </trkpt>
      <trkpt lat="49.88442" lon="2.477">
        <ele>48.4</ele>
        <time>2023-09-27T13:14:01Z</time>
      </trkpt>
      <trkpt lat="49.88443" lon="2.477">
        <ele>48.3</ele>
        <time>2023-09-27T13:14:02Z</time>
      </trkpt>
      <trkpt lat="49.88444" lon="2.47699">
        <ele>48.3</ele>
        <time>2023-09-27T13:14:03Z</time>
      </trkpt>
      <trkpt lat="49.88445" lon="2.47698">
        <ele>48.3</ele>
        <time>2023-09-27T13:14:04Z</time>
      </trkpt>
      <trkpt lat="49.88446" lon="2.47698">
        <ele>48.2</ele>
        <time>2023-09-27T13:14:05Z</time>
      </trkpt>
      <trkpt lat="49.88447" lon="2.47697">
        <ele>48.2</ele>
        <time>2023-09-27T13:14:06Z</time>
      </trkpt>
      <trkpt lat="49.88448" lon="2.47697">
        <ele>48.2</ele>
        <time>2023-09-27T13:14:07Z</time>
      </trkpt>
      <trkpt lat="49.88449" lon="2.47696">
        <ele>48.2</ele>
        <time>2023-09-27T13:14:08Z</time>
      </trkpt>
      <trkpt lat="49.8845" lon="2.47695">
        <ele>48.1</ele>
        <time>2023-09-27T13:14:09Z</time>
      </trkpt>
      <trkpt lat="49.88451" lon="2.47695">
        <ele>48.1</ele>
        <time>2023-09-27T13:14:10Z</time>
      </trkpt>
      <trkpt lat="49.88452" lon="2.47694">
        <ele>48.1</ele>
        <time>2023-09-27T13:14:11Z</time>
      </trkpt>
      <trkpt lat="49.88453" lon="2.47694">
        <ele>48</ele>
        <time>2023-09-27T13:14:12Z</time>
      </trkpt>
      <trkpt lat="49.88454" lon="2.47693">
        <ele>48</ele>
        <time>2023-09-27T13:14:13Z</time>
      </trkpt>
      <trkpt lat="49.88455" lon="2.47693">
        <ele>48</ele>
        <time>2023-09-27T13:14:14Z</time>
      </trkpt>
      <trkpt lat="49.88456" lon="2.47692">
        <ele>48</ele>
        <time>2023-09-27T13:14:15Z</time>
      </trkpt>
      <trkpt lat="49.88457" lon="2.47692">
        <ele>48</ele>
        <time>2023-09-27T13:14:16Z</time>
      </trkpt>
      <trkpt lat="49.88458" lon="2.47691">
        <ele>47.9</ele>
        <time>2023-09-27T13:14:17Z</time>
      </trkpt>
      <trkpt lat="49.88459" lon="2.47691">
        <ele>47.9</ele>
        <time>2023-09-27T13:14:18Z</time>
      </trkpt>
      <trkpt lat="49.8846" lon="2.4769">
        <ele>47.9</ele>
        <time>2023-09-27T13:14:19Z</time>
      </trkpt>
      <trkpt lat="49.88461" lon="2.4769">
        <ele>47.9</ele>
        <time>2023-09-27T13:14:20Z</time>
      </trkpt>
      <trkpt lat="49.88462" lon="2.4769">
        <ele>47.9</ele>
        <time>2023-09-27T13:14:21Z</time>
      </trkpt>
      <trkpt lat="49.88463" lon="2.47689">
        <ele>47.8</ele>
        <time>2023-09-27T13:14:22Z</time>
      </trkpt>
      <trkpt lat="49.88465" lon="2.47689">
        <ele>47.8</ele>
        <time>2023-09-27T13:14:23Z</time>
      </trkpt>
      <trkpt lat="49.88466" lon="2.47689">
        <ele>47.8</ele>
        <time>2023-09-27T13:14:24Z</time>
      </trkpt>
      <trkpt lat="49.88467" lon="2.47689">
        <ele>47.8</ele>
        <time>2023-09-27T13:14:25Z</time>
      </trkpt>
      <trkpt lat="49.88469" lon="2.47688">
        <ele>47.8</ele>
        <time>2023-09-27T13:14:26Z</time>
      </trkpt>
      <trkpt lat="49.8847" lon="2.47687">
        <ele>47.8</ele>
        <time>2023-09-27T13:14:27Z</time>
      </trkpt>
      <trkpt lat="49.8847" lon="2.47687">
        <ele>47.8</ele>
        <time>2023-09-27T13:14:28Z</time>
      </trkpt>
      <trkpt lat="49.88471" lon="2.47687">
        <ele>47.7</ele>
        <time>2023-09-27T13:14:29Z</time>
      </trkpt>
      <trkpt lat="49.88472" lon="2.47686">
        <ele>47.7</ele>
        <time>2023-09-27T13:14:30Z</time>
      </trkpt>
      <trkpt lat="49.88473" lon="2.47686">
        <ele>47.7</ele>
        <time>2023-09-27T13:14:31Z</time>
      </trkpt>
      <trkpt lat="49.88475" lon="2.47686">
        <ele>47.7</ele>
        <time>2023-09-27T13:14:32Z</time>
      </trkpt>
      <trkpt lat="49.88476" lon="2.47686">
        <ele>47.6</ele>
        <time>2023-09-27T13:14:33Z</time>
      </trkpt>
      <trkpt lat="49.88477" lon="2.47686">
        <ele>47.6</ele>
        <time>2023-09-27T13:14:34Z</time>
      </trkpt>
      <trkpt lat="49.88478" lon="2.47686">
        <ele>47.6</ele>
        <time>2023-09-27T13:14:35Z</time>
      </trkpt>
      <trkpt lat="49.8848" lon="2.47685">
        <ele>47.5</ele>
        <time>2023-09-27T13:14:36Z</time>
      </trkpt>
      <trkpt lat="49.88481" lon="2.47685">
        <ele>47.5</ele>
        <time>2023-09-27T13:14:37Z</time>
      </trkpt>
      <trkpt lat="49.88482" lon="2.47685">
        <ele>47.5</ele>
        <time>2023-09-27T13:14:38Z</time>
      </trkpt>
      <trkpt lat="49.88483" lon="2.47685">
        <ele>47.5</ele>
        <time>2023-09-27T13:14:39Z</time>
      </trkpt>
      <trkpt lat="49.88484" lon="2.47684">
        <ele>47.5</ele>
        <time>2023-09-27T13:14:40Z</time>
      </trkpt>
      <trkpt lat="49.88484" lon="2.47684">
        <ele>47.5</ele>
        <time>2023-09-27T13:14:41Z</time>
      </trkpt>
      <trkpt lat="49.88485" lon="2.47684">
        <ele>47.4</ele>
        <time>2023-09-27T13:14:42Z</time>
      </trkpt>
      <trkpt lat="49.88486" lon="2.47684">
        <ele>47.4</ele>
        <time>2023-09-27T13:14:43Z</time>
      </trkpt>
      <trkpt lat="49.88487" lon="2.47683">
        <ele>47.4</ele>
        <time>2023-09-27T13:14:44Z</time>
      </trkpt>
      <trkpt lat="49.88488" lon="2.47683">
        <ele>47.4</ele>
        <time>2023-09-27T13:14:45Z</time>
      </trkpt>
      <trkpt lat="49.88489" lon="2.47683">
        <ele>47.4</ele>
        <time>2023-09-27T13:14:46Z</time>
      </trkpt>
      <trkpt lat="49.8849" lon="2.47683">
        <ele>47.4</ele>
        <time>2023-09-27T13:14:47Z</time>
      </trkpt>
      <trkpt lat="49.88491" lon="2.47683">
        <ele>47.4</ele>
        <time>2023-09-27T13:14:48Z</time>
      </trkpt>
      <trkpt lat="49.88492" lon="2.47682">
        <ele>47.3</ele>
        <time>2023-09-27T13:14:49Z</time>
      </trkpt>
      <trkpt lat="49.88493" lon="2.47682">
        <ele>47.3</ele>
        <time>2023-09-27T13:14:50Z</time>
      </trkpt>
      <trkpt lat="49.88494" lon="2.47682">
        <ele>47.3</ele>
        <time>2023-09-27T13:14:51Z</time>
      </trkpt>
      <trkpt lat="49.88495" lon="2.47681">
        <ele>47.3</ele>
        <time>2023-09-27T13:14:52Z</time>
      </trkpt>
      <trkpt lat="49.88496" lon="2.47681">
        <ele>47.3</ele>
        <time>2023-09-27T13:14:53Z</time>
      </trkpt>
      <trkpt lat="49.88497" lon="2.47681">
        <ele>47.3</ele>
        <time>2023-09-27T13:14:54Z</time>
      </trkpt>
      <trkpt lat="49.88498" lon="2.47681">
        <ele>47.2</ele>
        <time>2023-09-27T13:14:55Z</time>
      </trkpt>
      <trkpt lat="49.88499" lon="2.4768">
        <ele>47.2</ele>
        <time>2023-09-27T13:14:56Z</time>
      </trkpt>
      <trkpt lat="49.885" lon="2.4768">
        <ele>47.2</ele>
        <time>2023-09-27T13:14:57Z</time>
      </trkpt>
      <trkpt lat="49.88501" lon="2.4768">
        <ele>47.2</ele>
        <time>2023-09-27T13:14:58Z</time>
      </trkpt>
      <trkpt lat="49.88502" lon="2.47679">
        <ele>47.2</ele>
        <time>2023-09-27T13:14:59Z</time>
      </trkpt>
      <trkpt lat="49.88503" lon="2.47679">
        <ele>47.2</ele>
        <time>2023-09-27T13:15:00Z</time>
      </trkpt>
      <trkpt lat="49.88504" lon="2.47679">
        <ele>47.1</ele>
        <time>2023-09-27T13:15:01Z</time>
      </trkpt>
      <trkpt lat="49.88505" lon="2.47679">
        <ele>47.1</ele>
        <time>2023-09-27T13:15:02Z</time>
      </trkpt>
      <trkpt lat="49.88506" lon="2.47679">
        <ele>47.1</ele>
        <time>2023-09-27T13:15:03Z</time>
      </trkpt>
      <trkpt lat="49.88507" lon="2.47678">
        <ele>47.1</ele>
        <time>2023-09-27T13:15:04Z</time>
      </trkpt>
      <trkpt lat="49.88508" lon="2.47678">
        <ele>47.1</ele>
        <time>2023-09-27T13:15:05Z</time>
      </trkpt>
      <trkpt lat="49.8851" lon="2.47678">
        <ele>47</ele>
        <time>2023-09-27T13:15:06Z</time>
      </trkpt>
      <trkpt lat="49.88511" lon="2.47678">
        <ele>47</ele>
        <time>2023-09-27T13:15:07Z</time>
      </trkpt>
      <trkpt lat="49.88512" lon="2.47677">
        <ele>47</ele>
        <time>2023-09-27T13:15:08Z</time>
      </trkpt>
      <trkpt lat="49.88513" lon="2.47677">
        <ele>47</ele>
        <time>2023-09-27T13:15:09Z</time>
      </trkpt>
      <trkpt lat="49.88515" lon="2.47677">
        <ele>47</ele>
        <time>2023-09-27T13:15:10Z</time>
      </trkpt>
      <trkpt lat="49.88516" lon="2.47677">
        <ele>47</ele>
        <time>2023-09-27T13:15:11Z</time>
      </trkpt>
      <trkpt lat="49.88517" lon="2.47677">
        <ele>47</ele>
        <time>2023-09-27T13:15:12Z</time>
      </trkpt>
      <trkpt lat="49.88518" lon="2.47676">
        <ele>47</ele>
        <time>2023-09-27T13:15:13Z</time>
      </trkpt>
      <trkpt lat="49.88519" lon="2.47676">
        <ele>47</ele>
        <time>2023-09-27T13:15:14Z</time>
      </trkpt>
      <trkpt lat="49.8852" lon="2.47676">
        <ele>46.9</ele>
        <time>2023-09-27T13:15:15Z</time>
      </trkpt>
      <trkpt lat="49.88521" lon="2.47676">
        <ele>46.9</ele>
        <time>2023-09-27T13:15:16Z</time>
      </trkpt>
      <trkpt lat="49.88522" lon="2.47675">
        <ele>46.9</ele>
        <time>2023-09-27T13:15:17Z</time>
      </trkpt>
      <trkpt lat="49.88523" lon="2.47675">
        <ele>46.9</ele>
        <time>2023-09-27T13:15:18Z</time>
      </trkpt>
      <trkpt lat="49.88523" lon="2.47674">
        <ele>46.9</ele>
        <time>2023-09-27T13:15:19Z</time>
      </trkpt>
      <trkpt lat="49.88524" lon="2.47674">
        <ele>46.9</ele>
        <time>2023-09-27T13:15:20Z</time>
      </trkpt>
      <trkpt lat="49.88525" lon="2.47674">
        <ele>46.9</ele>
        <time>2023-09-27T13:15:21Z</time>
      </trkpt>
      <trkpt lat="49.88526" lon="2.47674">
        <ele>46.9</ele>
        <time>2023-09-27T13:15:22Z</time>
      </trkpt>
      <trkpt lat="49.88527" lon="2.47673">
        <ele>46.9</ele>
        <time>2023-09-27T13:15:23Z</time>
      </trkpt>
      <trkpt lat="49.88528" lon="2.47673">
        <ele>46.9</ele>
        <time>2023-09-27T13:15:24Z</time>
      </trkpt>
      <trkpt lat="49.88529" lon="2.47673">
        <ele>46.9</ele>
        <time>2023-09-27T13:15:25Z</time>
      </trkpt>
      <trkpt lat="49.8853" lon="2.47672">
        <ele>46.9</ele>
        <time>2023-09-27T13:15:26Z</time>
      </trkpt>
      <trkpt lat="49.8853" lon="2.47672">
        <ele>46.9</ele>
        <time>2023-09-27T13:15:27Z</time>
      </trkpt>
      <trkpt lat="49.88531" lon="2.47672">
        <ele>46.9</ele>
        <time>2023-09-27T13:15:28Z</time>
      </trkpt>
      <trkpt lat="49.88532" lon="2.47671">
        <ele>46.9</ele>
        <time>2023-09-27T13:15:29Z</time>
      </trkpt>
      <trkpt lat="49.88533" lon="2.47671">
        <ele>46.9</ele>
        <time>2023-09-27T13:15:30Z</time>
      </trkpt>
      <trkpt lat="49.88534" lon="2.47671">
        <ele>46.9</ele>
        <time>2023-09-27T13:15:31Z</time>
      </trkpt>
      <trkpt lat="49.88535" lon="2.4767">
        <ele>46.9</ele>
        <time>2023-09-27T13:15:32Z</time>
      </trkpt>
      <trkpt lat="49.88536" lon="2.4767">
        <ele>46.9</ele>
        <time>2023-09-27T13:15:33Z</time>
      </trkpt>
      <trkpt lat="49.88537" lon="2.47669">
        <ele>46.8</ele>
        <time>2023-09-27T13:15:34Z</time>
      </trkpt>
      <trkpt lat="49.88538" lon="2.47669">
        <ele>46.8</ele>
        <time>2023-09-27T13:15:35Z</time>
      </trkpt>
      <trkpt lat="49.88539" lon="2.47668">
        <ele>46.8</ele>
        <time>2023-09-27T13:15:36Z</time>
      </trkpt>
      <trkpt lat="49.8854" lon="2.47668">
        <ele>46.8</ele>
        <time>2023-09-27T13:15:37Z</time>
      </trkpt>
      <trkpt lat="49.88541" lon="2.47667">
        <ele>46.8</ele>
        <time>2023-09-27T13:15:38Z</time>
      </trkpt>
      <trkpt lat="49.88542" lon="2.47667">
        <ele>46.8</ele>
        <time>2023-09-27T13:15:39Z</time>
      </trkpt>
      <trkpt lat="49.88543" lon="2.47666">
        <ele>46.8</ele>
        <time>2023-09-27T13:15:40Z</time>
      </trkpt>
      <trkpt lat="49.88544" lon="2.47666">
        <ele>46.7</ele>
        <time>2023-09-27T13:15:41Z</time>
      </trkpt>
      <trkpt lat="49.88545" lon="2.47665">
        <ele>46.7</ele>
        <time>2023-09-27T13:15:42Z</time>
      </trkpt>
      <trkpt lat="49.88546" lon="2.47665">
        <ele>46.7</ele>
        <time>2023-09-27T13:15:43Z</time>
      </trkpt>
      <trkpt lat="49.88547" lon="2.47664">
        <ele>46.7</ele>
        <time>2023-09-27T13:15:44Z</time>
      </trkpt>
      <trkpt lat="49.88548" lon="2.47664">
        <ele>46.6</ele>
        <time>2023-09-27T13:15:45Z</time>
      </trkpt>
      <trkpt lat="49.88549" lon="2.47663">
        <ele>46.6</ele>
        <time>2023-09-27T13:15:46Z</time>
      </trkpt>
      <trkpt lat="49.8855" lon="2.47663">
        <ele>46.6</ele>
        <time>2023-09-27T13:15:47Z</time>
      </trkpt>
      <trkpt lat="49.88551" lon="2.47663">
        <ele>46.6</ele>
        <time>2023-09-27T13:15:48Z</time>
      </trkpt>
      <trkpt lat="49.88552" lon="2.47662">
        <ele>46.6</ele>
        <time>2023-09-27T13:15:49Z</time>
      </trkpt>
      <trkpt lat="49.88553" lon="2.47662">
        <ele>46.6</ele>
        <time>2023-09-27T13:15:50Z</time>
      </trkpt>
      <trkpt lat="49.88554" lon="2.47661">
        <ele>46.6</ele>
        <time>2023-09-27T13:15:51Z</time>
      </trkpt>
      <trkpt lat="49.88555" lon="2.47661">
        <ele>46.5</ele>
        <time>2023-09-27T13:15:52Z</time>
      </trkpt>
      <trkpt lat="49.88556" lon="2.4766">
        <ele>46.5</ele>
        <time>2023-09-27T13:15:53Z</time>
      </trkpt>
      <trkpt lat="49.88557" lon="2.4766">
        <ele>46.5</ele>
        <time>2023-09-27T13:15:54Z</time>
      </trkpt>
      <trkpt lat="49.88558" lon="2.47659">
        <ele>46.5</ele>
        <time>2023-09-27T13:15:55Z</time>
      </trkpt>
      <trkpt lat="49.88559" lon="2.47659">
        <ele>46.5</ele>
        <time>2023-09-27T13:15:56Z</time>
      </trkpt>
      <trkpt lat="49.8856" lon="2.47659">
        <ele>46.5</ele>
        <time>2023-09-27T13:15:57Z</time>
      </trkpt>
      <trkpt lat="49.88561" lon="2.47659">
        <ele>46.5</ele>
        <time>2023-09-27T13:15:58Z</time>
      </trkpt>
      <trkpt lat="49.88562" lon="2.47658">
        <ele>46.5</ele>
        <time>2023-09-27T13:15:59Z</time>
      </trkpt>
      <trkpt lat="49.88564" lon="2.47658">
        <ele>46.4</ele>
        <time>2023-09-27T13:16:00Z</time>
      </trkpt>
      <trkpt lat="49.88565" lon="2.47658">
        <ele>46.4</ele>
        <time>2023-09-27T13:16:01Z</time>
      </trkpt>
      <trkpt lat="49.88566" lon="2.47657">
        <ele>46.4</ele>
        <time>2023-09-27T13:16:02Z</time>
      </trkpt>
      <trkpt lat="49.88567" lon="2.47657">
        <ele>46.4</ele>
        <time>2023-09-27T13:16:03Z</time>
      </trkpt>
      <trkpt lat="49.88568" lon="2.47657">
        <ele>46.4</ele>
        <time>2023-09-27T13:16:04Z</time>
      </trkpt>
      <trkpt lat="49.88569" lon="2.47657">
        <ele>46.4</ele>
        <time>2023-09-27T13:16:05Z</time>
      </trkpt>
      <trkpt lat="49.8857" lon="2.47656">
        <ele>46.4</ele>
        <time>2023-09-27T13:16:06Z</time>
      </trkpt>
      <trkpt lat="49.88571" lon="2.47656">
        <ele>46.3</ele>
        <time>2023-09-27T13:16:07Z</time>
      </trkpt>
      <trkpt lat="49.88572" lon="2.47656">
        <ele>46.3</ele>
        <time>2023-09-27T13:16:08Z</time>
      </trkpt>
      <trkpt lat="49.88573" lon="2.47656">
        <ele>46.3</ele>
        <time>2023-09-27T13:16:09Z</time>
      </trkpt>
      <trkpt lat="49.88574" lon="2.47656">
        <ele>46.3</ele>
        <time>2023-09-27T13:16:10Z</time>
      </trkpt>
      <trkpt lat="49.88575" lon="2.47656">
        <ele>46.3</ele>
        <time>2023-09-27T13:16:11Z</time>
      </trkpt>
      <trkpt lat="49.88576" lon="2.47656">
        <ele>46.3</ele>
        <time>2023-09-27T13:16:12Z</time>
      </trkpt>
      <trkpt lat="49.88577" lon="2.47656">
        <ele>46.3</ele>
        <time>2023-09-27T13:16:13Z</time>
      </trkpt>
      <trkpt lat="49.88579" lon="2.47655">
        <ele>46.2</ele>
        <time>2023-09-27T13:16:14Z</time>
      </trkpt>
      <trkpt lat="49.88579" lon="2.47655">
        <ele>46.2</ele>
        <time>2023-09-27T13:16:15Z</time>
      </trkpt>
      <trkpt lat="49.8858" lon="2.47655">
        <ele>46.2</ele>
        <time>2023-09-27T13:16:16Z</time>
      </trkpt>
      <trkpt lat="49.88581" lon="2.47655">
        <ele>46.2</ele>
        <time>2023-09-27T13:16:17Z</time>
      </trkpt>
      <trkpt lat="49.88582" lon="2.47655">
        <ele>46.2</ele>
        <time>2023-09-27T13:16:18Z</time>
      </trkpt>
      <trkpt lat="49.88583" lon="2.47654">
        <ele>46.2</ele>
        <time>2023-09-27T13:16:19Z</time>
      </trkpt>
      <trkpt lat="49.88584" lon="2.47654">
        <ele>46.2</ele>
        <time>2023-09-27T13:16:20Z</time>
      </trkpt>
      <trkpt lat="49.88585" lon="2.47654">
        <ele>46.2</ele>
        <time>2023-09-27T13:16:21Z</time>
      </trkpt>
      <trkpt lat="49.88586" lon="2.47653">
        <ele>46.1</ele>
        <time>2023-09-27T13:16:22Z</time>
      </trkpt>
      <trkpt lat="49.88587" lon="2.47653">
        <ele>46.1</ele>
        <time>2023-09-27T13:16:23Z</time>
      </trkpt>
      <trkpt lat="49.88588" lon="2.47653">
        <ele>46.1</ele>
        <time>2023-09-27T13:16:24Z</time>
      </trkpt>
      <trkpt lat="49.88589" lon="2.47653">
        <ele>46.1</ele>
        <time>2023-09-27T13:16:25Z</time>
      </trkpt>
      <trkpt lat="49.8859" lon="2.47653">
        <ele>46.1</ele>
        <time>2023-09-27T13:16:26Z</time>
      </trkpt>
      <trkpt lat="49.88591" lon="2.47652">
        <ele>46.1</ele>
        <time>2023-09-27T13:16:27Z</time>
      </trkpt>
      <trkpt lat="49.88592" lon="2.47652">
        <ele>46.1</ele>
        <time>2023-09-27T13:16:28Z</time>
      </trkpt>
      <trkpt lat="49.88593" lon="2.47652">
        <ele>46.1</ele>
        <time>2023-09-27T13:16:29Z</time>
      </trkpt>
      <trkpt lat="49.88595" lon="2.47651">
        <ele>46</ele>
        <time>2023-09-27T13:16:30Z</time>
      </trkpt>
      <trkpt lat="49.88596" lon="2.47651">
        <ele>46</ele>
        <time>2023-09-27T13:16:31Z</time>
      </trkpt>
      <trkpt lat="49.88597" lon="2.47651">
        <ele>46</ele>
        <time>2023-09-27T13:16:32Z</time>
      </trkpt>
      <trkpt lat="49.88598" lon="2.4765">
        <ele>46</ele>
        <time>2023-09-27T13:16:33Z</time>
      </trkpt>
      <trkpt lat="49.88599" lon="2.4765">
        <ele>46</ele>
        <time>2023-09-27T13:16:34Z</time>
      </trkpt>
      <trkpt lat="49.886" lon="2.47649">
        <ele>46</ele>
        <time>2023-09-27T13:16:35Z</time>
      </trkpt>
      <trkpt lat="49.88602" lon="2.47649">
        <ele>46</ele>
        <time>2023-09-27T13:16:36Z</time>
      </trkpt>
      <trkpt lat="49.88602" lon="2.47648">
        <ele>46</ele>
        <time>2023-09-27T13:16:37Z</time>
      </trkpt>
      <trkpt lat="49.88603" lon="2.47648">
        <ele>46</ele>
        <time>2023-09-27T13:16:38Z</time>
      </trkpt>
      <trkpt lat="49.88604" lon="2.47648">
        <ele>46</ele>
        <time>2023-09-27T13:16:39Z</time>
      </trkpt>
      <trkpt lat="49.88606" lon="2.47647">
        <ele>46</ele>
        <time>2023-09-27T13:16:40Z</time>
      </trkpt>
      <trkpt lat="49.88607" lon="2.47647">
        <ele>46</ele>
        <time>2023-09-27T13:16:41Z</time>
      </trkpt>
      <trkpt lat="49.88608" lon="2.47647">
        <ele>46</ele>
        <time>2023-09-27T13:16:42Z</time>
      </trkpt>
      <trkpt lat="49.88609" lon="2.47646">
        <ele>46</ele>
        <time>2023-09-27T13:16:43Z</time>
      </trkpt>
      <trkpt lat="49.8861" lon="2.47646">
        <ele>46</ele>
        <time>2023-09-27T13:16:44Z</time>
      </trkpt>
      <trkpt lat="49.88611" lon="2.47646">
        <ele>46</ele>
        <time>2023-09-27T13:16:45Z</time>
      </trkpt>
      <trkpt lat="49.88612" lon="2.47645">
        <ele>46</ele>
        <time>2023-09-27T13:16:46Z</time>
      </trkpt>
      <trkpt lat="49.88613" lon="2.47645">
        <ele>46</ele>
        <time>2023-09-27T13:16:47Z</time>
      </trkpt>
      <trkpt lat="49.88614" lon="2.47645">
        <ele>46</ele>
        <time>2023-09-27T13:16:48Z</time>
      </trkpt>
      <trkpt lat="49.88615" lon="2.47644">
        <ele>46</ele>
        <time>2023-09-27T13:16:49Z</time>
      </trkpt>
      <trkpt lat="49.88616" lon="2.47644">
        <ele>46</ele>
        <time>2023-09-27T13:16:50Z</time>
      </trkpt>
      <trkpt lat="49.88617" lon="2.47644">
        <ele>46</ele>
        <time>2023-09-27T13:16:51Z</time>
      </trkpt>
      <trkpt lat="49.88618" lon="2.47643">
        <ele>46.1</ele>
        <time>2023-09-27T13:16:52Z</time>
      </trkpt>
      <trkpt lat="49.88619" lon="2.47643">
        <ele>46.1</ele>
        <time>2023-09-27T13:16:53Z</time>
      </trkpt>
      <trkpt lat="49.8862" lon="2.47643">
        <ele>46.1</ele>
        <time>2023-09-27T13:16:54Z</time>
      </trkpt>
      <trkpt lat="49.88622" lon="2.47642">
        <ele>46.1</ele>
        <time>2023-09-27T13:16:55Z</time>
      </trkpt>
      <trkpt lat="49.88623" lon="2.47642">
        <ele>46.1</ele>
        <time>2023-09-27T13:16:56Z</time>
      </trkpt>
      <trkpt lat="49.88624" lon="2.47642">
        <ele>46.1</ele>
        <time>2023-09-27T13:16:57Z</time>
      </trkpt>
      <trkpt lat="49.88625" lon="2.47641">
        <ele>46.1</ele>
        <time>2023-09-27T13:16:58Z</time>
      </trkpt>
      <trkpt lat="49.88626" lon="2.47641">
        <ele>46.1</ele>
        <time>2023-09-27T13:16:59Z</time>
      </trkpt>
      <trkpt lat="49.88627" lon="2.47641">
        <ele>46.1</ele>
        <time>2023-09-27T13:17:00Z</time>
      </trkpt>
      <trkpt lat="49.88628" lon="2.47641">
        <ele>46.1</ele>
        <time>2023-09-27T13:17:01Z</time>
      </trkpt>
      <trkpt lat="49.88629" lon="2.47641">
        <ele>46.1</ele>
        <time>2023-09-27T13:17:02Z</time>
      </trkpt>
      <trkpt lat="49.8863" lon="2.4764">
        <ele>46.1</ele>
        <time>2023-09-27T13:17:03Z</time>
      </trkpt>
      <trkpt lat="49.88631" lon="2.4764">
        <ele>46.1</ele>
        <time>2023-09-27T13:17:04Z</time>
      </trkpt>
      <trkpt lat="49.88632" lon="2.47639">
        <ele>46.1</ele>
        <time>2023-09-27T13:17:05Z</time>
      </trkpt>
      <trkpt lat="49.88633" lon="2.47639">
        <ele>46.1</ele>
        <time>2023-09-27T13:17:06Z</time>
      </trkpt>
      <trkpt lat="49.88634" lon="2.47639">
        <ele>46.1</ele>
        <time>2023-09-27T13:17:07Z</time>
      </trkpt>
      <trkpt lat="49.88635" lon="2.47638">
        <ele>46.1</ele>
        <time>2023-09-27T13:17:08Z</time>
      </trkpt>
      <trkpt lat="49.88636" lon="2.47638">
        <ele>46.1</ele>
        <time>2023-09-27T13:17:09Z</time>
      </trkpt>
      <trkpt lat="49.88637" lon="2.47638">
        <ele>46.1</ele>
        <time>2023-09-27T13:17:10Z</time>
      </trkpt>
      <trkpt lat="49.88638" lon="2.47637">
        <ele>46.1</ele>
        <time>2023-09-27T13:17:11Z</time>
      </trkpt>
      <trkpt lat="49.88639" lon="2.47637">
        <ele>46.1</ele>
        <time>2023-09-27T13:17:12Z</time>
      </trkpt>
      <trkpt lat="49.8864" lon="2.47636">
        <ele>46.1</ele>
        <time>2023-09-27T13:17:13Z</time>
      </trkpt>
      <trkpt lat="49.88641" lon="2.47636">
        <ele>46.1</ele>
        <time>2023-09-27T13:17:14Z</time>
      </trkpt>
      <trkpt lat="49.88642" lon="2.47635">
        <ele>46.1</ele>
        <time>2023-09-27T13:17:15Z</time>
      </trkpt>
      <trkpt lat="49.88643" lon="2.47635">
        <ele>46.1</ele>
        <time>2023-09-27T13:17:16Z</time>
      </trkpt>
      <trkpt lat="49.88644" lon="2.47634">
        <ele>46.1</ele>
        <time>2023-09-27T13:17:17Z</time>
      </trkpt>
      <trkpt lat="49.88645" lon="2.47634">
        <ele>46.1</ele>
        <time>2023-09-27T13:17:18Z</time>
      </trkpt>
      <trkpt lat="49.88646" lon="2.47633">
        <ele>46.1</ele>
        <time>2023-09-27T13:17:19Z</time>
      </trkpt>
      <trkpt lat="49.88647" lon="2.47633">
        <ele>46.1</ele>
        <time>2023-09-27T13:17:20Z</time>
      </trkpt>
      <trkpt lat="49.88648" lon="2.47633">
        <ele>46.1</ele>
        <time>2023-09-27T13:17:21Z</time>
      </trkpt>
      <trkpt lat="49.88649" lon="2.47632">
        <ele>46.1</ele>
        <time>2023-09-27T13:17:22Z</time>
      </trkpt>
      <trkpt lat="49.8865" lon="2.47632">
        <ele>46.1</ele>
        <time>2023-09-27T13:17:23Z</time>
      </trkpt>
      <trkpt lat="49.88652" lon="2.47631">
        <ele>46.1</ele>
        <time>2023-09-27T13:17:24Z</time>
      </trkpt>
      <trkpt lat="49.88653" lon="2.47631">
        <ele>46.1</ele>
        <time>2023-09-27T13:17:25Z</time>
      </trkpt>
      <trkpt lat="49.88654" lon="2.47631">
        <ele>46.1</ele>
        <time>2023-09-27T13:17:26Z</time>
      </trkpt>
      <trkpt lat="49.88655" lon="2.4763">
        <ele>46.1</ele>
        <time>2023-09-27T13:17:27Z</time>
      </trkpt>
      <trkpt lat="49.88656" lon="2.4763">
        <ele>46.1</ele>
        <time>2023-09-27T13:17:28Z</time>
      </trkpt>
      <trkpt lat="49.88657" lon="2.4763">
        <ele>46.1</ele>
        <time>2023-09-27T13:17:29Z</time>
      </trkpt>
      <trkpt lat="49.88658" lon="2.47629">
        <ele>46.1</ele>
        <time>2023-09-27T13:17:30Z</time>
      </trkpt>
      <trkpt lat="49.88659" lon="2.47629">
        <ele>46.1</ele>
        <time>2023-09-27T13:17:31Z</time>
      </trkpt>
      <trkpt lat="49.88659" lon="2.47629">
        <ele>46.1</ele>
        <time>2023-09-27T13:17:32Z</time>
      </trkpt>
      <trkpt lat="49.8866" lon="2.47628">
        <ele>46.1</ele>
        <time>2023-09-27T13:17:33Z</time>
      </trkpt>
      <trkpt lat="49.88661" lon="2.47628">
        <ele>46.1</ele>
        <time>2023-09-27T13:17:34Z</time>
      </trkpt>
      <trkpt lat="49.88662" lon="2.47628">
        <ele>46.1</ele>
        <time>2023-09-27T13:17:35Z</time>
      </trkpt>
      <trkpt lat="49.88663" lon="2.47627">
        <ele>46.1</ele>
        <time>2023-09-27T13:17:36Z</time>
      </trkpt>
      <trkpt lat="49.88664" lon="2.47627">
        <ele>46.1</ele>
        <time>2023-09-27T13:17:37Z</time>
      </trkpt>
      <trkpt lat="49.88665" lon="2.47626">
        <ele>46.1</ele>
        <time>2023-09-27T13:17:38Z</time>
      </trkpt>
      <trkpt lat="49.88666" lon="2.47626">
        <ele>46.1</ele>
        <time>2023-09-27T13:17:39Z</time>
      </trkpt>
      <trkpt lat="49.88667" lon="2.47626">
        <ele>46.1</ele>
        <time>2023-09-27T13:17:40Z</time>
      </trkpt>
      <trkpt lat="49.88668" lon="2.47625">
        <ele>46.1</ele>
        <time>2023-09-27T13:17:41Z</time>
      </trkpt>
      <trkpt lat="49.88669" lon="2.47625">
        <ele>46.1</ele>
        <time>2023-09-27T13:17:42Z</time>
      </trkpt>
      <trkpt lat="49.8867" lon="2.47625">
        <ele>46.1</ele>
        <time>2023-09-27T13:17:43Z</time>
      </trkpt>
      <trkpt lat="49.88671" lon="2.47624">
        <ele>46.1</ele>
        <time>2023-09-27T13:17:44Z</time>
      </trkpt>
      <trkpt lat="49.88672" lon="2.47624">
        <ele>46.1</ele>
        <time>2023-09-27T13:17:45Z</time>
      </trkpt>
      <trkpt lat="49.88673" lon="2.47624">
        <ele>46.1</ele>
        <time>2023-09-27T13:17:46Z</time>
      </trkpt>
      <trkpt lat="49.88675" lon="2.47624">
        <ele>46.1</ele>
        <time>2023-09-27T13:17:47Z</time>
      </trkpt>
      <trkpt lat="49.88676" lon="2.47624">
        <ele>46.1</ele>
        <time>2023-09-27T13:17:48Z</time>
      </trkpt>
      <trkpt lat="49.88677" lon="2.47623">
        <ele>46.1</ele>
        <time>2023-09-27T13:17:49Z</time>
      </trkpt>
      <trkpt lat="49.88678" lon="2.47623">
        <ele>46.1</ele>
        <time>2023-09-27T13:17:50Z</time>
      </trkpt>
      <trkpt lat="49.88679" lon="2.47623">
        <ele>46.1</ele>
        <time>2023-09-27T13:17:51Z</time>
      </trkpt>
      <trkpt lat="49.8868" lon="2.47623">
        <ele>46.1</ele>
        <time>2023-09-27T13:17:52Z</time>
      </trkpt>
      <trkpt lat="49.88681" lon="2.47623">
        <ele>46.1</ele>
        <time>2023-09-27T13:17:53Z</time>
      </trkpt>
      <trkpt lat="49.88682" lon="2.47622">
        <ele>46.1</ele>
        <time>2023-09-27T13:17:54Z</time>
      </trkpt>
      <trkpt lat="49.88683" lon="2.47622">
        <ele>46.1</ele>
        <time>2023-09-27T13:17:55Z</time>
      </trkpt>
      <trkpt lat="49.88684" lon="2.47622">
        <ele>46.1</ele>
        <time>2023-09-27T13:17:56Z</time>
      </trkpt>
      <trkpt lat="49.88686" lon="2.47622">
        <ele>46.1</ele>
        <time>2023-09-27T13:17:57Z</time>
      </trkpt>
      <trkpt lat="49.88687" lon="2.47622">
        <ele>46</ele>
        <time>2023-09-27T13:17:58Z</time>
      </trkpt>
      <trkpt lat="49.88688" lon="2.47621">
        <ele>46</ele>
        <time>2023-09-27T13:17:59Z</time>
      </trkpt>
      <trkpt lat="49.88689" lon="2.47621">
        <ele>46</ele>
        <time>2023-09-27T13:18:00Z</time>
      </trkpt>
      <trkpt lat="49.8869" lon="2.47621">
        <ele>46</ele>
        <time>2023-09-27T13:18:01Z</time>
      </trkpt>
      <trkpt lat="49.88691" lon="2.4762">
        <ele>46</ele>
        <time>2023-09-27T13:18:02Z</time>
      </trkpt>
      <trkpt lat="49.88692" lon="2.4762">
        <ele>46</ele>
        <time>2023-09-27T13:18:03Z</time>
      </trkpt>
      <trkpt lat="49.88693" lon="2.4762">
        <ele>46</ele>
        <time>2023-09-27T13:18:04Z</time>
      </trkpt>
      <trkpt lat="49.88694" lon="2.47619">
        <ele>46</ele>
        <time>2023-09-27T13:18:05Z</time>
      </trkpt>
      <trkpt lat="49.88695" lon="2.47619">
        <ele>46</ele>
        <time>2023-09-27T13:18:06Z</time>
      </trkpt>
      <trkpt lat="49.88696" lon="2.47619">
        <ele>46</ele>
        <time>2023-09-27T13:18:07Z</time>
      </trkpt>
      <trkpt lat="49.88697" lon="2.47618">
        <ele>46</ele>
        <time>2023-09-27T13:18:08Z</time>
      </trkpt>
      <trkpt lat="49.88698" lon="2.47618">
        <ele>46</ele>
        <time>2023-09-27T13:18:09Z</time>
      </trkpt>
      <trkpt lat="49.88699" lon="2.47618">
        <ele>46</ele>
        <time>2023-09-27T13:18:10Z</time>
      </trkpt>
      <trkpt lat="49.887" lon="2.47618">
        <ele>46</ele>
        <time>2023-09-27T13:18:11Z</time>
      </trkpt>
      <trkpt lat="49.88701" lon="2.47617">
        <ele>46</ele>
        <time>2023-09-27T13:18:12Z</time>
      </trkpt>
      <trkpt lat="49.88702" lon="2.47617">
        <ele>46</ele>
        <time>2023-09-27T13:18:13Z</time>
      </trkpt>
      <trkpt lat="49.88703" lon="2.47617">
        <ele>46</ele>
        <time>2023-09-27T13:18:14Z</time>
      </trkpt>
      <trkpt lat="49.88704" lon="2.47616">
        <ele>46</ele>
        <time>2023-09-27T13:18:15Z</time>
      </trkpt>
      <trkpt lat="49.88705" lon="2.47616">
        <ele>46</ele>
        <time>2023-09-27T13:18:16Z</time>
      </trkpt>
      <trkpt lat="49.88706" lon="2.47616">
        <ele>46</ele>
        <time>2023-09-27T13:18:17Z</time>
      </trkpt>
      <trkpt lat="49.88707" lon="2.47616">
        <ele>46</ele>
        <time>2023-09-27T13:18:18Z</time>
      </trkpt>
      <trkpt lat="49.88708" lon="2.47616">
        <ele>46</ele>
        <time>2023-09-27T13:18:19Z</time>
      </trkpt>
      <trkpt lat="49.88709" lon="2.47615">
        <ele>46</ele>
        <time>2023-09-27T13:18:20Z</time>
      </trkpt>
      <trkpt lat="49.8871" lon="2.47615">
        <ele>46</ele>
        <time>2023-09-27T13:18:21Z</time>
      </trkpt>
      <trkpt lat="49.88711" lon="2.47615">
        <ele>46</ele>
        <time>2023-09-27T13:18:22Z</time>
      </trkpt>
      <trkpt lat="49.88712" lon="2.47615">
        <ele>46</ele>
        <time>2023-09-27T13:18:23Z</time>
      </trkpt>
      <trkpt lat="49.88713" lon="2.47614">
        <ele>46</ele>
        <time>2023-09-27T13:18:24Z</time>
      </trkpt>
      <trkpt lat="49.88715" lon="2.47614">
        <ele>46</ele>
        <time>2023-09-27T13:18:25Z</time>
      </trkpt>
      <trkpt lat="49.88715" lon="2.47614">
        <ele>46</ele>
        <time>2023-09-27T13:18:26Z</time>
      </trkpt>
      <trkpt lat="49.88716" lon="2.47614">
        <ele>46</ele>
        <time>2023-09-27T13:18:27Z</time>
      </trkpt>
      <trkpt lat="49.88717" lon="2.47614">
        <ele>46</ele>
        <time>2023-09-27T13:18:28Z</time>
      </trkpt>
      <trkpt lat="49.88719" lon="2.47613">
        <ele>46</ele>
        <time>2023-09-27T13:18:29Z</time>
      </trkpt>
      <trkpt lat="49.8872" lon="2.47613">
        <ele>46.1</ele>
        <time>2023-09-27T13:18:30Z</time>
      </trkpt>
      <trkpt lat="49.88721" lon="2.47613">
        <ele>46.1</ele>
        <time>2023-09-27T13:18:31Z</time>
      </trkpt>
      <trkpt lat="49.88722" lon="2.47613">
        <ele>46.1</ele>
        <time>2023-09-27T13:18:32Z</time>
      </trkpt>
      <trkpt lat="49.88723" lon="2.47612">
        <ele>46.1</ele>
        <time>2023-09-27T13:18:33Z</time>
      </trkpt>
      <trkpt lat="49.88724" lon="2.47612">
        <ele>46.1</ele>
        <time>2023-09-27T13:18:34Z</time>
      </trkpt>
      <trkpt lat="49.88725" lon="2.47612">
        <ele>46.1</ele>
        <time>2023-09-27T13:18:35Z</time>
      </trkpt>
      <trkpt lat="49.88726" lon="2.47611">
        <ele>46.2</ele>
        <time>2023-09-27T13:18:36Z</time>
      </trkpt>
      <trkpt lat="49.88727" lon="2.47611">
        <ele>46.2</ele>
        <time>2023-09-27T13:18:37Z</time>
      </trkpt>
      <trkpt lat="49.88728" lon="2.47611">
        <ele>46.2</ele>
        <time>2023-09-27T13:18:38Z</time>
      </trkpt>
      <trkpt lat="49.88729" lon="2.47611">
        <ele>46.2</ele>
        <time>2023-09-27T13:18:39Z</time>
      </trkpt>
      <trkpt lat="49.8873" lon="2.4761">
        <ele>46.2</ele>
        <time>2023-09-27T13:18:40Z</time>
      </trkpt>
      <trkpt lat="49.88731" lon="2.4761">
        <ele>46.3</ele>
        <time>2023-09-27T13:18:41Z</time>
      </trkpt>
      <trkpt lat="49.88732" lon="2.4761">
        <ele>46.3</ele>
        <time>2023-09-27T13:18:42Z</time>
      </trkpt>
      <trkpt lat="49.88733" lon="2.47609">
        <ele>46.3</ele>
        <time>2023-09-27T13:18:43Z</time>
      </trkpt>
      <trkpt lat="49.88734" lon="2.47609">
        <ele>46.3</ele>
        <time>2023-09-27T13:18:44Z</time>
      </trkpt>
      <trkpt lat="49.88735" lon="2.47609">
        <ele>46.4</ele>
        <time>2023-09-27T13:18:45Z</time>
      </trkpt>
      <trkpt lat="49.88736" lon="2.47608">
        <ele>46.4</ele>
        <time>2023-09-27T13:18:46Z</time>
      </trkpt>
      <trkpt lat="49.88737" lon="2.47608">
        <ele>46.4</ele>
        <time>2023-09-27T13:18:47Z</time>
      </trkpt>
      <trkpt lat="49.88738" lon="2.47608">
        <ele>46.4</ele>
        <time>2023-09-27T13:18:48Z</time>
      </trkpt>
      <trkpt lat="49.88739" lon="2.47607">
        <ele>46.4</ele>
        <time>2023-09-27T13:18:49Z</time>
      </trkpt>
      <trkpt lat="49.8874" lon="2.47607">
        <ele>46.4</ele>
        <time>2023-09-27T13:18:50Z</time>
      </trkpt>
      <trkpt lat="49.88741" lon="2.47607">
        <ele>46.4</ele>
        <time>2023-09-27T13:18:51Z</time>
      </trkpt>
      <trkpt lat="49.88742" lon="2.47606">
        <ele>46.4</ele>
        <time>2023-09-27T13:18:52Z</time>
      </trkpt>
      <trkpt lat="49.88743" lon="2.47606">
        <ele>46.4</ele>
        <time>2023-09-27T13:18:53Z</time>
      </trkpt>
      <trkpt lat="49.88744" lon="2.47605">
        <ele>46.4</ele>
        <time>2023-09-27T13:18:54Z</time>
      </trkpt>
      <trkpt lat="49.88745" lon="2.47605">
        <ele>46.4</ele>
        <time>2023-09-27T13:18:55Z</time>
      </trkpt>
      <trkpt lat="49.88746" lon="2.47605">
        <ele>46.4</ele>
        <time>2023-09-27T13:18:56Z</time>
      </trkpt>
      <trkpt lat="49.88747" lon="2.47604">
        <ele>46.4</ele>
        <time>2023-09-27T13:18:57Z</time>
      </trkpt>
      <trkpt lat="49.88748" lon="2.47604">
        <ele>46.4</ele>
        <time>2023-09-27T13:18:58Z</time>
      </trkpt>
      <trkpt lat="49.88749" lon="2.47603">
        <ele>46.4</ele>
        <time>2023-09-27T13:18:59Z</time>
      </trkpt>
      <trkpt lat="49.8875" lon="2.47603">
        <ele>46.4</ele>
        <time>2023-09-27T13:19:00Z</time>
      </trkpt>
      <trkpt lat="49.88752" lon="2.47603">
        <ele>46.4</ele>
        <time>2023-09-27T13:19:01Z</time>
      </trkpt>
      <trkpt lat="49.88753" lon="2.47602">
        <ele>46.4</ele>
        <time>2023-09-27T13:19:02Z</time>
      </trkpt>
      <trkpt lat="49.88754" lon="2.47602">
        <ele>46.4</ele>
        <time>2023-09-27T13:19:03Z</time>
      </trkpt>
      <trkpt lat="49.88755" lon="2.47601">
        <ele>46.4</ele>
        <time>2023-09-27T13:19:04Z</time>
      </trkpt>
      <trkpt lat="49.88756" lon="2.47601">
        <ele>46.4</ele>
        <time>2023-09-27T13:19:05Z</time>
      </trkpt>
      <trkpt lat="49.88757" lon="2.47601">
        <ele>46.4</ele>
        <time>2023-09-27T13:19:06Z</time>
      </trkpt>
      <trkpt lat="49.88759" lon="2.476">
        <ele>46.4</ele>
        <time>2023-09-27T13:19:07Z</time>
      </trkpt>
      <trkpt lat="49.8876" lon="2.476">
        <ele>46.4</ele>
        <time>2023-09-27T13:19:08Z</time>
      </trkpt>
      <trkpt lat="49.88761" lon="2.476">
        <ele>46.4</ele>
        <time>2023-09-27T13:19:09Z</time>
      </trkpt>
      <trkpt lat="49.88762" lon="2.47599">
        <ele>46.4</ele>
        <time>2023-09-27T13:19:10Z</time>
      </trkpt>
      <trkpt lat="49.88763" lon="2.47599">
        <ele>46.4</ele>
        <time>2023-09-27T13:19:11Z</time>
      </trkpt>
      <trkpt lat="49.88764" lon="2.47599">
        <ele>46.4</ele>
        <time>2023-09-27T13:19:12Z</time>
      </trkpt>
      <trkpt lat="49.88765" lon="2.47599">
        <ele>46.4</ele>
        <time>2023-09-27T13:19:13Z</time>
      </trkpt>
      <trkpt lat="49.88766" lon="2.47599">
        <ele>46.4</ele>
        <time>2023-09-27T13:19:14Z</time>
      </trkpt>
      <trkpt lat="49.88767" lon="2.47599">
        <ele>46.4</ele>
        <time>2023-09-27T13:19:15Z</time>
      </trkpt>
      <trkpt lat="49.88769" lon="2.47598">
        <ele>46.4</ele>
        <time>2023-09-27T13:19:16Z</time>
      </trkpt>
      <trkpt lat="49.8877" lon="2.47598">
        <ele>46.4</ele>
        <time>2023-09-27T13:19:17Z</time>
      </trkpt>
      <trkpt lat="49.88771" lon="2.47598">
        <ele>46.4</ele>
        <time>2023-09-27T13:19:18Z</time>
      </trkpt>
      <trkpt lat="49.88772" lon="2.47598">
        <ele>46.4</ele>
        <time>2023-09-27T13:19:19Z</time>
      </trkpt>
      <trkpt lat="49.88773" lon="2.47598">
        <ele>46.4</ele>
        <time>2023-09-27T13:19:20Z</time>
      </trkpt>
      <trkpt lat="49.88773" lon="2.47598">
        <ele>46.4</ele>
        <time>2023-09-27T13:19:21Z</time>
      </trkpt>
      <trkpt lat="49.88774" lon="2.47598">
        <ele>46.4</ele>
        <time>2023-09-27T13:19:22Z</time>
      </trkpt>
      <trkpt lat="49.88775" lon="2.47598">
        <ele>46.4</ele>
        <time>2023-09-27T13:19:23Z</time>
      </trkpt>
      <trkpt lat="49.88776" lon="2.47597">
        <ele>46.4</ele>
        <time>2023-09-27T13:19:24Z</time>
      </trkpt>
      <trkpt lat="49.88777" lon="2.47597">
        <ele>46.4</ele>
        <time>2023-09-27T13:19:25Z</time>
      </trkpt>
      <trkpt lat="49.88778" lon="2.47597">
        <ele>46.4</ele>
        <time>2023-09-27T13:19:26Z</time>
      </trkpt>
      <trkpt lat="49.88779" lon="2.47597">
        <ele>46.4</ele>
        <time>2023-09-27T13:19:27Z</time>
      </trkpt>
      <trkpt lat="49.8878" lon="2.47597">
        <ele>46.4</ele>
        <time>2023-09-27T13:19:28Z</time>
      </trkpt>
      <trkpt lat="49.88781" lon="2.47597">
        <ele>46.4</ele>
        <time>2023-09-27T13:19:29Z</time>
      </trkpt>
      <trkpt lat="49.88782" lon="2.47596">
        <ele>46.4</ele>
        <time>2023-09-27T13:19:30Z</time>
      </trkpt>
      <trkpt lat="49.88783" lon="2.47596">
        <ele>46.4</ele>
        <time>2023-09-27T13:19:31Z</time>
      </trkpt>
      <trkpt lat="49.88783" lon="2.47596">
        <ele>46.4</ele>
        <time>2023-09-27T13:19:32Z</time>
      </trkpt>
      <trkpt lat="49.88784" lon="2.47596">
        <ele>46.4</ele>
        <time>2023-09-27T13:19:33Z</time>
      </trkpt>
      <trkpt lat="49.88785" lon="2.47595">
        <ele>46.4</ele>
        <time>2023-09-27T13:19:34Z</time>
      </trkpt>
      <trkpt lat="49.88786" lon="2.47595">
        <ele>46.4</ele>
        <time>2023-09-27T13:19:35Z</time>
      </trkpt>
      <trkpt lat="49.88787" lon="2.47595">
        <ele>46.4</ele>
        <time>2023-09-27T13:19:36Z</time>
      </trkpt>
      <trkpt lat="49.88788" lon="2.47594">
        <ele>46.4</ele>
        <time>2023-09-27T13:19:37Z</time>
      </trkpt>
      <trkpt lat="49.88789" lon="2.47594">
        <ele>46.4</ele>
        <time>2023-09-27T13:19:38Z</time>
      </trkpt>
      <trkpt lat="49.8879" lon="2.47594">
        <ele>46.4</ele>
        <time>2023-09-27T13:19:39Z</time>
      </trkpt>
      <trkpt lat="49.88791" lon="2.47593">
        <ele>46.3</ele>
        <time>2023-09-27T13:19:40Z</time>
      </trkpt>
      <trkpt lat="49.88792" lon="2.47593">
        <ele>46.3</ele>
        <time>2023-09-27T13:19:41Z</time>
      </trkpt>
      <trkpt lat="49.88793" lon="2.47593">
        <ele>46.3</ele>
        <time>2023-09-27T13:19:42Z</time>
      </trkpt>
      <trkpt lat="49.88794" lon="2.47592">
        <ele>46.3</ele>
        <time>2023-09-27T13:19:43Z</time>
      </trkpt>
      <trkpt lat="49.88795" lon="2.47592">
        <ele>46.3</ele>
        <time>2023-09-27T13:19:44Z</time>
      </trkpt>
      <trkpt lat="49.88796" lon="2.47592">
        <ele>46.3</ele>
        <time>2023-09-27T13:19:45Z</time>
      </trkpt>
      <trkpt lat="49.88797" lon="2.47591">
        <ele>46.3</ele>
        <time>2023-09-27T13:19:46Z</time>
      </trkpt>
      <trkpt lat="49.88798" lon="2.47591">
        <ele>46.3</ele>
        <time>2023-09-27T13:19:47Z</time>
      </trkpt>
      <trkpt lat="49.88799" lon="2.47591">
        <ele>46.3</ele>
        <time>2023-09-27T13:19:48Z</time>
      </trkpt>
      <trkpt lat="49.888" lon="2.4759">
        <ele>46.2</ele>
        <time>2023-09-27T13:19:49Z</time>
      </trkpt>
      <trkpt lat="49.88801" lon="2.4759">
        <ele>46.2</ele>
        <time>2023-09-27T13:19:50Z</time>
      </trkpt>
      <trkpt lat="49.88802" lon="2.47589">
        <ele>46.2</ele>
        <time>2023-09-27T13:19:51Z</time>
      </trkpt>
      <trkpt lat="49.88803" lon="2.47589">
        <ele>46.2</ele>
        <time>2023-09-27T13:19:52Z</time>
      </trkpt>
      <trkpt lat="49.88804" lon="2.47589">
        <ele>46.2</ele>
        <time>2023-09-27T13:19:53Z</time>
      </trkpt>
      <trkpt lat="49.88805" lon="2.47588">
        <ele>46.1</ele>
        <time>2023-09-27T13:19:54Z</time>
      </trkpt>
      <trkpt lat="49.88807" lon="2.47588">
        <ele>46.1</ele>
        <time>2023-09-27T13:19:55Z</time>
      </trkpt>
      <trkpt lat="49.88808" lon="2.47588">
        <ele>46.1</ele>
        <time>2023-09-27T13:19:56Z</time>
      </trkpt>
      <trkpt lat="49.88809" lon="2.47587">
        <ele>46.1</ele>
        <time>2023-09-27T13:19:57Z</time>
      </trkpt>
      <trkpt lat="49.8881" lon="2.47587">
        <ele>46.1</ele>
        <time>2023-09-27T13:19:58Z</time>
      </trkpt>
      <trkpt lat="49.88811" lon="2.47587">
        <ele>46.1</ele>
        <time>2023-09-27T13:19:59Z</time>
      </trkpt>
      <trkpt lat="49.88812" lon="2.47586">
        <ele>46</ele>
        <time>2023-09-27T13:20:00Z</time>
      </trkpt>
      <trkpt lat="49.88813" lon="2.47586">
        <ele>46</ele>
        <time>2023-09-27T13:20:01Z</time>
      </trkpt>
      <trkpt lat="49.88814" lon="2.47585">
        <ele>46</ele>
        <time>2023-09-27T13:20:02Z</time>
      </trkpt>
      <trkpt lat="49.88815" lon="2.47585">
        <ele>46</ele>
        <time>2023-09-27T13:20:03Z</time>
      </trkpt>
      <trkpt lat="49.88816" lon="2.47585">
        <ele>46</ele>
        <time>2023-09-27T13:20:04Z</time>
      </trkpt>
      <trkpt lat="49.88817" lon="2.47584">
        <ele>46</ele>
        <time>2023-09-27T13:20:05Z</time>
      </trkpt>
      <trkpt lat="49.88818" lon="2.47584">
        <ele>46</ele>
        <time>2023-09-27T13:20:06Z</time>
      </trkpt>
      <trkpt lat="49.88819" lon="2.47584">
        <ele>46</ele>
        <time>2023-09-27T13:20:07Z</time>
      </trkpt>
      <trkpt lat="49.8882" lon="2.47583">
        <ele>46</ele>
        <time>2023-09-27T13:20:08Z</time>
      </trkpt>
      <trkpt lat="49.88821" lon="2.47583">
        <ele>46</ele>
        <time>2023-09-27T13:20:09Z</time>
      </trkpt>
      <trkpt lat="49.88822" lon="2.47583">
        <ele>45.9</ele>
        <time>2023-09-27T13:20:10Z</time>
      </trkpt>
      <trkpt lat="49.88823" lon="2.47582">
        <ele>45.9</ele>
        <time>2023-09-27T13:20:11Z</time>
      </trkpt>
      <trkpt lat="49.88824" lon="2.47582">
        <ele>45.9</ele>
        <time>2023-09-27T13:20:12Z</time>
      </trkpt>
      <trkpt lat="49.88825" lon="2.47582">
        <ele>45.9</ele>
        <time>2023-09-27T13:20:13Z</time>
      </trkpt>
      <trkpt lat="49.88826" lon="2.47581">
        <ele>45.9</ele>
        <time>2023-09-27T13:20:14Z</time>
      </trkpt>
      <trkpt lat="49.88827" lon="2.47581">
        <ele>45.9</ele>
        <time>2023-09-27T13:20:15Z</time>
      </trkpt>
      <trkpt lat="49.88828" lon="2.4758">
        <ele>45.9</ele>
        <time>2023-09-27T13:20:16Z</time>
      </trkpt>
      <trkpt lat="49.88828" lon="2.4758">
        <ele>45.9</ele>
        <time>2023-09-27T13:20:17Z</time>
      </trkpt>
      <trkpt lat="49.88829" lon="2.4758">
        <ele>45.9</ele>
        <time>2023-09-27T13:20:18Z</time>
      </trkpt>
      <trkpt lat="49.8883" lon="2.47579">
        <ele>45.9</ele>
        <time>2023-09-27T13:20:19Z</time>
      </trkpt>
      <trkpt lat="49.88831" lon="2.47579">
        <ele>45.8</ele>
        <time>2023-09-27T13:20:20Z</time>
      </trkpt>
      <trkpt lat="49.88832" lon="2.47579">
        <ele>45.8</ele>
        <time>2023-09-27T13:20:21Z</time>
      </trkpt>
      <trkpt lat="49.88833" lon="2.47578">
        <ele>45.8</ele>
        <time>2023-09-27T13:20:22Z</time>
      </trkpt>
      <trkpt lat="49.88833" lon="2.47578">
        <ele>45.8</ele>
        <time>2023-09-27T13:20:23Z</time>
      </trkpt>
      <trkpt lat="49.88834" lon="2.47578">
        <ele>45.8</ele>
        <time>2023-09-27T13:20:24Z</time>
      </trkpt>
      <trkpt lat="49.88835" lon="2.47577">
        <ele>45.8</ele>
        <time>2023-09-27T13:20:25Z</time>
      </trkpt>
      <trkpt lat="49.88836" lon="2.47577">
        <ele>45.8</ele>
        <time>2023-09-27T13:20:26Z</time>
      </trkpt>
      <trkpt lat="49.88837" lon="2.47577">
        <ele>45.8</ele>
        <time>2023-09-27T13:20:27Z</time>
      </trkpt>
      <trkpt lat="49.88838" lon="2.47577">
        <ele>45.8</ele>
        <time>2023-09-27T13:20:28Z</time>
      </trkpt>
      <trkpt lat="49.88839" lon="2.47576">
        <ele>45.8</ele>
        <time>2023-09-27T13:20:29Z</time>
      </trkpt>
      <trkpt lat="49.8884" lon="2.47576">
        <ele>45.7</ele>
        <time>2023-09-27T13:20:30Z</time>
      </trkpt>
      <trkpt lat="49.88841" lon="2.47576">
        <ele>45.7</ele>
        <time>2023-09-27T13:20:31Z</time>
      </trkpt>
      <trkpt lat="49.88842" lon="2.47576">
        <ele>45.7</ele>
        <time>2023-09-27T13:20:32Z</time>
      </trkpt>
      <trkpt lat="49.88843" lon="2.47576">
        <ele>45.7</ele>
        <time>2023-09-27T13:20:33Z</time>
      </trkpt>
      <trkpt lat="49.88845" lon="2.47576">
        <ele>45.7</ele>
        <time>2023-09-27T13:20:34Z</time>
      </trkpt>
      <trkpt lat="49.88846" lon="2.47576">
        <ele>45.7</ele>
        <time>2023-09-27T13:20:35Z</time>
      </trkpt>
      <trkpt lat="49.88847" lon="2.47576">
        <ele>45.6</ele>
        <time>2023-09-27T13:20:36Z</time>
      </trkpt>
      <trkpt lat="49.88848" lon="2.47576">
        <ele>45.6</ele>
        <time>2023-09-27T13:20:37Z</time>
      </trkpt>
      <trkpt lat="49.88849" lon="2.47575">
        <ele>45.6</ele>
        <time>2023-09-27T13:20:38Z</time>
      </trkpt>
      <trkpt lat="49.8885" lon="2.47575">
        <ele>45.6</ele>
        <time>2023-09-27T13:20:39Z</time>
      </trkpt>
      <trkpt lat="49.88851" lon="2.47575">
        <ele>45.6</ele>
        <time>2023-09-27T13:20:40Z</time>
      </trkpt>
      <trkpt lat="49.88853" lon="2.47575">
        <ele>45.5</ele>
        <time>2023-09-27T13:20:41Z</time>
      </trkpt>
      <trkpt lat="49.88854" lon="2.47574">
        <ele>45.5</ele>
        <time>2023-09-27T13:20:42Z</time>
      </trkpt>
      <trkpt lat="49.88855" lon="2.47574">
        <ele>45.5</ele>
        <time>2023-09-27T13:20:43Z</time>
      </trkpt>
      <trkpt lat="49.88857" lon="2.47574">
        <ele>45.5</ele>
        <time>2023-09-27T13:20:44Z</time>
      </trkpt>
      <trkpt lat="49.88858" lon="2.47574">
        <ele>45.5</ele>
        <time>2023-09-27T13:20:45Z</time>
      </trkpt>
      <trkpt lat="49.88858" lon="2.47574">
        <ele>45.5</ele>
        <time>2023-09-27T13:20:46Z</time>
      </trkpt>
      <trkpt lat="49.8886" lon="2.47574">
        <ele>45.5</ele>
        <time>2023-09-27T13:20:47Z</time>
      </trkpt>
      <trkpt lat="49.88861" lon="2.47574">
        <ele>45.5</ele>
        <time>2023-09-27T13:20:48Z</time>
      </trkpt>
      <trkpt lat="49.88862" lon="2.47574">
        <ele>45.5</ele>
        <time>2023-09-27T13:20:49Z</time>
      </trkpt>
      <trkpt lat="49.88863" lon="2.47574">
        <ele>45.5</ele>
        <time>2023-09-27T13:20:50Z</time>
      </trkpt>
      <trkpt lat="49.88864" lon="2.47574">
        <ele>45.5</ele>
        <time>2023-09-27T13:20:51Z</time>
      </trkpt>
      <trkpt lat="49.88865" lon="2.47574">
        <ele>45.5</ele>
        <time>2023-09-27T13:20:52Z</time>
      </trkpt>
      <trkpt lat="49.88868" lon="2.47574">
        <ele>45.5</ele>
        <time>2023-09-27T13:20:53Z</time>
      </trkpt>
      <trkpt lat="49.88868" lon="2.47574">
        <ele>45.5</ele>
        <time>2023-09-27T13:20:54Z</time>
      </trkpt>
      <trkpt lat="49.88869" lon="2.47574">
        <ele>45.5</ele>
        <time>2023-09-27T13:20:55Z</time>
      </trkpt>
      <trkpt lat="49.8887" lon="2.47574">
        <ele>45.5</ele>
        <time>2023-09-27T13:20:56Z</time>
      </trkpt>
      <trkpt lat="49.88871" lon="2.47574">
        <ele>45.5</ele>
        <time>2023-09-27T13:20:57Z</time>
      </trkpt>
      <trkpt lat="49.88872" lon="2.47574">
        <ele>45.6</ele>
        <time>2023-09-27T13:20:58Z</time>
      </trkpt>
      <trkpt lat="49.88873" lon="2.47574">
        <ele>45.6</ele>
        <time>2023-09-27T13:20:59Z</time>
      </trkpt>
      <trkpt lat="49.88874" lon="2.47574">
        <ele>45.6</ele>
        <time>2023-09-27T13:21:00Z</time>
      </trkpt>
      <trkpt lat="49.88876" lon="2.47574">
        <ele>45.6</ele>
        <time>2023-09-27T13:21:01Z</time>
      </trkpt>
      <trkpt lat="49.88877" lon="2.47574">
        <ele>45.6</ele>
        <time>2023-09-27T13:21:02Z</time>
      </trkpt>
      <trkpt lat="49.88878" lon="2.47574">
        <ele>45.6</ele>
        <time>2023-09-27T13:21:03Z</time>
      </trkpt>
      <trkpt lat="49.88879" lon="2.47574">
        <ele>45.6</ele>
        <time>2023-09-27T13:21:04Z</time>
      </trkpt>
      <trkpt lat="49.8888" lon="2.47574">
        <ele>45.6</ele>
        <time>2023-09-27T13:21:05Z</time>
      </trkpt>
      <trkpt lat="49.88881" lon="2.47574">
        <ele>45.6</ele>
        <time>2023-09-27T13:21:06Z</time>
      </trkpt>
      <trkpt lat="49.88882" lon="2.47574">
        <ele>45.6</ele>
        <time>2023-09-27T13:21:07Z</time>
      </trkpt>
      <trkpt lat="49.88883" lon="2.47574">
        <ele>45.6</ele>
        <time>2023-09-27T13:21:08Z</time>
      </trkpt>
      <trkpt lat="49.88884" lon="2.47574">
        <ele>45.6</ele>
        <time>2023-09-27T13:21:09Z</time>
      </trkpt>
      <trkpt lat="49.88885" lon="2.47574">
        <ele>45.6</ele>
        <time>2023-09-27T13:21:10Z</time>
      </trkpt>
      <trkpt lat="49.88886" lon="2.47574">
        <ele>45.6</ele>
        <time>2023-09-27T13:21:11Z</time>
      </trkpt>
      <trkpt lat="49.88887" lon="2.47574">
        <ele>45.6</ele>
        <time>2023-09-27T13:21:12Z</time>
      </trkpt>
      <trkpt lat="49.88887" lon="2.47574">
        <ele>45.6</ele>
        <time>2023-09-27T13:21:13Z</time>
      </trkpt>
      <trkpt lat="49.88888" lon="2.47574">
        <ele>45.6</ele>
        <time>2023-09-27T13:21:14Z</time>
      </trkpt>
      <trkpt lat="49.8889" lon="2.47573">
        <ele>45.6</ele>
        <time>2023-09-27T13:21:15Z</time>
      </trkpt>
      <trkpt lat="49.8889" lon="2.47573">
        <ele>45.6</ele>
        <time>2023-09-27T13:21:16Z</time>
      </trkpt>
      <trkpt lat="49.88891" lon="2.47573">
        <ele>45.6</ele>
        <time>2023-09-27T13:21:17Z</time>
      </trkpt>
      <trkpt lat="49.88892" lon="2.47573">
        <ele>45.6</ele>
        <time>2023-09-27T13:21:18Z</time>
      </trkpt>
      <trkpt lat="49.88893" lon="2.47573">
        <ele>45.6</ele>
        <time>2023-09-27T13:21:19Z</time>
      </trkpt>
      <trkpt lat="49.88893" lon="2.47573">
        <ele>45.6</ele>
        <time>2023-09-27T13:21:20Z</time>
      </trkpt>
      <trkpt lat="49.88894" lon="2.47572">
        <ele>45.6</ele>
        <time>2023-09-27T13:21:21Z</time>
      </trkpt>
      <trkpt lat="49.88895" lon="2.47572">
        <ele>45.6</ele>
        <time>2023-09-27T13:21:22Z</time>
      </trkpt>
      <trkpt lat="49.88896" lon="2.47572">
        <ele>45.6</ele>
        <time>2023-09-27T13:21:23Z</time>
      </trkpt>
      <trkpt lat="49.88897" lon="2.47572">
        <ele>45.6</ele>
        <time>2023-09-27T13:21:24Z</time>
      </trkpt>
      <trkpt lat="49.88898" lon="2.47572">
        <ele>45.6</ele>
        <time>2023-09-27T13:21:25Z</time>
      </trkpt>
      <trkpt lat="49.88899" lon="2.47571">
        <ele>45.6</ele>
        <time>2023-09-27T13:21:26Z</time>
      </trkpt>
      <trkpt lat="49.889" lon="2.47571">
        <ele>45.6</ele>
        <time>2023-09-27T13:21:27Z</time>
      </trkpt>
      <trkpt lat="49.88901" lon="2.47571">
        <ele>45.5</ele>
        <time>2023-09-27T13:21:28Z</time>
      </trkpt>
      <trkpt lat="49.88902" lon="2.47571">
        <ele>45.5</ele>
        <time>2023-09-27T13:21:29Z</time>
      </trkpt>
      <trkpt lat="49.88903" lon="2.47571">
        <ele>45.5</ele>
        <time>2023-09-27T13:21:30Z</time>
      </trkpt>
      <trkpt lat="49.88904" lon="2.4757">
        <ele>45.5</ele>
        <time>2023-09-27T13:21:31Z</time>
      </trkpt>
      <trkpt lat="49.88905" lon="2.4757">
        <ele>45.5</ele>
        <time>2023-09-27T13:21:32Z</time>
      </trkpt>
      <trkpt lat="49.88906" lon="2.4757">
        <ele>45.5</ele>
        <time>2023-09-27T13:21:33Z</time>
      </trkpt>
      <trkpt lat="49.88907" lon="2.4757">
        <ele>45.5</ele>
        <time>2023-09-27T13:21:34Z</time>
      </trkpt>
      <trkpt lat="49.88908" lon="2.4757">
        <ele>45.5</ele>
        <time>2023-09-27T13:21:35Z</time>
      </trkpt>
      <trkpt lat="49.88909" lon="2.4757">
        <ele>45.5</ele>
        <time>2023-09-27T13:21:36Z</time>
      </trkpt>
      <trkpt lat="49.8891" lon="2.4757">
        <ele>45.6</ele>
        <time>2023-09-27T13:21:37Z</time>
      </trkpt>
      <trkpt lat="49.88911" lon="2.4757">
        <ele>45.6</ele>
        <time>2023-09-27T13:21:38Z</time>
      </trkpt>
      <trkpt lat="49.88912" lon="2.4757">
        <ele>45.6</ele>
        <time>2023-09-27T13:21:39Z</time>
      </trkpt>
      <trkpt lat="49.88913" lon="2.4757">
        <ele>45.6</ele>
        <time>2023-09-27T13:21:40Z</time>
      </trkpt>
      <trkpt lat="49.88915" lon="2.4757">
        <ele>45.6</ele>
        <time>2023-09-27T13:21:41Z</time>
      </trkpt>
      <trkpt lat="49.88916" lon="2.4757">
        <ele>45.6</ele>
        <time>2023-09-27T13:21:42Z</time>
      </trkpt>
      <trkpt lat="49.88917" lon="2.4757">
        <ele>45.6</ele>
        <time>2023-09-27T13:21:43Z</time>
      </trkpt>
      <trkpt lat="49.88918" lon="2.4757">
        <ele>45.6</ele>
        <time>2023-09-27T13:21:44Z</time>
      </trkpt>
      <trkpt lat="49.88919" lon="2.4757">
        <ele>45.6</ele>
        <time>2023-09-27T13:21:45Z</time>
      </trkpt>
      <trkpt lat="49.8892" lon="2.4757">
        <ele>45.6</ele>
        <time>2023-09-27T13:21:46Z</time>
      </trkpt>
      <trkpt lat="49.88922" lon="2.4757">
        <ele>45.6</ele>
        <time>2023-09-27T13:21:47Z</time>
      </trkpt>
      <trkpt lat="49.88923" lon="2.4757">
        <ele>45.6</ele>
        <time>2023-09-27T13:21:48Z</time>
      </trkpt>
      <trkpt lat="49.88924" lon="2.4757">
        <ele>45.6</ele>
        <time>2023-09-27T13:21:49Z</time>
      </trkpt>
      <trkpt lat="49.88925" lon="2.4757">
        <ele>45.7</ele>
        <time>2023-09-27T13:21:50Z</time>
      </trkpt>
      <trkpt lat="49.88926" lon="2.4757">
        <ele>45.7</ele>
        <time>2023-09-27T13:21:51Z</time>
      </trkpt>
      <trkpt lat="49.88927" lon="2.47571">
        <ele>45.7</ele>
        <time>2023-09-27T13:21:52Z</time>
      </trkpt>
      <trkpt lat="49.88928" lon="2.47571">
        <ele>45.7</ele>
        <time>2023-09-27T13:21:53Z</time>
      </trkpt>
      <trkpt lat="49.88929" lon="2.47571">
        <ele>45.7</ele>
        <time>2023-09-27T13:21:54Z</time>
      </trkpt>
      <trkpt lat="49.8893" lon="2.47571">
        <ele>45.7</ele>
        <time>2023-09-27T13:21:55Z</time>
      </trkpt>
      <trkpt lat="49.88931" lon="2.47571">
        <ele>45.7</ele>
        <time>2023-09-27T13:21:56Z</time>
      </trkpt>
      <trkpt lat="49.88932" lon="2.47571">
        <ele>45.7</ele>
        <time>2023-09-27T13:21:57Z</time>
      </trkpt>
      <trkpt lat="49.88933" lon="2.47571">
        <ele>45.8</ele>
        <time>2023-09-27T13:21:58Z</time>
      </trkpt>
      <trkpt lat="49.88934" lon="2.47571">
        <ele>45.8</ele>
        <time>2023-09-27T13:21:59Z</time>
      </trkpt>
      <trkpt lat="49.88935" lon="2.47571">
        <ele>45.8</ele>
        <time>2023-09-27T13:22:00Z</time>
      </trkpt>
      <trkpt lat="49.88936" lon="2.47571">
        <ele>45.8</ele>
        <time>2023-09-27T13:22:01Z</time>
      </trkpt>
      <trkpt lat="49.88937" lon="2.47571">
        <ele>45.8</ele>
        <time>2023-09-27T13:22:02Z</time>
      </trkpt>
      <trkpt lat="49.88938" lon="2.47571">
        <ele>45.8</ele>
        <time>2023-09-27T13:22:03Z</time>
      </trkpt>
      <trkpt lat="49.8894" lon="2.47571">
        <ele>45.8</ele>
        <time>2023-09-27T13:22:04Z</time>
      </trkpt>
      <trkpt lat="49.88941" lon="2.47571">
        <ele>45.8</ele>
        <time>2023-09-27T13:22:05Z</time>
      </trkpt>
      <trkpt lat="49.88942" lon="2.47571">
        <ele>45.8</ele>
        <time>2023-09-27T13:22:06Z</time>
      </trkpt>
      <trkpt lat="49.88943" lon="2.47572">
        <ele>45.8</ele>
        <time>2023-09-27T13:22:07Z</time>
      </trkpt>
      <trkpt lat="49.88944" lon="2.47572">
        <ele>45.8</ele>
        <time>2023-09-27T13:22:08Z</time>
      </trkpt>
      <trkpt lat="49.88945" lon="2.47572">
        <ele>45.8</ele>
        <time>2023-09-27T13:22:09Z</time>
      </trkpt>
      <trkpt lat="49.88946" lon="2.47572">
        <ele>45.8</ele>
        <time>2023-09-27T13:22:10Z</time>
      </trkpt>
      <trkpt lat="49.88947" lon="2.47572">
        <ele>45.8</ele>
        <time>2023-09-27T13:22:11Z</time>
      </trkpt>
      <trkpt lat="49.88948" lon="2.47572">
        <ele>45.8</ele>
        <time>2023-09-27T13:22:12Z</time>
      </trkpt>
      <trkpt lat="49.88949" lon="2.47572">
        <ele>45.8</ele>
        <time>2023-09-27T13:22:13Z</time>
      </trkpt>
      <trkpt lat="49.8895" lon="2.47572">
        <ele>45.8</ele>
        <time>2023-09-27T13:22:14Z</time>
      </trkpt>
      <trkpt lat="49.88951" lon="2.47571">
        <ele>45.8</ele>
        <time>2023-09-27T13:22:15Z</time>
      </trkpt>
      <trkpt lat="49.88952" lon="2.47571">
        <ele>45.8</ele>
        <time>2023-09-27T13:22:16Z</time>
      </trkpt>
      <trkpt lat="49.88953" lon="2.47571">
        <ele>45.8</ele>
        <time>2023-09-27T13:22:17Z</time>
      </trkpt>
      <trkpt lat="49.88954" lon="2.47571">
        <ele>45.8</ele>
        <time>2023-09-27T13:22:18Z</time>
      </trkpt>
      <trkpt lat="49.88955" lon="2.47571">
        <ele>45.8</ele>
        <time>2023-09-27T13:22:19Z</time>
      </trkpt>
      <trkpt lat="49.88957" lon="2.47571">
        <ele>45.8</ele>
        <time>2023-09-27T13:22:20Z</time>
      </trkpt>
      <trkpt lat="49.88958" lon="2.47571">
        <ele>45.8</ele>
        <time>2023-09-27T13:22:21Z</time>
      </trkpt>
      <trkpt lat="49.88959" lon="2.47571">
        <ele>45.8</ele>
        <time>2023-09-27T13:22:22Z</time>
      </trkpt>
      <trkpt lat="49.8896" lon="2.47571">
        <ele>45.8</ele>
        <time>2023-09-27T13:22:23Z</time>
      </trkpt>
      <trkpt lat="49.88961" lon="2.47571">
        <ele>45.9</ele>
        <time>2023-09-27T13:22:24Z</time>
      </trkpt>
      <trkpt lat="49.88962" lon="2.47572">
        <ele>45.9</ele>
        <time>2023-09-27T13:22:25Z</time>
      </trkpt>
      <trkpt lat="49.88962" lon="2.47572">
        <ele>45.9</ele>
        <time>2023-09-27T13:22:26Z</time>
      </trkpt>
      <trkpt lat="49.88963" lon="2.47572">
        <ele>45.9</ele>
        <time>2023-09-27T13:22:27Z</time>
      </trkpt>
      <trkpt lat="49.88964" lon="2.47572">
        <ele>45.9</ele>
        <time>2023-09-27T13:22:28Z</time>
      </trkpt>
      <trkpt lat="49.88965" lon="2.47572">
        <ele>45.9</ele>
        <time>2023-09-27T13:22:29Z</time>
      </trkpt>
      <trkpt lat="49.88966" lon="2.47572">
        <ele>45.9</ele>
        <time>2023-09-27T13:22:30Z</time>
      </trkpt>
      <trkpt lat="49.88967" lon="2.47572">
        <ele>45.9</ele>
        <time>2023-09-27T13:22:31Z</time>
      </trkpt>
      <trkpt lat="49.88967" lon="2.47572">
        <ele>45.9</ele>
        <time>2023-09-27T13:22:32Z</time>
      </trkpt>
      <trkpt lat="49.88968" lon="2.47572">
        <ele>45.9</ele>
        <time>2023-09-27T13:22:33Z</time>
      </trkpt>
      <trkpt lat="49.88969" lon="2.47571">
        <ele>45.9</ele>
        <time>2023-09-27T13:22:34Z</time>
      </trkpt>
      <trkpt lat="49.8897" lon="2.47571">
        <ele>45.9</ele>
        <time>2023-09-27T13:22:35Z</time>
      </trkpt>
      <trkpt lat="49.88971" lon="2.47571">
        <ele>45.9</ele>
        <time>2023-09-27T13:22:36Z</time>
      </trkpt>
      <trkpt lat="49.88972" lon="2.47571">
        <ele>46</ele>
        <time>2023-09-27T13:22:37Z</time>
      </trkpt>
      <trkpt lat="49.88973" lon="2.47571">
        <ele>46</ele>
        <time>2023-09-27T13:22:38Z</time>
      </trkpt>
      <trkpt lat="49.88974" lon="2.47571">
        <ele>46</ele>
        <time>2023-09-27T13:22:39Z</time>
      </trkpt>
      <trkpt lat="49.88974" lon="2.47571">
        <ele>46.1</ele>
        <time>2023-09-27T13:22:40Z</time>
      </trkpt>
      <trkpt lat="49.88975" lon="2.47571">
        <ele>46.1</ele>
        <time>2023-09-27T13:22:41Z</time>
      </trkpt>
      <trkpt lat="49.88976" lon="2.47571">
        <ele>46.1</ele>
        <time>2023-09-27T13:22:42Z</time>
      </trkpt>
      <trkpt lat="49.88977" lon="2.47571">
        <ele>46</ele>
        <time>2023-09-27T13:22:43Z</time>
      </trkpt>
      <trkpt lat="49.88977" lon="2.47572">
        <ele>46</ele>
        <time>2023-09-27T13:22:44Z</time>
      </trkpt>
      <trkpt lat="49.88978" lon="2.47572">
        <ele>46</ele>
        <time>2023-09-27T13:22:45Z</time>
      </trkpt>
      <trkpt lat="49.88979" lon="2.47572">
        <ele>46</ele>
        <time>2023-09-27T13:22:46Z</time>
      </trkpt>
      <trkpt lat="49.88979" lon="2.47573">
        <ele>45.9</ele>
        <time>2023-09-27T13:22:47Z</time>
      </trkpt>
      <trkpt lat="49.8898" lon="2.47573">
        <ele>45.9</ele>
        <time>2023-09-27T13:22:48Z</time>
      </trkpt>
      <trkpt lat="49.88981" lon="2.47574">
        <ele>45.9</ele>
        <time>2023-09-27T13:22:49Z</time>
      </trkpt>
      <trkpt lat="49.88982" lon="2.47574">
        <ele>45.9</ele>
        <time>2023-09-27T13:22:50Z</time>
      </trkpt>
      <trkpt lat="49.88982" lon="2.47574">
        <ele>45.9</ele>
        <time>2023-09-27T13:22:51Z</time>
      </trkpt>
      <trkpt lat="49.88982" lon="2.47574">
        <ele>45.9</ele>
        <time>2023-09-27T13:22:52Z</time>
      </trkpt>
      <trkpt lat="49.88982" lon="2.47574">
        <ele>45.9</ele>
        <time>2023-09-27T13:22:53Z</time>
      </trkpt>
      <trkpt lat="49.88982" lon="2.47574">
        <ele>45.9</ele>
        <time>2023-09-27T13:22:54Z</time>
      </trkpt>
      <trkpt lat="49.88982" lon="2.47574">
        <ele>45.9</ele>
        <time>2023-09-27T13:22:55Z</time>
      </trkpt>
      <trkpt lat="49.88982" lon="2.47574">
        <ele>45.9</ele>
        <time>2023-09-27T13:22:56Z</time>
      </trkpt>
      <trkpt lat="49.88982" lon="2.47574">
        <ele>45.9</ele>
        <time>2023-09-27T13:22:57Z</time>
      </trkpt>
      <trkpt lat="49.88982" lon="2.47574">
        <ele>45.9</ele>
        <time>2023-09-27T13:22:58Z</time>
      </trkpt>
      <trkpt lat="49.88982" lon="2.47574">
        <ele>45.9</ele>
        <time>2023-09-27T13:22:59Z</time>
      </trkpt>
      <trkpt lat="49.88982" lon="2.47574">
        <ele>45.9</ele>
        <time>2023-09-27T13:23:00Z</time>
      </trkpt>
      <trkpt lat="49.88982" lon="2.47574">
        <ele>45.9</ele>
        <time>2023-09-27T13:23:01Z</time>
      </trkpt>
      <trkpt lat="49.88982" lon="2.47574">
        <ele>45.9</ele>
        <time>2023-09-27T13:23:02Z</time>
      </trkpt>
      <trkpt lat="49.88981" lon="2.47574">
        <ele>45.9</ele>
        <time>2023-09-27T13:23:03Z</time>
      </trkpt>
      <trkpt lat="49.88981" lon="2.47574">
        <ele>45.9</ele>
        <time>2023-09-27T13:23:04Z</time>
      </trkpt>
      <trkpt lat="49.88981" lon="2.47574">
        <ele>45.9</ele>
        <time>2023-09-27T13:23:05Z</time>
      </trkpt>
      <trkpt lat="49.88981" lon="2.47574">
        <ele>45.9</ele>
        <time>2023-09-27T13:23:06Z</time>
      </trkpt>
      <trkpt lat="49.88981" lon="2.47574">
        <ele>45.9</ele>
        <time>2023-09-27T13:23:07Z</time>
      </trkpt>
      <trkpt lat="49.88981" lon="2.47574">
        <ele>45.9</ele>
        <time>2023-09-27T13:23:08Z</time>
      </trkpt>
      <trkpt lat="49.88981" lon="2.47574">
        <ele>45.9</ele>
        <time>2023-09-27T13:23:09Z</time>
      </trkpt>
      <trkpt lat="49.88981" lon="2.47574">
        <ele>45.9</ele>
        <time>2023-09-27T13:23:10Z</time>
      </trkpt>
      <trkpt lat="49.88981" lon="2.47574">
        <ele>45.9</ele>
        <time>2023-09-27T13:23:11Z</time>
      </trkpt>
      <trkpt lat="49.88981" lon="2.47574">
        <ele>45.9</ele>
        <time>2023-09-27T13:23:12Z</time>
      </trkpt>
      <trkpt lat="49.88981" lon="2.47574">
        <ele>45.9</ele>
        <time>2023-09-27T13:23:13Z</time>
      </trkpt>
      <trkpt lat="49.88981" lon="2.47574">
        <ele>45.9</ele>
        <time>2023-09-27T13:23:14Z</time>
      </trkpt>
      <trkpt lat="49.88981" lon="2.47574">
        <ele>45.9</ele>
        <time>2023-09-27T13:23:15Z</time>
      </trkpt>
      <trkpt lat="49.88981" lon="2.47574">
        <ele>45.9</ele>
        <time>2023-09-27T13:23:16Z</time>
      </trkpt>
      <trkpt lat="49.88981" lon="2.47574">
        <ele>45.9</ele>
        <time>2023-09-27T13:23:17Z</time>
      </trkpt>
      <trkpt lat="49.88981" lon="2.47574">
        <ele>45.9</ele>
        <time>2023-09-27T13:23:18Z</time>
      </trkpt>
      <trkpt lat="49.88981" lon="2.47574">
        <ele>45.9</ele>
        <time>2023-09-27T13:23:19Z</time>
      </trkpt>
      <trkpt lat="49.88981" lon="2.47574">
        <ele>45.9</ele>
        <time>2023-09-27T13:23:20Z</time>
      </trkpt>
      <trkpt lat="49.88981" lon="2.47574">
        <ele>45.9</ele>
        <time>2023-09-27T13:23:21Z</time>
      </trkpt>
      <trkpt lat="49.88981" lon="2.47574">
        <ele>45.9</ele>
        <time>2023-09-27T13:23:22Z</time>
      </trkpt>
      <trkpt lat="49.88981" lon="2.47574">
        <ele>45.9</ele>
        <time>2023-09-27T13:23:23Z</time>
      </trkpt>
      <trkpt lat="49.88981" lon="2.47574">
        <ele>45.9</ele>
        <time>2023-09-27T13:23:24Z</time>
      </trkpt>
      <trkpt lat="49.88981" lon="2.47574">
        <ele>45.9</ele>
        <time>2023-09-27T13:23:25Z</time>
      </trkpt>
      <trkpt lat="49.88981" lon="2.47574">
        <ele>45.9</ele>
        <time>2023-09-27T13:23:26Z</time>
      </trkpt>
      <trkpt lat="49.88981" lon="2.47574">
        <ele>45.9</ele>
        <time>2023-09-27T13:23:27Z</time>
      </trkpt>
      <trkpt lat="49.88981" lon="2.47574">
        <ele>45.9</ele>
        <time>2023-09-27T13:23:28Z</time>
      </trkpt>
      <trkpt lat="49.88981" lon="2.47574">
        <ele>45.9</ele>
        <time>2023-09-27T13:23:29Z</time>
      </trkpt>
      <trkpt lat="49.88981" lon="2.47574">
        <ele>45.9</ele>
        <time>2023-09-27T13:23:30Z</time>
      </trkpt>
      <trkpt lat="49.88981" lon="2.47574">
        <ele>45.9</ele>
        <time>2023-09-27T13:23:31Z</time>
      </trkpt>
      <trkpt lat="49.88981" lon="2.47574">
        <ele>45.9</ele>
        <time>2023-09-27T13:23:32Z</time>
      </trkpt>
      <trkpt lat="49.88981" lon="2.47574">
        <ele>45.9</ele>
        <time>2023-09-27T13:23:33Z</time>
      </trkpt>
      <trkpt lat="49.88981" lon="2.47574">
        <ele>45.9</ele>
        <time>2023-09-27T13:23:34Z</time>
      </trkpt>
      <trkpt lat="49.88981" lon="2.47574">
        <ele>45.9</ele>
        <time>2023-09-27T13:23:35Z</time>
      </trkpt>
      <trkpt lat="49.88981" lon="2.47574">
        <ele>45.9</ele>
        <time>2023-09-27T13:23:36Z</time>
      </trkpt>
      <trkpt lat="49.88981" lon="2.47574">
        <ele>45.9</ele>
        <time>2023-09-27T13:23:37Z</time>
      </trkpt>
      <trkpt lat="49.88981" lon="2.47574">
        <ele>45.9</ele>
        <time>2023-09-27T13:23:38Z</time>
      </trkpt>
      <trkpt lat="49.88981" lon="2.47574">
        <ele>45.8</ele>
        <time>2023-09-27T13:23:39Z</time>
      </trkpt>
      <trkpt lat="49.88981" lon="2.47574">
        <ele>45.8</ele>
        <time>2023-09-27T13:23:40Z</time>
      </trkpt>
      <trkpt lat="49.88981" lon="2.47574">
        <ele>45.8</ele>
        <time>2023-09-27T13:23:41Z</time>
      </trkpt>
      <trkpt lat="49.88981" lon="2.47574">
        <ele>45.8</ele>
        <time>2023-09-27T13:23:42Z</time>
      </trkpt>
      <trkpt lat="49.88981" lon="2.47574">
        <ele>45.8</ele>
        <time>2023-09-27T13:23:43Z</time>
      </trkpt>
      <trkpt lat="49.88981" lon="2.47574">
        <ele>45.8</ele>
        <time>2023-09-27T13:23:44Z</time>
      </trkpt>
      <trkpt lat="49.88981" lon="2.47574">
        <ele>45.8</ele>
        <time>2023-09-27T13:23:45Z</time>
      </trkpt>
      <trkpt lat="49.88981" lon="2.47574">
        <ele>45.8</ele>
        <time>2023-09-27T13:23:46Z</time>
      </trkpt>
      <trkpt lat="49.88981" lon="2.47574">
        <ele>45.8</ele>
        <time>2023-09-27T13:23:47Z</time>
      </trkpt>
      <trkpt lat="49.88981" lon="2.47574">
        <ele>45.8</ele>
        <time>2023-09-27T13:23:48Z</time>
      </trkpt>
      <trkpt lat="49.88981" lon="2.47574">
        <ele>45.8</ele>
        <time>2023-09-27T13:23:49Z</time>
      </trkpt>
      <trkpt lat="49.88981" lon="2.47574">
        <ele>45.8</ele>
        <time>2023-09-27T13:23:50Z</time>
      </trkpt>
      <trkpt lat="49.88981" lon="2.47574">
        <ele>45.8</ele>
        <time>2023-09-27T13:23:51Z</time>
      </trkpt>
      <trkpt lat="49.88981" lon="2.47574">
        <ele>45.8</ele>
        <time>2023-09-27T13:23:52Z</time>
      </trkpt>
      <trkpt lat="49.88981" lon="2.47574">
        <ele>45.8</ele>
        <time>2023-09-27T13:23:53Z</time>
      </trkpt>
      <trkpt lat="49.88981" lon="2.47574">
        <ele>45.8</ele>
        <time>2023-09-27T13:23:54Z</time>
      </trkpt>
      <trkpt lat="49.88981" lon="2.47574">
        <ele>45.8</ele>
        <time>2023-09-27T13:23:55Z</time>
      </trkpt>
      <trkpt lat="49.88981" lon="2.47574">
        <ele>45.8</ele>
        <time>2023-09-27T13:23:56Z</time>
      </trkpt>
      <trkpt lat="49.88981" lon="2.47574">
        <ele>45.8</ele>
        <time>2023-09-27T13:23:57Z</time>
      </trkpt>
      <trkpt lat="49.88981" lon="2.47574">
        <ele>45.8</ele>
        <time>2023-09-27T13:23:58Z</time>
      </trkpt>
      <trkpt lat="49.88981" lon="2.47574">
        <ele>45.8</ele>
        <time>2023-09-27T13:23:59Z</time>
      </trkpt>
      <trkpt lat="49.88981" lon="2.47574">
        <ele>45.8</ele>
        <time>2023-09-27T13:24:00Z</time>
      </trkpt>
      <trkpt lat="49.88981" lon="2.47574">
        <ele>45.8</ele>
        <time>2023-09-27T13:24:01Z</time>
      </trkpt>
      <trkpt lat="49.8898" lon="2.47574">
        <ele>45.8</ele>
        <time>2023-09-27T13:24:02Z</time>
      </trkpt>
      <trkpt lat="49.8898" lon="2.47574">
        <ele>45.8</ele>
        <time>2023-09-27T13:24:03Z</time>
      </trkpt>
      <trkpt lat="49.8898" lon="2.47574">
        <ele>45.8</ele>
        <time>2023-09-27T13:24:04Z</time>
      </trkpt>
      <trkpt lat="49.8898" lon="2.47574">
        <ele>45.8</ele>
        <time>2023-09-27T13:24:05Z</time>
      </trkpt>
      <trkpt lat="49.8898" lon="2.47574">
        <ele>45.8</ele>
        <time>2023-09-27T13:24:06Z</time>
      </trkpt>
      <trkpt lat="49.8898" lon="2.47574">
        <ele>45.8</ele>
        <time>2023-09-27T13:24:07Z</time>
      </trkpt>
      <trkpt lat="49.8898" lon="2.47574">
        <ele>45.8</ele>
        <time>2023-09-27T13:24:08Z</time>
      </trkpt>
      <trkpt lat="49.8898" lon="2.47574">
        <ele>45.8</ele>
        <time>2023-09-27T13:24:09Z</time>
      </trkpt>
      <trkpt lat="49.8898" lon="2.47574">
        <ele>45.8</ele>
        <time>2023-09-27T13:24:10Z</time>
      </trkpt>
      <trkpt lat="49.8898" lon="2.47574">
        <ele>45.8</ele>
        <time>2023-09-27T13:24:11Z</time>
      </trkpt>
      <trkpt lat="49.8898" lon="2.47574">
        <ele>45.8</ele>
        <time>2023-09-27T13:24:12Z</time>
      </trkpt>
      <trkpt lat="49.8898" lon="2.47574">
        <ele>45.8</ele>
        <time>2023-09-27T13:24:13Z</time>
      </trkpt>
      <trkpt lat="49.8898" lon="2.47574">
        <ele>45.8</ele>
        <time>2023-09-27T13:24:14Z</time>
      </trkpt>
      <trkpt lat="49.8898" lon="2.47574">
        <ele>45.8</ele>
        <time>2023-09-27T13:24:15Z</time>
      </trkpt>
      <trkpt lat="49.8898" lon="2.47574">
        <ele>45.8</ele>
        <time>2023-09-27T13:24:16Z</time>
      </trkpt>
      <trkpt lat="49.8898" lon="2.47574">
        <ele>45.8</ele>
        <time>2023-09-27T13:24:17Z</time>
      </trkpt>
      <trkpt lat="49.8898" lon="2.47574">
        <ele>45.8</ele>
        <time>2023-09-27T13:24:18Z</time>
      </trkpt>
      <trkpt lat="49.8898" lon="2.47574">
        <ele>45.8</ele>
        <time>2023-09-27T13:24:19Z</time>
      </trkpt>
      <trkpt lat="49.8898" lon="2.47574">
        <ele>45.8</ele>
        <time>2023-09-27T13:24:20Z</time>
      </trkpt>
      <trkpt lat="49.8898" lon="2.47574">
        <ele>45.8</ele>
        <time>2023-09-27T13:24:21Z</time>
      </trkpt>
      <trkpt lat="49.8898" lon="2.47574">
        <ele>45.8</ele>
        <time>2023-09-27T13:24:22Z</time>
      </trkpt>
      <trkpt lat="49.8898" lon="2.47574">
        <ele>45.8</ele>
        <time>2023-09-27T13:24:23Z</time>
      </trkpt>
      <trkpt lat="49.8898" lon="2.47574">
        <ele>45.8</ele>
        <time>2023-09-27T13:24:24Z</time>
      </trkpt>
      <trkpt lat="49.8898" lon="2.47574">
        <ele>45.8</ele>
        <time>2023-09-27T13:24:25Z</time>
      </trkpt>
      <trkpt lat="49.8898" lon="2.47574">
        <ele>45.8</ele>
        <time>2023-09-27T13:24:26Z</time>
      </trkpt>
      <trkpt lat="49.8898" lon="2.47574">
        <ele>45.8</ele>
        <time>2023-09-27T13:24:27Z</time>
      </trkpt>
      <trkpt lat="49.8898" lon="2.47574">
        <ele>45.8</ele>
        <time>2023-09-27T13:24:28Z</time>
      </trkpt>
      <trkpt lat="49.8898" lon="2.47574">
        <ele>45.8</ele>
        <time>2023-09-27T13:24:29Z</time>
      </trkpt>
      <trkpt lat="49.8898" lon="2.47574">
        <ele>45.8</ele>
        <time>2023-09-27T13:24:30Z</time>
      </trkpt>
      <trkpt lat="49.8898" lon="2.47574">
        <ele>45.8</ele>
        <time>2023-09-27T13:24:31Z</time>
      </trkpt>
      <trkpt lat="49.8898" lon="2.47574">
        <ele>45.8</ele>
        <time>2023-09-27T13:24:32Z</time>
      </trkpt>
      <trkpt lat="49.8898" lon="2.47574">
        <ele>45.8</ele>
        <time>2023-09-27T13:24:33Z</time>
      </trkpt>
      <trkpt lat="49.8898" lon="2.47574">
        <ele>45.8</ele>
        <time>2023-09-27T13:24:34Z</time>
      </trkpt>
      <trkpt lat="49.8898" lon="2.47574">
        <ele>45.8</ele>
        <time>2023-09-27T13:24:35Z</time>
      </trkpt>
      <trkpt lat="49.8898" lon="2.47574">
        <ele>45.8</ele>
        <time>2023-09-27T13:24:36Z</time>
      </trkpt>
      <trkpt lat="49.8898" lon="2.47574">
        <ele>45.8</ele>
        <time>2023-09-27T13:24:37Z</time>
      </trkpt>
      <trkpt lat="49.8898" lon="2.47574">
        <ele>45.8</ele>
        <time>2023-09-27T13:24:38Z</time>
      </trkpt>
      <trkpt lat="49.8898" lon="2.47574">
        <ele>45.8</ele>
        <time>2023-09-27T13:24:39Z</time>
      </trkpt>
      <trkpt lat="49.8898" lon="2.47574">
        <ele>45.8</ele>
        <time>2023-09-27T13:24:40Z</time>
      </trkpt>
      <trkpt lat="49.8898" lon="2.47574">
        <ele>45.8</ele>
        <time>2023-09-27T13:24:41Z</time>
      </trkpt>
      <trkpt lat="49.8898" lon="2.47574">
        <ele>45.8</ele>
        <time>2023-09-27T13:24:42Z</time>
      </trkpt>
      <trkpt lat="49.8898" lon="2.47574">
        <ele>45.8</ele>
        <time>2023-09-27T13:24:43Z</time>
      </trkpt>
      <trkpt lat="49.8898" lon="2.47574">
        <ele>45.8</ele>
        <time>2023-09-27T13:24:44Z</time>
      </trkpt>
      <trkpt lat="49.8898" lon="2.47574">
        <ele>45.8</ele>
        <time>2023-09-27T13:24:45Z</time>
      </trkpt>
      <trkpt lat="49.8898" lon="2.47574">
        <ele>45.8</ele>
        <time>2023-09-27T13:24:46Z</time>
      </trkpt>
      <trkpt lat="49.8898" lon="2.47574">
        <ele>45.8</ele>
        <time>2023-09-27T13:24:47Z</time>
      </trkpt>
      <trkpt lat="49.8898" lon="2.47574">
        <ele>45.8</ele>
        <time>2023-09-27T13:24:48Z</time>
      </trkpt>
      <trkpt lat="49.8898" lon="2.47574">
        <ele>45.8</ele>
        <time>2023-09-27T13:24:49Z</time>
      </trkpt>
      <trkpt lat="49.8898" lon="2.47574">
        <ele>45.8</ele>
        <time>2023-09-27T13:24:50Z</time>
      </trkpt>
      <trkpt lat="49.8898" lon="2.47574">
        <ele>45.8</ele>
        <time>2023-09-27T13:24:51Z</time>
      </trkpt>
      <trkpt lat="49.8898" lon="2.47574">
        <ele>45.8</ele>
        <time>2023-09-27T13:24:52Z</time>
      </trkpt>
      <trkpt lat="49.8898" lon="2.47574">
        <ele>45.8</ele>
        <time>2023-09-27T13:24:53Z</time>
      </trkpt>
      <trkpt lat="49.8898" lon="2.47574">
        <ele>45.8</ele>
        <time>2023-09-27T13:24:54Z</time>
      </trkpt>
      <trkpt lat="49.8898" lon="2.47574">
        <ele>45.8</ele>
        <time>2023-09-27T13:24:55Z</time>
      </trkpt>
      <trkpt lat="49.8898" lon="2.47574">
        <ele>45.8</ele>
        <time>2023-09-27T13:24:56Z</time>
      </trkpt>
      <trkpt lat="49.8898" lon="2.47574">
        <ele>45.8</ele>
        <time>2023-09-27T13:24:57Z</time>
      </trkpt>
      <trkpt lat="49.8898" lon="2.47574">
        <ele>45.8</ele>
        <time>2023-09-27T13:24:58Z</time>
      </trkpt>
      <trkpt lat="49.8898" lon="2.47574">
        <ele>45.8</ele>
        <time>2023-09-27T13:24:59Z</time>
      </trkpt>
      <trkpt lat="49.8898" lon="2.47574">
        <ele>45.8</ele>
        <time>2023-09-27T13:25:00Z</time>
      </trkpt>
      <trkpt lat="49.8898" lon="2.47574">
        <ele>45.8</ele>
        <time>2023-09-27T13:25:01Z</time>
      </trkpt>
      <trkpt lat="49.88979" lon="2.47574">
        <ele>45.8</ele>
        <time>2023-09-27T13:25:02Z</time>
      </trkpt>
      <trkpt lat="49.88979" lon="2.47574">
        <ele>45.8</ele>
        <time>2023-09-27T13:25:03Z</time>
      </trkpt>
      <trkpt lat="49.88979" lon="2.47574">
        <ele>45.8</ele>
        <time>2023-09-27T13:25:04Z</time>
      </trkpt>
      <trkpt lat="49.88979" lon="2.47574">
        <ele>45.8</ele>
        <time>2023-09-27T13:25:05Z</time>
      </trkpt>
      <trkpt lat="49.88979" lon="2.47574">
        <ele>45.8</ele>
        <time>2023-09-27T13:25:06Z</time>
      </trkpt>
      <trkpt lat="49.88979" lon="2.47574">
        <ele>45.8</ele>
        <time>2023-09-27T13:25:07Z</time>
      </trkpt>
      <trkpt lat="49.88979" lon="2.47574">
        <ele>45.8</ele>
        <time>2023-09-27T13:25:08Z</time>
      </trkpt>
      <trkpt lat="49.88979" lon="2.47574">
        <ele>45.8</ele>
        <time>2023-09-27T13:25:09Z</time>
      </trkpt>
      <trkpt lat="49.88979" lon="2.47574">
        <ele>45.8</ele>
        <time>2023-09-27T13:25:10Z</time>
      </trkpt>
      <trkpt lat="49.88979" lon="2.47574">
        <ele>45.8</ele>
        <time>2023-09-27T13:25:11Z</time>
      </trkpt>
      <trkpt lat="49.88979" lon="2.47573">
        <ele>45.8</ele>
        <time>2023-09-27T13:25:12Z</time>
      </trkpt>
      <trkpt lat="49.88979" lon="2.47573">
        <ele>45.8</ele>
        <time>2023-09-27T13:25:13Z</time>
      </trkpt>
      <trkpt lat="49.88979" lon="2.47573">
        <ele>45.8</ele>
        <time>2023-09-27T13:25:14Z</time>
      </trkpt>
      <trkpt lat="49.88979" lon="2.47573">
        <ele>45.8</ele>
        <time>2023-09-27T13:25:15Z</time>
      </trkpt>
      <trkpt lat="49.88979" lon="2.47573">
        <ele>45.8</ele>
        <time>2023-09-27T13:25:16Z</time>
      </trkpt>
      <trkpt lat="49.88979" lon="2.47573">
        <ele>45.8</ele>
        <time>2023-09-27T13:25:17Z</time>
      </trkpt>
      <trkpt lat="49.88979" lon="2.47573">
        <ele>45.8</ele>
        <time>2023-09-27T13:25:18Z</time>
      </trkpt>
      <trkpt lat="49.88979" lon="2.47573">
        <ele>45.8</ele>
        <time>2023-09-27T13:25:19Z</time>
      </trkpt>
      <trkpt lat="49.88979" lon="2.47573">
        <ele>45.8</ele>
        <time>2023-09-27T13:25:20Z</time>
      </trkpt>
      <trkpt lat="49.88979" lon="2.47573">
        <ele>45.8</ele>
        <time>2023-09-27T13:25:21Z</time>
      </trkpt>
      <trkpt lat="49.88979" lon="2.47573">
        <ele>45.8</ele>
        <time>2023-09-27T13:25:22Z</time>
      </trkpt>
      <trkpt lat="49.88979" lon="2.47573">
        <ele>45.8</ele>
        <time>2023-09-27T13:25:23Z</time>
      </trkpt>
      <trkpt lat="49.88979" lon="2.47573">
        <ele>45.8</ele>
        <time>2023-09-27T13:25:24Z</time>
      </trkpt>
      <trkpt lat="49.88979" lon="2.47573">
        <ele>45.8</ele>
        <time>2023-09-27T13:25:25Z</time>
      </trkpt>
      <trkpt lat="49.88979" lon="2.47573">
        <ele>45.8</ele>
        <time>2023-09-27T13:25:26Z</time>
      </trkpt>
      <trkpt lat="49.88979" lon="2.47573">
        <ele>45.8</ele>
        <time>2023-09-27T13:25:27Z</time>
      </trkpt>
      <trkpt lat="49.88979" lon="2.47573">
        <ele>45.8</ele>
        <time>2023-09-27T13:25:28Z</time>
      </trkpt>
      <trkpt lat="49.88979" lon="2.47573">
        <ele>45.8</ele>
        <time>2023-09-27T13:25:29Z</time>
      </trkpt>
      <trkpt lat="49.88979" lon="2.47573">
        <ele>45.8</ele>
        <time>2023-09-27T13:25:30Z</time>
      </trkpt>
      <trkpt lat="49.88979" lon="2.47573">
        <ele>45.8</ele>
        <time>2023-09-27T13:25:31Z</time>
      </trkpt>
      <trkpt lat="49.88979" lon="2.47573">
        <ele>45.8</ele>
        <time>2023-09-27T13:25:32Z</time>
      </trkpt>
      <trkpt lat="49.88979" lon="2.47573">
        <ele>45.8</ele>
        <time>2023-09-27T13:25:33Z</time>
      </trkpt>
      <trkpt lat="49.88979" lon="2.47573">
        <ele>45.8</ele>
        <time>2023-09-27T13:25:34Z</time>
      </trkpt>
      <trkpt lat="49.88979" lon="2.47573">
        <ele>45.8</ele>
        <time>2023-09-27T13:25:35Z</time>
      </trkpt>
      <trkpt lat="49.88979" lon="2.47573">
        <ele>45.8</ele>
        <time>2023-09-27T13:25:36Z</time>
      </trkpt>
      <trkpt lat="49.88979" lon="2.47573">
        <ele>45.8</ele>
        <time>2023-09-27T13:25:37Z</time>
      </trkpt>
      <trkpt lat="49.88979" lon="2.47573">
        <ele>45.8</ele>
        <time>2023-09-27T13:25:38Z</time>
      </trkpt>
      <trkpt lat="49.88979" lon="2.47573">
        <ele>45.8</ele>
        <time>2023-09-27T13:25:39Z</time>
      </trkpt>
      <trkpt lat="49.88979" lon="2.47573">
        <ele>45.8</ele>
        <time>2023-09-27T13:25:40Z</time>
      </trkpt>
      <trkpt lat="49.88979" lon="2.47573">
        <ele>45.8</ele>
        <time>2023-09-27T13:25:41Z</time>
      </trkpt>
      <trkpt lat="49.88979" lon="2.47573">
        <ele>45.8</ele>
        <time>2023-09-27T13:25:42Z</time>
      </trkpt>
      <trkpt lat="49.88979" lon="2.47573">
        <ele>45.8</ele>
        <time>2023-09-27T13:25:43Z</time>
      </trkpt>
      <trkpt lat="49.88979" lon="2.47573">
        <ele>45.8</ele>
        <time>2023-09-27T13:25:44Z</time>
      </trkpt>
      <trkpt lat="49.88979" lon="2.47573">
        <ele>45.8</ele>
        <time>2023-09-27T13:25:45Z</time>
      </trkpt>
      <trkpt lat="49.88979" lon="2.47573">
        <ele>45.8</ele>
        <time>2023-09-27T13:25:46Z</time>
      </trkpt>
      <trkpt lat="49.88979" lon="2.47573">
        <ele>45.8</ele>
        <time>2023-09-27T13:25:47Z</time>
      </trkpt>
      <trkpt lat="49.88979" lon="2.47573">
        <ele>45.8</ele>
        <time>2023-09-27T13:25:48Z</time>
      </trkpt>
      <trkpt lat="49.88979" lon="2.47573">
        <ele>45.8</ele>
        <time>2023-09-27T13:25:49Z</time>
      </trkpt>
      <trkpt lat="49.88979" lon="2.47573">
        <ele>45.8</ele>
        <time>2023-09-27T13:25:50Z</time>
      </trkpt>
      <trkpt lat="49.88979" lon="2.47573">
        <ele>45.8</ele>
        <time>2023-09-27T13:25:51Z</time>
      </trkpt>
      <trkpt lat="49.88979" lon="2.47573">
        <ele>45.8</ele>
        <time>2023-09-27T13:25:52Z</time>
      </trkpt>
      <trkpt lat="49.88979" lon="2.47573">
        <ele>45.8</ele>
        <time>2023-09-27T13:25:53Z</time>
      </trkpt>
      <trkpt lat="49.88979" lon="2.47573">
        <ele>45.8</ele>
        <time>2023-09-27T13:25:54Z</time>
      </trkpt>
      <trkpt lat="49.88979" lon="2.47573">
        <ele>45.8</ele>
        <time>2023-09-27T13:25:55Z</time>
      </trkpt>
      <trkpt lat="49.88979" lon="2.47573">
        <ele>45.8</ele>
        <time>2023-09-27T13:25:56Z</time>
      </trkpt>
      <trkpt lat="49.88979" lon="2.47573">
        <ele>45.8</ele>
        <time>2023-09-27T13:25:57Z</time>
      </trkpt>
      <trkpt lat="49.88979" lon="2.47573">
        <ele>45.8</ele>
        <time>2023-09-27T13:25:58Z</time>
      </trkpt>
      <trkpt lat="49.88979" lon="2.47573">
        <ele>45.8</ele>
        <time>2023-09-27T13:25:59Z</time>
      </trkpt>
      <trkpt lat="49.88979" lon="2.47573">
        <ele>45.8</ele>
        <time>2023-09-27T13:26:00Z</time>
      </trkpt>
      <trkpt lat="49.88978" lon="2.47573">
        <ele>45.8</ele>
        <time>2023-09-27T13:26:01Z</time>
      </trkpt>
      <trkpt lat="49.88978" lon="2.47573">
        <ele>45.8</ele>
        <time>2023-09-27T13:26:02Z</time>
      </trkpt>
      <trkpt lat="49.88978" lon="2.47573">
        <ele>45.8</ele>
        <time>2023-09-27T13:26:03Z</time>
      </trkpt>
      <trkpt lat="49.88978" lon="2.47573">
        <ele>45.8</ele>
        <time>2023-09-27T13:26:04Z</time>
      </trkpt>
      <trkpt lat="49.88978" lon="2.47573">
        <ele>45.8</ele>
        <time>2023-09-27T13:26:05Z</time>
      </trkpt>
      <trkpt lat="49.88978" lon="2.47573">
        <ele>45.8</ele>
        <time>2023-09-27T13:26:06Z</time>
      </trkpt>
      <trkpt lat="49.88978" lon="2.47573">
        <ele>45.8</ele>
        <time>2023-09-27T13:26:07Z</time>
      </trkpt>
      <trkpt lat="49.88978" lon="2.47573">
        <ele>45.8</ele>
        <time>2023-09-27T13:26:08Z</time>
      </trkpt>
      <trkpt lat="49.88978" lon="2.47573">
        <ele>45.8</ele>
        <time>2023-09-27T13:26:09Z</time>
      </trkpt>
      <trkpt lat="49.88978" lon="2.47573">
        <ele>45.8</ele>
        <time>2023-09-27T13:26:10Z</time>
      </trkpt>
      <trkpt lat="49.88978" lon="2.47573">
        <ele>45.8</ele>
        <time>2023-09-27T13:26:11Z</time>
      </trkpt>
      <trkpt lat="49.88978" lon="2.47573">
        <ele>45.8</ele>
        <time>2023-09-27T13:26:12Z</time>
      </trkpt>
      <trkpt lat="49.88978" lon="2.47573">
        <ele>45.8</ele>
        <time>2023-09-27T13:26:13Z</time>
      </trkpt>
      <trkpt lat="49.88978" lon="2.47573">
        <ele>45.8</ele>
        <time>2023-09-27T13:26:14Z</time>
      </trkpt>
      <trkpt lat="49.88978" lon="2.47573">
        <ele>45.8</ele>
        <time>2023-09-27T13:26:15Z</time>
      </trkpt>
      <trkpt lat="49.88978" lon="2.47573">
        <ele>45.8</ele>
        <time>2023-09-27T13:26:16Z</time>
      </trkpt>
      <trkpt lat="49.88978" lon="2.47573">
        <ele>45.8</ele>
        <time>2023-09-27T13:26:17Z</time>
      </trkpt>
      <trkpt lat="49.88978" lon="2.47573">
        <ele>45.8</ele>
        <time>2023-09-27T13:26:18Z</time>
      </trkpt>
      <trkpt lat="49.88978" lon="2.47573">
        <ele>45.8</ele>
        <time>2023-09-27T13:26:19Z</time>
      </trkpt>
      <trkpt lat="49.88978" lon="2.47573">
        <ele>45.8</ele>
        <time>2023-09-27T13:26:20Z</time>
      </trkpt>
      <trkpt lat="49.88978" lon="2.47573">
        <ele>45.8</ele>
        <time>2023-09-27T13:26:21Z</time>
      </trkpt>
      <trkpt lat="49.88978" lon="2.47573">
        <ele>45.8</ele>
        <time>2023-09-27T13:26:22Z</time>
      </trkpt>
      <trkpt lat="49.88978" lon="2.47573">
        <ele>45.8</ele>
        <time>2023-09-27T13:26:23Z</time>
      </trkpt>
      <trkpt lat="49.88978" lon="2.47573">
        <ele>45.8</ele>
        <time>2023-09-27T13:26:24Z</time>
      </trkpt>
      <trkpt lat="49.88978" lon="2.47573">
        <ele>45.8</ele>
        <time>2023-09-27T13:26:25Z</time>
      </trkpt>
      <trkpt lat="49.88978" lon="2.47573">
        <ele>45.8</ele>
        <time>2023-09-27T13:26:26Z</time>
      </trkpt>
      <trkpt lat="49.88978" lon="2.47573">
        <ele>45.8</ele>
        <time>2023-09-27T13:26:27Z</time>
      </trkpt>
      <trkpt lat="49.88978" lon="2.47573">
        <ele>45.8</ele>
        <time>2023-09-27T13:26:28Z</time>
      </trkpt>
      <trkpt lat="49.88978" lon="2.47573">
        <ele>45.8</ele>
        <time>2023-09-27T13:26:29Z</time>
      </trkpt>
      <trkpt lat="49.88978" lon="2.47573">
        <ele>45.7</ele>
        <time>2023-09-27T13:26:30Z</time>
      </trkpt>
      <trkpt lat="49.88978" lon="2.47573">
        <ele>45.7</ele>
        <time>2023-09-27T13:26:31Z</time>
      </trkpt>
      <trkpt lat="49.88978" lon="2.47573">
        <ele>45.7</ele>
        <time>2023-09-27T13:26:32Z</time>
      </trkpt>
      <trkpt lat="49.88978" lon="2.47573">
        <ele>45.7</ele>
        <time>2023-09-27T13:26:33Z</time>
      </trkpt>
      <trkpt lat="49.88978" lon="2.47573">
        <ele>45.7</ele>
        <time>2023-09-27T13:26:34Z</time>
      </trkpt>
      <trkpt lat="49.88978" lon="2.47573">
        <ele>45.7</ele>
        <time>2023-09-27T13:26:35Z</time>
      </trkpt>
      <trkpt lat="49.88978" lon="2.47573">
        <ele>45.7</ele>
        <time>2023-09-27T13:26:36Z</time>
      </trkpt>
      <trkpt lat="49.88978" lon="2.47573">
        <ele>45.7</ele>
        <time>2023-09-27T13:26:37Z</time>
      </trkpt>
      <trkpt lat="49.88978" lon="2.47573">
        <ele>45.7</ele>
        <time>2023-09-27T13:26:38Z</time>
      </trkpt>
      <trkpt lat="49.88978" lon="2.47573">
        <ele>45.7</ele>
        <time>2023-09-27T13:26:39Z</time>
      </trkpt>
      <trkpt lat="49.88978" lon="2.47573">
        <ele>45.7</ele>
        <time>2023-09-27T13:26:40Z</time>
      </trkpt>
      <trkpt lat="49.88978" lon="2.47573">
        <ele>45.7</ele>
        <time>2023-09-27T13:26:41Z</time>
      </trkpt>
      <trkpt lat="49.88978" lon="2.47573">
        <ele>45.7</ele>
        <time>2023-09-27T13:26:42Z</time>
      </trkpt>
      <trkpt lat="49.88978" lon="2.47573">
        <ele>45.7</ele>
        <time>2023-09-27T13:26:43Z</time>
      </trkpt>
      <trkpt lat="49.88978" lon="2.47573">
        <ele>45.7</ele>
        <time>2023-09-27T13:26:44Z</time>
      </trkpt>
      <trkpt lat="49.88978" lon="2.47573">
        <ele>45.7</ele>
        <time>2023-09-27T13:26:45Z</time>
      </trkpt>
      <trkpt lat="49.88978" lon="2.47573">
        <ele>45.7</ele>
        <time>2023-09-27T13:26:46Z</time>
      </trkpt>
      <trkpt lat="49.88978" lon="2.47573">
        <ele>45.7</ele>
        <time>2023-09-27T13:26:47Z</time>
      </trkpt>
      <trkpt lat="49.88978" lon="2.47573">
        <ele>45.7</ele>
        <time>2023-09-27T13:26:48Z</time>
      </trkpt>
      <trkpt lat="49.88978" lon="2.47573">
        <ele>45.7</ele>
        <time>2023-09-27T13:26:49Z</time>
      </trkpt>
      <trkpt lat="49.88978" lon="2.47573">
        <ele>45.7</ele>
        <time>2023-09-27T13:26:50Z</time>
      </trkpt>
      <trkpt lat="49.88978" lon="2.47573">
        <ele>45.7</ele>
        <time>2023-09-27T13:26:51Z</time>
      </trkpt>
      <trkpt lat="49.88978" lon="2.47573">
        <ele>45.7</ele>
        <time>2023-09-27T13:26:52Z</time>
      </trkpt>
      <trkpt lat="49.88978" lon="2.47573">
        <ele>45.7</ele>
        <time>2023-09-27T13:26:53Z</time>
      </trkpt>
      <trkpt lat="49.88978" lon="2.47573">
        <ele>45.7</ele>
        <time>2023-09-27T13:26:54Z</time>
      </trkpt>
      <trkpt lat="49.88978" lon="2.47573">
        <ele>45.7</ele>
        <time>2023-09-27T13:26:55Z</time>
      </trkpt>
      <trkpt lat="49.88978" lon="2.47573">
        <ele>45.7</ele>
        <time>2023-09-27T13:26:56Z</time>
      </trkpt>
      <trkpt lat="49.88978" lon="2.47573">
        <ele>45.7</ele>
        <time>2023-09-27T13:26:57Z</time>
      </trkpt>
      <trkpt lat="49.88978" lon="2.47573">
        <ele>45.7</ele>
        <time>2023-09-27T13:26:58Z</time>
      </trkpt>
      <trkpt lat="49.88978" lon="2.47573">
        <ele>45.7</ele>
        <time>2023-09-27T13:26:59Z</time>
      </trkpt>
      <trkpt lat="49.88977" lon="2.47573">
        <ele>45.7</ele>
        <time>2023-09-27T13:27:00Z</time>
      </trkpt>
      <trkpt lat="49.88977" lon="2.47573">
        <ele>45.7</ele>
        <time>2023-09-27T13:27:01Z</time>
      </trkpt>
      <trkpt lat="49.88977" lon="2.47573">
        <ele>45.7</ele>
        <time>2023-09-27T13:27:02Z</time>
      </trkpt>
      <trkpt lat="49.88977" lon="2.47573">
        <ele>45.7</ele>
        <time>2023-09-27T13:27:03Z</time>
      </trkpt>
      <trkpt lat="49.88977" lon="2.47573">
        <ele>45.7</ele>
        <time>2023-09-27T13:27:04Z</time>
      </trkpt>
      <trkpt lat="49.88977" lon="2.47573">
        <ele>45.7</ele>
        <time>2023-09-27T13:27:05Z</time>
      </trkpt>
      <trkpt lat="49.88977" lon="2.47573">
        <ele>45.7</ele>
        <time>2023-09-27T13:27:06Z</time>
      </trkpt>
      <trkpt lat="49.88977" lon="2.47573">
        <ele>45.7</ele>
        <time>2023-09-27T13:27:07Z</time>
      </trkpt>
      <trkpt lat="49.88977" lon="2.47573">
        <ele>45.7</ele>
        <time>2023-09-27T13:27:08Z</time>
      </trkpt>
      <trkpt lat="49.88977" lon="2.47573">
        <ele>45.7</ele>
        <time>2023-09-27T13:27:09Z</time>
      </trkpt>
      <trkpt lat="49.88977" lon="2.47572">
        <ele>45.7</ele>
        <time>2023-09-27T13:27:10Z</time>
      </trkpt>
      <trkpt lat="49.88977" lon="2.47573">
        <ele>45.7</ele>
        <time>2023-09-27T13:27:11Z</time>
      </trkpt>
      <trkpt lat="49.88978" lon="2.47574">
        <ele>45.7</ele>
        <time>2023-09-27T13:27:12Z</time>
      </trkpt>
      <trkpt lat="49.88978" lon="2.47575">
        <ele>45.6</ele>
        <time>2023-09-27T13:27:13Z</time>
      </trkpt>
      <trkpt lat="49.88978" lon="2.47576">
        <ele>45.6</ele>
        <time>2023-09-27T13:27:14Z</time>
      </trkpt>
      <trkpt lat="49.88979" lon="2.47576">
        <ele>45.6</ele>
        <time>2023-09-27T13:27:15Z</time>
      </trkpt>
      <trkpt lat="49.88979" lon="2.47576">
        <ele>45.6</ele>
        <time>2023-09-27T13:27:16Z</time>
      </trkpt>
      <trkpt lat="49.88979" lon="2.47576">
        <ele>45.6</ele>
        <time>2023-09-27T13:27:17Z</time>
      </trkpt>
      <trkpt lat="49.88979" lon="2.47576">
        <ele>45.6</ele>
        <time>2023-09-27T13:27:18Z</time>
      </trkpt>
      <trkpt lat="49.88979" lon="2.47576">
        <ele>45.6</ele>
        <time>2023-09-27T13:27:19Z</time>
      </trkpt>
      <trkpt lat="49.88979" lon="2.47576">
        <ele>45.6</ele>
        <time>2023-09-27T13:27:20Z</time>
      </trkpt>
      <trkpt lat="49.88979" lon="2.47576">
        <ele>45.6</ele>
        <time>2023-09-27T13:27:21Z</time>
      </trkpt>
      <trkpt lat="49.88979" lon="2.47576">
        <ele>45.6</ele>
        <time>2023-09-27T13:27:22Z</time>
      </trkpt>
      <trkpt lat="49.88979" lon="2.47576">
        <ele>45.6</ele>
        <time>2023-09-27T13:27:23Z</time>
      </trkpt>
      <trkpt lat="49.88979" lon="2.47576">
        <ele>45.6</ele>
        <time>2023-09-27T13:27:24Z</time>
      </trkpt>
      <trkpt lat="49.88979" lon="2.47576">
        <ele>45.6</ele>
        <time>2023-09-27T13:27:25Z</time>
      </trkpt>
      <trkpt lat="49.88979" lon="2.47576">
        <ele>45.6</ele>
        <time>2023-09-27T13:27:26Z</time>
      </trkpt>
      <trkpt lat="49.88979" lon="2.47576">
        <ele>45.6</ele>
        <time>2023-09-27T13:27:27Z</time>
      </trkpt>
      <trkpt lat="49.88979" lon="2.47576">
        <ele>45.6</ele>
        <time>2023-09-27T13:27:28Z</time>
      </trkpt>
      <trkpt lat="49.88979" lon="2.47576">
        <ele>45.6</ele>
        <time>2023-09-27T13:27:29Z</time>
      </trkpt>
      <trkpt lat="49.88979" lon="2.47576">
        <ele>45.6</ele>
        <time>2023-09-27T13:27:30Z</time>
      </trkpt>
      <trkpt lat="49.88979" lon="2.47576">
        <ele>45.6</ele>
        <time>2023-09-27T13:27:31Z</time>
      </trkpt>
      <trkpt lat="49.88979" lon="2.47576">
        <ele>45.6</ele>
        <time>2023-09-27T13:27:32Z</time>
      </trkpt>
      <trkpt lat="49.88979" lon="2.47576">
        <ele>45.6</ele>
        <time>2023-09-27T13:27:33Z</time>
      </trkpt>
      <trkpt lat="49.88979" lon="2.47576">
        <ele>45.6</ele>
        <time>2023-09-27T13:27:34Z</time>
      </trkpt>
      <trkpt lat="49.88979" lon="2.47576">
        <ele>45.6</ele>
        <time>2023-09-27T13:27:35Z</time>
      </trkpt>
      <trkpt lat="49.88979" lon="2.47576">
        <ele>45.6</ele>
        <time>2023-09-27T13:27:36Z</time>
      </trkpt>
      <trkpt lat="49.88979" lon="2.47576">
        <ele>45.6</ele>
        <time>2023-09-27T13:27:37Z</time>
      </trkpt>
      <trkpt lat="49.88979" lon="2.47576">
        <ele>45.6</ele>
        <time>2023-09-27T13:27:38Z</time>
      </trkpt>
      <trkpt lat="49.88979" lon="2.47576">
        <ele>45.6</ele>
        <time>2023-09-27T13:27:39Z</time>
      </trkpt>
      <trkpt lat="49.88979" lon="2.47576">
        <ele>45.6</ele>
        <time>2023-09-27T13:27:40Z</time>
      </trkpt>
      <trkpt lat="49.88979" lon="2.47576">
        <ele>45.6</ele>
        <time>2023-09-27T13:27:41Z</time>
      </trkpt>
      <trkpt lat="49.88979" lon="2.47576">
        <ele>45.6</ele>
        <time>2023-09-27T13:27:42Z</time>
      </trkpt>
      <trkpt lat="49.88979" lon="2.47576">
        <ele>45.6</ele>
        <time>2023-09-27T13:27:43Z</time>
      </trkpt>
      <trkpt lat="49.88979" lon="2.47576">
        <ele>45.6</ele>
        <time>2023-09-27T13:27:44Z</time>
      </trkpt>
      <trkpt lat="49.88979" lon="2.47576">
        <ele>45.6</ele>
        <time>2023-09-27T13:27:45Z</time>
      </trkpt>
      <trkpt lat="49.88979" lon="2.47576">
        <ele>45.6</ele>
        <time>2023-09-27T13:27:46Z</time>
      </trkpt>
      <trkpt lat="49.88979" lon="2.47576">
        <ele>45.6</ele>
        <time>2023-09-27T13:27:47Z</time>
      </trkpt>
      <trkpt lat="49.88979" lon="2.47576">
        <ele>45.6</ele>
        <time>2023-09-27T13:27:48Z</time>
      </trkpt>
      <trkpt lat="49.88979" lon="2.47576">
        <ele>45.6</ele>
        <time>2023-09-27T13:27:49Z</time>
      </trkpt>
      <trkpt lat="49.88979" lon="2.47576">
        <ele>45.6</ele>
        <time>2023-09-27T13:27:50Z</time>
      </trkpt>
      <trkpt lat="49.88979" lon="2.47576">
        <ele>45.6</ele>
        <time>2023-09-27T13:27:51Z</time>
      </trkpt>
      <trkpt lat="49.88979" lon="2.47576">
        <ele>45.6</ele>
        <time>2023-09-27T13:27:52Z</time>
      </trkpt>
      <trkpt lat="49.88979" lon="2.47576">
        <ele>45.6</ele>
        <time>2023-09-27T13:27:53Z</time>
      </trkpt>
      <trkpt lat="49.88979" lon="2.47576">
        <ele>45.6</ele>
        <time>2023-09-27T13:27:54Z</time>
      </trkpt>
      <trkpt lat="49.88979" lon="2.47576">
        <ele>45.6</ele>
        <time>2023-09-27T13:27:55Z</time>
      </trkpt>
      <trkpt lat="49.88979" lon="2.47576">
        <ele>45.6</ele>
        <time>2023-09-27T13:27:56Z</time>
      </trkpt>
      <trkpt lat="49.88979" lon="2.47576">
        <ele>45.6</ele>
        <time>2023-09-27T13:27:57Z</time>
      </trkpt>
      <trkpt lat="49.88979" lon="2.47576">
        <ele>45.6</ele>
        <time>2023-09-27T13:27:58Z</time>
      </trkpt>
      <trkpt lat="49.88979" lon="2.47576">
        <ele>45.6</ele>
        <time>2023-09-27T13:27:59Z</time>
      </trkpt>
      <trkpt lat="49.88979" lon="2.47576">
        <ele>45.6</ele>
        <time>2023-09-27T13:28:00Z</time>
      </trkpt>
      <trkpt lat="49.88979" lon="2.47576">
        <ele>45.6</ele>
        <time>2023-09-27T13:28:01Z</time>
      </trkpt>
      <trkpt lat="49.88979" lon="2.47576">
        <ele>45.6</ele>
        <time>2023-09-27T13:28:02Z</time>
      </trkpt>
      <trkpt lat="49.88979" lon="2.47576">
        <ele>45.6</ele>
        <time>2023-09-27T13:28:03Z</time>
      </trkpt>
      <trkpt lat="49.88979" lon="2.47576">
        <ele>45.6</ele>
        <time>2023-09-27T13:28:04Z</time>
      </trkpt>
      <trkpt lat="49.88979" lon="2.47576">
        <ele>45.6</ele>
        <time>2023-09-27T13:28:05Z</time>
      </trkpt>
      <trkpt lat="49.88979" lon="2.47576">
        <ele>45.6</ele>
        <time>2023-09-27T13:28:06Z</time>
      </trkpt>
      <trkpt lat="49.88979" lon="2.47576">
        <ele>45.6</ele>
        <time>2023-09-27T13:28:07Z</time>
      </trkpt>
      <trkpt lat="49.88979" lon="2.47576">
        <ele>45.6</ele>
        <time>2023-09-27T13:28:08Z</time>
      </trkpt>
      <trkpt lat="49.88979" lon="2.47576">
        <ele>45.6</ele>
        <time>2023-09-27T13:28:09Z</time>
      </trkpt>
      <trkpt lat="49.88979" lon="2.47576">
        <ele>45.6</ele>
        <time>2023-09-27T13:28:10Z</time>
      </trkpt>
      <trkpt lat="49.88979" lon="2.47576">
        <ele>45.6</ele>
        <time>2023-09-27T13:28:11Z</time>
      </trkpt>
      <trkpt lat="49.88979" lon="2.47576">
        <ele>45.6</ele>
        <time>2023-09-27T13:28:12Z</time>
      </trkpt>
      <trkpt lat="49.88979" lon="2.47576">
        <ele>45.6</ele>
        <time>2023-09-27T13:28:13Z</time>
      </trkpt>
      <trkpt lat="49.88979" lon="2.47576">
        <ele>45.6</ele>
        <time>2023-09-27T13:28:14Z</time>
      </trkpt>
      <trkpt lat="49.88979" lon="2.47576">
        <ele>45.6</ele>
        <time>2023-09-27T13:28:15Z</time>
      </trkpt>
      <trkpt lat="49.88979" lon="2.47576">
        <ele>45.6</ele>
        <time>2023-09-27T13:28:16Z</time>
      </trkpt>
      <trkpt lat="49.88979" lon="2.47576">
        <ele>45.6</ele>
        <time>2023-09-27T13:28:17Z</time>
      </trkpt>
      <trkpt lat="49.88979" lon="2.47576">
        <ele>45.6</ele>
        <time>2023-09-27T13:28:18Z</time>
      </trkpt>
      <trkpt lat="49.88979" lon="2.47576">
        <ele>45.6</ele>
        <time>2023-09-27T13:28:19Z</time>
      </trkpt>
      <trkpt lat="49.88979" lon="2.47576">
        <ele>45.6</ele>
        <time>2023-09-27T13:28:20Z</time>
      </trkpt>
      <trkpt lat="49.88979" lon="2.47576">
        <ele>45.6</ele>
        <time>2023-09-27T13:28:21Z</time>
      </trkpt>
      <trkpt lat="49.88979" lon="2.47576">
        <ele>45.6</ele>
        <time>2023-09-27T13:28:22Z</time>
      </trkpt>
      <trkpt lat="49.88979" lon="2.47576">
        <ele>45.6</ele>
        <time>2023-09-27T13:28:23Z</time>
      </trkpt>
      <trkpt lat="49.88979" lon="2.47576">
        <ele>45.6</ele>
        <time>2023-09-27T13:28:24Z</time>
      </trkpt>
      <trkpt lat="49.88979" lon="2.47576">
        <ele>45.6</ele>
        <time>2023-09-27T13:28:25Z</time>
      </trkpt>
      <trkpt lat="49.88979" lon="2.47576">
        <ele>45.6</ele>
        <time>2023-09-27T13:28:26Z</time>
      </trkpt>
      <trkpt lat="49.88979" lon="2.47576">
        <ele>45.6</ele>
        <time>2023-09-27T13:28:27Z</time>
      </trkpt>
      <trkpt lat="49.88979" lon="2.47576">
        <ele>45.6</ele>
        <time>2023-09-27T13:28:28Z</time>
      </trkpt>
      <trkpt lat="49.88979" lon="2.47576">
        <ele>45.6</ele>
        <time>2023-09-27T13:28:29Z</time>
      </trkpt>
      <trkpt lat="49.88979" lon="2.47576">
        <ele>45.6</ele>
        <time>2023-09-27T13:28:30Z</time>
      </trkpt>
      <trkpt lat="49.88978" lon="2.47574">
        <ele>45.6</ele>
        <time>2023-09-27T13:28:31Z</time>
      </trkpt>
      <trkpt lat="49.88978" lon="2.47573">
        <ele>45.5</ele>
        <time>2023-09-27T13:28:32Z</time>
      </trkpt>
      <trkpt lat="49.88978" lon="2.47572">
        <ele>45.5</ele>
        <time>2023-09-27T13:28:33Z</time>
      </trkpt>
      <trkpt lat="49.88979" lon="2.47573">
        <ele>45.5</ele>
        <time>2023-09-27T13:28:34Z</time>
      </trkpt>
      <trkpt lat="49.88979" lon="2.47573">
        <ele>45.5</ele>
        <time>2023-09-27T13:28:35Z</time>
      </trkpt>
      <trkpt lat="49.88979" lon="2.47573">
        <ele>45.5</ele>
        <time>2023-09-27T13:28:36Z</time>
      </trkpt>
      <trkpt lat="49.8898" lon="2.47574">
        <ele>45.5</ele>
        <time>2023-09-27T13:28:37Z</time>
      </trkpt>
      <trkpt lat="49.8898" lon="2.47575">
        <ele>45.5</ele>
        <time>2023-09-27T13:28:38Z</time>
      </trkpt>
      <trkpt lat="49.8898" lon="2.47576">
        <ele>45.5</ele>
        <time>2023-09-27T13:28:39Z</time>
      </trkpt>
      <trkpt lat="49.8898" lon="2.47577">
        <ele>45.5</ele>
        <time>2023-09-27T13:28:40Z</time>
      </trkpt>
      <trkpt lat="49.88979" lon="2.47578">
        <ele>45.4</ele>
        <time>2023-09-27T13:28:41Z</time>
      </trkpt>
      <trkpt lat="49.88979" lon="2.47579">
        <ele>45.4</ele>
        <time>2023-09-27T13:28:42Z</time>
      </trkpt>
      <trkpt lat="49.88979" lon="2.4758">
        <ele>45.4</ele>
        <time>2023-09-27T13:28:43Z</time>
      </trkpt>
      <trkpt lat="49.88979" lon="2.47581">
        <ele>45.4</ele>
        <time>2023-09-27T13:28:44Z</time>
      </trkpt>
      <trkpt lat="49.88979" lon="2.47582">
        <ele>45.4</ele>
        <time>2023-09-27T13:28:45Z</time>
      </trkpt>
      <trkpt lat="49.88979" lon="2.47584">
        <ele>45.4</ele>
        <time>2023-09-27T13:28:46Z</time>
      </trkpt>
      <trkpt lat="49.88979" lon="2.47585">
        <ele>45.4</ele>
        <time>2023-09-27T13:28:47Z</time>
      </trkpt>
      <trkpt lat="49.88979" lon="2.47586">
        <ele>45.4</ele>
        <time>2023-09-27T13:28:48Z</time>
      </trkpt>
      <trkpt lat="49.88979" lon="2.47588">
        <ele>45.4</ele>
        <time>2023-09-27T13:28:49Z</time>
      </trkpt>
      <trkpt lat="49.88979" lon="2.47589">
        <ele>45.4</ele>
        <time>2023-09-27T13:28:50Z</time>
      </trkpt>
      <trkpt lat="49.8898" lon="2.4759">
        <ele>45.4</ele>
        <time>2023-09-27T13:28:51Z</time>
      </trkpt>
      <trkpt lat="49.8898" lon="2.47591">
        <ele>45.3</ele>
        <time>2023-09-27T13:28:52Z</time>
      </trkpt>
      <trkpt lat="49.8898" lon="2.47592">
        <ele>45.3</ele>
        <time>2023-09-27T13:28:53Z</time>
      </trkpt>
      <trkpt lat="49.88981" lon="2.47593">
        <ele>45.3</ele>
        <time>2023-09-27T13:28:54Z</time>
      </trkpt>
      <trkpt lat="49.88981" lon="2.47595">
        <ele>45.3</ele>
        <time>2023-09-27T13:28:55Z</time>
      </trkpt>
      <trkpt lat="49.88982" lon="2.47596">
        <ele>45.3</ele>
        <time>2023-09-27T13:28:56Z</time>
      </trkpt>
      <trkpt lat="49.88982" lon="2.47597">
        <ele>45.3</ele>
        <time>2023-09-27T13:28:57Z</time>
      </trkpt>
      <trkpt lat="49.88983" lon="2.47599">
        <ele>45.3</ele>
        <time>2023-09-27T13:28:58Z</time>
      </trkpt>
      <trkpt lat="49.88984" lon="2.47602">
        <ele>45.3</ele>
        <time>2023-09-27T13:28:59Z</time>
      </trkpt>
      <trkpt lat="49.88984" lon="2.47603">
        <ele>45.3</ele>
        <time>2023-09-27T13:29:00Z</time>
      </trkpt>
      <trkpt lat="49.88984" lon="2.47604">
        <ele>45.3</ele>
        <time>2023-09-27T13:29:01Z</time>
      </trkpt>
      <trkpt lat="49.88984" lon="2.47606">
        <ele>45.3</ele>
        <time>2023-09-27T13:29:02Z</time>
      </trkpt>
      <trkpt lat="49.88984" lon="2.47608">
        <ele>45.3</ele>
        <time>2023-09-27T13:29:03Z</time>
      </trkpt>
      <trkpt lat="49.88985" lon="2.47609">
        <ele>45.3</ele>
        <time>2023-09-27T13:29:04Z</time>
      </trkpt>
      <trkpt lat="49.88985" lon="2.47611">
        <ele>45.3</ele>
        <time>2023-09-27T13:29:05Z</time>
      </trkpt>
      <trkpt lat="49.88985" lon="2.47612">
        <ele>45.3</ele>
        <time>2023-09-27T13:29:06Z</time>
      </trkpt>
      <trkpt lat="49.88985" lon="2.47614">
        <ele>45.3</ele>
        <time>2023-09-27T13:29:07Z</time>
      </trkpt>
      <trkpt lat="49.88986" lon="2.47616">
        <ele>45.3</ele>
        <time>2023-09-27T13:29:08Z</time>
      </trkpt>
      <trkpt lat="49.88986" lon="2.47617">
        <ele>45.3</ele>
        <time>2023-09-27T13:29:09Z</time>
      </trkpt>
      <trkpt lat="49.88986" lon="2.47619">
        <ele>45.3</ele>
        <time>2023-09-27T13:29:10Z</time>
      </trkpt>
      <trkpt lat="49.88986" lon="2.4762">
        <ele>45.3</ele>
        <time>2023-09-27T13:29:11Z</time>
      </trkpt>
      <trkpt lat="49.88986" lon="2.47622">
        <ele>45.2</ele>
        <time>2023-09-27T13:29:12Z</time>
      </trkpt>
      <trkpt lat="49.88986" lon="2.47624">
        <ele>45.2</ele>
        <time>2023-09-27T13:29:13Z</time>
      </trkpt>
      <trkpt lat="49.88986" lon="2.47627">
        <ele>45.2</ele>
        <time>2023-09-27T13:29:14Z</time>
      </trkpt>
      <trkpt lat="49.88987" lon="2.47628">
        <ele>45.2</ele>
        <time>2023-09-27T13:29:15Z</time>
      </trkpt>
      <trkpt lat="49.88987" lon="2.4763">
        <ele>45.2</ele>
        <time>2023-09-27T13:29:16Z</time>
      </trkpt>
      <trkpt lat="49.88987" lon="2.47632">
        <ele>45.2</ele>
        <time>2023-09-27T13:29:17Z</time>
      </trkpt>
      <trkpt lat="49.88987" lon="2.47633">
        <ele>45.2</ele>
        <time>2023-09-27T13:29:18Z</time>
      </trkpt>
      <trkpt lat="49.88987" lon="2.47635">
        <ele>45.2</ele>
        <time>2023-09-27T13:29:19Z</time>
      </trkpt>
      <trkpt lat="49.88987" lon="2.47636">
        <ele>45.2</ele>
        <time>2023-09-27T13:29:20Z</time>
      </trkpt>
      <trkpt lat="49.88987" lon="2.47638">
        <ele>45.1</ele>
        <time>2023-09-27T13:29:21Z</time>
      </trkpt>
      <trkpt lat="49.88987" lon="2.47639">
        <ele>45.1</ele>
        <time>2023-09-27T13:29:22Z</time>
      </trkpt>
      <trkpt lat="49.88987" lon="2.47641">
        <ele>45.1</ele>
        <time>2023-09-27T13:29:23Z</time>
      </trkpt>
      <trkpt lat="49.88987" lon="2.47643">
        <ele>45.1</ele>
        <time>2023-09-27T13:29:24Z</time>
      </trkpt>
      <trkpt lat="49.88987" lon="2.47644">
        <ele>45.1</ele>
        <time>2023-09-27T13:29:25Z</time>
      </trkpt>
      <trkpt lat="49.88987" lon="2.47646">
        <ele>45.1</ele>
        <time>2023-09-27T13:29:26Z</time>
      </trkpt>
      <trkpt lat="49.88987" lon="2.47648">
        <ele>45.1</ele>
        <time>2023-09-27T13:29:27Z</time>
      </trkpt>
      <trkpt lat="49.88988" lon="2.47649">
        <ele>45.1</ele>
        <time>2023-09-27T13:29:28Z</time>
      </trkpt>
      <trkpt lat="49.88988" lon="2.4765">
        <ele>45</ele>
        <time>2023-09-27T13:29:29Z</time>
      </trkpt>
      <trkpt lat="49.88988" lon="2.47652">
        <ele>45</ele>
        <time>2023-09-27T13:29:30Z</time>
      </trkpt>
      <trkpt lat="49.88988" lon="2.47653">
        <ele>45</ele>
        <time>2023-09-27T13:29:31Z</time>
      </trkpt>
      <trkpt lat="49.88988" lon="2.47654">
        <ele>45</ele>
        <time>2023-09-27T13:29:32Z</time>
      </trkpt>
      <trkpt lat="49.88988" lon="2.47656">
        <ele>45</ele>
        <time>2023-09-27T13:29:33Z</time>
      </trkpt>
      <trkpt lat="49.88989" lon="2.47658">
        <ele>45</ele>
        <time>2023-09-27T13:29:34Z</time>
      </trkpt>
      <trkpt lat="49.88989" lon="2.47659">
        <ele>45</ele>
        <time>2023-09-27T13:29:35Z</time>
      </trkpt>
      <trkpt lat="49.88989" lon="2.47661">
        <ele>45</ele>
        <time>2023-09-27T13:29:36Z</time>
      </trkpt>
      <trkpt lat="49.88989" lon="2.47662">
        <ele>44.9</ele>
        <time>2023-09-27T13:29:37Z</time>
      </trkpt>
      <trkpt lat="49.88989" lon="2.47664">
        <ele>44.9</ele>
        <time>2023-09-27T13:29:38Z</time>
      </trkpt>
      <trkpt lat="49.8899" lon="2.47665">
        <ele>44.9</ele>
        <time>2023-09-27T13:29:39Z</time>
      </trkpt>
      <trkpt lat="49.8899" lon="2.47667">
        <ele>44.9</ele>
        <time>2023-09-27T13:29:40Z</time>
      </trkpt>
      <trkpt lat="49.8899" lon="2.47668">
        <ele>44.9</ele>
        <time>2023-09-27T13:29:41Z</time>
      </trkpt>
      <trkpt lat="49.88991" lon="2.4767">
        <ele>44.9</ele>
        <time>2023-09-27T13:29:42Z</time>
      </trkpt>
      <trkpt lat="49.88991" lon="2.47672">
        <ele>44.8</ele>
        <time>2023-09-27T13:29:43Z</time>
      </trkpt>
      <trkpt lat="49.88991" lon="2.47673">
        <ele>44.8</ele>
        <time>2023-09-27T13:29:44Z</time>
      </trkpt>
      <trkpt lat="49.88991" lon="2.47675">
        <ele>44.8</ele>
        <time>2023-09-27T13:29:45Z</time>
      </trkpt>
      <trkpt lat="49.88992" lon="2.47676">
        <ele>44.8</ele>
        <time>2023-09-27T13:29:46Z</time>
      </trkpt>
      <trkpt lat="49.88992" lon="2.47678">
        <ele>44.8</ele>
        <time>2023-09-27T13:29:47Z</time>
      </trkpt>
      <trkpt lat="49.88992" lon="2.47679">
        <ele>44.7</ele>
        <time>2023-09-27T13:29:48Z</time>
      </trkpt>
      <trkpt lat="49.88993" lon="2.4768">
        <ele>44.7</ele>
        <time>2023-09-27T13:29:49Z</time>
      </trkpt>
      <trkpt lat="49.88993" lon="2.47682">
        <ele>44.7</ele>
        <time>2023-09-27T13:29:50Z</time>
      </trkpt>
      <trkpt lat="49.88993" lon="2.47683">
        <ele>44.7</ele>
        <time>2023-09-27T13:29:51Z</time>
      </trkpt>
      <trkpt lat="49.88994" lon="2.47685">
        <ele>44.6</ele>
        <time>2023-09-27T13:29:52Z</time>
      </trkpt>
      <trkpt lat="49.88994" lon="2.47687">
        <ele>44.6</ele>
        <time>2023-09-27T13:29:53Z</time>
      </trkpt>
      <trkpt lat="49.88994" lon="2.47688">
        <ele>44.6</ele>
        <time>2023-09-27T13:29:54Z</time>
      </trkpt>
      <trkpt lat="49.88994" lon="2.4769">
        <ele>44.6</ele>
        <time>2023-09-27T13:29:55Z</time>
      </trkpt>
      <trkpt lat="49.88994" lon="2.47692">
        <ele>44.6</ele>
        <time>2023-09-27T13:29:56Z</time>
      </trkpt>
      <trkpt lat="49.88995" lon="2.47693">
        <ele>44.5</ele>
        <time>2023-09-27T13:29:57Z</time>
      </trkpt>
      <trkpt lat="49.88995" lon="2.47695">
        <ele>44.5</ele>
        <time>2023-09-27T13:29:58Z</time>
      </trkpt>
      <trkpt lat="49.88995" lon="2.47696">
        <ele>44.5</ele>
        <time>2023-09-27T13:29:59Z</time>
      </trkpt>
      <trkpt lat="49.88995" lon="2.47698">
        <ele>44.5</ele>
        <time>2023-09-27T13:30:00Z</time>
      </trkpt>
      <trkpt lat="49.88995" lon="2.477">
        <ele>44.4</ele>
        <time>2023-09-27T13:30:01Z</time>
      </trkpt>
      <trkpt lat="49.88996" lon="2.47702">
        <ele>44.4</ele>
        <time>2023-09-27T13:30:02Z</time>
      </trkpt>
      <trkpt lat="49.88996" lon="2.47704">
        <ele>44.4</ele>
        <time>2023-09-27T13:30:03Z</time>
      </trkpt>
      <trkpt lat="49.88996" lon="2.47706">
        <ele>44.4</ele>
        <time>2023-09-27T13:30:04Z</time>
      </trkpt>
      <trkpt lat="49.88996" lon="2.47707">
        <ele>44.4</ele>
        <time>2023-09-27T13:30:05Z</time>
      </trkpt>
      <trkpt lat="49.88996" lon="2.47709">
        <ele>44.4</ele>
        <time>2023-09-27T13:30:06Z</time>
      </trkpt>
      <trkpt lat="49.88996" lon="2.47711">
        <ele>44.4</ele>
        <time>2023-09-27T13:30:07Z</time>
      </trkpt>
      <trkpt lat="49.88997" lon="2.47712">
        <ele>44.4</ele>
        <time>2023-09-27T13:30:08Z</time>
      </trkpt>
      <trkpt lat="49.88997" lon="2.47714">
        <ele>44.4</ele>
        <time>2023-09-27T13:30:09Z</time>
      </trkpt>
      <trkpt lat="49.88997" lon="2.47716">
        <ele>44.4</ele>
        <time>2023-09-27T13:30:10Z</time>
      </trkpt>
      <trkpt lat="49.88997" lon="2.47718">
        <ele>44.4</ele>
        <time>2023-09-27T13:30:11Z</time>
      </trkpt>
      <trkpt lat="49.88997" lon="2.47719">
        <ele>44.4</ele>
        <time>2023-09-27T13:30:12Z</time>
      </trkpt>
      <trkpt lat="49.88997" lon="2.47721">
        <ele>44.4</ele>
        <time>2023-09-27T13:30:13Z</time>
      </trkpt>
      <trkpt lat="49.88997" lon="2.47723">
        <ele>44.4</ele>
        <time>2023-09-27T13:30:14Z</time>
      </trkpt>
      <trkpt lat="49.88998" lon="2.47724">
        <ele>44.4</ele>
        <time>2023-09-27T13:30:15Z</time>
      </trkpt>
      <trkpt lat="49.88998" lon="2.47726">
        <ele>44.4</ele>
        <time>2023-09-27T13:30:16Z</time>
      </trkpt>
      <trkpt lat="49.88998" lon="2.47728">
        <ele>44.4</ele>
        <time>2023-09-27T13:30:17Z</time>
      </trkpt>
      <trkpt lat="49.88998" lon="2.47731">
        <ele>44.4</ele>
        <time>2023-09-27T13:30:18Z</time>
      </trkpt>
      <trkpt lat="49.88998" lon="2.47732">
        <ele>44.4</ele>
        <time>2023-09-27T13:30:19Z</time>
      </trkpt>
      <trkpt lat="49.88998" lon="2.47733">
        <ele>44.4</ele>
        <time>2023-09-27T13:30:20Z</time>
      </trkpt>
      <trkpt lat="49.88999" lon="2.47737">
        <ele>44.4</ele>
        <time>2023-09-27T13:30:21Z</time>
      </trkpt>
      <trkpt lat="49.88999" lon="2.47738">
        <ele>44.3</ele>
        <time>2023-09-27T13:30:22Z</time>
      </trkpt>
      <trkpt lat="49.88999" lon="2.47739">
        <ele>44.3</ele>
        <time>2023-09-27T13:30:23Z</time>
      </trkpt>
      <trkpt lat="49.88999" lon="2.47741">
        <ele>44.3</ele>
        <time>2023-09-27T13:30:24Z</time>
      </trkpt>
      <trkpt lat="49.88999" lon="2.47743">
        <ele>44.3</ele>
        <time>2023-09-27T13:30:25Z</time>
      </trkpt>
      <trkpt lat="49.88999" lon="2.47745">
        <ele>44.3</ele>
        <time>2023-09-27T13:30:26Z</time>
      </trkpt>
      <trkpt lat="49.88999" lon="2.47746">
        <ele>44.3</ele>
        <time>2023-09-27T13:30:27Z</time>
      </trkpt>
      <trkpt lat="49.89" lon="2.47748">
        <ele>44.3</ele>
        <time>2023-09-27T13:30:28Z</time>
      </trkpt>
      <trkpt lat="49.89" lon="2.4775">
        <ele>44.3</ele>
        <time>2023-09-27T13:30:29Z</time>
      </trkpt>
      <trkpt lat="49.89" lon="2.47753">
        <ele>44.2</ele>
        <time>2023-09-27T13:30:30Z</time>
      </trkpt>
      <trkpt lat="49.89" lon="2.47754">
        <ele>44.2</ele>
        <time>2023-09-27T13:30:31Z</time>
      </trkpt>
      <trkpt lat="49.89" lon="2.47756">
        <ele>44.2</ele>
        <time>2023-09-27T13:30:32Z</time>
      </trkpt>
      <trkpt lat="49.89" lon="2.47757">
        <ele>44.2</ele>
        <time>2023-09-27T13:30:33Z</time>
      </trkpt>
      <trkpt lat="49.89001" lon="2.47759">
        <ele>44.2</ele>
        <time>2023-09-27T13:30:34Z</time>
      </trkpt>
      <trkpt lat="49.89001" lon="2.47761">
        <ele>44.2</ele>
        <time>2023-09-27T13:30:35Z</time>
      </trkpt>
      <trkpt lat="49.89001" lon="2.47762">
        <ele>44.1</ele>
        <time>2023-09-27T13:30:36Z</time>
      </trkpt>
      <trkpt lat="49.89001" lon="2.47764">
        <ele>44.1</ele>
        <time>2023-09-27T13:30:37Z</time>
      </trkpt>
      <trkpt lat="49.89001" lon="2.47766">
        <ele>44.1</ele>
        <time>2023-09-27T13:30:38Z</time>
      </trkpt>
      <trkpt lat="49.89002" lon="2.47769">
        <ele>44.1</ele>
        <time>2023-09-27T13:30:39Z</time>
      </trkpt>
      <trkpt lat="49.89002" lon="2.4777">
        <ele>44</ele>
        <time>2023-09-27T13:30:40Z</time>
      </trkpt>
      <trkpt lat="49.89002" lon="2.47772">
        <ele>44</ele>
        <time>2023-09-27T13:30:41Z</time>
      </trkpt>
      <trkpt lat="49.89002" lon="2.47773">
        <ele>44</ele>
        <time>2023-09-27T13:30:42Z</time>
      </trkpt>
      <trkpt lat="49.89002" lon="2.47775">
        <ele>44</ele>
        <time>2023-09-27T13:30:43Z</time>
      </trkpt>
      <trkpt lat="49.89002" lon="2.47777">
        <ele>43.9</ele>
        <time>2023-09-27T13:30:44Z</time>
      </trkpt>
      <trkpt lat="49.89002" lon="2.47779">
        <ele>43.9</ele>
        <time>2023-09-27T13:30:45Z</time>
      </trkpt>
      <trkpt lat="49.89002" lon="2.4778">
        <ele>43.9</ele>
        <time>2023-09-27T13:30:46Z</time>
      </trkpt>
      <trkpt lat="49.89002" lon="2.47782">
        <ele>43.8</ele>
        <time>2023-09-27T13:30:47Z</time>
      </trkpt>
      <trkpt lat="49.89002" lon="2.47784">
        <ele>43.8</ele>
        <time>2023-09-27T13:30:48Z</time>
      </trkpt>
      <trkpt lat="49.89002" lon="2.47785">
        <ele>43.8</ele>
        <time>2023-09-27T13:30:49Z</time>
      </trkpt>
      <trkpt lat="49.89002" lon="2.47787">
        <ele>43.7</ele>
        <time>2023-09-27T13:30:50Z</time>
      </trkpt>
      <trkpt lat="49.89003" lon="2.47789">
        <ele>43.7</ele>
        <time>2023-09-27T13:30:51Z</time>
      </trkpt>
      <trkpt lat="49.89003" lon="2.47791">
        <ele>43.7</ele>
        <time>2023-09-27T13:30:52Z</time>
      </trkpt>
      <trkpt lat="49.89003" lon="2.47793">
        <ele>43.6</ele>
        <time>2023-09-27T13:30:53Z</time>
      </trkpt>
      <trkpt lat="49.89003" lon="2.47794">
        <ele>43.6</ele>
        <time>2023-09-27T13:30:54Z</time>
      </trkpt>
      <trkpt lat="49.89003" lon="2.47796">
        <ele>43.6</ele>
        <time>2023-09-27T13:30:55Z</time>
      </trkpt>
      <trkpt lat="49.89003" lon="2.47798">
        <ele>43.5</ele>
        <time>2023-09-27T13:30:56Z</time>
      </trkpt>
      <trkpt lat="49.89004" lon="2.47799">
        <ele>43.5</ele>
        <time>2023-09-27T13:30:57Z</time>
      </trkpt>
      <trkpt lat="49.89004" lon="2.47801">
        <ele>43.5</ele>
        <time>2023-09-27T13:30:58Z</time>
      </trkpt>
      <trkpt lat="49.89004" lon="2.47803">
        <ele>43.5</ele>
        <time>2023-09-27T13:30:59Z</time>
      </trkpt>
      <trkpt lat="49.89004" lon="2.47806">
        <ele>43.5</ele>
        <time>2023-09-27T13:31:00Z</time>
      </trkpt>
      <trkpt lat="49.89005" lon="2.47807">
        <ele>43.4</ele>
        <time>2023-09-27T13:31:01Z</time>
      </trkpt>
      <trkpt lat="49.89005" lon="2.47808">
        <ele>43.4</ele>
        <time>2023-09-27T13:31:02Z</time>
      </trkpt>
      <trkpt lat="49.89005" lon="2.47812">
        <ele>43.4</ele>
        <time>2023-09-27T13:31:03Z</time>
      </trkpt>
      <trkpt lat="49.89005" lon="2.47813">
        <ele>43.4</ele>
        <time>2023-09-27T13:31:04Z</time>
      </trkpt>
      <trkpt lat="49.89005" lon="2.47814">
        <ele>43.4</ele>
        <time>2023-09-27T13:31:05Z</time>
      </trkpt>
      <trkpt lat="49.89005" lon="2.47816">
        <ele>43.4</ele>
        <time>2023-09-27T13:31:06Z</time>
      </trkpt>
      <trkpt lat="49.89006" lon="2.47817">
        <ele>43.4</ele>
        <time>2023-09-27T13:31:07Z</time>
      </trkpt>
      <trkpt lat="49.89006" lon="2.47819">
        <ele>43.4</ele>
        <time>2023-09-27T13:31:08Z</time>
      </trkpt>
      <trkpt lat="49.89006" lon="2.4782">
        <ele>43.4</ele>
        <time>2023-09-27T13:31:09Z</time>
      </trkpt>
      <trkpt lat="49.89006" lon="2.47822">
        <ele>43.4</ele>
        <time>2023-09-27T13:31:10Z</time>
      </trkpt>
      <trkpt lat="49.89007" lon="2.47824">
        <ele>43.4</ele>
        <time>2023-09-27T13:31:11Z</time>
      </trkpt>
      <trkpt lat="49.89007" lon="2.47825">
        <ele>43.4</ele>
        <time>2023-09-27T13:31:12Z</time>
      </trkpt>
      <trkpt lat="49.89008" lon="2.47827">
        <ele>43.4</ele>
        <time>2023-09-27T13:31:13Z</time>
      </trkpt>
      <trkpt lat="49.89008" lon="2.47829">
        <ele>43.4</ele>
        <time>2023-09-27T13:31:14Z</time>
      </trkpt>
      <trkpt lat="49.89008" lon="2.4783">
        <ele>43.4</ele>
        <time>2023-09-27T13:31:15Z</time>
      </trkpt>
      <trkpt lat="49.89009" lon="2.47832">
        <ele>43.3</ele>
        <time>2023-09-27T13:31:16Z</time>
      </trkpt>
      <trkpt lat="49.89009" lon="2.47833">
        <ele>43.3</ele>
        <time>2023-09-27T13:31:17Z</time>
      </trkpt>
      <trkpt lat="49.8901" lon="2.47834">
        <ele>43.3</ele>
        <time>2023-09-27T13:31:18Z</time>
      </trkpt>
      <trkpt lat="49.8901" lon="2.47836">
        <ele>43.3</ele>
        <time>2023-09-27T13:31:19Z</time>
      </trkpt>
      <trkpt lat="49.89011" lon="2.47838">
        <ele>43.3</ele>
        <time>2023-09-27T13:31:20Z</time>
      </trkpt>
      <trkpt lat="49.89011" lon="2.4784">
        <ele>43.3</ele>
        <time>2023-09-27T13:31:21Z</time>
      </trkpt>
      <trkpt lat="49.89011" lon="2.47842">
        <ele>43.3</ele>
        <time>2023-09-27T13:31:22Z</time>
      </trkpt>
      <trkpt lat="49.89012" lon="2.47843">
        <ele>43.3</ele>
        <time>2023-09-27T13:31:23Z</time>
      </trkpt>
      <trkpt lat="49.89012" lon="2.47845">
        <ele>43.3</ele>
        <time>2023-09-27T13:31:24Z</time>
      </trkpt>
      <trkpt lat="49.89012" lon="2.47847">
        <ele>43.2</ele>
        <time>2023-09-27T13:31:25Z</time>
      </trkpt>
      <trkpt lat="49.89012" lon="2.47848">
        <ele>43.2</ele>
        <time>2023-09-27T13:31:26Z</time>
      </trkpt>
      <trkpt lat="49.89013" lon="2.4785">
        <ele>43.2</ele>
        <time>2023-09-27T13:31:27Z</time>
      </trkpt>
      <trkpt lat="49.89013" lon="2.47852">
        <ele>43.2</ele>
        <time>2023-09-27T13:31:28Z</time>
      </trkpt>
      <trkpt lat="49.89013" lon="2.47853">
        <ele>43.2</ele>
        <time>2023-09-27T13:31:29Z</time>
      </trkpt>
      <trkpt lat="49.89013" lon="2.47855">
        <ele>43.2</ele>
        <time>2023-09-27T13:31:30Z</time>
      </trkpt>
      <trkpt lat="49.89013" lon="2.47856">
        <ele>43.2</ele>
        <time>2023-09-27T13:31:31Z</time>
      </trkpt>
      <trkpt lat="49.89013" lon="2.47858">
        <ele>43.2</ele>
        <time>2023-09-27T13:31:32Z</time>
      </trkpt>
      <trkpt lat="49.89013" lon="2.47859">
        <ele>43.2</ele>
        <time>2023-09-27T13:31:33Z</time>
      </trkpt>
      <trkpt lat="49.89013" lon="2.47861">
        <ele>43.2</ele>
        <time>2023-09-27T13:31:34Z</time>
      </trkpt>
      <trkpt lat="49.89013" lon="2.47862">
        <ele>43.2</ele>
        <time>2023-09-27T13:31:35Z</time>
      </trkpt>
      <trkpt lat="49.89013" lon="2.47864">
        <ele>43.1</ele>
        <time>2023-09-27T13:31:36Z</time>
      </trkpt>
      <trkpt lat="49.89013" lon="2.47866">
        <ele>43.1</ele>
        <time>2023-09-27T13:31:37Z</time>
      </trkpt>
      <trkpt lat="49.89013" lon="2.47868">
        <ele>43.1</ele>
        <time>2023-09-27T13:31:38Z</time>
      </trkpt>
      <trkpt lat="49.89014" lon="2.47871">
        <ele>43.1</ele>
        <time>2023-09-27T13:31:39Z</time>
      </trkpt>
      <trkpt lat="49.89014" lon="2.47872">
        <ele>43.1</ele>
        <time>2023-09-27T13:31:40Z</time>
      </trkpt>
      <trkpt lat="49.89014" lon="2.47873">
        <ele>43.1</ele>
        <time>2023-09-27T13:31:41Z</time>
      </trkpt>
      <trkpt lat="49.89014" lon="2.47877">
        <ele>43</ele>
        <time>2023-09-27T13:31:42Z</time>
      </trkpt>
      <trkpt lat="49.89014" lon="2.47878">
        <ele>43</ele>
        <time>2023-09-27T13:31:43Z</time>
      </trkpt>
      <trkpt lat="49.89014" lon="2.47879">
        <ele>43</ele>
        <time>2023-09-27T13:31:44Z</time>
      </trkpt>
      <trkpt lat="49.89014" lon="2.47881">
        <ele>43</ele>
        <time>2023-09-27T13:31:45Z</time>
      </trkpt>
      <trkpt lat="49.89015" lon="2.47882">
        <ele>43</ele>
        <time>2023-09-27T13:31:46Z</time>
      </trkpt>
      <trkpt lat="49.89015" lon="2.47884">
        <ele>42.9</ele>
        <time>2023-09-27T13:31:47Z</time>
      </trkpt>
      <trkpt lat="49.89015" lon="2.47886">
        <ele>42.9</ele>
        <time>2023-09-27T13:31:48Z</time>
      </trkpt>
      <trkpt lat="49.89015" lon="2.47887">
        <ele>42.8</ele>
        <time>2023-09-27T13:31:49Z</time>
      </trkpt>
      <trkpt lat="49.89015" lon="2.47889">
        <ele>42.8</ele>
        <time>2023-09-27T13:31:50Z</time>
      </trkpt>
      <trkpt lat="49.89015" lon="2.47892">
        <ele>42.8</ele>
        <time>2023-09-27T13:31:51Z</time>
      </trkpt>
      <trkpt lat="49.89016" lon="2.47894">
        <ele>42.8</ele>
        <time>2023-09-27T13:31:52Z</time>
      </trkpt>
      <trkpt lat="49.89016" lon="2.47895">
        <ele>42.7</ele>
        <time>2023-09-27T13:31:53Z</time>
      </trkpt>
      <trkpt lat="49.89016" lon="2.47896">
        <ele>42.7</ele>
        <time>2023-09-27T13:31:54Z</time>
      </trkpt>
      <trkpt lat="49.89016" lon="2.47898">
        <ele>42.7</ele>
        <time>2023-09-27T13:31:55Z</time>
      </trkpt>
      <trkpt lat="49.89017" lon="2.479">
        <ele>42.6</ele>
        <time>2023-09-27T13:31:56Z</time>
      </trkpt>
      <trkpt lat="49.89017" lon="2.47901">
        <ele>42.6</ele>
        <time>2023-09-27T13:31:57Z</time>
      </trkpt>
      <trkpt lat="49.89017" lon="2.47903">
        <ele>42.6</ele>
        <time>2023-09-27T13:31:58Z</time>
      </trkpt>
      <trkpt lat="49.89017" lon="2.47905">
        <ele>42.5</ele>
        <time>2023-09-27T13:31:59Z</time>
      </trkpt>
      <trkpt lat="49.89018" lon="2.47906">
        <ele>42.5</ele>
        <time>2023-09-27T13:32:00Z</time>
      </trkpt>
      <trkpt lat="49.89018" lon="2.47908">
        <ele>42.4</ele>
        <time>2023-09-27T13:32:01Z</time>
      </trkpt>
      <trkpt lat="49.89018" lon="2.4791">
        <ele>42.4</ele>
        <time>2023-09-27T13:32:02Z</time>
      </trkpt>
      <trkpt lat="49.89018" lon="2.47912">
        <ele>42.4</ele>
        <time>2023-09-27T13:32:03Z</time>
      </trkpt>
      <trkpt lat="49.89019" lon="2.47913">
        <ele>42.3</ele>
        <time>2023-09-27T13:32:04Z</time>
      </trkpt>
      <trkpt lat="49.89019" lon="2.47915">
        <ele>42.3</ele>
        <time>2023-09-27T13:32:05Z</time>
      </trkpt>
      <trkpt lat="49.89019" lon="2.47917">
        <ele>42.2</ele>
        <time>2023-09-27T13:32:06Z</time>
      </trkpt>
      <trkpt lat="49.89019" lon="2.47918">
        <ele>42.2</ele>
        <time>2023-09-27T13:32:07Z</time>
      </trkpt>
      <trkpt lat="49.8902" lon="2.4792">
        <ele>42.1</ele>
        <time>2023-09-27T13:32:08Z</time>
      </trkpt>
      <trkpt lat="49.8902" lon="2.47921">
        <ele>42.1</ele>
        <time>2023-09-27T13:32:09Z</time>
      </trkpt>
      <trkpt lat="49.8902" lon="2.47923">
        <ele>42</ele>
        <time>2023-09-27T13:32:10Z</time>
      </trkpt>
      <trkpt lat="49.8902" lon="2.47925">
        <ele>42</ele>
        <time>2023-09-27T13:32:11Z</time>
      </trkpt>
      <trkpt lat="49.89021" lon="2.47927">
        <ele>42</ele>
        <time>2023-09-27T13:32:12Z</time>
      </trkpt>
      <trkpt lat="49.89021" lon="2.47928">
        <ele>41.9</ele>
        <time>2023-09-27T13:32:13Z</time>
      </trkpt>
      <trkpt lat="49.89021" lon="2.4793">
        <ele>41.9</ele>
        <time>2023-09-27T13:32:14Z</time>
      </trkpt>
      <trkpt lat="49.89021" lon="2.47932">
        <ele>41.8</ele>
        <time>2023-09-27T13:32:15Z</time>
      </trkpt>
      <trkpt lat="49.89021" lon="2.47934">
        <ele>41.8</ele>
        <time>2023-09-27T13:32:16Z</time>
      </trkpt>
      <trkpt lat="49.89022" lon="2.47936">
        <ele>41.7</ele>
        <time>2023-09-27T13:32:17Z</time>
      </trkpt>
      <trkpt lat="49.89022" lon="2.47937">
        <ele>41.7</ele>
        <time>2023-09-27T13:32:18Z</time>
      </trkpt>
      <trkpt lat="49.89022" lon="2.47939">
        <ele>41.7</ele>
        <time>2023-09-27T13:32:19Z</time>
      </trkpt>
      <trkpt lat="49.89023" lon="2.47941">
        <ele>41.6</ele>
        <time>2023-09-27T13:32:20Z</time>
      </trkpt>
      <trkpt lat="49.89023" lon="2.47942">
        <ele>41.6</ele>
        <time>2023-09-27T13:32:21Z</time>
      </trkpt>
      <trkpt lat="49.89024" lon="2.47944">
        <ele>41.6</ele>
        <time>2023-09-27T13:32:22Z</time>
      </trkpt>
      <trkpt lat="49.89024" lon="2.47945">
        <ele>41.6</ele>
        <time>2023-09-27T13:32:23Z</time>
      </trkpt>
      <trkpt lat="49.89024" lon="2.47947">
        <ele>41.6</ele>
        <time>2023-09-27T13:32:24Z</time>
      </trkpt>
      <trkpt lat="49.89025" lon="2.47949">
        <ele>41.5</ele>
        <time>2023-09-27T13:32:25Z</time>
      </trkpt>
      <trkpt lat="49.89025" lon="2.4795">
        <ele>41.5</ele>
        <time>2023-09-27T13:32:26Z</time>
      </trkpt>
      <trkpt lat="49.89025" lon="2.47952">
        <ele>41.5</ele>
        <time>2023-09-27T13:32:27Z</time>
      </trkpt>
      <trkpt lat="49.89025" lon="2.47954">
        <ele>41.5</ele>
        <time>2023-09-27T13:32:28Z</time>
      </trkpt>
      <trkpt lat="49.89026" lon="2.47956">
        <ele>41.4</ele>
        <time>2023-09-27T13:32:29Z</time>
      </trkpt>
      <trkpt lat="49.89026" lon="2.47957">
        <ele>41.4</ele>
        <time>2023-09-27T13:32:30Z</time>
      </trkpt>
      <trkpt lat="49.89026" lon="2.47959">
        <ele>41.4</ele>
        <time>2023-09-27T13:32:31Z</time>
      </trkpt>
      <trkpt lat="49.89026" lon="2.4796">
        <ele>41.4</ele>
        <time>2023-09-27T13:32:32Z</time>
      </trkpt>
      <trkpt lat="49.89027" lon="2.47962">
        <ele>41.4</ele>
        <time>2023-09-27T13:32:33Z</time>
      </trkpt>
      <trkpt lat="49.89027" lon="2.47964">
        <ele>41.4</ele>
        <time>2023-09-27T13:32:34Z</time>
      </trkpt>
      <trkpt lat="49.89027" lon="2.47965">
        <ele>41.3</ele>
        <time>2023-09-27T13:32:35Z</time>
      </trkpt>
      <trkpt lat="49.89027" lon="2.47967">
        <ele>41.3</ele>
        <time>2023-09-27T13:32:36Z</time>
      </trkpt>
      <trkpt lat="49.89028" lon="2.47969">
        <ele>41.3</ele>
        <time>2023-09-27T13:32:37Z</time>
      </trkpt>
      <trkpt lat="49.89028" lon="2.4797">
        <ele>41.3</ele>
        <time>2023-09-27T13:32:38Z</time>
      </trkpt>
      <trkpt lat="49.89028" lon="2.47972">
        <ele>41.3</ele>
        <time>2023-09-27T13:32:39Z</time>
      </trkpt>
      <trkpt lat="49.89029" lon="2.47974">
        <ele>41.3</ele>
        <time>2023-09-27T13:32:40Z</time>
      </trkpt>
      <trkpt lat="49.89029" lon="2.47976">
        <ele>41.3</ele>
        <time>2023-09-27T13:32:41Z</time>
      </trkpt>
      <trkpt lat="49.89029" lon="2.47979">
        <ele>41.2</ele>
        <time>2023-09-27T13:32:42Z</time>
      </trkpt>
      <trkpt lat="49.89029" lon="2.4798">
        <ele>41.2</ele>
        <time>2023-09-27T13:32:43Z</time>
      </trkpt>
      <trkpt lat="49.8903" lon="2.47982">
        <ele>41.2</ele>
        <time>2023-09-27T13:32:44Z</time>
      </trkpt>
      <trkpt lat="49.8903" lon="2.47983">
        <ele>41.2</ele>
        <time>2023-09-27T13:32:45Z</time>
      </trkpt>
      <trkpt lat="49.8903" lon="2.47985">
        <ele>41.2</ele>
        <time>2023-09-27T13:32:46Z</time>
      </trkpt>
      <trkpt lat="49.8903" lon="2.47987">
        <ele>41.2</ele>
        <time>2023-09-27T13:32:47Z</time>
      </trkpt>
      <trkpt lat="49.8903" lon="2.47988">
        <ele>41.2</ele>
        <time>2023-09-27T13:32:48Z</time>
      </trkpt>
      <trkpt lat="49.89031" lon="2.4799">
        <ele>41.1</ele>
        <time>2023-09-27T13:32:49Z</time>
      </trkpt>
      <trkpt lat="49.89031" lon="2.47992">
        <ele>41.1</ele>
        <time>2023-09-27T13:32:50Z</time>
      </trkpt>
      <trkpt lat="49.89031" lon="2.47995">
        <ele>41.1</ele>
        <time>2023-09-27T13:32:51Z</time>
      </trkpt>
      <trkpt lat="49.89031" lon="2.47997">
        <ele>41.1</ele>
        <time>2023-09-27T13:32:52Z</time>
      </trkpt>
      <trkpt lat="49.89032" lon="2.47998">
        <ele>41</ele>
        <time>2023-09-27T13:32:53Z</time>
      </trkpt>
      <trkpt lat="49.89032" lon="2.48">
        <ele>41</ele>
        <time>2023-09-27T13:32:54Z</time>
      </trkpt>
      <trkpt lat="49.89032" lon="2.48001">
        <ele>41</ele>
        <time>2023-09-27T13:32:55Z</time>
      </trkpt>
      <trkpt lat="49.89032" lon="2.48003">
        <ele>41</ele>
        <time>2023-09-27T13:32:56Z</time>
      </trkpt>
      <trkpt lat="49.89033" lon="2.48004">
        <ele>40.9</ele>
        <time>2023-09-27T13:32:57Z</time>
      </trkpt>
      <trkpt lat="49.89033" lon="2.48006">
        <ele>40.9</ele>
        <time>2023-09-27T13:32:58Z</time>
      </trkpt>
      <trkpt lat="49.89034" lon="2.48008">
        <ele>40.9</ele>
        <time>2023-09-27T13:32:59Z</time>
      </trkpt>
      <trkpt lat="49.89034" lon="2.48011">
        <ele>40.8</ele>
        <time>2023-09-27T13:33:00Z</time>
      </trkpt>
      <trkpt lat="49.89035" lon="2.48012">
        <ele>40.8</ele>
        <time>2023-09-27T13:33:01Z</time>
      </trkpt>
      <trkpt lat="49.89035" lon="2.48014">
        <ele>40.7</ele>
        <time>2023-09-27T13:33:02Z</time>
      </trkpt>
      <trkpt lat="49.89036" lon="2.48015">
        <ele>40.7</ele>
        <time>2023-09-27T13:33:03Z</time>
      </trkpt>
      <trkpt lat="49.89036" lon="2.48017">
        <ele>40.7</ele>
        <time>2023-09-27T13:33:04Z</time>
      </trkpt>
      <trkpt lat="49.89036" lon="2.48019">
        <ele>40.6</ele>
        <time>2023-09-27T13:33:05Z</time>
      </trkpt>
      <trkpt lat="49.89037" lon="2.4802">
        <ele>40.6</ele>
        <time>2023-09-27T13:33:06Z</time>
      </trkpt>
      <trkpt lat="49.89037" lon="2.48022">
        <ele>40.5</ele>
        <time>2023-09-27T13:33:07Z</time>
      </trkpt>
      <trkpt lat="49.89038" lon="2.48023">
        <ele>40.5</ele>
        <time>2023-09-27T13:33:08Z</time>
      </trkpt>
      <trkpt lat="49.89038" lon="2.48025">
        <ele>40.5</ele>
        <time>2023-09-27T13:33:09Z</time>
      </trkpt>
      <trkpt lat="49.89039" lon="2.48026">
        <ele>40.4</ele>
        <time>2023-09-27T13:33:10Z</time>
      </trkpt>
      <trkpt lat="49.89039" lon="2.48028">
        <ele>40.4</ele>
        <time>2023-09-27T13:33:11Z</time>
      </trkpt>
      <trkpt lat="49.8904" lon="2.48029">
        <ele>40.4</ele>
        <time>2023-09-27T13:33:12Z</time>
      </trkpt>
      <trkpt lat="49.8904" lon="2.48031">
        <ele>40.3</ele>
        <time>2023-09-27T13:33:13Z</time>
      </trkpt>
      <trkpt lat="49.89041" lon="2.48032">
        <ele>40.3</ele>
        <time>2023-09-27T13:33:14Z</time>
      </trkpt>
      <trkpt lat="49.89041" lon="2.48033">
        <ele>40.3</ele>
        <time>2023-09-27T13:33:15Z</time>
      </trkpt>
      <trkpt lat="49.89042" lon="2.48035">
        <ele>40.2</ele>
        <time>2023-09-27T13:33:16Z</time>
      </trkpt>
      <trkpt lat="49.89042" lon="2.48036">
        <ele>40.2</ele>
        <time>2023-09-27T13:33:17Z</time>
      </trkpt>
      <trkpt lat="49.89043" lon="2.48037">
        <ele>40.2</ele>
        <time>2023-09-27T13:33:18Z</time>
      </trkpt>
      <trkpt lat="49.89043" lon="2.48039">
        <ele>40.1</ele>
        <time>2023-09-27T13:33:19Z</time>
      </trkpt>
      <trkpt lat="49.89044" lon="2.4804">
        <ele>40.1</ele>
        <time>2023-09-27T13:33:20Z</time>
      </trkpt>
      <trkpt lat="49.89045" lon="2.48042">
        <ele>40.1</ele>
        <time>2023-09-27T13:33:21Z</time>
      </trkpt>
      <trkpt lat="49.89045" lon="2.48043">
        <ele>40.1</ele>
        <time>2023-09-27T13:33:22Z</time>
      </trkpt>
      <trkpt lat="49.89046" lon="2.48045">
        <ele>40</ele>
        <time>2023-09-27T13:33:23Z</time>
      </trkpt>
      <trkpt lat="49.89046" lon="2.48046">
        <ele>40</ele>
        <time>2023-09-27T13:33:24Z</time>
      </trkpt>
      <trkpt lat="49.89047" lon="2.48047">
        <ele>40</ele>
        <time>2023-09-27T13:33:25Z</time>
      </trkpt>
      <trkpt lat="49.89047" lon="2.48048">
        <ele>40</ele>
        <time>2023-09-27T13:33:26Z</time>
      </trkpt>
      <trkpt lat="49.89048" lon="2.4805">
        <ele>39.9</ele>
        <time>2023-09-27T13:33:27Z</time>
      </trkpt>
      <trkpt lat="49.89048" lon="2.48051">
        <ele>39.9</ele>
        <time>2023-09-27T13:33:28Z</time>
      </trkpt>
      <trkpt lat="49.89049" lon="2.48053">
        <ele>39.9</ele>
        <time>2023-09-27T13:33:29Z</time>
      </trkpt>
      <trkpt lat="49.89049" lon="2.48055">
        <ele>39.9</ele>
        <time>2023-09-27T13:33:30Z</time>
      </trkpt>
      <trkpt lat="49.8905" lon="2.48056">
        <ele>39.8</ele>
        <time>2023-09-27T13:33:31Z</time>
      </trkpt>
      <trkpt lat="49.8905" lon="2.48058">
        <ele>39.8</ele>
        <time>2023-09-27T13:33:32Z</time>
      </trkpt>
      <trkpt lat="49.89051" lon="2.48059">
        <ele>39.8</ele>
        <time>2023-09-27T13:33:33Z</time>
      </trkpt>
      <trkpt lat="49.89051" lon="2.48061">
        <ele>39.8</ele>
        <time>2023-09-27T13:33:34Z</time>
      </trkpt>
      <trkpt lat="49.89052" lon="2.48062">
        <ele>39.8</ele>
        <time>2023-09-27T13:33:35Z</time>
      </trkpt>
      <trkpt lat="49.89053" lon="2.48065">
        <ele>39.7</ele>
        <time>2023-09-27T13:33:36Z</time>
      </trkpt>
      <trkpt lat="49.89053" lon="2.48066">
        <ele>39.7</ele>
        <time>2023-09-27T13:33:37Z</time>
      </trkpt>
      <trkpt lat="49.89053" lon="2.48067">
        <ele>39.7</ele>
        <time>2023-09-27T13:33:38Z</time>
      </trkpt>
      <trkpt lat="49.89054" lon="2.48069">
        <ele>39.7</ele>
        <time>2023-09-27T13:33:39Z</time>
      </trkpt>
      <trkpt lat="49.89054" lon="2.4807">
        <ele>39.7</ele>
        <time>2023-09-27T13:33:40Z</time>
      </trkpt>
      <trkpt lat="49.89055" lon="2.48072">
        <ele>39.7</ele>
        <time>2023-09-27T13:33:41Z</time>
      </trkpt>
      <trkpt lat="49.89055" lon="2.48074">
        <ele>39.6</ele>
        <time>2023-09-27T13:33:42Z</time>
      </trkpt>
      <trkpt lat="49.89056" lon="2.48075">
        <ele>39.6</ele>
        <time>2023-09-27T13:33:43Z</time>
      </trkpt>
      <trkpt lat="49.89056" lon="2.48077">
        <ele>39.6</ele>
        <time>2023-09-27T13:33:44Z</time>
      </trkpt>
      <trkpt lat="49.89057" lon="2.4808">
        <ele>39.6</ele>
        <time>2023-09-27T13:33:45Z</time>
      </trkpt>
      <trkpt lat="49.89058" lon="2.48081">
        <ele>39.6</ele>
        <time>2023-09-27T13:33:46Z</time>
      </trkpt>
      <trkpt lat="49.89058" lon="2.48082">
        <ele>39.6</ele>
        <time>2023-09-27T13:33:47Z</time>
      </trkpt>
      <trkpt lat="49.89059" lon="2.48086">
        <ele>39.5</ele>
        <time>2023-09-27T13:33:48Z</time>
      </trkpt>
      <trkpt lat="49.89059" lon="2.48087">
        <ele>39.5</ele>
        <time>2023-09-27T13:33:49Z</time>
      </trkpt>
      <trkpt lat="49.89059" lon="2.48088">
        <ele>39.5</ele>
        <time>2023-09-27T13:33:50Z</time>
      </trkpt>
      <trkpt lat="49.8906" lon="2.4809">
        <ele>39.5</ele>
        <time>2023-09-27T13:33:51Z</time>
      </trkpt>
      <trkpt lat="49.8906" lon="2.48091">
        <ele>39.5</ele>
        <time>2023-09-27T13:33:52Z</time>
      </trkpt>
      <trkpt lat="49.89061" lon="2.48093">
        <ele>39.5</ele>
        <time>2023-09-27T13:33:53Z</time>
      </trkpt>
      <trkpt lat="49.89061" lon="2.48094">
        <ele>39.5</ele>
        <time>2023-09-27T13:33:54Z</time>
      </trkpt>
      <trkpt lat="49.89062" lon="2.48096">
        <ele>39.5</ele>
        <time>2023-09-27T13:33:55Z</time>
      </trkpt>
      <trkpt lat="49.89062" lon="2.48097">
        <ele>39.4</ele>
        <time>2023-09-27T13:33:56Z</time>
      </trkpt>
      <trkpt lat="49.89062" lon="2.48099">
        <ele>39.4</ele>
        <time>2023-09-27T13:33:57Z</time>
      </trkpt>
      <trkpt lat="49.89063" lon="2.481">
        <ele>39.4</ele>
        <time>2023-09-27T13:33:58Z</time>
      </trkpt>
      <trkpt lat="49.89063" lon="2.48102">
        <ele>39.4</ele>
        <time>2023-09-27T13:33:59Z</time>
      </trkpt>
      <trkpt lat="49.89064" lon="2.48103">
        <ele>39.4</ele>
        <time>2023-09-27T13:34:00Z</time>
      </trkpt>
      <trkpt lat="49.89064" lon="2.48105">
        <ele>39.4</ele>
        <time>2023-09-27T13:34:01Z</time>
      </trkpt>
      <trkpt lat="49.89065" lon="2.48107">
        <ele>39.4</ele>
        <time>2023-09-27T13:34:02Z</time>
      </trkpt>
      <trkpt lat="49.89065" lon="2.4811">
        <ele>39.3</ele>
        <time>2023-09-27T13:34:03Z</time>
      </trkpt>
      <trkpt lat="49.89066" lon="2.48111">
        <ele>39.3</ele>
        <time>2023-09-27T13:34:04Z</time>
      </trkpt>
      <trkpt lat="49.89066" lon="2.48112">
        <ele>39.3</ele>
        <time>2023-09-27T13:34:05Z</time>
      </trkpt>
      <trkpt lat="49.89067" lon="2.48114">
        <ele>39.3</ele>
        <time>2023-09-27T13:34:06Z</time>
      </trkpt>
      <trkpt lat="49.89067" lon="2.48115">
        <ele>39.3</ele>
        <time>2023-09-27T13:34:07Z</time>
      </trkpt>
      <trkpt lat="49.89067" lon="2.48117">
        <ele>39.2</ele>
        <time>2023-09-27T13:34:08Z</time>
      </trkpt>
      <trkpt lat="49.89068" lon="2.48118">
        <ele>39.2</ele>
        <time>2023-09-27T13:34:09Z</time>
      </trkpt>
      <trkpt lat="49.89068" lon="2.4812">
        <ele>39.2</ele>
        <time>2023-09-27T13:34:10Z</time>
      </trkpt>
      <trkpt lat="49.89068" lon="2.48121">
        <ele>39.2</ele>
        <time>2023-09-27T13:34:11Z</time>
      </trkpt>
      <trkpt lat="49.89068" lon="2.48122">
        <ele>39.2</ele>
        <time>2023-09-27T13:34:12Z</time>
      </trkpt>
      <trkpt lat="49.89069" lon="2.48124">
        <ele>39.1</ele>
        <time>2023-09-27T13:34:13Z</time>
      </trkpt>
      <trkpt lat="49.89069" lon="2.48126">
        <ele>39.1</ele>
        <time>2023-09-27T13:34:14Z</time>
      </trkpt>
      <trkpt lat="49.89069" lon="2.48127">
        <ele>39.1</ele>
        <time>2023-09-27T13:34:15Z</time>
      </trkpt>
      <trkpt lat="49.8907" lon="2.48129">
        <ele>39</ele>
        <time>2023-09-27T13:34:16Z</time>
      </trkpt>
      <trkpt lat="49.8907" lon="2.4813">
        <ele>39</ele>
        <time>2023-09-27T13:34:17Z</time>
      </trkpt>
      <trkpt lat="49.8907" lon="2.48132">
        <ele>39</ele>
        <time>2023-09-27T13:34:18Z</time>
      </trkpt>
      <trkpt lat="49.89071" lon="2.48134">
        <ele>38.9</ele>
        <time>2023-09-27T13:34:19Z</time>
      </trkpt>
      <trkpt lat="49.89071" lon="2.48135">
        <ele>38.9</ele>
        <time>2023-09-27T13:34:20Z</time>
      </trkpt>
      <trkpt lat="49.89071" lon="2.48137">
        <ele>38.9</ele>
        <time>2023-09-27T13:34:21Z</time>
      </trkpt>
      <trkpt lat="49.89072" lon="2.48138">
        <ele>38.8</ele>
        <time>2023-09-27T13:34:22Z</time>
      </trkpt>
      <trkpt lat="49.89072" lon="2.4814">
        <ele>38.8</ele>
        <time>2023-09-27T13:34:23Z</time>
      </trkpt>
      <trkpt lat="49.89072" lon="2.48142">
        <ele>38.8</ele>
        <time>2023-09-27T13:34:24Z</time>
      </trkpt>
      <trkpt lat="49.89073" lon="2.48144">
        <ele>38.7</ele>
        <time>2023-09-27T13:34:25Z</time>
      </trkpt>
      <trkpt lat="49.89073" lon="2.48145">
        <ele>38.7</ele>
        <time>2023-09-27T13:34:26Z</time>
      </trkpt>
      <trkpt lat="49.89074" lon="2.48147">
        <ele>38.7</ele>
        <time>2023-09-27T13:34:27Z</time>
      </trkpt>
      <trkpt lat="49.89074" lon="2.48148">
        <ele>38.6</ele>
        <time>2023-09-27T13:34:28Z</time>
      </trkpt>
      <trkpt lat="49.89074" lon="2.4815">
        <ele>38.6</ele>
        <time>2023-09-27T13:34:29Z</time>
      </trkpt>
      <trkpt lat="49.89075" lon="2.48151">
        <ele>38.6</ele>
        <time>2023-09-27T13:34:30Z</time>
      </trkpt>
      <trkpt lat="49.89075" lon="2.48153">
        <ele>38.5</ele>
        <time>2023-09-27T13:34:31Z</time>
      </trkpt>
      <trkpt lat="49.89076" lon="2.48155">
        <ele>38.5</ele>
        <time>2023-09-27T13:34:32Z</time>
      </trkpt>
      <trkpt lat="49.89077" lon="2.48157">
        <ele>38.5</ele>
        <time>2023-09-27T13:34:33Z</time>
      </trkpt>
      <trkpt lat="49.89077" lon="2.48159">
        <ele>38.5</ele>
        <time>2023-09-27T13:34:34Z</time>
      </trkpt>
      <trkpt lat="49.89077" lon="2.4816">
        <ele>38.4</ele>
        <time>2023-09-27T13:34:35Z</time>
      </trkpt>
      <trkpt lat="49.89078" lon="2.48161">
        <ele>38.4</ele>
        <time>2023-09-27T13:34:36Z</time>
      </trkpt>
      <trkpt lat="49.89078" lon="2.48163">
        <ele>38.4</ele>
        <time>2023-09-27T13:34:37Z</time>
      </trkpt>
      <trkpt lat="49.89079" lon="2.48165">
        <ele>38.4</ele>
        <time>2023-09-27T13:34:38Z</time>
      </trkpt>
      <trkpt lat="49.89079" lon="2.48166">
        <ele>38.4</ele>
        <time>2023-09-27T13:34:39Z</time>
      </trkpt>
      <trkpt lat="49.8908" lon="2.48167">
        <ele>38.3</ele>
        <time>2023-09-27T13:34:40Z</time>
      </trkpt>
      <trkpt lat="49.8908" lon="2.48169">
        <ele>38.3</ele>
        <time>2023-09-27T13:34:41Z</time>
      </trkpt>
      <trkpt lat="49.89081" lon="2.4817">
        <ele>38.3</ele>
        <time>2023-09-27T13:34:42Z</time>
      </trkpt>
      <trkpt lat="49.89082" lon="2.48172">
        <ele>38.3</ele>
        <time>2023-09-27T13:34:43Z</time>
      </trkpt>
      <trkpt lat="49.89082" lon="2.48173">
        <ele>38.3</ele>
        <time>2023-09-27T13:34:44Z</time>
      </trkpt>
      <trkpt lat="49.89083" lon="2.48175">
        <ele>38.3</ele>
        <time>2023-09-27T13:34:45Z</time>
      </trkpt>
      <trkpt lat="49.89083" lon="2.48176">
        <ele>38.3</ele>
        <time>2023-09-27T13:34:46Z</time>
      </trkpt>
      <trkpt lat="49.89084" lon="2.48177">
        <ele>38.3</ele>
        <time>2023-09-27T13:34:47Z</time>
      </trkpt>
      <trkpt lat="49.89084" lon="2.48179">
        <ele>38.3</ele>
        <time>2023-09-27T13:34:48Z</time>
      </trkpt>
      <trkpt lat="49.89085" lon="2.4818">
        <ele>38.3</ele>
        <time>2023-09-27T13:34:49Z</time>
      </trkpt>
      <trkpt lat="49.89085" lon="2.48182">
        <ele>38.3</ele>
        <time>2023-09-27T13:34:50Z</time>
      </trkpt>
      <trkpt lat="49.89085" lon="2.48184">
        <ele>38.3</ele>
        <time>2023-09-27T13:34:51Z</time>
      </trkpt>
      <trkpt lat="49.89085" lon="2.48185">
        <ele>38.3</ele>
        <time>2023-09-27T13:34:52Z</time>
      </trkpt>
      <trkpt lat="49.89086" lon="2.48187">
        <ele>38.3</ele>
        <time>2023-09-27T13:34:53Z</time>
      </trkpt>
      <trkpt lat="49.89086" lon="2.48189">
        <ele>38.2</ele>
        <time>2023-09-27T13:34:54Z</time>
      </trkpt>
      <trkpt lat="49.89087" lon="2.4819">
        <ele>38.2</ele>
        <time>2023-09-27T13:34:55Z</time>
      </trkpt>
      <trkpt lat="49.89087" lon="2.48192">
        <ele>38.2</ele>
        <time>2023-09-27T13:34:56Z</time>
      </trkpt>
      <trkpt lat="49.89088" lon="2.48193">
        <ele>38.2</ele>
        <time>2023-09-27T13:34:57Z</time>
      </trkpt>
      <trkpt lat="49.89088" lon="2.48195">
        <ele>38.2</ele>
        <time>2023-09-27T13:34:58Z</time>
      </trkpt>
      <trkpt lat="49.89089" lon="2.48196">
        <ele>38.2</ele>
        <time>2023-09-27T13:34:59Z</time>
      </trkpt>
      <trkpt lat="49.89089" lon="2.48198">
        <ele>38.2</ele>
        <time>2023-09-27T13:35:00Z</time>
      </trkpt>
      <trkpt lat="49.8909" lon="2.48199">
        <ele>38.2</ele>
        <time>2023-09-27T13:35:01Z</time>
      </trkpt>
      <trkpt lat="49.89091" lon="2.48201">
        <ele>38.2</ele>
        <time>2023-09-27T13:35:02Z</time>
      </trkpt>
      <trkpt lat="49.89092" lon="2.48203">
        <ele>38.2</ele>
        <time>2023-09-27T13:35:03Z</time>
      </trkpt>
      <trkpt lat="49.89092" lon="2.48205">
        <ele>38.2</ele>
        <time>2023-09-27T13:35:04Z</time>
      </trkpt>
      <trkpt lat="49.89092" lon="2.48206">
        <ele>38.1</ele>
        <time>2023-09-27T13:35:05Z</time>
      </trkpt>
      <trkpt lat="49.89093" lon="2.48207">
        <ele>38.1</ele>
        <time>2023-09-27T13:35:06Z</time>
      </trkpt>
      <trkpt lat="49.89094" lon="2.48209">
        <ele>38.1</ele>
        <time>2023-09-27T13:35:07Z</time>
      </trkpt>
      <trkpt lat="49.89094" lon="2.4821">
        <ele>38.1</ele>
        <time>2023-09-27T13:35:08Z</time>
      </trkpt>
      <trkpt lat="49.89095" lon="2.48212">
        <ele>38.1</ele>
        <time>2023-09-27T13:35:09Z</time>
      </trkpt>
      <trkpt lat="49.89095" lon="2.48214">
        <ele>38.1</ele>
        <time>2023-09-27T13:35:10Z</time>
      </trkpt>
      <trkpt lat="49.89095" lon="2.48215">
        <ele>38.1</ele>
        <time>2023-09-27T13:35:11Z</time>
      </trkpt>
      <trkpt lat="49.89096" lon="2.48217">
        <ele>38.1</ele>
        <time>2023-09-27T13:35:12Z</time>
      </trkpt>
      <trkpt lat="49.89096" lon="2.48219">
        <ele>38.1</ele>
        <time>2023-09-27T13:35:13Z</time>
      </trkpt>
      <trkpt lat="49.89097" lon="2.4822">
        <ele>38.1</ele>
        <time>2023-09-27T13:35:14Z</time>
      </trkpt>
      <trkpt lat="49.89097" lon="2.48223">
        <ele>38.1</ele>
        <time>2023-09-27T13:35:15Z</time>
      </trkpt>
      <trkpt lat="49.89097" lon="2.48225">
        <ele>38.1</ele>
        <time>2023-09-27T13:35:16Z</time>
      </trkpt>
      <trkpt lat="49.89098" lon="2.48226">
        <ele>38.1</ele>
        <time>2023-09-27T13:35:17Z</time>
      </trkpt>
      <trkpt lat="49.89098" lon="2.48227">
        <ele>38.1</ele>
        <time>2023-09-27T13:35:18Z</time>
      </trkpt>
      <trkpt lat="49.89099" lon="2.48229">
        <ele>38.1</ele>
        <time>2023-09-27T13:35:19Z</time>
      </trkpt>
      <trkpt lat="49.89099" lon="2.48231">
        <ele>38.1</ele>
        <time>2023-09-27T13:35:20Z</time>
      </trkpt>
      <trkpt lat="49.891" lon="2.48232">
        <ele>38</ele>
        <time>2023-09-27T13:35:21Z</time>
      </trkpt>
      <trkpt lat="49.891" lon="2.48234">
        <ele>38</ele>
        <time>2023-09-27T13:35:22Z</time>
      </trkpt>
      <trkpt lat="49.891" lon="2.48235">
        <ele>38</ele>
        <time>2023-09-27T13:35:23Z</time>
      </trkpt>
      <trkpt lat="49.89101" lon="2.48238">
        <ele>38</ele>
        <time>2023-09-27T13:35:24Z</time>
      </trkpt>
      <trkpt lat="49.89102" lon="2.48239">
        <ele>38</ele>
        <time>2023-09-27T13:35:25Z</time>
      </trkpt>
      <trkpt lat="49.89102" lon="2.48241">
        <ele>38</ele>
        <time>2023-09-27T13:35:26Z</time>
      </trkpt>
      <trkpt lat="49.89103" lon="2.48242">
        <ele>38</ele>
        <time>2023-09-27T13:35:27Z</time>
      </trkpt>
      <trkpt lat="49.89103" lon="2.48244">
        <ele>38</ele>
        <time>2023-09-27T13:35:28Z</time>
      </trkpt>
      <trkpt lat="49.89104" lon="2.48246">
        <ele>38</ele>
        <time>2023-09-27T13:35:29Z</time>
      </trkpt>
      <trkpt lat="49.89104" lon="2.48247">
        <ele>37.9</ele>
        <time>2023-09-27T13:35:30Z</time>
      </trkpt>
      <trkpt lat="49.89105" lon="2.48249">
        <ele>37.9</ele>
        <time>2023-09-27T13:35:31Z</time>
      </trkpt>
      <trkpt lat="49.89105" lon="2.4825">
        <ele>37.9</ele>
        <time>2023-09-27T13:35:32Z</time>
      </trkpt>
      <trkpt lat="49.89106" lon="2.48253">
        <ele>37.9</ele>
        <time>2023-09-27T13:35:33Z</time>
      </trkpt>
      <trkpt lat="49.89107" lon="2.48254">
        <ele>37.9</ele>
        <time>2023-09-27T13:35:34Z</time>
      </trkpt>
      <trkpt lat="49.89107" lon="2.48255">
        <ele>37.9</ele>
        <time>2023-09-27T13:35:35Z</time>
      </trkpt>
      <trkpt lat="49.89108" lon="2.48257">
        <ele>37.9</ele>
        <time>2023-09-27T13:35:36Z</time>
      </trkpt>
      <trkpt lat="49.89108" lon="2.48259">
        <ele>37.9</ele>
        <time>2023-09-27T13:35:37Z</time>
      </trkpt>
      <trkpt lat="49.89109" lon="2.4826">
        <ele>37.9</ele>
        <time>2023-09-27T13:35:38Z</time>
      </trkpt>
      <trkpt lat="49.89109" lon="2.48262">
        <ele>37.9</ele>
        <time>2023-09-27T13:35:39Z</time>
      </trkpt>
      <trkpt lat="49.8911" lon="2.48263">
        <ele>37.9</ele>
        <time>2023-09-27T13:35:40Z</time>
      </trkpt>
      <trkpt lat="49.8911" lon="2.48264">
        <ele>37.8</ele>
        <time>2023-09-27T13:35:41Z</time>
      </trkpt>
      <trkpt lat="49.89111" lon="2.48266">
        <ele>37.8</ele>
        <time>2023-09-27T13:35:42Z</time>
      </trkpt>
      <trkpt lat="49.89112" lon="2.48267">
        <ele>37.8</ele>
        <time>2023-09-27T13:35:43Z</time>
      </trkpt>
      <trkpt lat="49.89112" lon="2.48268">
        <ele>37.8</ele>
        <time>2023-09-27T13:35:44Z</time>
      </trkpt>
      <trkpt lat="49.89113" lon="2.4827">
        <ele>37.8</ele>
        <time>2023-09-27T13:35:45Z</time>
      </trkpt>
      <trkpt lat="49.89113" lon="2.48271">
        <ele>37.8</ele>
        <time>2023-09-27T13:35:46Z</time>
      </trkpt>
      <trkpt lat="49.89114" lon="2.48272">
        <ele>37.8</ele>
        <time>2023-09-27T13:35:47Z</time>
      </trkpt>
      <trkpt lat="49.89114" lon="2.48274">
        <ele>37.8</ele>
        <time>2023-09-27T13:35:48Z</time>
      </trkpt>
      <trkpt lat="49.89114" lon="2.48275">
        <ele>37.8</ele>
        <time>2023-09-27T13:35:49Z</time>
      </trkpt>
      <trkpt lat="49.89115" lon="2.48276">
        <ele>37.7</ele>
        <time>2023-09-27T13:35:50Z</time>
      </trkpt>
      <trkpt lat="49.89115" lon="2.48278">
        <ele>37.7</ele>
        <time>2023-09-27T13:35:51Z</time>
      </trkpt>
      <trkpt lat="49.89116" lon="2.4828">
        <ele>37.7</ele>
        <time>2023-09-27T13:35:52Z</time>
      </trkpt>
      <trkpt lat="49.89117" lon="2.48281">
        <ele>37.7</ele>
        <time>2023-09-27T13:35:53Z</time>
      </trkpt>
      <trkpt lat="49.89117" lon="2.48284">
        <ele>37.7</ele>
        <time>2023-09-27T13:35:54Z</time>
      </trkpt>
      <trkpt lat="49.89118" lon="2.48285">
        <ele>37.6</ele>
        <time>2023-09-27T13:35:55Z</time>
      </trkpt>
      <trkpt lat="49.89118" lon="2.48286">
        <ele>37.6</ele>
        <time>2023-09-27T13:35:56Z</time>
      </trkpt>
      <trkpt lat="49.89119" lon="2.48288">
        <ele>37.6</ele>
        <time>2023-09-27T13:35:57Z</time>
      </trkpt>
      <trkpt lat="49.89119" lon="2.48289">
        <ele>37.6</ele>
        <time>2023-09-27T13:35:58Z</time>
      </trkpt>
      <trkpt lat="49.8912" lon="2.48291">
        <ele>37.6</ele>
        <time>2023-09-27T13:35:59Z</time>
      </trkpt>
      <trkpt lat="49.8912" lon="2.48292">
        <ele>37.6</ele>
        <time>2023-09-27T13:36:00Z</time>
      </trkpt>
      <trkpt lat="49.89121" lon="2.48293">
        <ele>37.6</ele>
        <time>2023-09-27T13:36:01Z</time>
      </trkpt>
      <trkpt lat="49.89121" lon="2.48295">
        <ele>37.6</ele>
        <time>2023-09-27T13:36:02Z</time>
      </trkpt>
      <trkpt lat="49.89122" lon="2.48296">
        <ele>37.5</ele>
        <time>2023-09-27T13:36:03Z</time>
      </trkpt>
      <trkpt lat="49.89122" lon="2.48297">
        <ele>37.5</ele>
        <time>2023-09-27T13:36:04Z</time>
      </trkpt>
      <trkpt lat="49.89122" lon="2.48299">
        <ele>37.5</ele>
        <time>2023-09-27T13:36:05Z</time>
      </trkpt>
      <trkpt lat="49.89123" lon="2.483">
        <ele>37.5</ele>
        <time>2023-09-27T13:36:06Z</time>
      </trkpt>
      <trkpt lat="49.89123" lon="2.48302">
        <ele>37.5</ele>
        <time>2023-09-27T13:36:07Z</time>
      </trkpt>
      <trkpt lat="49.89123" lon="2.48303">
        <ele>37.5</ele>
        <time>2023-09-27T13:36:08Z</time>
      </trkpt>
      <trkpt lat="49.89124" lon="2.48305">
        <ele>37.5</ele>
        <time>2023-09-27T13:36:09Z</time>
      </trkpt>
      <trkpt lat="49.89124" lon="2.48307">
        <ele>37.5</ele>
        <time>2023-09-27T13:36:10Z</time>
      </trkpt>
      <trkpt lat="49.89125" lon="2.48308">
        <ele>37.5</ele>
        <time>2023-09-27T13:36:11Z</time>
      </trkpt>
      <trkpt lat="49.89125" lon="2.4831">
        <ele>37.5</ele>
        <time>2023-09-27T13:36:12Z</time>
      </trkpt>
      <trkpt lat="49.89126" lon="2.48311">
        <ele>37.5</ele>
        <time>2023-09-27T13:36:13Z</time>
      </trkpt>
      <trkpt lat="49.89126" lon="2.48313">
        <ele>37.5</ele>
        <time>2023-09-27T13:36:14Z</time>
      </trkpt>
      <trkpt lat="49.89127" lon="2.48314">
        <ele>37.5</ele>
        <time>2023-09-27T13:36:15Z</time>
      </trkpt>
      <trkpt lat="49.89127" lon="2.48316">
        <ele>37.5</ele>
        <time>2023-09-27T13:36:16Z</time>
      </trkpt>
      <trkpt lat="49.89127" lon="2.48317">
        <ele>37.5</ele>
        <time>2023-09-27T13:36:17Z</time>
      </trkpt>
      <trkpt lat="49.89128" lon="2.48319">
        <ele>37.5</ele>
        <time>2023-09-27T13:36:18Z</time>
      </trkpt>
      <trkpt lat="49.89129" lon="2.4832">
        <ele>37.4</ele>
        <time>2023-09-27T13:36:19Z</time>
      </trkpt>
      <trkpt lat="49.89129" lon="2.48322">
        <ele>37.4</ele>
        <time>2023-09-27T13:36:20Z</time>
      </trkpt>
      <trkpt lat="49.8913" lon="2.48324">
        <ele>37.4</ele>
        <time>2023-09-27T13:36:21Z</time>
      </trkpt>
      <trkpt lat="49.8913" lon="2.48325">
        <ele>37.4</ele>
        <time>2023-09-27T13:36:22Z</time>
      </trkpt>
      <trkpt lat="49.89131" lon="2.48326">
        <ele>37.3</ele>
        <time>2023-09-27T13:36:23Z</time>
      </trkpt>
      <trkpt lat="49.89131" lon="2.48328">
        <ele>37.3</ele>
        <time>2023-09-27T13:36:24Z</time>
      </trkpt>
      <trkpt lat="49.89131" lon="2.48329">
        <ele>37.3</ele>
        <time>2023-09-27T13:36:25Z</time>
      </trkpt>
      <trkpt lat="49.89132" lon="2.48331">
        <ele>37.3</ele>
        <time>2023-09-27T13:36:26Z</time>
      </trkpt>
      <trkpt lat="49.89133" lon="2.48332">
        <ele>37.2</ele>
        <time>2023-09-27T13:36:27Z</time>
      </trkpt>
      <trkpt lat="49.89133" lon="2.48334">
        <ele>37.2</ele>
        <time>2023-09-27T13:36:28Z</time>
      </trkpt>
      <trkpt lat="49.89134" lon="2.48335">
        <ele>37.2</ele>
        <time>2023-09-27T13:36:29Z</time>
      </trkpt>
      <trkpt lat="49.89134" lon="2.48336">
        <ele>37.2</ele>
        <time>2023-09-27T13:36:30Z</time>
      </trkpt>
      <trkpt lat="49.89135" lon="2.48337">
        <ele>37.1</ele>
        <time>2023-09-27T13:36:31Z</time>
      </trkpt>
      <trkpt lat="49.89135" lon="2.48339">
        <ele>37.1</ele>
        <time>2023-09-27T13:36:32Z</time>
      </trkpt>
      <trkpt lat="49.89136" lon="2.4834">
        <ele>37.1</ele>
        <time>2023-09-27T13:36:33Z</time>
      </trkpt>
      <trkpt lat="49.89137" lon="2.48341">
        <ele>37.1</ele>
        <time>2023-09-27T13:36:34Z</time>
      </trkpt>
      <trkpt lat="49.89137" lon="2.48343">
        <ele>37</ele>
        <time>2023-09-27T13:36:35Z</time>
      </trkpt>
      <trkpt lat="49.89138" lon="2.48344">
        <ele>37</ele>
        <time>2023-09-27T13:36:36Z</time>
      </trkpt>
      <trkpt lat="49.89139" lon="2.48346">
        <ele>37</ele>
        <time>2023-09-27T13:36:37Z</time>
      </trkpt>
      <trkpt lat="49.89139" lon="2.48347">
        <ele>36.9</ele>
        <time>2023-09-27T13:36:38Z</time>
      </trkpt>
      <trkpt lat="49.8914" lon="2.48348">
        <ele>36.9</ele>
        <time>2023-09-27T13:36:39Z</time>
      </trkpt>
      <trkpt lat="49.89141" lon="2.48349">
        <ele>36.9</ele>
        <time>2023-09-27T13:36:40Z</time>
      </trkpt>
      <trkpt lat="49.89142" lon="2.4835">
        <ele>36.8</ele>
        <time>2023-09-27T13:36:41Z</time>
      </trkpt>
      <trkpt lat="49.89143" lon="2.48351">
        <ele>36.8</ele>
        <time>2023-09-27T13:36:42Z</time>
      </trkpt>
      <trkpt lat="49.89143" lon="2.48352">
        <ele>36.8</ele>
        <time>2023-09-27T13:36:43Z</time>
      </trkpt>
      <trkpt lat="49.89144" lon="2.48353">
        <ele>36.8</ele>
        <time>2023-09-27T13:36:44Z</time>
      </trkpt>
      <trkpt lat="49.89145" lon="2.48355">
        <ele>36.7</ele>
        <time>2023-09-27T13:36:45Z</time>
      </trkpt>
      <trkpt lat="49.89145" lon="2.48356">
        <ele>36.7</ele>
        <time>2023-09-27T13:36:46Z</time>
      </trkpt>
      <trkpt lat="49.89146" lon="2.48358">
        <ele>36.6</ele>
        <time>2023-09-27T13:36:47Z</time>
      </trkpt>
      <trkpt lat="49.89147" lon="2.4836">
        <ele>36.5</ele>
        <time>2023-09-27T13:36:48Z</time>
      </trkpt>
      <trkpt lat="49.89148" lon="2.48361">
        <ele>36.5</ele>
        <time>2023-09-27T13:36:49Z</time>
      </trkpt>
      <trkpt lat="49.89148" lon="2.48362">
        <ele>36.5</ele>
        <time>2023-09-27T13:36:50Z</time>
      </trkpt>
      <trkpt lat="49.89149" lon="2.48364">
        <ele>36.4</ele>
        <time>2023-09-27T13:36:51Z</time>
      </trkpt>
      <trkpt lat="49.89149" lon="2.48365">
        <ele>36.4</ele>
        <time>2023-09-27T13:36:52Z</time>
      </trkpt>
      <trkpt lat="49.8915" lon="2.48366">
        <ele>36.3</ele>
        <time>2023-09-27T13:36:53Z</time>
      </trkpt>
      <trkpt lat="49.89151" lon="2.48367">
        <ele>36.3</ele>
        <time>2023-09-27T13:36:54Z</time>
      </trkpt>
      <trkpt lat="49.89151" lon="2.48369">
        <ele>36.3</ele>
        <time>2023-09-27T13:36:55Z</time>
      </trkpt>
      <trkpt lat="49.89152" lon="2.4837">
        <ele>36.2</ele>
        <time>2023-09-27T13:36:56Z</time>
      </trkpt>
      <trkpt lat="49.89153" lon="2.48372">
        <ele>36.2</ele>
        <time>2023-09-27T13:36:57Z</time>
      </trkpt>
      <trkpt lat="49.89153" lon="2.48373">
        <ele>36.1</ele>
        <time>2023-09-27T13:36:58Z</time>
      </trkpt>
      <trkpt lat="49.89154" lon="2.48375">
        <ele>36.1</ele>
        <time>2023-09-27T13:36:59Z</time>
      </trkpt>
      <trkpt lat="49.89155" lon="2.48376">
        <ele>36</ele>
        <time>2023-09-27T13:37:00Z</time>
      </trkpt>
      <trkpt lat="49.89156" lon="2.48377">
        <ele>36</ele>
        <time>2023-09-27T13:37:01Z</time>
      </trkpt>
      <trkpt lat="49.89157" lon="2.48378">
        <ele>35.9</ele>
        <time>2023-09-27T13:37:02Z</time>
      </trkpt>
      <trkpt lat="49.89157" lon="2.48379">
        <ele>35.9</ele>
        <time>2023-09-27T13:37:03Z</time>
      </trkpt>
      <trkpt lat="49.89158" lon="2.48381">
        <ele>35.9</ele>
        <time>2023-09-27T13:37:04Z</time>
      </trkpt>
      <trkpt lat="49.89159" lon="2.48382">
        <ele>35.8</ele>
        <time>2023-09-27T13:37:05Z</time>
      </trkpt>
      <trkpt lat="49.89159" lon="2.48383">
        <ele>35.8</ele>
        <time>2023-09-27T13:37:06Z</time>
      </trkpt>
      <trkpt lat="49.8916" lon="2.48385">
        <ele>35.7</ele>
        <time>2023-09-27T13:37:07Z</time>
      </trkpt>
      <trkpt lat="49.89161" lon="2.48386">
        <ele>35.7</ele>
        <time>2023-09-27T13:37:08Z</time>
      </trkpt>
      <trkpt lat="49.89161" lon="2.48388">
        <ele>35.6</ele>
        <time>2023-09-27T13:37:09Z</time>
      </trkpt>
      <trkpt lat="49.89162" lon="2.48389">
        <ele>35.6</ele>
        <time>2023-09-27T13:37:10Z</time>
      </trkpt>
      <trkpt lat="49.89163" lon="2.4839">
        <ele>35.5</ele>
        <time>2023-09-27T13:37:11Z</time>
      </trkpt>
      <trkpt lat="49.89163" lon="2.48392">
        <ele>35.5</ele>
        <time>2023-09-27T13:37:12Z</time>
      </trkpt>
      <trkpt lat="49.89164" lon="2.48393">
        <ele>35.5</ele>
        <time>2023-09-27T13:37:13Z</time>
      </trkpt>
      <trkpt lat="49.89165" lon="2.48395">
        <ele>35.4</ele>
        <time>2023-09-27T13:37:14Z</time>
      </trkpt>
      <trkpt lat="49.89166" lon="2.48397">
        <ele>35.3</ele>
        <time>2023-09-27T13:37:15Z</time>
      </trkpt>
      <trkpt lat="49.89167" lon="2.48398">
        <ele>35.3</ele>
        <time>2023-09-27T13:37:16Z</time>
      </trkpt>
      <trkpt lat="49.89167" lon="2.48399">
        <ele>35.3</ele>
        <time>2023-09-27T13:37:17Z</time>
      </trkpt>
      <trkpt lat="49.89168" lon="2.48401">
        <ele>35.2</ele>
        <time>2023-09-27T13:37:18Z</time>
      </trkpt>
      <trkpt lat="49.89169" lon="2.48402">
        <ele>35.2</ele>
        <time>2023-09-27T13:37:19Z</time>
      </trkpt>
      <trkpt lat="49.8917" lon="2.48403">
        <ele>35.2</ele>
        <time>2023-09-27T13:37:20Z</time>
      </trkpt>
      <trkpt lat="49.8917" lon="2.48405">
        <ele>35.1</ele>
        <time>2023-09-27T13:37:21Z</time>
      </trkpt>
      <trkpt lat="49.89171" lon="2.48406">
        <ele>35.1</ele>
        <time>2023-09-27T13:37:22Z</time>
      </trkpt>
      <trkpt lat="49.89172" lon="2.48407">
        <ele>35</ele>
        <time>2023-09-27T13:37:23Z</time>
      </trkpt>
      <trkpt lat="49.89173" lon="2.4841">
        <ele>35</ele>
        <time>2023-09-27T13:37:24Z</time>
      </trkpt>
      <trkpt lat="49.89174" lon="2.48411">
        <ele>34.9</ele>
        <time>2023-09-27T13:37:25Z</time>
      </trkpt>
      <trkpt lat="49.89174" lon="2.48412">
        <ele>34.9</ele>
        <time>2023-09-27T13:37:26Z</time>
      </trkpt>
      <trkpt lat="49.89175" lon="2.48413">
        <ele>34.9</ele>
        <time>2023-09-27T13:37:27Z</time>
      </trkpt>
      <trkpt lat="49.89176" lon="2.48414">
        <ele>34.8</ele>
        <time>2023-09-27T13:37:28Z</time>
      </trkpt>
      <trkpt lat="49.89177" lon="2.48416">
        <ele>34.8</ele>
        <time>2023-09-27T13:37:29Z</time>
      </trkpt>
      <trkpt lat="49.89177" lon="2.48417">
        <ele>34.8</ele>
        <time>2023-09-27T13:37:30Z</time>
      </trkpt>
      <trkpt lat="49.89178" lon="2.48418">
        <ele>34.8</ele>
        <time>2023-09-27T13:37:31Z</time>
      </trkpt>
      <trkpt lat="49.89178" lon="2.48419">
        <ele>34.8</ele>
        <time>2023-09-27T13:37:32Z</time>
      </trkpt>
      <trkpt lat="49.89179" lon="2.4842">
        <ele>34.7</ele>
        <time>2023-09-27T13:37:33Z</time>
      </trkpt>
      <trkpt lat="49.89179" lon="2.48422">
        <ele>34.7</ele>
        <time>2023-09-27T13:37:34Z</time>
      </trkpt>
      <trkpt lat="49.8918" lon="2.48423">
        <ele>34.7</ele>
        <time>2023-09-27T13:37:35Z</time>
      </trkpt>
      <trkpt lat="49.8918" lon="2.48425">
        <ele>34.7</ele>
        <time>2023-09-27T13:37:36Z</time>
      </trkpt>
      <trkpt lat="49.89181" lon="2.48426">
        <ele>34.6</ele>
        <time>2023-09-27T13:37:37Z</time>
      </trkpt>
      <trkpt lat="49.89181" lon="2.48428">
        <ele>34.6</ele>
        <time>2023-09-27T13:37:38Z</time>
      </trkpt>
      <trkpt lat="49.89182" lon="2.4843">
        <ele>34.6</ele>
        <time>2023-09-27T13:37:39Z</time>
      </trkpt>
      <trkpt lat="49.89183" lon="2.48431">
        <ele>34.6</ele>
        <time>2023-09-27T13:37:40Z</time>
      </trkpt>
      <trkpt lat="49.89183" lon="2.48432">
        <ele>34.6</ele>
        <time>2023-09-27T13:37:41Z</time>
      </trkpt>
      <trkpt lat="49.89184" lon="2.48434">
        <ele>34.6</ele>
        <time>2023-09-27T13:37:42Z</time>
      </trkpt>
      <trkpt lat="49.89184" lon="2.48435">
        <ele>34.6</ele>
        <time>2023-09-27T13:37:43Z</time>
      </trkpt>
      <trkpt lat="49.89185" lon="2.48436">
        <ele>34.5</ele>
        <time>2023-09-27T13:37:44Z</time>
      </trkpt>
      <trkpt lat="49.89186" lon="2.48438">
        <ele>34.5</ele>
        <time>2023-09-27T13:37:45Z</time>
      </trkpt>
      <trkpt lat="49.89186" lon="2.48439">
        <ele>34.5</ele>
        <time>2023-09-27T13:37:46Z</time>
      </trkpt>
      <trkpt lat="49.89187" lon="2.48441">
        <ele>34.5</ele>
        <time>2023-09-27T13:37:47Z</time>
      </trkpt>
      <trkpt lat="49.89188" lon="2.48442">
        <ele>34.5</ele>
        <time>2023-09-27T13:37:48Z</time>
      </trkpt>
      <trkpt lat="49.89188" lon="2.48444">
        <ele>34.5</ele>
        <time>2023-09-27T13:37:49Z</time>
      </trkpt>
      <trkpt lat="49.89189" lon="2.48445">
        <ele>34.4</ele>
        <time>2023-09-27T13:37:50Z</time>
      </trkpt>
      <trkpt lat="49.8919" lon="2.48446">
        <ele>34.4</ele>
        <time>2023-09-27T13:37:51Z</time>
      </trkpt>
      <trkpt lat="49.8919" lon="2.48448">
        <ele>34.4</ele>
        <time>2023-09-27T13:37:52Z</time>
      </trkpt>
      <trkpt lat="49.89191" lon="2.48449">
        <ele>34.4</ele>
        <time>2023-09-27T13:37:53Z</time>
      </trkpt>
      <trkpt lat="49.89191" lon="2.4845">
        <ele>34.4</ele>
        <time>2023-09-27T13:37:54Z</time>
      </trkpt>
      <trkpt lat="49.89192" lon="2.48451">
        <ele>34.4</ele>
        <time>2023-09-27T13:37:55Z</time>
      </trkpt>
      <trkpt lat="49.89193" lon="2.48453">
        <ele>34.3</ele>
        <time>2023-09-27T13:37:56Z</time>
      </trkpt>
      <trkpt lat="49.89193" lon="2.48454">
        <ele>34.3</ele>
        <time>2023-09-27T13:37:57Z</time>
      </trkpt>
      <trkpt lat="49.89194" lon="2.48456">
        <ele>34.3</ele>
        <time>2023-09-27T13:37:58Z</time>
      </trkpt>
      <trkpt lat="49.89194" lon="2.48457">
        <ele>34.3</ele>
        <time>2023-09-27T13:37:59Z</time>
      </trkpt>
      <trkpt lat="49.89195" lon="2.48458">
        <ele>34.3</ele>
        <time>2023-09-27T13:38:00Z</time>
      </trkpt>
      <trkpt lat="49.89195" lon="2.4846">
        <ele>34.2</ele>
        <time>2023-09-27T13:38:01Z</time>
      </trkpt>
      <trkpt lat="49.89195" lon="2.48461">
        <ele>34.2</ele>
        <time>2023-09-27T13:38:02Z</time>
      </trkpt>
      <trkpt lat="49.89196" lon="2.48462">
        <ele>34.2</ele>
        <time>2023-09-27T13:38:03Z</time>
      </trkpt>
      <trkpt lat="49.89196" lon="2.48463">
        <ele>34.2</ele>
        <time>2023-09-27T13:38:04Z</time>
      </trkpt>
      <trkpt lat="49.89197" lon="2.48465">
        <ele>34.2</ele>
        <time>2023-09-27T13:38:05Z</time>
      </trkpt>
      <trkpt lat="49.89197" lon="2.48466">
        <ele>34.2</ele>
        <time>2023-09-27T13:38:06Z</time>
      </trkpt>
      <trkpt lat="49.89198" lon="2.48468">
        <ele>34.1</ele>
        <time>2023-09-27T13:38:07Z</time>
      </trkpt>
      <trkpt lat="49.89198" lon="2.48469">
        <ele>34.1</ele>
        <time>2023-09-27T13:38:08Z</time>
      </trkpt>
      <trkpt lat="49.89199" lon="2.48471">
        <ele>34.1</ele>
        <time>2023-09-27T13:38:09Z</time>
      </trkpt>
      <trkpt lat="49.892" lon="2.48472">
        <ele>34.1</ele>
        <time>2023-09-27T13:38:10Z</time>
      </trkpt>
      <trkpt lat="49.892" lon="2.48474">
        <ele>34.1</ele>
        <time>2023-09-27T13:38:11Z</time>
      </trkpt>
      <trkpt lat="49.89201" lon="2.48475">
        <ele>34.1</ele>
        <time>2023-09-27T13:38:12Z</time>
      </trkpt>
      <trkpt lat="49.89202" lon="2.48478">
        <ele>34</ele>
        <time>2023-09-27T13:38:13Z</time>
      </trkpt>
      <trkpt lat="49.89202" lon="2.48479">
        <ele>34</ele>
        <time>2023-09-27T13:38:14Z</time>
      </trkpt>
      <trkpt lat="49.89203" lon="2.4848">
        <ele>34</ele>
        <time>2023-09-27T13:38:15Z</time>
      </trkpt>
      <trkpt lat="49.89204" lon="2.48483">
        <ele>34</ele>
        <time>2023-09-27T13:38:16Z</time>
      </trkpt>
      <trkpt lat="49.89204" lon="2.48484">
        <ele>34</ele>
        <time>2023-09-27T13:38:17Z</time>
      </trkpt>
      <trkpt lat="49.89205" lon="2.48485">
        <ele>34</ele>
        <time>2023-09-27T13:38:18Z</time>
      </trkpt>
      <trkpt lat="49.89205" lon="2.48487">
        <ele>34</ele>
        <time>2023-09-27T13:38:19Z</time>
      </trkpt>
      <trkpt lat="49.89206" lon="2.48488">
        <ele>34</ele>
        <time>2023-09-27T13:38:20Z</time>
      </trkpt>
      <trkpt lat="49.89206" lon="2.4849">
        <ele>34</ele>
        <time>2023-09-27T13:38:21Z</time>
      </trkpt>
      <trkpt lat="49.89208" lon="2.48493">
        <ele>34</ele>
        <time>2023-09-27T13:38:22Z</time>
      </trkpt>
      <trkpt lat="49.89208" lon="2.48494">
        <ele>34</ele>
        <time>2023-09-27T13:38:23Z</time>
      </trkpt>
      <trkpt lat="49.89208" lon="2.48495">
        <ele>34</ele>
        <time>2023-09-27T13:38:24Z</time>
      </trkpt>
      <trkpt lat="49.89209" lon="2.48498">
        <ele>34</ele>
        <time>2023-09-27T13:38:25Z</time>
      </trkpt>
      <trkpt lat="49.8921" lon="2.48499">
        <ele>34</ele>
        <time>2023-09-27T13:38:26Z</time>
      </trkpt>
      <trkpt lat="49.8921" lon="2.485">
        <ele>34</ele>
        <time>2023-09-27T13:38:27Z</time>
      </trkpt>
      <trkpt lat="49.8921" lon="2.48502">
        <ele>34</ele>
        <time>2023-09-27T13:38:28Z</time>
      </trkpt>
      <trkpt lat="49.89211" lon="2.48504">
        <ele>34</ele>
        <time>2023-09-27T13:38:29Z</time>
      </trkpt>
      <trkpt lat="49.89211" lon="2.48505">
        <ele>34</ele>
        <time>2023-09-27T13:38:30Z</time>
      </trkpt>
      <trkpt lat="49.89213" lon="2.48508">
        <ele>34</ele>
        <time>2023-09-27T13:38:31Z</time>
      </trkpt>
      <trkpt lat="49.89213" lon="2.48509">
        <ele>34</ele>
        <time>2023-09-27T13:38:32Z</time>
      </trkpt>
      <trkpt lat="49.89213" lon="2.4851">
        <ele>33.9</ele>
        <time>2023-09-27T13:38:33Z</time>
      </trkpt>
      <trkpt lat="49.89214" lon="2.48512">
        <ele>33.9</ele>
        <time>2023-09-27T13:38:34Z</time>
      </trkpt>
      <trkpt lat="49.89215" lon="2.48513">
        <ele>33.9</ele>
        <time>2023-09-27T13:38:35Z</time>
      </trkpt>
      <trkpt lat="49.89215" lon="2.48514">
        <ele>33.9</ele>
        <time>2023-09-27T13:38:36Z</time>
      </trkpt>
      <trkpt lat="49.89216" lon="2.48515">
        <ele>33.9</ele>
        <time>2023-09-27T13:38:37Z</time>
      </trkpt>
      <trkpt lat="49.89216" lon="2.48517">
        <ele>33.9</ele>
        <time>2023-09-27T13:38:38Z</time>
      </trkpt>
      <trkpt lat="49.89217" lon="2.48518">
        <ele>33.9</ele>
        <time>2023-09-27T13:38:39Z</time>
      </trkpt>
      <trkpt lat="49.89217" lon="2.48519">
        <ele>33.9</ele>
        <time>2023-09-27T13:38:40Z</time>
      </trkpt>
      <trkpt lat="49.89218" lon="2.4852">
        <ele>33.8</ele>
        <time>2023-09-27T13:38:41Z</time>
      </trkpt>
      <trkpt lat="49.89219" lon="2.48522">
        <ele>33.8</ele>
        <time>2023-09-27T13:38:42Z</time>
      </trkpt>
      <trkpt lat="49.89219" lon="2.48523">
        <ele>33.8</ele>
        <time>2023-09-27T13:38:43Z</time>
      </trkpt>
      <trkpt lat="49.8922" lon="2.48524">
        <ele>33.8</ele>
        <time>2023-09-27T13:38:44Z</time>
      </trkpt>
      <trkpt lat="49.8922" lon="2.48525">
        <ele>33.8</ele>
        <time>2023-09-27T13:38:45Z</time>
      </trkpt>
      <trkpt lat="49.89221" lon="2.48527">
        <ele>33.8</ele>
        <time>2023-09-27T13:38:46Z</time>
      </trkpt>
      <trkpt lat="49.89221" lon="2.48528">
        <ele>33.7</ele>
        <time>2023-09-27T13:38:47Z</time>
      </trkpt>
      <trkpt lat="49.89222" lon="2.48529">
        <ele>33.7</ele>
        <time>2023-09-27T13:38:48Z</time>
      </trkpt>
      <trkpt lat="49.89222" lon="2.48531">
        <ele>33.7</ele>
        <time>2023-09-27T13:38:49Z</time>
      </trkpt>
      <trkpt lat="49.89223" lon="2.48532">
        <ele>33.7</ele>
        <time>2023-09-27T13:38:50Z</time>
      </trkpt>
      <trkpt lat="49.89223" lon="2.48534">
        <ele>33.7</ele>
        <time>2023-09-27T13:38:51Z</time>
      </trkpt>
      <trkpt lat="49.89224" lon="2.48536">
        <ele>33.6</ele>
        <time>2023-09-27T13:38:52Z</time>
      </trkpt>
      <trkpt lat="49.89224" lon="2.48537">
        <ele>33.6</ele>
        <time>2023-09-27T13:38:53Z</time>
      </trkpt>
      <trkpt lat="49.89225" lon="2.48538">
        <ele>33.6</ele>
        <time>2023-09-27T13:38:54Z</time>
      </trkpt>
      <trkpt lat="49.89225" lon="2.4854">
        <ele>33.6</ele>
        <time>2023-09-27T13:38:55Z</time>
      </trkpt>
      <trkpt lat="49.89226" lon="2.48541">
        <ele>33.6</ele>
        <time>2023-09-27T13:38:56Z</time>
      </trkpt>
      <trkpt lat="49.89226" lon="2.48543">
        <ele>33.6</ele>
        <time>2023-09-27T13:38:57Z</time>
      </trkpt>
      <trkpt lat="49.89226" lon="2.48544">
        <ele>33.6</ele>
        <time>2023-09-27T13:38:58Z</time>
      </trkpt>
      <trkpt lat="49.89227" lon="2.48546">
        <ele>33.6</ele>
        <time>2023-09-27T13:38:59Z</time>
      </trkpt>
      <trkpt lat="49.89228" lon="2.48547">
        <ele>33.6</ele>
        <time>2023-09-27T13:39:00Z</time>
      </trkpt>
      <trkpt lat="49.89229" lon="2.4855">
        <ele>33.6</ele>
        <time>2023-09-27T13:39:01Z</time>
      </trkpt>
      <trkpt lat="49.89229" lon="2.48551">
        <ele>33.6</ele>
        <time>2023-09-27T13:39:02Z</time>
      </trkpt>
      <trkpt lat="49.89229" lon="2.48552">
        <ele>33.6</ele>
        <time>2023-09-27T13:39:03Z</time>
      </trkpt>
      <trkpt lat="49.8923" lon="2.48553">
        <ele>33.5</ele>
        <time>2023-09-27T13:39:04Z</time>
      </trkpt>
      <trkpt lat="49.89231" lon="2.48555">
        <ele>33.5</ele>
        <time>2023-09-27T13:39:05Z</time>
      </trkpt>
      <trkpt lat="49.89231" lon="2.48556">
        <ele>33.5</ele>
        <time>2023-09-27T13:39:06Z</time>
      </trkpt>
      <trkpt lat="49.89232" lon="2.48557">
        <ele>33.5</ele>
        <time>2023-09-27T13:39:07Z</time>
      </trkpt>
      <trkpt lat="49.89233" lon="2.48559">
        <ele>33.5</ele>
        <time>2023-09-27T13:39:08Z</time>
      </trkpt>
      <trkpt lat="49.89233" lon="2.4856">
        <ele>33.5</ele>
        <time>2023-09-27T13:39:09Z</time>
      </trkpt>
      <trkpt lat="49.89234" lon="2.48562">
        <ele>33.5</ele>
        <time>2023-09-27T13:39:10Z</time>
      </trkpt>
      <trkpt lat="49.89235" lon="2.48563">
        <ele>33.5</ele>
        <time>2023-09-27T13:39:11Z</time>
      </trkpt>
      <trkpt lat="49.89235" lon="2.48564">
        <ele>33.5</ele>
        <time>2023-09-27T13:39:12Z</time>
      </trkpt>
      <trkpt lat="49.89236" lon="2.48566">
        <ele>33.5</ele>
        <time>2023-09-27T13:39:13Z</time>
      </trkpt>
      <trkpt lat="49.89236" lon="2.48567">
        <ele>33.5</ele>
        <time>2023-09-27T13:39:14Z</time>
      </trkpt>
      <trkpt lat="49.89237" lon="2.48569">
        <ele>33.5</ele>
        <time>2023-09-27T13:39:15Z</time>
      </trkpt>
      <trkpt lat="49.89238" lon="2.4857">
        <ele>33.5</ele>
        <time>2023-09-27T13:39:16Z</time>
      </trkpt>
      <trkpt lat="49.89239" lon="2.48571">
        <ele>33.5</ele>
        <time>2023-09-27T13:39:17Z</time>
      </trkpt>
      <trkpt lat="49.89239" lon="2.48573">
        <ele>33.5</ele>
        <time>2023-09-27T13:39:18Z</time>
      </trkpt>
      <trkpt lat="49.8924" lon="2.48574">
        <ele>33.5</ele>
        <time>2023-09-27T13:39:19Z</time>
      </trkpt>
      <trkpt lat="49.89241" lon="2.48576">
        <ele>33.5</ele>
        <time>2023-09-27T13:39:20Z</time>
      </trkpt>
      <trkpt lat="49.89242" lon="2.48577">
        <ele>33.5</ele>
        <time>2023-09-27T13:39:21Z</time>
      </trkpt>
      <trkpt lat="49.89242" lon="2.48578">
        <ele>33.5</ele>
        <time>2023-09-27T13:39:22Z</time>
      </trkpt>
      <trkpt lat="49.89243" lon="2.48579">
        <ele>33.5</ele>
        <time>2023-09-27T13:39:23Z</time>
      </trkpt>
      <trkpt lat="49.89244" lon="2.48581">
        <ele>33.5</ele>
        <time>2023-09-27T13:39:24Z</time>
      </trkpt>
      <trkpt lat="49.89244" lon="2.48582">
        <ele>33.5</ele>
        <time>2023-09-27T13:39:25Z</time>
      </trkpt>
      <trkpt lat="49.89245" lon="2.48583">
        <ele>33.5</ele>
        <time>2023-09-27T13:39:26Z</time>
      </trkpt>
      <trkpt lat="49.89246" lon="2.48585">
        <ele>33.5</ele>
        <time>2023-09-27T13:39:27Z</time>
      </trkpt>
      <trkpt lat="49.89246" lon="2.48586">
        <ele>33.5</ele>
        <time>2023-09-27T13:39:28Z</time>
      </trkpt>
      <trkpt lat="49.89247" lon="2.48587">
        <ele>33.5</ele>
        <time>2023-09-27T13:39:29Z</time>
      </trkpt>
      <trkpt lat="49.89248" lon="2.48589">
        <ele>33.5</ele>
        <time>2023-09-27T13:39:30Z</time>
      </trkpt>
      <trkpt lat="49.89249" lon="2.4859">
        <ele>33.5</ele>
        <time>2023-09-27T13:39:31Z</time>
      </trkpt>
      <trkpt lat="49.89249" lon="2.48591">
        <ele>33.5</ele>
        <time>2023-09-27T13:39:32Z</time>
      </trkpt>
      <trkpt lat="49.8925" lon="2.48592">
        <ele>33.5</ele>
        <time>2023-09-27T13:39:33Z</time>
      </trkpt>
      <trkpt lat="49.89251" lon="2.48593">
        <ele>33.5</ele>
        <time>2023-09-27T13:39:34Z</time>
      </trkpt>
      <trkpt lat="49.89252" lon="2.48595">
        <ele>33.5</ele>
        <time>2023-09-27T13:39:35Z</time>
      </trkpt>
      <trkpt lat="49.89252" lon="2.48596">
        <ele>33.5</ele>
        <time>2023-09-27T13:39:36Z</time>
      </trkpt>
      <trkpt lat="49.89253" lon="2.48597">
        <ele>33.5</ele>
        <time>2023-09-27T13:39:37Z</time>
      </trkpt>
      <trkpt lat="49.89254" lon="2.48599">
        <ele>33.5</ele>
        <time>2023-09-27T13:39:38Z</time>
      </trkpt>
      <trkpt lat="49.89255" lon="2.486">
        <ele>33.5</ele>
        <time>2023-09-27T13:39:39Z</time>
      </trkpt>
      <trkpt lat="49.89255" lon="2.48601">
        <ele>33.5</ele>
        <time>2023-09-27T13:39:40Z</time>
      </trkpt>
      <trkpt lat="49.89256" lon="2.48602">
        <ele>33.5</ele>
        <time>2023-09-27T13:39:41Z</time>
      </trkpt>
      <trkpt lat="49.89257" lon="2.48603">
        <ele>33.5</ele>
        <time>2023-09-27T13:39:42Z</time>
      </trkpt>
      <trkpt lat="49.89257" lon="2.48604">
        <ele>33.5</ele>
        <time>2023-09-27T13:39:43Z</time>
      </trkpt>
      <trkpt lat="49.89258" lon="2.48606">
        <ele>33.5</ele>
        <time>2023-09-27T13:39:44Z</time>
      </trkpt>
      <trkpt lat="49.89259" lon="2.48607">
        <ele>33.5</ele>
        <time>2023-09-27T13:39:45Z</time>
      </trkpt>
      <trkpt lat="49.8926" lon="2.48608">
        <ele>33.5</ele>
        <time>2023-09-27T13:39:46Z</time>
      </trkpt>
      <trkpt lat="49.8926" lon="2.4861">
        <ele>33.5</ele>
        <time>2023-09-27T13:39:47Z</time>
      </trkpt>
      <trkpt lat="49.89261" lon="2.48611">
        <ele>33.5</ele>
        <time>2023-09-27T13:39:48Z</time>
      </trkpt>
      <trkpt lat="49.89261" lon="2.48612">
        <ele>33.5</ele>
        <time>2023-09-27T13:39:49Z</time>
      </trkpt>
      <trkpt lat="49.89262" lon="2.48614">
        <ele>33.5</ele>
        <time>2023-09-27T13:39:50Z</time>
      </trkpt>
      <trkpt lat="49.89263" lon="2.48615">
        <ele>33.5</ele>
        <time>2023-09-27T13:39:51Z</time>
      </trkpt>
      <trkpt lat="49.89263" lon="2.48616">
        <ele>33.5</ele>
        <time>2023-09-27T13:39:52Z</time>
      </trkpt>
      <trkpt lat="49.89264" lon="2.48618">
        <ele>33.5</ele>
        <time>2023-09-27T13:39:53Z</time>
      </trkpt>
      <trkpt lat="49.89265" lon="2.48619">
        <ele>33.5</ele>
        <time>2023-09-27T13:39:54Z</time>
      </trkpt>
      <trkpt lat="49.89265" lon="2.48621">
        <ele>33.5</ele>
        <time>2023-09-27T13:39:55Z</time>
      </trkpt>
      <trkpt lat="49.89266" lon="2.48622">
        <ele>33.5</ele>
        <time>2023-09-27T13:39:56Z</time>
      </trkpt>
      <trkpt lat="49.89267" lon="2.48623">
        <ele>33.5</ele>
        <time>2023-09-27T13:39:57Z</time>
      </trkpt>
      <trkpt lat="49.89267" lon="2.48625">
        <ele>33.5</ele>
        <time>2023-09-27T13:39:58Z</time>
      </trkpt>
      <trkpt lat="49.89268" lon="2.48626">
        <ele>33.5</ele>
        <time>2023-09-27T13:39:59Z</time>
      </trkpt>
      <trkpt lat="49.89268" lon="2.48628">
        <ele>33.5</ele>
        <time>2023-09-27T13:40:00Z</time>
      </trkpt>
      <trkpt lat="49.89269" lon="2.4863">
        <ele>33.6</ele>
        <time>2023-09-27T13:40:01Z</time>
      </trkpt>
      <trkpt lat="49.89269" lon="2.48632">
        <ele>33.6</ele>
        <time>2023-09-27T13:40:02Z</time>
      </trkpt>
      <trkpt lat="49.8927" lon="2.48633">
        <ele>33.6</ele>
        <time>2023-09-27T13:40:03Z</time>
      </trkpt>
      <trkpt lat="49.8927" lon="2.48634">
        <ele>33.6</ele>
        <time>2023-09-27T13:40:04Z</time>
      </trkpt>
      <trkpt lat="49.89271" lon="2.48636">
        <ele>33.6</ele>
        <time>2023-09-27T13:40:05Z</time>
      </trkpt>
      <trkpt lat="49.89271" lon="2.48637">
        <ele>33.6</ele>
        <time>2023-09-27T13:40:06Z</time>
      </trkpt>
      <trkpt lat="49.89272" lon="2.48639">
        <ele>33.6</ele>
        <time>2023-09-27T13:40:07Z</time>
      </trkpt>
      <trkpt lat="49.89272" lon="2.4864">
        <ele>33.7</ele>
        <time>2023-09-27T13:40:08Z</time>
      </trkpt>
      <trkpt lat="49.89273" lon="2.48642">
        <ele>33.7</ele>
        <time>2023-09-27T13:40:09Z</time>
      </trkpt>
      <trkpt lat="49.89273" lon="2.48644">
        <ele>33.7</ele>
        <time>2023-09-27T13:40:10Z</time>
      </trkpt>
      <trkpt lat="49.89274" lon="2.48645">
        <ele>33.7</ele>
        <time>2023-09-27T13:40:11Z</time>
      </trkpt>
      <trkpt lat="49.89274" lon="2.48646">
        <ele>33.7</ele>
        <time>2023-09-27T13:40:12Z</time>
      </trkpt>
      <trkpt lat="49.89275" lon="2.48648">
        <ele>33.7</ele>
        <time>2023-09-27T13:40:13Z</time>
      </trkpt>
      <trkpt lat="49.89275" lon="2.48649">
        <ele>33.7</ele>
        <time>2023-09-27T13:40:14Z</time>
      </trkpt>
      <trkpt lat="49.89276" lon="2.48651">
        <ele>33.7</ele>
        <time>2023-09-27T13:40:15Z</time>
      </trkpt>
      <trkpt lat="49.89277" lon="2.48652">
        <ele>33.7</ele>
        <time>2023-09-27T13:40:16Z</time>
      </trkpt>
      <trkpt lat="49.89277" lon="2.48653">
        <ele>33.8</ele>
        <time>2023-09-27T13:40:17Z</time>
      </trkpt>
      <trkpt lat="49.89278" lon="2.48655">
        <ele>33.8</ele>
        <time>2023-09-27T13:40:18Z</time>
      </trkpt>
      <trkpt lat="49.89278" lon="2.48656">
        <ele>33.8</ele>
        <time>2023-09-27T13:40:19Z</time>
      </trkpt>
      <trkpt lat="49.89279" lon="2.48657">
        <ele>33.8</ele>
        <time>2023-09-27T13:40:20Z</time>
      </trkpt>
      <trkpt lat="49.89279" lon="2.48658">
        <ele>33.8</ele>
        <time>2023-09-27T13:40:21Z</time>
      </trkpt>
      <trkpt lat="49.8928" lon="2.48659">
        <ele>33.8</ele>
        <time>2023-09-27T13:40:22Z</time>
      </trkpt>
      <trkpt lat="49.8928" lon="2.4866">
        <ele>33.8</ele>
        <time>2023-09-27T13:40:23Z</time>
      </trkpt>
      <trkpt lat="49.89281" lon="2.48661">
        <ele>33.8</ele>
        <time>2023-09-27T13:40:24Z</time>
      </trkpt>
      <trkpt lat="49.89281" lon="2.48662">
        <ele>33.8</ele>
        <time>2023-09-27T13:40:25Z</time>
      </trkpt>
      <trkpt lat="49.89281" lon="2.48663">
        <ele>33.8</ele>
        <time>2023-09-27T13:40:26Z</time>
      </trkpt>
      <trkpt lat="49.89281" lon="2.48664">
        <ele>33.8</ele>
        <time>2023-09-27T13:40:27Z</time>
      </trkpt>
      <trkpt lat="49.89282" lon="2.48665">
        <ele>33.8</ele>
        <time>2023-09-27T13:40:28Z</time>
      </trkpt>
      <trkpt lat="49.89282" lon="2.48666">
        <ele>33.8</ele>
        <time>2023-09-27T13:40:29Z</time>
      </trkpt>
      <trkpt lat="49.89282" lon="2.48667">
        <ele>33.8</ele>
        <time>2023-09-27T13:40:30Z</time>
      </trkpt>
      <trkpt lat="49.89282" lon="2.48668">
        <ele>33.8</ele>
        <time>2023-09-27T13:40:31Z</time>
      </trkpt>
      <trkpt lat="49.89283" lon="2.48669">
        <ele>33.8</ele>
        <time>2023-09-27T13:40:32Z</time>
      </trkpt>
      <trkpt lat="49.89283" lon="2.4867">
        <ele>33.8</ele>
        <time>2023-09-27T13:40:33Z</time>
      </trkpt>
      <trkpt lat="49.89283" lon="2.48671">
        <ele>33.8</ele>
        <time>2023-09-27T13:40:34Z</time>
      </trkpt>
      <trkpt lat="49.89284" lon="2.48672">
        <ele>33.8</ele>
        <time>2023-09-27T13:40:35Z</time>
      </trkpt>
      <trkpt lat="49.89284" lon="2.48673">
        <ele>33.8</ele>
        <time>2023-09-27T13:40:36Z</time>
      </trkpt>
      <trkpt lat="49.89284" lon="2.48674">
        <ele>33.8</ele>
        <time>2023-09-27T13:40:37Z</time>
      </trkpt>
      <trkpt lat="49.89285" lon="2.48674">
        <ele>33.8</ele>
        <time>2023-09-27T13:40:38Z</time>
      </trkpt>
      <trkpt lat="49.89285" lon="2.48675">
        <ele>33.8</ele>
        <time>2023-09-27T13:40:39Z</time>
      </trkpt>
      <trkpt lat="49.89286" lon="2.48675">
        <ele>33.8</ele>
        <time>2023-09-27T13:40:40Z</time>
      </trkpt>
      <trkpt lat="49.89286" lon="2.48675">
        <ele>33.8</ele>
        <time>2023-09-27T13:40:41Z</time>
      </trkpt>
      <trkpt lat="49.89287" lon="2.48675">
        <ele>33.8</ele>
        <time>2023-09-27T13:40:42Z</time>
      </trkpt>
      <trkpt lat="49.89287" lon="2.48675">
        <ele>33.8</ele>
        <time>2023-09-27T13:40:43Z</time>
      </trkpt>
      <trkpt lat="49.89287" lon="2.48675">
        <ele>33.8</ele>
        <time>2023-09-27T13:40:44Z</time>
      </trkpt>
      <trkpt lat="49.89287" lon="2.48675">
        <ele>33.8</ele>
        <time>2023-09-27T13:40:45Z</time>
      </trkpt>
      <trkpt lat="49.89288" lon="2.48675">
        <ele>33.8</ele>
        <time>2023-09-27T13:40:46Z</time>
      </trkpt>
      <trkpt lat="49.89288" lon="2.48675">
        <ele>33.8</ele>
        <time>2023-09-27T13:40:47Z</time>
      </trkpt>
      <trkpt lat="49.89287" lon="2.48675">
        <ele>33.8</ele>
        <time>2023-09-27T13:40:48Z</time>
      </trkpt>
      <trkpt lat="49.89287" lon="2.48675">
        <ele>33.8</ele>
        <time>2023-09-27T13:40:49Z</time>
      </trkpt>
      <trkpt lat="49.89287" lon="2.48675">
        <ele>33.8</ele>
        <time>2023-09-27T13:40:50Z</time>
      </trkpt>
      <trkpt lat="49.89286" lon="2.48675">
        <ele>33.8</ele>
        <time>2023-09-27T13:40:51Z</time>
      </trkpt>
      <trkpt lat="49.89286" lon="2.48674">
        <ele>33.8</ele>
        <time>2023-09-27T13:40:52Z</time>
      </trkpt>
      <trkpt lat="49.89285" lon="2.48674">
        <ele>33.8</ele>
        <time>2023-09-27T13:40:53Z</time>
      </trkpt>
      <trkpt lat="49.89285" lon="2.48674">
        <ele>33.8</ele>
        <time>2023-09-27T13:40:54Z</time>
      </trkpt>
      <trkpt lat="49.89285" lon="2.48674">
        <ele>33.8</ele>
        <time>2023-09-27T13:40:55Z</time>
      </trkpt>
      <trkpt lat="49.89285" lon="2.48674">
        <ele>33.8</ele>
        <time>2023-09-27T13:40:56Z</time>
      </trkpt>
      <trkpt lat="49.89285" lon="2.48674">
        <ele>33.8</ele>
        <time>2023-09-27T13:40:57Z</time>
      </trkpt>
      <trkpt lat="49.89285" lon="2.48675">
        <ele>33.8</ele>
        <time>2023-09-27T13:40:58Z</time>
      </trkpt>
      <trkpt lat="49.89285" lon="2.48675">
        <ele>33.8</ele>
        <time>2023-09-27T13:40:59Z</time>
      </trkpt>
      <trkpt lat="49.89284" lon="2.48675">
        <ele>33.8</ele>
        <time>2023-09-27T13:41:00Z</time>
      </trkpt>
      <trkpt lat="49.89284" lon="2.48675">
        <ele>33.8</ele>
        <time>2023-09-27T13:41:01Z</time>
      </trkpt>
      <trkpt lat="49.89284" lon="2.48675">
        <ele>33.8</ele>
        <time>2023-09-27T13:41:02Z</time>
      </trkpt>
      <trkpt lat="49.89284" lon="2.48675">
        <ele>33.8</ele>
        <time>2023-09-27T13:41:03Z</time>
      </trkpt>
      <trkpt lat="49.89284" lon="2.48675">
        <ele>33.8</ele>
        <time>2023-09-27T13:41:04Z</time>
      </trkpt>
      <trkpt lat="49.89284" lon="2.48675">
        <ele>33.8</ele>
        <time>2023-09-27T13:41:05Z</time>
      </trkpt>
      <trkpt lat="49.89284" lon="2.48675">
        <ele>33.8</ele>
        <time>2023-09-27T13:41:06Z</time>
      </trkpt>
      <trkpt lat="49.89284" lon="2.48674">
        <ele>33.8</ele>
        <time>2023-09-27T13:41:07Z</time>
      </trkpt>
      <trkpt lat="49.89284" lon="2.48673">
        <ele>33.8</ele>
        <time>2023-09-27T13:41:08Z</time>
      </trkpt>
      <trkpt lat="49.89284" lon="2.48672">
        <ele>33.8</ele>
        <time>2023-09-27T13:41:09Z</time>
      </trkpt>
      <trkpt lat="49.89283" lon="2.48671">
        <ele>33.8</ele>
        <time>2023-09-27T13:41:10Z</time>
      </trkpt>
      <trkpt lat="49.89283" lon="2.48669">
        <ele>33.8</ele>
        <time>2023-09-27T13:41:11Z</time>
      </trkpt>
      <trkpt lat="49.89283" lon="2.48667">
        <ele>33.8</ele>
        <time>2023-09-27T13:41:12Z</time>
      </trkpt>
      <trkpt lat="49.89283" lon="2.48666">
        <ele>33.8</ele>
        <time>2023-09-27T13:41:13Z</time>
      </trkpt>
      <trkpt lat="49.89284" lon="2.48664">
        <ele>33.8</ele>
        <time>2023-09-27T13:41:14Z</time>
      </trkpt>
      <trkpt lat="49.89284" lon="2.48664">
        <ele>33.8</ele>
        <time>2023-09-27T13:41:15Z</time>
      </trkpt>
      <trkpt lat="49.89284" lon="2.48664">
        <ele>33.8</ele>
        <time>2023-09-27T13:41:16Z</time>
      </trkpt>
      <trkpt lat="49.89285" lon="2.48663">
        <ele>33.8</ele>
        <time>2023-09-27T13:41:17Z</time>
      </trkpt>
      <trkpt lat="49.89285" lon="2.48663">
        <ele>33.8</ele>
        <time>2023-09-27T13:41:18Z</time>
      </trkpt>
      <trkpt lat="49.89285" lon="2.48663">
        <ele>33.8</ele>
        <time>2023-09-27T13:41:19Z</time>
      </trkpt>
      <trkpt lat="49.89285" lon="2.48663">
        <ele>33.8</ele>
        <time>2023-09-27T13:41:20Z</time>
      </trkpt>
      <trkpt lat="49.89285" lon="2.48663">
        <ele>33.8</ele>
        <time>2023-09-27T13:41:21Z</time>
      </trkpt>
      <trkpt lat="49.89285" lon="2.48663">
        <ele>33.8</ele>
        <time>2023-09-27T13:41:22Z</time>
      </trkpt>
      <trkpt lat="49.89285" lon="2.48663">
        <ele>33.8</ele>
        <time>2023-09-27T13:41:23Z</time>
      </trkpt>
      <trkpt lat="49.89285" lon="2.48663">
        <ele>33.8</ele>
        <time>2023-09-27T13:41:24Z</time>
      </trkpt>
      <trkpt lat="49.89285" lon="2.48663">
        <ele>33.8</ele>
        <time>2023-09-27T13:41:25Z</time>
      </trkpt>
      <trkpt lat="49.89285" lon="2.48663">
        <ele>33.8</ele>
        <time>2023-09-27T13:41:26Z</time>
      </trkpt>
      <trkpt lat="49.89285" lon="2.48663">
        <ele>33.8</ele>
        <time>2023-09-27T13:41:27Z</time>
      </trkpt>
      <trkpt lat="49.89285" lon="2.48663">
        <ele>33.8</ele>
        <time>2023-09-27T13:41:28Z</time>
      </trkpt>
      <trkpt lat="49.89285" lon="2.48663">
        <ele>33.8</ele>
        <time>2023-09-27T13:41:29Z</time>
      </trkpt>
      <trkpt lat="49.89285" lon="2.48663">
        <ele>33.8</ele>
        <time>2023-09-27T13:41:30Z</time>
      </trkpt>
      <trkpt lat="49.89285" lon="2.48663">
        <ele>33.8</ele>
        <time>2023-09-27T13:41:31Z</time>
      </trkpt>
      <trkpt lat="49.89285" lon="2.48663">
        <ele>33.8</ele>
        <time>2023-09-27T13:41:32Z</time>
      </trkpt>
      <trkpt lat="49.89285" lon="2.48663">
        <ele>33.8</ele>
        <time>2023-09-27T13:41:33Z</time>
      </trkpt>
      <trkpt lat="49.89285" lon="2.48663">
        <ele>33.8</ele>
        <time>2023-09-27T13:41:34Z</time>
      </trkpt>
      <trkpt lat="49.89285" lon="2.48663">
        <ele>33.8</ele>
        <time>2023-09-27T13:41:35Z</time>
      </trkpt>
      <trkpt lat="49.89285" lon="2.48663">
        <ele>33.8</ele>
        <time>2023-09-27T13:41:36Z</time>
      </trkpt>
      <trkpt lat="49.89285" lon="2.48663">
        <ele>33.8</ele>
        <time>2023-09-27T13:41:37Z</time>
      </trkpt>
      <trkpt lat="49.89285" lon="2.48663">
        <ele>33.8</ele>
        <time>2023-09-27T13:41:38Z</time>
      </trkpt>
      <trkpt lat="49.89285" lon="2.48663">
        <ele>33.8</ele>
        <time>2023-09-27T13:41:39Z</time>
      </trkpt>
      <trkpt lat="49.89285" lon="2.48663">
        <ele>33.8</ele>
        <time>2023-09-27T13:41:40Z</time>
      </trkpt>
      <trkpt lat="49.89285" lon="2.48663">
        <ele>33.8</ele>
        <time>2023-09-27T13:41:41Z</time>
      </trkpt>
      <trkpt lat="49.89285" lon="2.48663">
        <ele>33.8</ele>
        <time>2023-09-27T13:41:42Z</time>
      </trkpt>
      <trkpt lat="49.89285" lon="2.48663">
        <ele>33.8</ele>
        <time>2023-09-27T13:41:43Z</time>
      </trkpt>
      <trkpt lat="49.89285" lon="2.48663">
        <ele>33.8</ele>
        <time>2023-09-27T13:41:44Z</time>
      </trkpt>
      <trkpt lat="49.89285" lon="2.48663">
        <ele>33.8</ele>
        <time>2023-09-27T13:41:45Z</time>
      </trkpt>
      <trkpt lat="49.89285" lon="2.48663">
        <ele>33.8</ele>
        <time>2023-09-27T13:41:46Z</time>
      </trkpt>
      <trkpt lat="49.89285" lon="2.48663">
        <ele>33.8</ele>
        <time>2023-09-27T13:41:47Z</time>
      </trkpt>
      <trkpt lat="49.89285" lon="2.48663">
        <ele>33.8</ele>
        <time>2023-09-27T13:41:48Z</time>
      </trkpt>
      <trkpt lat="49.89285" lon="2.48663">
        <ele>33.8</ele>
        <time>2023-09-27T13:41:49Z</time>
      </trkpt>
      <trkpt lat="49.89285" lon="2.48663">
        <ele>33.8</ele>
        <time>2023-09-27T13:41:50Z</time>
      </trkpt>
      <trkpt lat="49.89285" lon="2.48663">
        <ele>33.8</ele>
        <time>2023-09-27T13:41:51Z</time>
      </trkpt>
      <trkpt lat="49.89285" lon="2.48663">
        <ele>33.8</ele>
        <time>2023-09-27T13:41:52Z</time>
      </trkpt>
      <trkpt lat="49.89285" lon="2.48663">
        <ele>33.8</ele>
        <time>2023-09-27T13:41:53Z</time>
      </trkpt>
      <trkpt lat="49.89285" lon="2.48663">
        <ele>33.8</ele>
        <time>2023-09-27T13:41:54Z</time>
      </trkpt>
      <trkpt lat="49.89285" lon="2.48663">
        <ele>33.8</ele>
        <time>2023-09-27T13:41:55Z</time>
      </trkpt>
      <trkpt lat="49.89285" lon="2.48663">
        <ele>33.8</ele>
        <time>2023-09-27T13:41:56Z</time>
      </trkpt>
      <trkpt lat="49.89285" lon="2.48663">
        <ele>33.8</ele>
        <time>2023-09-27T13:41:57Z</time>
      </trkpt>
      <trkpt lat="49.89285" lon="2.48663">
        <ele>33.8</ele>
        <time>2023-09-27T13:41:58Z</time>
      </trkpt>
      <trkpt lat="49.89285" lon="2.48663">
        <ele>33.8</ele>
        <time>2023-09-27T13:41:59Z</time>
      </trkpt>
      <trkpt lat="49.89285" lon="2.48663">
        <ele>33.8</ele>
        <time>2023-09-27T13:42:00Z</time>
      </trkpt>
      <trkpt lat="49.89285" lon="2.48663">
        <ele>33.8</ele>
        <time>2023-09-27T13:42:01Z</time>
      </trkpt>
      <trkpt lat="49.89285" lon="2.48663">
        <ele>33.8</ele>
        <time>2023-09-27T13:42:02Z</time>
      </trkpt>
      <trkpt lat="49.89285" lon="2.48663">
        <ele>33.8</ele>
        <time>2023-09-27T13:42:03Z</time>
      </trkpt>
      <trkpt lat="49.89285" lon="2.48663">
        <ele>33.8</ele>
        <time>2023-09-27T13:42:04Z</time>
      </trkpt>
      <trkpt lat="49.89285" lon="2.48663">
        <ele>33.8</ele>
        <time>2023-09-27T13:42:05Z</time>
      </trkpt>
      <trkpt lat="49.89285" lon="2.48663">
        <ele>33.8</ele>
        <time>2023-09-27T13:42:06Z</time>
      </trkpt>
      <trkpt lat="49.89285" lon="2.48663">
        <ele>33.8</ele>
        <time>2023-09-27T13:42:07Z</time>
      </trkpt>
      <trkpt lat="49.89285" lon="2.48663">
        <ele>33.8</ele>
        <time>2023-09-27T13:42:08Z</time>
      </trkpt>
      <trkpt lat="49.89285" lon="2.48663">
        <ele>33.8</ele>
        <time>2023-09-27T13:42:09Z</time>
      </trkpt>
      <trkpt lat="49.89285" lon="2.48663">
        <ele>33.8</ele>
        <time>2023-09-27T13:42:10Z</time>
      </trkpt>
      <trkpt lat="49.89285" lon="2.48663">
        <ele>33.8</ele>
        <time>2023-09-27T13:42:11Z</time>
      </trkpt>
      <trkpt lat="49.89285" lon="2.48663">
        <ele>33.8</ele>
        <time>2023-09-27T13:42:12Z</time>
      </trkpt>
      <trkpt lat="49.89285" lon="2.48663">
        <ele>33.8</ele>
        <time>2023-09-27T13:42:13Z</time>
      </trkpt>
      <trkpt lat="49.89285" lon="2.48663">
        <ele>33.8</ele>
        <time>2023-09-27T13:42:14Z</time>
      </trkpt>
      <trkpt lat="49.89285" lon="2.48663">
        <ele>33.8</ele>
        <time>2023-09-27T13:42:15Z</time>
      </trkpt>
      <trkpt lat="49.89285" lon="2.48663">
        <ele>33.8</ele>
        <time>2023-09-27T13:42:16Z</time>
      </trkpt>
      <trkpt lat="49.89285" lon="2.48663">
        <ele>33.8</ele>
        <time>2023-09-27T13:42:17Z</time>
      </trkpt>
      <trkpt lat="49.89285" lon="2.48663">
        <ele>33.8</ele>
        <time>2023-09-27T13:42:18Z</time>
      </trkpt>
      <trkpt lat="49.89285" lon="2.48663">
        <ele>33.8</ele>
        <time>2023-09-27T13:42:19Z</time>
      </trkpt>
      <trkpt lat="49.89285" lon="2.48663">
        <ele>33.8</ele>
        <time>2023-09-27T13:42:20Z</time>
      </trkpt>
      <trkpt lat="49.89285" lon="2.48663">
        <ele>33.8</ele>
        <time>2023-09-27T13:42:21Z</time>
      </trkpt>
      <trkpt lat="49.89285" lon="2.48663">
        <ele>33.8</ele>
        <time>2023-09-27T13:42:22Z</time>
      </trkpt>
      <trkpt lat="49.89285" lon="2.48663">
        <ele>33.8</ele>
        <time>2023-09-27T13:42:23Z</time>
      </trkpt>
      <trkpt lat="49.89285" lon="2.48663">
        <ele>33.8</ele>
        <time>2023-09-27T13:42:24Z</time>
      </trkpt>
      <trkpt lat="49.89285" lon="2.48663">
        <ele>33.8</ele>
        <time>2023-09-27T13:42:25Z</time>
      </trkpt>
      <trkpt lat="49.89285" lon="2.48663">
        <ele>33.8</ele>
        <time>2023-09-27T13:42:26Z</time>
      </trkpt>
      <trkpt lat="49.89285" lon="2.48663">
        <ele>33.8</ele>
        <time>2023-09-27T13:42:27Z</time>
      </trkpt>
      <trkpt lat="49.89285" lon="2.48663">
        <ele>33.8</ele>
        <time>2023-09-27T13:42:28Z</time>
      </trkpt>
      <trkpt lat="49.89285" lon="2.48663">
        <ele>33.8</ele>
        <time>2023-09-27T13:42:29Z</time>
      </trkpt>
      <trkpt lat="49.89285" lon="2.48663">
        <ele>33.8</ele>
        <time>2023-09-27T13:42:30Z</time>
      </trkpt>
      <trkpt lat="49.89285" lon="2.48663">
        <ele>33.8</ele>
        <time>2023-09-27T13:42:31Z</time>
      </trkpt>
      <trkpt lat="49.89285" lon="2.48663">
        <ele>33.8</ele>
        <time>2023-09-27T13:42:32Z</time>
      </trkpt>
      <trkpt lat="49.89285" lon="2.48663">
        <ele>33.8</ele>
        <time>2023-09-27T13:42:33Z</time>
      </trkpt>
      <trkpt lat="49.89285" lon="2.48663">
        <ele>33.8</ele>
        <time>2023-09-27T13:42:34Z</time>
      </trkpt>
      <trkpt lat="49.89285" lon="2.48663">
        <ele>33.8</ele>
        <time>2023-09-27T13:42:35Z</time>
      </trkpt>
      <trkpt lat="49.89285" lon="2.48663">
        <ele>33.8</ele>
        <time>2023-09-27T13:42:36Z</time>
      </trkpt>
      <trkpt lat="49.89285" lon="2.48663">
        <ele>33.8</ele>
        <time>2023-09-27T13:42:37Z</time>
      </trkpt>
      <trkpt lat="49.89285" lon="2.48663">
        <ele>33.8</ele>
        <time>2023-09-27T13:42:38Z</time>
      </trkpt>
      <trkpt lat="49.89285" lon="2.48663">
        <ele>33.8</ele>
        <time>2023-09-27T13:42:39Z</time>
      </trkpt>
      <trkpt lat="49.89285" lon="2.48663">
        <ele>33.8</ele>
        <time>2023-09-27T13:42:40Z</time>
      </trkpt>
      <trkpt lat="49.89285" lon="2.48663">
        <ele>33.8</ele>
        <time>2023-09-27T13:42:41Z</time>
      </trkpt>
      <trkpt lat="49.89285" lon="2.48663">
        <ele>33.8</ele>
        <time>2023-09-27T13:42:42Z</time>
      </trkpt>
      <trkpt lat="49.89285" lon="2.48663">
        <ele>33.8</ele>
        <time>2023-09-27T13:42:43Z</time>
      </trkpt>
      <trkpt lat="49.89285" lon="2.48663">
        <ele>33.8</ele>
        <time>2023-09-27T13:42:44Z</time>
      </trkpt>
      <trkpt lat="49.89285" lon="2.48663">
        <ele>33.8</ele>
        <time>2023-09-27T13:42:45Z</time>
      </trkpt>
      <trkpt lat="49.89285" lon="2.48663">
        <ele>33.8</ele>
        <time>2023-09-27T13:42:46Z</time>
      </trkpt>
      <trkpt lat="49.89285" lon="2.48663">
        <ele>33.8</ele>
        <time>2023-09-27T13:42:47Z</time>
      </trkpt>
      <trkpt lat="49.89285" lon="2.48663">
        <ele>33.8</ele>
        <time>2023-09-27T13:42:48Z</time>
      </trkpt>
      <trkpt lat="49.89285" lon="2.48663">
        <ele>33.8</ele>
        <time>2023-09-27T13:42:49Z</time>
      </trkpt>
      <trkpt lat="49.89285" lon="2.48663">
        <ele>33.8</ele>
        <time>2023-09-27T13:42:50Z</time>
      </trkpt>
      <trkpt lat="49.89285" lon="2.48663">
        <ele>33.8</ele>
        <time>2023-09-27T13:42:51Z</time>
      </trkpt>
      <trkpt lat="49.89285" lon="2.48663">
        <ele>33.8</ele>
        <time>2023-09-27T13:42:52Z</time>
      </trkpt>
      <trkpt lat="49.89285" lon="2.48663">
        <ele>33.8</ele>
        <time>2023-09-27T13:42:53Z</time>
      </trkpt>
      <trkpt lat="49.89285" lon="2.48663">
        <ele>33.8</ele>
        <time>2023-09-27T13:42:54Z</time>
      </trkpt>
      <trkpt lat="49.89285" lon="2.48663">
        <ele>33.8</ele>
        <time>2023-09-27T13:42:55Z</time>
      </trkpt>
      <trkpt lat="49.89285" lon="2.48663">
        <ele>33.8</ele>
        <time>2023-09-27T13:42:56Z</time>
      </trkpt>
      <trkpt lat="49.89285" lon="2.48663">
        <ele>33.8</ele>
        <time>2023-09-27T13:42:57Z</time>
      </trkpt>
      <trkpt lat="49.89285" lon="2.48663">
        <ele>33.8</ele>
        <time>2023-09-27T13:42:58Z</time>
      </trkpt>
      <trkpt lat="49.89285" lon="2.48663">
        <ele>33.8</ele>
        <time>2023-09-27T13:42:59Z</time>
      </trkpt>
      <trkpt lat="49.89285" lon="2.48663">
        <ele>33.8</ele>
        <time>2023-09-27T13:43:00Z</time>
      </trkpt>
      <trkpt lat="49.89285" lon="2.48663">
        <ele>33.8</ele>
        <time>2023-09-27T13:43:01Z</time>
      </trkpt>
      <trkpt lat="49.89285" lon="2.48663">
        <ele>33.8</ele>
        <time>2023-09-27T13:43:02Z</time>
      </trkpt>
      <trkpt lat="49.89285" lon="2.48663">
        <ele>33.8</ele>
        <time>2023-09-27T13:43:03Z</time>
      </trkpt>
      <trkpt lat="49.89285" lon="2.48663">
        <ele>33.8</ele>
        <time>2023-09-27T13:43:04Z</time>
      </trkpt>
      <trkpt lat="49.89285" lon="2.48663">
        <ele>33.8</ele>
        <time>2023-09-27T13:43:05Z</time>
      </trkpt>
      <trkpt lat="49.89285" lon="2.48663">
        <ele>33.8</ele>
        <time>2023-09-27T13:43:06Z</time>
      </trkpt>
      <trkpt lat="49.89285" lon="2.48663">
        <ele>33.8</ele>
        <time>2023-09-27T13:43:07Z</time>
      </trkpt>
      <trkpt lat="49.89285" lon="2.48663">
        <ele>33.8</ele>
        <time>2023-09-27T13:43:08Z</time>
      </trkpt>
      <trkpt lat="49.89285" lon="2.48663">
        <ele>33.8</ele>
        <time>2023-09-27T13:43:09Z</time>
      </trkpt>
      <trkpt lat="49.89285" lon="2.48663">
        <ele>33.8</ele>
        <time>2023-09-27T13:43:10Z</time>
      </trkpt>
      <trkpt lat="49.89285" lon="2.48663">
        <ele>33.8</ele>
        <time>2023-09-27T13:43:11Z</time>
      </trkpt>
      <trkpt lat="49.89285" lon="2.48663">
        <ele>33.8</ele>
        <time>2023-09-27T13:43:12Z</time>
      </trkpt>
      <trkpt lat="49.89285" lon="2.48663">
        <ele>33.8</ele>
        <time>2023-09-27T13:43:13Z</time>
      </trkpt>
      <trkpt lat="49.89285" lon="2.48663">
        <ele>33.8</ele>
        <time>2023-09-27T13:43:14Z</time>
      </trkpt>
      <trkpt lat="49.89285" lon="2.48663">
        <ele>33.8</ele>
        <time>2023-09-27T13:43:15Z</time>
      </trkpt>
      <trkpt lat="49.89285" lon="2.48663">
        <ele>33.8</ele>
        <time>2023-09-27T13:43:16Z</time>
      </trkpt>
      <trkpt lat="49.89285" lon="2.48663">
        <ele>33.8</ele>
        <time>2023-09-27T13:43:17Z</time>
      </trkpt>
      <trkpt lat="49.89285" lon="2.48663">
        <ele>33.8</ele>
        <time>2023-09-27T13:43:18Z</time>
      </trkpt>
      <trkpt lat="49.89285" lon="2.48663">
        <ele>33.8</ele>
        <time>2023-09-27T13:43:19Z</time>
      </trkpt>
      <trkpt lat="49.89285" lon="2.48663">
        <ele>33.8</ele>
        <time>2023-09-27T13:43:20Z</time>
      </trkpt>
      <trkpt lat="49.89285" lon="2.48663">
        <ele>33.8</ele>
        <time>2023-09-27T13:43:21Z</time>
      </trkpt>
      <trkpt lat="49.89285" lon="2.48663">
        <ele>33.8</ele>
        <time>2023-09-27T13:43:22Z</time>
      </trkpt>
      <trkpt lat="49.89285" lon="2.48663">
        <ele>33.8</ele>
        <time>2023-09-27T13:43:23Z</time>
      </trkpt>
      <trkpt lat="49.89285" lon="2.48663">
        <ele>33.8</ele>
        <time>2023-09-27T13:43:24Z</time>
      </trkpt>
      <trkpt lat="49.89285" lon="2.48663">
        <ele>33.8</ele>
        <time>2023-09-27T13:43:25Z</time>
      </trkpt>
      <trkpt lat="49.89285" lon="2.48663">
        <ele>33.8</ele>
        <time>2023-09-27T13:43:26Z</time>
      </trkpt>
      <trkpt lat="49.89285" lon="2.48663">
        <ele>33.8</ele>
        <time>2023-09-27T13:43:27Z</time>
      </trkpt>
      <trkpt lat="49.89285" lon="2.48663">
        <ele>33.8</ele>
        <time>2023-09-27T13:43:28Z</time>
      </trkpt>
      <trkpt lat="49.89285" lon="2.48663">
        <ele>33.8</ele>
        <time>2023-09-27T13:43:29Z</time>
      </trkpt>
      <trkpt lat="49.89285" lon="2.48663">
        <ele>33.8</ele>
        <time>2023-09-27T13:43:30Z</time>
      </trkpt>
      <trkpt lat="49.89285" lon="2.48663">
        <ele>33.8</ele>
        <time>2023-09-27T13:43:31Z</time>
      </trkpt>
      <trkpt lat="49.89285" lon="2.48663">
        <ele>33.8</ele>
        <time>2023-09-27T13:43:32Z</time>
      </trkpt>
      <trkpt lat="49.89285" lon="2.48663">
        <ele>33.8</ele>
        <time>2023-09-27T13:43:33Z</time>
      </trkpt>
      <trkpt lat="49.89285" lon="2.48663">
        <ele>33.8</ele>
        <time>2023-09-27T13:43:34Z</time>
      </trkpt>
      <trkpt lat="49.89285" lon="2.48663">
        <ele>33.8</ele>
        <time>2023-09-27T13:43:35Z</time>
      </trkpt>
      <trkpt lat="49.89285" lon="2.48663">
        <ele>33.8</ele>
        <time>2023-09-27T13:43:36Z</time>
      </trkpt>
      <trkpt lat="49.89285" lon="2.48663">
        <ele>33.8</ele>
        <time>2023-09-27T13:43:37Z</time>
      </trkpt>
      <trkpt lat="49.89285" lon="2.48663">
        <ele>33.8</ele>
        <time>2023-09-27T13:43:38Z</time>
      </trkpt>
      <trkpt lat="49.89285" lon="2.48663">
        <ele>33.8</ele>
        <time>2023-09-27T13:43:39Z</time>
      </trkpt>
      <trkpt lat="49.89285" lon="2.48663">
        <ele>33.8</ele>
        <time>2023-09-27T13:43:40Z</time>
      </trkpt>
      <trkpt lat="49.89285" lon="2.48663">
        <ele>33.8</ele>
        <time>2023-09-27T13:43:41Z</time>
      </trkpt>
      <trkpt lat="49.89285" lon="2.48663">
        <ele>33.8</ele>
        <time>2023-09-27T13:43:42Z</time>
      </trkpt>
      <trkpt lat="49.89285" lon="2.48663">
        <ele>33.8</ele>
        <time>2023-09-27T13:43:43Z</time>
      </trkpt>
      <trkpt lat="49.89285" lon="2.48663">
        <ele>33.8</ele>
        <time>2023-09-27T13:43:44Z</time>
      </trkpt>
      <trkpt lat="49.89285" lon="2.48663">
        <ele>33.8</ele>
        <time>2023-09-27T13:43:45Z</time>
      </trkpt>
      <trkpt lat="49.89285" lon="2.48663">
        <ele>33.8</ele>
        <time>2023-09-27T13:43:46Z</time>
      </trkpt>
      <trkpt lat="49.89285" lon="2.48663">
        <ele>33.8</ele>
        <time>2023-09-27T13:43:47Z</time>
      </trkpt>
      <trkpt lat="49.89285" lon="2.48663">
        <ele>33.8</ele>
        <time>2023-09-27T13:43:48Z</time>
      </trkpt>
      <trkpt lat="49.89285" lon="2.48663">
        <ele>33.8</ele>
        <time>2023-09-27T13:43:49Z</time>
      </trkpt>
      <trkpt lat="49.89285" lon="2.48663">
        <ele>33.8</ele>
        <time>2023-09-27T13:43:50Z</time>
      </trkpt>
      <trkpt lat="49.89285" lon="2.48663">
        <ele>33.8</ele>
        <time>2023-09-27T13:43:51Z</time>
      </trkpt>
      <trkpt lat="49.89285" lon="2.48663">
        <ele>33.8</ele>
        <time>2023-09-27T13:43:52Z</time>
      </trkpt>
      <trkpt lat="49.89285" lon="2.48663">
        <ele>33.8</ele>
        <time>2023-09-27T13:43:53Z</time>
      </trkpt>
      <trkpt lat="49.89285" lon="2.48663">
        <ele>33.8</ele>
        <time>2023-09-27T13:43:54Z</time>
      </trkpt>
      <trkpt lat="49.89285" lon="2.48663">
        <ele>33.8</ele>
        <time>2023-09-27T13:43:55Z</time>
      </trkpt>
      <trkpt lat="49.89285" lon="2.48663">
        <ele>33.8</ele>
        <time>2023-09-27T13:43:56Z</time>
      </trkpt>
      <trkpt lat="49.89285" lon="2.48663">
        <ele>33.8</ele>
        <time>2023-09-27T13:43:57Z</time>
      </trkpt>
      <trkpt lat="49.89285" lon="2.48663">
        <ele>33.8</ele>
        <time>2023-09-27T13:43:58Z</time>
      </trkpt>
      <trkpt lat="49.89285" lon="2.48663">
        <ele>33.8</ele>
        <time>2023-09-27T13:43:59Z</time>
      </trkpt>
      <trkpt lat="49.89285" lon="2.48663">
        <ele>33.8</ele>
        <time>2023-09-27T13:44:00Z</time>
      </trkpt>
      <trkpt lat="49.89285" lon="2.48663">
        <ele>33.8</ele>
        <time>2023-09-27T13:44:01Z</time>
      </trkpt>
      <trkpt lat="49.89285" lon="2.48663">
        <ele>33.8</ele>
        <time>2023-09-27T13:44:02Z</time>
      </trkpt>
      <trkpt lat="49.89285" lon="2.48663">
        <ele>33.8</ele>
        <time>2023-09-27T13:44:03Z</time>
      </trkpt>
      <trkpt lat="49.89285" lon="2.48663">
        <ele>33.8</ele>
        <time>2023-09-27T13:44:04Z</time>
      </trkpt>
      <trkpt lat="49.89285" lon="2.48663">
        <ele>33.8</ele>
        <time>2023-09-27T13:44:05Z</time>
      </trkpt>
      <trkpt lat="49.89285" lon="2.48667">
        <ele>33.8</ele>
        <time>2023-09-27T13:44:06Z</time>
      </trkpt>
      <trkpt lat="49.89285" lon="2.48669">
        <ele>33.8</ele>
        <time>2023-09-27T13:44:07Z</time>
      </trkpt>
      <trkpt lat="49.89285" lon="2.4867">
        <ele>33.8</ele>
        <time>2023-09-27T13:44:08Z</time>
      </trkpt>
      <trkpt lat="49.89286" lon="2.48671">
        <ele>33.8</ele>
        <time>2023-09-27T13:44:09Z</time>
      </trkpt>
      <trkpt lat="49.89286" lon="2.48672">
        <ele>33.8</ele>
        <time>2023-09-27T13:44:10Z</time>
      </trkpt>
      <trkpt lat="49.89287" lon="2.48673">
        <ele>33.8</ele>
        <time>2023-09-27T13:44:11Z</time>
      </trkpt>
      <trkpt lat="49.89288" lon="2.48674">
        <ele>33.8</ele>
        <time>2023-09-27T13:44:12Z</time>
      </trkpt>
      <trkpt lat="49.89288" lon="2.48675">
        <ele>33.8</ele>
        <time>2023-09-27T13:44:13Z</time>
      </trkpt>
      <trkpt lat="49.89289" lon="2.48676">
        <ele>33.8</ele>
        <time>2023-09-27T13:44:14Z</time>
      </trkpt>
      <trkpt lat="49.89291" lon="2.48678">
        <ele>33.8</ele>
        <time>2023-09-27T13:44:15Z</time>
      </trkpt>
      <trkpt lat="49.89292" lon="2.48678">
        <ele>33.8</ele>
        <time>2023-09-27T13:44:16Z</time>
      </trkpt>
      <trkpt lat="49.89293" lon="2.48679">
        <ele>33.8</ele>
        <time>2023-09-27T13:44:17Z</time>
      </trkpt>
      <trkpt lat="49.89294" lon="2.4868">
        <ele>33.8</ele>
        <time>2023-09-27T13:44:18Z</time>
      </trkpt>
      <trkpt lat="49.89295" lon="2.4868">
        <ele>33.8</ele>
        <time>2023-09-27T13:44:19Z</time>
      </trkpt>
      <trkpt lat="49.89296" lon="2.4868">
        <ele>33.8</ele>
        <time>2023-09-27T13:44:20Z</time>
      </trkpt>
      <trkpt lat="49.89297" lon="2.4868">
        <ele>33.8</ele>
        <time>2023-09-27T13:44:21Z</time>
      </trkpt>
      <trkpt lat="49.89298" lon="2.4868">
        <ele>33.8</ele>
        <time>2023-09-27T13:44:22Z</time>
      </trkpt>
      <trkpt lat="49.89299" lon="2.48679">
        <ele>33.8</ele>
        <time>2023-09-27T13:44:23Z</time>
      </trkpt>
      <trkpt lat="49.893" lon="2.48679">
        <ele>33.8</ele>
        <time>2023-09-27T13:44:24Z</time>
      </trkpt>
      <trkpt lat="49.89301" lon="2.48678">
        <ele>33.8</ele>
        <time>2023-09-27T13:44:25Z</time>
      </trkpt>
      <trkpt lat="49.89302" lon="2.48677">
        <ele>33.8</ele>
        <time>2023-09-27T13:44:26Z</time>
      </trkpt>
      <trkpt lat="49.89303" lon="2.48677">
        <ele>33.8</ele>
        <time>2023-09-27T13:44:27Z</time>
      </trkpt>
      <trkpt lat="49.89303" lon="2.48677">
        <ele>33.8</ele>
        <time>2023-09-27T13:44:28Z</time>
      </trkpt>
      <trkpt lat="49.89304" lon="2.48677">
        <ele>33.8</ele>
        <time>2023-09-27T13:44:29Z</time>
      </trkpt>
      <trkpt lat="49.89305" lon="2.48677">
        <ele>33.8</ele>
        <time>2023-09-27T13:44:30Z</time>
      </trkpt>
      <trkpt lat="49.89306" lon="2.48677">
        <ele>33.8</ele>
        <time>2023-09-27T13:44:31Z</time>
      </trkpt>
      <trkpt lat="49.89307" lon="2.48676">
        <ele>33.8</ele>
        <time>2023-09-27T13:44:32Z</time>
      </trkpt>
      <trkpt lat="49.89309" lon="2.48676">
        <ele>33.8</ele>
        <time>2023-09-27T13:44:33Z</time>
      </trkpt>
      <trkpt lat="49.8931" lon="2.48676">
        <ele>33.8</ele>
        <time>2023-09-27T13:44:34Z</time>
      </trkpt>
      <trkpt lat="49.89311" lon="2.48676">
        <ele>33.8</ele>
        <time>2023-09-27T13:44:35Z</time>
      </trkpt>
      <trkpt lat="49.89312" lon="2.48676">
        <ele>33.8</ele>
        <time>2023-09-27T13:44:36Z</time>
      </trkpt>
      <trkpt lat="49.89312" lon="2.48675">
        <ele>33.8</ele>
        <time>2023-09-27T13:44:37Z</time>
      </trkpt>
      <trkpt lat="49.89313" lon="2.48675">
        <ele>33.8</ele>
        <time>2023-09-27T13:44:38Z</time>
      </trkpt>
      <trkpt lat="49.89314" lon="2.48675">
        <ele>33.8</ele>
        <time>2023-09-27T13:44:39Z</time>
      </trkpt>
      <trkpt lat="49.89315" lon="2.48675">
        <ele>33.8</ele>
        <time>2023-09-27T13:44:40Z</time>
      </trkpt>
      <trkpt lat="49.89316" lon="2.48675">
        <ele>33.8</ele>
        <time>2023-09-27T13:44:41Z</time>
      </trkpt>
      <trkpt lat="49.89317" lon="2.48675">
        <ele>33.8</ele>
        <time>2023-09-27T13:44:42Z</time>
      </trkpt>
      <trkpt lat="49.89318" lon="2.48674">
        <ele>33.8</ele>
        <time>2023-09-27T13:44:43Z</time>
      </trkpt>
      <trkpt lat="49.89319" lon="2.48674">
        <ele>33.8</ele>
        <time>2023-09-27T13:44:44Z</time>
      </trkpt>
      <trkpt lat="49.8932" lon="2.48674">
        <ele>33.8</ele>
        <time>2023-09-27T13:44:45Z</time>
      </trkpt>
      <trkpt lat="49.8932" lon="2.48674">
        <ele>33.8</ele>
        <time>2023-09-27T13:44:46Z</time>
      </trkpt>
      <trkpt lat="49.89321" lon="2.48674">
        <ele>33.8</ele>
        <time>2023-09-27T13:44:47Z</time>
      </trkpt>
      <trkpt lat="49.89322" lon="2.48674">
        <ele>33.8</ele>
        <time>2023-09-27T13:44:48Z</time>
      </trkpt>
      <trkpt lat="49.89324" lon="2.48674">
        <ele>33.8</ele>
        <time>2023-09-27T13:44:49Z</time>
      </trkpt>
      <trkpt lat="49.89325" lon="2.48673">
        <ele>33.8</ele>
        <time>2023-09-27T13:44:50Z</time>
      </trkpt>
      <trkpt lat="49.89326" lon="2.48673">
        <ele>33.8</ele>
        <time>2023-09-27T13:44:51Z</time>
      </trkpt>
      <trkpt lat="49.89327" lon="2.48673">
        <ele>33.8</ele>
        <time>2023-09-27T13:44:52Z</time>
      </trkpt>
      <trkpt lat="49.89327" lon="2.48673">
        <ele>33.8</ele>
        <time>2023-09-27T13:44:53Z</time>
      </trkpt>
      <trkpt lat="49.89328" lon="2.48673">
        <ele>33.8</ele>
        <time>2023-09-27T13:44:54Z</time>
      </trkpt>
      <trkpt lat="49.89329" lon="2.48673">
        <ele>33.8</ele>
        <time>2023-09-27T13:44:55Z</time>
      </trkpt>
      <trkpt lat="49.8933" lon="2.48673">
        <ele>33.8</ele>
        <time>2023-09-27T13:44:56Z</time>
      </trkpt>
      <trkpt lat="49.89331" lon="2.48673">
        <ele>33.8</ele>
        <time>2023-09-27T13:44:57Z</time>
      </trkpt>
      <trkpt lat="49.89333" lon="2.48673">
        <ele>33.8</ele>
        <time>2023-09-27T13:44:58Z</time>
      </trkpt>
      <trkpt lat="49.89334" lon="2.48673">
        <ele>33.8</ele>
        <time>2023-09-27T13:44:59Z</time>
      </trkpt>
      <trkpt lat="49.89335" lon="2.48673">
        <ele>33.8</ele>
        <time>2023-09-27T13:45:00Z</time>
      </trkpt>
      <trkpt lat="49.89336" lon="2.48673">
        <ele>33.8</ele>
        <time>2023-09-27T13:45:01Z</time>
      </trkpt>
      <trkpt lat="49.89337" lon="2.48673">
        <ele>33.8</ele>
        <time>2023-09-27T13:45:02Z</time>
      </trkpt>
      <trkpt lat="49.89338" lon="2.48673">
        <ele>33.8</ele>
        <time>2023-09-27T13:45:03Z</time>
      </trkpt>
      <trkpt lat="49.89339" lon="2.48673">
        <ele>33.8</ele>
        <time>2023-09-27T13:45:04Z</time>
      </trkpt>
      <trkpt lat="49.8934" lon="2.48673">
        <ele>33.8</ele>
        <time>2023-09-27T13:45:05Z</time>
      </trkpt>
      <trkpt lat="49.89342" lon="2.48673">
        <ele>33.8</ele>
        <time>2023-09-27T13:45:06Z</time>
      </trkpt>
      <trkpt lat="49.89343" lon="2.48673">
        <ele>33.8</ele>
        <time>2023-09-27T13:45:07Z</time>
      </trkpt>
      <trkpt lat="49.89344" lon="2.48673">
        <ele>33.8</ele>
        <time>2023-09-27T13:45:08Z</time>
      </trkpt>
      <trkpt lat="49.89345" lon="2.48673">
        <ele>33.8</ele>
        <time>2023-09-27T13:45:09Z</time>
      </trkpt>
      <trkpt lat="49.89346" lon="2.48673">
        <ele>33.8</ele>
        <time>2023-09-27T13:45:10Z</time>
      </trkpt>
      <trkpt lat="49.89347" lon="2.48673">
        <ele>33.8</ele>
        <time>2023-09-27T13:45:11Z</time>
      </trkpt>
      <trkpt lat="49.89349" lon="2.48672">
        <ele>33.8</ele>
        <time>2023-09-27T13:45:12Z</time>
      </trkpt>
      <trkpt lat="49.8935" lon="2.48672">
        <ele>33.8</ele>
        <time>2023-09-27T13:45:13Z</time>
      </trkpt>
      <trkpt lat="49.89351" lon="2.48672">
        <ele>33.8</ele>
        <time>2023-09-27T13:45:14Z</time>
      </trkpt>
      <trkpt lat="49.89352" lon="2.48672">
        <ele>33.9</ele>
        <time>2023-09-27T13:45:15Z</time>
      </trkpt>
      <trkpt lat="49.89353" lon="2.48672">
        <ele>33.9</ele>
        <time>2023-09-27T13:45:16Z</time>
      </trkpt>
      <trkpt lat="49.89355" lon="2.48671">
        <ele>33.9</ele>
        <time>2023-09-27T13:45:17Z</time>
      </trkpt>
      <trkpt lat="49.89356" lon="2.48671">
        <ele>33.9</ele>
        <time>2023-09-27T13:45:18Z</time>
      </trkpt>
      <trkpt lat="49.89358" lon="2.48671">
        <ele>33.9</ele>
        <time>2023-09-27T13:45:19Z</time>
      </trkpt>
      <trkpt lat="49.89359" lon="2.48671">
        <ele>33.9</ele>
        <time>2023-09-27T13:45:20Z</time>
      </trkpt>
      <trkpt lat="49.8936" lon="2.48671">
        <ele>33.9</ele>
        <time>2023-09-27T13:45:21Z</time>
      </trkpt>
      <trkpt lat="49.89361" lon="2.48671">
        <ele>34</ele>
        <time>2023-09-27T13:45:22Z</time>
      </trkpt>
      <trkpt lat="49.89362" lon="2.48671">
        <ele>34</ele>
        <time>2023-09-27T13:45:23Z</time>
      </trkpt>
      <trkpt lat="49.89363" lon="2.48671">
        <ele>34</ele>
        <time>2023-09-27T13:45:24Z</time>
      </trkpt>
      <trkpt lat="49.89365" lon="2.4867">
        <ele>34</ele>
        <time>2023-09-27T13:45:25Z</time>
      </trkpt>
      <trkpt lat="49.89366" lon="2.4867">
        <ele>34</ele>
        <time>2023-09-27T13:45:26Z</time>
      </trkpt>
      <trkpt lat="49.89367" lon="2.4867">
        <ele>34.1</ele>
        <time>2023-09-27T13:45:27Z</time>
      </trkpt>
      <trkpt lat="49.89368" lon="2.4867">
        <ele>34.1</ele>
        <time>2023-09-27T13:45:28Z</time>
      </trkpt>
      <trkpt lat="49.89369" lon="2.4867">
        <ele>34.1</ele>
        <time>2023-09-27T13:45:29Z</time>
      </trkpt>
      <trkpt lat="49.89371" lon="2.48671">
        <ele>34.1</ele>
        <time>2023-09-27T13:45:30Z</time>
      </trkpt>
      <trkpt lat="49.89372" lon="2.48671">
        <ele>34.1</ele>
        <time>2023-09-27T13:45:31Z</time>
      </trkpt>
      <trkpt lat="49.89373" lon="2.48671">
        <ele>34.2</ele>
        <time>2023-09-27T13:45:32Z</time>
      </trkpt>
      <trkpt lat="49.89374" lon="2.48671">
        <ele>34.2</ele>
        <time>2023-09-27T13:45:33Z</time>
      </trkpt>
      <trkpt lat="49.89375" lon="2.4867">
        <ele>34.2</ele>
        <time>2023-09-27T13:45:34Z</time>
      </trkpt>
      <trkpt lat="49.89376" lon="2.4867">
        <ele>34.2</ele>
        <time>2023-09-27T13:45:35Z</time>
      </trkpt>
      <trkpt lat="49.89377" lon="2.4867">
        <ele>34.3</ele>
        <time>2023-09-27T13:45:36Z</time>
      </trkpt>
      <trkpt lat="49.89378" lon="2.4867">
        <ele>34.3</ele>
        <time>2023-09-27T13:45:37Z</time>
      </trkpt>
      <trkpt lat="49.89379" lon="2.4867">
        <ele>34.3</ele>
        <time>2023-09-27T13:45:38Z</time>
      </trkpt>
      <trkpt lat="49.8938" lon="2.4867">
        <ele>34.3</ele>
        <time>2023-09-27T13:45:39Z</time>
      </trkpt>
      <trkpt lat="49.89381" lon="2.4867">
        <ele>34.4</ele>
        <time>2023-09-27T13:45:40Z</time>
      </trkpt>
      <trkpt lat="49.89383" lon="2.4867">
        <ele>34.4</ele>
        <time>2023-09-27T13:45:41Z</time>
      </trkpt>
      <trkpt lat="49.89384" lon="2.4867">
        <ele>34.4</ele>
        <time>2023-09-27T13:45:42Z</time>
      </trkpt>
      <trkpt lat="49.89385" lon="2.4867">
        <ele>34.5</ele>
        <time>2023-09-27T13:45:43Z</time>
      </trkpt>
      <trkpt lat="49.89386" lon="2.48669">
        <ele>34.5</ele>
        <time>2023-09-27T13:45:44Z</time>
      </trkpt>
      <trkpt lat="49.89387" lon="2.48669">
        <ele>34.5</ele>
        <time>2023-09-27T13:45:45Z</time>
      </trkpt>
      <trkpt lat="49.89388" lon="2.48669">
        <ele>34.5</ele>
        <time>2023-09-27T13:45:46Z</time>
      </trkpt>
      <trkpt lat="49.89389" lon="2.48669">
        <ele>34.5</ele>
        <time>2023-09-27T13:45:47Z</time>
      </trkpt>
      <trkpt lat="49.8939" lon="2.48669">
        <ele>34.6</ele>
        <time>2023-09-27T13:45:48Z</time>
      </trkpt>
      <trkpt lat="49.89391" lon="2.48669">
        <ele>34.6</ele>
        <time>2023-09-27T13:45:49Z</time>
      </trkpt>
      <trkpt lat="49.89392" lon="2.48669">
        <ele>34.6</ele>
        <time>2023-09-27T13:45:50Z</time>
      </trkpt>
      <trkpt lat="49.89393" lon="2.48669">
        <ele>34.6</ele>
        <time>2023-09-27T13:45:51Z</time>
      </trkpt>
      <trkpt lat="49.89395" lon="2.48668">
        <ele>34.7</ele>
        <time>2023-09-27T13:45:52Z</time>
      </trkpt>
      <trkpt lat="49.89396" lon="2.48668">
        <ele>34.7</ele>
        <time>2023-09-27T13:45:53Z</time>
      </trkpt>
      <trkpt lat="49.89397" lon="2.48668">
        <ele>34.7</ele>
        <time>2023-09-27T13:45:54Z</time>
      </trkpt>
      <trkpt lat="49.89398" lon="2.48668">
        <ele>34.7</ele>
        <time>2023-09-27T13:45:55Z</time>
      </trkpt>
      <trkpt lat="49.89399" lon="2.48668">
        <ele>34.7</ele>
        <time>2023-09-27T13:45:56Z</time>
      </trkpt>
      <trkpt lat="49.894" lon="2.48668">
        <ele>34.8</ele>
        <time>2023-09-27T13:45:57Z</time>
      </trkpt>
      <trkpt lat="49.89401" lon="2.48668">
        <ele>34.8</ele>
        <time>2023-09-27T13:45:58Z</time>
      </trkpt>
      <trkpt lat="49.89402" lon="2.48668">
        <ele>34.8</ele>
        <time>2023-09-27T13:45:59Z</time>
      </trkpt>
      <trkpt lat="49.89403" lon="2.48668">
        <ele>34.8</ele>
        <time>2023-09-27T13:46:00Z</time>
      </trkpt>
      <trkpt lat="49.89404" lon="2.48667">
        <ele>34.8</ele>
        <time>2023-09-27T13:46:01Z</time>
      </trkpt>
      <trkpt lat="49.89405" lon="2.48667">
        <ele>34.8</ele>
        <time>2023-09-27T13:46:02Z</time>
      </trkpt>
      <trkpt lat="49.89406" lon="2.48667">
        <ele>34.9</ele>
        <time>2023-09-27T13:46:03Z</time>
      </trkpt>
      <trkpt lat="49.89407" lon="2.48667">
        <ele>34.9</ele>
        <time>2023-09-27T13:46:04Z</time>
      </trkpt>
      <trkpt lat="49.89408" lon="2.48666">
        <ele>34.9</ele>
        <time>2023-09-27T13:46:05Z</time>
      </trkpt>
      <trkpt lat="49.89409" lon="2.48666">
        <ele>34.9</ele>
        <time>2023-09-27T13:46:06Z</time>
      </trkpt>
      <trkpt lat="49.8941" lon="2.48666">
        <ele>34.9</ele>
        <time>2023-09-27T13:46:07Z</time>
      </trkpt>
      <trkpt lat="49.89411" lon="2.48666">
        <ele>35</ele>
        <time>2023-09-27T13:46:08Z</time>
      </trkpt>
      <trkpt lat="49.89412" lon="2.48666">
        <ele>35</ele>
        <time>2023-09-27T13:46:09Z</time>
      </trkpt>
      <trkpt lat="49.89414" lon="2.48665">
        <ele>35</ele>
        <time>2023-09-27T13:46:10Z</time>
      </trkpt>
      <trkpt lat="49.89415" lon="2.48665">
        <ele>35</ele>
        <time>2023-09-27T13:46:11Z</time>
      </trkpt>
      <trkpt lat="49.89416" lon="2.48665">
        <ele>35</ele>
        <time>2023-09-27T13:46:12Z</time>
      </trkpt>
      <trkpt lat="49.89418" lon="2.48665">
        <ele>35.1</ele>
        <time>2023-09-27T13:46:13Z</time>
      </trkpt>
      <trkpt lat="49.89419" lon="2.48665">
        <ele>35.1</ele>
        <time>2023-09-27T13:46:14Z</time>
      </trkpt>
      <trkpt lat="49.8942" lon="2.48664">
        <ele>35.1</ele>
        <time>2023-09-27T13:46:15Z</time>
      </trkpt>
      <trkpt lat="49.89421" lon="2.48664">
        <ele>35.1</ele>
        <time>2023-09-27T13:46:16Z</time>
      </trkpt>
      <trkpt lat="49.89422" lon="2.48664">
        <ele>35.1</ele>
        <time>2023-09-27T13:46:17Z</time>
      </trkpt>
      <trkpt lat="49.89423" lon="2.48664">
        <ele>35.1</ele>
        <time>2023-09-27T13:46:18Z</time>
      </trkpt>
      <trkpt lat="49.89424" lon="2.48664">
        <ele>35.2</ele>
        <time>2023-09-27T13:46:19Z</time>
      </trkpt>
      <trkpt lat="49.89425" lon="2.48664">
        <ele>35.2</ele>
        <time>2023-09-27T13:46:20Z</time>
      </trkpt>
      <trkpt lat="49.89426" lon="2.48664">
        <ele>35.2</ele>
        <time>2023-09-27T13:46:21Z</time>
      </trkpt>
      <trkpt lat="49.89428" lon="2.48664">
        <ele>35.2</ele>
        <time>2023-09-27T13:46:22Z</time>
      </trkpt>
      <trkpt lat="49.89429" lon="2.48663">
        <ele>35.2</ele>
        <time>2023-09-27T13:46:23Z</time>
      </trkpt>
      <trkpt lat="49.8943" lon="2.48663">
        <ele>35.3</ele>
        <time>2023-09-27T13:46:24Z</time>
      </trkpt>
      <trkpt lat="49.89432" lon="2.48663">
        <ele>35.3</ele>
        <time>2023-09-27T13:46:25Z</time>
      </trkpt>
      <trkpt lat="49.89432" lon="2.48663">
        <ele>35.3</ele>
        <time>2023-09-27T13:46:26Z</time>
      </trkpt>
      <trkpt lat="49.89433" lon="2.48663">
        <ele>35.3</ele>
        <time>2023-09-27T13:46:27Z</time>
      </trkpt>
      <trkpt lat="49.89434" lon="2.48663">
        <ele>35.3</ele>
        <time>2023-09-27T13:46:28Z</time>
      </trkpt>
      <trkpt lat="49.89435" lon="2.48663">
        <ele>35.3</ele>
        <time>2023-09-27T13:46:29Z</time>
      </trkpt>
      <trkpt lat="49.89436" lon="2.48662">
        <ele>35.4</ele>
        <time>2023-09-27T13:46:30Z</time>
      </trkpt>
      <trkpt lat="49.89437" lon="2.48662">
        <ele>35.4</ele>
        <time>2023-09-27T13:46:31Z</time>
      </trkpt>
      <trkpt lat="49.89439" lon="2.48662">
        <ele>35.4</ele>
        <time>2023-09-27T13:46:32Z</time>
      </trkpt>
      <trkpt lat="49.8944" lon="2.48661">
        <ele>35.4</ele>
        <time>2023-09-27T13:46:33Z</time>
      </trkpt>
      <trkpt lat="49.89441" lon="2.48661">
        <ele>35.4</ele>
        <time>2023-09-27T13:46:34Z</time>
      </trkpt>
      <trkpt lat="49.89442" lon="2.48661">
        <ele>35.5</ele>
        <time>2023-09-27T13:46:35Z</time>
      </trkpt>
      <trkpt lat="49.89443" lon="2.48661">
        <ele>35.5</ele>
        <time>2023-09-27T13:46:36Z</time>
      </trkpt>
      <trkpt lat="49.89444" lon="2.4866">
        <ele>35.5</ele>
        <time>2023-09-27T13:46:37Z</time>
      </trkpt>
      <trkpt lat="49.89446" lon="2.4866">
        <ele>35.5</ele>
        <time>2023-09-27T13:46:38Z</time>
      </trkpt>
      <trkpt lat="49.89447" lon="2.4866">
        <ele>35.5</ele>
        <time>2023-09-27T13:46:39Z</time>
      </trkpt>
      <trkpt lat="49.89448" lon="2.4866">
        <ele>35.6</ele>
        <time>2023-09-27T13:46:40Z</time>
      </trkpt>
      <trkpt lat="49.89449" lon="2.48659">
        <ele>35.6</ele>
        <time>2023-09-27T13:46:41Z</time>
      </trkpt>
      <trkpt lat="49.8945" lon="2.48659">
        <ele>35.6</ele>
        <time>2023-09-27T13:46:42Z</time>
      </trkpt>
      <trkpt lat="49.89451" lon="2.48659">
        <ele>35.6</ele>
        <time>2023-09-27T13:46:43Z</time>
      </trkpt>
      <trkpt lat="49.89452" lon="2.48659">
        <ele>35.6</ele>
        <time>2023-09-27T13:46:44Z</time>
      </trkpt>
      <trkpt lat="49.89453" lon="2.48658">
        <ele>35.6</ele>
        <time>2023-09-27T13:46:45Z</time>
      </trkpt>
      <trkpt lat="49.89454" lon="2.48658">
        <ele>35.7</ele>
        <time>2023-09-27T13:46:46Z</time>
      </trkpt>
      <trkpt lat="49.89455" lon="2.48658">
        <ele>35.7</ele>
        <time>2023-09-27T13:46:47Z</time>
      </trkpt>
      <trkpt lat="49.89456" lon="2.48658">
        <ele>35.7</ele>
        <time>2023-09-27T13:46:48Z</time>
      </trkpt>
      <trkpt lat="49.89458" lon="2.48657">
        <ele>35.7</ele>
        <time>2023-09-27T13:46:49Z</time>
      </trkpt>
      <trkpt lat="49.89459" lon="2.48657">
        <ele>35.7</ele>
        <time>2023-09-27T13:46:50Z</time>
      </trkpt>
      <trkpt lat="49.8946" lon="2.48657">
        <ele>35.8</ele>
        <time>2023-09-27T13:46:51Z</time>
      </trkpt>
      <trkpt lat="49.89461" lon="2.48657">
        <ele>35.8</ele>
        <time>2023-09-27T13:46:52Z</time>
      </trkpt>
      <trkpt lat="49.89462" lon="2.48657">
        <ele>35.8</ele>
        <time>2023-09-27T13:46:53Z</time>
      </trkpt>
      <trkpt lat="49.89463" lon="2.48657">
        <ele>35.8</ele>
        <time>2023-09-27T13:46:54Z</time>
      </trkpt>
      <trkpt lat="49.89464" lon="2.48657">
        <ele>35.8</ele>
        <time>2023-09-27T13:46:55Z</time>
      </trkpt>
      <trkpt lat="49.89466" lon="2.48657">
        <ele>35.9</ele>
        <time>2023-09-27T13:46:56Z</time>
      </trkpt>
      <trkpt lat="49.89467" lon="2.48656">
        <ele>35.9</ele>
        <time>2023-09-27T13:46:57Z</time>
      </trkpt>
      <trkpt lat="49.89468" lon="2.48656">
        <ele>35.9</ele>
        <time>2023-09-27T13:46:58Z</time>
      </trkpt>
      <trkpt lat="49.89469" lon="2.48656">
        <ele>35.9</ele>
        <time>2023-09-27T13:46:59Z</time>
      </trkpt>
      <trkpt lat="49.8947" lon="2.48656">
        <ele>35.9</ele>
        <time>2023-09-27T13:47:00Z</time>
      </trkpt>
      <trkpt lat="49.89472" lon="2.48656">
        <ele>36</ele>
        <time>2023-09-27T13:47:01Z</time>
      </trkpt>
      <trkpt lat="49.89473" lon="2.48656">
        <ele>36</ele>
        <time>2023-09-27T13:47:02Z</time>
      </trkpt>
      <trkpt lat="49.89474" lon="2.48656">
        <ele>36</ele>
        <time>2023-09-27T13:47:03Z</time>
      </trkpt>
      <trkpt lat="49.89475" lon="2.48656">
        <ele>36</ele>
        <time>2023-09-27T13:47:04Z</time>
      </trkpt>
      <trkpt lat="49.89476" lon="2.48655">
        <ele>36.1</ele>
        <time>2023-09-27T13:47:05Z</time>
      </trkpt>
      <trkpt lat="49.89477" lon="2.48655">
        <ele>36.1</ele>
        <time>2023-09-27T13:47:06Z</time>
      </trkpt>
      <trkpt lat="49.89478" lon="2.48655">
        <ele>36.1</ele>
        <time>2023-09-27T13:47:07Z</time>
      </trkpt>
      <trkpt lat="49.89479" lon="2.48655">
        <ele>36.1</ele>
        <time>2023-09-27T13:47:08Z</time>
      </trkpt>
      <trkpt lat="49.8948" lon="2.48655">
        <ele>36.1</ele>
        <time>2023-09-27T13:47:09Z</time>
      </trkpt>
      <trkpt lat="49.89482" lon="2.48655">
        <ele>36.2</ele>
        <time>2023-09-27T13:47:10Z</time>
      </trkpt>
      <trkpt lat="49.89483" lon="2.48655">
        <ele>36.2</ele>
        <time>2023-09-27T13:47:11Z</time>
      </trkpt>
      <trkpt lat="49.89484" lon="2.48654">
        <ele>36.2</ele>
        <time>2023-09-27T13:47:12Z</time>
      </trkpt>
      <trkpt lat="49.89486" lon="2.48654">
        <ele>36.2</ele>
        <time>2023-09-27T13:47:13Z</time>
      </trkpt>
      <trkpt lat="49.89487" lon="2.48654">
        <ele>36.3</ele>
        <time>2023-09-27T13:47:14Z</time>
      </trkpt>
      <trkpt lat="49.89488" lon="2.48654">
        <ele>36.3</ele>
        <time>2023-09-27T13:47:15Z</time>
      </trkpt>
      <trkpt lat="49.8949" lon="2.48654">
        <ele>36.3</ele>
        <time>2023-09-27T13:47:16Z</time>
      </trkpt>
      <trkpt lat="49.89491" lon="2.48654">
        <ele>36.3</ele>
        <time>2023-09-27T13:47:17Z</time>
      </trkpt>
      <trkpt lat="49.89491" lon="2.48654">
        <ele>36.3</ele>
        <time>2023-09-27T13:47:18Z</time>
      </trkpt>
      <trkpt lat="49.89493" lon="2.48654">
        <ele>36.4</ele>
        <time>2023-09-27T13:47:19Z</time>
      </trkpt>
      <trkpt lat="49.89494" lon="2.48653">
        <ele>36.4</ele>
        <time>2023-09-27T13:47:20Z</time>
      </trkpt>
      <trkpt lat="49.89495" lon="2.48653">
        <ele>36.4</ele>
        <time>2023-09-27T13:47:21Z</time>
      </trkpt>
      <trkpt lat="49.89497" lon="2.48652">
        <ele>36.4</ele>
        <time>2023-09-27T13:47:22Z</time>
      </trkpt>
      <trkpt lat="49.89498" lon="2.48652">
        <ele>36.4</ele>
        <time>2023-09-27T13:47:23Z</time>
      </trkpt>
      <trkpt lat="49.89499" lon="2.48652">
        <ele>36.5</ele>
        <time>2023-09-27T13:47:24Z</time>
      </trkpt>
      <trkpt lat="49.895" lon="2.48652">
        <ele>36.5</ele>
        <time>2023-09-27T13:47:25Z</time>
      </trkpt>
      <trkpt lat="49.89501" lon="2.48651">
        <ele>36.5</ele>
        <time>2023-09-27T13:47:26Z</time>
      </trkpt>
      <trkpt lat="49.89502" lon="2.48651">
        <ele>36.5</ele>
        <time>2023-09-27T13:47:27Z</time>
      </trkpt>
      <trkpt lat="49.89504" lon="2.4865">
        <ele>36.5</ele>
        <time>2023-09-27T13:47:28Z</time>
      </trkpt>
      <trkpt lat="49.89505" lon="2.4865">
        <ele>36.5</ele>
        <time>2023-09-27T13:47:29Z</time>
      </trkpt>
      <trkpt lat="49.89506" lon="2.4865">
        <ele>36.5</ele>
        <time>2023-09-27T13:47:30Z</time>
      </trkpt>
      <trkpt lat="49.89507" lon="2.48649">
        <ele>36.5</ele>
        <time>2023-09-27T13:47:31Z</time>
      </trkpt>
      <trkpt lat="49.89508" lon="2.48649">
        <ele>36.6</ele>
        <time>2023-09-27T13:47:32Z</time>
      </trkpt>
      <trkpt lat="49.89509" lon="2.48649">
        <ele>36.6</ele>
        <time>2023-09-27T13:47:33Z</time>
      </trkpt>
      <trkpt lat="49.8951" lon="2.48648">
        <ele>36.6</ele>
        <time>2023-09-27T13:47:34Z</time>
      </trkpt>
      <trkpt lat="49.89511" lon="2.48648">
        <ele>36.6</ele>
        <time>2023-09-27T13:47:35Z</time>
      </trkpt>
      <trkpt lat="49.89512" lon="2.48647">
        <ele>36.6</ele>
        <time>2023-09-27T13:47:36Z</time>
      </trkpt>
      <trkpt lat="49.89513" lon="2.48647">
        <ele>36.6</ele>
        <time>2023-09-27T13:47:37Z</time>
      </trkpt>
      <trkpt lat="49.89514" lon="2.48647">
        <ele>36.6</ele>
        <time>2023-09-27T13:47:38Z</time>
      </trkpt>
      <trkpt lat="49.89516" lon="2.48646">
        <ele>36.6</ele>
        <time>2023-09-27T13:47:39Z</time>
      </trkpt>
      <trkpt lat="49.89517" lon="2.48646">
        <ele>36.6</ele>
        <time>2023-09-27T13:47:40Z</time>
      </trkpt>
      <trkpt lat="49.89518" lon="2.48645">
        <ele>36.6</ele>
        <time>2023-09-27T13:47:41Z</time>
      </trkpt>
      <trkpt lat="49.89519" lon="2.48645">
        <ele>36.6</ele>
        <time>2023-09-27T13:47:42Z</time>
      </trkpt>
      <trkpt lat="49.8952" lon="2.48645">
        <ele>36.6</ele>
        <time>2023-09-27T13:47:43Z</time>
      </trkpt>
      <trkpt lat="49.89521" lon="2.48644">
        <ele>36.6</ele>
        <time>2023-09-27T13:47:44Z</time>
      </trkpt>
      <trkpt lat="49.89522" lon="2.48644">
        <ele>36.6</ele>
        <time>2023-09-27T13:47:45Z</time>
      </trkpt>
      <trkpt lat="49.89523" lon="2.48643">
        <ele>36.6</ele>
        <time>2023-09-27T13:47:46Z</time>
      </trkpt>
      <trkpt lat="49.89524" lon="2.48643">
        <ele>36.6</ele>
        <time>2023-09-27T13:47:47Z</time>
      </trkpt>
      <trkpt lat="49.89525" lon="2.48643">
        <ele>36.6</ele>
        <time>2023-09-27T13:47:48Z</time>
      </trkpt>
      <trkpt lat="49.89526" lon="2.48643">
        <ele>36.7</ele>
        <time>2023-09-27T13:47:49Z</time>
      </trkpt>
      <trkpt lat="49.89527" lon="2.48643">
        <ele>36.7</ele>
        <time>2023-09-27T13:47:50Z</time>
      </trkpt>
      <trkpt lat="49.89528" lon="2.48642">
        <ele>36.7</ele>
        <time>2023-09-27T13:47:51Z</time>
      </trkpt>
      <trkpt lat="49.89529" lon="2.48642">
        <ele>36.7</ele>
        <time>2023-09-27T13:47:52Z</time>
      </trkpt>
      <trkpt lat="49.8953" lon="2.48642">
        <ele>36.7</ele>
        <time>2023-09-27T13:47:53Z</time>
      </trkpt>
      <trkpt lat="49.89531" lon="2.48641">
        <ele>36.7</ele>
        <time>2023-09-27T13:47:54Z</time>
      </trkpt>
      <trkpt lat="49.89532" lon="2.48641">
        <ele>36.6</ele>
        <time>2023-09-27T13:47:55Z</time>
      </trkpt>
      <trkpt lat="49.89533" lon="2.48641">
        <ele>36.6</ele>
        <time>2023-09-27T13:47:56Z</time>
      </trkpt>
      <trkpt lat="49.89534" lon="2.48641">
        <ele>36.6</ele>
        <time>2023-09-27T13:47:57Z</time>
      </trkpt>
      <trkpt lat="49.89535" lon="2.48641">
        <ele>36.6</ele>
        <time>2023-09-27T13:47:58Z</time>
      </trkpt>
      <trkpt lat="49.89536" lon="2.4864">
        <ele>36.6</ele>
        <time>2023-09-27T13:47:59Z</time>
      </trkpt>
      <trkpt lat="49.89537" lon="2.4864">
        <ele>36.6</ele>
        <time>2023-09-27T13:48:00Z</time>
      </trkpt>
      <trkpt lat="49.89538" lon="2.4864">
        <ele>36.6</ele>
        <time>2023-09-27T13:48:01Z</time>
      </trkpt>
      <trkpt lat="49.89539" lon="2.48639">
        <ele>36.6</ele>
        <time>2023-09-27T13:48:02Z</time>
      </trkpt>
      <trkpt lat="49.8954" lon="2.48639">
        <ele>36.6</ele>
        <time>2023-09-27T13:48:03Z</time>
      </trkpt>
      <trkpt lat="49.89541" lon="2.48639">
        <ele>36.6</ele>
        <time>2023-09-27T13:48:04Z</time>
      </trkpt>
      <trkpt lat="49.89542" lon="2.48638">
        <ele>36.6</ele>
        <time>2023-09-27T13:48:05Z</time>
      </trkpt>
      <trkpt lat="49.89543" lon="2.48638">
        <ele>36.6</ele>
        <time>2023-09-27T13:48:06Z</time>
      </trkpt>
      <trkpt lat="49.89544" lon="2.48637">
        <ele>36.6</ele>
        <time>2023-09-27T13:48:07Z</time>
      </trkpt>
      <trkpt lat="49.89545" lon="2.48637">
        <ele>36.6</ele>
        <time>2023-09-27T13:48:08Z</time>
      </trkpt>
      <trkpt lat="49.89546" lon="2.48637">
        <ele>36.6</ele>
        <time>2023-09-27T13:48:09Z</time>
      </trkpt>
      <trkpt lat="49.89547" lon="2.48636">
        <ele>36.5</ele>
        <time>2023-09-27T13:48:10Z</time>
      </trkpt>
      <trkpt lat="49.89547" lon="2.48636">
        <ele>36.5</ele>
        <time>2023-09-27T13:48:11Z</time>
      </trkpt>
      <trkpt lat="49.89547" lon="2.48636">
        <ele>36.5</ele>
        <time>2023-09-27T13:48:12Z</time>
      </trkpt>
      <trkpt lat="49.89547" lon="2.48636">
        <ele>36.5</ele>
        <time>2023-09-27T13:48:13Z</time>
      </trkpt>
      <trkpt lat="49.89548" lon="2.48636">
        <ele>36.5</ele>
        <time>2023-09-27T13:48:14Z</time>
      </trkpt>
      <trkpt lat="49.89548" lon="2.48635">
        <ele>36.5</ele>
        <time>2023-09-27T13:48:15Z</time>
      </trkpt>
      <trkpt lat="49.89549" lon="2.48635">
        <ele>36.5</ele>
        <time>2023-09-27T13:48:16Z</time>
      </trkpt>
      <trkpt lat="49.89549" lon="2.48634">
        <ele>36.5</ele>
        <time>2023-09-27T13:48:17Z</time>
      </trkpt>
      <trkpt lat="49.8955" lon="2.48634">
        <ele>36.5</ele>
        <time>2023-09-27T13:48:18Z</time>
      </trkpt>
      <trkpt lat="49.89551" lon="2.48634">
        <ele>36.5</ele>
        <time>2023-09-27T13:48:19Z</time>
      </trkpt>
      <trkpt lat="49.89551" lon="2.48633">
        <ele>36.5</ele>
        <time>2023-09-27T13:48:20Z</time>
      </trkpt>
      <trkpt lat="49.89552" lon="2.48633">
        <ele>36.5</ele>
        <time>2023-09-27T13:48:21Z</time>
      </trkpt>
      <trkpt lat="49.89553" lon="2.48633">
        <ele>36.4</ele>
        <time>2023-09-27T13:48:22Z</time>
      </trkpt>
      <trkpt lat="49.89554" lon="2.48632">
        <ele>36.4</ele>
        <time>2023-09-27T13:48:23Z</time>
      </trkpt>
      <trkpt lat="49.89555" lon="2.48632">
        <ele>36.4</ele>
        <time>2023-09-27T13:48:24Z</time>
      </trkpt>
      <trkpt lat="49.89556" lon="2.48632">
        <ele>36.4</ele>
        <time>2023-09-27T13:48:25Z</time>
      </trkpt>
      <trkpt lat="49.89557" lon="2.48631">
        <ele>36.4</ele>
        <time>2023-09-27T13:48:26Z</time>
      </trkpt>
      <trkpt lat="49.89558" lon="2.48631">
        <ele>36.3</ele>
        <time>2023-09-27T13:48:27Z</time>
      </trkpt>
      <trkpt lat="49.89559" lon="2.48631">
        <ele>36.3</ele>
        <time>2023-09-27T13:48:28Z</time>
      </trkpt>
      <trkpt lat="49.8956" lon="2.4863">
        <ele>36.3</ele>
        <time>2023-09-27T13:48:29Z</time>
      </trkpt>
      <trkpt lat="49.89562" lon="2.4863">
        <ele>36.3</ele>
        <time>2023-09-27T13:48:30Z</time>
      </trkpt>
      <trkpt lat="49.89563" lon="2.48629">
        <ele>36.2</ele>
        <time>2023-09-27T13:48:31Z</time>
      </trkpt>
      <trkpt lat="49.89564" lon="2.48629">
        <ele>36.2</ele>
        <time>2023-09-27T13:48:32Z</time>
      </trkpt>
      <trkpt lat="49.89565" lon="2.48628">
        <ele>36.2</ele>
        <time>2023-09-27T13:48:33Z</time>
      </trkpt>
      <trkpt lat="49.89567" lon="2.48628">
        <ele>36.2</ele>
        <time>2023-09-27T13:48:34Z</time>
      </trkpt>
      <trkpt lat="49.89568" lon="2.48628">
        <ele>36.1</ele>
        <time>2023-09-27T13:48:35Z</time>
      </trkpt>
      <trkpt lat="49.8957" lon="2.48627">
        <ele>36.1</ele>
        <time>2023-09-27T13:48:36Z</time>
      </trkpt>
      <trkpt lat="49.89571" lon="2.48627">
        <ele>36.1</ele>
        <time>2023-09-27T13:48:37Z</time>
      </trkpt>
      <trkpt lat="49.89573" lon="2.48626">
        <ele>36</ele>
        <time>2023-09-27T13:48:38Z</time>
      </trkpt>
      <trkpt lat="49.89576" lon="2.48626">
        <ele>36</ele>
        <time>2023-09-27T13:48:39Z</time>
      </trkpt>
      <trkpt lat="49.89577" lon="2.48626">
        <ele>35.9</ele>
        <time>2023-09-27T13:48:40Z</time>
      </trkpt>
      <trkpt lat="49.8958" lon="2.48625">
        <ele>35.9</ele>
        <time>2023-09-27T13:48:41Z</time>
      </trkpt>
      <trkpt lat="49.89581" lon="2.48625">
        <ele>35.8</ele>
        <time>2023-09-27T13:48:42Z</time>
      </trkpt>
      <trkpt lat="49.89584" lon="2.48624">
        <ele>35.8</ele>
        <time>2023-09-27T13:48:43Z</time>
      </trkpt>
      <trkpt lat="49.89585" lon="2.48624">
        <ele>35.7</ele>
        <time>2023-09-27T13:48:44Z</time>
      </trkpt>
      <trkpt lat="49.89586" lon="2.48624">
        <ele>35.7</ele>
        <time>2023-09-27T13:48:45Z</time>
      </trkpt>
      <trkpt lat="49.89588" lon="2.48623">
        <ele>35.6</ele>
        <time>2023-09-27T13:48:46Z</time>
      </trkpt>
      <trkpt lat="49.89589" lon="2.48623">
        <ele>35.6</ele>
        <time>2023-09-27T13:48:47Z</time>
      </trkpt>
      <trkpt lat="49.89591" lon="2.48623">
        <ele>35.6</ele>
        <time>2023-09-27T13:48:48Z</time>
      </trkpt>
      <trkpt lat="49.89592" lon="2.48622">
        <ele>35.5</ele>
        <time>2023-09-27T13:48:49Z</time>
      </trkpt>
      <trkpt lat="49.89593" lon="2.48622">
        <ele>35.5</ele>
        <time>2023-09-27T13:48:50Z</time>
      </trkpt>
      <trkpt lat="49.89594" lon="2.48622">
        <ele>35.5</ele>
        <time>2023-09-27T13:48:51Z</time>
      </trkpt>
      <trkpt lat="49.89596" lon="2.48621">
        <ele>35.4</ele>
        <time>2023-09-27T13:48:52Z</time>
      </trkpt>
      <trkpt lat="49.89597" lon="2.48621">
        <ele>35.4</ele>
        <time>2023-09-27T13:48:53Z</time>
      </trkpt>
      <trkpt lat="49.89598" lon="2.48621">
        <ele>35.4</ele>
        <time>2023-09-27T13:48:54Z</time>
      </trkpt>
      <trkpt lat="49.896" lon="2.48621">
        <ele>35.3</ele>
        <time>2023-09-27T13:48:55Z</time>
      </trkpt>
      <trkpt lat="49.89601" lon="2.4862">
        <ele>35.3</ele>
        <time>2023-09-27T13:48:56Z</time>
      </trkpt>
      <trkpt lat="49.89602" lon="2.4862">
        <ele>35.2</ele>
        <time>2023-09-27T13:48:57Z</time>
      </trkpt>
      <trkpt lat="49.89603" lon="2.4862">
        <ele>35.2</ele>
        <time>2023-09-27T13:48:58Z</time>
      </trkpt>
      <trkpt lat="49.89604" lon="2.4862">
        <ele>35.2</ele>
        <time>2023-09-27T13:48:59Z</time>
      </trkpt>
      <trkpt lat="49.89605" lon="2.48619">
        <ele>35.1</ele>
        <time>2023-09-27T13:49:00Z</time>
      </trkpt>
      <trkpt lat="49.89606" lon="2.48619">
        <ele>35.1</ele>
        <time>2023-09-27T13:49:01Z</time>
      </trkpt>
      <trkpt lat="49.89607" lon="2.48619">
        <ele>35.1</ele>
        <time>2023-09-27T13:49:02Z</time>
      </trkpt>
      <trkpt lat="49.89608" lon="2.48618">
        <ele>35.1</ele>
        <time>2023-09-27T13:49:03Z</time>
      </trkpt>
      <trkpt lat="49.89609" lon="2.48618">
        <ele>35</ele>
        <time>2023-09-27T13:49:04Z</time>
      </trkpt>
      <trkpt lat="49.8961" lon="2.48618">
        <ele>35</ele>
        <time>2023-09-27T13:49:05Z</time>
      </trkpt>
      <trkpt lat="49.89611" lon="2.48618">
        <ele>35</ele>
        <time>2023-09-27T13:49:06Z</time>
      </trkpt>
      <trkpt lat="49.89614" lon="2.48617">
        <ele>34.9</ele>
        <time>2023-09-27T13:49:07Z</time>
      </trkpt>
      <trkpt lat="49.89614" lon="2.48617">
        <ele>34.9</ele>
        <time>2023-09-27T13:49:08Z</time>
      </trkpt>
      <trkpt lat="49.89615" lon="2.48616">
        <ele>34.9</ele>
        <time>2023-09-27T13:49:09Z</time>
      </trkpt>
      <trkpt lat="49.89617" lon="2.48616">
        <ele>34.8</ele>
        <time>2023-09-27T13:49:10Z</time>
      </trkpt>
      <trkpt lat="49.89618" lon="2.48615">
        <ele>34.8</ele>
        <time>2023-09-27T13:49:11Z</time>
      </trkpt>
      <trkpt lat="49.89619" lon="2.48615">
        <ele>34.8</ele>
        <time>2023-09-27T13:49:12Z</time>
      </trkpt>
      <trkpt lat="49.89621" lon="2.48614">
        <ele>34.7</ele>
        <time>2023-09-27T13:49:13Z</time>
      </trkpt>
      <trkpt lat="49.89623" lon="2.48613">
        <ele>34.7</ele>
        <time>2023-09-27T13:49:14Z</time>
      </trkpt>
      <trkpt lat="49.89624" lon="2.48613">
        <ele>34.7</ele>
        <time>2023-09-27T13:49:15Z</time>
      </trkpt>
      <trkpt lat="49.89624" lon="2.48613">
        <ele>34.6</ele>
        <time>2023-09-27T13:49:16Z</time>
      </trkpt>
      <trkpt lat="49.89625" lon="2.48612">
        <ele>34.6</ele>
        <time>2023-09-27T13:49:17Z</time>
      </trkpt>
      <trkpt lat="49.89627" lon="2.48612">
        <ele>34.6</ele>
        <time>2023-09-27T13:49:18Z</time>
      </trkpt>
      <trkpt lat="49.89628" lon="2.48611">
        <ele>34.5</ele>
        <time>2023-09-27T13:49:19Z</time>
      </trkpt>
      <trkpt lat="49.8963" lon="2.48611">
        <ele>34.5</ele>
        <time>2023-09-27T13:49:20Z</time>
      </trkpt>
      <trkpt lat="49.89631" lon="2.4861">
        <ele>34.5</ele>
        <time>2023-09-27T13:49:21Z</time>
      </trkpt>
      <trkpt lat="49.89631" lon="2.4861">
        <ele>34.4</ele>
        <time>2023-09-27T13:49:22Z</time>
      </trkpt>
      <trkpt lat="49.89633" lon="2.4861">
        <ele>34.4</ele>
        <time>2023-09-27T13:49:23Z</time>
      </trkpt>
      <trkpt lat="49.89634" lon="2.48609">
        <ele>34.4</ele>
        <time>2023-09-27T13:49:24Z</time>
      </trkpt>
      <trkpt lat="49.89635" lon="2.48609">
        <ele>34.3</ele>
        <time>2023-09-27T13:49:25Z</time>
      </trkpt>
      <trkpt lat="49.89636" lon="2.48609">
        <ele>34.3</ele>
        <time>2023-09-27T13:49:26Z</time>
      </trkpt>
      <trkpt lat="49.89637" lon="2.48609">
        <ele>34.3</ele>
        <time>2023-09-27T13:49:27Z</time>
      </trkpt>
      <trkpt lat="49.89638" lon="2.48609">
        <ele>34.2</ele>
        <time>2023-09-27T13:49:28Z</time>
      </trkpt>
      <trkpt lat="49.8964" lon="2.48609">
        <ele>34.2</ele>
        <time>2023-09-27T13:49:29Z</time>
      </trkpt>
      <trkpt lat="49.89641" lon="2.48608">
        <ele>34.2</ele>
        <time>2023-09-27T13:49:30Z</time>
      </trkpt>
      <trkpt lat="49.89642" lon="2.48608">
        <ele>34.2</ele>
        <time>2023-09-27T13:49:31Z</time>
      </trkpt>
      <trkpt lat="49.89643" lon="2.48608">
        <ele>34.1</ele>
        <time>2023-09-27T13:49:32Z</time>
      </trkpt>
      <trkpt lat="49.89644" lon="2.48608">
        <ele>34.1</ele>
        <time>2023-09-27T13:49:33Z</time>
      </trkpt>
      <trkpt lat="49.89645" lon="2.48608">
        <ele>34.1</ele>
        <time>2023-09-27T13:49:34Z</time>
      </trkpt>
      <trkpt lat="49.89646" lon="2.48608">
        <ele>34.1</ele>
        <time>2023-09-27T13:49:35Z</time>
      </trkpt>
      <trkpt lat="49.89647" lon="2.48607">
        <ele>34</ele>
        <time>2023-09-27T13:49:36Z</time>
      </trkpt>
      <trkpt lat="49.89648" lon="2.48607">
        <ele>34</ele>
        <time>2023-09-27T13:49:37Z</time>
      </trkpt>
      <trkpt lat="49.89649" lon="2.48606">
        <ele>34</ele>
        <time>2023-09-27T13:49:38Z</time>
      </trkpt>
      <trkpt lat="49.8965" lon="2.48606">
        <ele>34</ele>
        <time>2023-09-27T13:49:39Z</time>
      </trkpt>
      <trkpt lat="49.89651" lon="2.48606">
        <ele>34</ele>
        <time>2023-09-27T13:49:40Z</time>
      </trkpt>
      <trkpt lat="49.89652" lon="2.48606">
        <ele>33.9</ele>
        <time>2023-09-27T13:49:41Z</time>
      </trkpt>
      <trkpt lat="49.89652" lon="2.48606">
        <ele>33.9</ele>
        <time>2023-09-27T13:49:42Z</time>
      </trkpt>
      <trkpt lat="49.89653" lon="2.48606">
        <ele>33.9</ele>
        <time>2023-09-27T13:49:43Z</time>
      </trkpt>
      <trkpt lat="49.89654" lon="2.48606">
        <ele>33.9</ele>
        <time>2023-09-27T13:49:44Z</time>
      </trkpt>
      <trkpt lat="49.89655" lon="2.48605">
        <ele>33.9</ele>
        <time>2023-09-27T13:49:45Z</time>
      </trkpt>
      <trkpt lat="49.89656" lon="2.48605">
        <ele>33.9</ele>
        <time>2023-09-27T13:49:46Z</time>
      </trkpt>
      <trkpt lat="49.89657" lon="2.48605">
        <ele>33.9</ele>
        <time>2023-09-27T13:49:47Z</time>
      </trkpt>
      <trkpt lat="49.89657" lon="2.48604">
        <ele>33.8</ele>
        <time>2023-09-27T13:49:48Z</time>
      </trkpt>
      <trkpt lat="49.89658" lon="2.48604">
        <ele>33.8</ele>
        <time>2023-09-27T13:49:49Z</time>
      </trkpt>
      <trkpt lat="49.89659" lon="2.48604">
        <ele>33.8</ele>
        <time>2023-09-27T13:49:50Z</time>
      </trkpt>
      <trkpt lat="49.8966" lon="2.48603">
        <ele>33.8</ele>
        <time>2023-09-27T13:49:51Z</time>
      </trkpt>
      <trkpt lat="49.89661" lon="2.48603">
        <ele>33.8</ele>
        <time>2023-09-27T13:49:52Z</time>
      </trkpt>
      <trkpt lat="49.89662" lon="2.48603">
        <ele>33.8</ele>
        <time>2023-09-27T13:49:53Z</time>
      </trkpt>
      <trkpt lat="49.89663" lon="2.48603">
        <ele>33.8</ele>
        <time>2023-09-27T13:49:54Z</time>
      </trkpt>
      <trkpt lat="49.89664" lon="2.48603">
        <ele>33.8</ele>
        <time>2023-09-27T13:49:55Z</time>
      </trkpt>
      <trkpt lat="49.89665" lon="2.48603">
        <ele>33.8</ele>
        <time>2023-09-27T13:49:56Z</time>
      </trkpt>
      <trkpt lat="49.89666" lon="2.48603">
        <ele>33.8</ele>
        <time>2023-09-27T13:49:57Z</time>
      </trkpt>
      <trkpt lat="49.89667" lon="2.48603">
        <ele>33.8</ele>
        <time>2023-09-27T13:49:58Z</time>
      </trkpt>
      <trkpt lat="49.89667" lon="2.48603">
        <ele>33.8</ele>
        <time>2023-09-27T13:49:59Z</time>
      </trkpt>
      <trkpt lat="49.89668" lon="2.48603">
        <ele>33.8</ele>
        <time>2023-09-27T13:50:00Z</time>
      </trkpt>
      <trkpt lat="49.89669" lon="2.48603">
        <ele>33.8</ele>
        <time>2023-09-27T13:50:01Z</time>
      </trkpt>
      <trkpt lat="49.8967" lon="2.48603">
        <ele>33.8</ele>
        <time>2023-09-27T13:50:02Z</time>
      </trkpt>
      <trkpt lat="49.89672" lon="2.48603">
        <ele>33.8</ele>
        <time>2023-09-27T13:50:03Z</time>
      </trkpt>
      <trkpt lat="49.89673" lon="2.48603">
        <ele>33.8</ele>
        <time>2023-09-27T13:50:04Z</time>
      </trkpt>
      <trkpt lat="49.89674" lon="2.48604">
        <ele>33.8</ele>
        <time>2023-09-27T13:50:05Z</time>
      </trkpt>
      <trkpt lat="49.89675" lon="2.48604">
        <ele>33.8</ele>
        <time>2023-09-27T13:50:06Z</time>
      </trkpt>
      <trkpt lat="49.89675" lon="2.48605">
        <ele>33.8</ele>
        <time>2023-09-27T13:50:07Z</time>
      </trkpt>
      <trkpt lat="49.89675" lon="2.48606">
        <ele>33.8</ele>
        <time>2023-09-27T13:50:08Z</time>
      </trkpt>
      <trkpt lat="49.89676" lon="2.48606">
        <ele>33.8</ele>
        <time>2023-09-27T13:50:09Z</time>
      </trkpt>
      <trkpt lat="49.89676" lon="2.48607">
        <ele>33.8</ele>
        <time>2023-09-27T13:50:10Z</time>
      </trkpt>
      <trkpt lat="49.89676" lon="2.48607">
        <ele>33.8</ele>
        <time>2023-09-27T13:50:11Z</time>
      </trkpt>
      <trkpt lat="49.89677" lon="2.48607">
        <ele>33.8</ele>
        <time>2023-09-27T13:50:12Z</time>
      </trkpt>
      <trkpt lat="49.89677" lon="2.48607">
        <ele>33.8</ele>
        <time>2023-09-27T13:50:13Z</time>
      </trkpt>
      <trkpt lat="49.89677" lon="2.48608">
        <ele>33.8</ele>
        <time>2023-09-27T13:50:14Z</time>
      </trkpt>
      <trkpt lat="49.89677" lon="2.48608">
        <ele>33.8</ele>
        <time>2023-09-27T13:50:15Z</time>
      </trkpt>
      <trkpt lat="49.89677" lon="2.48608">
        <ele>33.8</ele>
        <time>2023-09-27T13:50:16Z</time>
      </trkpt>
      <trkpt lat="49.89677" lon="2.48608">
        <ele>33.8</ele>
        <time>2023-09-27T13:50:17Z</time>
      </trkpt>
      <trkpt lat="49.89677" lon="2.48608">
        <ele>33.8</ele>
        <time>2023-09-27T13:50:18Z</time>
      </trkpt>
      <trkpt lat="49.89677" lon="2.48608">
        <ele>33.8</ele>
        <time>2023-09-27T13:50:19Z</time>
      </trkpt>
      <trkpt lat="49.89677" lon="2.48608">
        <ele>33.8</ele>
        <time>2023-09-27T13:50:20Z</time>
      </trkpt>
      <trkpt lat="49.89677" lon="2.48608">
        <ele>33.8</ele>
        <time>2023-09-27T13:50:21Z</time>
      </trkpt>
      <trkpt lat="49.89677" lon="2.48608">
        <ele>33.8</ele>
        <time>2023-09-27T13:50:22Z</time>
      </trkpt>
      <trkpt lat="49.89677" lon="2.48608">
        <ele>33.8</ele>
        <time>2023-09-27T13:50:23Z</time>
      </trkpt>
      <trkpt lat="49.89677" lon="2.48608">
        <ele>33.8</ele>
        <time>2023-09-27T13:50:24Z</time>
      </trkpt>
      <trkpt lat="49.89677" lon="2.48608">
        <ele>33.8</ele>
        <time>2023-09-27T13:50:25Z</time>
      </trkpt>
      <trkpt lat="49.89677" lon="2.48608">
        <ele>33.8</ele>
        <time>2023-09-27T13:50:26Z</time>
      </trkpt>
      <trkpt lat="49.89677" lon="2.48608">
        <ele>33.8</ele>
        <time>2023-09-27T13:50:27Z</time>
      </trkpt>
      <trkpt lat="49.89676" lon="2.48607">
        <ele>33.9</ele>
        <time>2023-09-27T13:50:28Z</time>
      </trkpt>
      <trkpt lat="49.89676" lon="2.48606">
        <ele>33.9</ele>
        <time>2023-09-27T13:50:29Z</time>
      </trkpt>
      <trkpt lat="49.89676" lon="2.48605">
        <ele>33.9</ele>
        <time>2023-09-27T13:50:30Z</time>
      </trkpt>
      <trkpt lat="49.89676" lon="2.48605">
        <ele>33.9</ele>
        <time>2023-09-27T13:50:31Z</time>
      </trkpt>
      <trkpt lat="49.89677" lon="2.48604">
        <ele>33.9</ele>
        <time>2023-09-27T13:50:32Z</time>
      </trkpt>
      <trkpt lat="49.89678" lon="2.48604">
        <ele>33.9</ele>
        <time>2023-09-27T13:50:33Z</time>
      </trkpt>
      <trkpt lat="49.89678" lon="2.48603">
        <ele>33.9</ele>
        <time>2023-09-27T13:50:34Z</time>
      </trkpt>
      <trkpt lat="49.89679" lon="2.48603">
        <ele>33.9</ele>
        <time>2023-09-27T13:50:35Z</time>
      </trkpt>
      <trkpt lat="49.8968" lon="2.48603">
        <ele>33.9</ele>
        <time>2023-09-27T13:50:36Z</time>
      </trkpt>
      <trkpt lat="49.8968" lon="2.48603">
        <ele>33.9</ele>
        <time>2023-09-27T13:50:37Z</time>
      </trkpt>
      <trkpt lat="49.8968" lon="2.48602">
        <ele>33.9</ele>
        <time>2023-09-27T13:50:38Z</time>
      </trkpt>
      <trkpt lat="49.89681" lon="2.48602">
        <ele>33.9</ele>
        <time>2023-09-27T13:50:39Z</time>
      </trkpt>
      <trkpt lat="49.89681" lon="2.48603">
        <ele>33.9</ele>
        <time>2023-09-27T13:50:40Z</time>
      </trkpt>
      <trkpt lat="49.89681" lon="2.48603">
        <ele>33.9</ele>
        <time>2023-09-27T13:50:41Z</time>
      </trkpt>
      <trkpt lat="49.89681" lon="2.48603">
        <ele>33.9</ele>
        <time>2023-09-27T13:50:42Z</time>
      </trkpt>
      <trkpt lat="49.89682" lon="2.48603">
        <ele>33.9</ele>
        <time>2023-09-27T13:50:43Z</time>
      </trkpt>
      <trkpt lat="49.89682" lon="2.48603">
        <ele>34</ele>
        <time>2023-09-27T13:50:44Z</time>
      </trkpt>
      <trkpt lat="49.89682" lon="2.48603">
        <ele>34</ele>
        <time>2023-09-27T13:50:45Z</time>
      </trkpt>
      <trkpt lat="49.89683" lon="2.48604">
        <ele>34</ele>
        <time>2023-09-27T13:50:46Z</time>
      </trkpt>
      <trkpt lat="49.89683" lon="2.48604">
        <ele>34</ele>
        <time>2023-09-27T13:50:47Z</time>
      </trkpt>
      <trkpt lat="49.89683" lon="2.48605">
        <ele>34</ele>
        <time>2023-09-27T13:50:48Z</time>
      </trkpt>
      <trkpt lat="49.89683" lon="2.48606">
        <ele>34</ele>
        <time>2023-09-27T13:50:49Z</time>
      </trkpt>
      <trkpt lat="49.89682" lon="2.48606">
        <ele>34</ele>
        <time>2023-09-27T13:50:50Z</time>
      </trkpt>
      <trkpt lat="49.89682" lon="2.48606">
        <ele>34</ele>
        <time>2023-09-27T13:50:51Z</time>
      </trkpt>
      <trkpt lat="49.89682" lon="2.48606">
        <ele>34</ele>
        <time>2023-09-27T13:50:52Z</time>
      </trkpt>
      <trkpt lat="49.89682" lon="2.48606">
        <ele>34</ele>
        <time>2023-09-27T13:50:53Z</time>
      </trkpt>
      <trkpt lat="49.89682" lon="2.48606">
        <ele>34</ele>
        <time>2023-09-27T13:50:54Z</time>
      </trkpt>
      <trkpt lat="49.89682" lon="2.48606">
        <ele>34</ele>
        <time>2023-09-27T13:50:55Z</time>
      </trkpt>
      <trkpt lat="49.89682" lon="2.48606">
        <ele>34</ele>
        <time>2023-09-27T13:50:56Z</time>
      </trkpt>
      <trkpt lat="49.89682" lon="2.48606">
        <ele>34</ele>
        <time>2023-09-27T13:50:57Z</time>
      </trkpt>
      <trkpt lat="49.89681" lon="2.48606">
        <ele>34</ele>
        <time>2023-09-27T13:50:58Z</time>
      </trkpt>
      <trkpt lat="49.8968" lon="2.48606">
        <ele>34</ele>
        <time>2023-09-27T13:50:59Z</time>
      </trkpt>
      <trkpt lat="49.8968" lon="2.48606">
        <ele>34</ele>
        <time>2023-09-27T13:51:00Z</time>
      </trkpt>
      <trkpt lat="49.8968" lon="2.48605">
        <ele>34</ele>
        <time>2023-09-27T13:51:01Z</time>
      </trkpt>
      <trkpt lat="49.8968" lon="2.48604">
        <ele>34</ele>
        <time>2023-09-27T13:51:02Z</time>
      </trkpt>
      <trkpt lat="49.89679" lon="2.48603">
        <ele>34.1</ele>
        <time>2023-09-27T13:51:03Z</time>
      </trkpt>
      <trkpt lat="49.89679" lon="2.48602">
        <ele>34.1</ele>
        <time>2023-09-27T13:51:04Z</time>
      </trkpt>
      <trkpt lat="49.89678" lon="2.48601">
        <ele>34.1</ele>
        <time>2023-09-27T13:51:05Z</time>
      </trkpt>
      <trkpt lat="49.89678" lon="2.48601">
        <ele>34.1</ele>
        <time>2023-09-27T13:51:06Z</time>
      </trkpt>
      <trkpt lat="49.89678" lon="2.48601">
        <ele>34.1</ele>
        <time>2023-09-27T13:51:07Z</time>
      </trkpt>
      <trkpt lat="49.89678" lon="2.48601">
        <ele>34.1</ele>
        <time>2023-09-27T13:51:08Z</time>
      </trkpt>
      <trkpt lat="49.89678" lon="2.48601">
        <ele>34.1</ele>
        <time>2023-09-27T13:51:09Z</time>
      </trkpt>
      <trkpt lat="49.89679" lon="2.48601">
        <ele>34.1</ele>
        <time>2023-09-27T13:51:10Z</time>
      </trkpt>
      <trkpt lat="49.89679" lon="2.48601">
        <ele>34.1</ele>
        <time>2023-09-27T13:51:11Z</time>
      </trkpt>
      <trkpt lat="49.89679" lon="2.48601">
        <ele>34.1</ele>
        <time>2023-09-27T13:51:12Z</time>
      </trkpt>
      <trkpt lat="49.89679" lon="2.48601">
        <ele>34.1</ele>
        <time>2023-09-27T13:51:13Z</time>
      </trkpt>
      <trkpt lat="49.89679" lon="2.48601">
        <ele>34.1</ele>
        <time>2023-09-27T13:51:14Z</time>
      </trkpt>
      <trkpt lat="49.89679" lon="2.48601">
        <ele>34.1</ele>
        <time>2023-09-27T13:51:15Z</time>
      </trkpt>
      <trkpt lat="49.89679" lon="2.48602">
        <ele>34.1</ele>
        <time>2023-09-27T13:51:16Z</time>
      </trkpt>
      <trkpt lat="49.8968" lon="2.48602">
        <ele>34.1</ele>
        <time>2023-09-27T13:51:17Z</time>
      </trkpt>
      <trkpt lat="49.8968" lon="2.48602">
        <ele>34.1</ele>
        <time>2023-09-27T13:51:18Z</time>
      </trkpt>
      <trkpt lat="49.8968" lon="2.48602">
        <ele>34.1</ele>
        <time>2023-09-27T13:51:19Z</time>
      </trkpt>
      <trkpt lat="49.8968" lon="2.48602">
        <ele>34.1</ele>
        <time>2023-09-27T13:51:20Z</time>
      </trkpt>
      <trkpt lat="49.8968" lon="2.48602">
        <ele>34.1</ele>
        <time>2023-09-27T13:51:21Z</time>
      </trkpt>
      <trkpt lat="49.8968" lon="2.48602">
        <ele>34.1</ele>
        <time>2023-09-27T13:51:22Z</time>
      </trkpt>
      <trkpt lat="49.8968" lon="2.48602">
        <ele>34.1</ele>
        <time>2023-09-27T13:51:23Z</time>
      </trkpt>
      <trkpt lat="49.89681" lon="2.48602">
        <ele>34.1</ele>
        <time>2023-09-27T13:51:24Z</time>
      </trkpt>
      <trkpt lat="49.89681" lon="2.48602">
        <ele>34.1</ele>
        <time>2023-09-27T13:51:25Z</time>
      </trkpt>
      <trkpt lat="49.89681" lon="2.48602">
        <ele>34.1</ele>
        <time>2023-09-27T13:51:26Z</time>
      </trkpt>
      <trkpt lat="49.89681" lon="2.48602">
        <ele>34.1</ele>
        <time>2023-09-27T13:51:27Z</time>
      </trkpt>
      <trkpt lat="49.89681" lon="2.48603">
        <ele>34.1</ele>
        <time>2023-09-27T13:51:28Z</time>
      </trkpt>
      <trkpt lat="49.89681" lon="2.48603">
        <ele>34.1</ele>
        <time>2023-09-27T13:51:29Z</time>
      </trkpt>
      <trkpt lat="49.89682" lon="2.48603">
        <ele>34.1</ele>
        <time>2023-09-27T13:51:30Z</time>
      </trkpt>
      <trkpt lat="49.89682" lon="2.48603">
        <ele>34.1</ele>
        <time>2023-09-27T13:51:31Z</time>
      </trkpt>
      <trkpt lat="49.89682" lon="2.48603">
        <ele>34.1</ele>
        <time>2023-09-27T13:51:32Z</time>
      </trkpt>
      <trkpt lat="49.89682" lon="2.48603">
        <ele>34.1</ele>
        <time>2023-09-27T13:51:33Z</time>
      </trkpt>
      <trkpt lat="49.89685" lon="2.48603">
        <ele>34.1</ele>
        <time>2023-09-27T13:51:34Z</time>
      </trkpt>
      <trkpt lat="49.89686" lon="2.48603">
        <ele>34.1</ele>
        <time>2023-09-27T13:51:35Z</time>
      </trkpt>
      <trkpt lat="49.8969" lon="2.48603">
        <ele>34.1</ele>
        <time>2023-09-27T13:51:36Z</time>
      </trkpt>
      <trkpt lat="49.89691" lon="2.48603">
        <ele>34.1</ele>
        <time>2023-09-27T13:51:37Z</time>
      </trkpt>
      <trkpt lat="49.89693" lon="2.48602">
        <ele>34</ele>
        <time>2023-09-27T13:51:38Z</time>
      </trkpt>
      <trkpt lat="49.89694" lon="2.48602">
        <ele>34</ele>
        <time>2023-09-27T13:51:39Z</time>
      </trkpt>
      <trkpt lat="49.89696" lon="2.48602">
        <ele>34</ele>
        <time>2023-09-27T13:51:40Z</time>
      </trkpt>
      <trkpt lat="49.89697" lon="2.48601">
        <ele>34</ele>
        <time>2023-09-27T13:51:41Z</time>
      </trkpt>
      <trkpt lat="49.89698" lon="2.48601">
        <ele>33.9</ele>
        <time>2023-09-27T13:51:42Z</time>
      </trkpt>
      <trkpt lat="49.89699" lon="2.48601">
        <ele>33.9</ele>
        <time>2023-09-27T13:51:43Z</time>
      </trkpt>
      <trkpt lat="49.897" lon="2.48601">
        <ele>33.9</ele>
        <time>2023-09-27T13:51:44Z</time>
      </trkpt>
      <trkpt lat="49.89702" lon="2.486">
        <ele>33.8</ele>
        <time>2023-09-27T13:51:45Z</time>
      </trkpt>
      <trkpt lat="49.89703" lon="2.48599">
        <ele>33.8</ele>
        <time>2023-09-27T13:51:46Z</time>
      </trkpt>
      <trkpt lat="49.89704" lon="2.48599">
        <ele>33.8</ele>
        <time>2023-09-27T13:51:47Z</time>
      </trkpt>
      <trkpt lat="49.89705" lon="2.48599">
        <ele>33.8</ele>
        <time>2023-09-27T13:51:48Z</time>
      </trkpt>
      <trkpt lat="49.89706" lon="2.48598">
        <ele>33.8</ele>
        <time>2023-09-27T13:51:49Z</time>
      </trkpt>
      <trkpt lat="49.89707" lon="2.48598">
        <ele>33.7</ele>
        <time>2023-09-27T13:51:50Z</time>
      </trkpt>
      <trkpt lat="49.89708" lon="2.48597">
        <ele>33.7</ele>
        <time>2023-09-27T13:51:51Z</time>
      </trkpt>
      <trkpt lat="49.89709" lon="2.48597">
        <ele>33.7</ele>
        <time>2023-09-27T13:51:52Z</time>
      </trkpt>
      <trkpt lat="49.8971" lon="2.48596">
        <ele>33.7</ele>
        <time>2023-09-27T13:51:53Z</time>
      </trkpt>
      <trkpt lat="49.89711" lon="2.48595">
        <ele>33.6</ele>
        <time>2023-09-27T13:51:54Z</time>
      </trkpt>
      <trkpt lat="49.89713" lon="2.48595">
        <ele>33.6</ele>
        <time>2023-09-27T13:51:55Z</time>
      </trkpt>
      <trkpt lat="49.89714" lon="2.48594">
        <ele>33.6</ele>
        <time>2023-09-27T13:51:56Z</time>
      </trkpt>
      <trkpt lat="49.89715" lon="2.48594">
        <ele>33.6</ele>
        <time>2023-09-27T13:51:57Z</time>
      </trkpt>
      <trkpt lat="49.89716" lon="2.48593">
        <ele>33.6</ele>
        <time>2023-09-27T13:51:58Z</time>
      </trkpt>
      <trkpt lat="49.89717" lon="2.48592">
        <ele>33.5</ele>
        <time>2023-09-27T13:51:59Z</time>
      </trkpt>
      <trkpt lat="49.89718" lon="2.48592">
        <ele>33.5</ele>
        <time>2023-09-27T13:52:00Z</time>
      </trkpt>
      <trkpt lat="49.89719" lon="2.48591">
        <ele>33.5</ele>
        <time>2023-09-27T13:52:01Z</time>
      </trkpt>
      <trkpt lat="49.8972" lon="2.48591">
        <ele>33.5</ele>
        <time>2023-09-27T13:52:02Z</time>
      </trkpt>
      <trkpt lat="49.89721" lon="2.4859">
        <ele>33.5</ele>
        <time>2023-09-27T13:52:03Z</time>
      </trkpt>
      <trkpt lat="49.89722" lon="2.48589">
        <ele>33.4</ele>
        <time>2023-09-27T13:52:04Z</time>
      </trkpt>
      <trkpt lat="49.89723" lon="2.48589">
        <ele>33.4</ele>
        <time>2023-09-27T13:52:05Z</time>
      </trkpt>
      <trkpt lat="49.89725" lon="2.48588">
        <ele>33.4</ele>
        <time>2023-09-27T13:52:06Z</time>
      </trkpt>
      <trkpt lat="49.89726" lon="2.48587">
        <ele>33.4</ele>
        <time>2023-09-27T13:52:07Z</time>
      </trkpt>
      <trkpt lat="49.89727" lon="2.48587">
        <ele>33.4</ele>
        <time>2023-09-27T13:52:08Z</time>
      </trkpt>
      <trkpt lat="49.89728" lon="2.48587">
        <ele>33.4</ele>
        <time>2023-09-27T13:52:09Z</time>
      </trkpt>
      <trkpt lat="49.89729" lon="2.48586">
        <ele>33.3</ele>
        <time>2023-09-27T13:52:10Z</time>
      </trkpt>
      <trkpt lat="49.8973" lon="2.48586">
        <ele>33.3</ele>
        <time>2023-09-27T13:52:11Z</time>
      </trkpt>
      <trkpt lat="49.89731" lon="2.48586">
        <ele>33.3</ele>
        <time>2023-09-27T13:52:12Z</time>
      </trkpt>
      <trkpt lat="49.89732" lon="2.48585">
        <ele>33.3</ele>
        <time>2023-09-27T13:52:13Z</time>
      </trkpt>
      <trkpt lat="49.89733" lon="2.48585">
        <ele>33.3</ele>
        <time>2023-09-27T13:52:14Z</time>
      </trkpt>
      <trkpt lat="49.89735" lon="2.48584">
        <ele>33.3</ele>
        <time>2023-09-27T13:52:15Z</time>
      </trkpt>
      <trkpt lat="49.89736" lon="2.48584">
        <ele>33.2</ele>
        <time>2023-09-27T13:52:16Z</time>
      </trkpt>
      <trkpt lat="49.89737" lon="2.48583">
        <ele>33.2</ele>
        <time>2023-09-27T13:52:17Z</time>
      </trkpt>
      <trkpt lat="49.89738" lon="2.48582">
        <ele>33.2</ele>
        <time>2023-09-27T13:52:18Z</time>
      </trkpt>
      <trkpt lat="49.89739" lon="2.48582">
        <ele>33.2</ele>
        <time>2023-09-27T13:52:19Z</time>
      </trkpt>
      <trkpt lat="49.8974" lon="2.48581">
        <ele>33.2</ele>
        <time>2023-09-27T13:52:20Z</time>
      </trkpt>
      <trkpt lat="49.89741" lon="2.4858">
        <ele>33.2</ele>
        <time>2023-09-27T13:52:21Z</time>
      </trkpt>
      <trkpt lat="49.89742" lon="2.4858">
        <ele>33.2</ele>
        <time>2023-09-27T13:52:22Z</time>
      </trkpt>
      <trkpt lat="49.89743" lon="2.48579">
        <ele>33.1</ele>
        <time>2023-09-27T13:52:23Z</time>
      </trkpt>
      <trkpt lat="49.89744" lon="2.48578">
        <ele>33.1</ele>
        <time>2023-09-27T13:52:24Z</time>
      </trkpt>
      <trkpt lat="49.89745" lon="2.48578">
        <ele>33.1</ele>
        <time>2023-09-27T13:52:25Z</time>
      </trkpt>
      <trkpt lat="49.89746" lon="2.48577">
        <ele>33.1</ele>
        <time>2023-09-27T13:52:26Z</time>
      </trkpt>
      <trkpt lat="49.89747" lon="2.48576">
        <ele>33.1</ele>
        <time>2023-09-27T13:52:27Z</time>
      </trkpt>
      <trkpt lat="49.89748" lon="2.48576">
        <ele>33.1</ele>
        <time>2023-09-27T13:52:28Z</time>
      </trkpt>
      <trkpt lat="49.89749" lon="2.48575">
        <ele>33.1</ele>
        <time>2023-09-27T13:52:29Z</time>
      </trkpt>
      <trkpt lat="49.8975" lon="2.48575">
        <ele>33.1</ele>
        <time>2023-09-27T13:52:30Z</time>
      </trkpt>
      <trkpt lat="49.89751" lon="2.48574">
        <ele>33</ele>
        <time>2023-09-27T13:52:31Z</time>
      </trkpt>
      <trkpt lat="49.89752" lon="2.48573">
        <ele>33</ele>
        <time>2023-09-27T13:52:32Z</time>
      </trkpt>
      <trkpt lat="49.89753" lon="2.48573">
        <ele>33</ele>
        <time>2023-09-27T13:52:33Z</time>
      </trkpt>
      <trkpt lat="49.89754" lon="2.48572">
        <ele>33</ele>
        <time>2023-09-27T13:52:34Z</time>
      </trkpt>
      <trkpt lat="49.89755" lon="2.48571">
        <ele>33</ele>
        <time>2023-09-27T13:52:35Z</time>
      </trkpt>
      <trkpt lat="49.89756" lon="2.48571">
        <ele>33</ele>
        <time>2023-09-27T13:52:36Z</time>
      </trkpt>
      <trkpt lat="49.89757" lon="2.4857">
        <ele>33</ele>
        <time>2023-09-27T13:52:37Z</time>
      </trkpt>
      <trkpt lat="49.89758" lon="2.4857">
        <ele>33</ele>
        <time>2023-09-27T13:52:38Z</time>
      </trkpt>
      <trkpt lat="49.89759" lon="2.48569">
        <ele>32.9</ele>
        <time>2023-09-27T13:52:39Z</time>
      </trkpt>
      <trkpt lat="49.8976" lon="2.48569">
        <ele>32.9</ele>
        <time>2023-09-27T13:52:40Z</time>
      </trkpt>
      <trkpt lat="49.89761" lon="2.48568">
        <ele>32.9</ele>
        <time>2023-09-27T13:52:41Z</time>
      </trkpt>
      <trkpt lat="49.89763" lon="2.48567">
        <ele>32.9</ele>
        <time>2023-09-27T13:52:42Z</time>
      </trkpt>
      <trkpt lat="49.89764" lon="2.48567">
        <ele>32.9</ele>
        <time>2023-09-27T13:52:43Z</time>
      </trkpt>
      <trkpt lat="49.89764" lon="2.48566">
        <ele>32.9</ele>
        <time>2023-09-27T13:52:44Z</time>
      </trkpt>
      <trkpt lat="49.89766" lon="2.48565">
        <ele>32.9</ele>
        <time>2023-09-27T13:52:45Z</time>
      </trkpt>
      <trkpt lat="49.89767" lon="2.48564">
        <ele>32.8</ele>
        <time>2023-09-27T13:52:46Z</time>
      </trkpt>
      <trkpt lat="49.89768" lon="2.48564">
        <ele>32.8</ele>
        <time>2023-09-27T13:52:47Z</time>
      </trkpt>
      <trkpt lat="49.89769" lon="2.48563">
        <ele>32.8</ele>
        <time>2023-09-27T13:52:48Z</time>
      </trkpt>
      <trkpt lat="49.8977" lon="2.48563">
        <ele>32.8</ele>
        <time>2023-09-27T13:52:49Z</time>
      </trkpt>
      <trkpt lat="49.89771" lon="2.48563">
        <ele>32.8</ele>
        <time>2023-09-27T13:52:50Z</time>
      </trkpt>
      <trkpt lat="49.89773" lon="2.48562">
        <ele>32.8</ele>
        <time>2023-09-27T13:52:51Z</time>
      </trkpt>
      <trkpt lat="49.89774" lon="2.48562">
        <ele>32.8</ele>
        <time>2023-09-27T13:52:52Z</time>
      </trkpt>
      <trkpt lat="49.89775" lon="2.48561">
        <ele>32.8</ele>
        <time>2023-09-27T13:52:53Z</time>
      </trkpt>
      <trkpt lat="49.89776" lon="2.48561">
        <ele>32.8</ele>
        <time>2023-09-27T13:52:54Z</time>
      </trkpt>
      <trkpt lat="49.89777" lon="2.4856">
        <ele>32.8</ele>
        <time>2023-09-27T13:52:55Z</time>
      </trkpt>
      <trkpt lat="49.89778" lon="2.48559">
        <ele>32.8</ele>
        <time>2023-09-27T13:52:56Z</time>
      </trkpt>
      <trkpt lat="49.89779" lon="2.48559">
        <ele>32.7</ele>
        <time>2023-09-27T13:52:57Z</time>
      </trkpt>
      <trkpt lat="49.8978" lon="2.48558">
        <ele>32.7</ele>
        <time>2023-09-27T13:52:58Z</time>
      </trkpt>
      <trkpt lat="49.89781" lon="2.48557">
        <ele>32.7</ele>
        <time>2023-09-27T13:52:59Z</time>
      </trkpt>
      <trkpt lat="49.89782" lon="2.48557">
        <ele>32.7</ele>
        <time>2023-09-27T13:53:00Z</time>
      </trkpt>
      <trkpt lat="49.89783" lon="2.48556">
        <ele>32.6</ele>
        <time>2023-09-27T13:53:01Z</time>
      </trkpt>
      <trkpt lat="49.89783" lon="2.48556">
        <ele>32.6</ele>
        <time>2023-09-27T13:53:02Z</time>
      </trkpt>
      <trkpt lat="49.89784" lon="2.48556">
        <ele>32.6</ele>
        <time>2023-09-27T13:53:03Z</time>
      </trkpt>
      <trkpt lat="49.89785" lon="2.48556">
        <ele>32.6</ele>
        <time>2023-09-27T13:53:04Z</time>
      </trkpt>
      <trkpt lat="49.89786" lon="2.48556">
        <ele>32.6</ele>
        <time>2023-09-27T13:53:05Z</time>
      </trkpt>
      <trkpt lat="49.89787" lon="2.48556">
        <ele>32.6</ele>
        <time>2023-09-27T13:53:06Z</time>
      </trkpt>
      <trkpt lat="49.89788" lon="2.48557">
        <ele>32.6</ele>
        <time>2023-09-27T13:53:07Z</time>
      </trkpt>
      <trkpt lat="49.89789" lon="2.48559">
        <ele>32.6</ele>
        <time>2023-09-27T13:53:08Z</time>
      </trkpt>
      <trkpt lat="49.89789" lon="2.4856">
        <ele>32.6</ele>
        <time>2023-09-27T13:53:09Z</time>
      </trkpt>
      <trkpt lat="49.8979" lon="2.48562">
        <ele>32.5</ele>
        <time>2023-09-27T13:53:10Z</time>
      </trkpt>
      <trkpt lat="49.8979" lon="2.48563">
        <ele>32.5</ele>
        <time>2023-09-27T13:53:11Z</time>
      </trkpt>
      <trkpt lat="49.8979" lon="2.48564">
        <ele>32.5</ele>
        <time>2023-09-27T13:53:12Z</time>
      </trkpt>
      <trkpt lat="49.8979" lon="2.48566">
        <ele>32.5</ele>
        <time>2023-09-27T13:53:13Z</time>
      </trkpt>
      <trkpt lat="49.8979" lon="2.48568">
        <ele>32.5</ele>
        <time>2023-09-27T13:53:14Z</time>
      </trkpt>
      <trkpt lat="49.8979" lon="2.48569">
        <ele>32.5</ele>
        <time>2023-09-27T13:53:15Z</time>
      </trkpt>
      <trkpt lat="49.8979" lon="2.48571">
        <ele>32.5</ele>
        <time>2023-09-27T13:53:16Z</time>
      </trkpt>
      <trkpt lat="49.8979" lon="2.48573">
        <ele>32.5</ele>
        <time>2023-09-27T13:53:17Z</time>
      </trkpt>
      <trkpt lat="49.89791" lon="2.48574">
        <ele>32.5</ele>
        <time>2023-09-27T13:53:18Z</time>
      </trkpt>
      <trkpt lat="49.89791" lon="2.48576">
        <ele>32.4</ele>
        <time>2023-09-27T13:53:19Z</time>
      </trkpt>
      <trkpt lat="49.89791" lon="2.48578">
        <ele>32.4</ele>
        <time>2023-09-27T13:53:20Z</time>
      </trkpt>
      <trkpt lat="49.89792" lon="2.4858">
        <ele>32.4</ele>
        <time>2023-09-27T13:53:21Z</time>
      </trkpt>
      <trkpt lat="49.89792" lon="2.48581">
        <ele>32.3</ele>
        <time>2023-09-27T13:53:22Z</time>
      </trkpt>
      <trkpt lat="49.89792" lon="2.48583">
        <ele>32.3</ele>
        <time>2023-09-27T13:53:23Z</time>
      </trkpt>
      <trkpt lat="49.89792" lon="2.48584">
        <ele>32.3</ele>
        <time>2023-09-27T13:53:24Z</time>
      </trkpt>
      <trkpt lat="49.89792" lon="2.48585">
        <ele>32.3</ele>
        <time>2023-09-27T13:53:25Z</time>
      </trkpt>
      <trkpt lat="49.89792" lon="2.48587">
        <ele>32.3</ele>
        <time>2023-09-27T13:53:26Z</time>
      </trkpt>
      <trkpt lat="49.89793" lon="2.48588">
        <ele>32.3</ele>
        <time>2023-09-27T13:53:27Z</time>
      </trkpt>
      <trkpt lat="49.89793" lon="2.4859">
        <ele>32.2</ele>
        <time>2023-09-27T13:53:28Z</time>
      </trkpt>
      <trkpt lat="49.89793" lon="2.48591">
        <ele>32.2</ele>
        <time>2023-09-27T13:53:29Z</time>
      </trkpt>
      <trkpt lat="49.89794" lon="2.48592">
        <ele>32.2</ele>
        <time>2023-09-27T13:53:30Z</time>
      </trkpt>
      <trkpt lat="49.89794" lon="2.48594">
        <ele>32.2</ele>
        <time>2023-09-27T13:53:31Z</time>
      </trkpt>
      <trkpt lat="49.89795" lon="2.48595">
        <ele>32.2</ele>
        <time>2023-09-27T13:53:32Z</time>
      </trkpt>
      <trkpt lat="49.89796" lon="2.48597">
        <ele>32.2</ele>
        <time>2023-09-27T13:53:33Z</time>
      </trkpt>
      <trkpt lat="49.89796" lon="2.48598">
        <ele>32.2</ele>
        <time>2023-09-27T13:53:34Z</time>
      </trkpt>
      <trkpt lat="49.89797" lon="2.486">
        <ele>32.2</ele>
        <time>2023-09-27T13:53:35Z</time>
      </trkpt>
      <trkpt lat="49.89797" lon="2.48601">
        <ele>32.2</ele>
        <time>2023-09-27T13:53:36Z</time>
      </trkpt>
      <trkpt lat="49.89798" lon="2.48603">
        <ele>32.1</ele>
        <time>2023-09-27T13:53:37Z</time>
      </trkpt>
      <trkpt lat="49.89798" lon="2.48605">
        <ele>32.1</ele>
        <time>2023-09-27T13:53:38Z</time>
      </trkpt>
      <trkpt lat="49.89798" lon="2.48606">
        <ele>32.1</ele>
        <time>2023-09-27T13:53:39Z</time>
      </trkpt>
      <trkpt lat="49.89799" lon="2.48608">
        <ele>32.1</ele>
        <time>2023-09-27T13:53:40Z</time>
      </trkpt>
      <trkpt lat="49.89799" lon="2.48611">
        <ele>32.1</ele>
        <time>2023-09-27T13:53:41Z</time>
      </trkpt>
      <trkpt lat="49.898" lon="2.48612">
        <ele>32.1</ele>
        <time>2023-09-27T13:53:42Z</time>
      </trkpt>
      <trkpt lat="49.898" lon="2.48613">
        <ele>32.1</ele>
        <time>2023-09-27T13:53:43Z</time>
      </trkpt>
      <trkpt lat="49.898" lon="2.48617">
        <ele>32</ele>
        <time>2023-09-27T13:53:44Z</time>
      </trkpt>
      <trkpt lat="49.89801" lon="2.48618">
        <ele>32</ele>
        <time>2023-09-27T13:53:45Z</time>
      </trkpt>
      <trkpt lat="49.89801" lon="2.48619">
        <ele>32</ele>
        <time>2023-09-27T13:53:46Z</time>
      </trkpt>
      <trkpt lat="49.89801" lon="2.48623">
        <ele>32</ele>
        <time>2023-09-27T13:53:47Z</time>
      </trkpt>
      <trkpt lat="49.89802" lon="2.48624">
        <ele>32</ele>
        <time>2023-09-27T13:53:48Z</time>
      </trkpt>
      <trkpt lat="49.89802" lon="2.48625">
        <ele>32</ele>
        <time>2023-09-27T13:53:49Z</time>
      </trkpt>
      <trkpt lat="49.89802" lon="2.48627">
        <ele>32</ele>
        <time>2023-09-27T13:53:50Z</time>
      </trkpt>
      <trkpt lat="49.89803" lon="2.48628">
        <ele>32</ele>
        <time>2023-09-27T13:53:51Z</time>
      </trkpt>
      <trkpt lat="49.89803" lon="2.4863">
        <ele>31.9</ele>
        <time>2023-09-27T13:53:52Z</time>
      </trkpt>
      <trkpt lat="49.89804" lon="2.48631">
        <ele>31.9</ele>
        <time>2023-09-27T13:53:53Z</time>
      </trkpt>
      <trkpt lat="49.89804" lon="2.48633">
        <ele>31.9</ele>
        <time>2023-09-27T13:53:54Z</time>
      </trkpt>
      <trkpt lat="49.89804" lon="2.48634">
        <ele>31.9</ele>
        <time>2023-09-27T13:53:55Z</time>
      </trkpt>
      <trkpt lat="49.89805" lon="2.48635">
        <ele>31.9</ele>
        <time>2023-09-27T13:53:56Z</time>
      </trkpt>
      <trkpt lat="49.89805" lon="2.48637">
        <ele>31.9</ele>
        <time>2023-09-27T13:53:57Z</time>
      </trkpt>
      <trkpt lat="49.89805" lon="2.48638">
        <ele>31.9</ele>
        <time>2023-09-27T13:53:58Z</time>
      </trkpt>
      <trkpt lat="49.89805" lon="2.48639">
        <ele>31.9</ele>
        <time>2023-09-27T13:53:59Z</time>
      </trkpt>
      <trkpt lat="49.89806" lon="2.48641">
        <ele>31.9</ele>
        <time>2023-09-27T13:54:00Z</time>
      </trkpt>
      <trkpt lat="49.89806" lon="2.48642">
        <ele>31.9</ele>
        <time>2023-09-27T13:54:01Z</time>
      </trkpt>
      <trkpt lat="49.89806" lon="2.48644">
        <ele>31.9</ele>
        <time>2023-09-27T13:54:02Z</time>
      </trkpt>
      <trkpt lat="49.89807" lon="2.48647">
        <ele>31.8</ele>
        <time>2023-09-27T13:54:03Z</time>
      </trkpt>
      <trkpt lat="49.89807" lon="2.48648">
        <ele>31.8</ele>
        <time>2023-09-27T13:54:04Z</time>
      </trkpt>
      <trkpt lat="49.89808" lon="2.4865">
        <ele>31.8</ele>
        <time>2023-09-27T13:54:05Z</time>
      </trkpt>
      <trkpt lat="49.89808" lon="2.48651">
        <ele>31.8</ele>
        <time>2023-09-27T13:54:06Z</time>
      </trkpt>
      <trkpt lat="49.89809" lon="2.48653">
        <ele>31.8</ele>
        <time>2023-09-27T13:54:07Z</time>
      </trkpt>
      <trkpt lat="49.89809" lon="2.48655">
        <ele>31.8</ele>
        <time>2023-09-27T13:54:08Z</time>
      </trkpt>
      <trkpt lat="49.89809" lon="2.48656">
        <ele>31.8</ele>
        <time>2023-09-27T13:54:09Z</time>
      </trkpt>
      <trkpt lat="49.8981" lon="2.48658">
        <ele>31.8</ele>
        <time>2023-09-27T13:54:10Z</time>
      </trkpt>
      <trkpt lat="49.8981" lon="2.4866">
        <ele>31.8</ele>
        <time>2023-09-27T13:54:11Z</time>
      </trkpt>
      <trkpt lat="49.89811" lon="2.48661">
        <ele>31.8</ele>
        <time>2023-09-27T13:54:12Z</time>
      </trkpt>
      <trkpt lat="49.89811" lon="2.48663">
        <ele>31.8</ele>
        <time>2023-09-27T13:54:13Z</time>
      </trkpt>
      <trkpt lat="49.89812" lon="2.48665">
        <ele>31.7</ele>
        <time>2023-09-27T13:54:14Z</time>
      </trkpt>
      <trkpt lat="49.89812" lon="2.48668">
        <ele>31.7</ele>
        <time>2023-09-27T13:54:15Z</time>
      </trkpt>
      <trkpt lat="49.89813" lon="2.48669">
        <ele>31.7</ele>
        <time>2023-09-27T13:54:16Z</time>
      </trkpt>
      <trkpt lat="49.89813" lon="2.4867">
        <ele>31.7</ele>
        <time>2023-09-27T13:54:17Z</time>
      </trkpt>
      <trkpt lat="49.89814" lon="2.48672">
        <ele>31.7</ele>
        <time>2023-09-27T13:54:18Z</time>
      </trkpt>
      <trkpt lat="49.89814" lon="2.48674">
        <ele>31.7</ele>
        <time>2023-09-27T13:54:19Z</time>
      </trkpt>
      <trkpt lat="49.89814" lon="2.48675">
        <ele>31.7</ele>
        <time>2023-09-27T13:54:20Z</time>
      </trkpt>
      <trkpt lat="49.89815" lon="2.48677">
        <ele>31.7</ele>
        <time>2023-09-27T13:54:21Z</time>
      </trkpt>
      <trkpt lat="49.89815" lon="2.48678">
        <ele>31.7</ele>
        <time>2023-09-27T13:54:22Z</time>
      </trkpt>
      <trkpt lat="49.89815" lon="2.4868">
        <ele>31.7</ele>
        <time>2023-09-27T13:54:23Z</time>
      </trkpt>
      <trkpt lat="49.89816" lon="2.48682">
        <ele>31.7</ele>
        <time>2023-09-27T13:54:24Z</time>
      </trkpt>
      <trkpt lat="49.89816" lon="2.48683">
        <ele>31.7</ele>
        <time>2023-09-27T13:54:25Z</time>
      </trkpt>
      <trkpt lat="49.89817" lon="2.48685">
        <ele>31.7</ele>
        <time>2023-09-27T13:54:26Z</time>
      </trkpt>
      <trkpt lat="49.89817" lon="2.48687">
        <ele>31.7</ele>
        <time>2023-09-27T13:54:27Z</time>
      </trkpt>
      <trkpt lat="49.89817" lon="2.48689">
        <ele>31.7</ele>
        <time>2023-09-27T13:54:28Z</time>
      </trkpt>
      <trkpt lat="49.89818" lon="2.4869">
        <ele>31.7</ele>
        <time>2023-09-27T13:54:29Z</time>
      </trkpt>
      <trkpt lat="49.89818" lon="2.48692">
        <ele>31.7</ele>
        <time>2023-09-27T13:54:30Z</time>
      </trkpt>
      <trkpt lat="49.89818" lon="2.48694">
        <ele>31.7</ele>
        <time>2023-09-27T13:54:31Z</time>
      </trkpt>
      <trkpt lat="49.89819" lon="2.48696">
        <ele>31.7</ele>
        <time>2023-09-27T13:54:32Z</time>
      </trkpt>
      <trkpt lat="49.89819" lon="2.48697">
        <ele>31.6</ele>
        <time>2023-09-27T13:54:33Z</time>
      </trkpt>
      <trkpt lat="49.89819" lon="2.48699">
        <ele>31.6</ele>
        <time>2023-09-27T13:54:34Z</time>
      </trkpt>
      <trkpt lat="49.89819" lon="2.48701">
        <ele>31.6</ele>
        <time>2023-09-27T13:54:35Z</time>
      </trkpt>
      <trkpt lat="49.8982" lon="2.48702">
        <ele>31.6</ele>
        <time>2023-09-27T13:54:36Z</time>
      </trkpt>
      <trkpt lat="49.8982" lon="2.48704">
        <ele>31.6</ele>
        <time>2023-09-27T13:54:37Z</time>
      </trkpt>
      <trkpt lat="49.8982" lon="2.48706">
        <ele>31.6</ele>
        <time>2023-09-27T13:54:38Z</time>
      </trkpt>
      <trkpt lat="49.8982" lon="2.48709">
        <ele>31.6</ele>
        <time>2023-09-27T13:54:39Z</time>
      </trkpt>
      <trkpt lat="49.89821" lon="2.4871">
        <ele>31.6</ele>
        <time>2023-09-27T13:54:40Z</time>
      </trkpt>
      <trkpt lat="49.89821" lon="2.48711">
        <ele>31.6</ele>
        <time>2023-09-27T13:54:41Z</time>
      </trkpt>
      <trkpt lat="49.89821" lon="2.48715">
        <ele>31.6</ele>
        <time>2023-09-27T13:54:42Z</time>
      </trkpt>
      <trkpt lat="49.89821" lon="2.48716">
        <ele>31.6</ele>
        <time>2023-09-27T13:54:43Z</time>
      </trkpt>
      <trkpt lat="49.89821" lon="2.48717">
        <ele>31.6</ele>
        <time>2023-09-27T13:54:44Z</time>
      </trkpt>
      <trkpt lat="49.89822" lon="2.4872">
        <ele>31.6</ele>
        <time>2023-09-27T13:54:45Z</time>
      </trkpt>
      <trkpt lat="49.89822" lon="2.48721">
        <ele>31.6</ele>
        <time>2023-09-27T13:54:46Z</time>
      </trkpt>
      <trkpt lat="49.89822" lon="2.48723">
        <ele>31.6</ele>
        <time>2023-09-27T13:54:47Z</time>
      </trkpt>
      <trkpt lat="49.89822" lon="2.48724">
        <ele>31.6</ele>
        <time>2023-09-27T13:54:48Z</time>
      </trkpt>
      <trkpt lat="49.89822" lon="2.48726">
        <ele>31.6</ele>
        <time>2023-09-27T13:54:49Z</time>
      </trkpt>
      <trkpt lat="49.89823" lon="2.48728">
        <ele>31.6</ele>
        <time>2023-09-27T13:54:50Z</time>
      </trkpt>
      <trkpt lat="49.89823" lon="2.48729">
        <ele>31.6</ele>
        <time>2023-09-27T13:54:51Z</time>
      </trkpt>
      <trkpt lat="49.89823" lon="2.48731">
        <ele>31.6</ele>
        <time>2023-09-27T13:54:52Z</time>
      </trkpt>
      <trkpt lat="49.89823" lon="2.48733">
        <ele>31.6</ele>
        <time>2023-09-27T13:54:53Z</time>
      </trkpt>
      <trkpt lat="49.89823" lon="2.48734">
        <ele>31.6</ele>
        <time>2023-09-27T13:54:54Z</time>
      </trkpt>
      <trkpt lat="49.89824" lon="2.48736">
        <ele>31.6</ele>
        <time>2023-09-27T13:54:55Z</time>
      </trkpt>
      <trkpt lat="49.89824" lon="2.48737">
        <ele>31.6</ele>
        <time>2023-09-27T13:54:56Z</time>
      </trkpt>
      <trkpt lat="49.89824" lon="2.48739">
        <ele>31.6</ele>
        <time>2023-09-27T13:54:57Z</time>
      </trkpt>
      <trkpt lat="49.89824" lon="2.48741">
        <ele>31.6</ele>
        <time>2023-09-27T13:54:58Z</time>
      </trkpt>
      <trkpt lat="49.89824" lon="2.48742">
        <ele>31.6</ele>
        <time>2023-09-27T13:54:59Z</time>
      </trkpt>
      <trkpt lat="49.89825" lon="2.48744">
        <ele>31.6</ele>
        <time>2023-09-27T13:55:00Z</time>
      </trkpt>
      <trkpt lat="49.89825" lon="2.48746">
        <ele>31.6</ele>
        <time>2023-09-27T13:55:01Z</time>
      </trkpt>
      <trkpt lat="49.89825" lon="2.48747">
        <ele>31.6</ele>
        <time>2023-09-27T13:55:02Z</time>
      </trkpt>
      <trkpt lat="49.89825" lon="2.48749">
        <ele>31.6</ele>
        <time>2023-09-27T13:55:03Z</time>
      </trkpt>
      <trkpt lat="49.89825" lon="2.48751">
        <ele>31.6</ele>
        <time>2023-09-27T13:55:04Z</time>
      </trkpt>
      <trkpt lat="49.89825" lon="2.48753">
        <ele>31.6</ele>
        <time>2023-09-27T13:55:05Z</time>
      </trkpt>
      <trkpt lat="49.89826" lon="2.48756">
        <ele>31.6</ele>
        <time>2023-09-27T13:55:06Z</time>
      </trkpt>
      <trkpt lat="49.89826" lon="2.48757">
        <ele>31.6</ele>
        <time>2023-09-27T13:55:07Z</time>
      </trkpt>
      <trkpt lat="49.89826" lon="2.48759">
        <ele>31.6</ele>
        <time>2023-09-27T13:55:08Z</time>
      </trkpt>
      <trkpt lat="49.89827" lon="2.48762">
        <ele>31.6</ele>
        <time>2023-09-27T13:55:09Z</time>
      </trkpt>
      <trkpt lat="49.89827" lon="2.48763">
        <ele>31.6</ele>
        <time>2023-09-27T13:55:10Z</time>
      </trkpt>
      <trkpt lat="49.89827" lon="2.48765">
        <ele>31.6</ele>
        <time>2023-09-27T13:55:11Z</time>
      </trkpt>
      <trkpt lat="49.89828" lon="2.48766">
        <ele>31.5</ele>
        <time>2023-09-27T13:55:12Z</time>
      </trkpt>
      <trkpt lat="49.89828" lon="2.48768">
        <ele>31.5</ele>
        <time>2023-09-27T13:55:13Z</time>
      </trkpt>
      <trkpt lat="49.89829" lon="2.48769">
        <ele>31.5</ele>
        <time>2023-09-27T13:55:14Z</time>
      </trkpt>
      <trkpt lat="49.89829" lon="2.48771">
        <ele>31.5</ele>
        <time>2023-09-27T13:55:15Z</time>
      </trkpt>
      <trkpt lat="49.8983" lon="2.48772">
        <ele>31.5</ele>
        <time>2023-09-27T13:55:16Z</time>
      </trkpt>
      <trkpt lat="49.8983" lon="2.48774">
        <ele>31.5</ele>
        <time>2023-09-27T13:55:17Z</time>
      </trkpt>
      <trkpt lat="49.89832" lon="2.48776">
        <ele>31.4</ele>
        <time>2023-09-27T13:55:18Z</time>
      </trkpt>
      <trkpt lat="49.89832" lon="2.48777">
        <ele>31.4</ele>
        <time>2023-09-27T13:55:19Z</time>
      </trkpt>
      <trkpt lat="49.89833" lon="2.48778">
        <ele>31.4</ele>
        <time>2023-09-27T13:55:20Z</time>
      </trkpt>
      <trkpt lat="49.89834" lon="2.48781">
        <ele>31.4</ele>
        <time>2023-09-27T13:55:21Z</time>
      </trkpt>
      <trkpt lat="49.89834" lon="2.48782">
        <ele>31.4</ele>
        <time>2023-09-27T13:55:22Z</time>
      </trkpt>
      <trkpt lat="49.89835" lon="2.48782">
        <ele>31.4</ele>
        <time>2023-09-27T13:55:23Z</time>
      </trkpt>
      <trkpt lat="49.89836" lon="2.48784">
        <ele>31.3</ele>
        <time>2023-09-27T13:55:24Z</time>
      </trkpt>
      <trkpt lat="49.89837" lon="2.48785">
        <ele>31.3</ele>
        <time>2023-09-27T13:55:25Z</time>
      </trkpt>
      <trkpt lat="49.89838" lon="2.48786">
        <ele>31.3</ele>
        <time>2023-09-27T13:55:26Z</time>
      </trkpt>
      <trkpt lat="49.89839" lon="2.48787">
        <ele>31.3</ele>
        <time>2023-09-27T13:55:27Z</time>
      </trkpt>
      <trkpt lat="49.8984" lon="2.48788">
        <ele>31.2</ele>
        <time>2023-09-27T13:55:28Z</time>
      </trkpt>
      <trkpt lat="49.8984" lon="2.48788">
        <ele>31.2</ele>
        <time>2023-09-27T13:55:29Z</time>
      </trkpt>
      <trkpt lat="49.89841" lon="2.48789">
        <ele>31.2</ele>
        <time>2023-09-27T13:55:30Z</time>
      </trkpt>
      <trkpt lat="49.89842" lon="2.4879">
        <ele>31.2</ele>
        <time>2023-09-27T13:55:31Z</time>
      </trkpt>
      <trkpt lat="49.89843" lon="2.4879">
        <ele>31.2</ele>
        <time>2023-09-27T13:55:32Z</time>
      </trkpt>
      <trkpt lat="49.89844" lon="2.48791">
        <ele>31.1</ele>
        <time>2023-09-27T13:55:33Z</time>
      </trkpt>
      <trkpt lat="49.89845" lon="2.48792">
        <ele>31.1</ele>
        <time>2023-09-27T13:55:34Z</time>
      </trkpt>
      <trkpt lat="49.89846" lon="2.48792">
        <ele>31.1</ele>
        <time>2023-09-27T13:55:35Z</time>
      </trkpt>
      <trkpt lat="49.89847" lon="2.48793">
        <ele>31</ele>
        <time>2023-09-27T13:55:36Z</time>
      </trkpt>
      <trkpt lat="49.89849" lon="2.48793">
        <ele>31</ele>
        <time>2023-09-27T13:55:37Z</time>
      </trkpt>
      <trkpt lat="49.8985" lon="2.48794">
        <ele>31</ele>
        <time>2023-09-27T13:55:38Z</time>
      </trkpt>
      <trkpt lat="49.89852" lon="2.48795">
        <ele>30.9</ele>
        <time>2023-09-27T13:55:39Z</time>
      </trkpt>
      <trkpt lat="49.89852" lon="2.48795">
        <ele>30.9</ele>
        <time>2023-09-27T13:55:40Z</time>
      </trkpt>
      <trkpt lat="49.89853" lon="2.48796">
        <ele>30.9</ele>
        <time>2023-09-27T13:55:41Z</time>
      </trkpt>
      <trkpt lat="49.89854" lon="2.48796">
        <ele>30.9</ele>
        <time>2023-09-27T13:55:42Z</time>
      </trkpt>
      <trkpt lat="49.89855" lon="2.48797">
        <ele>30.8</ele>
        <time>2023-09-27T13:55:43Z</time>
      </trkpt>
      <trkpt lat="49.89856" lon="2.48797">
        <ele>30.8</ele>
        <time>2023-09-27T13:55:44Z</time>
      </trkpt>
      <trkpt lat="49.89858" lon="2.48798">
        <ele>30.8</ele>
        <time>2023-09-27T13:55:45Z</time>
      </trkpt>
      <trkpt lat="49.89859" lon="2.48798">
        <ele>30.8</ele>
        <time>2023-09-27T13:55:46Z</time>
      </trkpt>
      <trkpt lat="49.8986" lon="2.48798">
        <ele>30.7</ele>
        <time>2023-09-27T13:55:47Z</time>
      </trkpt>
      <trkpt lat="49.89861" lon="2.48799">
        <ele>30.7</ele>
        <time>2023-09-27T13:55:48Z</time>
      </trkpt>
      <trkpt lat="49.89863" lon="2.48799">
        <ele>30.7</ele>
        <time>2023-09-27T13:55:49Z</time>
      </trkpt>
      <trkpt lat="49.89864" lon="2.48799">
        <ele>30.7</ele>
        <time>2023-09-27T13:55:50Z</time>
      </trkpt>
      <trkpt lat="49.89866" lon="2.48799">
        <ele>30.6</ele>
        <time>2023-09-27T13:55:51Z</time>
      </trkpt>
      <trkpt lat="49.89867" lon="2.488">
        <ele>30.6</ele>
        <time>2023-09-27T13:55:52Z</time>
      </trkpt>
      <trkpt lat="49.89869" lon="2.488">
        <ele>30.6</ele>
        <time>2023-09-27T13:55:53Z</time>
      </trkpt>
      <trkpt lat="49.8987" lon="2.488">
        <ele>30.6</ele>
        <time>2023-09-27T13:55:54Z</time>
      </trkpt>
      <trkpt lat="49.89872" lon="2.488">
        <ele>30.5</ele>
        <time>2023-09-27T13:55:55Z</time>
      </trkpt>
      <trkpt lat="49.89874" lon="2.488">
        <ele>30.5</ele>
        <time>2023-09-27T13:55:56Z</time>
      </trkpt>
      <trkpt lat="49.89874" lon="2.488">
        <ele>30.5</ele>
        <time>2023-09-27T13:55:57Z</time>
      </trkpt>
      <trkpt lat="49.89875" lon="2.488">
        <ele>30.5</ele>
        <time>2023-09-27T13:55:58Z</time>
      </trkpt>
      <trkpt lat="49.89876" lon="2.488">
        <ele>30.5</ele>
        <time>2023-09-27T13:55:59Z</time>
      </trkpt>
      <trkpt lat="49.89877" lon="2.488">
        <ele>30.5</ele>
        <time>2023-09-27T13:56:00Z</time>
      </trkpt>
      <trkpt lat="49.89879" lon="2.488">
        <ele>30.4</ele>
        <time>2023-09-27T13:56:01Z</time>
      </trkpt>
      <trkpt lat="49.89881" lon="2.488">
        <ele>30.4</ele>
        <time>2023-09-27T13:56:02Z</time>
      </trkpt>
      <trkpt lat="49.89881" lon="2.488">
        <ele>30.4</ele>
        <time>2023-09-27T13:56:03Z</time>
      </trkpt>
      <trkpt lat="49.89882" lon="2.488">
        <ele>30.4</ele>
        <time>2023-09-27T13:56:04Z</time>
      </trkpt>
      <trkpt lat="49.89884" lon="2.48801">
        <ele>30.4</ele>
        <time>2023-09-27T13:56:05Z</time>
      </trkpt>
      <trkpt lat="49.89885" lon="2.48801">
        <ele>30.4</ele>
        <time>2023-09-27T13:56:06Z</time>
      </trkpt>
      <trkpt lat="49.89886" lon="2.48801">
        <ele>30.4</ele>
        <time>2023-09-27T13:56:07Z</time>
      </trkpt>
      <trkpt lat="49.89888" lon="2.48801">
        <ele>30.3</ele>
        <time>2023-09-27T13:56:08Z</time>
      </trkpt>
      <trkpt lat="49.89889" lon="2.48801">
        <ele>30.3</ele>
        <time>2023-09-27T13:56:09Z</time>
      </trkpt>
      <trkpt lat="49.8989" lon="2.48801">
        <ele>30.3</ele>
        <time>2023-09-27T13:56:10Z</time>
      </trkpt>
      <trkpt lat="49.89891" lon="2.48802">
        <ele>30.3</ele>
        <time>2023-09-27T13:56:11Z</time>
      </trkpt>
      <trkpt lat="49.89892" lon="2.48802">
        <ele>30.3</ele>
        <time>2023-09-27T13:56:12Z</time>
      </trkpt>
      <trkpt lat="49.89893" lon="2.48802">
        <ele>30.3</ele>
        <time>2023-09-27T13:56:13Z</time>
      </trkpt>
      <trkpt lat="49.89894" lon="2.48802">
        <ele>30.3</ele>
        <time>2023-09-27T13:56:14Z</time>
      </trkpt>
      <trkpt lat="49.89895" lon="2.48803">
        <ele>30.3</ele>
        <time>2023-09-27T13:56:15Z</time>
      </trkpt>
      <trkpt lat="49.89896" lon="2.48803">
        <ele>30.2</ele>
        <time>2023-09-27T13:56:16Z</time>
      </trkpt>
      <trkpt lat="49.89897" lon="2.48803">
        <ele>30.2</ele>
        <time>2023-09-27T13:56:17Z</time>
      </trkpt>
      <trkpt lat="49.89897" lon="2.48804">
        <ele>30.2</ele>
        <time>2023-09-27T13:56:18Z</time>
      </trkpt>
      <trkpt lat="49.89898" lon="2.48805">
        <ele>30.2</ele>
        <time>2023-09-27T13:56:19Z</time>
      </trkpt>
      <trkpt lat="49.89899" lon="2.48806">
        <ele>30.2</ele>
        <time>2023-09-27T13:56:20Z</time>
      </trkpt>
      <trkpt lat="49.89899" lon="2.48807">
        <ele>30.2</ele>
        <time>2023-09-27T13:56:21Z</time>
      </trkpt>
      <trkpt lat="49.899" lon="2.48808">
        <ele>30.2</ele>
        <time>2023-09-27T13:56:22Z</time>
      </trkpt>
      <trkpt lat="49.89901" lon="2.48809">
        <ele>30.2</ele>
        <time>2023-09-27T13:56:23Z</time>
      </trkpt>
      <trkpt lat="49.89902" lon="2.4881">
        <ele>30.1</ele>
        <time>2023-09-27T13:56:24Z</time>
      </trkpt>
      <trkpt lat="49.89902" lon="2.4881">
        <ele>30.1</ele>
        <time>2023-09-27T13:56:25Z</time>
      </trkpt>
      <trkpt lat="49.89903" lon="2.48811">
        <ele>30.1</ele>
        <time>2023-09-27T13:56:26Z</time>
      </trkpt>
      <trkpt lat="49.89904" lon="2.48811">
        <ele>30.1</ele>
        <time>2023-09-27T13:56:27Z</time>
      </trkpt>
      <trkpt lat="49.89905" lon="2.48812">
        <ele>30.1</ele>
        <time>2023-09-27T13:56:28Z</time>
      </trkpt>
      <trkpt lat="49.89906" lon="2.48812">
        <ele>30.1</ele>
        <time>2023-09-27T13:56:29Z</time>
      </trkpt>
      <trkpt lat="49.89908" lon="2.48813">
        <ele>30.1</ele>
        <time>2023-09-27T13:56:30Z</time>
      </trkpt>
      <trkpt lat="49.89909" lon="2.48813">
        <ele>30</ele>
        <time>2023-09-27T13:56:31Z</time>
      </trkpt>
      <trkpt lat="49.8991" lon="2.48814">
        <ele>30</ele>
        <time>2023-09-27T13:56:32Z</time>
      </trkpt>
      <trkpt lat="49.89911" lon="2.48814">
        <ele>30</ele>
        <time>2023-09-27T13:56:33Z</time>
      </trkpt>
      <trkpt lat="49.89911" lon="2.48814">
        <ele>30</ele>
        <time>2023-09-27T13:56:34Z</time>
      </trkpt>
      <trkpt lat="49.89912" lon="2.48815">
        <ele>30</ele>
        <time>2023-09-27T13:56:35Z</time>
      </trkpt>
      <trkpt lat="49.89914" lon="2.48815">
        <ele>30</ele>
        <time>2023-09-27T13:56:36Z</time>
      </trkpt>
      <trkpt lat="49.89915" lon="2.48815">
        <ele>30</ele>
        <time>2023-09-27T13:56:37Z</time>
      </trkpt>
      <trkpt lat="49.89916" lon="2.48816">
        <ele>30</ele>
        <time>2023-09-27T13:56:38Z</time>
      </trkpt>
      <trkpt lat="49.89917" lon="2.48816">
        <ele>29.9</ele>
        <time>2023-09-27T13:56:39Z</time>
      </trkpt>
      <trkpt lat="49.89918" lon="2.48816">
        <ele>29.9</ele>
        <time>2023-09-27T13:56:40Z</time>
      </trkpt>
      <trkpt lat="49.89919" lon="2.48816">
        <ele>29.9</ele>
        <time>2023-09-27T13:56:41Z</time>
      </trkpt>
      <trkpt lat="49.8992" lon="2.48816">
        <ele>29.9</ele>
        <time>2023-09-27T13:56:42Z</time>
      </trkpt>
      <trkpt lat="49.89921" lon="2.48816">
        <ele>29.9</ele>
        <time>2023-09-27T13:56:43Z</time>
      </trkpt>
      <trkpt lat="49.89922" lon="2.48816">
        <ele>29.9</ele>
        <time>2023-09-27T13:56:44Z</time>
      </trkpt>
      <trkpt lat="49.89923" lon="2.48816">
        <ele>29.9</ele>
        <time>2023-09-27T13:56:45Z</time>
      </trkpt>
      <trkpt lat="49.89924" lon="2.48816">
        <ele>29.9</ele>
        <time>2023-09-27T13:56:46Z</time>
      </trkpt>
      <trkpt lat="49.89925" lon="2.48815">
        <ele>29.9</ele>
        <time>2023-09-27T13:56:47Z</time>
      </trkpt>
      <trkpt lat="49.89926" lon="2.48815">
        <ele>29.9</ele>
        <time>2023-09-27T13:56:48Z</time>
      </trkpt>
      <trkpt lat="49.89927" lon="2.48815">
        <ele>29.8</ele>
        <time>2023-09-27T13:56:49Z</time>
      </trkpt>
      <trkpt lat="49.89929" lon="2.48815">
        <ele>29.8</ele>
        <time>2023-09-27T13:56:50Z</time>
      </trkpt>
      <trkpt lat="49.8993" lon="2.48815">
        <ele>29.8</ele>
        <time>2023-09-27T13:56:51Z</time>
      </trkpt>
      <trkpt lat="49.89931" lon="2.48815">
        <ele>29.8</ele>
        <time>2023-09-27T13:56:52Z</time>
      </trkpt>
      <trkpt lat="49.89932" lon="2.48816">
        <ele>29.8</ele>
        <time>2023-09-27T13:56:53Z</time>
      </trkpt>
      <trkpt lat="49.89933" lon="2.48816">
        <ele>29.8</ele>
        <time>2023-09-27T13:56:54Z</time>
      </trkpt>
      <trkpt lat="49.89934" lon="2.48816">
        <ele>29.8</ele>
        <time>2023-09-27T13:56:55Z</time>
      </trkpt>
      <trkpt lat="49.89935" lon="2.48816">
        <ele>29.8</ele>
        <time>2023-09-27T13:56:56Z</time>
      </trkpt>
      <trkpt lat="49.89936" lon="2.48816">
        <ele>29.8</ele>
        <time>2023-09-27T13:56:57Z</time>
      </trkpt>
      <trkpt lat="49.89937" lon="2.48816">
        <ele>29.8</ele>
        <time>2023-09-27T13:56:58Z</time>
      </trkpt>
      <trkpt lat="49.89939" lon="2.48816">
        <ele>29.8</ele>
        <time>2023-09-27T13:56:59Z</time>
      </trkpt>
      <trkpt lat="49.8994" lon="2.48815">
        <ele>29.8</ele>
        <time>2023-09-27T13:57:00Z</time>
      </trkpt>
      <trkpt lat="49.89941" lon="2.48815">
        <ele>29.8</ele>
        <time>2023-09-27T13:57:01Z</time>
      </trkpt>
      <trkpt lat="49.89943" lon="2.48815">
        <ele>29.8</ele>
        <time>2023-09-27T13:57:02Z</time>
      </trkpt>
      <trkpt lat="49.89944" lon="2.48815">
        <ele>29.7</ele>
        <time>2023-09-27T13:57:03Z</time>
      </trkpt>
      <trkpt lat="49.89945" lon="2.48814">
        <ele>29.7</ele>
        <time>2023-09-27T13:57:04Z</time>
      </trkpt>
      <trkpt lat="49.89946" lon="2.48814">
        <ele>29.7</ele>
        <time>2023-09-27T13:57:05Z</time>
      </trkpt>
      <trkpt lat="49.89947" lon="2.48814">
        <ele>29.7</ele>
        <time>2023-09-27T13:57:06Z</time>
      </trkpt>
      <trkpt lat="49.89949" lon="2.48813">
        <ele>29.7</ele>
        <time>2023-09-27T13:57:07Z</time>
      </trkpt>
      <trkpt lat="49.8995" lon="2.48813">
        <ele>29.7</ele>
        <time>2023-09-27T13:57:08Z</time>
      </trkpt>
      <trkpt lat="49.89951" lon="2.48813">
        <ele>29.7</ele>
        <time>2023-09-27T13:57:09Z</time>
      </trkpt>
      <trkpt lat="49.89952" lon="2.48812">
        <ele>29.7</ele>
        <time>2023-09-27T13:57:10Z</time>
      </trkpt>
      <trkpt lat="49.89953" lon="2.48812">
        <ele>29.7</ele>
        <time>2023-09-27T13:57:11Z</time>
      </trkpt>
      <trkpt lat="49.89954" lon="2.48812">
        <ele>29.7</ele>
        <time>2023-09-27T13:57:12Z</time>
      </trkpt>
      <trkpt lat="49.89956" lon="2.48811">
        <ele>29.7</ele>
        <time>2023-09-27T13:57:13Z</time>
      </trkpt>
      <trkpt lat="49.89957" lon="2.48811">
        <ele>29.7</ele>
        <time>2023-09-27T13:57:14Z</time>
      </trkpt>
      <trkpt lat="49.89958" lon="2.48811">
        <ele>29.7</ele>
        <time>2023-09-27T13:57:15Z</time>
      </trkpt>
      <trkpt lat="49.89959" lon="2.48811">
        <ele>29.7</ele>
        <time>2023-09-27T13:57:16Z</time>
      </trkpt>
      <trkpt lat="49.8996" lon="2.48812">
        <ele>29.7</ele>
        <time>2023-09-27T13:57:17Z</time>
      </trkpt>
      <trkpt lat="49.89961" lon="2.48812">
        <ele>29.7</ele>
        <time>2023-09-27T13:57:18Z</time>
      </trkpt>
      <trkpt lat="49.89962" lon="2.48812">
        <ele>29.7</ele>
        <time>2023-09-27T13:57:19Z</time>
      </trkpt>
      <trkpt lat="49.89963" lon="2.48812">
        <ele>29.7</ele>
        <time>2023-09-27T13:57:20Z</time>
      </trkpt>
      <trkpt lat="49.89964" lon="2.48813">
        <ele>29.7</ele>
        <time>2023-09-27T13:57:21Z</time>
      </trkpt>
      <trkpt lat="49.89965" lon="2.48813">
        <ele>29.7</ele>
        <time>2023-09-27T13:57:22Z</time>
      </trkpt>
      <trkpt lat="49.89966" lon="2.48814">
        <ele>29.7</ele>
        <time>2023-09-27T13:57:23Z</time>
      </trkpt>
      <trkpt lat="49.89967" lon="2.48814">
        <ele>29.7</ele>
        <time>2023-09-27T13:57:24Z</time>
      </trkpt>
      <trkpt lat="49.89968" lon="2.48814">
        <ele>29.7</ele>
        <time>2023-09-27T13:57:25Z</time>
      </trkpt>
      <trkpt lat="49.89969" lon="2.48815">
        <ele>29.7</ele>
        <time>2023-09-27T13:57:26Z</time>
      </trkpt>
      <trkpt lat="49.8997" lon="2.48815">
        <ele>29.7</ele>
        <time>2023-09-27T13:57:27Z</time>
      </trkpt>
      <trkpt lat="49.89971" lon="2.48815">
        <ele>29.7</ele>
        <time>2023-09-27T13:57:28Z</time>
      </trkpt>
      <trkpt lat="49.89972" lon="2.48816">
        <ele>29.7</ele>
        <time>2023-09-27T13:57:29Z</time>
      </trkpt>
      <trkpt lat="49.89973" lon="2.48816">
        <ele>29.7</ele>
        <time>2023-09-27T13:57:30Z</time>
      </trkpt>
      <trkpt lat="49.89975" lon="2.48817">
        <ele>29.7</ele>
        <time>2023-09-27T13:57:31Z</time>
      </trkpt>
      <trkpt lat="49.89976" lon="2.48818">
        <ele>29.7</ele>
        <time>2023-09-27T13:57:32Z</time>
      </trkpt>
      <trkpt lat="49.89977" lon="2.48818">
        <ele>29.7</ele>
        <time>2023-09-27T13:57:33Z</time>
      </trkpt>
      <trkpt lat="49.89978" lon="2.48819">
        <ele>29.7</ele>
        <time>2023-09-27T13:57:34Z</time>
      </trkpt>
      <trkpt lat="49.89979" lon="2.48819">
        <ele>29.7</ele>
        <time>2023-09-27T13:57:35Z</time>
      </trkpt>
      <trkpt lat="49.8998" lon="2.4882">
        <ele>29.7</ele>
        <time>2023-09-27T13:57:36Z</time>
      </trkpt>
      <trkpt lat="49.89982" lon="2.48821">
        <ele>29.6</ele>
        <time>2023-09-27T13:57:37Z</time>
      </trkpt>
      <trkpt lat="49.89983" lon="2.48821">
        <ele>29.6</ele>
        <time>2023-09-27T13:57:38Z</time>
      </trkpt>
      <trkpt lat="49.89984" lon="2.48822">
        <ele>29.6</ele>
        <time>2023-09-27T13:57:39Z</time>
      </trkpt>
      <trkpt lat="49.89985" lon="2.48822">
        <ele>29.6</ele>
        <time>2023-09-27T13:57:40Z</time>
      </trkpt>
      <trkpt lat="49.89987" lon="2.48823">
        <ele>29.6</ele>
        <time>2023-09-27T13:57:41Z</time>
      </trkpt>
      <trkpt lat="49.89989" lon="2.48825">
        <ele>29.6</ele>
        <time>2023-09-27T13:57:42Z</time>
      </trkpt>
      <trkpt lat="49.89989" lon="2.48825">
        <ele>29.6</ele>
        <time>2023-09-27T13:57:43Z</time>
      </trkpt>
      <trkpt lat="49.8999" lon="2.48826">
        <ele>29.6</ele>
        <time>2023-09-27T13:57:44Z</time>
      </trkpt>
      <trkpt lat="49.89991" lon="2.48827">
        <ele>29.6</ele>
        <time>2023-09-27T13:57:45Z</time>
      </trkpt>
      <trkpt lat="49.89992" lon="2.48827">
        <ele>29.6</ele>
        <time>2023-09-27T13:57:46Z</time>
      </trkpt>
      <trkpt lat="49.89993" lon="2.48828">
        <ele>29.6</ele>
        <time>2023-09-27T13:57:47Z</time>
      </trkpt>
      <trkpt lat="49.89994" lon="2.48829">
        <ele>29.6</ele>
        <time>2023-09-27T13:57:48Z</time>
      </trkpt>
      <trkpt lat="49.89995" lon="2.4883">
        <ele>29.6</ele>
        <time>2023-09-27T13:57:49Z</time>
      </trkpt>
      <trkpt lat="49.89996" lon="2.4883">
        <ele>29.6</ele>
        <time>2023-09-27T13:57:50Z</time>
      </trkpt>
      <trkpt lat="49.89998" lon="2.48832">
        <ele>29.6</ele>
        <time>2023-09-27T13:57:51Z</time>
      </trkpt>
      <trkpt lat="49.89999" lon="2.48832">
        <ele>29.6</ele>
        <time>2023-09-27T13:57:52Z</time>
      </trkpt>
      <trkpt lat="49.89999" lon="2.48833">
        <ele>29.6</ele>
        <time>2023-09-27T13:57:53Z</time>
      </trkpt>
      <trkpt lat="49.9" lon="2.48834">
        <ele>29.6</ele>
        <time>2023-09-27T13:57:54Z</time>
      </trkpt>
      <trkpt lat="49.90001" lon="2.48835">
        <ele>29.5</ele>
        <time>2023-09-27T13:57:55Z</time>
      </trkpt>
      <trkpt lat="49.90002" lon="2.48835">
        <ele>29.5</ele>
        <time>2023-09-27T13:57:56Z</time>
      </trkpt>
      <trkpt lat="49.90003" lon="2.48836">
        <ele>29.5</ele>
        <time>2023-09-27T13:57:57Z</time>
      </trkpt>
      <trkpt lat="49.90004" lon="2.48837">
        <ele>29.5</ele>
        <time>2023-09-27T13:57:58Z</time>
      </trkpt>
      <trkpt lat="49.90005" lon="2.48838">
        <ele>29.5</ele>
        <time>2023-09-27T13:57:59Z</time>
      </trkpt>
      <trkpt lat="49.90006" lon="2.48839">
        <ele>29.5</ele>
        <time>2023-09-27T13:58:00Z</time>
      </trkpt>
      <trkpt lat="49.90007" lon="2.48839">
        <ele>29.5</ele>
        <time>2023-09-27T13:58:01Z</time>
      </trkpt>
      <trkpt lat="49.90008" lon="2.4884">
        <ele>29.5</ele>
        <time>2023-09-27T13:58:02Z</time>
      </trkpt>
      <trkpt lat="49.90009" lon="2.48841">
        <ele>29.5</ele>
        <time>2023-09-27T13:58:03Z</time>
      </trkpt>
      <trkpt lat="49.90009" lon="2.48842">
        <ele>29.5</ele>
        <time>2023-09-27T13:58:04Z</time>
      </trkpt>
      <trkpt lat="49.9001" lon="2.48843">
        <ele>29.5</ele>
        <time>2023-09-27T13:58:05Z</time>
      </trkpt>
      <trkpt lat="49.90011" lon="2.48844">
        <ele>29.5</ele>
        <time>2023-09-27T13:58:06Z</time>
      </trkpt>
      <trkpt lat="49.90012" lon="2.48845">
        <ele>29.5</ele>
        <time>2023-09-27T13:58:07Z</time>
      </trkpt>
      <trkpt lat="49.90013" lon="2.48845">
        <ele>29.5</ele>
        <time>2023-09-27T13:58:08Z</time>
      </trkpt>
      <trkpt lat="49.90013" lon="2.48846">
        <ele>29.5</ele>
        <time>2023-09-27T13:58:09Z</time>
      </trkpt>
      <trkpt lat="49.90014" lon="2.48847">
        <ele>29.5</ele>
        <time>2023-09-27T13:58:10Z</time>
      </trkpt>
      <trkpt lat="49.90015" lon="2.48847">
        <ele>29.4</ele>
        <time>2023-09-27T13:58:11Z</time>
      </trkpt>
      <trkpt lat="49.90016" lon="2.48848">
        <ele>29.4</ele>
        <time>2023-09-27T13:58:12Z</time>
      </trkpt>
      <trkpt lat="49.90017" lon="2.48849">
        <ele>29.4</ele>
        <time>2023-09-27T13:58:13Z</time>
      </trkpt>
      <trkpt lat="49.90018" lon="2.48849">
        <ele>29.4</ele>
        <time>2023-09-27T13:58:14Z</time>
      </trkpt>
      <trkpt lat="49.90019" lon="2.4885">
        <ele>29.4</ele>
        <time>2023-09-27T13:58:15Z</time>
      </trkpt>
      <trkpt lat="49.9002" lon="2.48851">
        <ele>29.4</ele>
        <time>2023-09-27T13:58:16Z</time>
      </trkpt>
      <trkpt lat="49.90021" lon="2.48852">
        <ele>29.4</ele>
        <time>2023-09-27T13:58:17Z</time>
      </trkpt>
      <trkpt lat="49.90022" lon="2.48852">
        <ele>29.4</ele>
        <time>2023-09-27T13:58:18Z</time>
      </trkpt>
      <trkpt lat="49.90023" lon="2.48853">
        <ele>29.4</ele>
        <time>2023-09-27T13:58:19Z</time>
      </trkpt>
      <trkpt lat="49.90024" lon="2.48854">
        <ele>29.4</ele>
        <time>2023-09-27T13:58:20Z</time>
      </trkpt>
      <trkpt lat="49.90025" lon="2.48855">
        <ele>29.4</ele>
        <time>2023-09-27T13:58:21Z</time>
      </trkpt>
      <trkpt lat="49.90026" lon="2.48856">
        <ele>29.3</ele>
        <time>2023-09-27T13:58:22Z</time>
      </trkpt>
      <trkpt lat="49.90028" lon="2.48857">
        <ele>29.3</ele>
        <time>2023-09-27T13:58:23Z</time>
      </trkpt>
      <trkpt lat="49.90028" lon="2.48858">
        <ele>29.3</ele>
        <time>2023-09-27T13:58:24Z</time>
      </trkpt>
      <trkpt lat="49.90029" lon="2.48858">
        <ele>29.3</ele>
        <time>2023-09-27T13:58:25Z</time>
      </trkpt>
      <trkpt lat="49.9003" lon="2.48859">
        <ele>29.3</ele>
        <time>2023-09-27T13:58:26Z</time>
      </trkpt>
      <trkpt lat="49.90031" lon="2.4886">
        <ele>29.3</ele>
        <time>2023-09-27T13:58:27Z</time>
      </trkpt>
      <trkpt lat="49.90032" lon="2.4886">
        <ele>29.3</ele>
        <time>2023-09-27T13:58:28Z</time>
      </trkpt>
      <trkpt lat="49.90033" lon="2.48861">
        <ele>29.3</ele>
        <time>2023-09-27T13:58:29Z</time>
      </trkpt>
      <trkpt lat="49.90034" lon="2.48862">
        <ele>29.3</ele>
        <time>2023-09-27T13:58:30Z</time>
      </trkpt>
      <trkpt lat="49.90035" lon="2.48862">
        <ele>29.3</ele>
        <time>2023-09-27T13:58:31Z</time>
      </trkpt>
      <trkpt lat="49.90036" lon="2.48863">
        <ele>29.3</ele>
        <time>2023-09-27T13:58:32Z</time>
      </trkpt>
      <trkpt lat="49.90037" lon="2.48864">
        <ele>29.3</ele>
        <time>2023-09-27T13:58:33Z</time>
      </trkpt>
      <trkpt lat="49.90038" lon="2.48864">
        <ele>29.3</ele>
        <time>2023-09-27T13:58:34Z</time>
      </trkpt>
      <trkpt lat="49.9004" lon="2.48865">
        <ele>29.3</ele>
        <time>2023-09-27T13:58:35Z</time>
      </trkpt>
      <trkpt lat="49.90041" lon="2.48866">
        <ele>29.3</ele>
        <time>2023-09-27T13:58:36Z</time>
      </trkpt>
      <trkpt lat="49.90042" lon="2.48866">
        <ele>29.3</ele>
        <time>2023-09-27T13:58:37Z</time>
      </trkpt>
      <trkpt lat="49.90043" lon="2.48867">
        <ele>29.3</ele>
        <time>2023-09-27T13:58:38Z</time>
      </trkpt>
      <trkpt lat="49.90044" lon="2.48868">
        <ele>29.3</ele>
        <time>2023-09-27T13:58:39Z</time>
      </trkpt>
      <trkpt lat="49.90045" lon="2.48868">
        <ele>29.3</ele>
        <time>2023-09-27T13:58:40Z</time>
      </trkpt>
      <trkpt lat="49.90046" lon="2.48869">
        <ele>29.3</ele>
        <time>2023-09-27T13:58:41Z</time>
      </trkpt>
      <trkpt lat="49.90047" lon="2.4887">
        <ele>29.3</ele>
        <time>2023-09-27T13:58:42Z</time>
      </trkpt>
      <trkpt lat="49.90048" lon="2.48871">
        <ele>29.3</ele>
        <time>2023-09-27T13:58:43Z</time>
      </trkpt>
      <trkpt lat="49.90049" lon="2.48872">
        <ele>29.3</ele>
        <time>2023-09-27T13:58:44Z</time>
      </trkpt>
      <trkpt lat="49.9005" lon="2.48873">
        <ele>29.3</ele>
        <time>2023-09-27T13:58:45Z</time>
      </trkpt>
      <trkpt lat="49.90051" lon="2.48874">
        <ele>29.3</ele>
        <time>2023-09-27T13:58:46Z</time>
      </trkpt>
      <trkpt lat="49.90052" lon="2.48875">
        <ele>29.3</ele>
        <time>2023-09-27T13:58:47Z</time>
      </trkpt>
      <trkpt lat="49.90053" lon="2.48875">
        <ele>29.3</ele>
        <time>2023-09-27T13:58:48Z</time>
      </trkpt>
      <trkpt lat="49.90054" lon="2.48876">
        <ele>29.4</ele>
        <time>2023-09-27T13:58:49Z</time>
      </trkpt>
      <trkpt lat="49.90054" lon="2.48877">
        <ele>29.4</ele>
        <time>2023-09-27T13:58:50Z</time>
      </trkpt>
      <trkpt lat="49.90055" lon="2.48877">
        <ele>29.4</ele>
        <time>2023-09-27T13:58:51Z</time>
      </trkpt>
      <trkpt lat="49.90056" lon="2.48878">
        <ele>29.4</ele>
        <time>2023-09-27T13:58:52Z</time>
      </trkpt>
      <trkpt lat="49.90057" lon="2.48878">
        <ele>29.4</ele>
        <time>2023-09-27T13:58:53Z</time>
      </trkpt>
      <trkpt lat="49.90058" lon="2.48879">
        <ele>29.4</ele>
        <time>2023-09-27T13:58:54Z</time>
      </trkpt>
      <trkpt lat="49.90058" lon="2.48879">
        <ele>29.4</ele>
        <time>2023-09-27T13:58:55Z</time>
      </trkpt>
      <trkpt lat="49.9006" lon="2.4888">
        <ele>29.4</ele>
        <time>2023-09-27T13:58:56Z</time>
      </trkpt>
      <trkpt lat="49.90061" lon="2.48881">
        <ele>29.4</ele>
        <time>2023-09-27T13:58:57Z</time>
      </trkpt>
      <trkpt lat="49.90062" lon="2.48882">
        <ele>29.4</ele>
        <time>2023-09-27T13:58:58Z</time>
      </trkpt>
      <trkpt lat="49.90063" lon="2.48882">
        <ele>29.4</ele>
        <time>2023-09-27T13:58:59Z</time>
      </trkpt>
      <trkpt lat="49.90065" lon="2.48884">
        <ele>29.4</ele>
        <time>2023-09-27T13:59:00Z</time>
      </trkpt>
      <trkpt lat="49.90066" lon="2.48884">
        <ele>29.4</ele>
        <time>2023-09-27T13:59:01Z</time>
      </trkpt>
      <trkpt lat="49.90066" lon="2.48885">
        <ele>29.4</ele>
        <time>2023-09-27T13:59:02Z</time>
      </trkpt>
      <trkpt lat="49.90068" lon="2.48886">
        <ele>29.4</ele>
        <time>2023-09-27T13:59:03Z</time>
      </trkpt>
      <trkpt lat="49.90069" lon="2.48887">
        <ele>29.4</ele>
        <time>2023-09-27T13:59:04Z</time>
      </trkpt>
      <trkpt lat="49.9007" lon="2.48888">
        <ele>29.4</ele>
        <time>2023-09-27T13:59:05Z</time>
      </trkpt>
      <trkpt lat="49.90072" lon="2.48889">
        <ele>29.4</ele>
        <time>2023-09-27T13:59:06Z</time>
      </trkpt>
      <trkpt lat="49.90074" lon="2.48889">
        <ele>29.4</ele>
        <time>2023-09-27T13:59:07Z</time>
      </trkpt>
      <trkpt lat="49.90075" lon="2.48889">
        <ele>29.4</ele>
        <time>2023-09-27T13:59:08Z</time>
      </trkpt>
      <trkpt lat="49.90075" lon="2.4889">
        <ele>29.4</ele>
        <time>2023-09-27T13:59:09Z</time>
      </trkpt>
      <trkpt lat="49.90077" lon="2.48889">
        <ele>29.4</ele>
        <time>2023-09-27T13:59:10Z</time>
      </trkpt>
      <trkpt lat="49.90078" lon="2.48889">
        <ele>29.4</ele>
        <time>2023-09-27T13:59:11Z</time>
      </trkpt>
      <trkpt lat="49.90079" lon="2.48889">
        <ele>29.4</ele>
        <time>2023-09-27T13:59:12Z</time>
      </trkpt>
      <trkpt lat="49.90079" lon="2.48888">
        <ele>29.4</ele>
        <time>2023-09-27T13:59:13Z</time>
      </trkpt>
      <trkpt lat="49.9008" lon="2.48887">
        <ele>29.4</ele>
        <time>2023-09-27T13:59:14Z</time>
      </trkpt>
      <trkpt lat="49.90081" lon="2.48886">
        <ele>29.4</ele>
        <time>2023-09-27T13:59:15Z</time>
      </trkpt>
      <trkpt lat="49.90082" lon="2.48886">
        <ele>29.4</ele>
        <time>2023-09-27T13:59:16Z</time>
      </trkpt>
      <trkpt lat="49.90083" lon="2.48885">
        <ele>29.4</ele>
        <time>2023-09-27T13:59:17Z</time>
      </trkpt>
      <trkpt lat="49.90084" lon="2.48884">
        <ele>29.4</ele>
        <time>2023-09-27T13:59:18Z</time>
      </trkpt>
      <trkpt lat="49.90085" lon="2.48883">
        <ele>29.4</ele>
        <time>2023-09-27T13:59:19Z</time>
      </trkpt>
      <trkpt lat="49.90086" lon="2.48882">
        <ele>29.4</ele>
        <time>2023-09-27T13:59:20Z</time>
      </trkpt>
      <trkpt lat="49.90087" lon="2.48882">
        <ele>29.4</ele>
        <time>2023-09-27T13:59:21Z</time>
      </trkpt>
      <trkpt lat="49.90088" lon="2.48881">
        <ele>29.4</ele>
        <time>2023-09-27T13:59:22Z</time>
      </trkpt>
      <trkpt lat="49.90089" lon="2.48881">
        <ele>29.4</ele>
        <time>2023-09-27T13:59:23Z</time>
      </trkpt>
      <trkpt lat="49.9009" lon="2.4888">
        <ele>29.4</ele>
        <time>2023-09-27T13:59:24Z</time>
      </trkpt>
      <trkpt lat="49.90091" lon="2.4888">
        <ele>29.4</ele>
        <time>2023-09-27T13:59:25Z</time>
      </trkpt>
      <trkpt lat="49.90092" lon="2.48879">
        <ele>29.4</ele>
        <time>2023-09-27T13:59:26Z</time>
      </trkpt>
      <trkpt lat="49.90093" lon="2.48878">
        <ele>29.4</ele>
        <time>2023-09-27T13:59:27Z</time>
      </trkpt>
      <trkpt lat="49.90094" lon="2.48877">
        <ele>29.4</ele>
        <time>2023-09-27T13:59:28Z</time>
      </trkpt>
      <trkpt lat="49.90096" lon="2.48877">
        <ele>29.4</ele>
        <time>2023-09-27T13:59:29Z</time>
      </trkpt>
      <trkpt lat="49.90096" lon="2.48876">
        <ele>29.4</ele>
        <time>2023-09-27T13:59:30Z</time>
      </trkpt>
      <trkpt lat="49.90097" lon="2.48876">
        <ele>29.4</ele>
        <time>2023-09-27T13:59:31Z</time>
      </trkpt>
      <trkpt lat="49.90098" lon="2.48875">
        <ele>29.4</ele>
        <time>2023-09-27T13:59:32Z</time>
      </trkpt>
      <trkpt lat="49.90099" lon="2.48875">
        <ele>29.4</ele>
        <time>2023-09-27T13:59:33Z</time>
      </trkpt>
      <trkpt lat="49.901" lon="2.48874">
        <ele>29.4</ele>
        <time>2023-09-27T13:59:34Z</time>
      </trkpt>
      <trkpt lat="49.90101" lon="2.48874">
        <ele>29.4</ele>
        <time>2023-09-27T13:59:35Z</time>
      </trkpt>
      <trkpt lat="49.90101" lon="2.48873">
        <ele>29.4</ele>
        <time>2023-09-27T13:59:36Z</time>
      </trkpt>
      <trkpt lat="49.90102" lon="2.48873">
        <ele>29.4</ele>
        <time>2023-09-27T13:59:37Z</time>
      </trkpt>
      <trkpt lat="49.90103" lon="2.48872">
        <ele>29.4</ele>
        <time>2023-09-27T13:59:38Z</time>
      </trkpt>
      <trkpt lat="49.90104" lon="2.48872">
        <ele>29.4</ele>
        <time>2023-09-27T13:59:39Z</time>
      </trkpt>
      <trkpt lat="49.90105" lon="2.48871">
        <ele>29.4</ele>
        <time>2023-09-27T13:59:40Z</time>
      </trkpt>
      <trkpt lat="49.90105" lon="2.48871">
        <ele>29.4</ele>
        <time>2023-09-27T13:59:41Z</time>
      </trkpt>
      <trkpt lat="49.90106" lon="2.4887">
        <ele>29.4</ele>
        <time>2023-09-27T13:59:42Z</time>
      </trkpt>
      <trkpt lat="49.90107" lon="2.4887">
        <ele>29.4</ele>
        <time>2023-09-27T13:59:43Z</time>
      </trkpt>
      <trkpt lat="49.90108" lon="2.48869">
        <ele>29.4</ele>
        <time>2023-09-27T13:59:44Z</time>
      </trkpt>
      <trkpt lat="49.90108" lon="2.48868">
        <ele>29.4</ele>
        <time>2023-09-27T13:59:45Z</time>
      </trkpt>
      <trkpt lat="49.90109" lon="2.48867">
        <ele>29.4</ele>
        <time>2023-09-27T13:59:46Z</time>
      </trkpt>
      <trkpt lat="49.90111" lon="2.48867">
        <ele>29.4</ele>
        <time>2023-09-27T13:59:47Z</time>
      </trkpt>
      <trkpt lat="49.90112" lon="2.48866">
        <ele>29.4</ele>
        <time>2023-09-27T13:59:48Z</time>
      </trkpt>
      <trkpt lat="49.90113" lon="2.48866">
        <ele>29.4</ele>
        <time>2023-09-27T13:59:49Z</time>
      </trkpt>
      <trkpt lat="49.90115" lon="2.48866">
        <ele>29.5</ele>
        <time>2023-09-27T13:59:50Z</time>
      </trkpt>
      <trkpt lat="49.90116" lon="2.48866">
        <ele>29.5</ele>
        <time>2023-09-27T13:59:51Z</time>
      </trkpt>
      <trkpt lat="49.90117" lon="2.48866">
        <ele>29.5</ele>
        <time>2023-09-27T13:59:52Z</time>
      </trkpt>
      <trkpt lat="49.90118" lon="2.48865">
        <ele>29.5</ele>
        <time>2023-09-27T13:59:53Z</time>
      </trkpt>
      <trkpt lat="49.90119" lon="2.48865">
        <ele>29.5</ele>
        <time>2023-09-27T13:59:54Z</time>
      </trkpt>
      <trkpt lat="49.90122" lon="2.48866">
        <ele>29.5</ele>
        <time>2023-09-27T13:59:55Z</time>
      </trkpt>
      <trkpt lat="49.90122" lon="2.48866">
        <ele>29.5</ele>
        <time>2023-09-27T13:59:56Z</time>
      </trkpt>
      <trkpt lat="49.90123" lon="2.48867">
        <ele>29.5</ele>
        <time>2023-09-27T13:59:57Z</time>
      </trkpt>
      <trkpt lat="49.90124" lon="2.4887">
        <ele>29.5</ele>
        <time>2023-09-27T13:59:58Z</time>
      </trkpt>
      <trkpt lat="49.90125" lon="2.48871">
        <ele>29.5</ele>
        <time>2023-09-27T13:59:59Z</time>
      </trkpt>
      <trkpt lat="49.90125" lon="2.48872">
        <ele>29.5</ele>
        <time>2023-09-27T14:00:00Z</time>
      </trkpt>
      <trkpt lat="49.90125" lon="2.48874">
        <ele>29.5</ele>
        <time>2023-09-27T14:00:01Z</time>
      </trkpt>
      <trkpt lat="49.90126" lon="2.48876">
        <ele>29.6</ele>
        <time>2023-09-27T14:00:02Z</time>
      </trkpt>
      <trkpt lat="49.90126" lon="2.48878">
        <ele>29.6</ele>
        <time>2023-09-27T14:00:03Z</time>
      </trkpt>
      <trkpt lat="49.90126" lon="2.4888">
        <ele>29.6</ele>
        <time>2023-09-27T14:00:04Z</time>
      </trkpt>
      <trkpt lat="49.90126" lon="2.48882">
        <ele>29.6</ele>
        <time>2023-09-27T14:00:05Z</time>
      </trkpt>
      <trkpt lat="49.90126" lon="2.48885">
        <ele>29.6</ele>
        <time>2023-09-27T14:00:06Z</time>
      </trkpt>
      <trkpt lat="49.90126" lon="2.48886">
        <ele>29.6</ele>
        <time>2023-09-27T14:00:07Z</time>
      </trkpt>
      <trkpt lat="49.90126" lon="2.48887">
        <ele>29.6</ele>
        <time>2023-09-27T14:00:08Z</time>
      </trkpt>
      <trkpt lat="49.90126" lon="2.48889">
        <ele>29.6</ele>
        <time>2023-09-27T14:00:09Z</time>
      </trkpt>
      <trkpt lat="49.90126" lon="2.48891">
        <ele>29.6</ele>
        <time>2023-09-27T14:00:10Z</time>
      </trkpt>
      <trkpt lat="49.90125" lon="2.48893">
        <ele>29.6</ele>
        <time>2023-09-27T14:00:11Z</time>
      </trkpt>
      <trkpt lat="49.90125" lon="2.48895">
        <ele>29.6</ele>
        <time>2023-09-27T14:00:12Z</time>
      </trkpt>
      <trkpt lat="49.90125" lon="2.48896">
        <ele>29.6</ele>
        <time>2023-09-27T14:00:13Z</time>
      </trkpt>
      <trkpt lat="49.90125" lon="2.48898">
        <ele>29.6</ele>
        <time>2023-09-27T14:00:14Z</time>
      </trkpt>
      <trkpt lat="49.90125" lon="2.489">
        <ele>29.6</ele>
        <time>2023-09-27T14:00:15Z</time>
      </trkpt>
      <trkpt lat="49.90125" lon="2.48901">
        <ele>29.6</ele>
        <time>2023-09-27T14:00:16Z</time>
      </trkpt>
      <trkpt lat="49.90124" lon="2.48902">
        <ele>29.6</ele>
        <time>2023-09-27T14:00:17Z</time>
      </trkpt>
      <trkpt lat="49.90124" lon="2.48903">
        <ele>29.6</ele>
        <time>2023-09-27T14:00:18Z</time>
      </trkpt>
      <trkpt lat="49.90124" lon="2.48905">
        <ele>29.6</ele>
        <time>2023-09-27T14:00:19Z</time>
      </trkpt>
      <trkpt lat="49.90124" lon="2.48906">
        <ele>29.6</ele>
        <time>2023-09-27T14:00:20Z</time>
      </trkpt>
      <trkpt lat="49.90124" lon="2.48908">
        <ele>29.6</ele>
        <time>2023-09-27T14:00:21Z</time>
      </trkpt>
      <trkpt lat="49.90124" lon="2.48909">
        <ele>29.6</ele>
        <time>2023-09-27T14:00:22Z</time>
      </trkpt>
      <trkpt lat="49.90124" lon="2.48911">
        <ele>29.6</ele>
        <time>2023-09-27T14:00:23Z</time>
      </trkpt>
      <trkpt lat="49.90124" lon="2.48913">
        <ele>29.6</ele>
        <time>2023-09-27T14:00:24Z</time>
      </trkpt>
      <trkpt lat="49.90124" lon="2.48914">
        <ele>29.7</ele>
        <time>2023-09-27T14:00:25Z</time>
      </trkpt>
      <trkpt lat="49.90124" lon="2.48916">
        <ele>29.7</ele>
        <time>2023-09-27T14:00:26Z</time>
      </trkpt>
      <trkpt lat="49.90123" lon="2.48917">
        <ele>29.7</ele>
        <time>2023-09-27T14:00:27Z</time>
      </trkpt>
      <trkpt lat="49.90123" lon="2.48919">
        <ele>29.7</ele>
        <time>2023-09-27T14:00:28Z</time>
      </trkpt>
      <trkpt lat="49.90123" lon="2.48921">
        <ele>29.7</ele>
        <time>2023-09-27T14:00:29Z</time>
      </trkpt>
      <trkpt lat="49.90123" lon="2.48923">
        <ele>29.7</ele>
        <time>2023-09-27T14:00:30Z</time>
      </trkpt>
      <trkpt lat="49.90122" lon="2.48925">
        <ele>29.7</ele>
        <time>2023-09-27T14:00:31Z</time>
      </trkpt>
      <trkpt lat="49.90122" lon="2.48926">
        <ele>29.7</ele>
        <time>2023-09-27T14:00:32Z</time>
      </trkpt>
      <trkpt lat="49.90122" lon="2.48928">
        <ele>29.7</ele>
        <time>2023-09-27T14:00:33Z</time>
      </trkpt>
      <trkpt lat="49.90122" lon="2.4893">
        <ele>29.7</ele>
        <time>2023-09-27T14:00:34Z</time>
      </trkpt>
      <trkpt lat="49.90122" lon="2.48931">
        <ele>29.7</ele>
        <time>2023-09-27T14:00:35Z</time>
      </trkpt>
      <trkpt lat="49.90122" lon="2.48933">
        <ele>29.7</ele>
        <time>2023-09-27T14:00:36Z</time>
      </trkpt>
      <trkpt lat="49.90122" lon="2.48935">
        <ele>29.7</ele>
        <time>2023-09-27T14:00:37Z</time>
      </trkpt>
      <trkpt lat="49.90122" lon="2.48936">
        <ele>29.7</ele>
        <time>2023-09-27T14:00:38Z</time>
      </trkpt>
      <trkpt lat="49.90122" lon="2.48938">
        <ele>29.7</ele>
        <time>2023-09-27T14:00:39Z</time>
      </trkpt>
      <trkpt lat="49.90121" lon="2.48941">
        <ele>29.7</ele>
        <time>2023-09-27T14:00:40Z</time>
      </trkpt>
      <trkpt lat="49.90121" lon="2.48942">
        <ele>29.7</ele>
        <time>2023-09-27T14:00:41Z</time>
      </trkpt>
      <trkpt lat="49.90121" lon="2.48944">
        <ele>29.7</ele>
        <time>2023-09-27T14:00:42Z</time>
      </trkpt>
      <trkpt lat="49.90121" lon="2.48945">
        <ele>29.7</ele>
        <time>2023-09-27T14:00:43Z</time>
      </trkpt>
      <trkpt lat="49.90121" lon="2.48947">
        <ele>29.7</ele>
        <time>2023-09-27T14:00:44Z</time>
      </trkpt>
      <trkpt lat="49.90121" lon="2.48949">
        <ele>29.7</ele>
        <time>2023-09-27T14:00:45Z</time>
      </trkpt>
      <trkpt lat="49.90121" lon="2.4895">
        <ele>29.7</ele>
        <time>2023-09-27T14:00:46Z</time>
      </trkpt>
      <trkpt lat="49.9012" lon="2.48952">
        <ele>29.7</ele>
        <time>2023-09-27T14:00:47Z</time>
      </trkpt>
      <trkpt lat="49.9012" lon="2.48953">
        <ele>29.7</ele>
        <time>2023-09-27T14:00:48Z</time>
      </trkpt>
      <trkpt lat="49.9012" lon="2.48955">
        <ele>29.7</ele>
        <time>2023-09-27T14:00:49Z</time>
      </trkpt>
      <trkpt lat="49.9012" lon="2.48957">
        <ele>29.7</ele>
        <time>2023-09-27T14:00:50Z</time>
      </trkpt>
      <trkpt lat="49.9012" lon="2.48958">
        <ele>29.7</ele>
        <time>2023-09-27T14:00:51Z</time>
      </trkpt>
      <trkpt lat="49.90119" lon="2.4896">
        <ele>29.7</ele>
        <time>2023-09-27T14:00:52Z</time>
      </trkpt>
      <trkpt lat="49.90119" lon="2.48962">
        <ele>29.7</ele>
        <time>2023-09-27T14:00:53Z</time>
      </trkpt>
      <trkpt lat="49.90119" lon="2.48964">
        <ele>29.7</ele>
        <time>2023-09-27T14:00:54Z</time>
      </trkpt>
      <trkpt lat="49.90119" lon="2.48965">
        <ele>29.7</ele>
        <time>2023-09-27T14:00:55Z</time>
      </trkpt>
      <trkpt lat="49.90119" lon="2.48967">
        <ele>29.7</ele>
        <time>2023-09-27T14:00:56Z</time>
      </trkpt>
      <trkpt lat="49.90119" lon="2.48969">
        <ele>29.7</ele>
        <time>2023-09-27T14:00:57Z</time>
      </trkpt>
      <trkpt lat="49.90119" lon="2.48971">
        <ele>29.7</ele>
        <time>2023-09-27T14:00:58Z</time>
      </trkpt>
      <trkpt lat="49.90119" lon="2.48972">
        <ele>29.7</ele>
        <time>2023-09-27T14:00:59Z</time>
      </trkpt>
      <trkpt lat="49.90119" lon="2.48974">
        <ele>29.7</ele>
        <time>2023-09-27T14:01:00Z</time>
      </trkpt>
      <trkpt lat="49.90119" lon="2.48975">
        <ele>29.7</ele>
        <time>2023-09-27T14:01:01Z</time>
      </trkpt>
      <trkpt lat="49.90119" lon="2.48977">
        <ele>29.7</ele>
        <time>2023-09-27T14:01:02Z</time>
      </trkpt>
      <trkpt lat="49.90119" lon="2.48979">
        <ele>29.7</ele>
        <time>2023-09-27T14:01:03Z</time>
      </trkpt>
      <trkpt lat="49.90119" lon="2.4898">
        <ele>29.7</ele>
        <time>2023-09-27T14:01:04Z</time>
      </trkpt>
      <trkpt lat="49.9012" lon="2.48982">
        <ele>29.7</ele>
        <time>2023-09-27T14:01:05Z</time>
      </trkpt>
      <trkpt lat="49.9012" lon="2.48984">
        <ele>29.7</ele>
        <time>2023-09-27T14:01:06Z</time>
      </trkpt>
      <trkpt lat="49.9012" lon="2.48986">
        <ele>29.7</ele>
        <time>2023-09-27T14:01:07Z</time>
      </trkpt>
      <trkpt lat="49.9012" lon="2.48988">
        <ele>29.7</ele>
        <time>2023-09-27T14:01:08Z</time>
      </trkpt>
      <trkpt lat="49.9012" lon="2.48989">
        <ele>29.7</ele>
        <time>2023-09-27T14:01:09Z</time>
      </trkpt>
      <trkpt lat="49.90121" lon="2.48991">
        <ele>29.7</ele>
        <time>2023-09-27T14:01:10Z</time>
      </trkpt>
      <trkpt lat="49.90121" lon="2.48993">
        <ele>29.7</ele>
        <time>2023-09-27T14:01:11Z</time>
      </trkpt>
      <trkpt lat="49.90121" lon="2.48994">
        <ele>29.7</ele>
        <time>2023-09-27T14:01:12Z</time>
      </trkpt>
      <trkpt lat="49.90121" lon="2.48995">
        <ele>29.7</ele>
        <time>2023-09-27T14:01:13Z</time>
      </trkpt>
      <trkpt lat="49.90121" lon="2.48997">
        <ele>29.7</ele>
        <time>2023-09-27T14:01:14Z</time>
      </trkpt>
      <trkpt lat="49.90121" lon="2.48998">
        <ele>29.7</ele>
        <time>2023-09-27T14:01:15Z</time>
      </trkpt>
      <trkpt lat="49.90121" lon="2.49">
        <ele>29.7</ele>
        <time>2023-09-27T14:01:16Z</time>
      </trkpt>
      <trkpt lat="49.90121" lon="2.49002">
        <ele>29.7</ele>
        <time>2023-09-27T14:01:17Z</time>
      </trkpt>
      <trkpt lat="49.90121" lon="2.49003">
        <ele>29.7</ele>
        <time>2023-09-27T14:01:18Z</time>
      </trkpt>
      <trkpt lat="49.90121" lon="2.49005">
        <ele>29.7</ele>
        <time>2023-09-27T14:01:19Z</time>
      </trkpt>
      <trkpt lat="49.90122" lon="2.49007">
        <ele>29.7</ele>
        <time>2023-09-27T14:01:20Z</time>
      </trkpt>
      <trkpt lat="49.90122" lon="2.49009">
        <ele>29.7</ele>
        <time>2023-09-27T14:01:21Z</time>
      </trkpt>
      <trkpt lat="49.90122" lon="2.49011">
        <ele>29.7</ele>
        <time>2023-09-27T14:01:22Z</time>
      </trkpt>
      <trkpt lat="49.90122" lon="2.49013">
        <ele>29.7</ele>
        <time>2023-09-27T14:01:23Z</time>
      </trkpt>
      <trkpt lat="49.90122" lon="2.49014">
        <ele>29.7</ele>
        <time>2023-09-27T14:01:24Z</time>
      </trkpt>
      <trkpt lat="49.90121" lon="2.49016">
        <ele>29.7</ele>
        <time>2023-09-27T14:01:25Z</time>
      </trkpt>
      <trkpt lat="49.90121" lon="2.49017">
        <ele>29.7</ele>
        <time>2023-09-27T14:01:26Z</time>
      </trkpt>
      <trkpt lat="49.90121" lon="2.49019">
        <ele>29.7</ele>
        <time>2023-09-27T14:01:27Z</time>
      </trkpt>
      <trkpt lat="49.90121" lon="2.49021">
        <ele>29.7</ele>
        <time>2023-09-27T14:01:28Z</time>
      </trkpt>
      <trkpt lat="49.90121" lon="2.49022">
        <ele>29.7</ele>
        <time>2023-09-27T14:01:29Z</time>
      </trkpt>
      <trkpt lat="49.90121" lon="2.49024">
        <ele>29.7</ele>
        <time>2023-09-27T14:01:30Z</time>
      </trkpt>
      <trkpt lat="49.9012" lon="2.49028">
        <ele>29.7</ele>
        <time>2023-09-27T14:01:31Z</time>
      </trkpt>
      <trkpt lat="49.9012" lon="2.49029">
        <ele>29.7</ele>
        <time>2023-09-27T14:01:32Z</time>
      </trkpt>
      <trkpt lat="49.9012" lon="2.4903">
        <ele>29.7</ele>
        <time>2023-09-27T14:01:33Z</time>
      </trkpt>
      <trkpt lat="49.9012" lon="2.49032">
        <ele>29.7</ele>
        <time>2023-09-27T14:01:34Z</time>
      </trkpt>
      <trkpt lat="49.9012" lon="2.49034">
        <ele>29.7</ele>
        <time>2023-09-27T14:01:35Z</time>
      </trkpt>
      <trkpt lat="49.9012" lon="2.49036">
        <ele>29.7</ele>
        <time>2023-09-27T14:01:36Z</time>
      </trkpt>
      <trkpt lat="49.9012" lon="2.49037">
        <ele>29.7</ele>
        <time>2023-09-27T14:01:37Z</time>
      </trkpt>
      <trkpt lat="49.9012" lon="2.49039">
        <ele>29.7</ele>
        <time>2023-09-27T14:01:38Z</time>
      </trkpt>
      <trkpt lat="49.9012" lon="2.49041">
        <ele>29.7</ele>
        <time>2023-09-27T14:01:39Z</time>
      </trkpt>
      <trkpt lat="49.90119" lon="2.49044">
        <ele>29.7</ele>
        <time>2023-09-27T14:01:40Z</time>
      </trkpt>
      <trkpt lat="49.90119" lon="2.49046">
        <ele>29.7</ele>
        <time>2023-09-27T14:01:41Z</time>
      </trkpt>
      <trkpt lat="49.90119" lon="2.49047">
        <ele>29.7</ele>
        <time>2023-09-27T14:01:42Z</time>
      </trkpt>
      <trkpt lat="49.90119" lon="2.4905">
        <ele>29.7</ele>
        <time>2023-09-27T14:01:43Z</time>
      </trkpt>
      <trkpt lat="49.90119" lon="2.49052">
        <ele>29.7</ele>
        <time>2023-09-27T14:01:44Z</time>
      </trkpt>
      <trkpt lat="49.90119" lon="2.49055">
        <ele>29.7</ele>
        <time>2023-09-27T14:01:45Z</time>
      </trkpt>
      <trkpt lat="49.90119" lon="2.49056">
        <ele>29.7</ele>
        <time>2023-09-27T14:01:46Z</time>
      </trkpt>
      <trkpt lat="49.90119" lon="2.49058">
        <ele>29.7</ele>
        <time>2023-09-27T14:01:47Z</time>
      </trkpt>
      <trkpt lat="49.90119" lon="2.4906">
        <ele>29.7</ele>
        <time>2023-09-27T14:01:48Z</time>
      </trkpt>
      <trkpt lat="49.90119" lon="2.49062">
        <ele>29.7</ele>
        <time>2023-09-27T14:01:49Z</time>
      </trkpt>
      <trkpt lat="49.90119" lon="2.49063">
        <ele>29.7</ele>
        <time>2023-09-27T14:01:50Z</time>
      </trkpt>
      <trkpt lat="49.90119" lon="2.49065">
        <ele>29.7</ele>
        <time>2023-09-27T14:01:51Z</time>
      </trkpt>
      <trkpt lat="49.90119" lon="2.49067">
        <ele>29.7</ele>
        <time>2023-09-27T14:01:52Z</time>
      </trkpt>
      <trkpt lat="49.90119" lon="2.49068">
        <ele>29.7</ele>
        <time>2023-09-27T14:01:53Z</time>
      </trkpt>
      <trkpt lat="49.90119" lon="2.4907">
        <ele>29.6</ele>
        <time>2023-09-27T14:01:54Z</time>
      </trkpt>
      <trkpt lat="49.90119" lon="2.49072">
        <ele>29.6</ele>
        <time>2023-09-27T14:01:55Z</time>
      </trkpt>
      <trkpt lat="49.90119" lon="2.49074">
        <ele>29.6</ele>
        <time>2023-09-27T14:01:56Z</time>
      </trkpt>
      <trkpt lat="49.90119" lon="2.49075">
        <ele>29.6</ele>
        <time>2023-09-27T14:01:57Z</time>
      </trkpt>
      <trkpt lat="49.90119" lon="2.49077">
        <ele>29.6</ele>
        <time>2023-09-27T14:01:58Z</time>
      </trkpt>
      <trkpt lat="49.90119" lon="2.49079">
        <ele>29.6</ele>
        <time>2023-09-27T14:01:59Z</time>
      </trkpt>
      <trkpt lat="49.90119" lon="2.49082">
        <ele>29.6</ele>
        <time>2023-09-27T14:02:00Z</time>
      </trkpt>
      <trkpt lat="49.90119" lon="2.49083">
        <ele>29.6</ele>
        <time>2023-09-27T14:02:01Z</time>
      </trkpt>
      <trkpt lat="49.90119" lon="2.49085">
        <ele>29.6</ele>
        <time>2023-09-27T14:02:02Z</time>
      </trkpt>
      <trkpt lat="49.90119" lon="2.49086">
        <ele>29.6</ele>
        <time>2023-09-27T14:02:03Z</time>
      </trkpt>
      <trkpt lat="49.90119" lon="2.49088">
        <ele>29.6</ele>
        <time>2023-09-27T14:02:04Z</time>
      </trkpt>
      <trkpt lat="49.90119" lon="2.4909">
        <ele>29.6</ele>
        <time>2023-09-27T14:02:05Z</time>
      </trkpt>
      <trkpt lat="49.90119" lon="2.49091">
        <ele>29.6</ele>
        <time>2023-09-27T14:02:06Z</time>
      </trkpt>
      <trkpt lat="49.90119" lon="2.49093">
        <ele>29.6</ele>
        <time>2023-09-27T14:02:07Z</time>
      </trkpt>
      <trkpt lat="49.90119" lon="2.49095">
        <ele>29.6</ele>
        <time>2023-09-27T14:02:08Z</time>
      </trkpt>
      <trkpt lat="49.90119" lon="2.49097">
        <ele>29.6</ele>
        <time>2023-09-27T14:02:09Z</time>
      </trkpt>
      <trkpt lat="49.90119" lon="2.49099">
        <ele>29.6</ele>
        <time>2023-09-27T14:02:10Z</time>
      </trkpt>
      <trkpt lat="49.90119" lon="2.491">
        <ele>29.6</ele>
        <time>2023-09-27T14:02:11Z</time>
      </trkpt>
      <trkpt lat="49.90119" lon="2.49102">
        <ele>29.6</ele>
        <time>2023-09-27T14:02:12Z</time>
      </trkpt>
      <trkpt lat="49.90119" lon="2.49104">
        <ele>29.6</ele>
        <time>2023-09-27T14:02:13Z</time>
      </trkpt>
      <trkpt lat="49.9012" lon="2.49106">
        <ele>29.6</ele>
        <time>2023-09-27T14:02:14Z</time>
      </trkpt>
      <trkpt lat="49.9012" lon="2.49108">
        <ele>29.6</ele>
        <time>2023-09-27T14:02:15Z</time>
      </trkpt>
      <trkpt lat="49.9012" lon="2.4911">
        <ele>29.6</ele>
        <time>2023-09-27T14:02:16Z</time>
      </trkpt>
      <trkpt lat="49.9012" lon="2.49111">
        <ele>29.6</ele>
        <time>2023-09-27T14:02:17Z</time>
      </trkpt>
      <trkpt lat="49.9012" lon="2.49113">
        <ele>29.6</ele>
        <time>2023-09-27T14:02:18Z</time>
      </trkpt>
      <trkpt lat="49.9012" lon="2.49115">
        <ele>29.6</ele>
        <time>2023-09-27T14:02:19Z</time>
      </trkpt>
      <trkpt lat="49.90119" lon="2.49116">
        <ele>29.6</ele>
        <time>2023-09-27T14:02:20Z</time>
      </trkpt>
      <trkpt lat="49.90119" lon="2.49119">
        <ele>29.6</ele>
        <time>2023-09-27T14:02:21Z</time>
      </trkpt>
      <trkpt lat="49.90119" lon="2.49121">
        <ele>29.6</ele>
        <time>2023-09-27T14:02:22Z</time>
      </trkpt>
      <trkpt lat="49.90119" lon="2.49122">
        <ele>29.6</ele>
        <time>2023-09-27T14:02:23Z</time>
      </trkpt>
      <trkpt lat="49.90119" lon="2.49125">
        <ele>29.6</ele>
        <time>2023-09-27T14:02:24Z</time>
      </trkpt>
      <trkpt lat="49.90119" lon="2.49126">
        <ele>29.6</ele>
        <time>2023-09-27T14:02:25Z</time>
      </trkpt>
      <trkpt lat="49.90119" lon="2.49128">
        <ele>29.6</ele>
        <time>2023-09-27T14:02:26Z</time>
      </trkpt>
      <trkpt lat="49.90119" lon="2.49131">
        <ele>29.6</ele>
        <time>2023-09-27T14:02:27Z</time>
      </trkpt>
      <trkpt lat="49.90119" lon="2.49132">
        <ele>29.6</ele>
        <time>2023-09-27T14:02:28Z</time>
      </trkpt>
      <trkpt lat="49.90119" lon="2.49133">
        <ele>29.6</ele>
        <time>2023-09-27T14:02:29Z</time>
      </trkpt>
      <trkpt lat="49.90119" lon="2.49135">
        <ele>29.6</ele>
        <time>2023-09-27T14:02:30Z</time>
      </trkpt>
      <trkpt lat="49.90119" lon="2.49136">
        <ele>29.6</ele>
        <time>2023-09-27T14:02:31Z</time>
      </trkpt>
      <trkpt lat="49.90118" lon="2.49138">
        <ele>29.6</ele>
        <time>2023-09-27T14:02:32Z</time>
      </trkpt>
      <trkpt lat="49.90118" lon="2.4914">
        <ele>29.6</ele>
        <time>2023-09-27T14:02:33Z</time>
      </trkpt>
      <trkpt lat="49.90118" lon="2.49142">
        <ele>29.6</ele>
        <time>2023-09-27T14:02:34Z</time>
      </trkpt>
      <trkpt lat="49.90118" lon="2.49144">
        <ele>29.6</ele>
        <time>2023-09-27T14:02:35Z</time>
      </trkpt>
      <trkpt lat="49.90118" lon="2.49147">
        <ele>29.6</ele>
        <time>2023-09-27T14:02:36Z</time>
      </trkpt>
      <trkpt lat="49.90118" lon="2.49148">
        <ele>29.6</ele>
        <time>2023-09-27T14:02:37Z</time>
      </trkpt>
      <trkpt lat="49.90118" lon="2.49149">
        <ele>29.6</ele>
        <time>2023-09-27T14:02:38Z</time>
      </trkpt>
      <trkpt lat="49.90118" lon="2.49153">
        <ele>29.6</ele>
        <time>2023-09-27T14:02:39Z</time>
      </trkpt>
      <trkpt lat="49.90117" lon="2.49154">
        <ele>29.6</ele>
        <time>2023-09-27T14:02:40Z</time>
      </trkpt>
      <trkpt lat="49.90117" lon="2.49155">
        <ele>29.6</ele>
        <time>2023-09-27T14:02:41Z</time>
      </trkpt>
      <trkpt lat="49.90117" lon="2.49157">
        <ele>29.6</ele>
        <time>2023-09-27T14:02:42Z</time>
      </trkpt>
      <trkpt lat="49.90117" lon="2.49159">
        <ele>29.6</ele>
        <time>2023-09-27T14:02:43Z</time>
      </trkpt>
      <trkpt lat="49.90117" lon="2.4916">
        <ele>29.6</ele>
        <time>2023-09-27T14:02:44Z</time>
      </trkpt>
      <trkpt lat="49.90117" lon="2.49162">
        <ele>29.6</ele>
        <time>2023-09-27T14:02:45Z</time>
      </trkpt>
      <trkpt lat="49.90117" lon="2.49164">
        <ele>29.6</ele>
        <time>2023-09-27T14:02:46Z</time>
      </trkpt>
      <trkpt lat="49.90117" lon="2.49166">
        <ele>29.6</ele>
        <time>2023-09-27T14:02:47Z</time>
      </trkpt>
      <trkpt lat="49.90117" lon="2.49169">
        <ele>29.6</ele>
        <time>2023-09-27T14:02:48Z</time>
      </trkpt>
      <trkpt lat="49.90117" lon="2.49171">
        <ele>29.6</ele>
        <time>2023-09-27T14:02:49Z</time>
      </trkpt>
      <trkpt lat="49.90117" lon="2.49172">
        <ele>29.6</ele>
        <time>2023-09-27T14:02:50Z</time>
      </trkpt>
      <trkpt lat="49.90117" lon="2.49174">
        <ele>29.6</ele>
        <time>2023-09-27T14:02:51Z</time>
      </trkpt>
      <trkpt lat="49.90117" lon="2.49176">
        <ele>29.6</ele>
        <time>2023-09-27T14:02:52Z</time>
      </trkpt>
      <trkpt lat="49.90117" lon="2.49178">
        <ele>29.6</ele>
        <time>2023-09-27T14:02:53Z</time>
      </trkpt>
      <trkpt lat="49.90117" lon="2.49181">
        <ele>29.6</ele>
        <time>2023-09-27T14:02:54Z</time>
      </trkpt>
      <trkpt lat="49.90118" lon="2.49183">
        <ele>29.6</ele>
        <time>2023-09-27T14:02:55Z</time>
      </trkpt>
      <trkpt lat="49.90118" lon="2.49185">
        <ele>29.6</ele>
        <time>2023-09-27T14:02:56Z</time>
      </trkpt>
      <trkpt lat="49.90118" lon="2.49186">
        <ele>29.6</ele>
        <time>2023-09-27T14:02:57Z</time>
      </trkpt>
      <trkpt lat="49.90119" lon="2.49188">
        <ele>29.6</ele>
        <time>2023-09-27T14:02:58Z</time>
      </trkpt>
      <trkpt lat="49.90119" lon="2.4919">
        <ele>29.6</ele>
        <time>2023-09-27T14:02:59Z</time>
      </trkpt>
      <trkpt lat="49.90119" lon="2.49193">
        <ele>29.6</ele>
        <time>2023-09-27T14:03:00Z</time>
      </trkpt>
      <trkpt lat="49.90119" lon="2.49194">
        <ele>29.6</ele>
        <time>2023-09-27T14:03:01Z</time>
      </trkpt>
      <trkpt lat="49.90119" lon="2.49196">
        <ele>29.6</ele>
        <time>2023-09-27T14:03:02Z</time>
      </trkpt>
      <trkpt lat="49.90119" lon="2.49199">
        <ele>29.6</ele>
        <time>2023-09-27T14:03:03Z</time>
      </trkpt>
      <trkpt lat="49.90119" lon="2.492">
        <ele>29.6</ele>
        <time>2023-09-27T14:03:04Z</time>
      </trkpt>
      <trkpt lat="49.90119" lon="2.49201">
        <ele>29.6</ele>
        <time>2023-09-27T14:03:05Z</time>
      </trkpt>
      <trkpt lat="49.90119" lon="2.49203">
        <ele>29.6</ele>
        <time>2023-09-27T14:03:06Z</time>
      </trkpt>
      <trkpt lat="49.90119" lon="2.49205">
        <ele>29.6</ele>
        <time>2023-09-27T14:03:07Z</time>
      </trkpt>
      <trkpt lat="49.90119" lon="2.49206">
        <ele>29.6</ele>
        <time>2023-09-27T14:03:08Z</time>
      </trkpt>
      <trkpt lat="49.90119" lon="2.49208">
        <ele>29.6</ele>
        <time>2023-09-27T14:03:09Z</time>
      </trkpt>
      <trkpt lat="49.90119" lon="2.49209">
        <ele>29.6</ele>
        <time>2023-09-27T14:03:10Z</time>
      </trkpt>
      <trkpt lat="49.90119" lon="2.49211">
        <ele>29.6</ele>
        <time>2023-09-27T14:03:11Z</time>
      </trkpt>
      <trkpt lat="49.90119" lon="2.49212">
        <ele>29.6</ele>
        <time>2023-09-27T14:03:12Z</time>
      </trkpt>
      <trkpt lat="49.90119" lon="2.49214">
        <ele>29.6</ele>
        <time>2023-09-27T14:03:13Z</time>
      </trkpt>
      <trkpt lat="49.90119" lon="2.49215">
        <ele>29.6</ele>
        <time>2023-09-27T14:03:14Z</time>
      </trkpt>
      <trkpt lat="49.90119" lon="2.49217">
        <ele>29.6</ele>
        <time>2023-09-27T14:03:15Z</time>
      </trkpt>
      <trkpt lat="49.90119" lon="2.49219">
        <ele>29.6</ele>
        <time>2023-09-27T14:03:16Z</time>
      </trkpt>
      <trkpt lat="49.90119" lon="2.4922">
        <ele>29.6</ele>
        <time>2023-09-27T14:03:17Z</time>
      </trkpt>
      <trkpt lat="49.90119" lon="2.49222">
        <ele>29.6</ele>
        <time>2023-09-27T14:03:18Z</time>
      </trkpt>
      <trkpt lat="49.90119" lon="2.49224">
        <ele>29.6</ele>
        <time>2023-09-27T14:03:19Z</time>
      </trkpt>
      <trkpt lat="49.90119" lon="2.49226">
        <ele>29.6</ele>
        <time>2023-09-27T14:03:20Z</time>
      </trkpt>
      <trkpt lat="49.90119" lon="2.49227">
        <ele>29.6</ele>
        <time>2023-09-27T14:03:21Z</time>
      </trkpt>
      <trkpt lat="49.90119" lon="2.49229">
        <ele>29.7</ele>
        <time>2023-09-27T14:03:22Z</time>
      </trkpt>
      <trkpt lat="49.90119" lon="2.49231">
        <ele>29.7</ele>
        <time>2023-09-27T14:03:23Z</time>
      </trkpt>
      <trkpt lat="49.90119" lon="2.49234">
        <ele>29.7</ele>
        <time>2023-09-27T14:03:24Z</time>
      </trkpt>
      <trkpt lat="49.90119" lon="2.49235">
        <ele>29.7</ele>
        <time>2023-09-27T14:03:25Z</time>
      </trkpt>
      <trkpt lat="49.90119" lon="2.49237">
        <ele>29.7</ele>
        <time>2023-09-27T14:03:26Z</time>
      </trkpt>
      <trkpt lat="49.90119" lon="2.49239">
        <ele>29.7</ele>
        <time>2023-09-27T14:03:27Z</time>
      </trkpt>
      <trkpt lat="49.90119" lon="2.49241">
        <ele>29.7</ele>
        <time>2023-09-27T14:03:28Z</time>
      </trkpt>
      <trkpt lat="49.90119" lon="2.49243">
        <ele>29.7</ele>
        <time>2023-09-27T14:03:29Z</time>
      </trkpt>
      <trkpt lat="49.90119" lon="2.49245">
        <ele>29.7</ele>
        <time>2023-09-27T14:03:30Z</time>
      </trkpt>
      <trkpt lat="49.90119" lon="2.49247">
        <ele>29.7</ele>
        <time>2023-09-27T14:03:31Z</time>
      </trkpt>
      <trkpt lat="49.90119" lon="2.49249">
        <ele>29.7</ele>
        <time>2023-09-27T14:03:32Z</time>
      </trkpt>
      <trkpt lat="49.90119" lon="2.49251">
        <ele>29.7</ele>
        <time>2023-09-27T14:03:33Z</time>
      </trkpt>
      <trkpt lat="49.90119" lon="2.49252">
        <ele>29.7</ele>
        <time>2023-09-27T14:03:34Z</time>
      </trkpt>
      <trkpt lat="49.90118" lon="2.49254">
        <ele>29.7</ele>
        <time>2023-09-27T14:03:35Z</time>
      </trkpt>
      <trkpt lat="49.90118" lon="2.49256">
        <ele>29.7</ele>
        <time>2023-09-27T14:03:36Z</time>
      </trkpt>
      <trkpt lat="49.90118" lon="2.49259">
        <ele>29.7</ele>
        <time>2023-09-27T14:03:37Z</time>
      </trkpt>
      <trkpt lat="49.90118" lon="2.4926">
        <ele>29.8</ele>
        <time>2023-09-27T14:03:38Z</time>
      </trkpt>
      <trkpt lat="49.90117" lon="2.49262">
        <ele>29.8</ele>
        <time>2023-09-27T14:03:39Z</time>
      </trkpt>
      <trkpt lat="49.90117" lon="2.49265">
        <ele>29.8</ele>
        <time>2023-09-27T14:03:40Z</time>
      </trkpt>
      <trkpt lat="49.90117" lon="2.49266">
        <ele>29.8</ele>
        <time>2023-09-27T14:03:41Z</time>
      </trkpt>
      <trkpt lat="49.90117" lon="2.49267">
        <ele>29.8</ele>
        <time>2023-09-27T14:03:42Z</time>
      </trkpt>
      <trkpt lat="49.90116" lon="2.49269">
        <ele>29.8</ele>
        <time>2023-09-27T14:03:43Z</time>
      </trkpt>
      <trkpt lat="49.90116" lon="2.4927">
        <ele>29.8</ele>
        <time>2023-09-27T14:03:44Z</time>
      </trkpt>
      <trkpt lat="49.90116" lon="2.49272">
        <ele>29.8</ele>
        <time>2023-09-27T14:03:45Z</time>
      </trkpt>
      <trkpt lat="49.90116" lon="2.49273">
        <ele>29.8</ele>
        <time>2023-09-27T14:03:46Z</time>
      </trkpt>
      <trkpt lat="49.90116" lon="2.49275">
        <ele>29.8</ele>
        <time>2023-09-27T14:03:47Z</time>
      </trkpt>
      <trkpt lat="49.90116" lon="2.49276">
        <ele>29.8</ele>
        <time>2023-09-27T14:03:48Z</time>
      </trkpt>
      <trkpt lat="49.90116" lon="2.49278">
        <ele>29.8</ele>
        <time>2023-09-27T14:03:49Z</time>
      </trkpt>
      <trkpt lat="49.90116" lon="2.4928">
        <ele>29.8</ele>
        <time>2023-09-27T14:03:50Z</time>
      </trkpt>
      <trkpt lat="49.90115" lon="2.49281">
        <ele>29.8</ele>
        <time>2023-09-27T14:03:51Z</time>
      </trkpt>
      <trkpt lat="49.90115" lon="2.49282">
        <ele>29.8</ele>
        <time>2023-09-27T14:03:52Z</time>
      </trkpt>
      <trkpt lat="49.90115" lon="2.49283">
        <ele>29.8</ele>
        <time>2023-09-27T14:03:53Z</time>
      </trkpt>
      <trkpt lat="49.90114" lon="2.49284">
        <ele>29.8</ele>
        <time>2023-09-27T14:03:54Z</time>
      </trkpt>
      <trkpt lat="49.90114" lon="2.49285">
        <ele>29.8</ele>
        <time>2023-09-27T14:03:55Z</time>
      </trkpt>
      <trkpt lat="49.90114" lon="2.49287">
        <ele>29.8</ele>
        <time>2023-09-27T14:03:56Z</time>
      </trkpt>
      <trkpt lat="49.90114" lon="2.49288">
        <ele>29.8</ele>
        <time>2023-09-27T14:03:57Z</time>
      </trkpt>
      <trkpt lat="49.90114" lon="2.49289">
        <ele>29.8</ele>
        <time>2023-09-27T14:03:58Z</time>
      </trkpt>
      <trkpt lat="49.90114" lon="2.4929">
        <ele>29.8</ele>
        <time>2023-09-27T14:03:59Z</time>
      </trkpt>
      <trkpt lat="49.90114" lon="2.49292">
        <ele>29.8</ele>
        <time>2023-09-27T14:04:00Z</time>
      </trkpt>
      <trkpt lat="49.90114" lon="2.49293">
        <ele>29.9</ele>
        <time>2023-09-27T14:04:01Z</time>
      </trkpt>
      <trkpt lat="49.90114" lon="2.49295">
        <ele>29.9</ele>
        <time>2023-09-27T14:04:02Z</time>
      </trkpt>
      <trkpt lat="49.90114" lon="2.49296">
        <ele>29.9</ele>
        <time>2023-09-27T14:04:03Z</time>
      </trkpt>
      <trkpt lat="49.90114" lon="2.49298">
        <ele>29.9</ele>
        <time>2023-09-27T14:04:04Z</time>
      </trkpt>
      <trkpt lat="49.90114" lon="2.493">
        <ele>29.9</ele>
        <time>2023-09-27T14:04:05Z</time>
      </trkpt>
      <trkpt lat="49.90114" lon="2.49302">
        <ele>29.9</ele>
        <time>2023-09-27T14:04:06Z</time>
      </trkpt>
      <trkpt lat="49.90114" lon="2.49304">
        <ele>29.9</ele>
        <time>2023-09-27T14:04:07Z</time>
      </trkpt>
      <trkpt lat="49.90114" lon="2.49305">
        <ele>29.9</ele>
        <time>2023-09-27T14:04:08Z</time>
      </trkpt>
      <trkpt lat="49.90114" lon="2.49307">
        <ele>29.9</ele>
        <time>2023-09-27T14:04:09Z</time>
      </trkpt>
      <trkpt lat="49.90114" lon="2.49309">
        <ele>29.9</ele>
        <time>2023-09-27T14:04:10Z</time>
      </trkpt>
      <trkpt lat="49.90114" lon="2.4931">
        <ele>29.9</ele>
        <time>2023-09-27T14:04:11Z</time>
      </trkpt>
      <trkpt lat="49.90114" lon="2.49312">
        <ele>29.9</ele>
        <time>2023-09-27T14:04:12Z</time>
      </trkpt>
      <trkpt lat="49.90114" lon="2.49314">
        <ele>29.9</ele>
        <time>2023-09-27T14:04:13Z</time>
      </trkpt>
      <trkpt lat="49.90114" lon="2.49316">
        <ele>29.9</ele>
        <time>2023-09-27T14:04:14Z</time>
      </trkpt>
      <trkpt lat="49.90114" lon="2.49317">
        <ele>29.9</ele>
        <time>2023-09-27T14:04:15Z</time>
      </trkpt>
      <trkpt lat="49.90114" lon="2.49319">
        <ele>29.9</ele>
        <time>2023-09-27T14:04:16Z</time>
      </trkpt>
      <trkpt lat="49.90114" lon="2.4932">
        <ele>29.9</ele>
        <time>2023-09-27T14:04:17Z</time>
      </trkpt>
      <trkpt lat="49.90114" lon="2.49322">
        <ele>29.9</ele>
        <time>2023-09-27T14:04:18Z</time>
      </trkpt>
      <trkpt lat="49.90114" lon="2.49323">
        <ele>29.9</ele>
        <time>2023-09-27T14:04:19Z</time>
      </trkpt>
      <trkpt lat="49.90114" lon="2.49324">
        <ele>29.9</ele>
        <time>2023-09-27T14:04:20Z</time>
      </trkpt>
      <trkpt lat="49.90114" lon="2.49325">
        <ele>29.9</ele>
        <time>2023-09-27T14:04:21Z</time>
      </trkpt>
      <trkpt lat="49.90114" lon="2.49327">
        <ele>29.9</ele>
        <time>2023-09-27T14:04:22Z</time>
      </trkpt>
      <trkpt lat="49.90115" lon="2.49329">
        <ele>29.9</ele>
        <time>2023-09-27T14:04:23Z</time>
      </trkpt>
      <trkpt lat="49.90115" lon="2.4933">
        <ele>29.9</ele>
        <time>2023-09-27T14:04:24Z</time>
      </trkpt>
      <trkpt lat="49.90115" lon="2.49332">
        <ele>29.9</ele>
        <time>2023-09-27T14:04:25Z</time>
      </trkpt>
      <trkpt lat="49.90115" lon="2.49333">
        <ele>29.9</ele>
        <time>2023-09-27T14:04:26Z</time>
      </trkpt>
      <trkpt lat="49.90115" lon="2.49334">
        <ele>29.9</ele>
        <time>2023-09-27T14:04:27Z</time>
      </trkpt>
      <trkpt lat="49.90115" lon="2.49336">
        <ele>29.9</ele>
        <time>2023-09-27T14:04:28Z</time>
      </trkpt>
      <trkpt lat="49.90115" lon="2.49337">
        <ele>29.9</ele>
        <time>2023-09-27T14:04:29Z</time>
      </trkpt>
      <trkpt lat="49.90115" lon="2.49339">
        <ele>29.9</ele>
        <time>2023-09-27T14:04:30Z</time>
      </trkpt>
      <trkpt lat="49.90115" lon="2.4934">
        <ele>29.9</ele>
        <time>2023-09-27T14:04:31Z</time>
      </trkpt>
      <trkpt lat="49.90115" lon="2.49342">
        <ele>30</ele>
        <time>2023-09-27T14:04:32Z</time>
      </trkpt>
      <trkpt lat="49.90115" lon="2.49344">
        <ele>30</ele>
        <time>2023-09-27T14:04:33Z</time>
      </trkpt>
      <trkpt lat="49.90115" lon="2.49345">
        <ele>30</ele>
        <time>2023-09-27T14:04:34Z</time>
      </trkpt>
      <trkpt lat="49.90116" lon="2.49347">
        <ele>30</ele>
        <time>2023-09-27T14:04:35Z</time>
      </trkpt>
      <trkpt lat="49.90116" lon="2.49349">
        <ele>30</ele>
        <time>2023-09-27T14:04:36Z</time>
      </trkpt>
      <trkpt lat="49.90116" lon="2.4935">
        <ele>30</ele>
        <time>2023-09-27T14:04:37Z</time>
      </trkpt>
      <trkpt lat="49.90116" lon="2.49352">
        <ele>30</ele>
        <time>2023-09-27T14:04:38Z</time>
      </trkpt>
      <trkpt lat="49.90116" lon="2.49353">
        <ele>30</ele>
        <time>2023-09-27T14:04:39Z</time>
      </trkpt>
      <trkpt lat="49.90116" lon="2.49355">
        <ele>30</ele>
        <time>2023-09-27T14:04:40Z</time>
      </trkpt>
      <trkpt lat="49.90117" lon="2.49356">
        <ele>30</ele>
        <time>2023-09-27T14:04:41Z</time>
      </trkpt>
      <trkpt lat="49.90117" lon="2.49358">
        <ele>30</ele>
        <time>2023-09-27T14:04:42Z</time>
      </trkpt>
      <trkpt lat="49.90117" lon="2.4936">
        <ele>30</ele>
        <time>2023-09-27T14:04:43Z</time>
      </trkpt>
      <trkpt lat="49.90117" lon="2.49361">
        <ele>30</ele>
        <time>2023-09-27T14:04:44Z</time>
      </trkpt>
      <trkpt lat="49.90117" lon="2.49363">
        <ele>30</ele>
        <time>2023-09-27T14:04:45Z</time>
      </trkpt>
      <trkpt lat="49.90117" lon="2.49364">
        <ele>30</ele>
        <time>2023-09-27T14:04:46Z</time>
      </trkpt>
      <trkpt lat="49.90117" lon="2.49366">
        <ele>30</ele>
        <time>2023-09-27T14:04:47Z</time>
      </trkpt>
      <trkpt lat="49.90118" lon="2.49368">
        <ele>30</ele>
        <time>2023-09-27T14:04:48Z</time>
      </trkpt>
      <trkpt lat="49.90118" lon="2.49369">
        <ele>30</ele>
        <time>2023-09-27T14:04:49Z</time>
      </trkpt>
      <trkpt lat="49.90118" lon="2.49371">
        <ele>30</ele>
        <time>2023-09-27T14:04:50Z</time>
      </trkpt>
      <trkpt lat="49.90118" lon="2.49373">
        <ele>30</ele>
        <time>2023-09-27T14:04:51Z</time>
      </trkpt>
      <trkpt lat="49.90118" lon="2.49375">
        <ele>30</ele>
        <time>2023-09-27T14:04:52Z</time>
      </trkpt>
      <trkpt lat="49.90118" lon="2.49377">
        <ele>30</ele>
        <time>2023-09-27T14:04:53Z</time>
      </trkpt>
      <trkpt lat="49.90118" lon="2.49378">
        <ele>30</ele>
        <time>2023-09-27T14:04:54Z</time>
      </trkpt>
      <trkpt lat="49.90118" lon="2.4938">
        <ele>30</ele>
        <time>2023-09-27T14:04:55Z</time>
      </trkpt>
      <trkpt lat="49.90118" lon="2.49382">
        <ele>30</ele>
        <time>2023-09-27T14:04:56Z</time>
      </trkpt>
      <trkpt lat="49.90118" lon="2.49383">
        <ele>30</ele>
        <time>2023-09-27T14:04:57Z</time>
      </trkpt>
      <trkpt lat="49.90118" lon="2.49384">
        <ele>30</ele>
        <time>2023-09-27T14:04:58Z</time>
      </trkpt>
      <trkpt lat="49.90118" lon="2.49386">
        <ele>30</ele>
        <time>2023-09-27T14:04:59Z</time>
      </trkpt>
      <trkpt lat="49.90118" lon="2.49387">
        <ele>30</ele>
        <time>2023-09-27T14:05:00Z</time>
      </trkpt>
      <trkpt lat="49.90118" lon="2.49389">
        <ele>30</ele>
        <time>2023-09-27T14:05:01Z</time>
      </trkpt>
      <trkpt lat="49.90117" lon="2.49391">
        <ele>30</ele>
        <time>2023-09-27T14:05:02Z</time>
      </trkpt>
      <trkpt lat="49.90117" lon="2.49392">
        <ele>30</ele>
        <time>2023-09-27T14:05:03Z</time>
      </trkpt>
      <trkpt lat="49.90117" lon="2.49393">
        <ele>30</ele>
        <time>2023-09-27T14:05:04Z</time>
      </trkpt>
      <trkpt lat="49.90117" lon="2.49395">
        <ele>30</ele>
        <time>2023-09-27T14:05:05Z</time>
      </trkpt>
      <trkpt lat="49.90117" lon="2.49396">
        <ele>30</ele>
        <time>2023-09-27T14:05:06Z</time>
      </trkpt>
      <trkpt lat="49.90117" lon="2.49398">
        <ele>30</ele>
        <time>2023-09-27T14:05:07Z</time>
      </trkpt>
      <trkpt lat="49.90117" lon="2.49399">
        <ele>30</ele>
        <time>2023-09-27T14:05:08Z</time>
      </trkpt>
      <trkpt lat="49.90117" lon="2.49401">
        <ele>30</ele>
        <time>2023-09-27T14:05:09Z</time>
      </trkpt>
      <trkpt lat="49.90116" lon="2.49403">
        <ele>30</ele>
        <time>2023-09-27T14:05:10Z</time>
      </trkpt>
      <trkpt lat="49.90116" lon="2.49404">
        <ele>30</ele>
        <time>2023-09-27T14:05:11Z</time>
      </trkpt>
      <trkpt lat="49.90116" lon="2.49406">
        <ele>30</ele>
        <time>2023-09-27T14:05:12Z</time>
      </trkpt>
      <trkpt lat="49.90116" lon="2.49407">
        <ele>30</ele>
        <time>2023-09-27T14:05:13Z</time>
      </trkpt>
      <trkpt lat="49.90116" lon="2.4941">
        <ele>30</ele>
        <time>2023-09-27T14:05:14Z</time>
      </trkpt>
      <trkpt lat="49.90116" lon="2.49412">
        <ele>30</ele>
        <time>2023-09-27T14:05:15Z</time>
      </trkpt>
      <trkpt lat="49.90116" lon="2.49413">
        <ele>30</ele>
        <time>2023-09-27T14:05:16Z</time>
      </trkpt>
      <trkpt lat="49.90116" lon="2.49415">
        <ele>30</ele>
        <time>2023-09-27T14:05:17Z</time>
      </trkpt>
      <trkpt lat="49.90115" lon="2.49416">
        <ele>30</ele>
        <time>2023-09-27T14:05:18Z</time>
      </trkpt>
      <trkpt lat="49.90115" lon="2.49418">
        <ele>30</ele>
        <time>2023-09-27T14:05:19Z</time>
      </trkpt>
      <trkpt lat="49.90115" lon="2.4942">
        <ele>30</ele>
        <time>2023-09-27T14:05:20Z</time>
      </trkpt>
      <trkpt lat="49.90115" lon="2.49421">
        <ele>30</ele>
        <time>2023-09-27T14:05:21Z</time>
      </trkpt>
      <trkpt lat="49.90114" lon="2.49423">
        <ele>30</ele>
        <time>2023-09-27T14:05:22Z</time>
      </trkpt>
      <trkpt lat="49.90114" lon="2.49425">
        <ele>30</ele>
        <time>2023-09-27T14:05:23Z</time>
      </trkpt>
      <trkpt lat="49.90114" lon="2.49426">
        <ele>30</ele>
        <time>2023-09-27T14:05:24Z</time>
      </trkpt>
      <trkpt lat="49.90114" lon="2.49428">
        <ele>30</ele>
        <time>2023-09-27T14:05:25Z</time>
      </trkpt>
      <trkpt lat="49.90114" lon="2.49429">
        <ele>30</ele>
        <time>2023-09-27T14:05:26Z</time>
      </trkpt>
      <trkpt lat="49.90114" lon="2.49431">
        <ele>30</ele>
        <time>2023-09-27T14:05:27Z</time>
      </trkpt>
      <trkpt lat="49.90114" lon="2.49433">
        <ele>30</ele>
        <time>2023-09-27T14:05:28Z</time>
      </trkpt>
      <trkpt lat="49.90114" lon="2.49434">
        <ele>30</ele>
        <time>2023-09-27T14:05:29Z</time>
      </trkpt>
      <trkpt lat="49.90114" lon="2.49436">
        <ele>30</ele>
        <time>2023-09-27T14:05:30Z</time>
      </trkpt>
      <trkpt lat="49.90114" lon="2.49438">
        <ele>30</ele>
        <time>2023-09-27T14:05:31Z</time>
      </trkpt>
      <trkpt lat="49.90114" lon="2.49439">
        <ele>30</ele>
        <time>2023-09-27T14:05:32Z</time>
      </trkpt>
      <trkpt lat="49.90113" lon="2.49441">
        <ele>30</ele>
        <time>2023-09-27T14:05:33Z</time>
      </trkpt>
      <trkpt lat="49.90113" lon="2.49443">
        <ele>30</ele>
        <time>2023-09-27T14:05:34Z</time>
      </trkpt>
      <trkpt lat="49.90113" lon="2.49445">
        <ele>30</ele>
        <time>2023-09-27T14:05:35Z</time>
      </trkpt>
      <trkpt lat="49.90113" lon="2.49446">
        <ele>30</ele>
        <time>2023-09-27T14:05:36Z</time>
      </trkpt>
      <trkpt lat="49.90114" lon="2.49448">
        <ele>30</ele>
        <time>2023-09-27T14:05:37Z</time>
      </trkpt>
      <trkpt lat="49.90114" lon="2.49449">
        <ele>30</ele>
        <time>2023-09-27T14:05:38Z</time>
      </trkpt>
      <trkpt lat="49.90114" lon="2.49451">
        <ele>30</ele>
        <time>2023-09-27T14:05:39Z</time>
      </trkpt>
      <trkpt lat="49.90114" lon="2.49453">
        <ele>30</ele>
        <time>2023-09-27T14:05:40Z</time>
      </trkpt>
      <trkpt lat="49.90114" lon="2.49454">
        <ele>30</ele>
        <time>2023-09-27T14:05:41Z</time>
      </trkpt>
      <trkpt lat="49.90114" lon="2.49456">
        <ele>30</ele>
        <time>2023-09-27T14:05:42Z</time>
      </trkpt>
      <trkpt lat="49.90114" lon="2.49458">
        <ele>30</ele>
        <time>2023-09-27T14:05:43Z</time>
      </trkpt>
      <trkpt lat="49.90114" lon="2.49459">
        <ele>30</ele>
        <time>2023-09-27T14:05:44Z</time>
      </trkpt>
      <trkpt lat="49.90114" lon="2.4946">
        <ele>30</ele>
        <time>2023-09-27T14:05:45Z</time>
      </trkpt>
      <trkpt lat="49.90114" lon="2.49462">
        <ele>30</ele>
        <time>2023-09-27T14:05:46Z</time>
      </trkpt>
      <trkpt lat="49.90115" lon="2.49463">
        <ele>30</ele>
        <time>2023-09-27T14:05:47Z</time>
      </trkpt>
      <trkpt lat="49.90115" lon="2.49465">
        <ele>30</ele>
        <time>2023-09-27T14:05:48Z</time>
      </trkpt>
      <trkpt lat="49.90115" lon="2.49467">
        <ele>30</ele>
        <time>2023-09-27T14:05:49Z</time>
      </trkpt>
      <trkpt lat="49.90115" lon="2.49468">
        <ele>30</ele>
        <time>2023-09-27T14:05:50Z</time>
      </trkpt>
      <trkpt lat="49.90115" lon="2.4947">
        <ele>30</ele>
        <time>2023-09-27T14:05:51Z</time>
      </trkpt>
      <trkpt lat="49.90116" lon="2.49472">
        <ele>30</ele>
        <time>2023-09-27T14:05:52Z</time>
      </trkpt>
      <trkpt lat="49.90116" lon="2.49473">
        <ele>30</ele>
        <time>2023-09-27T14:05:53Z</time>
      </trkpt>
      <trkpt lat="49.90116" lon="2.49475">
        <ele>30</ele>
        <time>2023-09-27T14:05:54Z</time>
      </trkpt>
      <trkpt lat="49.90116" lon="2.49476">
        <ele>30</ele>
        <time>2023-09-27T14:05:55Z</time>
      </trkpt>
      <trkpt lat="49.90116" lon="2.49477">
        <ele>30</ele>
        <time>2023-09-27T14:05:56Z</time>
      </trkpt>
      <trkpt lat="49.90117" lon="2.49479">
        <ele>30</ele>
        <time>2023-09-27T14:05:57Z</time>
      </trkpt>
      <trkpt lat="49.90117" lon="2.49481">
        <ele>30</ele>
        <time>2023-09-27T14:05:58Z</time>
      </trkpt>
      <trkpt lat="49.90117" lon="2.49482">
        <ele>30</ele>
        <time>2023-09-27T14:05:59Z</time>
      </trkpt>
      <trkpt lat="49.90117" lon="2.49484">
        <ele>30</ele>
        <time>2023-09-27T14:06:00Z</time>
      </trkpt>
      <trkpt lat="49.90117" lon="2.49486">
        <ele>30</ele>
        <time>2023-09-27T14:06:01Z</time>
      </trkpt>
      <trkpt lat="49.90117" lon="2.49488">
        <ele>30</ele>
        <time>2023-09-27T14:06:02Z</time>
      </trkpt>
      <trkpt lat="49.90117" lon="2.49489">
        <ele>30</ele>
        <time>2023-09-27T14:06:03Z</time>
      </trkpt>
      <trkpt lat="49.90117" lon="2.49491">
        <ele>30</ele>
        <time>2023-09-27T14:06:04Z</time>
      </trkpt>
      <trkpt lat="49.90117" lon="2.49493">
        <ele>30</ele>
        <time>2023-09-27T14:06:05Z</time>
      </trkpt>
      <trkpt lat="49.90117" lon="2.49495">
        <ele>30</ele>
        <time>2023-09-27T14:06:06Z</time>
      </trkpt>
      <trkpt lat="49.90117" lon="2.49496">
        <ele>30</ele>
        <time>2023-09-27T14:06:07Z</time>
      </trkpt>
      <trkpt lat="49.90117" lon="2.49498">
        <ele>30</ele>
        <time>2023-09-27T14:06:08Z</time>
      </trkpt>
      <trkpt lat="49.90118" lon="2.495">
        <ele>30</ele>
        <time>2023-09-27T14:06:09Z</time>
      </trkpt>
      <trkpt lat="49.90118" lon="2.49502">
        <ele>30</ele>
        <time>2023-09-27T14:06:10Z</time>
      </trkpt>
      <trkpt lat="49.90118" lon="2.49505">
        <ele>30</ele>
        <time>2023-09-27T14:06:11Z</time>
      </trkpt>
      <trkpt lat="49.90118" lon="2.49506">
        <ele>30</ele>
        <time>2023-09-27T14:06:12Z</time>
      </trkpt>
      <trkpt lat="49.90118" lon="2.49507">
        <ele>30</ele>
        <time>2023-09-27T14:06:13Z</time>
      </trkpt>
      <trkpt lat="49.90119" lon="2.49509">
        <ele>30</ele>
        <time>2023-09-27T14:06:14Z</time>
      </trkpt>
      <trkpt lat="49.90119" lon="2.49511">
        <ele>30</ele>
        <time>2023-09-27T14:06:15Z</time>
      </trkpt>
      <trkpt lat="49.90119" lon="2.49512">
        <ele>30</ele>
        <time>2023-09-27T14:06:16Z</time>
      </trkpt>
      <trkpt lat="49.90119" lon="2.49514">
        <ele>30</ele>
        <time>2023-09-27T14:06:17Z</time>
      </trkpt>
      <trkpt lat="49.90119" lon="2.49515">
        <ele>30</ele>
        <time>2023-09-27T14:06:18Z</time>
      </trkpt>
      <trkpt lat="49.9012" lon="2.49517">
        <ele>30</ele>
        <time>2023-09-27T14:06:19Z</time>
      </trkpt>
      <trkpt lat="49.9012" lon="2.49518">
        <ele>30</ele>
        <time>2023-09-27T14:06:20Z</time>
      </trkpt>
      <trkpt lat="49.9012" lon="2.4952">
        <ele>30</ele>
        <time>2023-09-27T14:06:21Z</time>
      </trkpt>
      <trkpt lat="49.9012" lon="2.49522">
        <ele>30</ele>
        <time>2023-09-27T14:06:22Z</time>
      </trkpt>
      <trkpt lat="49.9012" lon="2.49523">
        <ele>30</ele>
        <time>2023-09-27T14:06:23Z</time>
      </trkpt>
      <trkpt lat="49.9012" lon="2.49525">
        <ele>30</ele>
        <time>2023-09-27T14:06:24Z</time>
      </trkpt>
      <trkpt lat="49.9012" lon="2.49527">
        <ele>30</ele>
        <time>2023-09-27T14:06:25Z</time>
      </trkpt>
      <trkpt lat="49.9012" lon="2.49528">
        <ele>30</ele>
        <time>2023-09-27T14:06:26Z</time>
      </trkpt>
      <trkpt lat="49.90121" lon="2.49529">
        <ele>30</ele>
        <time>2023-09-27T14:06:27Z</time>
      </trkpt>
      <trkpt lat="49.90121" lon="2.49531">
        <ele>30</ele>
        <time>2023-09-27T14:06:28Z</time>
      </trkpt>
      <trkpt lat="49.90121" lon="2.49532">
        <ele>30</ele>
        <time>2023-09-27T14:06:29Z</time>
      </trkpt>
      <trkpt lat="49.90121" lon="2.49534">
        <ele>30</ele>
        <time>2023-09-27T14:06:30Z</time>
      </trkpt>
      <trkpt lat="49.90121" lon="2.49535">
        <ele>30</ele>
        <time>2023-09-27T14:06:31Z</time>
      </trkpt>
      <trkpt lat="49.90122" lon="2.49537">
        <ele>30</ele>
        <time>2023-09-27T14:06:32Z</time>
      </trkpt>
      <trkpt lat="49.90122" lon="2.49539">
        <ele>30</ele>
        <time>2023-09-27T14:06:33Z</time>
      </trkpt>
      <trkpt lat="49.90122" lon="2.4954">
        <ele>30</ele>
        <time>2023-09-27T14:06:34Z</time>
      </trkpt>
      <trkpt lat="49.90122" lon="2.49542">
        <ele>30</ele>
        <time>2023-09-27T14:06:35Z</time>
      </trkpt>
      <trkpt lat="49.90122" lon="2.49544">
        <ele>30</ele>
        <time>2023-09-27T14:06:36Z</time>
      </trkpt>
      <trkpt lat="49.90123" lon="2.49545">
        <ele>30</ele>
        <time>2023-09-27T14:06:37Z</time>
      </trkpt>
      <trkpt lat="49.90123" lon="2.49547">
        <ele>30</ele>
        <time>2023-09-27T14:06:38Z</time>
      </trkpt>
      <trkpt lat="49.90123" lon="2.49548">
        <ele>30</ele>
        <time>2023-09-27T14:06:39Z</time>
      </trkpt>
      <trkpt lat="49.90124" lon="2.4955">
        <ele>30</ele>
        <time>2023-09-27T14:06:40Z</time>
      </trkpt>
      <trkpt lat="49.90124" lon="2.49553">
        <ele>30</ele>
        <time>2023-09-27T14:06:41Z</time>
      </trkpt>
      <trkpt lat="49.90124" lon="2.49554">
        <ele>30</ele>
        <time>2023-09-27T14:06:42Z</time>
      </trkpt>
      <trkpt lat="49.90125" lon="2.49556">
        <ele>30</ele>
        <time>2023-09-27T14:06:43Z</time>
      </trkpt>
      <trkpt lat="49.90125" lon="2.49559">
        <ele>30.1</ele>
        <time>2023-09-27T14:06:44Z</time>
      </trkpt>
      <trkpt lat="49.90126" lon="2.4956">
        <ele>30.1</ele>
        <time>2023-09-27T14:06:45Z</time>
      </trkpt>
      <trkpt lat="49.90126" lon="2.49561">
        <ele>30.1</ele>
        <time>2023-09-27T14:06:46Z</time>
      </trkpt>
      <trkpt lat="49.90126" lon="2.49563">
        <ele>30.1</ele>
        <time>2023-09-27T14:06:47Z</time>
      </trkpt>
      <trkpt lat="49.90127" lon="2.49564">
        <ele>30.1</ele>
        <time>2023-09-27T14:06:48Z</time>
      </trkpt>
      <trkpt lat="49.90127" lon="2.49566">
        <ele>30.1</ele>
        <time>2023-09-27T14:06:49Z</time>
      </trkpt>
      <trkpt lat="49.90127" lon="2.49568">
        <ele>30.1</ele>
        <time>2023-09-27T14:06:50Z</time>
      </trkpt>
      <trkpt lat="49.90128" lon="2.49569">
        <ele>30.1</ele>
        <time>2023-09-27T14:06:51Z</time>
      </trkpt>
      <trkpt lat="49.90128" lon="2.49571">
        <ele>30.1</ele>
        <time>2023-09-27T14:06:52Z</time>
      </trkpt>
      <trkpt lat="49.90129" lon="2.49573">
        <ele>30.1</ele>
        <time>2023-09-27T14:06:53Z</time>
      </trkpt>
      <trkpt lat="49.90129" lon="2.49575">
        <ele>30.1</ele>
        <time>2023-09-27T14:06:54Z</time>
      </trkpt>
      <trkpt lat="49.90129" lon="2.49576">
        <ele>30.1</ele>
        <time>2023-09-27T14:06:55Z</time>
      </trkpt>
      <trkpt lat="49.90129" lon="2.49578">
        <ele>30.1</ele>
        <time>2023-09-27T14:06:56Z</time>
      </trkpt>
      <trkpt lat="49.90129" lon="2.4958">
        <ele>30.1</ele>
        <time>2023-09-27T14:06:57Z</time>
      </trkpt>
      <trkpt lat="49.90129" lon="2.49581">
        <ele>30.1</ele>
        <time>2023-09-27T14:06:58Z</time>
      </trkpt>
      <trkpt lat="49.9013" lon="2.49583">
        <ele>30.1</ele>
        <time>2023-09-27T14:06:59Z</time>
      </trkpt>
      <trkpt lat="49.9013" lon="2.49585">
        <ele>30.1</ele>
        <time>2023-09-27T14:07:00Z</time>
      </trkpt>
      <trkpt lat="49.9013" lon="2.49586">
        <ele>30.1</ele>
        <time>2023-09-27T14:07:01Z</time>
      </trkpt>
      <trkpt lat="49.9013" lon="2.49588">
        <ele>30.1</ele>
        <time>2023-09-27T14:07:02Z</time>
      </trkpt>
      <trkpt lat="49.9013" lon="2.4959">
        <ele>30.1</ele>
        <time>2023-09-27T14:07:03Z</time>
      </trkpt>
      <trkpt lat="49.9013" lon="2.49592">
        <ele>30.1</ele>
        <time>2023-09-27T14:07:04Z</time>
      </trkpt>
      <trkpt lat="49.9013" lon="2.49593">
        <ele>30.1</ele>
        <time>2023-09-27T14:07:05Z</time>
      </trkpt>
      <trkpt lat="49.9013" lon="2.49594">
        <ele>30.1</ele>
        <time>2023-09-27T14:07:06Z</time>
      </trkpt>
      <trkpt lat="49.9013" lon="2.49596">
        <ele>30.1</ele>
        <time>2023-09-27T14:07:07Z</time>
      </trkpt>
      <trkpt lat="49.90129" lon="2.49597">
        <ele>30.1</ele>
        <time>2023-09-27T14:07:08Z</time>
      </trkpt>
      <trkpt lat="49.9013" lon="2.49599">
        <ele>30.1</ele>
        <time>2023-09-27T14:07:09Z</time>
      </trkpt>
      <trkpt lat="49.9013" lon="2.49601">
        <ele>30.1</ele>
        <time>2023-09-27T14:07:10Z</time>
      </trkpt>
      <trkpt lat="49.9013" lon="2.49602">
        <ele>30.1</ele>
        <time>2023-09-27T14:07:11Z</time>
      </trkpt>
      <trkpt lat="49.9013" lon="2.49604">
        <ele>30.2</ele>
        <time>2023-09-27T14:07:12Z</time>
      </trkpt>
      <trkpt lat="49.9013" lon="2.49606">
        <ele>30.2</ele>
        <time>2023-09-27T14:07:13Z</time>
      </trkpt>
      <trkpt lat="49.9013" lon="2.49608">
        <ele>30.2</ele>
        <time>2023-09-27T14:07:14Z</time>
      </trkpt>
      <trkpt lat="49.9013" lon="2.49609">
        <ele>30.2</ele>
        <time>2023-09-27T14:07:15Z</time>
      </trkpt>
      <trkpt lat="49.9013" lon="2.49611">
        <ele>30.2</ele>
        <time>2023-09-27T14:07:16Z</time>
      </trkpt>
      <trkpt lat="49.9013" lon="2.49612">
        <ele>30.2</ele>
        <time>2023-09-27T14:07:17Z</time>
      </trkpt>
      <trkpt lat="49.9013" lon="2.49614">
        <ele>30.2</ele>
        <time>2023-09-27T14:07:18Z</time>
      </trkpt>
      <trkpt lat="49.9013" lon="2.49615">
        <ele>30.2</ele>
        <time>2023-09-27T14:07:19Z</time>
      </trkpt>
      <trkpt lat="49.9013" lon="2.49617">
        <ele>30.2</ele>
        <time>2023-09-27T14:07:20Z</time>
      </trkpt>
      <trkpt lat="49.9013" lon="2.49618">
        <ele>30.2</ele>
        <time>2023-09-27T14:07:21Z</time>
      </trkpt>
      <trkpt lat="49.9013" lon="2.4962">
        <ele>30.2</ele>
        <time>2023-09-27T14:07:22Z</time>
      </trkpt>
      <trkpt lat="49.9013" lon="2.49622">
        <ele>30.2</ele>
        <time>2023-09-27T14:07:23Z</time>
      </trkpt>
      <trkpt lat="49.9013" lon="2.49623">
        <ele>30.2</ele>
        <time>2023-09-27T14:07:24Z</time>
      </trkpt>
      <trkpt lat="49.9013" lon="2.49625">
        <ele>30.2</ele>
        <time>2023-09-27T14:07:25Z</time>
      </trkpt>
      <trkpt lat="49.9013" lon="2.49626">
        <ele>30.2</ele>
        <time>2023-09-27T14:07:26Z</time>
      </trkpt>
      <trkpt lat="49.9013" lon="2.49628">
        <ele>30.2</ele>
        <time>2023-09-27T14:07:27Z</time>
      </trkpt>
      <trkpt lat="49.90131" lon="2.49629">
        <ele>30.2</ele>
        <time>2023-09-27T14:07:28Z</time>
      </trkpt>
      <trkpt lat="49.90131" lon="2.49631">
        <ele>30.2</ele>
        <time>2023-09-27T14:07:29Z</time>
      </trkpt>
      <trkpt lat="49.90131" lon="2.49632">
        <ele>30.2</ele>
        <time>2023-09-27T14:07:30Z</time>
      </trkpt>
      <trkpt lat="49.90131" lon="2.49634">
        <ele>30.2</ele>
        <time>2023-09-27T14:07:31Z</time>
      </trkpt>
      <trkpt lat="49.90132" lon="2.49636">
        <ele>30.2</ele>
        <time>2023-09-27T14:07:32Z</time>
      </trkpt>
      <trkpt lat="49.90132" lon="2.49637">
        <ele>30.2</ele>
        <time>2023-09-27T14:07:33Z</time>
      </trkpt>
      <trkpt lat="49.90132" lon="2.49639">
        <ele>30.2</ele>
        <time>2023-09-27T14:07:34Z</time>
      </trkpt>
      <trkpt lat="49.90132" lon="2.4964">
        <ele>30.2</ele>
        <time>2023-09-27T14:07:35Z</time>
      </trkpt>
      <trkpt lat="49.90133" lon="2.49642">
        <ele>30.2</ele>
        <time>2023-09-27T14:07:36Z</time>
      </trkpt>
      <trkpt lat="49.90133" lon="2.49644">
        <ele>30.2</ele>
        <time>2023-09-27T14:07:37Z</time>
      </trkpt>
      <trkpt lat="49.90133" lon="2.49645">
        <ele>30.2</ele>
        <time>2023-09-27T14:07:38Z</time>
      </trkpt>
      <trkpt lat="49.90133" lon="2.49647">
        <ele>30.2</ele>
        <time>2023-09-27T14:07:39Z</time>
      </trkpt>
      <trkpt lat="49.90133" lon="2.49649">
        <ele>30.2</ele>
        <time>2023-09-27T14:07:40Z</time>
      </trkpt>
      <trkpt lat="49.90133" lon="2.4965">
        <ele>30.2</ele>
        <time>2023-09-27T14:07:41Z</time>
      </trkpt>
      <trkpt lat="49.90134" lon="2.49652">
        <ele>30.2</ele>
        <time>2023-09-27T14:07:42Z</time>
      </trkpt>
      <trkpt lat="49.90134" lon="2.49654">
        <ele>30.2</ele>
        <time>2023-09-27T14:07:43Z</time>
      </trkpt>
      <trkpt lat="49.90134" lon="2.49656">
        <ele>30.2</ele>
        <time>2023-09-27T14:07:44Z</time>
      </trkpt>
      <trkpt lat="49.90134" lon="2.49657">
        <ele>30.2</ele>
        <time>2023-09-27T14:07:45Z</time>
      </trkpt>
      <trkpt lat="49.90135" lon="2.49659">
        <ele>30.2</ele>
        <time>2023-09-27T14:07:46Z</time>
      </trkpt>
      <trkpt lat="49.90135" lon="2.49661">
        <ele>30.2</ele>
        <time>2023-09-27T14:07:47Z</time>
      </trkpt>
      <trkpt lat="49.90135" lon="2.49662">
        <ele>30.2</ele>
        <time>2023-09-27T14:07:48Z</time>
      </trkpt>
      <trkpt lat="49.90135" lon="2.49664">
        <ele>30.2</ele>
        <time>2023-09-27T14:07:49Z</time>
      </trkpt>
      <trkpt lat="49.90135" lon="2.49666">
        <ele>30.2</ele>
        <time>2023-09-27T14:07:50Z</time>
      </trkpt>
      <trkpt lat="49.90136" lon="2.49667">
        <ele>30.2</ele>
        <time>2023-09-27T14:07:51Z</time>
      </trkpt>
      <trkpt lat="49.90136" lon="2.49669">
        <ele>30.2</ele>
        <time>2023-09-27T14:07:52Z</time>
      </trkpt>
      <trkpt lat="49.90136" lon="2.4967">
        <ele>30.2</ele>
        <time>2023-09-27T14:07:53Z</time>
      </trkpt>
      <trkpt lat="49.90136" lon="2.49672">
        <ele>30.3</ele>
        <time>2023-09-27T14:07:54Z</time>
      </trkpt>
      <trkpt lat="49.90137" lon="2.49673">
        <ele>30.3</ele>
        <time>2023-09-27T14:07:55Z</time>
      </trkpt>
      <trkpt lat="49.90137" lon="2.49675">
        <ele>30.3</ele>
        <time>2023-09-27T14:07:56Z</time>
      </trkpt>
      <trkpt lat="49.90137" lon="2.49676">
        <ele>30.3</ele>
        <time>2023-09-27T14:07:57Z</time>
      </trkpt>
      <trkpt lat="49.90137" lon="2.49678">
        <ele>30.3</ele>
        <time>2023-09-27T14:07:58Z</time>
      </trkpt>
      <trkpt lat="49.90137" lon="2.4968">
        <ele>30.3</ele>
        <time>2023-09-27T14:07:59Z</time>
      </trkpt>
      <trkpt lat="49.90138" lon="2.49681">
        <ele>30.3</ele>
        <time>2023-09-27T14:08:00Z</time>
      </trkpt>
      <trkpt lat="49.90138" lon="2.49683">
        <ele>30.3</ele>
        <time>2023-09-27T14:08:01Z</time>
      </trkpt>
      <trkpt lat="49.90138" lon="2.49684">
        <ele>30.3</ele>
        <time>2023-09-27T14:08:02Z</time>
      </trkpt>
      <trkpt lat="49.90138" lon="2.49686">
        <ele>30.3</ele>
        <time>2023-09-27T14:08:03Z</time>
      </trkpt>
      <trkpt lat="49.90138" lon="2.49687">
        <ele>30.3</ele>
        <time>2023-09-27T14:08:04Z</time>
      </trkpt>
      <trkpt lat="49.90139" lon="2.49689">
        <ele>30.3</ele>
        <time>2023-09-27T14:08:05Z</time>
      </trkpt>
      <trkpt lat="49.90139" lon="2.4969">
        <ele>30.3</ele>
        <time>2023-09-27T14:08:06Z</time>
      </trkpt>
      <trkpt lat="49.90139" lon="2.49692">
        <ele>30.3</ele>
        <time>2023-09-27T14:08:07Z</time>
      </trkpt>
      <trkpt lat="49.90139" lon="2.49694">
        <ele>30.3</ele>
        <time>2023-09-27T14:08:08Z</time>
      </trkpt>
      <trkpt lat="49.90139" lon="2.49696">
        <ele>30.3</ele>
        <time>2023-09-27T14:08:09Z</time>
      </trkpt>
      <trkpt lat="49.90139" lon="2.49697">
        <ele>30.3</ele>
        <time>2023-09-27T14:08:10Z</time>
      </trkpt>
      <trkpt lat="49.90138" lon="2.49699">
        <ele>30.3</ele>
        <time>2023-09-27T14:08:11Z</time>
      </trkpt>
      <trkpt lat="49.90138" lon="2.497">
        <ele>30.3</ele>
        <time>2023-09-27T14:08:12Z</time>
      </trkpt>
      <trkpt lat="49.90138" lon="2.49702">
        <ele>30.3</ele>
        <time>2023-09-27T14:08:13Z</time>
      </trkpt>
      <trkpt lat="49.90139" lon="2.49703">
        <ele>30.3</ele>
        <time>2023-09-27T14:08:14Z</time>
      </trkpt>
      <trkpt lat="49.90139" lon="2.49704">
        <ele>30.3</ele>
        <time>2023-09-27T14:08:15Z</time>
      </trkpt>
      <trkpt lat="49.90139" lon="2.49706">
        <ele>30.3</ele>
        <time>2023-09-27T14:08:16Z</time>
      </trkpt>
      <trkpt lat="49.90139" lon="2.49708">
        <ele>30.3</ele>
        <time>2023-09-27T14:08:17Z</time>
      </trkpt>
      <trkpt lat="49.90139" lon="2.49709">
        <ele>30.3</ele>
        <time>2023-09-27T14:08:18Z</time>
      </trkpt>
      <trkpt lat="49.90139" lon="2.49711">
        <ele>30.3</ele>
        <time>2023-09-27T14:08:19Z</time>
      </trkpt>
      <trkpt lat="49.90139" lon="2.49713">
        <ele>30.3</ele>
        <time>2023-09-27T14:08:20Z</time>
      </trkpt>
      <trkpt lat="49.90139" lon="2.49714">
        <ele>30.3</ele>
        <time>2023-09-27T14:08:21Z</time>
      </trkpt>
      <trkpt lat="49.90139" lon="2.49716">
        <ele>30.3</ele>
        <time>2023-09-27T14:08:22Z</time>
      </trkpt>
      <trkpt lat="49.90139" lon="2.49718">
        <ele>30.3</ele>
        <time>2023-09-27T14:08:23Z</time>
      </trkpt>
      <trkpt lat="49.90139" lon="2.4972">
        <ele>30.3</ele>
        <time>2023-09-27T14:08:24Z</time>
      </trkpt>
      <trkpt lat="49.90139" lon="2.49721">
        <ele>30.3</ele>
        <time>2023-09-27T14:08:25Z</time>
      </trkpt>
      <trkpt lat="49.90139" lon="2.49723">
        <ele>30.3</ele>
        <time>2023-09-27T14:08:26Z</time>
      </trkpt>
      <trkpt lat="49.90139" lon="2.49725">
        <ele>30.3</ele>
        <time>2023-09-27T14:08:27Z</time>
      </trkpt>
      <trkpt lat="49.90139" lon="2.49727">
        <ele>30.3</ele>
        <time>2023-09-27T14:08:28Z</time>
      </trkpt>
      <trkpt lat="49.90139" lon="2.49728">
        <ele>30.3</ele>
        <time>2023-09-27T14:08:29Z</time>
      </trkpt>
      <trkpt lat="49.90139" lon="2.4973">
        <ele>30.3</ele>
        <time>2023-09-27T14:08:30Z</time>
      </trkpt>
      <trkpt lat="49.90139" lon="2.49732">
        <ele>30.3</ele>
        <time>2023-09-27T14:08:31Z</time>
      </trkpt>
      <trkpt lat="49.90139" lon="2.49733">
        <ele>30.3</ele>
        <time>2023-09-27T14:08:32Z</time>
      </trkpt>
      <trkpt lat="49.90139" lon="2.49735">
        <ele>30.3</ele>
        <time>2023-09-27T14:08:33Z</time>
      </trkpt>
      <trkpt lat="49.90139" lon="2.49737">
        <ele>30.3</ele>
        <time>2023-09-27T14:08:34Z</time>
      </trkpt>
      <trkpt lat="49.90139" lon="2.49739">
        <ele>30.3</ele>
        <time>2023-09-27T14:08:35Z</time>
      </trkpt>
      <trkpt lat="49.9014" lon="2.4974">
        <ele>30.3</ele>
        <time>2023-09-27T14:08:36Z</time>
      </trkpt>
      <trkpt lat="49.9014" lon="2.49742">
        <ele>30.3</ele>
        <time>2023-09-27T14:08:37Z</time>
      </trkpt>
      <trkpt lat="49.9014" lon="2.49744">
        <ele>30.3</ele>
        <time>2023-09-27T14:08:38Z</time>
      </trkpt>
      <trkpt lat="49.9014" lon="2.49746">
        <ele>30.3</ele>
        <time>2023-09-27T14:08:39Z</time>
      </trkpt>
      <trkpt lat="49.9014" lon="2.49747">
        <ele>30.3</ele>
        <time>2023-09-27T14:08:40Z</time>
      </trkpt>
      <trkpt lat="49.90141" lon="2.49749">
        <ele>30.3</ele>
        <time>2023-09-27T14:08:41Z</time>
      </trkpt>
      <trkpt lat="49.90141" lon="2.4975">
        <ele>30.3</ele>
        <time>2023-09-27T14:08:42Z</time>
      </trkpt>
      <trkpt lat="49.90141" lon="2.49752">
        <ele>30.3</ele>
        <time>2023-09-27T14:08:43Z</time>
      </trkpt>
      <trkpt lat="49.90141" lon="2.49753">
        <ele>30.3</ele>
        <time>2023-09-27T14:08:44Z</time>
      </trkpt>
      <trkpt lat="49.90142" lon="2.49755">
        <ele>30.3</ele>
        <time>2023-09-27T14:08:45Z</time>
      </trkpt>
      <trkpt lat="49.90142" lon="2.49757">
        <ele>30.3</ele>
        <time>2023-09-27T14:08:46Z</time>
      </trkpt>
      <trkpt lat="49.90142" lon="2.4976">
        <ele>30.3</ele>
        <time>2023-09-27T14:08:47Z</time>
      </trkpt>
      <trkpt lat="49.90142" lon="2.49761">
        <ele>30.3</ele>
        <time>2023-09-27T14:08:48Z</time>
      </trkpt>
      <trkpt lat="49.90143" lon="2.49762">
        <ele>30.3</ele>
        <time>2023-09-27T14:08:49Z</time>
      </trkpt>
      <trkpt lat="49.90143" lon="2.49765">
        <ele>30.3</ele>
        <time>2023-09-27T14:08:50Z</time>
      </trkpt>
      <trkpt lat="49.90143" lon="2.49767">
        <ele>30.3</ele>
        <time>2023-09-27T14:08:51Z</time>
      </trkpt>
      <trkpt lat="49.90143" lon="2.49768">
        <ele>30.3</ele>
        <time>2023-09-27T14:08:52Z</time>
      </trkpt>
      <trkpt lat="49.90143" lon="2.4977">
        <ele>30.3</ele>
        <time>2023-09-27T14:08:53Z</time>
      </trkpt>
      <trkpt lat="49.90144" lon="2.49771">
        <ele>30.3</ele>
        <time>2023-09-27T14:08:54Z</time>
      </trkpt>
      <trkpt lat="49.90144" lon="2.49773">
        <ele>30.3</ele>
        <time>2023-09-27T14:08:55Z</time>
      </trkpt>
      <trkpt lat="49.90144" lon="2.49775">
        <ele>30.3</ele>
        <time>2023-09-27T14:08:56Z</time>
      </trkpt>
      <trkpt lat="49.90144" lon="2.49776">
        <ele>30.3</ele>
        <time>2023-09-27T14:08:57Z</time>
      </trkpt>
      <trkpt lat="49.90144" lon="2.49778">
        <ele>30.3</ele>
        <time>2023-09-27T14:08:58Z</time>
      </trkpt>
      <trkpt lat="49.90144" lon="2.4978">
        <ele>30.3</ele>
        <time>2023-09-27T14:08:59Z</time>
      </trkpt>
      <trkpt lat="49.90144" lon="2.49782">
        <ele>30.2</ele>
        <time>2023-09-27T14:09:00Z</time>
      </trkpt>
      <trkpt lat="49.90145" lon="2.49784">
        <ele>30.2</ele>
        <time>2023-09-27T14:09:01Z</time>
      </trkpt>
      <trkpt lat="49.90145" lon="2.49785">
        <ele>30.2</ele>
        <time>2023-09-27T14:09:02Z</time>
      </trkpt>
      <trkpt lat="49.90145" lon="2.49787">
        <ele>30.2</ele>
        <time>2023-09-27T14:09:03Z</time>
      </trkpt>
      <trkpt lat="49.90145" lon="2.49789">
        <ele>30.2</ele>
        <time>2023-09-27T14:09:04Z</time>
      </trkpt>
      <trkpt lat="49.90145" lon="2.4979">
        <ele>30.2</ele>
        <time>2023-09-27T14:09:05Z</time>
      </trkpt>
      <trkpt lat="49.90145" lon="2.49792">
        <ele>30.2</ele>
        <time>2023-09-27T14:09:06Z</time>
      </trkpt>
      <trkpt lat="49.90145" lon="2.49793">
        <ele>30.2</ele>
        <time>2023-09-27T14:09:07Z</time>
      </trkpt>
      <trkpt lat="49.90145" lon="2.49795">
        <ele>30.2</ele>
        <time>2023-09-27T14:09:08Z</time>
      </trkpt>
      <trkpt lat="49.90145" lon="2.49796">
        <ele>30.2</ele>
        <time>2023-09-27T14:09:09Z</time>
      </trkpt>
      <trkpt lat="49.90146" lon="2.49798">
        <ele>30.2</ele>
        <time>2023-09-27T14:09:10Z</time>
      </trkpt>
      <trkpt lat="49.90146" lon="2.498">
        <ele>30.2</ele>
        <time>2023-09-27T14:09:11Z</time>
      </trkpt>
      <trkpt lat="49.90146" lon="2.49802">
        <ele>30.2</ele>
        <time>2023-09-27T14:09:12Z</time>
      </trkpt>
      <trkpt lat="49.90146" lon="2.49803">
        <ele>30.2</ele>
        <time>2023-09-27T14:09:13Z</time>
      </trkpt>
      <trkpt lat="49.90146" lon="2.49805">
        <ele>30.2</ele>
        <time>2023-09-27T14:09:14Z</time>
      </trkpt>
      <trkpt lat="49.90146" lon="2.49807">
        <ele>30.2</ele>
        <time>2023-09-27T14:09:15Z</time>
      </trkpt>
      <trkpt lat="49.90146" lon="2.49808">
        <ele>30.2</ele>
        <time>2023-09-27T14:09:16Z</time>
      </trkpt>
      <trkpt lat="49.90146" lon="2.4981">
        <ele>30.2</ele>
        <time>2023-09-27T14:09:17Z</time>
      </trkpt>
      <trkpt lat="49.90146" lon="2.49812">
        <ele>30.2</ele>
        <time>2023-09-27T14:09:18Z</time>
      </trkpt>
      <trkpt lat="49.90147" lon="2.49813">
        <ele>30.2</ele>
        <time>2023-09-27T14:09:19Z</time>
      </trkpt>
      <trkpt lat="49.90147" lon="2.49817">
        <ele>30.2</ele>
        <time>2023-09-27T14:09:20Z</time>
      </trkpt>
      <trkpt lat="49.90147" lon="2.49818">
        <ele>30.2</ele>
        <time>2023-09-27T14:09:21Z</time>
      </trkpt>
      <trkpt lat="49.90147" lon="2.49819">
        <ele>30.2</ele>
        <time>2023-09-27T14:09:22Z</time>
      </trkpt>
      <trkpt lat="49.90147" lon="2.49822">
        <ele>30.2</ele>
        <time>2023-09-27T14:09:23Z</time>
      </trkpt>
      <trkpt lat="49.90148" lon="2.49823">
        <ele>30.2</ele>
        <time>2023-09-27T14:09:24Z</time>
      </trkpt>
      <trkpt lat="49.90148" lon="2.49825">
        <ele>30.2</ele>
        <time>2023-09-27T14:09:25Z</time>
      </trkpt>
      <trkpt lat="49.90148" lon="2.49828">
        <ele>30.2</ele>
        <time>2023-09-27T14:09:26Z</time>
      </trkpt>
      <trkpt lat="49.90148" lon="2.49829">
        <ele>30.2</ele>
        <time>2023-09-27T14:09:27Z</time>
      </trkpt>
      <trkpt lat="49.90148" lon="2.49831">
        <ele>30.2</ele>
        <time>2023-09-27T14:09:28Z</time>
      </trkpt>
      <trkpt lat="49.90149" lon="2.49832">
        <ele>30.2</ele>
        <time>2023-09-27T14:09:29Z</time>
      </trkpt>
      <trkpt lat="49.90149" lon="2.49834">
        <ele>30.2</ele>
        <time>2023-09-27T14:09:30Z</time>
      </trkpt>
      <trkpt lat="49.90149" lon="2.49835">
        <ele>30.2</ele>
        <time>2023-09-27T14:09:31Z</time>
      </trkpt>
      <trkpt lat="49.90149" lon="2.49838">
        <ele>30.2</ele>
        <time>2023-09-27T14:09:32Z</time>
      </trkpt>
      <trkpt lat="49.90149" lon="2.4984">
        <ele>30.3</ele>
        <time>2023-09-27T14:09:33Z</time>
      </trkpt>
      <trkpt lat="49.90149" lon="2.49841">
        <ele>30.3</ele>
        <time>2023-09-27T14:09:34Z</time>
      </trkpt>
      <trkpt lat="49.9015" lon="2.49844">
        <ele>30.3</ele>
        <time>2023-09-27T14:09:35Z</time>
      </trkpt>
      <trkpt lat="49.9015" lon="2.49845">
        <ele>30.3</ele>
        <time>2023-09-27T14:09:36Z</time>
      </trkpt>
      <trkpt lat="49.9015" lon="2.49847">
        <ele>30.3</ele>
        <time>2023-09-27T14:09:37Z</time>
      </trkpt>
      <trkpt lat="49.9015" lon="2.49848">
        <ele>30.3</ele>
        <time>2023-09-27T14:09:38Z</time>
      </trkpt>
      <trkpt lat="49.9015" lon="2.4985">
        <ele>30.3</ele>
        <time>2023-09-27T14:09:39Z</time>
      </trkpt>
      <trkpt lat="49.90151" lon="2.49851">
        <ele>30.3</ele>
        <time>2023-09-27T14:09:40Z</time>
      </trkpt>
      <trkpt lat="49.90151" lon="2.49853">
        <ele>30.3</ele>
        <time>2023-09-27T14:09:41Z</time>
      </trkpt>
      <trkpt lat="49.90151" lon="2.49854">
        <ele>30.3</ele>
        <time>2023-09-27T14:09:42Z</time>
      </trkpt>
      <trkpt lat="49.90152" lon="2.49856">
        <ele>30.3</ele>
        <time>2023-09-27T14:09:43Z</time>
      </trkpt>
      <trkpt lat="49.90152" lon="2.49857">
        <ele>30.3</ele>
        <time>2023-09-27T14:09:44Z</time>
      </trkpt>
      <trkpt lat="49.90153" lon="2.49859">
        <ele>30.3</ele>
        <time>2023-09-27T14:09:45Z</time>
      </trkpt>
      <trkpt lat="49.90153" lon="2.49861">
        <ele>30.3</ele>
        <time>2023-09-27T14:09:46Z</time>
      </trkpt>
      <trkpt lat="49.90154" lon="2.49862">
        <ele>30.4</ele>
        <time>2023-09-27T14:09:47Z</time>
      </trkpt>
      <trkpt lat="49.90154" lon="2.49864">
        <ele>30.4</ele>
        <time>2023-09-27T14:09:48Z</time>
      </trkpt>
      <trkpt lat="49.90155" lon="2.49865">
        <ele>30.4</ele>
        <time>2023-09-27T14:09:49Z</time>
      </trkpt>
      <trkpt lat="49.90155" lon="2.49867">
        <ele>30.4</ele>
        <time>2023-09-27T14:09:50Z</time>
      </trkpt>
      <trkpt lat="49.90155" lon="2.49868">
        <ele>30.4</ele>
        <time>2023-09-27T14:09:51Z</time>
      </trkpt>
      <trkpt lat="49.90155" lon="2.4987">
        <ele>30.4</ele>
        <time>2023-09-27T14:09:52Z</time>
      </trkpt>
      <trkpt lat="49.90156" lon="2.49871">
        <ele>30.4</ele>
        <time>2023-09-27T14:09:53Z</time>
      </trkpt>
      <trkpt lat="49.90156" lon="2.49873">
        <ele>30.4</ele>
        <time>2023-09-27T14:09:54Z</time>
      </trkpt>
      <trkpt lat="49.90156" lon="2.49874">
        <ele>30.4</ele>
        <time>2023-09-27T14:09:55Z</time>
      </trkpt>
      <trkpt lat="49.90157" lon="2.49876">
        <ele>30.4</ele>
        <time>2023-09-27T14:09:56Z</time>
      </trkpt>
      <trkpt lat="49.90157" lon="2.49878">
        <ele>30.4</ele>
        <time>2023-09-27T14:09:57Z</time>
      </trkpt>
      <trkpt lat="49.90158" lon="2.4988">
        <ele>30.4</ele>
        <time>2023-09-27T14:09:58Z</time>
      </trkpt>
      <trkpt lat="49.90158" lon="2.49881">
        <ele>30.4</ele>
        <time>2023-09-27T14:09:59Z</time>
      </trkpt>
      <trkpt lat="49.90158" lon="2.49883">
        <ele>30.4</ele>
        <time>2023-09-27T14:10:00Z</time>
      </trkpt>
      <trkpt lat="49.90158" lon="2.49885">
        <ele>30.4</ele>
        <time>2023-09-27T14:10:01Z</time>
      </trkpt>
      <trkpt lat="49.90159" lon="2.49886">
        <ele>30.4</ele>
        <time>2023-09-27T14:10:02Z</time>
      </trkpt>
      <trkpt lat="49.90159" lon="2.49888">
        <ele>30.4</ele>
        <time>2023-09-27T14:10:03Z</time>
      </trkpt>
      <trkpt lat="49.90159" lon="2.49889">
        <ele>30.5</ele>
        <time>2023-09-27T14:10:04Z</time>
      </trkpt>
      <trkpt lat="49.90159" lon="2.49891">
        <ele>30.5</ele>
        <time>2023-09-27T14:10:05Z</time>
      </trkpt>
      <trkpt lat="49.9016" lon="2.49893">
        <ele>30.5</ele>
        <time>2023-09-27T14:10:06Z</time>
      </trkpt>
      <trkpt lat="49.9016" lon="2.49895">
        <ele>30.5</ele>
        <time>2023-09-27T14:10:07Z</time>
      </trkpt>
      <trkpt lat="49.9016" lon="2.49896">
        <ele>30.5</ele>
        <time>2023-09-27T14:10:08Z</time>
      </trkpt>
      <trkpt lat="49.90161" lon="2.49898">
        <ele>30.5</ele>
        <time>2023-09-27T14:10:09Z</time>
      </trkpt>
      <trkpt lat="49.90161" lon="2.499">
        <ele>30.5</ele>
        <time>2023-09-27T14:10:10Z</time>
      </trkpt>
      <trkpt lat="49.90161" lon="2.49901">
        <ele>30.5</ele>
        <time>2023-09-27T14:10:11Z</time>
      </trkpt>
      <trkpt lat="49.90161" lon="2.49903">
        <ele>30.5</ele>
        <time>2023-09-27T14:10:12Z</time>
      </trkpt>
      <trkpt lat="49.90161" lon="2.49905">
        <ele>30.5</ele>
        <time>2023-09-27T14:10:13Z</time>
      </trkpt>
      <trkpt lat="49.90161" lon="2.49907">
        <ele>30.5</ele>
        <time>2023-09-27T14:10:14Z</time>
      </trkpt>
      <trkpt lat="49.90162" lon="2.49908">
        <ele>30.5</ele>
        <time>2023-09-27T14:10:15Z</time>
      </trkpt>
      <trkpt lat="49.90162" lon="2.4991">
        <ele>30.5</ele>
        <time>2023-09-27T14:10:16Z</time>
      </trkpt>
      <trkpt lat="49.90163" lon="2.49913">
        <ele>30.5</ele>
        <time>2023-09-27T14:10:17Z</time>
      </trkpt>
      <trkpt lat="49.90163" lon="2.49915">
        <ele>30.5</ele>
        <time>2023-09-27T14:10:18Z</time>
      </trkpt>
      <trkpt lat="49.90163" lon="2.49916">
        <ele>30.5</ele>
        <time>2023-09-27T14:10:19Z</time>
      </trkpt>
      <trkpt lat="49.90164" lon="2.49917">
        <ele>30.5</ele>
        <time>2023-09-27T14:10:20Z</time>
      </trkpt>
      <trkpt lat="49.90164" lon="2.49919">
        <ele>30.5</ele>
        <time>2023-09-27T14:10:21Z</time>
      </trkpt>
      <trkpt lat="49.90165" lon="2.4992">
        <ele>30.5</ele>
        <time>2023-09-27T14:10:22Z</time>
      </trkpt>
      <trkpt lat="49.90165" lon="2.49922">
        <ele>30.5</ele>
        <time>2023-09-27T14:10:23Z</time>
      </trkpt>
      <trkpt lat="49.90166" lon="2.49924">
        <ele>30.5</ele>
        <time>2023-09-27T14:10:24Z</time>
      </trkpt>
      <trkpt lat="49.90166" lon="2.49925">
        <ele>30.5</ele>
        <time>2023-09-27T14:10:25Z</time>
      </trkpt>
      <trkpt lat="49.90167" lon="2.49928">
        <ele>30.5</ele>
        <time>2023-09-27T14:10:26Z</time>
      </trkpt>
      <trkpt lat="49.90168" lon="2.49929">
        <ele>30.4</ele>
        <time>2023-09-27T14:10:27Z</time>
      </trkpt>
      <trkpt lat="49.90168" lon="2.4993">
        <ele>30.4</ele>
        <time>2023-09-27T14:10:28Z</time>
      </trkpt>
      <trkpt lat="49.90168" lon="2.49932">
        <ele>30.4</ele>
        <time>2023-09-27T14:10:29Z</time>
      </trkpt>
      <trkpt lat="49.90169" lon="2.49934">
        <ele>30.4</ele>
        <time>2023-09-27T14:10:30Z</time>
      </trkpt>
      <trkpt lat="49.90169" lon="2.49935">
        <ele>30.4</ele>
        <time>2023-09-27T14:10:31Z</time>
      </trkpt>
      <trkpt lat="49.9017" lon="2.49937">
        <ele>30.4</ele>
        <time>2023-09-27T14:10:32Z</time>
      </trkpt>
      <trkpt lat="49.9017" lon="2.49938">
        <ele>30.4</ele>
        <time>2023-09-27T14:10:33Z</time>
      </trkpt>
      <trkpt lat="49.90171" lon="2.4994">
        <ele>30.4</ele>
        <time>2023-09-27T14:10:34Z</time>
      </trkpt>
      <trkpt lat="49.90171" lon="2.49942">
        <ele>30.4</ele>
        <time>2023-09-27T14:10:35Z</time>
      </trkpt>
      <trkpt lat="49.90171" lon="2.49943">
        <ele>30.4</ele>
        <time>2023-09-27T14:10:36Z</time>
      </trkpt>
      <trkpt lat="49.90171" lon="2.49945">
        <ele>30.4</ele>
        <time>2023-09-27T14:10:37Z</time>
      </trkpt>
      <trkpt lat="49.90172" lon="2.49947">
        <ele>30.4</ele>
        <time>2023-09-27T14:10:38Z</time>
      </trkpt>
      <trkpt lat="49.90172" lon="2.49948">
        <ele>30.4</ele>
        <time>2023-09-27T14:10:39Z</time>
      </trkpt>
      <trkpt lat="49.90172" lon="2.4995">
        <ele>30.4</ele>
        <time>2023-09-27T14:10:40Z</time>
      </trkpt>
      <trkpt lat="49.90173" lon="2.49952">
        <ele>30.4</ele>
        <time>2023-09-27T14:10:41Z</time>
      </trkpt>
      <trkpt lat="49.90173" lon="2.49953">
        <ele>30.4</ele>
        <time>2023-09-27T14:10:42Z</time>
      </trkpt>
      <trkpt lat="49.90173" lon="2.49955">
        <ele>30.4</ele>
        <time>2023-09-27T14:10:43Z</time>
      </trkpt>
      <trkpt lat="49.90173" lon="2.49956">
        <ele>30.4</ele>
        <time>2023-09-27T14:10:44Z</time>
      </trkpt>
      <trkpt lat="49.90173" lon="2.49958">
        <ele>30.4</ele>
        <time>2023-09-27T14:10:45Z</time>
      </trkpt>
      <trkpt lat="49.90173" lon="2.49959">
        <ele>30.4</ele>
        <time>2023-09-27T14:10:46Z</time>
      </trkpt>
      <trkpt lat="49.90174" lon="2.4996">
        <ele>30.4</ele>
        <time>2023-09-27T14:10:47Z</time>
      </trkpt>
      <trkpt lat="49.90174" lon="2.49962">
        <ele>30.4</ele>
        <time>2023-09-27T14:10:48Z</time>
      </trkpt>
      <trkpt lat="49.90174" lon="2.49963">
        <ele>30.4</ele>
        <time>2023-09-27T14:10:49Z</time>
      </trkpt>
      <trkpt lat="49.90174" lon="2.49965">
        <ele>30.4</ele>
        <time>2023-09-27T14:10:50Z</time>
      </trkpt>
      <trkpt lat="49.90174" lon="2.49967">
        <ele>30.4</ele>
        <time>2023-09-27T14:10:51Z</time>
      </trkpt>
      <trkpt lat="49.90174" lon="2.49968">
        <ele>30.4</ele>
        <time>2023-09-27T14:10:52Z</time>
      </trkpt>
      <trkpt lat="49.90174" lon="2.4997">
        <ele>30.4</ele>
        <time>2023-09-27T14:10:53Z</time>
      </trkpt>
      <trkpt lat="49.90174" lon="2.49972">
        <ele>30.4</ele>
        <time>2023-09-27T14:10:54Z</time>
      </trkpt>
      <trkpt lat="49.90174" lon="2.49973">
        <ele>30.3</ele>
        <time>2023-09-27T14:10:55Z</time>
      </trkpt>
      <trkpt lat="49.90175" lon="2.49975">
        <ele>30.3</ele>
        <time>2023-09-27T14:10:56Z</time>
      </trkpt>
      <trkpt lat="49.90175" lon="2.49976">
        <ele>30.3</ele>
        <time>2023-09-27T14:10:57Z</time>
      </trkpt>
      <trkpt lat="49.90175" lon="2.49978">
        <ele>30.3</ele>
        <time>2023-09-27T14:10:58Z</time>
      </trkpt>
      <trkpt lat="49.90175" lon="2.4998">
        <ele>30.3</ele>
        <time>2023-09-27T14:10:59Z</time>
      </trkpt>
      <trkpt lat="49.90176" lon="2.49981">
        <ele>30.3</ele>
        <time>2023-09-27T14:11:00Z</time>
      </trkpt>
      <trkpt lat="49.90176" lon="2.49983">
        <ele>30.3</ele>
        <time>2023-09-27T14:11:01Z</time>
      </trkpt>
      <trkpt lat="49.90176" lon="2.49986">
        <ele>30.3</ele>
        <time>2023-09-27T14:11:02Z</time>
      </trkpt>
      <trkpt lat="49.90176" lon="2.49987">
        <ele>30.3</ele>
        <time>2023-09-27T14:11:03Z</time>
      </trkpt>
      <trkpt lat="49.90177" lon="2.49989">
        <ele>30.3</ele>
        <time>2023-09-27T14:11:04Z</time>
      </trkpt>
      <trkpt lat="49.90177" lon="2.4999">
        <ele>30.2</ele>
        <time>2023-09-27T14:11:05Z</time>
      </trkpt>
      <trkpt lat="49.90177" lon="2.49992">
        <ele>30.2</ele>
        <time>2023-09-27T14:11:06Z</time>
      </trkpt>
      <trkpt lat="49.90177" lon="2.49994">
        <ele>30.2</ele>
        <time>2023-09-27T14:11:07Z</time>
      </trkpt>
      <trkpt lat="49.90177" lon="2.49996">
        <ele>30.2</ele>
        <time>2023-09-27T14:11:08Z</time>
      </trkpt>
      <trkpt lat="49.90177" lon="2.49997">
        <ele>30.2</ele>
        <time>2023-09-27T14:11:09Z</time>
      </trkpt>
      <trkpt lat="49.90177" lon="2.49999">
        <ele>30.2</ele>
        <time>2023-09-27T14:11:10Z</time>
      </trkpt>
      <trkpt lat="49.90177" lon="2.5">
        <ele>30.2</ele>
        <time>2023-09-27T14:11:11Z</time>
      </trkpt>
      <trkpt lat="49.90177" lon="2.50002">
        <ele>30.2</ele>
        <time>2023-09-27T14:11:12Z</time>
      </trkpt>
      <trkpt lat="49.90177" lon="2.50004">
        <ele>30.2</ele>
        <time>2023-09-27T14:11:13Z</time>
      </trkpt>
      <trkpt lat="49.90177" lon="2.50006">
        <ele>30.1</ele>
        <time>2023-09-27T14:11:14Z</time>
      </trkpt>
      <trkpt lat="49.90178" lon="2.50007">
        <ele>30.1</ele>
        <time>2023-09-27T14:11:15Z</time>
      </trkpt>
      <trkpt lat="49.90178" lon="2.50009">
        <ele>30.1</ele>
        <time>2023-09-27T14:11:16Z</time>
      </trkpt>
      <trkpt lat="49.90178" lon="2.50011">
        <ele>30.1</ele>
        <time>2023-09-27T14:11:17Z</time>
      </trkpt>
      <trkpt lat="49.90178" lon="2.50013">
        <ele>30.1</ele>
        <time>2023-09-27T14:11:18Z</time>
      </trkpt>
      <trkpt lat="49.90178" lon="2.50014">
        <ele>30.1</ele>
        <time>2023-09-27T14:11:19Z</time>
      </trkpt>
      <trkpt lat="49.90178" lon="2.50016">
        <ele>30</ele>
        <time>2023-09-27T14:11:20Z</time>
      </trkpt>
      <trkpt lat="49.90178" lon="2.50017">
        <ele>30</ele>
        <time>2023-09-27T14:11:21Z</time>
      </trkpt>
      <trkpt lat="49.90179" lon="2.50019">
        <ele>30</ele>
        <time>2023-09-27T14:11:22Z</time>
      </trkpt>
      <trkpt lat="49.90179" lon="2.5002">
        <ele>30</ele>
        <time>2023-09-27T14:11:23Z</time>
      </trkpt>
      <trkpt lat="49.90179" lon="2.50021">
        <ele>30</ele>
        <time>2023-09-27T14:11:24Z</time>
      </trkpt>
      <trkpt lat="49.9018" lon="2.50023">
        <ele>30</ele>
        <time>2023-09-27T14:11:25Z</time>
      </trkpt>
      <trkpt lat="49.9018" lon="2.50024">
        <ele>30</ele>
        <time>2023-09-27T14:11:26Z</time>
      </trkpt>
      <trkpt lat="49.90181" lon="2.50025">
        <ele>30</ele>
        <time>2023-09-27T14:11:27Z</time>
      </trkpt>
      <trkpt lat="49.90182" lon="2.50027">
        <ele>29.9</ele>
        <time>2023-09-27T14:11:28Z</time>
      </trkpt>
      <trkpt lat="49.90182" lon="2.50028">
        <ele>29.9</ele>
        <time>2023-09-27T14:11:29Z</time>
      </trkpt>
      <trkpt lat="49.90183" lon="2.5003">
        <ele>29.9</ele>
        <time>2023-09-27T14:11:30Z</time>
      </trkpt>
      <trkpt lat="49.90184" lon="2.50031">
        <ele>29.9</ele>
        <time>2023-09-27T14:11:31Z</time>
      </trkpt>
      <trkpt lat="49.90184" lon="2.50032">
        <ele>29.9</ele>
        <time>2023-09-27T14:11:32Z</time>
      </trkpt>
      <trkpt lat="49.90185" lon="2.50034">
        <ele>29.9</ele>
        <time>2023-09-27T14:11:33Z</time>
      </trkpt>
      <trkpt lat="49.90185" lon="2.50035">
        <ele>29.9</ele>
        <time>2023-09-27T14:11:34Z</time>
      </trkpt>
      <trkpt lat="49.90186" lon="2.50036">
        <ele>29.8</ele>
        <time>2023-09-27T14:11:35Z</time>
      </trkpt>
      <trkpt lat="49.90186" lon="2.50038">
        <ele>29.8</ele>
        <time>2023-09-27T14:11:36Z</time>
      </trkpt>
      <trkpt lat="49.90187" lon="2.50039">
        <ele>29.8</ele>
        <time>2023-09-27T14:11:37Z</time>
      </trkpt>
      <trkpt lat="49.90188" lon="2.50042">
        <ele>29.8</ele>
        <time>2023-09-27T14:11:38Z</time>
      </trkpt>
      <trkpt lat="49.90189" lon="2.50043">
        <ele>29.8</ele>
        <time>2023-09-27T14:11:39Z</time>
      </trkpt>
      <trkpt lat="49.90189" lon="2.50044">
        <ele>29.8</ele>
        <time>2023-09-27T14:11:40Z</time>
      </trkpt>
      <trkpt lat="49.90191" lon="2.50046">
        <ele>29.8</ele>
        <time>2023-09-27T14:11:41Z</time>
      </trkpt>
      <trkpt lat="49.90191" lon="2.50048">
        <ele>29.7</ele>
        <time>2023-09-27T14:11:42Z</time>
      </trkpt>
      <trkpt lat="49.90192" lon="2.50049">
        <ele>29.7</ele>
        <time>2023-09-27T14:11:43Z</time>
      </trkpt>
      <trkpt lat="49.90192" lon="2.5005">
        <ele>29.7</ele>
        <time>2023-09-27T14:11:44Z</time>
      </trkpt>
      <trkpt lat="49.90193" lon="2.50052">
        <ele>29.7</ele>
        <time>2023-09-27T14:11:45Z</time>
      </trkpt>
      <trkpt lat="49.90194" lon="2.50053">
        <ele>29.7</ele>
        <time>2023-09-27T14:11:46Z</time>
      </trkpt>
      <trkpt lat="49.90195" lon="2.50055">
        <ele>29.7</ele>
        <time>2023-09-27T14:11:47Z</time>
      </trkpt>
      <trkpt lat="49.90196" lon="2.50057">
        <ele>29.7</ele>
        <time>2023-09-27T14:11:48Z</time>
      </trkpt>
      <trkpt lat="49.90196" lon="2.50058">
        <ele>29.7</ele>
        <time>2023-09-27T14:11:49Z</time>
      </trkpt>
      <trkpt lat="49.90198" lon="2.5006">
        <ele>29.7</ele>
        <time>2023-09-27T14:11:50Z</time>
      </trkpt>
      <trkpt lat="49.90198" lon="2.50061">
        <ele>29.6</ele>
        <time>2023-09-27T14:11:51Z</time>
      </trkpt>
      <trkpt lat="49.90199" lon="2.50062">
        <ele>29.6</ele>
        <time>2023-09-27T14:11:52Z</time>
      </trkpt>
      <trkpt lat="49.902" lon="2.50065">
        <ele>29.6</ele>
        <time>2023-09-27T14:11:53Z</time>
      </trkpt>
      <trkpt lat="49.902" lon="2.50066">
        <ele>29.6</ele>
        <time>2023-09-27T14:11:54Z</time>
      </trkpt>
      <trkpt lat="49.90201" lon="2.50067">
        <ele>29.6</ele>
        <time>2023-09-27T14:11:55Z</time>
      </trkpt>
      <trkpt lat="49.90201" lon="2.50068">
        <ele>29.6</ele>
        <time>2023-09-27T14:11:56Z</time>
      </trkpt>
      <trkpt lat="49.90202" lon="2.5007">
        <ele>29.6</ele>
        <time>2023-09-27T14:11:57Z</time>
      </trkpt>
      <trkpt lat="49.90202" lon="2.50071">
        <ele>29.6</ele>
        <time>2023-09-27T14:11:58Z</time>
      </trkpt>
      <trkpt lat="49.90203" lon="2.50072">
        <ele>29.6</ele>
        <time>2023-09-27T14:11:59Z</time>
      </trkpt>
      <trkpt lat="49.90204" lon="2.50074">
        <ele>29.6</ele>
        <time>2023-09-27T14:12:00Z</time>
      </trkpt>
      <trkpt lat="49.90204" lon="2.50075">
        <ele>29.6</ele>
        <time>2023-09-27T14:12:01Z</time>
      </trkpt>
      <trkpt lat="49.90205" lon="2.50077">
        <ele>29.6</ele>
        <time>2023-09-27T14:12:02Z</time>
      </trkpt>
      <trkpt lat="49.90205" lon="2.50078">
        <ele>29.6</ele>
        <time>2023-09-27T14:12:03Z</time>
      </trkpt>
      <trkpt lat="49.90206" lon="2.5008">
        <ele>29.6</ele>
        <time>2023-09-27T14:12:04Z</time>
      </trkpt>
      <trkpt lat="49.90207" lon="2.50081">
        <ele>29.6</ele>
        <time>2023-09-27T14:12:05Z</time>
      </trkpt>
      <trkpt lat="49.90207" lon="2.50083">
        <ele>29.6</ele>
        <time>2023-09-27T14:12:06Z</time>
      </trkpt>
      <trkpt lat="49.90208" lon="2.50084">
        <ele>29.6</ele>
        <time>2023-09-27T14:12:07Z</time>
      </trkpt>
      <trkpt lat="49.90209" lon="2.50085">
        <ele>29.6</ele>
        <time>2023-09-27T14:12:08Z</time>
      </trkpt>
      <trkpt lat="49.90209" lon="2.50087">
        <ele>29.6</ele>
        <time>2023-09-27T14:12:09Z</time>
      </trkpt>
      <trkpt lat="49.9021" lon="2.50088">
        <ele>29.6</ele>
        <time>2023-09-27T14:12:10Z</time>
      </trkpt>
      <trkpt lat="49.9021" lon="2.50089">
        <ele>29.6</ele>
        <time>2023-09-27T14:12:11Z</time>
      </trkpt>
      <trkpt lat="49.90211" lon="2.5009">
        <ele>29.6</ele>
        <time>2023-09-27T14:12:12Z</time>
      </trkpt>
      <trkpt lat="49.90212" lon="2.50092">
        <ele>29.6</ele>
        <time>2023-09-27T14:12:13Z</time>
      </trkpt>
      <trkpt lat="49.90212" lon="2.50093">
        <ele>29.6</ele>
        <time>2023-09-27T14:12:14Z</time>
      </trkpt>
      <trkpt lat="49.90213" lon="2.50094">
        <ele>29.6</ele>
        <time>2023-09-27T14:12:15Z</time>
      </trkpt>
      <trkpt lat="49.90213" lon="2.50095">
        <ele>29.6</ele>
        <time>2023-09-27T14:12:16Z</time>
      </trkpt>
      <trkpt lat="49.90214" lon="2.50097">
        <ele>29.6</ele>
        <time>2023-09-27T14:12:17Z</time>
      </trkpt>
      <trkpt lat="49.90215" lon="2.50098">
        <ele>29.6</ele>
        <time>2023-09-27T14:12:18Z</time>
      </trkpt>
      <trkpt lat="49.90215" lon="2.50099">
        <ele>29.6</ele>
        <time>2023-09-27T14:12:19Z</time>
      </trkpt>
      <trkpt lat="49.90216" lon="2.501">
        <ele>29.6</ele>
        <time>2023-09-27T14:12:20Z</time>
      </trkpt>
      <trkpt lat="49.90217" lon="2.50101">
        <ele>29.6</ele>
        <time>2023-09-27T14:12:21Z</time>
      </trkpt>
      <trkpt lat="49.90217" lon="2.50102">
        <ele>29.6</ele>
        <time>2023-09-27T14:12:22Z</time>
      </trkpt>
      <trkpt lat="49.90218" lon="2.50103">
        <ele>29.6</ele>
        <time>2023-09-27T14:12:23Z</time>
      </trkpt>
      <trkpt lat="49.90219" lon="2.50105">
        <ele>29.6</ele>
        <time>2023-09-27T14:12:24Z</time>
      </trkpt>
      <trkpt lat="49.90219" lon="2.50106">
        <ele>29.6</ele>
        <time>2023-09-27T14:12:25Z</time>
      </trkpt>
      <trkpt lat="49.9022" lon="2.50107">
        <ele>29.6</ele>
        <time>2023-09-27T14:12:26Z</time>
      </trkpt>
      <trkpt lat="49.90221" lon="2.50108">
        <ele>29.6</ele>
        <time>2023-09-27T14:12:27Z</time>
      </trkpt>
      <trkpt lat="49.90222" lon="2.5011">
        <ele>29.6</ele>
        <time>2023-09-27T14:12:28Z</time>
      </trkpt>
      <trkpt lat="49.90223" lon="2.50111">
        <ele>29.6</ele>
        <time>2023-09-27T14:12:29Z</time>
      </trkpt>
      <trkpt lat="49.90223" lon="2.50112">
        <ele>29.6</ele>
        <time>2023-09-27T14:12:30Z</time>
      </trkpt>
      <trkpt lat="49.90224" lon="2.50114">
        <ele>29.6</ele>
        <time>2023-09-27T14:12:31Z</time>
      </trkpt>
      <trkpt lat="49.90225" lon="2.50115">
        <ele>29.6</ele>
        <time>2023-09-27T14:12:32Z</time>
      </trkpt>
      <trkpt lat="49.90226" lon="2.50116">
        <ele>29.6</ele>
        <time>2023-09-27T14:12:33Z</time>
      </trkpt>
      <trkpt lat="49.90226" lon="2.50117">
        <ele>29.6</ele>
        <time>2023-09-27T14:12:34Z</time>
      </trkpt>
      <trkpt lat="49.90228" lon="2.50119">
        <ele>29.6</ele>
        <time>2023-09-27T14:12:35Z</time>
      </trkpt>
      <trkpt lat="49.90228" lon="2.5012">
        <ele>29.6</ele>
        <time>2023-09-27T14:12:36Z</time>
      </trkpt>
      <trkpt lat="49.90229" lon="2.50121">
        <ele>29.6</ele>
        <time>2023-09-27T14:12:37Z</time>
      </trkpt>
      <trkpt lat="49.9023" lon="2.50123">
        <ele>29.6</ele>
        <time>2023-09-27T14:12:38Z</time>
      </trkpt>
      <trkpt lat="49.90231" lon="2.50124">
        <ele>29.6</ele>
        <time>2023-09-27T14:12:39Z</time>
      </trkpt>
      <trkpt lat="49.90232" lon="2.50125">
        <ele>29.6</ele>
        <time>2023-09-27T14:12:40Z</time>
      </trkpt>
      <trkpt lat="49.90233" lon="2.50127">
        <ele>29.6</ele>
        <time>2023-09-27T14:12:41Z</time>
      </trkpt>
      <trkpt lat="49.90233" lon="2.50128">
        <ele>29.6</ele>
        <time>2023-09-27T14:12:42Z</time>
      </trkpt>
      <trkpt lat="49.90234" lon="2.50129">
        <ele>29.7</ele>
        <time>2023-09-27T14:12:43Z</time>
      </trkpt>
      <trkpt lat="49.90235" lon="2.5013">
        <ele>29.7</ele>
        <time>2023-09-27T14:12:44Z</time>
      </trkpt>
      <trkpt lat="49.90235" lon="2.50131">
        <ele>29.7</ele>
        <time>2023-09-27T14:12:45Z</time>
      </trkpt>
      <trkpt lat="49.90236" lon="2.50132">
        <ele>29.7</ele>
        <time>2023-09-27T14:12:46Z</time>
      </trkpt>
      <trkpt lat="49.90237" lon="2.50134">
        <ele>29.7</ele>
        <time>2023-09-27T14:12:47Z</time>
      </trkpt>
      <trkpt lat="49.90237" lon="2.50135">
        <ele>29.7</ele>
        <time>2023-09-27T14:12:48Z</time>
      </trkpt>
      <trkpt lat="49.90238" lon="2.50137">
        <ele>29.7</ele>
        <time>2023-09-27T14:12:49Z</time>
      </trkpt>
      <trkpt lat="49.90239" lon="2.50139">
        <ele>29.7</ele>
        <time>2023-09-27T14:12:50Z</time>
      </trkpt>
      <trkpt lat="49.9024" lon="2.5014">
        <ele>29.7</ele>
        <time>2023-09-27T14:12:51Z</time>
      </trkpt>
      <trkpt lat="49.9024" lon="2.50141">
        <ele>29.7</ele>
        <time>2023-09-27T14:12:52Z</time>
      </trkpt>
      <trkpt lat="49.90241" lon="2.50143">
        <ele>29.7</ele>
        <time>2023-09-27T14:12:53Z</time>
      </trkpt>
      <trkpt lat="49.90242" lon="2.50144">
        <ele>29.7</ele>
        <time>2023-09-27T14:12:54Z</time>
      </trkpt>
      <trkpt lat="49.90242" lon="2.50146">
        <ele>29.7</ele>
        <time>2023-09-27T14:12:55Z</time>
      </trkpt>
      <trkpt lat="49.90243" lon="2.50148">
        <ele>29.7</ele>
        <time>2023-09-27T14:12:56Z</time>
      </trkpt>
      <trkpt lat="49.90244" lon="2.50149">
        <ele>29.8</ele>
        <time>2023-09-27T14:12:57Z</time>
      </trkpt>
      <trkpt lat="49.90244" lon="2.5015">
        <ele>29.8</ele>
        <time>2023-09-27T14:12:58Z</time>
      </trkpt>
      <trkpt lat="49.90245" lon="2.50153">
        <ele>29.8</ele>
        <time>2023-09-27T14:12:59Z</time>
      </trkpt>
      <trkpt lat="49.90246" lon="2.50154">
        <ele>29.8</ele>
        <time>2023-09-27T14:13:00Z</time>
      </trkpt>
      <trkpt lat="49.90246" lon="2.50155">
        <ele>29.8</ele>
        <time>2023-09-27T14:13:01Z</time>
      </trkpt>
      <trkpt lat="49.90247" lon="2.50157">
        <ele>29.8</ele>
        <time>2023-09-27T14:13:02Z</time>
      </trkpt>
      <trkpt lat="49.90247" lon="2.50159">
        <ele>29.8</ele>
        <time>2023-09-27T14:13:03Z</time>
      </trkpt>
      <trkpt lat="49.90248" lon="2.5016">
        <ele>29.8</ele>
        <time>2023-09-27T14:13:04Z</time>
      </trkpt>
      <trkpt lat="49.90248" lon="2.50161">
        <ele>29.8</ele>
        <time>2023-09-27T14:13:05Z</time>
      </trkpt>
      <trkpt lat="49.90249" lon="2.50162">
        <ele>29.8</ele>
        <time>2023-09-27T14:13:06Z</time>
      </trkpt>
      <trkpt lat="49.90249" lon="2.50163">
        <ele>29.8</ele>
        <time>2023-09-27T14:13:07Z</time>
      </trkpt>
      <trkpt lat="49.90249" lon="2.50165">
        <ele>29.8</ele>
        <time>2023-09-27T14:13:08Z</time>
      </trkpt>
      <trkpt lat="49.90249" lon="2.50166">
        <ele>29.8</ele>
        <time>2023-09-27T14:13:09Z</time>
      </trkpt>
      <trkpt lat="49.9025" lon="2.50167">
        <ele>29.8</ele>
        <time>2023-09-27T14:13:10Z</time>
      </trkpt>
      <trkpt lat="49.9025" lon="2.50168">
        <ele>29.8</ele>
        <time>2023-09-27T14:13:11Z</time>
      </trkpt>
      <trkpt lat="49.9025" lon="2.50169">
        <ele>29.8</ele>
        <time>2023-09-27T14:13:12Z</time>
      </trkpt>
      <trkpt lat="49.90251" lon="2.50171">
        <ele>29.8</ele>
        <time>2023-09-27T14:13:13Z</time>
      </trkpt>
      <trkpt lat="49.90251" lon="2.50172">
        <ele>29.8</ele>
        <time>2023-09-27T14:13:14Z</time>
      </trkpt>
      <trkpt lat="49.90252" lon="2.50173">
        <ele>29.8</ele>
        <time>2023-09-27T14:13:15Z</time>
      </trkpt>
      <trkpt lat="49.90253" lon="2.50175">
        <ele>29.8</ele>
        <time>2023-09-27T14:13:16Z</time>
      </trkpt>
      <trkpt lat="49.90253" lon="2.50176">
        <ele>29.8</ele>
        <time>2023-09-27T14:13:17Z</time>
      </trkpt>
      <trkpt lat="49.90254" lon="2.50177">
        <ele>29.8</ele>
        <time>2023-09-27T14:13:18Z</time>
      </trkpt>
      <trkpt lat="49.90254" lon="2.50179">
        <ele>29.8</ele>
        <time>2023-09-27T14:13:19Z</time>
      </trkpt>
      <trkpt lat="49.90255" lon="2.5018">
        <ele>29.8</ele>
        <time>2023-09-27T14:13:20Z</time>
      </trkpt>
      <trkpt lat="49.90256" lon="2.50181">
        <ele>29.8</ele>
        <time>2023-09-27T14:13:21Z</time>
      </trkpt>
      <trkpt lat="49.90256" lon="2.50182">
        <ele>29.8</ele>
        <time>2023-09-27T14:13:22Z</time>
      </trkpt>
      <trkpt lat="49.90257" lon="2.50183">
        <ele>29.8</ele>
        <time>2023-09-27T14:13:23Z</time>
      </trkpt>
      <trkpt lat="49.90258" lon="2.50185">
        <ele>29.8</ele>
        <time>2023-09-27T14:13:24Z</time>
      </trkpt>
      <trkpt lat="49.90258" lon="2.50186">
        <ele>29.8</ele>
        <time>2023-09-27T14:13:25Z</time>
      </trkpt>
      <trkpt lat="49.90259" lon="2.50187">
        <ele>29.8</ele>
        <time>2023-09-27T14:13:26Z</time>
      </trkpt>
      <trkpt lat="49.90259" lon="2.50189">
        <ele>29.8</ele>
        <time>2023-09-27T14:13:27Z</time>
      </trkpt>
      <trkpt lat="49.9026" lon="2.5019">
        <ele>29.8</ele>
        <time>2023-09-27T14:13:28Z</time>
      </trkpt>
      <trkpt lat="49.9026" lon="2.50191">
        <ele>29.8</ele>
        <time>2023-09-27T14:13:29Z</time>
      </trkpt>
      <trkpt lat="49.9026" lon="2.50192">
        <ele>29.8</ele>
        <time>2023-09-27T14:13:30Z</time>
      </trkpt>
      <trkpt lat="49.90261" lon="2.50194">
        <ele>29.8</ele>
        <time>2023-09-27T14:13:31Z</time>
      </trkpt>
      <trkpt lat="49.90262" lon="2.50195">
        <ele>29.8</ele>
        <time>2023-09-27T14:13:32Z</time>
      </trkpt>
      <trkpt lat="49.90262" lon="2.50196">
        <ele>29.8</ele>
        <time>2023-09-27T14:13:33Z</time>
      </trkpt>
      <trkpt lat="49.90263" lon="2.50198">
        <ele>29.8</ele>
        <time>2023-09-27T14:13:34Z</time>
      </trkpt>
      <trkpt lat="49.90264" lon="2.50199">
        <ele>29.8</ele>
        <time>2023-09-27T14:13:35Z</time>
      </trkpt>
      <trkpt lat="49.90265" lon="2.502">
        <ele>29.8</ele>
        <time>2023-09-27T14:13:36Z</time>
      </trkpt>
      <trkpt lat="49.90265" lon="2.50201">
        <ele>29.8</ele>
        <time>2023-09-27T14:13:37Z</time>
      </trkpt>
      <trkpt lat="49.90266" lon="2.50201">
        <ele>29.8</ele>
        <time>2023-09-27T14:13:38Z</time>
      </trkpt>
      <trkpt lat="49.90267" lon="2.50202">
        <ele>29.8</ele>
        <time>2023-09-27T14:13:39Z</time>
      </trkpt>
      <trkpt lat="49.90267" lon="2.50203">
        <ele>29.8</ele>
        <time>2023-09-27T14:13:40Z</time>
      </trkpt>
      <trkpt lat="49.90268" lon="2.50204">
        <ele>29.8</ele>
        <time>2023-09-27T14:13:41Z</time>
      </trkpt>
      <trkpt lat="49.90268" lon="2.50205">
        <ele>29.8</ele>
        <time>2023-09-27T14:13:42Z</time>
      </trkpt>
      <trkpt lat="49.90269" lon="2.50207">
        <ele>29.8</ele>
        <time>2023-09-27T14:13:43Z</time>
      </trkpt>
      <trkpt lat="49.9027" lon="2.50208">
        <ele>29.8</ele>
        <time>2023-09-27T14:13:44Z</time>
      </trkpt>
      <trkpt lat="49.9027" lon="2.50209">
        <ele>29.8</ele>
        <time>2023-09-27T14:13:45Z</time>
      </trkpt>
      <trkpt lat="49.90271" lon="2.5021">
        <ele>29.8</ele>
        <time>2023-09-27T14:13:46Z</time>
      </trkpt>
      <trkpt lat="49.90272" lon="2.50212">
        <ele>29.8</ele>
        <time>2023-09-27T14:13:47Z</time>
      </trkpt>
      <trkpt lat="49.90272" lon="2.50213">
        <ele>29.8</ele>
        <time>2023-09-27T14:13:48Z</time>
      </trkpt>
      <trkpt lat="49.90273" lon="2.50214">
        <ele>29.8</ele>
        <time>2023-09-27T14:13:49Z</time>
      </trkpt>
      <trkpt lat="49.90273" lon="2.50215">
        <ele>29.8</ele>
        <time>2023-09-27T14:13:50Z</time>
      </trkpt>
      <trkpt lat="49.90274" lon="2.50217">
        <ele>29.8</ele>
        <time>2023-09-27T14:13:51Z</time>
      </trkpt>
      <trkpt lat="49.90274" lon="2.50218">
        <ele>29.8</ele>
        <time>2023-09-27T14:13:52Z</time>
      </trkpt>
      <trkpt lat="49.90275" lon="2.5022">
        <ele>29.8</ele>
        <time>2023-09-27T14:13:53Z</time>
      </trkpt>
      <trkpt lat="49.90275" lon="2.50221">
        <ele>29.8</ele>
        <time>2023-09-27T14:13:54Z</time>
      </trkpt>
      <trkpt lat="49.90276" lon="2.50222">
        <ele>29.8</ele>
        <time>2023-09-27T14:13:55Z</time>
      </trkpt>
      <trkpt lat="49.90276" lon="2.50224">
        <ele>29.8</ele>
        <time>2023-09-27T14:13:56Z</time>
      </trkpt>
      <trkpt lat="49.90276" lon="2.50225">
        <ele>29.8</ele>
        <time>2023-09-27T14:13:57Z</time>
      </trkpt>
      <trkpt lat="49.90277" lon="2.50226">
        <ele>29.8</ele>
        <time>2023-09-27T14:13:58Z</time>
      </trkpt>
      <trkpt lat="49.90277" lon="2.50227">
        <ele>29.8</ele>
        <time>2023-09-27T14:13:59Z</time>
      </trkpt>
      <trkpt lat="49.90277" lon="2.50228">
        <ele>29.8</ele>
        <time>2023-09-27T14:14:00Z</time>
      </trkpt>
      <trkpt lat="49.90277" lon="2.50229">
        <ele>29.8</ele>
        <time>2023-09-27T14:14:01Z</time>
      </trkpt>
      <trkpt lat="49.90276" lon="2.5023">
        <ele>29.8</ele>
        <time>2023-09-27T14:14:02Z</time>
      </trkpt>
      <trkpt lat="49.90276" lon="2.50231">
        <ele>29.8</ele>
        <time>2023-09-27T14:14:03Z</time>
      </trkpt>
      <trkpt lat="49.90276" lon="2.50232">
        <ele>29.8</ele>
        <time>2023-09-27T14:14:04Z</time>
      </trkpt>
      <trkpt lat="49.90275" lon="2.50233">
        <ele>29.8</ele>
        <time>2023-09-27T14:14:05Z</time>
      </trkpt>
      <trkpt lat="49.90275" lon="2.50234">
        <ele>29.8</ele>
        <time>2023-09-27T14:14:06Z</time>
      </trkpt>
      <trkpt lat="49.90274" lon="2.50234">
        <ele>29.8</ele>
        <time>2023-09-27T14:14:07Z</time>
      </trkpt>
      <trkpt lat="49.90274" lon="2.50234">
        <ele>29.8</ele>
        <time>2023-09-27T14:14:08Z</time>
      </trkpt>
      <trkpt lat="49.90274" lon="2.50234">
        <ele>29.8</ele>
        <time>2023-09-27T14:14:09Z</time>
      </trkpt>
      <trkpt lat="49.90274" lon="2.50234">
        <ele>29.7</ele>
        <time>2023-09-27T14:14:10Z</time>
      </trkpt>
      <trkpt lat="49.90274" lon="2.50234">
        <ele>29.7</ele>
        <time>2023-09-27T14:14:11Z</time>
      </trkpt>
      <trkpt lat="49.90274" lon="2.50234">
        <ele>29.7</ele>
        <time>2023-09-27T14:14:12Z</time>
      </trkpt>
      <trkpt lat="49.90274" lon="2.50234">
        <ele>29.7</ele>
        <time>2023-09-27T14:14:13Z</time>
      </trkpt>
      <trkpt lat="49.90274" lon="2.50234">
        <ele>29.7</ele>
        <time>2023-09-27T14:14:14Z</time>
      </trkpt>
      <trkpt lat="49.90274" lon="2.50234">
        <ele>29.7</ele>
        <time>2023-09-27T14:14:15Z</time>
      </trkpt>
      <trkpt lat="49.90274" lon="2.50234">
        <ele>29.7</ele>
        <time>2023-09-27T14:14:16Z</time>
      </trkpt>
      <trkpt lat="49.90274" lon="2.50233">
        <ele>29.7</ele>
        <time>2023-09-27T14:14:17Z</time>
      </trkpt>
      <trkpt lat="49.90274" lon="2.50233">
        <ele>29.7</ele>
        <time>2023-09-27T14:14:18Z</time>
      </trkpt>
      <trkpt lat="49.90274" lon="2.50233">
        <ele>29.7</ele>
        <time>2023-09-27T14:14:19Z</time>
      </trkpt>
      <trkpt lat="49.90274" lon="2.50233">
        <ele>29.7</ele>
        <time>2023-09-27T14:14:20Z</time>
      </trkpt>
      <trkpt lat="49.90274" lon="2.50233">
        <ele>29.7</ele>
        <time>2023-09-27T14:14:21Z</time>
      </trkpt>
      <trkpt lat="49.90274" lon="2.50233">
        <ele>29.7</ele>
        <time>2023-09-27T14:14:22Z</time>
      </trkpt>
      <trkpt lat="49.90274" lon="2.50233">
        <ele>29.7</ele>
        <time>2023-09-27T14:14:23Z</time>
      </trkpt>
      <trkpt lat="49.90274" lon="2.50233">
        <ele>29.7</ele>
        <time>2023-09-27T14:14:24Z</time>
      </trkpt>
      <trkpt lat="49.90274" lon="2.50233">
        <ele>29.7</ele>
        <time>2023-09-27T14:14:25Z</time>
      </trkpt>
      <trkpt lat="49.90274" lon="2.50233">
        <ele>29.7</ele>
        <time>2023-09-27T14:14:26Z</time>
      </trkpt>
      <trkpt lat="49.90274" lon="2.50233">
        <ele>29.7</ele>
        <time>2023-09-27T14:14:27Z</time>
      </trkpt>
      <trkpt lat="49.90274" lon="2.50233">
        <ele>29.7</ele>
        <time>2023-09-27T14:14:28Z</time>
      </trkpt>
      <trkpt lat="49.90274" lon="2.50233">
        <ele>29.7</ele>
        <time>2023-09-27T14:14:29Z</time>
      </trkpt>
      <trkpt lat="49.90274" lon="2.50233">
        <ele>29.7</ele>
        <time>2023-09-27T14:14:30Z</time>
      </trkpt>
      <trkpt lat="49.90274" lon="2.50233">
        <ele>29.7</ele>
        <time>2023-09-27T14:14:31Z</time>
      </trkpt>
      <trkpt lat="49.90274" lon="2.50233">
        <ele>29.7</ele>
        <time>2023-09-27T14:14:32Z</time>
      </trkpt>
      <trkpt lat="49.90274" lon="2.50233">
        <ele>29.7</ele>
        <time>2023-09-27T14:14:33Z</time>
      </trkpt>
      <trkpt lat="49.90274" lon="2.50233">
        <ele>29.7</ele>
        <time>2023-09-27T14:14:34Z</time>
      </trkpt>
      <trkpt lat="49.90274" lon="2.50232">
        <ele>29.7</ele>
        <time>2023-09-27T14:14:35Z</time>
      </trkpt>
      <trkpt lat="49.90274" lon="2.50232">
        <ele>29.7</ele>
        <time>2023-09-27T14:14:36Z</time>
      </trkpt>
      <trkpt lat="49.90274" lon="2.50232">
        <ele>29.7</ele>
        <time>2023-09-27T14:14:37Z</time>
      </trkpt>
      <trkpt lat="49.90274" lon="2.50232">
        <ele>29.7</ele>
        <time>2023-09-27T14:14:38Z</time>
      </trkpt>
      <trkpt lat="49.90274" lon="2.50232">
        <ele>29.7</ele>
        <time>2023-09-27T14:14:39Z</time>
      </trkpt>
      <trkpt lat="49.90274" lon="2.50232">
        <ele>29.7</ele>
        <time>2023-09-27T14:14:40Z</time>
      </trkpt>
      <trkpt lat="49.90274" lon="2.50232">
        <ele>29.7</ele>
        <time>2023-09-27T14:14:41Z</time>
      </trkpt>
      <trkpt lat="49.90274" lon="2.50232">
        <ele>29.7</ele>
        <time>2023-09-27T14:14:42Z</time>
      </trkpt>
      <trkpt lat="49.90274" lon="2.50232">
        <ele>29.7</ele>
        <time>2023-09-27T14:14:43Z</time>
      </trkpt>
      <trkpt lat="49.90274" lon="2.50232">
        <ele>29.7</ele>
        <time>2023-09-27T14:14:44Z</time>
      </trkpt>
      <trkpt lat="49.90274" lon="2.50232">
        <ele>29.7</ele>
        <time>2023-09-27T14:14:45Z</time>
      </trkpt>
      <trkpt lat="49.90274" lon="2.50232">
        <ele>29.7</ele>
        <time>2023-09-27T14:14:46Z</time>
      </trkpt>
      <trkpt lat="49.90274" lon="2.50232">
        <ele>29.7</ele>
        <time>2023-09-27T14:14:47Z</time>
      </trkpt>
      <trkpt lat="49.90274" lon="2.50232">
        <ele>29.7</ele>
        <time>2023-09-27T14:14:48Z</time>
      </trkpt>
      <trkpt lat="49.90274" lon="2.50232">
        <ele>29.7</ele>
        <time>2023-09-27T14:14:49Z</time>
      </trkpt>
      <trkpt lat="49.90274" lon="2.50232">
        <ele>29.7</ele>
        <time>2023-09-27T14:14:50Z</time>
      </trkpt>
      <trkpt lat="49.90274" lon="2.50232">
        <ele>29.7</ele>
        <time>2023-09-27T14:14:51Z</time>
      </trkpt>
      <trkpt lat="49.90274" lon="2.50232">
        <ele>29.7</ele>
        <time>2023-09-27T14:14:52Z</time>
      </trkpt>
      <trkpt lat="49.90274" lon="2.50232">
        <ele>29.7</ele>
        <time>2023-09-27T14:14:53Z</time>
      </trkpt>
      <trkpt lat="49.90274" lon="2.50231">
        <ele>29.7</ele>
        <time>2023-09-27T14:14:54Z</time>
      </trkpt>
      <trkpt lat="49.90274" lon="2.50231">
        <ele>29.7</ele>
        <time>2023-09-27T14:14:55Z</time>
      </trkpt>
      <trkpt lat="49.90274" lon="2.50231">
        <ele>29.7</ele>
        <time>2023-09-27T14:14:56Z</time>
      </trkpt>
      <trkpt lat="49.90274" lon="2.50231">
        <ele>29.7</ele>
        <time>2023-09-27T14:14:57Z</time>
      </trkpt>
      <trkpt lat="49.90274" lon="2.50231">
        <ele>29.7</ele>
        <time>2023-09-27T14:14:58Z</time>
      </trkpt>
      <trkpt lat="49.90274" lon="2.50231">
        <ele>29.7</ele>
        <time>2023-09-27T14:14:59Z</time>
      </trkpt>
      <trkpt lat="49.90274" lon="2.50231">
        <ele>29.7</ele>
        <time>2023-09-27T14:15:00Z</time>
      </trkpt>
      <trkpt lat="49.90274" lon="2.50231">
        <ele>29.7</ele>
        <time>2023-09-27T14:15:01Z</time>
      </trkpt>
      <trkpt lat="49.90274" lon="2.50231">
        <ele>29.7</ele>
        <time>2023-09-27T14:15:02Z</time>
      </trkpt>
      <trkpt lat="49.90274" lon="2.50231">
        <ele>29.7</ele>
        <time>2023-09-27T14:15:03Z</time>
      </trkpt>
      <trkpt lat="49.90274" lon="2.50231">
        <ele>29.7</ele>
        <time>2023-09-27T14:15:04Z</time>
      </trkpt>
      <trkpt lat="49.90274" lon="2.50231">
        <ele>29.7</ele>
        <time>2023-09-27T14:15:05Z</time>
      </trkpt>
      <trkpt lat="49.90274" lon="2.50231">
        <ele>29.7</ele>
        <time>2023-09-27T14:15:06Z</time>
      </trkpt>
      <trkpt lat="49.90274" lon="2.50231">
        <ele>29.7</ele>
        <time>2023-09-27T14:15:07Z</time>
      </trkpt>
      <trkpt lat="49.90274" lon="2.50231">
        <ele>29.7</ele>
        <time>2023-09-27T14:15:08Z</time>
      </trkpt>
      <trkpt lat="49.90273" lon="2.50231">
        <ele>29.7</ele>
        <time>2023-09-27T14:15:09Z</time>
      </trkpt>
      <trkpt lat="49.90273" lon="2.50231">
        <ele>29.7</ele>
        <time>2023-09-27T14:15:10Z</time>
      </trkpt>
      <trkpt lat="49.90273" lon="2.50231">
        <ele>29.7</ele>
        <time>2023-09-27T14:15:11Z</time>
      </trkpt>
      <trkpt lat="49.90273" lon="2.5023">
        <ele>29.7</ele>
        <time>2023-09-27T14:15:12Z</time>
      </trkpt>
      <trkpt lat="49.90273" lon="2.5023">
        <ele>29.7</ele>
        <time>2023-09-27T14:15:13Z</time>
      </trkpt>
      <trkpt lat="49.90273" lon="2.5023">
        <ele>29.7</ele>
        <time>2023-09-27T14:15:14Z</time>
      </trkpt>
      <trkpt lat="49.90273" lon="2.5023">
        <ele>29.7</ele>
        <time>2023-09-27T14:15:15Z</time>
      </trkpt>
      <trkpt lat="49.90273" lon="2.5023">
        <ele>29.7</ele>
        <time>2023-09-27T14:15:16Z</time>
      </trkpt>
      <trkpt lat="49.90273" lon="2.5023">
        <ele>29.7</ele>
        <time>2023-09-27T14:15:17Z</time>
      </trkpt>
      <trkpt lat="49.90273" lon="2.5023">
        <ele>29.7</ele>
        <time>2023-09-27T14:15:18Z</time>
      </trkpt>
      <trkpt lat="49.90273" lon="2.5023">
        <ele>29.7</ele>
        <time>2023-09-27T14:15:19Z</time>
      </trkpt>
      <trkpt lat="49.90273" lon="2.5023">
        <ele>29.7</ele>
        <time>2023-09-27T14:15:20Z</time>
      </trkpt>
      <trkpt lat="49.90273" lon="2.5023">
        <ele>29.7</ele>
        <time>2023-09-27T14:15:21Z</time>
      </trkpt>
      <trkpt lat="49.90273" lon="2.5023">
        <ele>29.7</ele>
        <time>2023-09-27T14:15:22Z</time>
      </trkpt>
      <trkpt lat="49.90273" lon="2.5023">
        <ele>29.7</ele>
        <time>2023-09-27T14:15:23Z</time>
      </trkpt>
      <trkpt lat="49.90273" lon="2.5023">
        <ele>29.7</ele>
        <time>2023-09-27T14:15:24Z</time>
      </trkpt>
      <trkpt lat="49.90273" lon="2.5023">
        <ele>29.7</ele>
        <time>2023-09-27T14:15:25Z</time>
      </trkpt>
      <trkpt lat="49.90273" lon="2.5023">
        <ele>29.7</ele>
        <time>2023-09-27T14:15:26Z</time>
      </trkpt>
      <trkpt lat="49.90273" lon="2.5023">
        <ele>29.7</ele>
        <time>2023-09-27T14:15:27Z</time>
      </trkpt>
      <trkpt lat="49.90273" lon="2.5023">
        <ele>29.7</ele>
        <time>2023-09-27T14:15:28Z</time>
      </trkpt>
      <trkpt lat="49.90273" lon="2.5023">
        <ele>29.7</ele>
        <time>2023-09-27T14:15:29Z</time>
      </trkpt>
      <trkpt lat="49.90273" lon="2.50229">
        <ele>29.7</ele>
        <time>2023-09-27T14:15:30Z</time>
      </trkpt>
      <trkpt lat="49.90273" lon="2.50229">
        <ele>29.7</ele>
        <time>2023-09-27T14:15:31Z</time>
      </trkpt>
      <trkpt lat="49.90273" lon="2.50229">
        <ele>29.7</ele>
        <time>2023-09-27T14:15:32Z</time>
      </trkpt>
      <trkpt lat="49.90273" lon="2.50229">
        <ele>29.7</ele>
        <time>2023-09-27T14:15:33Z</time>
      </trkpt>
      <trkpt lat="49.90273" lon="2.50229">
        <ele>29.7</ele>
        <time>2023-09-27T14:15:34Z</time>
      </trkpt>
      <trkpt lat="49.90273" lon="2.50229">
        <ele>29.7</ele>
        <time>2023-09-27T14:15:35Z</time>
      </trkpt>
      <trkpt lat="49.90273" lon="2.50229">
        <ele>29.7</ele>
        <time>2023-09-27T14:15:36Z</time>
      </trkpt>
      <trkpt lat="49.90273" lon="2.50229">
        <ele>29.7</ele>
        <time>2023-09-27T14:15:37Z</time>
      </trkpt>
      <trkpt lat="49.90273" lon="2.50229">
        <ele>29.7</ele>
        <time>2023-09-27T14:15:38Z</time>
      </trkpt>
      <trkpt lat="49.90273" lon="2.50229">
        <ele>29.7</ele>
        <time>2023-09-27T14:15:39Z</time>
      </trkpt>
      <trkpt lat="49.90273" lon="2.50229">
        <ele>29.7</ele>
        <time>2023-09-27T14:15:40Z</time>
      </trkpt>
      <trkpt lat="49.90273" lon="2.50229">
        <ele>29.7</ele>
        <time>2023-09-27T14:15:41Z</time>
      </trkpt>
      <trkpt lat="49.90273" lon="2.50229">
        <ele>29.7</ele>
        <time>2023-09-27T14:15:42Z</time>
      </trkpt>
      <trkpt lat="49.90273" lon="2.50229">
        <ele>29.7</ele>
        <time>2023-09-27T14:15:43Z</time>
      </trkpt>
      <trkpt lat="49.90273" lon="2.50229">
        <ele>29.7</ele>
        <time>2023-09-27T14:15:44Z</time>
      </trkpt>
      <trkpt lat="49.90273" lon="2.50229">
        <ele>29.7</ele>
        <time>2023-09-27T14:15:45Z</time>
      </trkpt>
      <trkpt lat="49.90273" lon="2.50229">
        <ele>29.7</ele>
        <time>2023-09-27T14:15:46Z</time>
      </trkpt>
      <trkpt lat="49.90273" lon="2.50229">
        <ele>29.7</ele>
        <time>2023-09-27T14:15:47Z</time>
      </trkpt>
      <trkpt lat="49.90273" lon="2.50228">
        <ele>29.7</ele>
        <time>2023-09-27T14:15:48Z</time>
      </trkpt>
      <trkpt lat="49.90273" lon="2.50228">
        <ele>29.7</ele>
        <time>2023-09-27T14:15:49Z</time>
      </trkpt>
      <trkpt lat="49.90273" lon="2.50228">
        <ele>29.7</ele>
        <time>2023-09-27T14:15:50Z</time>
      </trkpt>
      <trkpt lat="49.90273" lon="2.50228">
        <ele>29.7</ele>
        <time>2023-09-27T14:15:51Z</time>
      </trkpt>
      <trkpt lat="49.90273" lon="2.50228">
        <ele>29.7</ele>
        <time>2023-09-27T14:15:52Z</time>
      </trkpt>
      <trkpt lat="49.90273" lon="2.50228">
        <ele>29.7</ele>
        <time>2023-09-27T14:15:53Z</time>
      </trkpt>
      <trkpt lat="49.90273" lon="2.50228">
        <ele>29.7</ele>
        <time>2023-09-27T14:15:54Z</time>
      </trkpt>
      <trkpt lat="49.90273" lon="2.50228">
        <ele>29.7</ele>
        <time>2023-09-27T14:15:55Z</time>
      </trkpt>
      <trkpt lat="49.90273" lon="2.50228">
        <ele>29.7</ele>
        <time>2023-09-27T14:15:56Z</time>
      </trkpt>
      <trkpt lat="49.90273" lon="2.50228">
        <ele>29.7</ele>
        <time>2023-09-27T14:15:57Z</time>
      </trkpt>
      <trkpt lat="49.90273" lon="2.50228">
        <ele>29.7</ele>
        <time>2023-09-27T14:15:58Z</time>
      </trkpt>
      <trkpt lat="49.90273" lon="2.50228">
        <ele>29.7</ele>
        <time>2023-09-27T14:15:59Z</time>
      </trkpt>
      <trkpt lat="49.90273" lon="2.50228">
        <ele>29.7</ele>
        <time>2023-09-27T14:16:00Z</time>
      </trkpt>
      <trkpt lat="49.90273" lon="2.50228">
        <ele>29.7</ele>
        <time>2023-09-27T14:16:01Z</time>
      </trkpt>
      <trkpt lat="49.90273" lon="2.50228">
        <ele>29.7</ele>
        <time>2023-09-27T14:16:02Z</time>
      </trkpt>
      <trkpt lat="49.90273" lon="2.50228">
        <ele>29.7</ele>
        <time>2023-09-27T14:16:03Z</time>
      </trkpt>
      <trkpt lat="49.90273" lon="2.50228">
        <ele>29.7</ele>
        <time>2023-09-27T14:16:04Z</time>
      </trkpt>
      <trkpt lat="49.90273" lon="2.50228">
        <ele>29.7</ele>
        <time>2023-09-27T14:16:05Z</time>
      </trkpt>
      <trkpt lat="49.90273" lon="2.50227">
        <ele>29.7</ele>
        <time>2023-09-27T14:16:06Z</time>
      </trkpt>
      <trkpt lat="49.90273" lon="2.50227">
        <ele>29.7</ele>
        <time>2023-09-27T14:16:07Z</time>
      </trkpt>
      <trkpt lat="49.90273" lon="2.50227">
        <ele>29.7</ele>
        <time>2023-09-27T14:16:08Z</time>
      </trkpt>
      <trkpt lat="49.90273" lon="2.50227">
        <ele>29.7</ele>
        <time>2023-09-27T14:16:09Z</time>
      </trkpt>
      <trkpt lat="49.90273" lon="2.50227">
        <ele>29.7</ele>
        <time>2023-09-27T14:16:10Z</time>
      </trkpt>
      <trkpt lat="49.90273" lon="2.50227">
        <ele>29.7</ele>
        <time>2023-09-27T14:16:11Z</time>
      </trkpt>
      <trkpt lat="49.90273" lon="2.50227">
        <ele>29.7</ele>
        <time>2023-09-27T14:16:12Z</time>
      </trkpt>
      <trkpt lat="49.90273" lon="2.50227">
        <ele>29.7</ele>
        <time>2023-09-27T14:16:13Z</time>
      </trkpt>
      <trkpt lat="49.90273" lon="2.50227">
        <ele>29.7</ele>
        <time>2023-09-27T14:16:14Z</time>
      </trkpt>
      <trkpt lat="49.90273" lon="2.50227">
        <ele>29.7</ele>
        <time>2023-09-27T14:16:15Z</time>
      </trkpt>
      <trkpt lat="49.90273" lon="2.50227">
        <ele>29.7</ele>
        <time>2023-09-27T14:16:16Z</time>
      </trkpt>
      <trkpt lat="49.90273" lon="2.50227">
        <ele>29.7</ele>
        <time>2023-09-27T14:16:17Z</time>
      </trkpt>
      <trkpt lat="49.90273" lon="2.50227">
        <ele>29.7</ele>
        <time>2023-09-27T14:16:18Z</time>
      </trkpt>
      <trkpt lat="49.90273" lon="2.50227">
        <ele>29.7</ele>
        <time>2023-09-27T14:16:19Z</time>
      </trkpt>
      <trkpt lat="49.90273" lon="2.50227">
        <ele>29.7</ele>
        <time>2023-09-27T14:16:20Z</time>
      </trkpt>
      <trkpt lat="49.90273" lon="2.50224">
        <ele>29.6</ele>
        <time>2023-09-27T14:16:21Z</time>
      </trkpt>
      <trkpt lat="49.90273" lon="2.50224">
        <ele>29.6</ele>
        <time>2023-09-27T14:16:22Z</time>
      </trkpt>
      <trkpt lat="49.90274" lon="2.50224">
        <ele>29.6</ele>
        <time>2023-09-27T14:16:23Z</time>
      </trkpt>
      <trkpt lat="49.90274" lon="2.50224">
        <ele>29.6</ele>
        <time>2023-09-27T14:16:24Z</time>
      </trkpt>
      <trkpt lat="49.90274" lon="2.50224">
        <ele>29.6</ele>
        <time>2023-09-27T14:16:25Z</time>
      </trkpt>
      <trkpt lat="49.90274" lon="2.50224">
        <ele>29.6</ele>
        <time>2023-09-27T14:16:26Z</time>
      </trkpt>
      <trkpt lat="49.90274" lon="2.50224">
        <ele>29.6</ele>
        <time>2023-09-27T14:16:27Z</time>
      </trkpt>
      <trkpt lat="49.90274" lon="2.50224">
        <ele>29.6</ele>
        <time>2023-09-27T14:16:28Z</time>
      </trkpt>
      <trkpt lat="49.90274" lon="2.50224">
        <ele>29.6</ele>
        <time>2023-09-27T14:16:29Z</time>
      </trkpt>
      <trkpt lat="49.90274" lon="2.50224">
        <ele>29.6</ele>
        <time>2023-09-27T14:16:30Z</time>
      </trkpt>
      <trkpt lat="49.90274" lon="2.50224">
        <ele>29.6</ele>
        <time>2023-09-27T14:16:31Z</time>
      </trkpt>
      <trkpt lat="49.90274" lon="2.50224">
        <ele>29.6</ele>
        <time>2023-09-27T14:16:32Z</time>
      </trkpt>
      <trkpt lat="49.90274" lon="2.50224">
        <ele>29.6</ele>
        <time>2023-09-27T14:16:33Z</time>
      </trkpt>
      <trkpt lat="49.90274" lon="2.50224">
        <ele>29.6</ele>
        <time>2023-09-27T14:16:34Z</time>
      </trkpt>
      <trkpt lat="49.90274" lon="2.50224">
        <ele>29.6</ele>
        <time>2023-09-27T14:16:35Z</time>
      </trkpt>
      <trkpt lat="49.90274" lon="2.50224">
        <ele>29.6</ele>
        <time>2023-09-27T14:16:36Z</time>
      </trkpt>
      <trkpt lat="49.90274" lon="2.50224">
        <ele>29.6</ele>
        <time>2023-09-27T14:16:37Z</time>
      </trkpt>
      <trkpt lat="49.90274" lon="2.50224">
        <ele>29.6</ele>
        <time>2023-09-27T14:16:38Z</time>
      </trkpt>
      <trkpt lat="49.90274" lon="2.50224">
        <ele>29.6</ele>
        <time>2023-09-27T14:16:39Z</time>
      </trkpt>
      <trkpt lat="49.90274" lon="2.50224">
        <ele>29.6</ele>
        <time>2023-09-27T14:16:40Z</time>
      </trkpt>
      <trkpt lat="49.90274" lon="2.50224">
        <ele>29.6</ele>
        <time>2023-09-27T14:16:41Z</time>
      </trkpt>
      <trkpt lat="49.90274" lon="2.50224">
        <ele>29.6</ele>
        <time>2023-09-27T14:16:42Z</time>
      </trkpt>
      <trkpt lat="49.90274" lon="2.50224">
        <ele>29.6</ele>
        <time>2023-09-27T14:16:43Z</time>
      </trkpt>
      <trkpt lat="49.90274" lon="2.50224">
        <ele>29.6</ele>
        <time>2023-09-27T14:16:44Z</time>
      </trkpt>
      <trkpt lat="49.90274" lon="2.50224">
        <ele>29.6</ele>
        <time>2023-09-27T14:16:45Z</time>
      </trkpt>
      <trkpt lat="49.90274" lon="2.50224">
        <ele>29.6</ele>
        <time>2023-09-27T14:16:46Z</time>
      </trkpt>
      <trkpt lat="49.90274" lon="2.50224">
        <ele>29.6</ele>
        <time>2023-09-27T14:16:47Z</time>
      </trkpt>
      <trkpt lat="49.90274" lon="2.50224">
        <ele>29.6</ele>
        <time>2023-09-27T14:16:48Z</time>
      </trkpt>
      <trkpt lat="49.90274" lon="2.50223">
        <ele>29.6</ele>
        <time>2023-09-27T14:16:49Z</time>
      </trkpt>
      <trkpt lat="49.90274" lon="2.50223">
        <ele>29.6</ele>
        <time>2023-09-27T14:16:50Z</time>
      </trkpt>
      <trkpt lat="49.90274" lon="2.50224">
        <ele>29.6</ele>
        <time>2023-09-27T14:16:51Z</time>
      </trkpt>
      <trkpt lat="49.90274" lon="2.50224">
        <ele>29.6</ele>
        <time>2023-09-27T14:16:52Z</time>
      </trkpt>
      <trkpt lat="49.90274" lon="2.50224">
        <ele>29.6</ele>
        <time>2023-09-27T14:16:53Z</time>
      </trkpt>
      <trkpt lat="49.90274" lon="2.50224">
        <ele>29.6</ele>
        <time>2023-09-27T14:16:54Z</time>
      </trkpt>
      <trkpt lat="49.90274" lon="2.50224">
        <ele>29.6</ele>
        <time>2023-09-27T14:16:55Z</time>
      </trkpt>
      <trkpt lat="49.90274" lon="2.50224">
        <ele>29.6</ele>
        <time>2023-09-27T14:16:56Z</time>
      </trkpt>
      <trkpt lat="49.90274" lon="2.50224">
        <ele>29.6</ele>
        <time>2023-09-27T14:16:57Z</time>
      </trkpt>
      <trkpt lat="49.90274" lon="2.50224">
        <ele>29.6</ele>
        <time>2023-09-27T14:16:58Z</time>
      </trkpt>
      <trkpt lat="49.90274" lon="2.50224">
        <ele>29.6</ele>
        <time>2023-09-27T14:16:59Z</time>
      </trkpt>
      <trkpt lat="49.90274" lon="2.50224">
        <ele>29.6</ele>
        <time>2023-09-27T14:17:00Z</time>
      </trkpt>
      <trkpt lat="49.90273" lon="2.50223">
        <ele>29.6</ele>
        <time>2023-09-27T14:17:01Z</time>
      </trkpt>
      <trkpt lat="49.90273" lon="2.50224">
        <ele>29.6</ele>
        <time>2023-09-27T14:17:02Z</time>
      </trkpt>
      <trkpt lat="49.90273" lon="2.50224">
        <ele>29.6</ele>
        <time>2023-09-27T14:17:03Z</time>
      </trkpt>
      <trkpt lat="49.90273" lon="2.50224">
        <ele>29.6</ele>
        <time>2023-09-27T14:17:04Z</time>
      </trkpt>
      <trkpt lat="49.90272" lon="2.50224">
        <ele>29.6</ele>
        <time>2023-09-27T14:17:05Z</time>
      </trkpt>
      <trkpt lat="49.90272" lon="2.50225">
        <ele>29.6</ele>
        <time>2023-09-27T14:17:06Z</time>
      </trkpt>
      <trkpt lat="49.90271" lon="2.50225">
        <ele>29.6</ele>
        <time>2023-09-27T14:17:07Z</time>
      </trkpt>
      <trkpt lat="49.90271" lon="2.50226">
        <ele>29.6</ele>
        <time>2023-09-27T14:17:08Z</time>
      </trkpt>
      <trkpt lat="49.90269" lon="2.50227">
        <ele>29.6</ele>
        <time>2023-09-27T14:17:09Z</time>
      </trkpt>
      <trkpt lat="49.90268" lon="2.50228">
        <ele>29.6</ele>
        <time>2023-09-27T14:17:10Z</time>
      </trkpt>
      <trkpt lat="49.90267" lon="2.50228">
        <ele>29.6</ele>
        <time>2023-09-27T14:17:11Z</time>
      </trkpt>
      <trkpt lat="49.90266" lon="2.50229">
        <ele>29.6</ele>
        <time>2023-09-27T14:17:12Z</time>
      </trkpt>
      <trkpt lat="49.90265" lon="2.5023">
        <ele>29.6</ele>
        <time>2023-09-27T14:17:13Z</time>
      </trkpt>
      <trkpt lat="49.90264" lon="2.50231">
        <ele>29.6</ele>
        <time>2023-09-27T14:17:14Z</time>
      </trkpt>
      <trkpt lat="49.90263" lon="2.50231">
        <ele>29.6</ele>
        <time>2023-09-27T14:17:15Z</time>
      </trkpt>
      <trkpt lat="49.90262" lon="2.50231">
        <ele>29.6</ele>
        <time>2023-09-27T14:17:16Z</time>
      </trkpt>
      <trkpt lat="49.90261" lon="2.50232">
        <ele>29.6</ele>
        <time>2023-09-27T14:17:17Z</time>
      </trkpt>
      <trkpt lat="49.9026" lon="2.50233">
        <ele>29.6</ele>
        <time>2023-09-27T14:17:18Z</time>
      </trkpt>
      <trkpt lat="49.9026" lon="2.50233">
        <ele>29.6</ele>
        <time>2023-09-27T14:17:19Z</time>
      </trkpt>
      <trkpt lat="49.90259" lon="2.50234">
        <ele>29.6</ele>
        <time>2023-09-27T14:17:20Z</time>
      </trkpt>
      <trkpt lat="49.90258" lon="2.50235">
        <ele>29.6</ele>
        <time>2023-09-27T14:17:21Z</time>
      </trkpt>
      <trkpt lat="49.90257" lon="2.50235">
        <ele>29.6</ele>
        <time>2023-09-27T14:17:22Z</time>
      </trkpt>
      <trkpt lat="49.90256" lon="2.50235">
        <ele>29.6</ele>
        <time>2023-09-27T14:17:23Z</time>
      </trkpt>
      <trkpt lat="49.90255" lon="2.50236">
        <ele>29.6</ele>
        <time>2023-09-27T14:17:24Z</time>
      </trkpt>
      <trkpt lat="49.90254" lon="2.50236">
        <ele>29.6</ele>
        <time>2023-09-27T14:17:25Z</time>
      </trkpt>
      <trkpt lat="49.90253" lon="2.50237">
        <ele>29.6</ele>
        <time>2023-09-27T14:17:26Z</time>
      </trkpt>
      <trkpt lat="49.90252" lon="2.50237">
        <ele>29.6</ele>
        <time>2023-09-27T14:17:27Z</time>
      </trkpt>
      <trkpt lat="49.90251" lon="2.50238">
        <ele>29.6</ele>
        <time>2023-09-27T14:17:28Z</time>
      </trkpt>
      <trkpt lat="49.9025" lon="2.50238">
        <ele>29.7</ele>
        <time>2023-09-27T14:17:29Z</time>
      </trkpt>
      <trkpt lat="49.90249" lon="2.50239">
        <ele>29.7</ele>
        <time>2023-09-27T14:17:30Z</time>
      </trkpt>
      <trkpt lat="49.90247" lon="2.5024">
        <ele>29.7</ele>
        <time>2023-09-27T14:17:31Z</time>
      </trkpt>
      <trkpt lat="49.90246" lon="2.50241">
        <ele>29.7</ele>
        <time>2023-09-27T14:17:32Z</time>
      </trkpt>
      <trkpt lat="49.90245" lon="2.50242">
        <ele>29.7</ele>
        <time>2023-09-27T14:17:33Z</time>
      </trkpt>
      <trkpt lat="49.90244" lon="2.50243">
        <ele>29.8</ele>
        <time>2023-09-27T14:17:34Z</time>
      </trkpt>
      <trkpt lat="49.90243" lon="2.50243">
        <ele>29.8</ele>
        <time>2023-09-27T14:17:35Z</time>
      </trkpt>
      <trkpt lat="49.90242" lon="2.50244">
        <ele>29.8</ele>
        <time>2023-09-27T14:17:36Z</time>
      </trkpt>
      <trkpt lat="49.90241" lon="2.50244">
        <ele>29.8</ele>
        <time>2023-09-27T14:17:37Z</time>
      </trkpt>
      <trkpt lat="49.9024" lon="2.50245">
        <ele>29.8</ele>
        <time>2023-09-27T14:17:38Z</time>
      </trkpt>
      <trkpt lat="49.90239" lon="2.50245">
        <ele>29.9</ele>
        <time>2023-09-27T14:17:39Z</time>
      </trkpt>
      <trkpt lat="49.90238" lon="2.50246">
        <ele>29.9</ele>
        <time>2023-09-27T14:17:40Z</time>
      </trkpt>
      <trkpt lat="49.90237" lon="2.50247">
        <ele>29.9</ele>
        <time>2023-09-27T14:17:41Z</time>
      </trkpt>
      <trkpt lat="49.90237" lon="2.50248">
        <ele>29.9</ele>
        <time>2023-09-27T14:17:42Z</time>
      </trkpt>
      <trkpt lat="49.90236" lon="2.50249">
        <ele>29.9</ele>
        <time>2023-09-27T14:17:43Z</time>
      </trkpt>
      <trkpt lat="49.90235" lon="2.5025">
        <ele>30</ele>
        <time>2023-09-27T14:17:44Z</time>
      </trkpt>
      <trkpt lat="49.90234" lon="2.5025">
        <ele>30</ele>
        <time>2023-09-27T14:17:45Z</time>
      </trkpt>
      <trkpt lat="49.90233" lon="2.50251">
        <ele>30</ele>
        <time>2023-09-27T14:17:46Z</time>
      </trkpt>
      <trkpt lat="49.90232" lon="2.50251">
        <ele>30</ele>
        <time>2023-09-27T14:17:47Z</time>
      </trkpt>
      <trkpt lat="49.90231" lon="2.50252">
        <ele>30.1</ele>
        <time>2023-09-27T14:17:48Z</time>
      </trkpt>
      <trkpt lat="49.9023" lon="2.50252">
        <ele>30.1</ele>
        <time>2023-09-27T14:17:49Z</time>
      </trkpt>
      <trkpt lat="49.90229" lon="2.50252">
        <ele>30.1</ele>
        <time>2023-09-27T14:17:50Z</time>
      </trkpt>
      <trkpt lat="49.90228" lon="2.50253">
        <ele>30.1</ele>
        <time>2023-09-27T14:17:51Z</time>
      </trkpt>
      <trkpt lat="49.90227" lon="2.50253">
        <ele>30.1</ele>
        <time>2023-09-27T14:17:52Z</time>
      </trkpt>
      <trkpt lat="49.90226" lon="2.50254">
        <ele>30.2</ele>
        <time>2023-09-27T14:17:53Z</time>
      </trkpt>
      <trkpt lat="49.90225" lon="2.50255">
        <ele>30.2</ele>
        <time>2023-09-27T14:17:54Z</time>
      </trkpt>
      <trkpt lat="49.90224" lon="2.50255">
        <ele>30.2</ele>
        <time>2023-09-27T14:17:55Z</time>
      </trkpt>
      <trkpt lat="49.90223" lon="2.50256">
        <ele>30.3</ele>
        <time>2023-09-27T14:17:56Z</time>
      </trkpt>
      <trkpt lat="49.90222" lon="2.50257">
        <ele>30.3</ele>
        <time>2023-09-27T14:17:57Z</time>
      </trkpt>
      <trkpt lat="49.90221" lon="2.50257">
        <ele>30.3</ele>
        <time>2023-09-27T14:17:58Z</time>
      </trkpt>
      <trkpt lat="49.9022" lon="2.50258">
        <ele>30.3</ele>
        <time>2023-09-27T14:17:59Z</time>
      </trkpt>
      <trkpt lat="49.90219" lon="2.50258">
        <ele>30.4</ele>
        <time>2023-09-27T14:18:00Z</time>
      </trkpt>
      <trkpt lat="49.90218" lon="2.50259">
        <ele>30.4</ele>
        <time>2023-09-27T14:18:01Z</time>
      </trkpt>
      <trkpt lat="49.90217" lon="2.50259">
        <ele>30.4</ele>
        <time>2023-09-27T14:18:02Z</time>
      </trkpt>
      <trkpt lat="49.90216" lon="2.50259">
        <ele>30.4</ele>
        <time>2023-09-27T14:18:03Z</time>
      </trkpt>
      <trkpt lat="49.90215" lon="2.5026">
        <ele>30.5</ele>
        <time>2023-09-27T14:18:04Z</time>
      </trkpt>
      <trkpt lat="49.90214" lon="2.5026">
        <ele>30.5</ele>
        <time>2023-09-27T14:18:05Z</time>
      </trkpt>
      <trkpt lat="49.90213" lon="2.50261">
        <ele>30.5</ele>
        <time>2023-09-27T14:18:06Z</time>
      </trkpt>
      <trkpt lat="49.90212" lon="2.50261">
        <ele>30.5</ele>
        <time>2023-09-27T14:18:07Z</time>
      </trkpt>
      <trkpt lat="49.90211" lon="2.50262">
        <ele>30.6</ele>
        <time>2023-09-27T14:18:08Z</time>
      </trkpt>
      <trkpt lat="49.9021" lon="2.50262">
        <ele>30.6</ele>
        <time>2023-09-27T14:18:09Z</time>
      </trkpt>
      <trkpt lat="49.9021" lon="2.50262">
        <ele>30.6</ele>
        <time>2023-09-27T14:18:10Z</time>
      </trkpt>
      <trkpt lat="49.90209" lon="2.50263">
        <ele>30.7</ele>
        <time>2023-09-27T14:18:11Z</time>
      </trkpt>
      <trkpt lat="49.90208" lon="2.50263">
        <ele>30.7</ele>
        <time>2023-09-27T14:18:12Z</time>
      </trkpt>
      <trkpt lat="49.90207" lon="2.50264">
        <ele>30.7</ele>
        <time>2023-09-27T14:18:13Z</time>
      </trkpt>
      <trkpt lat="49.90206" lon="2.50264">
        <ele>30.8</ele>
        <time>2023-09-27T14:18:14Z</time>
      </trkpt>
      <trkpt lat="49.90205" lon="2.50265">
        <ele>30.8</ele>
        <time>2023-09-27T14:18:15Z</time>
      </trkpt>
      <trkpt lat="49.90204" lon="2.50265">
        <ele>30.9</ele>
        <time>2023-09-27T14:18:16Z</time>
      </trkpt>
      <trkpt lat="49.90203" lon="2.50265">
        <ele>30.9</ele>
        <time>2023-09-27T14:18:17Z</time>
      </trkpt>
      <trkpt lat="49.90202" lon="2.50266">
        <ele>30.9</ele>
        <time>2023-09-27T14:18:18Z</time>
      </trkpt>
      <trkpt lat="49.90201" lon="2.50266">
        <ele>31</ele>
        <time>2023-09-27T14:18:19Z</time>
      </trkpt>
      <trkpt lat="49.90199" lon="2.50266">
        <ele>31</ele>
        <time>2023-09-27T14:18:20Z</time>
      </trkpt>
      <trkpt lat="49.90198" lon="2.50267">
        <ele>31.1</ele>
        <time>2023-09-27T14:18:21Z</time>
      </trkpt>
      <trkpt lat="49.90197" lon="2.50267">
        <ele>31.1</ele>
        <time>2023-09-27T14:18:22Z</time>
      </trkpt>
      <trkpt lat="49.90196" lon="2.50268">
        <ele>31.1</ele>
        <time>2023-09-27T14:18:23Z</time>
      </trkpt>
      <trkpt lat="49.90195" lon="2.50268">
        <ele>31.2</ele>
        <time>2023-09-27T14:18:24Z</time>
      </trkpt>
      <trkpt lat="49.90194" lon="2.50268">
        <ele>31.2</ele>
        <time>2023-09-27T14:18:25Z</time>
      </trkpt>
      <trkpt lat="49.90193" lon="2.50269">
        <ele>31.3</ele>
        <time>2023-09-27T14:18:26Z</time>
      </trkpt>
      <trkpt lat="49.90193" lon="2.5027">
        <ele>31.3</ele>
        <time>2023-09-27T14:18:27Z</time>
      </trkpt>
      <trkpt lat="49.90193" lon="2.50271">
        <ele>31.3</ele>
        <time>2023-09-27T14:18:28Z</time>
      </trkpt>
      <trkpt lat="49.90194" lon="2.50271">
        <ele>31.3</ele>
        <time>2023-09-27T14:18:29Z</time>
      </trkpt>
      <trkpt lat="49.90195" lon="2.50271">
        <ele>31.4</ele>
        <time>2023-09-27T14:18:30Z</time>
      </trkpt>
      <trkpt lat="49.90195" lon="2.50271">
        <ele>31.4</ele>
        <time>2023-09-27T14:18:31Z</time>
      </trkpt>
      <trkpt lat="49.90196" lon="2.50271">
        <ele>31.4</ele>
        <time>2023-09-27T14:18:32Z</time>
      </trkpt>
      <trkpt lat="49.90196" lon="2.5027">
        <ele>31.4</ele>
        <time>2023-09-27T14:18:33Z</time>
      </trkpt>
      <trkpt lat="49.90196" lon="2.5027">
        <ele>31.4</ele>
        <time>2023-09-27T14:18:34Z</time>
      </trkpt>
      <trkpt lat="49.90196" lon="2.5027">
        <ele>31.4</ele>
        <time>2023-09-27T14:18:35Z</time>
      </trkpt>
      <trkpt lat="49.90196" lon="2.5027">
        <ele>31.4</ele>
        <time>2023-09-27T14:18:36Z</time>
      </trkpt>
      <trkpt lat="49.90195" lon="2.5027">
        <ele>31.5</ele>
        <time>2023-09-27T14:18:37Z</time>
      </trkpt>
      <trkpt lat="49.90195" lon="2.5027">
        <ele>31.5</ele>
        <time>2023-09-27T14:18:38Z</time>
      </trkpt>
      <trkpt lat="49.90194" lon="2.5027">
        <ele>31.5</ele>
        <time>2023-09-27T14:18:39Z</time>
      </trkpt>
      <trkpt lat="49.90193" lon="2.5027">
        <ele>31.5</ele>
        <time>2023-09-27T14:18:40Z</time>
      </trkpt>
      <trkpt lat="49.90191" lon="2.5027">
        <ele>31.6</ele>
        <time>2023-09-27T14:18:41Z</time>
      </trkpt>
      <trkpt lat="49.9019" lon="2.5027">
        <ele>31.6</ele>
        <time>2023-09-27T14:18:42Z</time>
      </trkpt>
      <trkpt lat="49.90189" lon="2.50269">
        <ele>31.7</ele>
        <time>2023-09-27T14:18:43Z</time>
      </trkpt>
      <trkpt lat="49.90188" lon="2.50269">
        <ele>31.7</ele>
        <time>2023-09-27T14:18:44Z</time>
      </trkpt>
      <trkpt lat="49.90186" lon="2.50269">
        <ele>31.7</ele>
        <time>2023-09-27T14:18:45Z</time>
      </trkpt>
      <trkpt lat="49.90185" lon="2.50269">
        <ele>31.8</ele>
        <time>2023-09-27T14:18:46Z</time>
      </trkpt>
      <trkpt lat="49.90184" lon="2.50269">
        <ele>31.8</ele>
        <time>2023-09-27T14:18:47Z</time>
      </trkpt>
      <trkpt lat="49.90183" lon="2.50269">
        <ele>31.9</ele>
        <time>2023-09-27T14:18:48Z</time>
      </trkpt>
      <trkpt lat="49.90182" lon="2.50269">
        <ele>31.9</ele>
        <time>2023-09-27T14:18:49Z</time>
      </trkpt>
      <trkpt lat="49.90181" lon="2.50269">
        <ele>31.9</ele>
        <time>2023-09-27T14:18:50Z</time>
      </trkpt>
      <trkpt lat="49.9018" lon="2.50269">
        <ele>31.9</ele>
        <time>2023-09-27T14:18:51Z</time>
      </trkpt>
      <trkpt lat="49.90179" lon="2.5027">
        <ele>32</ele>
        <time>2023-09-27T14:18:52Z</time>
      </trkpt>
      <trkpt lat="49.90178" lon="2.5027">
        <ele>32</ele>
        <time>2023-09-27T14:18:53Z</time>
      </trkpt>
      <trkpt lat="49.90177" lon="2.50271">
        <ele>32.1</ele>
        <time>2023-09-27T14:18:54Z</time>
      </trkpt>
      <trkpt lat="49.90176" lon="2.50271">
        <ele>32.1</ele>
        <time>2023-09-27T14:18:55Z</time>
      </trkpt>
      <trkpt lat="49.90175" lon="2.50272">
        <ele>32.1</ele>
        <time>2023-09-27T14:18:56Z</time>
      </trkpt>
      <trkpt lat="49.90174" lon="2.50272">
        <ele>32.1</ele>
        <time>2023-09-27T14:18:57Z</time>
      </trkpt>
      <trkpt lat="49.90173" lon="2.50273">
        <ele>32.2</ele>
        <time>2023-09-27T14:18:58Z</time>
      </trkpt>
      <trkpt lat="49.90172" lon="2.50274">
        <ele>32.2</ele>
        <time>2023-09-27T14:18:59Z</time>
      </trkpt>
      <trkpt lat="49.90171" lon="2.50274">
        <ele>32.2</ele>
        <time>2023-09-27T14:19:00Z</time>
      </trkpt>
      <trkpt lat="49.9017" lon="2.50275">
        <ele>32.3</ele>
        <time>2023-09-27T14:19:01Z</time>
      </trkpt>
      <trkpt lat="49.90169" lon="2.50276">
        <ele>32.3</ele>
        <time>2023-09-27T14:19:02Z</time>
      </trkpt>
      <trkpt lat="49.90168" lon="2.50276">
        <ele>32.3</ele>
        <time>2023-09-27T14:19:03Z</time>
      </trkpt>
      <trkpt lat="49.90168" lon="2.50277">
        <ele>32.4</ele>
        <time>2023-09-27T14:19:04Z</time>
      </trkpt>
      <trkpt lat="49.90167" lon="2.50278">
        <ele>32.4</ele>
        <time>2023-09-27T14:19:05Z</time>
      </trkpt>
      <trkpt lat="49.90166" lon="2.50279">
        <ele>32.4</ele>
        <time>2023-09-27T14:19:06Z</time>
      </trkpt>
      <trkpt lat="49.90165" lon="2.5028">
        <ele>32.5</ele>
        <time>2023-09-27T14:19:07Z</time>
      </trkpt>
      <trkpt lat="49.90164" lon="2.5028">
        <ele>32.5</ele>
        <time>2023-09-27T14:19:08Z</time>
      </trkpt>
      <trkpt lat="49.90163" lon="2.50281">
        <ele>32.5</ele>
        <time>2023-09-27T14:19:09Z</time>
      </trkpt>
      <trkpt lat="49.90162" lon="2.50282">
        <ele>32.6</ele>
        <time>2023-09-27T14:19:10Z</time>
      </trkpt>
      <trkpt lat="49.90161" lon="2.50283">
        <ele>32.6</ele>
        <time>2023-09-27T14:19:11Z</time>
      </trkpt>
      <trkpt lat="49.90161" lon="2.50283">
        <ele>32.6</ele>
        <time>2023-09-27T14:19:12Z</time>
      </trkpt>
      <trkpt lat="49.9016" lon="2.50284">
        <ele>32.7</ele>
        <time>2023-09-27T14:19:13Z</time>
      </trkpt>
      <trkpt lat="49.90159" lon="2.50284">
        <ele>32.7</ele>
        <time>2023-09-27T14:19:14Z</time>
      </trkpt>
      <trkpt lat="49.90158" lon="2.50285">
        <ele>32.7</ele>
        <time>2023-09-27T14:19:15Z</time>
      </trkpt>
      <trkpt lat="49.90157" lon="2.50286">
        <ele>32.7</ele>
        <time>2023-09-27T14:19:16Z</time>
      </trkpt>
      <trkpt lat="49.90156" lon="2.50286">
        <ele>32.8</ele>
        <time>2023-09-27T14:19:17Z</time>
      </trkpt>
      <trkpt lat="49.90155" lon="2.50287">
        <ele>32.8</ele>
        <time>2023-09-27T14:19:18Z</time>
      </trkpt>
      <trkpt lat="49.90154" lon="2.50287">
        <ele>32.8</ele>
        <time>2023-09-27T14:19:19Z</time>
      </trkpt>
      <trkpt lat="49.90152" lon="2.50287">
        <ele>32.9</ele>
        <time>2023-09-27T14:19:20Z</time>
      </trkpt>
      <trkpt lat="49.90152" lon="2.50287">
        <ele>32.9</ele>
        <time>2023-09-27T14:19:21Z</time>
      </trkpt>
      <trkpt lat="49.90151" lon="2.50287">
        <ele>32.9</ele>
        <time>2023-09-27T14:19:22Z</time>
      </trkpt>
      <trkpt lat="49.9015" lon="2.50286">
        <ele>32.9</ele>
        <time>2023-09-27T14:19:23Z</time>
      </trkpt>
      <trkpt lat="49.9015" lon="2.50287">
        <ele>32.9</ele>
        <time>2023-09-27T14:19:24Z</time>
      </trkpt>
      <trkpt lat="49.90149" lon="2.50287">
        <ele>33</ele>
        <time>2023-09-27T14:19:25Z</time>
      </trkpt>
      <trkpt lat="49.90149" lon="2.50287">
        <ele>33</ele>
        <time>2023-09-27T14:19:26Z</time>
      </trkpt>
      <trkpt lat="49.90148" lon="2.50287">
        <ele>33</ele>
        <time>2023-09-27T14:19:27Z</time>
      </trkpt>
      <trkpt lat="49.90148" lon="2.50288">
        <ele>33</ele>
        <time>2023-09-27T14:19:28Z</time>
      </trkpt>
      <trkpt lat="49.90147" lon="2.50288">
        <ele>33</ele>
        <time>2023-09-27T14:19:29Z</time>
      </trkpt>
      <trkpt lat="49.90147" lon="2.50289">
        <ele>33</ele>
        <time>2023-09-27T14:19:30Z</time>
      </trkpt>
      <trkpt lat="49.90146" lon="2.5029">
        <ele>33.1</ele>
        <time>2023-09-27T14:19:31Z</time>
      </trkpt>
      <trkpt lat="49.90145" lon="2.50291">
        <ele>33.1</ele>
        <time>2023-09-27T14:19:32Z</time>
      </trkpt>
      <trkpt lat="49.90144" lon="2.50291">
        <ele>33.1</ele>
        <time>2023-09-27T14:19:33Z</time>
      </trkpt>
      <trkpt lat="49.90143" lon="2.50292">
        <ele>33.1</ele>
        <time>2023-09-27T14:19:34Z</time>
      </trkpt>
      <trkpt lat="49.90142" lon="2.50293">
        <ele>33.2</ele>
        <time>2023-09-27T14:19:35Z</time>
      </trkpt>
      <trkpt lat="49.90141" lon="2.50294">
        <ele>33.2</ele>
        <time>2023-09-27T14:19:36Z</time>
      </trkpt>
      <trkpt lat="49.9014" lon="2.50295">
        <ele>33.2</ele>
        <time>2023-09-27T14:19:37Z</time>
      </trkpt>
      <trkpt lat="49.90139" lon="2.50295">
        <ele>33.2</ele>
        <time>2023-09-27T14:19:38Z</time>
      </trkpt>
      <trkpt lat="49.90137" lon="2.50297">
        <ele>33.3</ele>
        <time>2023-09-27T14:19:39Z</time>
      </trkpt>
      <trkpt lat="49.90136" lon="2.50298">
        <ele>33.3</ele>
        <time>2023-09-27T14:19:40Z</time>
      </trkpt>
      <trkpt lat="49.90136" lon="2.50298">
        <ele>33.3</ele>
        <time>2023-09-27T14:19:41Z</time>
      </trkpt>
      <trkpt lat="49.90135" lon="2.50299">
        <ele>33.3</ele>
        <time>2023-09-27T14:19:42Z</time>
      </trkpt>
      <trkpt lat="49.90134" lon="2.503">
        <ele>33.4</ele>
        <time>2023-09-27T14:19:43Z</time>
      </trkpt>
      <trkpt lat="49.90133" lon="2.50301">
        <ele>33.4</ele>
        <time>2023-09-27T14:19:44Z</time>
      </trkpt>
      <trkpt lat="49.90132" lon="2.50301">
        <ele>33.4</ele>
        <time>2023-09-27T14:19:45Z</time>
      </trkpt>
      <trkpt lat="49.90131" lon="2.50302">
        <ele>33.4</ele>
        <time>2023-09-27T14:19:46Z</time>
      </trkpt>
      <trkpt lat="49.9013" lon="2.50303">
        <ele>33.4</ele>
        <time>2023-09-27T14:19:47Z</time>
      </trkpt>
      <trkpt lat="49.90129" lon="2.50304">
        <ele>33.5</ele>
        <time>2023-09-27T14:19:48Z</time>
      </trkpt>
      <trkpt lat="49.90128" lon="2.50304">
        <ele>33.5</ele>
        <time>2023-09-27T14:19:49Z</time>
      </trkpt>
      <trkpt lat="49.90127" lon="2.50305">
        <ele>33.5</ele>
        <time>2023-09-27T14:19:50Z</time>
      </trkpt>
      <trkpt lat="49.90126" lon="2.50306">
        <ele>33.5</ele>
        <time>2023-09-27T14:19:51Z</time>
      </trkpt>
      <trkpt lat="49.90124" lon="2.50307">
        <ele>33.5</ele>
        <time>2023-09-27T14:19:52Z</time>
      </trkpt>
      <trkpt lat="49.90123" lon="2.50307">
        <ele>33.6</ele>
        <time>2023-09-27T14:19:53Z</time>
      </trkpt>
      <trkpt lat="49.90123" lon="2.50308">
        <ele>33.6</ele>
        <time>2023-09-27T14:19:54Z</time>
      </trkpt>
      <trkpt lat="49.90122" lon="2.50308">
        <ele>33.6</ele>
        <time>2023-09-27T14:19:55Z</time>
      </trkpt>
      <trkpt lat="49.90121" lon="2.50308">
        <ele>33.6</ele>
        <time>2023-09-27T14:19:56Z</time>
      </trkpt>
      <trkpt lat="49.90119" lon="2.50309">
        <ele>33.6</ele>
        <time>2023-09-27T14:19:57Z</time>
      </trkpt>
      <trkpt lat="49.90118" lon="2.50309">
        <ele>33.7</ele>
        <time>2023-09-27T14:19:58Z</time>
      </trkpt>
      <trkpt lat="49.90117" lon="2.5031">
        <ele>33.7</ele>
        <time>2023-09-27T14:19:59Z</time>
      </trkpt>
      <trkpt lat="49.90115" lon="2.50311">
        <ele>33.7</ele>
        <time>2023-09-27T14:20:00Z</time>
      </trkpt>
      <trkpt lat="49.90115" lon="2.50312">
        <ele>33.7</ele>
        <time>2023-09-27T14:20:01Z</time>
      </trkpt>
      <trkpt lat="49.90114" lon="2.50312">
        <ele>33.7</ele>
        <time>2023-09-27T14:20:02Z</time>
      </trkpt>
      <trkpt lat="49.90113" lon="2.50313">
        <ele>33.8</ele>
        <time>2023-09-27T14:20:03Z</time>
      </trkpt>
      <trkpt lat="49.90112" lon="2.50314">
        <ele>33.8</ele>
        <time>2023-09-27T14:20:04Z</time>
      </trkpt>
      <trkpt lat="49.90111" lon="2.50315">
        <ele>33.8</ele>
        <time>2023-09-27T14:20:05Z</time>
      </trkpt>
      <trkpt lat="49.9011" lon="2.50315">
        <ele>33.8</ele>
        <time>2023-09-27T14:20:06Z</time>
      </trkpt>
      <trkpt lat="49.90109" lon="2.50316">
        <ele>33.8</ele>
        <time>2023-09-27T14:20:07Z</time>
      </trkpt>
      <trkpt lat="49.90108" lon="2.50316">
        <ele>33.8</ele>
        <time>2023-09-27T14:20:08Z</time>
      </trkpt>
      <trkpt lat="49.90107" lon="2.50317">
        <ele>33.8</ele>
        <time>2023-09-27T14:20:09Z</time>
      </trkpt>
      <trkpt lat="49.90106" lon="2.50317">
        <ele>33.9</ele>
        <time>2023-09-27T14:20:10Z</time>
      </trkpt>
      <trkpt lat="49.90105" lon="2.50318">
        <ele>33.9</ele>
        <time>2023-09-27T14:20:11Z</time>
      </trkpt>
      <trkpt lat="49.90104" lon="2.50319">
        <ele>33.9</ele>
        <time>2023-09-27T14:20:12Z</time>
      </trkpt>
      <trkpt lat="49.90103" lon="2.50319">
        <ele>33.9</ele>
        <time>2023-09-27T14:20:13Z</time>
      </trkpt>
      <trkpt lat="49.90102" lon="2.5032">
        <ele>33.9</ele>
        <time>2023-09-27T14:20:14Z</time>
      </trkpt>
      <trkpt lat="49.90101" lon="2.5032">
        <ele>33.9</ele>
        <time>2023-09-27T14:20:15Z</time>
      </trkpt>
      <trkpt lat="49.901" lon="2.50321">
        <ele>33.9</ele>
        <time>2023-09-27T14:20:16Z</time>
      </trkpt>
      <trkpt lat="49.90099" lon="2.50321">
        <ele>34</ele>
        <time>2023-09-27T14:20:17Z</time>
      </trkpt>
      <trkpt lat="49.90098" lon="2.50322">
        <ele>34</ele>
        <time>2023-09-27T14:20:18Z</time>
      </trkpt>
      <trkpt lat="49.90097" lon="2.50323">
        <ele>34</ele>
        <time>2023-09-27T14:20:19Z</time>
      </trkpt>
      <trkpt lat="49.90096" lon="2.50324">
        <ele>34</ele>
        <time>2023-09-27T14:20:20Z</time>
      </trkpt>
      <trkpt lat="49.90095" lon="2.50324">
        <ele>34</ele>
        <time>2023-09-27T14:20:21Z</time>
      </trkpt>
      <trkpt lat="49.90094" lon="2.50325">
        <ele>34</ele>
        <time>2023-09-27T14:20:22Z</time>
      </trkpt>
      <trkpt lat="49.90093" lon="2.50325">
        <ele>34</ele>
        <time>2023-09-27T14:20:23Z</time>
      </trkpt>
      <trkpt lat="49.90092" lon="2.50326">
        <ele>34</ele>
        <time>2023-09-27T14:20:24Z</time>
      </trkpt>
      <trkpt lat="49.90091" lon="2.50326">
        <ele>34</ele>
        <time>2023-09-27T14:20:25Z</time>
      </trkpt>
      <trkpt lat="49.9009" lon="2.50326">
        <ele>34</ele>
        <time>2023-09-27T14:20:26Z</time>
      </trkpt>
      <trkpt lat="49.90089" lon="2.50327">
        <ele>34</ele>
        <time>2023-09-27T14:20:27Z</time>
      </trkpt>
      <trkpt lat="49.90088" lon="2.50327">
        <ele>34.1</ele>
        <time>2023-09-27T14:20:28Z</time>
      </trkpt>
      <trkpt lat="49.90087" lon="2.50328">
        <ele>34.1</ele>
        <time>2023-09-27T14:20:29Z</time>
      </trkpt>
      <trkpt lat="49.90086" lon="2.50328">
        <ele>34.1</ele>
        <time>2023-09-27T14:20:30Z</time>
      </trkpt>
      <trkpt lat="49.90085" lon="2.50329">
        <ele>34.1</ele>
        <time>2023-09-27T14:20:31Z</time>
      </trkpt>
      <trkpt lat="49.90084" lon="2.50329">
        <ele>34.1</ele>
        <time>2023-09-27T14:20:32Z</time>
      </trkpt>
      <trkpt lat="49.90083" lon="2.5033">
        <ele>34.1</ele>
        <time>2023-09-27T14:20:33Z</time>
      </trkpt>
      <trkpt lat="49.90082" lon="2.5033">
        <ele>34.1</ele>
        <time>2023-09-27T14:20:34Z</time>
      </trkpt>
      <trkpt lat="49.90081" lon="2.50331">
        <ele>34.1</ele>
        <time>2023-09-27T14:20:35Z</time>
      </trkpt>
      <trkpt lat="49.9008" lon="2.50331">
        <ele>34.1</ele>
        <time>2023-09-27T14:20:36Z</time>
      </trkpt>
      <trkpt lat="49.90079" lon="2.50332">
        <ele>34.1</ele>
        <time>2023-09-27T14:20:37Z</time>
      </trkpt>
      <trkpt lat="49.90078" lon="2.50333">
        <ele>34.1</ele>
        <time>2023-09-27T14:20:38Z</time>
      </trkpt>
      <trkpt lat="49.90077" lon="2.50334">
        <ele>34.1</ele>
        <time>2023-09-27T14:20:39Z</time>
      </trkpt>
      <trkpt lat="49.90076" lon="2.50334">
        <ele>34.1</ele>
        <time>2023-09-27T14:20:40Z</time>
      </trkpt>
      <trkpt lat="49.90075" lon="2.50335">
        <ele>34.1</ele>
        <time>2023-09-27T14:20:41Z</time>
      </trkpt>
      <trkpt lat="49.90074" lon="2.50336">
        <ele>34.1</ele>
        <time>2023-09-27T14:20:42Z</time>
      </trkpt>
      <trkpt lat="49.90073" lon="2.50337">
        <ele>34.1</ele>
        <time>2023-09-27T14:20:43Z</time>
      </trkpt>
      <trkpt lat="49.90072" lon="2.50338">
        <ele>34.1</ele>
        <time>2023-09-27T14:20:44Z</time>
      </trkpt>
      <trkpt lat="49.90071" lon="2.50339">
        <ele>34.2</ele>
        <time>2023-09-27T14:20:45Z</time>
      </trkpt>
      <trkpt lat="49.9007" lon="2.5034">
        <ele>34.2</ele>
        <time>2023-09-27T14:20:46Z</time>
      </trkpt>
      <trkpt lat="49.90069" lon="2.50341">
        <ele>34.2</ele>
        <time>2023-09-27T14:20:47Z</time>
      </trkpt>
      <trkpt lat="49.90068" lon="2.50341">
        <ele>34.2</ele>
        <time>2023-09-27T14:20:48Z</time>
      </trkpt>
      <trkpt lat="49.90067" lon="2.50342">
        <ele>34.2</ele>
        <time>2023-09-27T14:20:49Z</time>
      </trkpt>
      <trkpt lat="49.90067" lon="2.50343">
        <ele>34.2</ele>
        <time>2023-09-27T14:20:50Z</time>
      </trkpt>
      <trkpt lat="49.90066" lon="2.50344">
        <ele>34.2</ele>
        <time>2023-09-27T14:20:51Z</time>
      </trkpt>
      <trkpt lat="49.90065" lon="2.50345">
        <ele>34.2</ele>
        <time>2023-09-27T14:20:52Z</time>
      </trkpt>
      <trkpt lat="49.90064" lon="2.50346">
        <ele>34.2</ele>
        <time>2023-09-27T14:20:53Z</time>
      </trkpt>
      <trkpt lat="49.90063" lon="2.50346">
        <ele>34.2</ele>
        <time>2023-09-27T14:20:54Z</time>
      </trkpt>
      <trkpt lat="49.90063" lon="2.50347">
        <ele>34.2</ele>
        <time>2023-09-27T14:20:55Z</time>
      </trkpt>
      <trkpt lat="49.90062" lon="2.50348">
        <ele>34.2</ele>
        <time>2023-09-27T14:20:56Z</time>
      </trkpt>
      <trkpt lat="49.90061" lon="2.50349">
        <ele>34.2</ele>
        <time>2023-09-27T14:20:57Z</time>
      </trkpt>
      <trkpt lat="49.90061" lon="2.50349">
        <ele>34.2</ele>
        <time>2023-09-27T14:20:58Z</time>
      </trkpt>
      <trkpt lat="49.9006" lon="2.5035">
        <ele>34.2</ele>
        <time>2023-09-27T14:20:59Z</time>
      </trkpt>
      <trkpt lat="49.90059" lon="2.5035">
        <ele>34.2</ele>
        <time>2023-09-27T14:21:00Z</time>
      </trkpt>
      <trkpt lat="49.90059" lon="2.50351">
        <ele>34.2</ele>
        <time>2023-09-27T14:21:01Z</time>
      </trkpt>
      <trkpt lat="49.90058" lon="2.50352">
        <ele>34.2</ele>
        <time>2023-09-27T14:21:02Z</time>
      </trkpt>
      <trkpt lat="49.90058" lon="2.50352">
        <ele>34.2</ele>
        <time>2023-09-27T14:21:03Z</time>
      </trkpt>
      <trkpt lat="49.90057" lon="2.50352">
        <ele>34.2</ele>
        <time>2023-09-27T14:21:04Z</time>
      </trkpt>
      <trkpt lat="49.90057" lon="2.50353">
        <ele>34.2</ele>
        <time>2023-09-27T14:21:05Z</time>
      </trkpt>
      <trkpt lat="49.90057" lon="2.50353">
        <ele>34.2</ele>
        <time>2023-09-27T14:21:06Z</time>
      </trkpt>
      <trkpt lat="49.90056" lon="2.50354">
        <ele>34.2</ele>
        <time>2023-09-27T14:21:07Z</time>
      </trkpt>
      <trkpt lat="49.90056" lon="2.50354">
        <ele>34.2</ele>
        <time>2023-09-27T14:21:08Z</time>
      </trkpt>
      <trkpt lat="49.90057" lon="2.50354">
        <ele>34.2</ele>
        <time>2023-09-27T14:21:09Z</time>
      </trkpt>
      <trkpt lat="49.90057" lon="2.50354">
        <ele>34.2</ele>
        <time>2023-09-27T14:21:10Z</time>
      </trkpt>
      <trkpt lat="49.90057" lon="2.50354">
        <ele>34.2</ele>
        <time>2023-09-27T14:21:11Z</time>
      </trkpt>
      <trkpt lat="49.90057" lon="2.50354">
        <ele>34.2</ele>
        <time>2023-09-27T14:21:12Z</time>
      </trkpt>
      <trkpt lat="49.90057" lon="2.50354">
        <ele>34.2</ele>
        <time>2023-09-27T14:21:13Z</time>
      </trkpt>
      <trkpt lat="49.90057" lon="2.50354">
        <ele>34.2</ele>
        <time>2023-09-27T14:21:14Z</time>
      </trkpt>
      <trkpt lat="49.90057" lon="2.50354">
        <ele>34.2</ele>
        <time>2023-09-27T14:21:15Z</time>
      </trkpt>
      <trkpt lat="49.90057" lon="2.50354">
        <ele>34.2</ele>
        <time>2023-09-27T14:21:16Z</time>
      </trkpt>
      <trkpt lat="49.90057" lon="2.50354">
        <ele>34.2</ele>
        <time>2023-09-27T14:21:17Z</time>
      </trkpt>
      <trkpt lat="49.90057" lon="2.50354">
        <ele>34.2</ele>
        <time>2023-09-27T14:21:18Z</time>
      </trkpt>
      <trkpt lat="49.90057" lon="2.50354">
        <ele>34.2</ele>
        <time>2023-09-27T14:21:19Z</time>
      </trkpt>
      <trkpt lat="49.90057" lon="2.50354">
        <ele>34.2</ele>
        <time>2023-09-27T14:21:20Z</time>
      </trkpt>
      <trkpt lat="49.90057" lon="2.50354">
        <ele>34.2</ele>
        <time>2023-09-27T14:21:21Z</time>
      </trkpt>
      <trkpt lat="49.90057" lon="2.50354">
        <ele>34.2</ele>
        <time>2023-09-27T14:21:22Z</time>
      </trkpt>
      <trkpt lat="49.90057" lon="2.50353">
        <ele>34.2</ele>
        <time>2023-09-27T14:21:23Z</time>
      </trkpt>
      <trkpt lat="49.90057" lon="2.50353">
        <ele>34.2</ele>
        <time>2023-09-27T14:21:24Z</time>
      </trkpt>
      <trkpt lat="49.90057" lon="2.50353">
        <ele>34.2</ele>
        <time>2023-09-27T14:21:25Z</time>
      </trkpt>
      <trkpt lat="49.90057" lon="2.50353">
        <ele>34.2</ele>
        <time>2023-09-27T14:21:26Z</time>
      </trkpt>
      <trkpt lat="49.90057" lon="2.50353">
        <ele>34.2</ele>
        <time>2023-09-27T14:21:27Z</time>
      </trkpt>
      <trkpt lat="49.90057" lon="2.50353">
        <ele>34.2</ele>
        <time>2023-09-27T14:21:28Z</time>
      </trkpt>
      <trkpt lat="49.90057" lon="2.50353">
        <ele>34.2</ele>
        <time>2023-09-27T14:21:29Z</time>
      </trkpt>
      <trkpt lat="49.90057" lon="2.50353">
        <ele>34.2</ele>
        <time>2023-09-27T14:21:30Z</time>
      </trkpt>
      <trkpt lat="49.90057" lon="2.50353">
        <ele>34.2</ele>
        <time>2023-09-27T14:21:31Z</time>
      </trkpt>
      <trkpt lat="49.90057" lon="2.50353">
        <ele>34.2</ele>
        <time>2023-09-27T14:21:32Z</time>
      </trkpt>
      <trkpt lat="49.90057" lon="2.50353">
        <ele>34.2</ele>
        <time>2023-09-27T14:21:33Z</time>
      </trkpt>
      <trkpt lat="49.90059" lon="2.50351">
        <ele>34.2</ele>
        <time>2023-09-27T14:21:34Z</time>
      </trkpt>
      <trkpt lat="49.90058" lon="2.50351">
        <ele>34.2</ele>
        <time>2023-09-27T14:21:35Z</time>
      </trkpt>
      <trkpt lat="49.90057" lon="2.50351">
        <ele>34.2</ele>
        <time>2023-09-27T14:21:36Z</time>
      </trkpt>
      <trkpt lat="49.90057" lon="2.50352">
        <ele>34.2</ele>
        <time>2023-09-27T14:21:37Z</time>
      </trkpt>
      <trkpt lat="49.90056" lon="2.50353">
        <ele>34.2</ele>
        <time>2023-09-27T14:21:38Z</time>
      </trkpt>
      <trkpt lat="49.90055" lon="2.50353">
        <ele>34.2</ele>
        <time>2023-09-27T14:21:39Z</time>
      </trkpt>
      <trkpt lat="49.90054" lon="2.50354">
        <ele>34.2</ele>
        <time>2023-09-27T14:21:40Z</time>
      </trkpt>
      <trkpt lat="49.90052" lon="2.50354">
        <ele>34.2</ele>
        <time>2023-09-27T14:21:41Z</time>
      </trkpt>
      <trkpt lat="49.90051" lon="2.50354">
        <ele>34.2</ele>
        <time>2023-09-27T14:21:42Z</time>
      </trkpt>
      <trkpt lat="49.9005" lon="2.50354">
        <ele>34.2</ele>
        <time>2023-09-27T14:21:43Z</time>
      </trkpt>
      <trkpt lat="49.90049" lon="2.50353">
        <ele>34.2</ele>
        <time>2023-09-27T14:21:44Z</time>
      </trkpt>
      <trkpt lat="49.90048" lon="2.50353">
        <ele>34.2</ele>
        <time>2023-09-27T14:21:45Z</time>
      </trkpt>
      <trkpt lat="49.90047" lon="2.50352">
        <ele>34.2</ele>
        <time>2023-09-27T14:21:46Z</time>
      </trkpt>
      <trkpt lat="49.90046" lon="2.50351">
        <ele>34.2</ele>
        <time>2023-09-27T14:21:47Z</time>
      </trkpt>
      <trkpt lat="49.90045" lon="2.50351">
        <ele>34.2</ele>
        <time>2023-09-27T14:21:48Z</time>
      </trkpt>
      <trkpt lat="49.90044" lon="2.5035">
        <ele>34.2</ele>
        <time>2023-09-27T14:21:49Z</time>
      </trkpt>
      <trkpt lat="49.90044" lon="2.5035">
        <ele>34.2</ele>
        <time>2023-09-27T14:21:50Z</time>
      </trkpt>
      <trkpt lat="49.90043" lon="2.50351">
        <ele>34.2</ele>
        <time>2023-09-27T14:21:51Z</time>
      </trkpt>
      <trkpt lat="49.90042" lon="2.50352">
        <ele>34.2</ele>
        <time>2023-09-27T14:21:52Z</time>
      </trkpt>
      <trkpt lat="49.90041" lon="2.50352">
        <ele>34.2</ele>
        <time>2023-09-27T14:21:53Z</time>
      </trkpt>
      <trkpt lat="49.9004" lon="2.50353">
        <ele>34.2</ele>
        <time>2023-09-27T14:21:54Z</time>
      </trkpt>
      <trkpt lat="49.9004" lon="2.50353">
        <ele>34.2</ele>
        <time>2023-09-27T14:21:55Z</time>
      </trkpt>
      <trkpt lat="49.90039" lon="2.50354">
        <ele>34.2</ele>
        <time>2023-09-27T14:21:56Z</time>
      </trkpt>
      <trkpt lat="49.90038" lon="2.50355">
        <ele>34.2</ele>
        <time>2023-09-27T14:21:57Z</time>
      </trkpt>
      <trkpt lat="49.90037" lon="2.50355">
        <ele>34.2</ele>
        <time>2023-09-27T14:21:58Z</time>
      </trkpt>
      <trkpt lat="49.90036" lon="2.50356">
        <ele>34.2</ele>
        <time>2023-09-27T14:21:59Z</time>
      </trkpt>
      <trkpt lat="49.90035" lon="2.50356">
        <ele>34.2</ele>
        <time>2023-09-27T14:22:00Z</time>
      </trkpt>
      <trkpt lat="49.90034" lon="2.50357">
        <ele>34.1</ele>
        <time>2023-09-27T14:22:01Z</time>
      </trkpt>
      <trkpt lat="49.90033" lon="2.50357">
        <ele>34.1</ele>
        <time>2023-09-27T14:22:02Z</time>
      </trkpt>
      <trkpt lat="49.90032" lon="2.50358">
        <ele>34.1</ele>
        <time>2023-09-27T14:22:03Z</time>
      </trkpt>
      <trkpt lat="49.90031" lon="2.50358">
        <ele>34.1</ele>
        <time>2023-09-27T14:22:04Z</time>
      </trkpt>
      <trkpt lat="49.9003" lon="2.50359">
        <ele>34.1</ele>
        <time>2023-09-27T14:22:05Z</time>
      </trkpt>
      <trkpt lat="49.90029" lon="2.50359">
        <ele>34.1</ele>
        <time>2023-09-27T14:22:06Z</time>
      </trkpt>
      <trkpt lat="49.90029" lon="2.5036">
        <ele>34.1</ele>
        <time>2023-09-27T14:22:07Z</time>
      </trkpt>
      <trkpt lat="49.90028" lon="2.50361">
        <ele>34.1</ele>
        <time>2023-09-27T14:22:08Z</time>
      </trkpt>
      <trkpt lat="49.90027" lon="2.50362">
        <ele>34.1</ele>
        <time>2023-09-27T14:22:09Z</time>
      </trkpt>
      <trkpt lat="49.90026" lon="2.50362">
        <ele>34.1</ele>
        <time>2023-09-27T14:22:10Z</time>
      </trkpt>
      <trkpt lat="49.90025" lon="2.50363">
        <ele>34.1</ele>
        <time>2023-09-27T14:22:11Z</time>
      </trkpt>
      <trkpt lat="49.90024" lon="2.50364">
        <ele>34.1</ele>
        <time>2023-09-27T14:22:12Z</time>
      </trkpt>
      <trkpt lat="49.90022" lon="2.50366">
        <ele>34.2</ele>
        <time>2023-09-27T14:22:13Z</time>
      </trkpt>
      <trkpt lat="49.90021" lon="2.50366">
        <ele>34.2</ele>
        <time>2023-09-27T14:22:14Z</time>
      </trkpt>
      <trkpt lat="49.9002" lon="2.50367">
        <ele>34.2</ele>
        <time>2023-09-27T14:22:15Z</time>
      </trkpt>
      <trkpt lat="49.90019" lon="2.50367">
        <ele>34.2</ele>
        <time>2023-09-27T14:22:16Z</time>
      </trkpt>
      <trkpt lat="49.90018" lon="2.50368">
        <ele>34.2</ele>
        <time>2023-09-27T14:22:17Z</time>
      </trkpt>
      <trkpt lat="49.90018" lon="2.50369">
        <ele>34.2</ele>
        <time>2023-09-27T14:22:18Z</time>
      </trkpt>
      <trkpt lat="49.90017" lon="2.5037">
        <ele>34.2</ele>
        <time>2023-09-27T14:22:19Z</time>
      </trkpt>
      <trkpt lat="49.90016" lon="2.5037">
        <ele>34.2</ele>
        <time>2023-09-27T14:22:20Z</time>
      </trkpt>
      <trkpt lat="49.90015" lon="2.50371">
        <ele>34.2</ele>
        <time>2023-09-27T14:22:21Z</time>
      </trkpt>
      <trkpt lat="49.90013" lon="2.50371">
        <ele>34.2</ele>
        <time>2023-09-27T14:22:22Z</time>
      </trkpt>
      <trkpt lat="49.90012" lon="2.50372">
        <ele>34.2</ele>
        <time>2023-09-27T14:22:23Z</time>
      </trkpt>
      <trkpt lat="49.90012" lon="2.50372">
        <ele>34.2</ele>
        <time>2023-09-27T14:22:24Z</time>
      </trkpt>
      <trkpt lat="49.90011" lon="2.50373">
        <ele>34.3</ele>
        <time>2023-09-27T14:22:25Z</time>
      </trkpt>
      <trkpt lat="49.9001" lon="2.50374">
        <ele>34.3</ele>
        <time>2023-09-27T14:22:26Z</time>
      </trkpt>
      <trkpt lat="49.90009" lon="2.50374">
        <ele>34.3</ele>
        <time>2023-09-27T14:22:27Z</time>
      </trkpt>
      <trkpt lat="49.90008" lon="2.50374">
        <ele>34.3</ele>
        <time>2023-09-27T14:22:28Z</time>
      </trkpt>
      <trkpt lat="49.90007" lon="2.50375">
        <ele>34.3</ele>
        <time>2023-09-27T14:22:29Z</time>
      </trkpt>
      <trkpt lat="49.90006" lon="2.50375">
        <ele>34.3</ele>
        <time>2023-09-27T14:22:30Z</time>
      </trkpt>
      <trkpt lat="49.90005" lon="2.50376">
        <ele>34.3</ele>
        <time>2023-09-27T14:22:31Z</time>
      </trkpt>
      <trkpt lat="49.90004" lon="2.50376">
        <ele>34.3</ele>
        <time>2023-09-27T14:22:32Z</time>
      </trkpt>
      <trkpt lat="49.90002" lon="2.50377">
        <ele>34.3</ele>
        <time>2023-09-27T14:22:33Z</time>
      </trkpt>
      <trkpt lat="49.90002" lon="2.50377">
        <ele>34.3</ele>
        <time>2023-09-27T14:22:34Z</time>
      </trkpt>
      <trkpt lat="49.90001" lon="2.50377">
        <ele>34.3</ele>
        <time>2023-09-27T14:22:35Z</time>
      </trkpt>
      <trkpt lat="49.9" lon="2.50378">
        <ele>34.4</ele>
        <time>2023-09-27T14:22:36Z</time>
      </trkpt>
      <trkpt lat="49.89999" lon="2.50379">
        <ele>34.4</ele>
        <time>2023-09-27T14:22:37Z</time>
      </trkpt>
      <trkpt lat="49.89998" lon="2.50379">
        <ele>34.4</ele>
        <time>2023-09-27T14:22:38Z</time>
      </trkpt>
      <trkpt lat="49.89997" lon="2.5038">
        <ele>34.4</ele>
        <time>2023-09-27T14:22:39Z</time>
      </trkpt>
      <trkpt lat="49.89996" lon="2.5038">
        <ele>34.4</ele>
        <time>2023-09-27T14:22:40Z</time>
      </trkpt>
      <trkpt lat="49.89996" lon="2.50381">
        <ele>34.4</ele>
        <time>2023-09-27T14:22:41Z</time>
      </trkpt>
      <trkpt lat="49.89995" lon="2.50381">
        <ele>34.4</ele>
        <time>2023-09-27T14:22:42Z</time>
      </trkpt>
      <trkpt lat="49.89994" lon="2.50382">
        <ele>34.5</ele>
        <time>2023-09-27T14:22:43Z</time>
      </trkpt>
      <trkpt lat="49.89993" lon="2.50382">
        <ele>34.5</ele>
        <time>2023-09-27T14:22:44Z</time>
      </trkpt>
      <trkpt lat="49.89992" lon="2.50383">
        <ele>34.5</ele>
        <time>2023-09-27T14:22:45Z</time>
      </trkpt>
      <trkpt lat="49.89991" lon="2.50383">
        <ele>34.5</ele>
        <time>2023-09-27T14:22:46Z</time>
      </trkpt>
      <trkpt lat="49.89991" lon="2.50384">
        <ele>34.5</ele>
        <time>2023-09-27T14:22:47Z</time>
      </trkpt>
      <trkpt lat="49.8999" lon="2.50384">
        <ele>34.5</ele>
        <time>2023-09-27T14:22:48Z</time>
      </trkpt>
      <trkpt lat="49.89989" lon="2.50385">
        <ele>34.5</ele>
        <time>2023-09-27T14:22:49Z</time>
      </trkpt>
      <trkpt lat="49.89988" lon="2.50386">
        <ele>34.6</ele>
        <time>2023-09-27T14:22:50Z</time>
      </trkpt>
      <trkpt lat="49.89987" lon="2.50386">
        <ele>34.6</ele>
        <time>2023-09-27T14:22:51Z</time>
      </trkpt>
      <trkpt lat="49.89986" lon="2.50387">
        <ele>34.6</ele>
        <time>2023-09-27T14:22:52Z</time>
      </trkpt>
      <trkpt lat="49.89985" lon="2.50388">
        <ele>34.6</ele>
        <time>2023-09-27T14:22:53Z</time>
      </trkpt>
      <trkpt lat="49.89984" lon="2.50388">
        <ele>34.6</ele>
        <time>2023-09-27T14:22:54Z</time>
      </trkpt>
      <trkpt lat="49.89983" lon="2.50389">
        <ele>34.6</ele>
        <time>2023-09-27T14:22:55Z</time>
      </trkpt>
      <trkpt lat="49.89982" lon="2.5039">
        <ele>34.7</ele>
        <time>2023-09-27T14:22:56Z</time>
      </trkpt>
      <trkpt lat="49.89981" lon="2.50391">
        <ele>34.7</ele>
        <time>2023-09-27T14:22:57Z</time>
      </trkpt>
      <trkpt lat="49.8998" lon="2.50391">
        <ele>34.7</ele>
        <time>2023-09-27T14:22:58Z</time>
      </trkpt>
      <trkpt lat="49.89979" lon="2.50392">
        <ele>34.7</ele>
        <time>2023-09-27T14:22:59Z</time>
      </trkpt>
      <trkpt lat="49.89977" lon="2.50393">
        <ele>34.7</ele>
        <time>2023-09-27T14:23:00Z</time>
      </trkpt>
      <trkpt lat="49.89976" lon="2.50394">
        <ele>34.7</ele>
        <time>2023-09-27T14:23:01Z</time>
      </trkpt>
      <trkpt lat="49.89975" lon="2.50394">
        <ele>34.7</ele>
        <time>2023-09-27T14:23:02Z</time>
      </trkpt>
      <trkpt lat="49.89973" lon="2.50395">
        <ele>34.7</ele>
        <time>2023-09-27T14:23:03Z</time>
      </trkpt>
      <trkpt lat="49.89972" lon="2.50395">
        <ele>34.7</ele>
        <time>2023-09-27T14:23:04Z</time>
      </trkpt>
      <trkpt lat="49.89972" lon="2.50396">
        <ele>34.7</ele>
        <time>2023-09-27T14:23:05Z</time>
      </trkpt>
      <trkpt lat="49.8997" lon="2.50396">
        <ele>34.6</ele>
        <time>2023-09-27T14:23:06Z</time>
      </trkpt>
      <trkpt lat="49.89969" lon="2.50396">
        <ele>34.6</ele>
        <time>2023-09-27T14:23:07Z</time>
      </trkpt>
      <trkpt lat="49.89968" lon="2.50396">
        <ele>34.6</ele>
        <time>2023-09-27T14:23:08Z</time>
      </trkpt>
      <trkpt lat="49.89967" lon="2.50397">
        <ele>34.6</ele>
        <time>2023-09-27T14:23:09Z</time>
      </trkpt>
      <trkpt lat="49.89966" lon="2.50397">
        <ele>34.6</ele>
        <time>2023-09-27T14:23:10Z</time>
      </trkpt>
      <trkpt lat="49.89965" lon="2.50397">
        <ele>34.6</ele>
        <time>2023-09-27T14:23:11Z</time>
      </trkpt>
      <trkpt lat="49.89964" lon="2.50397">
        <ele>34.6</ele>
        <time>2023-09-27T14:23:12Z</time>
      </trkpt>
      <trkpt lat="49.89963" lon="2.50397">
        <ele>34.6</ele>
        <time>2023-09-27T14:23:13Z</time>
      </trkpt>
      <trkpt lat="49.89961" lon="2.50397">
        <ele>34.6</ele>
        <time>2023-09-27T14:23:14Z</time>
      </trkpt>
      <trkpt lat="49.89959" lon="2.50397">
        <ele>34.5</ele>
        <time>2023-09-27T14:23:15Z</time>
      </trkpt>
      <trkpt lat="49.89959" lon="2.50397">
        <ele>34.5</ele>
        <time>2023-09-27T14:23:16Z</time>
      </trkpt>
      <trkpt lat="49.89958" lon="2.50397">
        <ele>34.5</ele>
        <time>2023-09-27T14:23:17Z</time>
      </trkpt>
      <trkpt lat="49.89957" lon="2.50397">
        <ele>34.5</ele>
        <time>2023-09-27T14:23:18Z</time>
      </trkpt>
      <trkpt lat="49.89955" lon="2.50398">
        <ele>34.5</ele>
        <time>2023-09-27T14:23:19Z</time>
      </trkpt>
      <trkpt lat="49.89954" lon="2.50398">
        <ele>34.5</ele>
        <time>2023-09-27T14:23:20Z</time>
      </trkpt>
      <trkpt lat="49.89953" lon="2.50399">
        <ele>34.5</ele>
        <time>2023-09-27T14:23:21Z</time>
      </trkpt>
      <trkpt lat="49.89953" lon="2.50399">
        <ele>34.5</ele>
        <time>2023-09-27T14:23:22Z</time>
      </trkpt>
      <trkpt lat="49.89952" lon="2.504">
        <ele>34.5</ele>
        <time>2023-09-27T14:23:23Z</time>
      </trkpt>
      <trkpt lat="49.8995" lon="2.504">
        <ele>34.4</ele>
        <time>2023-09-27T14:23:24Z</time>
      </trkpt>
      <trkpt lat="49.89949" lon="2.50401">
        <ele>34.4</ele>
        <time>2023-09-27T14:23:25Z</time>
      </trkpt>
      <trkpt lat="49.89948" lon="2.50401">
        <ele>34.4</ele>
        <time>2023-09-27T14:23:26Z</time>
      </trkpt>
      <trkpt lat="49.89946" lon="2.50402">
        <ele>34.4</ele>
        <time>2023-09-27T14:23:27Z</time>
      </trkpt>
      <trkpt lat="49.89945" lon="2.50402">
        <ele>34.4</ele>
        <time>2023-09-27T14:23:28Z</time>
      </trkpt>
      <trkpt lat="49.89944" lon="2.50402">
        <ele>34.4</ele>
        <time>2023-09-27T14:23:29Z</time>
      </trkpt>
      <trkpt lat="49.89942" lon="2.50402">
        <ele>34.4</ele>
        <time>2023-09-27T14:23:30Z</time>
      </trkpt>
      <trkpt lat="49.89941" lon="2.50402">
        <ele>34.4</ele>
        <time>2023-09-27T14:23:31Z</time>
      </trkpt>
      <trkpt lat="49.8994" lon="2.50402">
        <ele>34.4</ele>
        <time>2023-09-27T14:23:32Z</time>
      </trkpt>
      <trkpt lat="49.89938" lon="2.50402">
        <ele>34.4</ele>
        <time>2023-09-27T14:23:33Z</time>
      </trkpt>
      <trkpt lat="49.89938" lon="2.50402">
        <ele>34.4</ele>
        <time>2023-09-27T14:23:34Z</time>
      </trkpt>
      <trkpt lat="49.89937" lon="2.50402">
        <ele>34.4</ele>
        <time>2023-09-27T14:23:35Z</time>
      </trkpt>
      <trkpt lat="49.89935" lon="2.50403">
        <ele>34.3</ele>
        <time>2023-09-27T14:23:36Z</time>
      </trkpt>
      <trkpt lat="49.89934" lon="2.50403">
        <ele>34.3</ele>
        <time>2023-09-27T14:23:37Z</time>
      </trkpt>
      <trkpt lat="49.89933" lon="2.50403">
        <ele>34.3</ele>
        <time>2023-09-27T14:23:38Z</time>
      </trkpt>
      <trkpt lat="49.89932" lon="2.50404">
        <ele>34.3</ele>
        <time>2023-09-27T14:23:39Z</time>
      </trkpt>
      <trkpt lat="49.89931" lon="2.50404">
        <ele>34.3</ele>
        <time>2023-09-27T14:23:40Z</time>
      </trkpt>
      <trkpt lat="49.8993" lon="2.50404">
        <ele>34.3</ele>
        <time>2023-09-27T14:23:41Z</time>
      </trkpt>
      <trkpt lat="49.89929" lon="2.50404">
        <ele>34.3</ele>
        <time>2023-09-27T14:23:42Z</time>
      </trkpt>
      <trkpt lat="49.89929" lon="2.50404">
        <ele>34.3</ele>
        <time>2023-09-27T14:23:43Z</time>
      </trkpt>
      <trkpt lat="49.89928" lon="2.50404">
        <ele>34.3</ele>
        <time>2023-09-27T14:23:44Z</time>
      </trkpt>
      <trkpt lat="49.89927" lon="2.50405">
        <ele>34.3</ele>
        <time>2023-09-27T14:23:45Z</time>
      </trkpt>
      <trkpt lat="49.89926" lon="2.50405">
        <ele>34.3</ele>
        <time>2023-09-27T14:23:46Z</time>
      </trkpt>
      <trkpt lat="49.89925" lon="2.50405">
        <ele>34.3</ele>
        <time>2023-09-27T14:23:47Z</time>
      </trkpt>
      <trkpt lat="49.89924" lon="2.50405">
        <ele>34.3</ele>
        <time>2023-09-27T14:23:48Z</time>
      </trkpt>
      <trkpt lat="49.89923" lon="2.50406">
        <ele>34.3</ele>
        <time>2023-09-27T14:23:49Z</time>
      </trkpt>
      <trkpt lat="49.89922" lon="2.50406">
        <ele>34.3</ele>
        <time>2023-09-27T14:23:50Z</time>
      </trkpt>
      <trkpt lat="49.89921" lon="2.50406">
        <ele>34.3</ele>
        <time>2023-09-27T14:23:51Z</time>
      </trkpt>
      <trkpt lat="49.8992" lon="2.50406">
        <ele>34.3</ele>
        <time>2023-09-27T14:23:52Z</time>
      </trkpt>
      <trkpt lat="49.89919" lon="2.50405">
        <ele>34.3</ele>
        <time>2023-09-27T14:23:53Z</time>
      </trkpt>
      <trkpt lat="49.89918" lon="2.50406">
        <ele>34.3</ele>
        <time>2023-09-27T14:23:54Z</time>
      </trkpt>
      <trkpt lat="49.89917" lon="2.50406">
        <ele>34.3</ele>
        <time>2023-09-27T14:23:55Z</time>
      </trkpt>
      <trkpt lat="49.89916" lon="2.50406">
        <ele>34.3</ele>
        <time>2023-09-27T14:23:56Z</time>
      </trkpt>
      <trkpt lat="49.89915" lon="2.50406">
        <ele>34.3</ele>
        <time>2023-09-27T14:23:57Z</time>
      </trkpt>
      <trkpt lat="49.89914" lon="2.50407">
        <ele>34.3</ele>
        <time>2023-09-27T14:23:58Z</time>
      </trkpt>
      <trkpt lat="49.89913" lon="2.50407">
        <ele>34.3</ele>
        <time>2023-09-27T14:23:59Z</time>
      </trkpt>
      <trkpt lat="49.89912" lon="2.50408">
        <ele>34.3</ele>
        <time>2023-09-27T14:24:00Z</time>
      </trkpt>
      <trkpt lat="49.89911" lon="2.50408">
        <ele>34.3</ele>
        <time>2023-09-27T14:24:01Z</time>
      </trkpt>
      <trkpt lat="49.8991" lon="2.50408">
        <ele>34.3</ele>
        <time>2023-09-27T14:24:02Z</time>
      </trkpt>
      <trkpt lat="49.89909" lon="2.50409">
        <ele>34.3</ele>
        <time>2023-09-27T14:24:03Z</time>
      </trkpt>
      <trkpt lat="49.89908" lon="2.50409">
        <ele>34.3</ele>
        <time>2023-09-27T14:24:04Z</time>
      </trkpt>
      <trkpt lat="49.89907" lon="2.5041">
        <ele>34.3</ele>
        <time>2023-09-27T14:24:05Z</time>
      </trkpt>
      <trkpt lat="49.89906" lon="2.5041">
        <ele>34.2</ele>
        <time>2023-09-27T14:24:06Z</time>
      </trkpt>
      <trkpt lat="49.89904" lon="2.50412">
        <ele>34.2</ele>
        <time>2023-09-27T14:24:07Z</time>
      </trkpt>
      <trkpt lat="49.89903" lon="2.50412">
        <ele>34.2</ele>
        <time>2023-09-27T14:24:08Z</time>
      </trkpt>
      <trkpt lat="49.89902" lon="2.50413">
        <ele>34.2</ele>
        <time>2023-09-27T14:24:09Z</time>
      </trkpt>
      <trkpt lat="49.89901" lon="2.50413">
        <ele>34.2</ele>
        <time>2023-09-27T14:24:10Z</time>
      </trkpt>
      <trkpt lat="49.899" lon="2.50414">
        <ele>34.2</ele>
        <time>2023-09-27T14:24:11Z</time>
      </trkpt>
      <trkpt lat="49.89899" lon="2.50414">
        <ele>34.2</ele>
        <time>2023-09-27T14:24:12Z</time>
      </trkpt>
      <trkpt lat="49.89898" lon="2.50415">
        <ele>34.2</ele>
        <time>2023-09-27T14:24:13Z</time>
      </trkpt>
      <trkpt lat="49.89897" lon="2.50416">
        <ele>34.2</ele>
        <time>2023-09-27T14:24:14Z</time>
      </trkpt>
      <trkpt lat="49.89896" lon="2.50416">
        <ele>34.2</ele>
        <time>2023-09-27T14:24:15Z</time>
      </trkpt>
      <trkpt lat="49.89894" lon="2.50417">
        <ele>34.2</ele>
        <time>2023-09-27T14:24:16Z</time>
      </trkpt>
      <trkpt lat="49.89893" lon="2.50418">
        <ele>34.2</ele>
        <time>2023-09-27T14:24:17Z</time>
      </trkpt>
      <trkpt lat="49.89892" lon="2.50418">
        <ele>34.2</ele>
        <time>2023-09-27T14:24:18Z</time>
      </trkpt>
      <trkpt lat="49.8989" lon="2.50419">
        <ele>34.2</ele>
        <time>2023-09-27T14:24:19Z</time>
      </trkpt>
      <trkpt lat="49.8989" lon="2.5042">
        <ele>34.2</ele>
        <time>2023-09-27T14:24:20Z</time>
      </trkpt>
      <trkpt lat="49.89889" lon="2.5042">
        <ele>34.1</ele>
        <time>2023-09-27T14:24:21Z</time>
      </trkpt>
      <trkpt lat="49.89888" lon="2.50421">
        <ele>34.1</ele>
        <time>2023-09-27T14:24:22Z</time>
      </trkpt>
      <trkpt lat="49.89887" lon="2.50421">
        <ele>34.1</ele>
        <time>2023-09-27T14:24:23Z</time>
      </trkpt>
      <trkpt lat="49.89885" lon="2.50422">
        <ele>34.1</ele>
        <time>2023-09-27T14:24:24Z</time>
      </trkpt>
      <trkpt lat="49.89884" lon="2.50422">
        <ele>34.1</ele>
        <time>2023-09-27T14:24:25Z</time>
      </trkpt>
      <trkpt lat="49.89883" lon="2.50422">
        <ele>34.1</ele>
        <time>2023-09-27T14:24:26Z</time>
      </trkpt>
      <trkpt lat="49.89883" lon="2.50422">
        <ele>34.1</ele>
        <time>2023-09-27T14:24:27Z</time>
      </trkpt>
      <trkpt lat="49.89882" lon="2.50423">
        <ele>34.1</ele>
        <time>2023-09-27T14:24:28Z</time>
      </trkpt>
      <trkpt lat="49.8988" lon="2.50423">
        <ele>34.1</ele>
        <time>2023-09-27T14:24:29Z</time>
      </trkpt>
      <trkpt lat="49.89879" lon="2.50423">
        <ele>34.1</ele>
        <time>2023-09-27T14:24:30Z</time>
      </trkpt>
      <trkpt lat="49.89877" lon="2.50423">
        <ele>34.1</ele>
        <time>2023-09-27T14:24:31Z</time>
      </trkpt>
      <trkpt lat="49.89876" lon="2.50423">
        <ele>34.1</ele>
        <time>2023-09-27T14:24:32Z</time>
      </trkpt>
      <trkpt lat="49.89876" lon="2.50424">
        <ele>34.1</ele>
        <time>2023-09-27T14:24:33Z</time>
      </trkpt>
      <trkpt lat="49.89874" lon="2.50424">
        <ele>34.1</ele>
        <time>2023-09-27T14:24:34Z</time>
      </trkpt>
      <trkpt lat="49.89873" lon="2.50424">
        <ele>34</ele>
        <time>2023-09-27T14:24:35Z</time>
      </trkpt>
      <trkpt lat="49.89872" lon="2.50424">
        <ele>34</ele>
        <time>2023-09-27T14:24:36Z</time>
      </trkpt>
      <trkpt lat="49.89871" lon="2.50425">
        <ele>34</ele>
        <time>2023-09-27T14:24:37Z</time>
      </trkpt>
      <trkpt lat="49.8987" lon="2.50425">
        <ele>34</ele>
        <time>2023-09-27T14:24:38Z</time>
      </trkpt>
      <trkpt lat="49.89869" lon="2.50424">
        <ele>34</ele>
        <time>2023-09-27T14:24:39Z</time>
      </trkpt>
      <trkpt lat="49.89867" lon="2.50424">
        <ele>34</ele>
        <time>2023-09-27T14:24:40Z</time>
      </trkpt>
      <trkpt lat="49.89866" lon="2.50425">
        <ele>34</ele>
        <time>2023-09-27T14:24:41Z</time>
      </trkpt>
      <trkpt lat="49.89865" lon="2.50425">
        <ele>34</ele>
        <time>2023-09-27T14:24:42Z</time>
      </trkpt>
      <trkpt lat="49.89864" lon="2.50425">
        <ele>34</ele>
        <time>2023-09-27T14:24:43Z</time>
      </trkpt>
      <trkpt lat="49.89863" lon="2.50425">
        <ele>34</ele>
        <time>2023-09-27T14:24:44Z</time>
      </trkpt>
      <trkpt lat="49.89863" lon="2.50426">
        <ele>34</ele>
        <time>2023-09-27T14:24:45Z</time>
      </trkpt>
      <trkpt lat="49.89861" lon="2.50426">
        <ele>34</ele>
        <time>2023-09-27T14:24:46Z</time>
      </trkpt>
      <trkpt lat="49.8986" lon="2.50426">
        <ele>34</ele>
        <time>2023-09-27T14:24:47Z</time>
      </trkpt>
      <trkpt lat="49.8986" lon="2.50427">
        <ele>34</ele>
        <time>2023-09-27T14:24:48Z</time>
      </trkpt>
      <trkpt lat="49.89859" lon="2.50427">
        <ele>34</ele>
        <time>2023-09-27T14:24:49Z</time>
      </trkpt>
      <trkpt lat="49.89858" lon="2.50427">
        <ele>34</ele>
        <time>2023-09-27T14:24:50Z</time>
      </trkpt>
      <trkpt lat="49.89857" lon="2.50428">
        <ele>33.9</ele>
        <time>2023-09-27T14:24:51Z</time>
      </trkpt>
      <trkpt lat="49.89856" lon="2.50428">
        <ele>33.9</ele>
        <time>2023-09-27T14:24:52Z</time>
      </trkpt>
      <trkpt lat="49.89856" lon="2.50428">
        <ele>33.9</ele>
        <time>2023-09-27T14:24:53Z</time>
      </trkpt>
      <trkpt lat="49.89855" lon="2.50428">
        <ele>33.9</ele>
        <time>2023-09-27T14:24:54Z</time>
      </trkpt>
      <trkpt lat="49.89854" lon="2.50429">
        <ele>33.9</ele>
        <time>2023-09-27T14:24:55Z</time>
      </trkpt>
      <trkpt lat="49.89853" lon="2.50429">
        <ele>33.9</ele>
        <time>2023-09-27T14:24:56Z</time>
      </trkpt>
      <trkpt lat="49.89853" lon="2.50429">
        <ele>33.9</ele>
        <time>2023-09-27T14:24:57Z</time>
      </trkpt>
      <trkpt lat="49.89852" lon="2.50429">
        <ele>33.9</ele>
        <time>2023-09-27T14:24:58Z</time>
      </trkpt>
      <trkpt lat="49.89851" lon="2.50429">
        <ele>33.9</ele>
        <time>2023-09-27T14:24:59Z</time>
      </trkpt>
      <trkpt lat="49.8985" lon="2.5043">
        <ele>33.9</ele>
        <time>2023-09-27T14:25:00Z</time>
      </trkpt>
      <trkpt lat="49.89849" lon="2.5043">
        <ele>33.9</ele>
        <time>2023-09-27T14:25:01Z</time>
      </trkpt>
      <trkpt lat="49.89848" lon="2.5043">
        <ele>33.9</ele>
        <time>2023-09-27T14:25:02Z</time>
      </trkpt>
      <trkpt lat="49.89847" lon="2.5043">
        <ele>33.9</ele>
        <time>2023-09-27T14:25:03Z</time>
      </trkpt>
      <trkpt lat="49.89846" lon="2.50431">
        <ele>33.9</ele>
        <time>2023-09-27T14:25:04Z</time>
      </trkpt>
      <trkpt lat="49.89845" lon="2.50431">
        <ele>33.9</ele>
        <time>2023-09-27T14:25:05Z</time>
      </trkpt>
      <trkpt lat="49.89844" lon="2.50431">
        <ele>33.9</ele>
        <time>2023-09-27T14:25:06Z</time>
      </trkpt>
      <trkpt lat="49.89843" lon="2.50431">
        <ele>33.9</ele>
        <time>2023-09-27T14:25:07Z</time>
      </trkpt>
      <trkpt lat="49.89841" lon="2.50432">
        <ele>33.9</ele>
        <time>2023-09-27T14:25:08Z</time>
      </trkpt>
      <trkpt lat="49.89839" lon="2.50432">
        <ele>33.9</ele>
        <time>2023-09-27T14:25:09Z</time>
      </trkpt>
      <trkpt lat="49.89838" lon="2.50432">
        <ele>33.9</ele>
        <time>2023-09-27T14:25:10Z</time>
      </trkpt>
      <trkpt lat="49.89837" lon="2.50433">
        <ele>33.9</ele>
        <time>2023-09-27T14:25:11Z</time>
      </trkpt>
      <trkpt lat="49.89836" lon="2.50433">
        <ele>33.9</ele>
        <time>2023-09-27T14:25:12Z</time>
      </trkpt>
      <trkpt lat="49.89835" lon="2.50433">
        <ele>33.8</ele>
        <time>2023-09-27T14:25:13Z</time>
      </trkpt>
      <trkpt lat="49.89833" lon="2.50434">
        <ele>33.8</ele>
        <time>2023-09-27T14:25:14Z</time>
      </trkpt>
      <trkpt lat="49.89832" lon="2.50434">
        <ele>33.8</ele>
        <time>2023-09-27T14:25:15Z</time>
      </trkpt>
      <trkpt lat="49.89831" lon="2.50435">
        <ele>33.8</ele>
        <time>2023-09-27T14:25:16Z</time>
      </trkpt>
      <trkpt lat="49.8983" lon="2.50435">
        <ele>33.8</ele>
        <time>2023-09-27T14:25:17Z</time>
      </trkpt>
      <trkpt lat="49.89829" lon="2.50435">
        <ele>33.8</ele>
        <time>2023-09-27T14:25:18Z</time>
      </trkpt>
      <trkpt lat="49.89828" lon="2.50435">
        <ele>33.8</ele>
        <time>2023-09-27T14:25:19Z</time>
      </trkpt>
      <trkpt lat="49.89827" lon="2.50435">
        <ele>33.8</ele>
        <time>2023-09-27T14:25:20Z</time>
      </trkpt>
      <trkpt lat="49.89826" lon="2.50436">
        <ele>33.8</ele>
        <time>2023-09-27T14:25:21Z</time>
      </trkpt>
      <trkpt lat="49.89825" lon="2.50436">
        <ele>33.8</ele>
        <time>2023-09-27T14:25:22Z</time>
      </trkpt>
      <trkpt lat="49.89824" lon="2.50436">
        <ele>33.8</ele>
        <time>2023-09-27T14:25:23Z</time>
      </trkpt>
      <trkpt lat="49.89823" lon="2.50437">
        <ele>33.8</ele>
        <time>2023-09-27T14:25:24Z</time>
      </trkpt>
      <trkpt lat="49.89822" lon="2.50437">
        <ele>33.8</ele>
        <time>2023-09-27T14:25:25Z</time>
      </trkpt>
      <trkpt lat="49.89821" lon="2.50438">
        <ele>33.8</ele>
        <time>2023-09-27T14:25:26Z</time>
      </trkpt>
      <trkpt lat="49.8982" lon="2.50438">
        <ele>33.8</ele>
        <time>2023-09-27T14:25:27Z</time>
      </trkpt>
      <trkpt lat="49.89819" lon="2.50438">
        <ele>33.8</ele>
        <time>2023-09-27T14:25:28Z</time>
      </trkpt>
      <trkpt lat="49.89818" lon="2.50439">
        <ele>33.8</ele>
        <time>2023-09-27T14:25:29Z</time>
      </trkpt>
      <trkpt lat="49.89817" lon="2.50439">
        <ele>33.8</ele>
        <time>2023-09-27T14:25:30Z</time>
      </trkpt>
      <trkpt lat="49.89816" lon="2.5044">
        <ele>33.8</ele>
        <time>2023-09-27T14:25:31Z</time>
      </trkpt>
      <trkpt lat="49.89815" lon="2.5044">
        <ele>33.8</ele>
        <time>2023-09-27T14:25:32Z</time>
      </trkpt>
      <trkpt lat="49.89814" lon="2.5044">
        <ele>33.8</ele>
        <time>2023-09-27T14:25:33Z</time>
      </trkpt>
      <trkpt lat="49.89813" lon="2.50441">
        <ele>33.8</ele>
        <time>2023-09-27T14:25:34Z</time>
      </trkpt>
      <trkpt lat="49.89812" lon="2.50441">
        <ele>33.8</ele>
        <time>2023-09-27T14:25:35Z</time>
      </trkpt>
      <trkpt lat="49.89811" lon="2.50442">
        <ele>33.8</ele>
        <time>2023-09-27T14:25:36Z</time>
      </trkpt>
      <trkpt lat="49.8981" lon="2.50442">
        <ele>33.8</ele>
        <time>2023-09-27T14:25:37Z</time>
      </trkpt>
      <trkpt lat="49.89809" lon="2.50443">
        <ele>33.8</ele>
        <time>2023-09-27T14:25:38Z</time>
      </trkpt>
      <trkpt lat="49.89808" lon="2.50443">
        <ele>33.8</ele>
        <time>2023-09-27T14:25:39Z</time>
      </trkpt>
      <trkpt lat="49.89807" lon="2.50443">
        <ele>33.8</ele>
        <time>2023-09-27T14:25:40Z</time>
      </trkpt>
      <trkpt lat="49.89806" lon="2.50444">
        <ele>33.8</ele>
        <time>2023-09-27T14:25:41Z</time>
      </trkpt>
      <trkpt lat="49.89806" lon="2.50444">
        <ele>33.8</ele>
        <time>2023-09-27T14:25:42Z</time>
      </trkpt>
      <trkpt lat="49.89805" lon="2.50445">
        <ele>33.8</ele>
        <time>2023-09-27T14:25:43Z</time>
      </trkpt>
      <trkpt lat="49.89804" lon="2.50445">
        <ele>33.8</ele>
        <time>2023-09-27T14:25:44Z</time>
      </trkpt>
      <trkpt lat="49.89803" lon="2.50446">
        <ele>33.8</ele>
        <time>2023-09-27T14:25:45Z</time>
      </trkpt>
      <trkpt lat="49.89802" lon="2.50446">
        <ele>33.8</ele>
        <time>2023-09-27T14:25:46Z</time>
      </trkpt>
      <trkpt lat="49.89802" lon="2.50447">
        <ele>33.8</ele>
        <time>2023-09-27T14:25:47Z</time>
      </trkpt>
      <trkpt lat="49.89801" lon="2.50448">
        <ele>33.8</ele>
        <time>2023-09-27T14:25:48Z</time>
      </trkpt>
      <trkpt lat="49.898" lon="2.50449">
        <ele>33.9</ele>
        <time>2023-09-27T14:25:49Z</time>
      </trkpt>
      <trkpt lat="49.89799" lon="2.5045">
        <ele>33.9</ele>
        <time>2023-09-27T14:25:50Z</time>
      </trkpt>
      <trkpt lat="49.89798" lon="2.5045">
        <ele>33.9</ele>
        <time>2023-09-27T14:25:51Z</time>
      </trkpt>
      <trkpt lat="49.89798" lon="2.50451">
        <ele>33.9</ele>
        <time>2023-09-27T14:25:52Z</time>
      </trkpt>
      <trkpt lat="49.89797" lon="2.50452">
        <ele>33.9</ele>
        <time>2023-09-27T14:25:53Z</time>
      </trkpt>
      <trkpt lat="49.89796" lon="2.50453">
        <ele>33.9</ele>
        <time>2023-09-27T14:25:54Z</time>
      </trkpt>
      <trkpt lat="49.89795" lon="2.50454">
        <ele>33.9</ele>
        <time>2023-09-27T14:25:55Z</time>
      </trkpt>
      <trkpt lat="49.89794" lon="2.50455">
        <ele>33.9</ele>
        <time>2023-09-27T14:25:56Z</time>
      </trkpt>
      <trkpt lat="49.89793" lon="2.50456">
        <ele>33.9</ele>
        <time>2023-09-27T14:25:57Z</time>
      </trkpt>
      <trkpt lat="49.89792" lon="2.50457">
        <ele>33.9</ele>
        <time>2023-09-27T14:25:58Z</time>
      </trkpt>
      <trkpt lat="49.89791" lon="2.50457">
        <ele>33.9</ele>
        <time>2023-09-27T14:25:59Z</time>
      </trkpt>
      <trkpt lat="49.89791" lon="2.50458">
        <ele>33.9</ele>
        <time>2023-09-27T14:26:00Z</time>
      </trkpt>
      <trkpt lat="49.8979" lon="2.50459">
        <ele>33.9</ele>
        <time>2023-09-27T14:26:01Z</time>
      </trkpt>
      <trkpt lat="49.89789" lon="2.50461">
        <ele>33.9</ele>
        <time>2023-09-27T14:26:02Z</time>
      </trkpt>
      <trkpt lat="49.89788" lon="2.50462">
        <ele>33.9</ele>
        <time>2023-09-27T14:26:03Z</time>
      </trkpt>
      <trkpt lat="49.89787" lon="2.50463">
        <ele>33.9</ele>
        <time>2023-09-27T14:26:04Z</time>
      </trkpt>
      <trkpt lat="49.89786" lon="2.50464">
        <ele>33.9</ele>
        <time>2023-09-27T14:26:05Z</time>
      </trkpt>
      <trkpt lat="49.89785" lon="2.50464">
        <ele>34</ele>
        <time>2023-09-27T14:26:06Z</time>
      </trkpt>
      <trkpt lat="49.89784" lon="2.50465">
        <ele>34</ele>
        <time>2023-09-27T14:26:07Z</time>
      </trkpt>
      <trkpt lat="49.89783" lon="2.50466">
        <ele>34</ele>
        <time>2023-09-27T14:26:08Z</time>
      </trkpt>
      <trkpt lat="49.89782" lon="2.50467">
        <ele>34</ele>
        <time>2023-09-27T14:26:09Z</time>
      </trkpt>
      <trkpt lat="49.89781" lon="2.50467">
        <ele>34</ele>
        <time>2023-09-27T14:26:10Z</time>
      </trkpt>
      <trkpt lat="49.8978" lon="2.50468">
        <ele>34</ele>
        <time>2023-09-27T14:26:11Z</time>
      </trkpt>
      <trkpt lat="49.89779" lon="2.50469">
        <ele>34</ele>
        <time>2023-09-27T14:26:12Z</time>
      </trkpt>
      <trkpt lat="49.89778" lon="2.50469">
        <ele>34</ele>
        <time>2023-09-27T14:26:13Z</time>
      </trkpt>
      <trkpt lat="49.89778" lon="2.5047">
        <ele>34</ele>
        <time>2023-09-27T14:26:14Z</time>
      </trkpt>
      <trkpt lat="49.89777" lon="2.5047">
        <ele>34</ele>
        <time>2023-09-27T14:26:15Z</time>
      </trkpt>
      <trkpt lat="49.89776" lon="2.50471">
        <ele>34</ele>
        <time>2023-09-27T14:26:16Z</time>
      </trkpt>
      <trkpt lat="49.89775" lon="2.50472">
        <ele>34</ele>
        <time>2023-09-27T14:26:17Z</time>
      </trkpt>
      <trkpt lat="49.89774" lon="2.50473">
        <ele>34</ele>
        <time>2023-09-27T14:26:18Z</time>
      </trkpt>
      <trkpt lat="49.89773" lon="2.50473">
        <ele>34</ele>
        <time>2023-09-27T14:26:19Z</time>
      </trkpt>
      <trkpt lat="49.89772" lon="2.50474">
        <ele>34</ele>
        <time>2023-09-27T14:26:20Z</time>
      </trkpt>
      <trkpt lat="49.89771" lon="2.50475">
        <ele>34</ele>
        <time>2023-09-27T14:26:21Z</time>
      </trkpt>
      <trkpt lat="49.8977" lon="2.50475">
        <ele>34</ele>
        <time>2023-09-27T14:26:22Z</time>
      </trkpt>
      <trkpt lat="49.89769" lon="2.50476">
        <ele>34.1</ele>
        <time>2023-09-27T14:26:23Z</time>
      </trkpt>
      <trkpt lat="49.89768" lon="2.50477">
        <ele>34.1</ele>
        <time>2023-09-27T14:26:24Z</time>
      </trkpt>
      <trkpt lat="49.89767" lon="2.50478">
        <ele>34.1</ele>
        <time>2023-09-27T14:26:25Z</time>
      </trkpt>
      <trkpt lat="49.89766" lon="2.50479">
        <ele>34.1</ele>
        <time>2023-09-27T14:26:26Z</time>
      </trkpt>
      <trkpt lat="49.89766" lon="2.50479">
        <ele>34.1</ele>
        <time>2023-09-27T14:26:27Z</time>
      </trkpt>
      <trkpt lat="49.89765" lon="2.5048">
        <ele>34.1</ele>
        <time>2023-09-27T14:26:28Z</time>
      </trkpt>
      <trkpt lat="49.89764" lon="2.50481">
        <ele>34.1</ele>
        <time>2023-09-27T14:26:29Z</time>
      </trkpt>
      <trkpt lat="49.89763" lon="2.50482">
        <ele>34.1</ele>
        <time>2023-09-27T14:26:30Z</time>
      </trkpt>
      <trkpt lat="49.89762" lon="2.50483">
        <ele>34.1</ele>
        <time>2023-09-27T14:26:31Z</time>
      </trkpt>
      <trkpt lat="49.89762" lon="2.50483">
        <ele>34.1</ele>
        <time>2023-09-27T14:26:32Z</time>
      </trkpt>
      <trkpt lat="49.89761" lon="2.50485">
        <ele>34.1</ele>
        <time>2023-09-27T14:26:33Z</time>
      </trkpt>
      <trkpt lat="49.89761" lon="2.50486">
        <ele>34.1</ele>
        <time>2023-09-27T14:26:34Z</time>
      </trkpt>
      <trkpt lat="49.89761" lon="2.50487">
        <ele>34.1</ele>
        <time>2023-09-27T14:26:35Z</time>
      </trkpt>
      <trkpt lat="49.8976" lon="2.50488">
        <ele>34.1</ele>
        <time>2023-09-27T14:26:36Z</time>
      </trkpt>
      <trkpt lat="49.8976" lon="2.50489">
        <ele>34.1</ele>
        <time>2023-09-27T14:26:37Z</time>
      </trkpt>
      <trkpt lat="49.89759" lon="2.50491">
        <ele>34.1</ele>
        <time>2023-09-27T14:26:38Z</time>
      </trkpt>
      <trkpt lat="49.89758" lon="2.50492">
        <ele>34.2</ele>
        <time>2023-09-27T14:26:39Z</time>
      </trkpt>
      <trkpt lat="49.89758" lon="2.50493">
        <ele>34.2</ele>
        <time>2023-09-27T14:26:40Z</time>
      </trkpt>
      <trkpt lat="49.89757" lon="2.50494">
        <ele>34.2</ele>
        <time>2023-09-27T14:26:41Z</time>
      </trkpt>
      <trkpt lat="49.89756" lon="2.50495">
        <ele>34.2</ele>
        <time>2023-09-27T14:26:42Z</time>
      </trkpt>
      <trkpt lat="49.89756" lon="2.50496">
        <ele>34.2</ele>
        <time>2023-09-27T14:26:43Z</time>
      </trkpt>
      <trkpt lat="49.89755" lon="2.50497">
        <ele>34.2</ele>
        <time>2023-09-27T14:26:44Z</time>
      </trkpt>
      <trkpt lat="49.89754" lon="2.50498">
        <ele>34.2</ele>
        <time>2023-09-27T14:26:45Z</time>
      </trkpt>
      <trkpt lat="49.89753" lon="2.505">
        <ele>34.2</ele>
        <time>2023-09-27T14:26:46Z</time>
      </trkpt>
      <trkpt lat="49.89752" lon="2.50501">
        <ele>34.2</ele>
        <time>2023-09-27T14:26:47Z</time>
      </trkpt>
      <trkpt lat="49.89751" lon="2.50502">
        <ele>34.2</ele>
        <time>2023-09-27T14:26:48Z</time>
      </trkpt>
      <trkpt lat="49.8975" lon="2.50503">
        <ele>34.3</ele>
        <time>2023-09-27T14:26:49Z</time>
      </trkpt>
      <trkpt lat="49.89749" lon="2.50504">
        <ele>34.3</ele>
        <time>2023-09-27T14:26:50Z</time>
      </trkpt>
      <trkpt lat="49.89748" lon="2.50505">
        <ele>34.3</ele>
        <time>2023-09-27T14:26:51Z</time>
      </trkpt>
      <trkpt lat="49.89747" lon="2.50505">
        <ele>34.3</ele>
        <time>2023-09-27T14:26:52Z</time>
      </trkpt>
      <trkpt lat="49.89747" lon="2.50506">
        <ele>34.3</ele>
        <time>2023-09-27T14:26:53Z</time>
      </trkpt>
      <trkpt lat="49.89746" lon="2.50507">
        <ele>34.3</ele>
        <time>2023-09-27T14:26:54Z</time>
      </trkpt>
      <trkpt lat="49.89745" lon="2.50509">
        <ele>34.3</ele>
        <time>2023-09-27T14:26:55Z</time>
      </trkpt>
      <trkpt lat="49.89745" lon="2.5051">
        <ele>34.4</ele>
        <time>2023-09-27T14:26:56Z</time>
      </trkpt>
      <trkpt lat="49.89744" lon="2.50512">
        <ele>34.4</ele>
        <time>2023-09-27T14:26:57Z</time>
      </trkpt>
      <trkpt lat="49.89744" lon="2.50513">
        <ele>34.4</ele>
        <time>2023-09-27T14:26:58Z</time>
      </trkpt>
      <trkpt lat="49.89744" lon="2.50515">
        <ele>34.4</ele>
        <time>2023-09-27T14:26:59Z</time>
      </trkpt>
      <trkpt lat="49.89745" lon="2.50516">
        <ele>34.4</ele>
        <time>2023-09-27T14:27:00Z</time>
      </trkpt>
      <trkpt lat="49.89745" lon="2.50518">
        <ele>34.4</ele>
        <time>2023-09-27T14:27:01Z</time>
      </trkpt>
      <trkpt lat="49.89745" lon="2.50519">
        <ele>34.4</ele>
        <time>2023-09-27T14:27:02Z</time>
      </trkpt>
      <trkpt lat="49.89746" lon="2.50519">
        <ele>34.4</ele>
        <time>2023-09-27T14:27:03Z</time>
      </trkpt>
      <trkpt lat="49.89746" lon="2.5052">
        <ele>34.4</ele>
        <time>2023-09-27T14:27:04Z</time>
      </trkpt>
      <trkpt lat="49.89746" lon="2.50521">
        <ele>34.4</ele>
        <time>2023-09-27T14:27:05Z</time>
      </trkpt>
      <trkpt lat="49.89746" lon="2.50523">
        <ele>34.4</ele>
        <time>2023-09-27T14:27:06Z</time>
      </trkpt>
      <trkpt lat="49.89746" lon="2.50524">
        <ele>34.4</ele>
        <time>2023-09-27T14:27:07Z</time>
      </trkpt>
      <trkpt lat="49.89746" lon="2.50525">
        <ele>34.4</ele>
        <time>2023-09-27T14:27:08Z</time>
      </trkpt>
      <trkpt lat="49.89747" lon="2.50527">
        <ele>34.4</ele>
        <time>2023-09-27T14:27:09Z</time>
      </trkpt>
      <trkpt lat="49.89747" lon="2.50528">
        <ele>34.4</ele>
        <time>2023-09-27T14:27:10Z</time>
      </trkpt>
      <trkpt lat="49.89747" lon="2.5053">
        <ele>34.4</ele>
        <time>2023-09-27T14:27:11Z</time>
      </trkpt>
      <trkpt lat="49.89747" lon="2.50531">
        <ele>34.4</ele>
        <time>2023-09-27T14:27:12Z</time>
      </trkpt>
      <trkpt lat="49.89747" lon="2.50533">
        <ele>34.4</ele>
        <time>2023-09-27T14:27:13Z</time>
      </trkpt>
      <trkpt lat="49.89748" lon="2.50534">
        <ele>34.4</ele>
        <time>2023-09-27T14:27:14Z</time>
      </trkpt>
      <trkpt lat="49.89748" lon="2.50536">
        <ele>34.4</ele>
        <time>2023-09-27T14:27:15Z</time>
      </trkpt>
      <trkpt lat="49.89748" lon="2.50538">
        <ele>34.4</ele>
        <time>2023-09-27T14:27:16Z</time>
      </trkpt>
      <trkpt lat="49.89748" lon="2.5054">
        <ele>34.4</ele>
        <time>2023-09-27T14:27:17Z</time>
      </trkpt>
      <trkpt lat="49.89748" lon="2.50541">
        <ele>34.4</ele>
        <time>2023-09-27T14:27:18Z</time>
      </trkpt>
      <trkpt lat="49.89748" lon="2.50543">
        <ele>34.4</ele>
        <time>2023-09-27T14:27:19Z</time>
      </trkpt>
      <trkpt lat="49.89749" lon="2.50544">
        <ele>34.3</ele>
        <time>2023-09-27T14:27:20Z</time>
      </trkpt>
      <trkpt lat="49.89749" lon="2.50546">
        <ele>34.3</ele>
        <time>2023-09-27T14:27:21Z</time>
      </trkpt>
      <trkpt lat="49.89749" lon="2.50547">
        <ele>34.3</ele>
        <time>2023-09-27T14:27:22Z</time>
      </trkpt>
      <trkpt lat="49.89749" lon="2.50549">
        <ele>34.3</ele>
        <time>2023-09-27T14:27:23Z</time>
      </trkpt>
      <trkpt lat="49.8975" lon="2.50551">
        <ele>34.3</ele>
        <time>2023-09-27T14:27:24Z</time>
      </trkpt>
      <trkpt lat="49.8975" lon="2.50552">
        <ele>34.3</ele>
        <time>2023-09-27T14:27:25Z</time>
      </trkpt>
      <trkpt lat="49.8975" lon="2.50554">
        <ele>34.3</ele>
        <time>2023-09-27T14:27:26Z</time>
      </trkpt>
      <trkpt lat="49.8975" lon="2.50556">
        <ele>34.3</ele>
        <time>2023-09-27T14:27:27Z</time>
      </trkpt>
      <trkpt lat="49.89751" lon="2.50558">
        <ele>34.3</ele>
        <time>2023-09-27T14:27:28Z</time>
      </trkpt>
      <trkpt lat="49.89751" lon="2.5056">
        <ele>34.3</ele>
        <time>2023-09-27T14:27:29Z</time>
      </trkpt>
      <trkpt lat="49.89751" lon="2.50561">
        <ele>34.3</ele>
        <time>2023-09-27T14:27:30Z</time>
      </trkpt>
      <trkpt lat="49.89751" lon="2.50563">
        <ele>34.3</ele>
        <time>2023-09-27T14:27:31Z</time>
      </trkpt>
      <trkpt lat="49.89751" lon="2.50565">
        <ele>34.3</ele>
        <time>2023-09-27T14:27:32Z</time>
      </trkpt>
      <trkpt lat="49.89751" lon="2.50567">
        <ele>34.3</ele>
        <time>2023-09-27T14:27:33Z</time>
      </trkpt>
      <trkpt lat="49.89752" lon="2.50568">
        <ele>34.3</ele>
        <time>2023-09-27T14:27:34Z</time>
      </trkpt>
      <trkpt lat="49.89752" lon="2.5057">
        <ele>34.3</ele>
        <time>2023-09-27T14:27:35Z</time>
      </trkpt>
      <trkpt lat="49.89752" lon="2.50571">
        <ele>34.3</ele>
        <time>2023-09-27T14:27:36Z</time>
      </trkpt>
      <trkpt lat="49.89752" lon="2.50573">
        <ele>34.3</ele>
        <time>2023-09-27T14:27:37Z</time>
      </trkpt>
      <trkpt lat="49.89752" lon="2.50575">
        <ele>34.3</ele>
        <time>2023-09-27T14:27:38Z</time>
      </trkpt>
      <trkpt lat="49.89752" lon="2.50576">
        <ele>34.3</ele>
        <time>2023-09-27T14:27:39Z</time>
      </trkpt>
      <trkpt lat="49.89752" lon="2.50577">
        <ele>34.3</ele>
        <time>2023-09-27T14:27:40Z</time>
      </trkpt>
      <trkpt lat="49.89752" lon="2.50578">
        <ele>34.3</ele>
        <time>2023-09-27T14:27:41Z</time>
      </trkpt>
      <trkpt lat="49.89752" lon="2.50579">
        <ele>34.3</ele>
        <time>2023-09-27T14:27:42Z</time>
      </trkpt>
      <trkpt lat="49.89752" lon="2.5058">
        <ele>34.3</ele>
        <time>2023-09-27T14:27:43Z</time>
      </trkpt>
      <trkpt lat="49.89752" lon="2.50581">
        <ele>34.3</ele>
        <time>2023-09-27T14:27:44Z</time>
      </trkpt>
      <trkpt lat="49.89751" lon="2.50581">
        <ele>34.3</ele>
        <time>2023-09-27T14:27:45Z</time>
      </trkpt>
      <trkpt lat="49.89751" lon="2.50581">
        <ele>34.3</ele>
        <time>2023-09-27T14:27:46Z</time>
      </trkpt>
      <trkpt lat="49.89751" lon="2.50581">
        <ele>34.3</ele>
        <time>2023-09-27T14:27:47Z</time>
      </trkpt>
      <trkpt lat="49.89751" lon="2.50581">
        <ele>34.3</ele>
        <time>2023-09-27T14:27:48Z</time>
      </trkpt>
      <trkpt lat="49.89751" lon="2.50581">
        <ele>34.3</ele>
        <time>2023-09-27T14:27:49Z</time>
      </trkpt>
      <trkpt lat="49.89751" lon="2.50581">
        <ele>34.3</ele>
        <time>2023-09-27T14:27:50Z</time>
      </trkpt>
      <trkpt lat="49.89751" lon="2.5058">
        <ele>34.3</ele>
        <time>2023-09-27T14:27:51Z</time>
      </trkpt>
      <trkpt lat="49.89751" lon="2.5058">
        <ele>34.3</ele>
        <time>2023-09-27T14:27:52Z</time>
      </trkpt>
      <trkpt lat="49.89751" lon="2.5058">
        <ele>34.3</ele>
        <time>2023-09-27T14:27:53Z</time>
      </trkpt>
      <trkpt lat="49.89751" lon="2.5058">
        <ele>34.3</ele>
        <time>2023-09-27T14:27:54Z</time>
      </trkpt>
      <trkpt lat="49.89751" lon="2.5058">
        <ele>34.3</ele>
        <time>2023-09-27T14:27:55Z</time>
      </trkpt>
      <trkpt lat="49.89751" lon="2.5058">
        <ele>34.3</ele>
        <time>2023-09-27T14:27:56Z</time>
      </trkpt>
      <trkpt lat="49.89751" lon="2.5058">
        <ele>34.3</ele>
        <time>2023-09-27T14:27:57Z</time>
      </trkpt>
      <trkpt lat="49.89751" lon="2.5058">
        <ele>34.3</ele>
        <time>2023-09-27T14:27:58Z</time>
      </trkpt>
      <trkpt lat="49.89751" lon="2.5058">
        <ele>34.3</ele>
        <time>2023-09-27T14:27:59Z</time>
      </trkpt>
      <trkpt lat="49.89751" lon="2.5058">
        <ele>34.3</ele>
        <time>2023-09-27T14:28:00Z</time>
      </trkpt>
      <trkpt lat="49.89751" lon="2.5058">
        <ele>34.3</ele>
        <time>2023-09-27T14:28:01Z</time>
      </trkpt>
      <trkpt lat="49.89751" lon="2.5058">
        <ele>34.3</ele>
        <time>2023-09-27T14:28:02Z</time>
      </trkpt>
      <trkpt lat="49.89751" lon="2.5058">
        <ele>34.3</ele>
        <time>2023-09-27T14:28:03Z</time>
      </trkpt>
      <trkpt lat="49.89751" lon="2.5058">
        <ele>34.3</ele>
        <time>2023-09-27T14:28:04Z</time>
      </trkpt>
      <trkpt lat="49.89751" lon="2.5058">
        <ele>34.3</ele>
        <time>2023-09-27T14:28:05Z</time>
      </trkpt>
      <trkpt lat="49.8975" lon="2.50579">
        <ele>34.3</ele>
        <time>2023-09-27T14:28:06Z</time>
      </trkpt>
      <trkpt lat="49.8975" lon="2.50579">
        <ele>34.3</ele>
        <time>2023-09-27T14:28:07Z</time>
      </trkpt>
      <trkpt lat="49.8975" lon="2.50579">
        <ele>34.3</ele>
        <time>2023-09-27T14:28:08Z</time>
      </trkpt>
      <trkpt lat="49.89749" lon="2.5058">
        <ele>34.3</ele>
        <time>2023-09-27T14:28:09Z</time>
      </trkpt>
      <trkpt lat="49.89749" lon="2.50581">
        <ele>34.3</ele>
        <time>2023-09-27T14:28:10Z</time>
      </trkpt>
      <trkpt lat="49.89748" lon="2.50583">
        <ele>34.3</ele>
        <time>2023-09-27T14:28:11Z</time>
      </trkpt>
      <trkpt lat="49.89748" lon="2.50585">
        <ele>34.3</ele>
        <time>2023-09-27T14:28:12Z</time>
      </trkpt>
      <trkpt lat="49.89747" lon="2.50588">
        <ele>34.3</ele>
        <time>2023-09-27T14:28:13Z</time>
      </trkpt>
      <trkpt lat="49.89747" lon="2.50589">
        <ele>34.3</ele>
        <time>2023-09-27T14:28:14Z</time>
      </trkpt>
      <trkpt lat="49.89747" lon="2.50591">
        <ele>34.3</ele>
        <time>2023-09-27T14:28:15Z</time>
      </trkpt>
      <trkpt lat="49.89747" lon="2.50592">
        <ele>34.3</ele>
        <time>2023-09-27T14:28:16Z</time>
      </trkpt>
      <trkpt lat="49.89746" lon="2.50594">
        <ele>34.2</ele>
        <time>2023-09-27T14:28:17Z</time>
      </trkpt>
      <trkpt lat="49.89746" lon="2.50595">
        <ele>34.2</ele>
        <time>2023-09-27T14:28:18Z</time>
      </trkpt>
      <trkpt lat="49.89745" lon="2.50596">
        <ele>34.2</ele>
        <time>2023-09-27T14:28:19Z</time>
      </trkpt>
      <trkpt lat="49.89745" lon="2.50598">
        <ele>34.1</ele>
        <time>2023-09-27T14:28:20Z</time>
      </trkpt>
      <trkpt lat="49.89745" lon="2.50599">
        <ele>34.1</ele>
        <time>2023-09-27T14:28:21Z</time>
      </trkpt>
      <trkpt lat="49.89744" lon="2.506">
        <ele>34.1</ele>
        <time>2023-09-27T14:28:22Z</time>
      </trkpt>
      <trkpt lat="49.89744" lon="2.50601">
        <ele>34.1</ele>
        <time>2023-09-27T14:28:23Z</time>
      </trkpt>
      <trkpt lat="49.89743" lon="2.50603">
        <ele>34</ele>
        <time>2023-09-27T14:28:24Z</time>
      </trkpt>
      <trkpt lat="49.89743" lon="2.50604">
        <ele>34</ele>
        <time>2023-09-27T14:28:25Z</time>
      </trkpt>
      <trkpt lat="49.89741" lon="2.50606">
        <ele>34</ele>
        <time>2023-09-27T14:28:26Z</time>
      </trkpt>
      <trkpt lat="49.89741" lon="2.50606">
        <ele>34</ele>
        <time>2023-09-27T14:28:27Z</time>
      </trkpt>
      <trkpt lat="49.8974" lon="2.50607">
        <ele>33.9</ele>
        <time>2023-09-27T14:28:28Z</time>
      </trkpt>
      <trkpt lat="49.8974" lon="2.50607">
        <ele>33.9</ele>
        <time>2023-09-27T14:28:29Z</time>
      </trkpt>
      <trkpt lat="49.89738" lon="2.50608">
        <ele>33.9</ele>
        <time>2023-09-27T14:28:30Z</time>
      </trkpt>
      <trkpt lat="49.89737" lon="2.50608">
        <ele>33.9</ele>
        <time>2023-09-27T14:28:31Z</time>
      </trkpt>
      <trkpt lat="49.89736" lon="2.50609">
        <ele>33.9</ele>
        <time>2023-09-27T14:28:32Z</time>
      </trkpt>
      <trkpt lat="49.89735" lon="2.50609">
        <ele>33.8</ele>
        <time>2023-09-27T14:28:33Z</time>
      </trkpt>
      <trkpt lat="49.89733" lon="2.5061">
        <ele>33.8</ele>
        <time>2023-09-27T14:28:34Z</time>
      </trkpt>
      <trkpt lat="49.89732" lon="2.5061">
        <ele>33.8</ele>
        <time>2023-09-27T14:28:35Z</time>
      </trkpt>
      <trkpt lat="49.8973" lon="2.5061">
        <ele>33.7</ele>
        <time>2023-09-27T14:28:36Z</time>
      </trkpt>
      <trkpt lat="49.89728" lon="2.50611">
        <ele>33.7</ele>
        <time>2023-09-27T14:28:37Z</time>
      </trkpt>
      <trkpt lat="49.89727" lon="2.50611">
        <ele>33.7</ele>
        <time>2023-09-27T14:28:38Z</time>
      </trkpt>
      <trkpt lat="49.89727" lon="2.50611">
        <ele>33.7</ele>
        <time>2023-09-27T14:28:39Z</time>
      </trkpt>
      <trkpt lat="49.89724" lon="2.50612">
        <ele>33.7</ele>
        <time>2023-09-27T14:28:40Z</time>
      </trkpt>
      <trkpt lat="49.89724" lon="2.50612">
        <ele>33.7</ele>
        <time>2023-09-27T14:28:41Z</time>
      </trkpt>
      <trkpt lat="49.89723" lon="2.50612">
        <ele>33.7</ele>
        <time>2023-09-27T14:28:42Z</time>
      </trkpt>
      <trkpt lat="49.8972" lon="2.50612">
        <ele>33.6</ele>
        <time>2023-09-27T14:28:43Z</time>
      </trkpt>
      <trkpt lat="49.8972" lon="2.50612">
        <ele>33.6</ele>
        <time>2023-09-27T14:28:44Z</time>
      </trkpt>
      <trkpt lat="49.89719" lon="2.50613">
        <ele>33.6</ele>
        <time>2023-09-27T14:28:45Z</time>
      </trkpt>
      <trkpt lat="49.89718" lon="2.50613">
        <ele>33.6</ele>
        <time>2023-09-27T14:28:46Z</time>
      </trkpt>
      <trkpt lat="49.89716" lon="2.50613">
        <ele>33.6</ele>
        <time>2023-09-27T14:28:47Z</time>
      </trkpt>
      <trkpt lat="49.89715" lon="2.50613">
        <ele>33.6</ele>
        <time>2023-09-27T14:28:48Z</time>
      </trkpt>
      <trkpt lat="49.89714" lon="2.50614">
        <ele>33.6</ele>
        <time>2023-09-27T14:28:49Z</time>
      </trkpt>
      <trkpt lat="49.89713" lon="2.50614">
        <ele>33.6</ele>
        <time>2023-09-27T14:28:50Z</time>
      </trkpt>
      <trkpt lat="49.89712" lon="2.50614">
        <ele>33.5</ele>
        <time>2023-09-27T14:28:51Z</time>
      </trkpt>
      <trkpt lat="49.8971" lon="2.50615">
        <ele>33.5</ele>
        <time>2023-09-27T14:28:52Z</time>
      </trkpt>
      <trkpt lat="49.89709" lon="2.50615">
        <ele>33.5</ele>
        <time>2023-09-27T14:28:53Z</time>
      </trkpt>
      <trkpt lat="49.89708" lon="2.50615">
        <ele>33.5</ele>
        <time>2023-09-27T14:28:54Z</time>
      </trkpt>
      <trkpt lat="49.89706" lon="2.50616">
        <ele>33.5</ele>
        <time>2023-09-27T14:28:55Z</time>
      </trkpt>
      <trkpt lat="49.89705" lon="2.50616">
        <ele>33.5</ele>
        <time>2023-09-27T14:28:56Z</time>
      </trkpt>
      <trkpt lat="49.89705" lon="2.50616">
        <ele>33.5</ele>
        <time>2023-09-27T14:28:57Z</time>
      </trkpt>
      <trkpt lat="49.89703" lon="2.50617">
        <ele>33.5</ele>
        <time>2023-09-27T14:28:58Z</time>
      </trkpt>
      <trkpt lat="49.89702" lon="2.50617">
        <ele>33.4</ele>
        <time>2023-09-27T14:28:59Z</time>
      </trkpt>
      <trkpt lat="49.89701" lon="2.50618">
        <ele>33.4</ele>
        <time>2023-09-27T14:29:00Z</time>
      </trkpt>
      <trkpt lat="49.897" lon="2.50618">
        <ele>33.4</ele>
        <time>2023-09-27T14:29:01Z</time>
      </trkpt>
      <trkpt lat="49.89699" lon="2.50619">
        <ele>33.4</ele>
        <time>2023-09-27T14:29:02Z</time>
      </trkpt>
      <trkpt lat="49.89698" lon="2.5062">
        <ele>33.4</ele>
        <time>2023-09-27T14:29:03Z</time>
      </trkpt>
      <trkpt lat="49.89697" lon="2.50621">
        <ele>33.4</ele>
        <time>2023-09-27T14:29:04Z</time>
      </trkpt>
      <trkpt lat="49.89696" lon="2.50622">
        <ele>33.4</ele>
        <time>2023-09-27T14:29:05Z</time>
      </trkpt>
      <trkpt lat="49.89695" lon="2.50623">
        <ele>33.3</ele>
        <time>2023-09-27T14:29:06Z</time>
      </trkpt>
      <trkpt lat="49.89694" lon="2.50625">
        <ele>33.3</ele>
        <time>2023-09-27T14:29:07Z</time>
      </trkpt>
      <trkpt lat="49.89693" lon="2.50625">
        <ele>33.3</ele>
        <time>2023-09-27T14:29:08Z</time>
      </trkpt>
      <trkpt lat="49.89692" lon="2.50626">
        <ele>33.3</ele>
        <time>2023-09-27T14:29:09Z</time>
      </trkpt>
      <trkpt lat="49.89692" lon="2.50627">
        <ele>33.3</ele>
        <time>2023-09-27T14:29:10Z</time>
      </trkpt>
      <trkpt lat="49.89691" lon="2.50628">
        <ele>33.3</ele>
        <time>2023-09-27T14:29:11Z</time>
      </trkpt>
      <trkpt lat="49.8969" lon="2.50629">
        <ele>33.3</ele>
        <time>2023-09-27T14:29:12Z</time>
      </trkpt>
      <trkpt lat="49.89688" lon="2.50631">
        <ele>33.3</ele>
        <time>2023-09-27T14:29:13Z</time>
      </trkpt>
      <trkpt lat="49.89687" lon="2.50631">
        <ele>33.3</ele>
        <time>2023-09-27T14:29:14Z</time>
      </trkpt>
      <trkpt lat="49.89687" lon="2.50632">
        <ele>33.3</ele>
        <time>2023-09-27T14:29:15Z</time>
      </trkpt>
      <trkpt lat="49.89685" lon="2.50634">
        <ele>33.3</ele>
        <time>2023-09-27T14:29:16Z</time>
      </trkpt>
      <trkpt lat="49.89684" lon="2.50635">
        <ele>33.3</ele>
        <time>2023-09-27T14:29:17Z</time>
      </trkpt>
      <trkpt lat="49.89684" lon="2.50635">
        <ele>33.3</ele>
        <time>2023-09-27T14:29:18Z</time>
      </trkpt>
      <trkpt lat="49.89683" lon="2.50636">
        <ele>33.3</ele>
        <time>2023-09-27T14:29:19Z</time>
      </trkpt>
      <trkpt lat="49.89682" lon="2.50637">
        <ele>33.2</ele>
        <time>2023-09-27T14:29:20Z</time>
      </trkpt>
      <trkpt lat="49.89681" lon="2.50638">
        <ele>33.2</ele>
        <time>2023-09-27T14:29:21Z</time>
      </trkpt>
      <trkpt lat="49.8968" lon="2.50639">
        <ele>33.2</ele>
        <time>2023-09-27T14:29:22Z</time>
      </trkpt>
      <trkpt lat="49.89679" lon="2.5064">
        <ele>33.2</ele>
        <time>2023-09-27T14:29:23Z</time>
      </trkpt>
      <trkpt lat="49.89679" lon="2.50641">
        <ele>33.2</ele>
        <time>2023-09-27T14:29:24Z</time>
      </trkpt>
      <trkpt lat="49.89678" lon="2.50642">
        <ele>33.2</ele>
        <time>2023-09-27T14:29:25Z</time>
      </trkpt>
      <trkpt lat="49.89677" lon="2.50643">
        <ele>33.2</ele>
        <time>2023-09-27T14:29:26Z</time>
      </trkpt>
      <trkpt lat="49.89676" lon="2.50644">
        <ele>33.2</ele>
        <time>2023-09-27T14:29:27Z</time>
      </trkpt>
      <trkpt lat="49.89675" lon="2.50645">
        <ele>33.2</ele>
        <time>2023-09-27T14:29:28Z</time>
      </trkpt>
      <trkpt lat="49.89674" lon="2.50647">
        <ele>33.2</ele>
        <time>2023-09-27T14:29:29Z</time>
      </trkpt>
      <trkpt lat="49.89673" lon="2.50648">
        <ele>33.2</ele>
        <time>2023-09-27T14:29:30Z</time>
      </trkpt>
      <trkpt lat="49.89673" lon="2.50649">
        <ele>33.2</ele>
        <time>2023-09-27T14:29:31Z</time>
      </trkpt>
      <trkpt lat="49.89672" lon="2.5065">
        <ele>33.2</ele>
        <time>2023-09-27T14:29:32Z</time>
      </trkpt>
      <trkpt lat="49.89672" lon="2.50652">
        <ele>33.2</ele>
        <time>2023-09-27T14:29:33Z</time>
      </trkpt>
      <trkpt lat="49.89671" lon="2.50653">
        <ele>33.2</ele>
        <time>2023-09-27T14:29:34Z</time>
      </trkpt>
      <trkpt lat="49.89671" lon="2.50654">
        <ele>33.2</ele>
        <time>2023-09-27T14:29:35Z</time>
      </trkpt>
      <trkpt lat="49.8967" lon="2.50656">
        <ele>33.2</ele>
        <time>2023-09-27T14:29:36Z</time>
      </trkpt>
      <trkpt lat="49.89669" lon="2.50659">
        <ele>33.2</ele>
        <time>2023-09-27T14:29:37Z</time>
      </trkpt>
      <trkpt lat="49.89668" lon="2.5066">
        <ele>33.2</ele>
        <time>2023-09-27T14:29:38Z</time>
      </trkpt>
      <trkpt lat="49.89668" lon="2.50661">
        <ele>33.2</ele>
        <time>2023-09-27T14:29:39Z</time>
      </trkpt>
      <trkpt lat="49.89667" lon="2.50662">
        <ele>33.2</ele>
        <time>2023-09-27T14:29:40Z</time>
      </trkpt>
      <trkpt lat="49.89666" lon="2.50663">
        <ele>33.2</ele>
        <time>2023-09-27T14:29:41Z</time>
      </trkpt>
      <trkpt lat="49.89666" lon="2.50665">
        <ele>33.2</ele>
        <time>2023-09-27T14:29:42Z</time>
      </trkpt>
      <trkpt lat="49.89665" lon="2.50666">
        <ele>33.2</ele>
        <time>2023-09-27T14:29:43Z</time>
      </trkpt>
      <trkpt lat="49.89665" lon="2.50667">
        <ele>33.2</ele>
        <time>2023-09-27T14:29:44Z</time>
      </trkpt>
      <trkpt lat="49.89664" lon="2.50669">
        <ele>33.2</ele>
        <time>2023-09-27T14:29:45Z</time>
      </trkpt>
      <trkpt lat="49.89663" lon="2.50672">
        <ele>33.2</ele>
        <time>2023-09-27T14:29:46Z</time>
      </trkpt>
      <trkpt lat="49.89662" lon="2.50673">
        <ele>33.2</ele>
        <time>2023-09-27T14:29:47Z</time>
      </trkpt>
      <trkpt lat="49.89662" lon="2.50673">
        <ele>33.2</ele>
        <time>2023-09-27T14:29:48Z</time>
      </trkpt>
      <trkpt lat="49.8966" lon="2.50676">
        <ele>33.2</ele>
        <time>2023-09-27T14:29:49Z</time>
      </trkpt>
      <trkpt lat="49.8966" lon="2.50677">
        <ele>33.2</ele>
        <time>2023-09-27T14:29:50Z</time>
      </trkpt>
      <trkpt lat="49.89659" lon="2.50678">
        <ele>33.2</ele>
        <time>2023-09-27T14:29:51Z</time>
      </trkpt>
      <trkpt lat="49.89659" lon="2.50679">
        <ele>33.2</ele>
        <time>2023-09-27T14:29:52Z</time>
      </trkpt>
      <trkpt lat="49.89658" lon="2.50681">
        <ele>33.2</ele>
        <time>2023-09-27T14:29:53Z</time>
      </trkpt>
      <trkpt lat="49.89657" lon="2.50682">
        <ele>33.2</ele>
        <time>2023-09-27T14:29:54Z</time>
      </trkpt>
      <trkpt lat="49.89656" lon="2.50683">
        <ele>33.2</ele>
        <time>2023-09-27T14:29:55Z</time>
      </trkpt>
      <trkpt lat="49.89655" lon="2.50684">
        <ele>33.2</ele>
        <time>2023-09-27T14:29:56Z</time>
      </trkpt>
      <trkpt lat="49.89655" lon="2.50685">
        <ele>33.2</ele>
        <time>2023-09-27T14:29:57Z</time>
      </trkpt>
      <trkpt lat="49.89654" lon="2.50686">
        <ele>33.2</ele>
        <time>2023-09-27T14:29:58Z</time>
      </trkpt>
      <trkpt lat="49.89653" lon="2.50687">
        <ele>33.2</ele>
        <time>2023-09-27T14:29:59Z</time>
      </trkpt>
      <trkpt lat="49.89652" lon="2.50689">
        <ele>33.2</ele>
        <time>2023-09-27T14:30:00Z</time>
      </trkpt>
      <trkpt lat="49.89651" lon="2.5069">
        <ele>33.2</ele>
        <time>2023-09-27T14:30:01Z</time>
      </trkpt>
      <trkpt lat="49.8965" lon="2.50691">
        <ele>33.2</ele>
        <time>2023-09-27T14:30:02Z</time>
      </trkpt>
      <trkpt lat="49.8965" lon="2.50692">
        <ele>33.2</ele>
        <time>2023-09-27T14:30:03Z</time>
      </trkpt>
      <trkpt lat="49.89649" lon="2.50693">
        <ele>33.2</ele>
        <time>2023-09-27T14:30:04Z</time>
      </trkpt>
      <trkpt lat="49.89648" lon="2.50693">
        <ele>33.2</ele>
        <time>2023-09-27T14:30:05Z</time>
      </trkpt>
      <trkpt lat="49.89648" lon="2.50694">
        <ele>33.2</ele>
        <time>2023-09-27T14:30:06Z</time>
      </trkpt>
      <trkpt lat="49.89647" lon="2.50694">
        <ele>33.2</ele>
        <time>2023-09-27T14:30:07Z</time>
      </trkpt>
      <trkpt lat="49.89647" lon="2.50695">
        <ele>33.2</ele>
        <time>2023-09-27T14:30:08Z</time>
      </trkpt>
      <trkpt lat="49.89646" lon="2.50695">
        <ele>33.2</ele>
        <time>2023-09-27T14:30:09Z</time>
      </trkpt>
      <trkpt lat="49.89645" lon="2.50696">
        <ele>33.2</ele>
        <time>2023-09-27T14:30:10Z</time>
      </trkpt>
      <trkpt lat="49.89644" lon="2.50697">
        <ele>33.2</ele>
        <time>2023-09-27T14:30:11Z</time>
      </trkpt>
      <trkpt lat="49.89643" lon="2.50698">
        <ele>33.2</ele>
        <time>2023-09-27T14:30:12Z</time>
      </trkpt>
      <trkpt lat="49.89642" lon="2.50699">
        <ele>33.2</ele>
        <time>2023-09-27T14:30:13Z</time>
      </trkpt>
      <trkpt lat="49.89641" lon="2.507">
        <ele>33.2</ele>
        <time>2023-09-27T14:30:14Z</time>
      </trkpt>
      <trkpt lat="49.89639" lon="2.50701">
        <ele>33.3</ele>
        <time>2023-09-27T14:30:15Z</time>
      </trkpt>
      <trkpt lat="49.89639" lon="2.50702">
        <ele>33.3</ele>
        <time>2023-09-27T14:30:16Z</time>
      </trkpt>
      <trkpt lat="49.89638" lon="2.50703">
        <ele>33.3</ele>
        <time>2023-09-27T14:30:17Z</time>
      </trkpt>
      <trkpt lat="49.89636" lon="2.50704">
        <ele>33.3</ele>
        <time>2023-09-27T14:30:18Z</time>
      </trkpt>
      <trkpt lat="49.89635" lon="2.50705">
        <ele>33.3</ele>
        <time>2023-09-27T14:30:19Z</time>
      </trkpt>
      <trkpt lat="49.89634" lon="2.50705">
        <ele>33.3</ele>
        <time>2023-09-27T14:30:20Z</time>
      </trkpt>
      <trkpt lat="49.89633" lon="2.50706">
        <ele>33.3</ele>
        <time>2023-09-27T14:30:21Z</time>
      </trkpt>
      <trkpt lat="49.89632" lon="2.50707">
        <ele>33.3</ele>
        <time>2023-09-27T14:30:22Z</time>
      </trkpt>
      <trkpt lat="49.89631" lon="2.50707">
        <ele>33.3</ele>
        <time>2023-09-27T14:30:23Z</time>
      </trkpt>
      <trkpt lat="49.8963" lon="2.50708">
        <ele>33.3</ele>
        <time>2023-09-27T14:30:24Z</time>
      </trkpt>
      <trkpt lat="49.89629" lon="2.50709">
        <ele>33.3</ele>
        <time>2023-09-27T14:30:25Z</time>
      </trkpt>
      <trkpt lat="49.89628" lon="2.50709">
        <ele>33.3</ele>
        <time>2023-09-27T14:30:26Z</time>
      </trkpt>
      <trkpt lat="49.89627" lon="2.5071">
        <ele>33.3</ele>
        <time>2023-09-27T14:30:27Z</time>
      </trkpt>
      <trkpt lat="49.89626" lon="2.50711">
        <ele>33.3</ele>
        <time>2023-09-27T14:30:28Z</time>
      </trkpt>
      <trkpt lat="49.89625" lon="2.50711">
        <ele>33.4</ele>
        <time>2023-09-27T14:30:29Z</time>
      </trkpt>
      <trkpt lat="49.89624" lon="2.50712">
        <ele>33.4</ele>
        <time>2023-09-27T14:30:30Z</time>
      </trkpt>
      <trkpt lat="49.89624" lon="2.50712">
        <ele>33.4</ele>
        <time>2023-09-27T14:30:31Z</time>
      </trkpt>
      <trkpt lat="49.89623" lon="2.50713">
        <ele>33.4</ele>
        <time>2023-09-27T14:30:32Z</time>
      </trkpt>
      <trkpt lat="49.89622" lon="2.50714">
        <ele>33.4</ele>
        <time>2023-09-27T14:30:33Z</time>
      </trkpt>
      <trkpt lat="49.89621" lon="2.50714">
        <ele>33.4</ele>
        <time>2023-09-27T14:30:34Z</time>
      </trkpt>
      <trkpt lat="49.8962" lon="2.50715">
        <ele>33.4</ele>
        <time>2023-09-27T14:30:35Z</time>
      </trkpt>
      <trkpt lat="49.89619" lon="2.50715">
        <ele>33.4</ele>
        <time>2023-09-27T14:30:36Z</time>
      </trkpt>
      <trkpt lat="49.89618" lon="2.50716">
        <ele>33.4</ele>
        <time>2023-09-27T14:30:37Z</time>
      </trkpt>
      <trkpt lat="49.89617" lon="2.50717">
        <ele>33.4</ele>
        <time>2023-09-27T14:30:38Z</time>
      </trkpt>
      <trkpt lat="49.89616" lon="2.50717">
        <ele>33.5</ele>
        <time>2023-09-27T14:30:39Z</time>
      </trkpt>
      <trkpt lat="49.89615" lon="2.50717">
        <ele>33.5</ele>
        <time>2023-09-27T14:30:40Z</time>
      </trkpt>
      <trkpt lat="49.89613" lon="2.50717">
        <ele>33.7</ele>
        <time>2023-09-27T14:30:41Z</time>
      </trkpt>
      <trkpt lat="49.89612" lon="2.50717">
        <ele>33.7</ele>
        <time>2023-09-27T14:30:42Z</time>
      </trkpt>
      <trkpt lat="49.89611" lon="2.50717">
        <ele>33.7</ele>
        <time>2023-09-27T14:30:43Z</time>
      </trkpt>
      <trkpt lat="49.8961" lon="2.50717">
        <ele>33.8</ele>
        <time>2023-09-27T14:30:44Z</time>
      </trkpt>
      <trkpt lat="49.89609" lon="2.50716">
        <ele>33.8</ele>
        <time>2023-09-27T14:30:45Z</time>
      </trkpt>
      <trkpt lat="49.89608" lon="2.50716">
        <ele>33.8</ele>
        <time>2023-09-27T14:30:46Z</time>
      </trkpt>
      <trkpt lat="49.89607" lon="2.50715">
        <ele>33.9</ele>
        <time>2023-09-27T14:30:47Z</time>
      </trkpt>
      <trkpt lat="49.89607" lon="2.50714">
        <ele>33.9</ele>
        <time>2023-09-27T14:30:48Z</time>
      </trkpt>
      <trkpt lat="49.89606" lon="2.50712">
        <ele>34</ele>
        <time>2023-09-27T14:30:49Z</time>
      </trkpt>
      <trkpt lat="49.89605" lon="2.50711">
        <ele>34</ele>
        <time>2023-09-27T14:30:50Z</time>
      </trkpt>
      <trkpt lat="49.89605" lon="2.5071">
        <ele>34</ele>
        <time>2023-09-27T14:30:51Z</time>
      </trkpt>
      <trkpt lat="49.89605" lon="2.50708">
        <ele>34.1</ele>
        <time>2023-09-27T14:30:52Z</time>
      </trkpt>
      <trkpt lat="49.89605" lon="2.50706">
        <ele>34.1</ele>
        <time>2023-09-27T14:30:53Z</time>
      </trkpt>
      <trkpt lat="49.89604" lon="2.50703">
        <ele>34.2</ele>
        <time>2023-09-27T14:30:54Z</time>
      </trkpt>
      <trkpt lat="49.89604" lon="2.50702">
        <ele>34.2</ele>
        <time>2023-09-27T14:30:55Z</time>
      </trkpt>
      <trkpt lat="49.89604" lon="2.50701">
        <ele>34.2</ele>
        <time>2023-09-27T14:30:56Z</time>
      </trkpt>
      <trkpt lat="49.89603" lon="2.50697">
        <ele>34.3</ele>
        <time>2023-09-27T14:30:57Z</time>
      </trkpt>
      <trkpt lat="49.89603" lon="2.50696">
        <ele>34.4</ele>
        <time>2023-09-27T14:30:58Z</time>
      </trkpt>
      <trkpt lat="49.89603" lon="2.50695">
        <ele>34.4</ele>
        <time>2023-09-27T14:30:59Z</time>
      </trkpt>
      <trkpt lat="49.89602" lon="2.50692">
        <ele>34.5</ele>
        <time>2023-09-27T14:31:00Z</time>
      </trkpt>
      <trkpt lat="49.89602" lon="2.50691">
        <ele>34.5</ele>
        <time>2023-09-27T14:31:01Z</time>
      </trkpt>
      <trkpt lat="49.89601" lon="2.50689">
        <ele>34.5</ele>
        <time>2023-09-27T14:31:02Z</time>
      </trkpt>
      <trkpt lat="49.896" lon="2.50687">
        <ele>34.6</ele>
        <time>2023-09-27T14:31:03Z</time>
      </trkpt>
      <trkpt lat="49.896" lon="2.50685">
        <ele>34.7</ele>
        <time>2023-09-27T14:31:04Z</time>
      </trkpt>
      <trkpt lat="49.896" lon="2.50684">
        <ele>34.7</ele>
        <time>2023-09-27T14:31:05Z</time>
      </trkpt>
      <trkpt lat="49.89599" lon="2.50682">
        <ele>34.8</ele>
        <time>2023-09-27T14:31:06Z</time>
      </trkpt>
      <trkpt lat="49.89599" lon="2.50681">
        <ele>34.8</ele>
        <time>2023-09-27T14:31:07Z</time>
      </trkpt>
      <trkpt lat="49.89599" lon="2.5068">
        <ele>34.8</ele>
        <time>2023-09-27T14:31:08Z</time>
      </trkpt>
      <trkpt lat="49.89598" lon="2.50678">
        <ele>34.9</ele>
        <time>2023-09-27T14:31:09Z</time>
      </trkpt>
      <trkpt lat="49.89598" lon="2.50677">
        <ele>34.9</ele>
        <time>2023-09-27T14:31:10Z</time>
      </trkpt>
      <trkpt lat="49.89598" lon="2.50676">
        <ele>35</ele>
        <time>2023-09-27T14:31:11Z</time>
      </trkpt>
      <trkpt lat="49.89598" lon="2.50675">
        <ele>35</ele>
        <time>2023-09-27T14:31:12Z</time>
      </trkpt>
      <trkpt lat="49.89597" lon="2.50674">
        <ele>35</ele>
        <time>2023-09-27T14:31:13Z</time>
      </trkpt>
      <trkpt lat="49.89597" lon="2.50672">
        <ele>35.1</ele>
        <time>2023-09-27T14:31:14Z</time>
      </trkpt>
      <trkpt lat="49.89596" lon="2.50671">
        <ele>35.1</ele>
        <time>2023-09-27T14:31:15Z</time>
      </trkpt>
      <trkpt lat="49.89596" lon="2.5067">
        <ele>35.2</ele>
        <time>2023-09-27T14:31:16Z</time>
      </trkpt>
      <trkpt lat="49.89596" lon="2.50669">
        <ele>35.2</ele>
        <time>2023-09-27T14:31:17Z</time>
      </trkpt>
      <trkpt lat="49.89595" lon="2.50668">
        <ele>35.2</ele>
        <time>2023-09-27T14:31:18Z</time>
      </trkpt>
      <trkpt lat="49.89595" lon="2.50666">
        <ele>35.3</ele>
        <time>2023-09-27T14:31:19Z</time>
      </trkpt>
      <trkpt lat="49.89594" lon="2.50665">
        <ele>35.3</ele>
        <time>2023-09-27T14:31:20Z</time>
      </trkpt>
      <trkpt lat="49.89594" lon="2.50664">
        <ele>35.4</ele>
        <time>2023-09-27T14:31:21Z</time>
      </trkpt>
      <trkpt lat="49.89593" lon="2.50663">
        <ele>35.4</ele>
        <time>2023-09-27T14:31:22Z</time>
      </trkpt>
      <trkpt lat="49.89593" lon="2.50661">
        <ele>35.5</ele>
        <time>2023-09-27T14:31:23Z</time>
      </trkpt>
      <trkpt lat="49.89592" lon="2.50659">
        <ele>35.5</ele>
        <time>2023-09-27T14:31:24Z</time>
      </trkpt>
      <trkpt lat="49.89592" lon="2.50658">
        <ele>35.6</ele>
        <time>2023-09-27T14:31:25Z</time>
      </trkpt>
      <trkpt lat="49.89591" lon="2.50657">
        <ele>35.6</ele>
        <time>2023-09-27T14:31:26Z</time>
      </trkpt>
      <trkpt lat="49.89591" lon="2.50656">
        <ele>35.7</ele>
        <time>2023-09-27T14:31:27Z</time>
      </trkpt>
      <trkpt lat="49.8959" lon="2.50654">
        <ele>35.8</ele>
        <time>2023-09-27T14:31:28Z</time>
      </trkpt>
      <trkpt lat="49.8959" lon="2.50653">
        <ele>35.8</ele>
        <time>2023-09-27T14:31:29Z</time>
      </trkpt>
      <trkpt lat="49.89589" lon="2.50651">
        <ele>35.9</ele>
        <time>2023-09-27T14:31:30Z</time>
      </trkpt>
      <trkpt lat="49.89589" lon="2.5065">
        <ele>35.9</ele>
        <time>2023-09-27T14:31:31Z</time>
      </trkpt>
      <trkpt lat="49.89588" lon="2.50649">
        <ele>36</ele>
        <time>2023-09-27T14:31:32Z</time>
      </trkpt>
      <trkpt lat="49.89587" lon="2.50647">
        <ele>36</ele>
        <time>2023-09-27T14:31:33Z</time>
      </trkpt>
      <trkpt lat="49.89587" lon="2.50646">
        <ele>36.1</ele>
        <time>2023-09-27T14:31:34Z</time>
      </trkpt>
      <trkpt lat="49.89586" lon="2.50645">
        <ele>36.1</ele>
        <time>2023-09-27T14:31:35Z</time>
      </trkpt>
      <trkpt lat="49.89586" lon="2.50644">
        <ele>36.2</ele>
        <time>2023-09-27T14:31:36Z</time>
      </trkpt>
      <trkpt lat="49.89585" lon="2.50642">
        <ele>36.3</ele>
        <time>2023-09-27T14:31:37Z</time>
      </trkpt>
      <trkpt lat="49.89585" lon="2.50641">
        <ele>36.3</ele>
        <time>2023-09-27T14:31:38Z</time>
      </trkpt>
      <trkpt lat="49.89584" lon="2.5064">
        <ele>36.4</ele>
        <time>2023-09-27T14:31:39Z</time>
      </trkpt>
      <trkpt lat="49.89583" lon="2.50638">
        <ele>36.4</ele>
        <time>2023-09-27T14:31:40Z</time>
      </trkpt>
      <trkpt lat="49.89583" lon="2.50637">
        <ele>36.5</ele>
        <time>2023-09-27T14:31:41Z</time>
      </trkpt>
      <trkpt lat="49.89582" lon="2.50636">
        <ele>36.6</ele>
        <time>2023-09-27T14:31:42Z</time>
      </trkpt>
      <trkpt lat="49.89581" lon="2.50634">
        <ele>36.6</ele>
        <time>2023-09-27T14:31:43Z</time>
      </trkpt>
      <trkpt lat="49.89581" lon="2.50633">
        <ele>36.7</ele>
        <time>2023-09-27T14:31:44Z</time>
      </trkpt>
      <trkpt lat="49.89581" lon="2.50631">
        <ele>36.8</ele>
        <time>2023-09-27T14:31:45Z</time>
      </trkpt>
      <trkpt lat="49.8958" lon="2.5063">
        <ele>37</ele>
        <time>2023-09-27T14:31:46Z</time>
      </trkpt>
      <trkpt lat="49.8958" lon="2.50629">
        <ele>37</ele>
        <time>2023-09-27T14:31:47Z</time>
      </trkpt>
      <trkpt lat="49.8958" lon="2.50627">
        <ele>37</ele>
        <time>2023-09-27T14:31:48Z</time>
      </trkpt>
      <trkpt lat="49.8958" lon="2.50626">
        <ele>37</ele>
        <time>2023-09-27T14:31:49Z</time>
      </trkpt>
      <trkpt lat="49.89579" lon="2.50624">
        <ele>37</ele>
        <time>2023-09-27T14:31:50Z</time>
      </trkpt>
      <trkpt lat="49.89579" lon="2.50623">
        <ele>37</ele>
        <time>2023-09-27T14:31:51Z</time>
      </trkpt>
      <trkpt lat="49.89579" lon="2.50622">
        <ele>37</ele>
        <time>2023-09-27T14:31:52Z</time>
      </trkpt>
      <trkpt lat="49.89578" lon="2.5062">
        <ele>37</ele>
        <time>2023-09-27T14:31:53Z</time>
      </trkpt>
      <trkpt lat="49.89577" lon="2.50617">
        <ele>37</ele>
        <time>2023-09-27T14:31:54Z</time>
      </trkpt>
      <trkpt lat="49.89577" lon="2.50616">
        <ele>37</ele>
        <time>2023-09-27T14:31:55Z</time>
      </trkpt>
      <trkpt lat="49.89577" lon="2.50615">
        <ele>37</ele>
        <time>2023-09-27T14:31:56Z</time>
      </trkpt>
      <trkpt lat="49.89577" lon="2.50613">
        <ele>37</ele>
        <time>2023-09-27T14:31:57Z</time>
      </trkpt>
      <trkpt lat="49.89576" lon="2.50612">
        <ele>37</ele>
        <time>2023-09-27T14:31:58Z</time>
      </trkpt>
      <trkpt lat="49.89576" lon="2.50611">
        <ele>37</ele>
        <time>2023-09-27T14:31:59Z</time>
      </trkpt>
      <trkpt lat="49.89575" lon="2.5061">
        <ele>37.2</ele>
        <time>2023-09-27T14:32:00Z</time>
      </trkpt>
      <trkpt lat="49.89575" lon="2.50609">
        <ele>37.2</ele>
        <time>2023-09-27T14:32:01Z</time>
      </trkpt>
      <trkpt lat="49.89574" lon="2.50608">
        <ele>37.2</ele>
        <time>2023-09-27T14:32:02Z</time>
      </trkpt>
      <trkpt lat="49.89573" lon="2.50607">
        <ele>37.2</ele>
        <time>2023-09-27T14:32:03Z</time>
      </trkpt>
      <trkpt lat="49.89573" lon="2.50606">
        <ele>37.2</ele>
        <time>2023-09-27T14:32:04Z</time>
      </trkpt>
      <trkpt lat="49.89572" lon="2.50606">
        <ele>37.2</ele>
        <time>2023-09-27T14:32:05Z</time>
      </trkpt>
      <trkpt lat="49.89571" lon="2.50607">
        <ele>37.2</ele>
        <time>2023-09-27T14:32:06Z</time>
      </trkpt>
      <trkpt lat="49.8957" lon="2.50608">
        <ele>37.2</ele>
        <time>2023-09-27T14:32:07Z</time>
      </trkpt>
      <trkpt lat="49.8957" lon="2.50609">
        <ele>37.2</ele>
        <time>2023-09-27T14:32:08Z</time>
      </trkpt>
      <trkpt lat="49.89569" lon="2.5061">
        <ele>37.2</ele>
        <time>2023-09-27T14:32:09Z</time>
      </trkpt>
      <trkpt lat="49.89569" lon="2.5061">
        <ele>37.2</ele>
        <time>2023-09-27T14:32:10Z</time>
      </trkpt>
      <trkpt lat="49.89568" lon="2.50611">
        <ele>37.2</ele>
        <time>2023-09-27T14:32:11Z</time>
      </trkpt>
      <trkpt lat="49.89568" lon="2.50611">
        <ele>37.2</ele>
        <time>2023-09-27T14:32:12Z</time>
      </trkpt>
      <trkpt lat="49.89568" lon="2.50612">
        <ele>37.2</ele>
        <time>2023-09-27T14:32:13Z</time>
      </trkpt>
      <trkpt lat="49.89568" lon="2.50612">
        <ele>37.2</ele>
        <time>2023-09-27T14:32:14Z</time>
      </trkpt>
      <trkpt lat="49.89568" lon="2.50612">
        <ele>37.2</ele>
        <time>2023-09-27T14:32:15Z</time>
      </trkpt>
      <trkpt lat="49.89568" lon="2.50612">
        <ele>37.2</ele>
        <time>2023-09-27T14:32:16Z</time>
      </trkpt>
      <trkpt lat="49.89568" lon="2.50612">
        <ele>37.2</ele>
        <time>2023-09-27T14:32:17Z</time>
      </trkpt>
      <trkpt lat="49.89568" lon="2.50612">
        <ele>37.2</ele>
        <time>2023-09-27T14:32:18Z</time>
      </trkpt>
      <trkpt lat="49.89568" lon="2.50612">
        <ele>37.2</ele>
        <time>2023-09-27T14:32:19Z</time>
      </trkpt>
      <trkpt lat="49.89568" lon="2.50612">
        <ele>37.3</ele>
        <time>2023-09-27T14:32:20Z</time>
      </trkpt>
      <trkpt lat="49.89569" lon="2.50613">
        <ele>37.3</ele>
        <time>2023-09-27T14:32:21Z</time>
      </trkpt>
      <trkpt lat="49.89569" lon="2.50613">
        <ele>37.3</ele>
        <time>2023-09-27T14:32:22Z</time>
      </trkpt>
      <trkpt lat="49.89569" lon="2.50614">
        <ele>37.3</ele>
        <time>2023-09-27T14:32:23Z</time>
      </trkpt>
      <trkpt lat="49.89569" lon="2.50614">
        <ele>37.3</ele>
        <time>2023-09-27T14:32:24Z</time>
      </trkpt>
      <trkpt lat="49.89569" lon="2.50614">
        <ele>37.3</ele>
        <time>2023-09-27T14:32:25Z</time>
      </trkpt>
      <trkpt lat="49.89569" lon="2.50615">
        <ele>37.3</ele>
        <time>2023-09-27T14:32:26Z</time>
      </trkpt>
      <trkpt lat="49.89569" lon="2.50615">
        <ele>37.3</ele>
        <time>2023-09-27T14:32:27Z</time>
      </trkpt>
      <trkpt lat="49.89569" lon="2.50616">
        <ele>37.3</ele>
        <time>2023-09-27T14:32:28Z</time>
      </trkpt>
      <trkpt lat="49.89569" lon="2.50616">
        <ele>37.3</ele>
        <time>2023-09-27T14:32:29Z</time>
      </trkpt>
      <trkpt lat="49.89569" lon="2.50616">
        <ele>37.3</ele>
        <time>2023-09-27T14:32:30Z</time>
      </trkpt>
      <trkpt lat="49.89569" lon="2.50617">
        <ele>37.3</ele>
        <time>2023-09-27T14:32:31Z</time>
      </trkpt>
      <trkpt lat="49.89569" lon="2.50617">
        <ele>37.3</ele>
        <time>2023-09-27T14:32:32Z</time>
      </trkpt>
      <trkpt lat="49.89569" lon="2.50617">
        <ele>37.3</ele>
        <time>2023-09-27T14:32:33Z</time>
      </trkpt>
      <trkpt lat="49.89569" lon="2.50617">
        <ele>37.3</ele>
        <time>2023-09-27T14:32:34Z</time>
      </trkpt>
      <trkpt lat="49.8957" lon="2.50617">
        <ele>37.3</ele>
        <time>2023-09-27T14:32:35Z</time>
      </trkpt>
      <trkpt lat="49.8957" lon="2.50616">
        <ele>37.3</ele>
        <time>2023-09-27T14:32:36Z</time>
      </trkpt>
      <trkpt lat="49.8957" lon="2.50616">
        <ele>37.3</ele>
        <time>2023-09-27T14:32:37Z</time>
      </trkpt>
      <trkpt lat="49.8957" lon="2.50616">
        <ele>37.3</ele>
        <time>2023-09-27T14:32:38Z</time>
      </trkpt>
      <trkpt lat="49.8957" lon="2.50616">
        <ele>37.3</ele>
        <time>2023-09-27T14:32:39Z</time>
      </trkpt>
      <trkpt lat="49.8957" lon="2.50616">
        <ele>37.3</ele>
        <time>2023-09-27T14:32:40Z</time>
      </trkpt>
      <trkpt lat="49.89571" lon="2.50616">
        <ele>37.3</ele>
        <time>2023-09-27T14:32:41Z</time>
      </trkpt>
      <trkpt lat="49.89572" lon="2.50615">
        <ele>37.3</ele>
        <time>2023-09-27T14:32:42Z</time>
      </trkpt>
      <trkpt lat="49.89572" lon="2.50615">
        <ele>37.3</ele>
        <time>2023-09-27T14:32:43Z</time>
      </trkpt>
      <trkpt lat="49.89573" lon="2.50614">
        <ele>37.3</ele>
        <time>2023-09-27T14:32:44Z</time>
      </trkpt>
      <trkpt lat="49.89573" lon="2.50613">
        <ele>37.3</ele>
        <time>2023-09-27T14:32:45Z</time>
      </trkpt>
      <trkpt lat="49.89573" lon="2.50611">
        <ele>37.3</ele>
        <time>2023-09-27T14:32:46Z</time>
      </trkpt>
      <trkpt lat="49.89573" lon="2.5061">
        <ele>37.3</ele>
        <time>2023-09-27T14:32:47Z</time>
      </trkpt>
      <trkpt lat="49.89573" lon="2.50609">
        <ele>37.3</ele>
        <time>2023-09-27T14:32:48Z</time>
      </trkpt>
      <trkpt lat="49.89573" lon="2.50607">
        <ele>37.3</ele>
        <time>2023-09-27T14:32:49Z</time>
      </trkpt>
      <trkpt lat="49.89573" lon="2.50606">
        <ele>37.3</ele>
        <time>2023-09-27T14:32:50Z</time>
      </trkpt>
      <trkpt lat="49.89573" lon="2.50604">
        <ele>37.3</ele>
        <time>2023-09-27T14:32:51Z</time>
      </trkpt>
      <trkpt lat="49.89572" lon="2.50604">
        <ele>37.3</ele>
        <time>2023-09-27T14:32:52Z</time>
      </trkpt>
      <trkpt lat="49.89572" lon="2.50603">
        <ele>37.3</ele>
        <time>2023-09-27T14:32:53Z</time>
      </trkpt>
      <trkpt lat="49.89571" lon="2.50603">
        <ele>37.3</ele>
        <time>2023-09-27T14:32:54Z</time>
      </trkpt>
      <trkpt lat="49.8957" lon="2.50603">
        <ele>37.3</ele>
        <time>2023-09-27T14:32:55Z</time>
      </trkpt>
      <trkpt lat="49.89569" lon="2.50604">
        <ele>37.3</ele>
        <time>2023-09-27T14:32:56Z</time>
      </trkpt>
      <trkpt lat="49.89569" lon="2.50604">
        <ele>37.3</ele>
        <time>2023-09-27T14:32:57Z</time>
      </trkpt>
      <trkpt lat="49.89568" lon="2.50604">
        <ele>37.4</ele>
        <time>2023-09-27T14:32:58Z</time>
      </trkpt>
      <trkpt lat="49.89567" lon="2.50604">
        <ele>37.4</ele>
        <time>2023-09-27T14:32:59Z</time>
      </trkpt>
      <trkpt lat="49.89566" lon="2.50604">
        <ele>37.4</ele>
        <time>2023-09-27T14:33:00Z</time>
      </trkpt>
      <trkpt lat="49.89565" lon="2.50605">
        <ele>37.4</ele>
        <time>2023-09-27T14:33:01Z</time>
      </trkpt>
      <trkpt lat="49.89563" lon="2.50605">
        <ele>37.4</ele>
        <time>2023-09-27T14:33:02Z</time>
      </trkpt>
      <trkpt lat="49.89562" lon="2.50605">
        <ele>37.4</ele>
        <time>2023-09-27T14:33:03Z</time>
      </trkpt>
      <trkpt lat="49.89561" lon="2.50606">
        <ele>37.4</ele>
        <time>2023-09-27T14:33:04Z</time>
      </trkpt>
      <trkpt lat="49.89559" lon="2.50606">
        <ele>37.4</ele>
        <time>2023-09-27T14:33:05Z</time>
      </trkpt>
      <trkpt lat="49.89558" lon="2.50607">
        <ele>37.4</ele>
        <time>2023-09-27T14:33:06Z</time>
      </trkpt>
      <trkpt lat="49.89558" lon="2.50607">
        <ele>37.4</ele>
        <time>2023-09-27T14:33:07Z</time>
      </trkpt>
      <trkpt lat="49.89556" lon="2.50608">
        <ele>37.4</ele>
        <time>2023-09-27T14:33:08Z</time>
      </trkpt>
      <trkpt lat="49.89555" lon="2.50608">
        <ele>37.4</ele>
        <time>2023-09-27T14:33:09Z</time>
      </trkpt>
      <trkpt lat="49.89554" lon="2.50609">
        <ele>37.4</ele>
        <time>2023-09-27T14:33:10Z</time>
      </trkpt>
      <trkpt lat="49.89552" lon="2.5061">
        <ele>37.4</ele>
        <time>2023-09-27T14:33:11Z</time>
      </trkpt>
      <trkpt lat="49.89551" lon="2.50611">
        <ele>37.4</ele>
        <time>2023-09-27T14:33:12Z</time>
      </trkpt>
      <trkpt lat="49.8955" lon="2.50611">
        <ele>37.5</ele>
        <time>2023-09-27T14:33:13Z</time>
      </trkpt>
      <trkpt lat="49.89548" lon="2.50612">
        <ele>37.5</ele>
        <time>2023-09-27T14:33:14Z</time>
      </trkpt>
      <trkpt lat="49.89547" lon="2.50613">
        <ele>37.5</ele>
        <time>2023-09-27T14:33:15Z</time>
      </trkpt>
      <trkpt lat="49.89546" lon="2.50613">
        <ele>37.5</ele>
        <time>2023-09-27T14:33:16Z</time>
      </trkpt>
      <trkpt lat="49.89544" lon="2.50614">
        <ele>37.5</ele>
        <time>2023-09-27T14:33:17Z</time>
      </trkpt>
      <trkpt lat="49.89543" lon="2.50615">
        <ele>37.5</ele>
        <time>2023-09-27T14:33:18Z</time>
      </trkpt>
      <trkpt lat="49.89542" lon="2.50615">
        <ele>37.5</ele>
        <time>2023-09-27T14:33:19Z</time>
      </trkpt>
      <trkpt lat="49.8954" lon="2.50616">
        <ele>37.5</ele>
        <time>2023-09-27T14:33:20Z</time>
      </trkpt>
      <trkpt lat="49.89539" lon="2.50616">
        <ele>37.5</ele>
        <time>2023-09-27T14:33:21Z</time>
      </trkpt>
      <trkpt lat="49.89539" lon="2.50617">
        <ele>37.5</ele>
        <time>2023-09-27T14:33:22Z</time>
      </trkpt>
      <trkpt lat="49.89537" lon="2.50617">
        <ele>37.5</ele>
        <time>2023-09-27T14:33:23Z</time>
      </trkpt>
      <trkpt lat="49.89536" lon="2.50618">
        <ele>37.5</ele>
        <time>2023-09-27T14:33:24Z</time>
      </trkpt>
      <trkpt lat="49.89535" lon="2.50618">
        <ele>37.5</ele>
        <time>2023-09-27T14:33:25Z</time>
      </trkpt>
      <trkpt lat="49.89534" lon="2.50619">
        <ele>37.5</ele>
        <time>2023-09-27T14:33:26Z</time>
      </trkpt>
      <trkpt lat="49.89533" lon="2.5062">
        <ele>37.5</ele>
        <time>2023-09-27T14:33:27Z</time>
      </trkpt>
      <trkpt lat="49.89532" lon="2.5062">
        <ele>37.5</ele>
        <time>2023-09-27T14:33:28Z</time>
      </trkpt>
      <trkpt lat="49.89532" lon="2.50621">
        <ele>37.6</ele>
        <time>2023-09-27T14:33:29Z</time>
      </trkpt>
      <trkpt lat="49.89531" lon="2.50622">
        <ele>37.6</ele>
        <time>2023-09-27T14:33:30Z</time>
      </trkpt>
      <trkpt lat="49.8953" lon="2.50623">
        <ele>37.6</ele>
        <time>2023-09-27T14:33:31Z</time>
      </trkpt>
      <trkpt lat="49.89529" lon="2.50624">
        <ele>37.6</ele>
        <time>2023-09-27T14:33:32Z</time>
      </trkpt>
      <trkpt lat="49.89528" lon="2.50624">
        <ele>37.6</ele>
        <time>2023-09-27T14:33:33Z</time>
      </trkpt>
      <trkpt lat="49.89526" lon="2.50625">
        <ele>37.6</ele>
        <time>2023-09-27T14:33:34Z</time>
      </trkpt>
      <trkpt lat="49.89525" lon="2.50625">
        <ele>37.6</ele>
        <time>2023-09-27T14:33:35Z</time>
      </trkpt>
      <trkpt lat="49.89524" lon="2.50625">
        <ele>37.6</ele>
        <time>2023-09-27T14:33:36Z</time>
      </trkpt>
      <trkpt lat="49.89523" lon="2.50625">
        <ele>37.6</ele>
        <time>2023-09-27T14:33:37Z</time>
      </trkpt>
      <trkpt lat="49.89522" lon="2.50626">
        <ele>37.6</ele>
        <time>2023-09-27T14:33:38Z</time>
      </trkpt>
      <trkpt lat="49.89521" lon="2.50626">
        <ele>37.6</ele>
        <time>2023-09-27T14:33:39Z</time>
      </trkpt>
      <trkpt lat="49.8952" lon="2.50627">
        <ele>37.6</ele>
        <time>2023-09-27T14:33:40Z</time>
      </trkpt>
      <trkpt lat="49.89519" lon="2.50627">
        <ele>37.6</ele>
        <time>2023-09-27T14:33:41Z</time>
      </trkpt>
      <trkpt lat="49.89518" lon="2.50627">
        <ele>37.6</ele>
        <time>2023-09-27T14:33:42Z</time>
      </trkpt>
      <trkpt lat="49.89517" lon="2.50628">
        <ele>37.6</ele>
        <time>2023-09-27T14:33:43Z</time>
      </trkpt>
      <trkpt lat="49.89515" lon="2.50628">
        <ele>37.7</ele>
        <time>2023-09-27T14:33:44Z</time>
      </trkpt>
      <trkpt lat="49.89514" lon="2.50628">
        <ele>37.7</ele>
        <time>2023-09-27T14:33:45Z</time>
      </trkpt>
      <trkpt lat="49.89513" lon="2.50628">
        <ele>37.7</ele>
        <time>2023-09-27T14:33:46Z</time>
      </trkpt>
      <trkpt lat="49.89512" lon="2.50628">
        <ele>37.7</ele>
        <time>2023-09-27T14:33:47Z</time>
      </trkpt>
      <trkpt lat="49.89511" lon="2.50628">
        <ele>37.7</ele>
        <time>2023-09-27T14:33:48Z</time>
      </trkpt>
      <trkpt lat="49.8951" lon="2.50628">
        <ele>37.7</ele>
        <time>2023-09-27T14:33:49Z</time>
      </trkpt>
      <trkpt lat="49.89509" lon="2.50628">
        <ele>37.7</ele>
        <time>2023-09-27T14:33:50Z</time>
      </trkpt>
      <trkpt lat="49.89508" lon="2.50628">
        <ele>37.7</ele>
        <time>2023-09-27T14:33:51Z</time>
      </trkpt>
      <trkpt lat="49.89507" lon="2.50629">
        <ele>37.7</ele>
        <time>2023-09-27T14:33:52Z</time>
      </trkpt>
      <trkpt lat="49.89506" lon="2.50629">
        <ele>37.7</ele>
        <time>2023-09-27T14:33:53Z</time>
      </trkpt>
      <trkpt lat="49.89505" lon="2.5063">
        <ele>37.7</ele>
        <time>2023-09-27T14:33:54Z</time>
      </trkpt>
      <trkpt lat="49.89504" lon="2.5063">
        <ele>37.7</ele>
        <time>2023-09-27T14:33:55Z</time>
      </trkpt>
      <trkpt lat="49.89503" lon="2.5063">
        <ele>37.7</ele>
        <time>2023-09-27T14:33:56Z</time>
      </trkpt>
      <trkpt lat="49.89502" lon="2.50631">
        <ele>37.8</ele>
        <time>2023-09-27T14:33:57Z</time>
      </trkpt>
      <trkpt lat="49.89501" lon="2.50631">
        <ele>37.8</ele>
        <time>2023-09-27T14:33:58Z</time>
      </trkpt>
      <trkpt lat="49.895" lon="2.50631">
        <ele>37.8</ele>
        <time>2023-09-27T14:33:59Z</time>
      </trkpt>
      <trkpt lat="49.89499" lon="2.50631">
        <ele>37.8</ele>
        <time>2023-09-27T14:34:00Z</time>
      </trkpt>
      <trkpt lat="49.89498" lon="2.50631">
        <ele>37.8</ele>
        <time>2023-09-27T14:34:01Z</time>
      </trkpt>
      <trkpt lat="49.89497" lon="2.5063">
        <ele>37.8</ele>
        <time>2023-09-27T14:34:02Z</time>
      </trkpt>
      <trkpt lat="49.89496" lon="2.5063">
        <ele>37.8</ele>
        <time>2023-09-27T14:34:03Z</time>
      </trkpt>
      <trkpt lat="49.89495" lon="2.5063">
        <ele>37.8</ele>
        <time>2023-09-27T14:34:04Z</time>
      </trkpt>
      <trkpt lat="49.89494" lon="2.50629">
        <ele>37.8</ele>
        <time>2023-09-27T14:34:05Z</time>
      </trkpt>
      <trkpt lat="49.89493" lon="2.50629">
        <ele>37.8</ele>
        <time>2023-09-27T14:34:06Z</time>
      </trkpt>
      <trkpt lat="49.89492" lon="2.50629">
        <ele>37.8</ele>
        <time>2023-09-27T14:34:07Z</time>
      </trkpt>
      <trkpt lat="49.89491" lon="2.5063">
        <ele>37.9</ele>
        <time>2023-09-27T14:34:08Z</time>
      </trkpt>
      <trkpt lat="49.8949" lon="2.5063">
        <ele>37.9</ele>
        <time>2023-09-27T14:34:09Z</time>
      </trkpt>
      <trkpt lat="49.89489" lon="2.50632">
        <ele>37.9</ele>
        <time>2023-09-27T14:34:10Z</time>
      </trkpt>
      <trkpt lat="49.89489" lon="2.50633">
        <ele>37.9</ele>
        <time>2023-09-27T14:34:11Z</time>
      </trkpt>
      <trkpt lat="49.89488" lon="2.50634">
        <ele>37.9</ele>
        <time>2023-09-27T14:34:12Z</time>
      </trkpt>
      <trkpt lat="49.89487" lon="2.50634">
        <ele>37.9</ele>
        <time>2023-09-27T14:34:13Z</time>
      </trkpt>
      <trkpt lat="49.89486" lon="2.50635">
        <ele>37.9</ele>
        <time>2023-09-27T14:34:14Z</time>
      </trkpt>
      <trkpt lat="49.89485" lon="2.50636">
        <ele>37.9</ele>
        <time>2023-09-27T14:34:15Z</time>
      </trkpt>
      <trkpt lat="49.89485" lon="2.50637">
        <ele>37.9</ele>
        <time>2023-09-27T14:34:16Z</time>
      </trkpt>
      <trkpt lat="49.89484" lon="2.50638">
        <ele>37.9</ele>
        <time>2023-09-27T14:34:17Z</time>
      </trkpt>
      <trkpt lat="49.89483" lon="2.50638">
        <ele>37.9</ele>
        <time>2023-09-27T14:34:18Z</time>
      </trkpt>
      <trkpt lat="49.89482" lon="2.50639">
        <ele>37.9</ele>
        <time>2023-09-27T14:34:19Z</time>
      </trkpt>
      <trkpt lat="49.89481" lon="2.5064">
        <ele>37.9</ele>
        <time>2023-09-27T14:34:20Z</time>
      </trkpt>
      <trkpt lat="49.89479" lon="2.5064">
        <ele>38</ele>
        <time>2023-09-27T14:34:21Z</time>
      </trkpt>
      <trkpt lat="49.89478" lon="2.50641">
        <ele>38</ele>
        <time>2023-09-27T14:34:22Z</time>
      </trkpt>
      <trkpt lat="49.89477" lon="2.50641">
        <ele>38</ele>
        <time>2023-09-27T14:34:23Z</time>
      </trkpt>
      <trkpt lat="49.89476" lon="2.50641">
        <ele>38</ele>
        <time>2023-09-27T14:34:24Z</time>
      </trkpt>
      <trkpt lat="49.89475" lon="2.50642">
        <ele>38</ele>
        <time>2023-09-27T14:34:25Z</time>
      </trkpt>
      <trkpt lat="49.89474" lon="2.50642">
        <ele>38</ele>
        <time>2023-09-27T14:34:26Z</time>
      </trkpt>
      <trkpt lat="49.89473" lon="2.50642">
        <ele>38</ele>
        <time>2023-09-27T14:34:27Z</time>
      </trkpt>
      <trkpt lat="49.89472" lon="2.50642">
        <ele>38</ele>
        <time>2023-09-27T14:34:28Z</time>
      </trkpt>
      <trkpt lat="49.89471" lon="2.50643">
        <ele>38</ele>
        <time>2023-09-27T14:34:29Z</time>
      </trkpt>
      <trkpt lat="49.8947" lon="2.50643">
        <ele>38</ele>
        <time>2023-09-27T14:34:30Z</time>
      </trkpt>
      <trkpt lat="49.89469" lon="2.50643">
        <ele>38</ele>
        <time>2023-09-27T14:34:31Z</time>
      </trkpt>
      <trkpt lat="49.89468" lon="2.50643">
        <ele>38</ele>
        <time>2023-09-27T14:34:32Z</time>
      </trkpt>
      <trkpt lat="49.89466" lon="2.50643">
        <ele>38</ele>
        <time>2023-09-27T14:34:33Z</time>
      </trkpt>
      <trkpt lat="49.89465" lon="2.50643">
        <ele>38</ele>
        <time>2023-09-27T14:34:34Z</time>
      </trkpt>
      <trkpt lat="49.89464" lon="2.50643">
        <ele>38</ele>
        <time>2023-09-27T14:34:35Z</time>
      </trkpt>
      <trkpt lat="49.89463" lon="2.50643">
        <ele>38</ele>
        <time>2023-09-27T14:34:36Z</time>
      </trkpt>
      <trkpt lat="49.89462" lon="2.50643">
        <ele>38.1</ele>
        <time>2023-09-27T14:34:37Z</time>
      </trkpt>
      <trkpt lat="49.89461" lon="2.50643">
        <ele>38.1</ele>
        <time>2023-09-27T14:34:38Z</time>
      </trkpt>
      <trkpt lat="49.8946" lon="2.50643">
        <ele>38.1</ele>
        <time>2023-09-27T14:34:39Z</time>
      </trkpt>
      <trkpt lat="49.89459" lon="2.50644">
        <ele>38.1</ele>
        <time>2023-09-27T14:34:40Z</time>
      </trkpt>
      <trkpt lat="49.89458" lon="2.50644">
        <ele>38.1</ele>
        <time>2023-09-27T14:34:41Z</time>
      </trkpt>
      <trkpt lat="49.89456" lon="2.50644">
        <ele>38.1</ele>
        <time>2023-09-27T14:34:42Z</time>
      </trkpt>
      <trkpt lat="49.89455" lon="2.50644">
        <ele>38.1</ele>
        <time>2023-09-27T14:34:43Z</time>
      </trkpt>
      <trkpt lat="49.89454" lon="2.50645">
        <ele>38.1</ele>
        <time>2023-09-27T14:34:44Z</time>
      </trkpt>
      <trkpt lat="49.89452" lon="2.50645">
        <ele>38.1</ele>
        <time>2023-09-27T14:34:45Z</time>
      </trkpt>
      <trkpt lat="49.89451" lon="2.50645">
        <ele>38.1</ele>
        <time>2023-09-27T14:34:46Z</time>
      </trkpt>
      <trkpt lat="49.89451" lon="2.50645">
        <ele>38.1</ele>
        <time>2023-09-27T14:34:47Z</time>
      </trkpt>
      <trkpt lat="49.89449" lon="2.50645">
        <ele>38.1</ele>
        <time>2023-09-27T14:34:48Z</time>
      </trkpt>
      <trkpt lat="49.89448" lon="2.50645">
        <ele>38.1</ele>
        <time>2023-09-27T14:34:49Z</time>
      </trkpt>
      <trkpt lat="49.89447" lon="2.50646">
        <ele>38.2</ele>
        <time>2023-09-27T14:34:50Z</time>
      </trkpt>
      <trkpt lat="49.89445" lon="2.50646">
        <ele>38.2</ele>
        <time>2023-09-27T14:34:51Z</time>
      </trkpt>
      <trkpt lat="49.89444" lon="2.50646">
        <ele>38.2</ele>
        <time>2023-09-27T14:34:52Z</time>
      </trkpt>
      <trkpt lat="49.89443" lon="2.50646">
        <ele>38.2</ele>
        <time>2023-09-27T14:34:53Z</time>
      </trkpt>
      <trkpt lat="49.89441" lon="2.50646">
        <ele>38.2</ele>
        <time>2023-09-27T14:34:54Z</time>
      </trkpt>
      <trkpt lat="49.8944" lon="2.50646">
        <ele>38.2</ele>
        <time>2023-09-27T14:34:55Z</time>
      </trkpt>
      <trkpt lat="49.89439" lon="2.50646">
        <ele>38.2</ele>
        <time>2023-09-27T14:34:56Z</time>
      </trkpt>
      <trkpt lat="49.89437" lon="2.50647">
        <ele>38.2</ele>
        <time>2023-09-27T14:34:57Z</time>
      </trkpt>
      <trkpt lat="49.89436" lon="2.50647">
        <ele>38.2</ele>
        <time>2023-09-27T14:34:58Z</time>
      </trkpt>
      <trkpt lat="49.89435" lon="2.50647">
        <ele>38.2</ele>
        <time>2023-09-27T14:34:59Z</time>
      </trkpt>
      <trkpt lat="49.89434" lon="2.50647">
        <ele>38.3</ele>
        <time>2023-09-27T14:35:00Z</time>
      </trkpt>
      <trkpt lat="49.89433" lon="2.50647">
        <ele>38.3</ele>
        <time>2023-09-27T14:35:01Z</time>
      </trkpt>
      <trkpt lat="49.89432" lon="2.50647">
        <ele>38.3</ele>
        <time>2023-09-27T14:35:02Z</time>
      </trkpt>
      <trkpt lat="49.89431" lon="2.50648">
        <ele>38.3</ele>
        <time>2023-09-27T14:35:03Z</time>
      </trkpt>
      <trkpt lat="49.8943" lon="2.50648">
        <ele>38.3</ele>
        <time>2023-09-27T14:35:04Z</time>
      </trkpt>
      <trkpt lat="49.89429" lon="2.50648">
        <ele>38.3</ele>
        <time>2023-09-27T14:35:05Z</time>
      </trkpt>
      <trkpt lat="49.89427" lon="2.50649">
        <ele>38.3</ele>
        <time>2023-09-27T14:35:06Z</time>
      </trkpt>
      <trkpt lat="49.89426" lon="2.50649">
        <ele>38.3</ele>
        <time>2023-09-27T14:35:07Z</time>
      </trkpt>
      <trkpt lat="49.89425" lon="2.5065">
        <ele>38.4</ele>
        <time>2023-09-27T14:35:08Z</time>
      </trkpt>
      <trkpt lat="49.89424" lon="2.5065">
        <ele>38.4</ele>
        <time>2023-09-27T14:35:09Z</time>
      </trkpt>
      <trkpt lat="49.89423" lon="2.50651">
        <ele>38.4</ele>
        <time>2023-09-27T14:35:10Z</time>
      </trkpt>
      <trkpt lat="49.89422" lon="2.50651">
        <ele>38.4</ele>
        <time>2023-09-27T14:35:11Z</time>
      </trkpt>
      <trkpt lat="49.89421" lon="2.50652">
        <ele>38.4</ele>
        <time>2023-09-27T14:35:12Z</time>
      </trkpt>
      <trkpt lat="49.8942" lon="2.50652">
        <ele>38.4</ele>
        <time>2023-09-27T14:35:13Z</time>
      </trkpt>
      <trkpt lat="49.89419" lon="2.50653">
        <ele>38.4</ele>
        <time>2023-09-27T14:35:14Z</time>
      </trkpt>
      <trkpt lat="49.89418" lon="2.50653">
        <ele>38.4</ele>
        <time>2023-09-27T14:35:15Z</time>
      </trkpt>
      <trkpt lat="49.89417" lon="2.50653">
        <ele>38.4</ele>
        <time>2023-09-27T14:35:16Z</time>
      </trkpt>
      <trkpt lat="49.89416" lon="2.50654">
        <ele>38.5</ele>
        <time>2023-09-27T14:35:17Z</time>
      </trkpt>
      <trkpt lat="49.89415" lon="2.50654">
        <ele>38.5</ele>
        <time>2023-09-27T14:35:18Z</time>
      </trkpt>
      <trkpt lat="49.89414" lon="2.50654">
        <ele>38.5</ele>
        <time>2023-09-27T14:35:19Z</time>
      </trkpt>
      <trkpt lat="49.89413" lon="2.50654">
        <ele>38.5</ele>
        <time>2023-09-27T14:35:20Z</time>
      </trkpt>
      <trkpt lat="49.89412" lon="2.50654">
        <ele>38.5</ele>
        <time>2023-09-27T14:35:21Z</time>
      </trkpt>
      <trkpt lat="49.89411" lon="2.50654">
        <ele>38.5</ele>
        <time>2023-09-27T14:35:22Z</time>
      </trkpt>
      <trkpt lat="49.8941" lon="2.50654">
        <ele>38.5</ele>
        <time>2023-09-27T14:35:23Z</time>
      </trkpt>
      <trkpt lat="49.89409" lon="2.50654">
        <ele>38.5</ele>
        <time>2023-09-27T14:35:24Z</time>
      </trkpt>
      <trkpt lat="49.89408" lon="2.50654">
        <ele>38.5</ele>
        <time>2023-09-27T14:35:25Z</time>
      </trkpt>
      <trkpt lat="49.89408" lon="2.50654">
        <ele>38.6</ele>
        <time>2023-09-27T14:35:26Z</time>
      </trkpt>
      <trkpt lat="49.89407" lon="2.50655">
        <ele>38.6</ele>
        <time>2023-09-27T14:35:27Z</time>
      </trkpt>
      <trkpt lat="49.89406" lon="2.50655">
        <ele>38.6</ele>
        <time>2023-09-27T14:35:28Z</time>
      </trkpt>
      <trkpt lat="49.89406" lon="2.50656">
        <ele>38.6</ele>
        <time>2023-09-27T14:35:29Z</time>
      </trkpt>
      <trkpt lat="49.89405" lon="2.50657">
        <ele>38.6</ele>
        <time>2023-09-27T14:35:30Z</time>
      </trkpt>
      <trkpt lat="49.89404" lon="2.50658">
        <ele>38.6</ele>
        <time>2023-09-27T14:35:31Z</time>
      </trkpt>
      <trkpt lat="49.89403" lon="2.50659">
        <ele>38.6</ele>
        <time>2023-09-27T14:35:32Z</time>
      </trkpt>
      <trkpt lat="49.89402" lon="2.50659">
        <ele>38.6</ele>
        <time>2023-09-27T14:35:33Z</time>
      </trkpt>
      <trkpt lat="49.89401" lon="2.5066">
        <ele>38.6</ele>
        <time>2023-09-27T14:35:34Z</time>
      </trkpt>
      <trkpt lat="49.894" lon="2.5066">
        <ele>38.7</ele>
        <time>2023-09-27T14:35:35Z</time>
      </trkpt>
      <trkpt lat="49.89399" lon="2.50661">
        <ele>38.7</ele>
        <time>2023-09-27T14:35:36Z</time>
      </trkpt>
      <trkpt lat="49.89398" lon="2.50661">
        <ele>38.7</ele>
        <time>2023-09-27T14:35:37Z</time>
      </trkpt>
      <trkpt lat="49.89397" lon="2.50662">
        <ele>38.7</ele>
        <time>2023-09-27T14:35:38Z</time>
      </trkpt>
      <trkpt lat="49.89396" lon="2.50662">
        <ele>38.7</ele>
        <time>2023-09-27T14:35:39Z</time>
      </trkpt>
      <trkpt lat="49.89395" lon="2.50663">
        <ele>38.7</ele>
        <time>2023-09-27T14:35:40Z</time>
      </trkpt>
      <trkpt lat="49.89395" lon="2.50663">
        <ele>38.7</ele>
        <time>2023-09-27T14:35:41Z</time>
      </trkpt>
      <trkpt lat="49.89394" lon="2.50664">
        <ele>38.8</ele>
        <time>2023-09-27T14:35:42Z</time>
      </trkpt>
      <trkpt lat="49.89393" lon="2.50664">
        <ele>38.8</ele>
        <time>2023-09-27T14:35:43Z</time>
      </trkpt>
      <trkpt lat="49.89392" lon="2.50664">
        <ele>38.8</ele>
        <time>2023-09-27T14:35:44Z</time>
      </trkpt>
      <trkpt lat="49.89391" lon="2.50665">
        <ele>38.8</ele>
        <time>2023-09-27T14:35:45Z</time>
      </trkpt>
      <trkpt lat="49.8939" lon="2.50665">
        <ele>38.8</ele>
        <time>2023-09-27T14:35:46Z</time>
      </trkpt>
      <trkpt lat="49.89389" lon="2.50666">
        <ele>38.8</ele>
        <time>2023-09-27T14:35:47Z</time>
      </trkpt>
      <trkpt lat="49.89388" lon="2.50666">
        <ele>38.8</ele>
        <time>2023-09-27T14:35:48Z</time>
      </trkpt>
      <trkpt lat="49.89387" lon="2.50667">
        <ele>38.9</ele>
        <time>2023-09-27T14:35:49Z</time>
      </trkpt>
      <trkpt lat="49.89386" lon="2.50667">
        <ele>38.9</ele>
        <time>2023-09-27T14:35:50Z</time>
      </trkpt>
      <trkpt lat="49.89385" lon="2.50668">
        <ele>38.9</ele>
        <time>2023-09-27T14:35:51Z</time>
      </trkpt>
      <trkpt lat="49.89384" lon="2.50668">
        <ele>38.9</ele>
        <time>2023-09-27T14:35:52Z</time>
      </trkpt>
      <trkpt lat="49.89383" lon="2.50669">
        <ele>38.9</ele>
        <time>2023-09-27T14:35:53Z</time>
      </trkpt>
      <trkpt lat="49.89382" lon="2.50669">
        <ele>38.9</ele>
        <time>2023-09-27T14:35:54Z</time>
      </trkpt>
      <trkpt lat="49.89381" lon="2.5067">
        <ele>39</ele>
        <time>2023-09-27T14:35:55Z</time>
      </trkpt>
      <trkpt lat="49.8938" lon="2.5067">
        <ele>39</ele>
        <time>2023-09-27T14:35:56Z</time>
      </trkpt>
      <trkpt lat="49.89379" lon="2.50671">
        <ele>39</ele>
        <time>2023-09-27T14:35:57Z</time>
      </trkpt>
      <trkpt lat="49.89378" lon="2.50671">
        <ele>39</ele>
        <time>2023-09-27T14:35:58Z</time>
      </trkpt>
      <trkpt lat="49.89376" lon="2.50671">
        <ele>39</ele>
        <time>2023-09-27T14:35:59Z</time>
      </trkpt>
      <trkpt lat="49.89375" lon="2.50672">
        <ele>39.1</ele>
        <time>2023-09-27T14:36:00Z</time>
      </trkpt>
      <trkpt lat="49.89374" lon="2.50672">
        <ele>39.1</ele>
        <time>2023-09-27T14:36:01Z</time>
      </trkpt>
      <trkpt lat="49.89373" lon="2.50672">
        <ele>39.1</ele>
        <time>2023-09-27T14:36:02Z</time>
      </trkpt>
      <trkpt lat="49.89372" lon="2.50672">
        <ele>39.1</ele>
        <time>2023-09-27T14:36:03Z</time>
      </trkpt>
      <trkpt lat="49.89371" lon="2.50673">
        <ele>39.1</ele>
        <time>2023-09-27T14:36:04Z</time>
      </trkpt>
      <trkpt lat="49.8937" lon="2.50673">
        <ele>39.2</ele>
        <time>2023-09-27T14:36:05Z</time>
      </trkpt>
      <trkpt lat="49.89369" lon="2.50673">
        <ele>39.2</ele>
        <time>2023-09-27T14:36:06Z</time>
      </trkpt>
      <trkpt lat="49.89368" lon="2.50673">
        <ele>39.2</ele>
        <time>2023-09-27T14:36:07Z</time>
      </trkpt>
      <trkpt lat="49.89367" lon="2.50673">
        <ele>39.2</ele>
        <time>2023-09-27T14:36:08Z</time>
      </trkpt>
      <trkpt lat="49.89366" lon="2.50674">
        <ele>39.2</ele>
        <time>2023-09-27T14:36:09Z</time>
      </trkpt>
      <trkpt lat="49.89365" lon="2.50674">
        <ele>39.3</ele>
        <time>2023-09-27T14:36:10Z</time>
      </trkpt>
      <trkpt lat="49.89364" lon="2.50674">
        <ele>39.3</ele>
        <time>2023-09-27T14:36:11Z</time>
      </trkpt>
      <trkpt lat="49.89363" lon="2.50674">
        <ele>39.3</ele>
        <time>2023-09-27T14:36:12Z</time>
      </trkpt>
      <trkpt lat="49.89362" lon="2.50674">
        <ele>39.3</ele>
        <time>2023-09-27T14:36:13Z</time>
      </trkpt>
      <trkpt lat="49.89361" lon="2.50675">
        <ele>39.4</ele>
        <time>2023-09-27T14:36:14Z</time>
      </trkpt>
      <trkpt lat="49.8936" lon="2.50675">
        <ele>39.4</ele>
        <time>2023-09-27T14:36:15Z</time>
      </trkpt>
      <trkpt lat="49.89358" lon="2.50675">
        <ele>39.4</ele>
        <time>2023-09-27T14:36:16Z</time>
      </trkpt>
      <trkpt lat="49.89357" lon="2.50676">
        <ele>39.4</ele>
        <time>2023-09-27T14:36:17Z</time>
      </trkpt>
      <trkpt lat="49.89356" lon="2.50676">
        <ele>39.5</ele>
        <time>2023-09-27T14:36:18Z</time>
      </trkpt>
      <trkpt lat="49.89355" lon="2.50676">
        <ele>39.5</ele>
        <time>2023-09-27T14:36:19Z</time>
      </trkpt>
      <trkpt lat="49.89354" lon="2.50676">
        <ele>39.5</ele>
        <time>2023-09-27T14:36:20Z</time>
      </trkpt>
      <trkpt lat="49.89353" lon="2.50676">
        <ele>39.5</ele>
        <time>2023-09-27T14:36:21Z</time>
      </trkpt>
      <trkpt lat="49.89352" lon="2.50676">
        <ele>39.5</ele>
        <time>2023-09-27T14:36:22Z</time>
      </trkpt>
      <trkpt lat="49.89351" lon="2.50676">
        <ele>39.6</ele>
        <time>2023-09-27T14:36:23Z</time>
      </trkpt>
      <trkpt lat="49.8935" lon="2.50676">
        <ele>39.6</ele>
        <time>2023-09-27T14:36:24Z</time>
      </trkpt>
      <trkpt lat="49.89349" lon="2.50676">
        <ele>39.6</ele>
        <time>2023-09-27T14:36:25Z</time>
      </trkpt>
      <trkpt lat="49.89349" lon="2.50676">
        <ele>39.6</ele>
        <time>2023-09-27T14:36:26Z</time>
      </trkpt>
      <trkpt lat="49.89348" lon="2.50677">
        <ele>39.6</ele>
        <time>2023-09-27T14:36:27Z</time>
      </trkpt>
      <trkpt lat="49.89347" lon="2.50677">
        <ele>39.7</ele>
        <time>2023-09-27T14:36:28Z</time>
      </trkpt>
      <trkpt lat="49.89346" lon="2.50677">
        <ele>39.7</ele>
        <time>2023-09-27T14:36:29Z</time>
      </trkpt>
      <trkpt lat="49.89344" lon="2.50678">
        <ele>39.7</ele>
        <time>2023-09-27T14:36:30Z</time>
      </trkpt>
      <trkpt lat="49.89343" lon="2.50678">
        <ele>39.7</ele>
        <time>2023-09-27T14:36:31Z</time>
      </trkpt>
      <trkpt lat="49.89342" lon="2.50678">
        <ele>39.7</ele>
        <time>2023-09-27T14:36:32Z</time>
      </trkpt>
      <trkpt lat="49.89341" lon="2.50678">
        <ele>39.8</ele>
        <time>2023-09-27T14:36:33Z</time>
      </trkpt>
      <trkpt lat="49.8934" lon="2.50678">
        <ele>39.8</ele>
        <time>2023-09-27T14:36:34Z</time>
      </trkpt>
      <trkpt lat="49.8934" lon="2.50679">
        <ele>39.8</ele>
        <time>2023-09-27T14:36:35Z</time>
      </trkpt>
      <trkpt lat="49.89339" lon="2.50679">
        <ele>39.8</ele>
        <time>2023-09-27T14:36:36Z</time>
      </trkpt>
      <trkpt lat="49.89338" lon="2.50679">
        <ele>39.9</ele>
        <time>2023-09-27T14:36:37Z</time>
      </trkpt>
      <trkpt lat="49.89336" lon="2.5068">
        <ele>39.9</ele>
        <time>2023-09-27T14:36:38Z</time>
      </trkpt>
      <trkpt lat="49.89334" lon="2.5068">
        <ele>39.9</ele>
        <time>2023-09-27T14:36:39Z</time>
      </trkpt>
      <trkpt lat="49.89334" lon="2.5068">
        <ele>39.9</ele>
        <time>2023-09-27T14:36:40Z</time>
      </trkpt>
      <trkpt lat="49.89333" lon="2.5068">
        <ele>40</ele>
        <time>2023-09-27T14:36:41Z</time>
      </trkpt>
      <trkpt lat="49.89332" lon="2.5068">
        <ele>40</ele>
        <time>2023-09-27T14:36:42Z</time>
      </trkpt>
      <trkpt lat="49.89331" lon="2.50681">
        <ele>40</ele>
        <time>2023-09-27T14:36:43Z</time>
      </trkpt>
      <trkpt lat="49.89329" lon="2.50681">
        <ele>40</ele>
        <time>2023-09-27T14:36:44Z</time>
      </trkpt>
      <trkpt lat="49.89328" lon="2.50681">
        <ele>40.1</ele>
        <time>2023-09-27T14:36:45Z</time>
      </trkpt>
      <trkpt lat="49.89327" lon="2.50681">
        <ele>40.1</ele>
        <time>2023-09-27T14:36:46Z</time>
      </trkpt>
      <trkpt lat="49.89326" lon="2.50681">
        <ele>40.1</ele>
        <time>2023-09-27T14:36:47Z</time>
      </trkpt>
      <trkpt lat="49.89325" lon="2.50681">
        <ele>40.1</ele>
        <time>2023-09-27T14:36:48Z</time>
      </trkpt>
      <trkpt lat="49.89324" lon="2.50681">
        <ele>40.2</ele>
        <time>2023-09-27T14:36:49Z</time>
      </trkpt>
      <trkpt lat="49.89323" lon="2.50681">
        <ele>40.2</ele>
        <time>2023-09-27T14:36:50Z</time>
      </trkpt>
      <trkpt lat="49.89322" lon="2.50681">
        <ele>40.2</ele>
        <time>2023-09-27T14:36:51Z</time>
      </trkpt>
      <trkpt lat="49.89321" lon="2.50681">
        <ele>40.2</ele>
        <time>2023-09-27T14:36:52Z</time>
      </trkpt>
      <trkpt lat="49.8932" lon="2.50681">
        <ele>40.2</ele>
        <time>2023-09-27T14:36:53Z</time>
      </trkpt>
      <trkpt lat="49.8932" lon="2.50682">
        <ele>40.3</ele>
        <time>2023-09-27T14:36:54Z</time>
      </trkpt>
      <trkpt lat="49.89319" lon="2.50682">
        <ele>40.3</ele>
        <time>2023-09-27T14:36:55Z</time>
      </trkpt>
      <trkpt lat="49.89317" lon="2.50682">
        <ele>40.3</ele>
        <time>2023-09-27T14:36:56Z</time>
      </trkpt>
      <trkpt lat="49.89316" lon="2.50682">
        <ele>40.3</ele>
        <time>2023-09-27T14:36:57Z</time>
      </trkpt>
      <trkpt lat="49.89315" lon="2.50682">
        <ele>40.4</ele>
        <time>2023-09-27T14:36:58Z</time>
      </trkpt>
      <trkpt lat="49.89314" lon="2.50682">
        <ele>40.4</ele>
        <time>2023-09-27T14:36:59Z</time>
      </trkpt>
      <trkpt lat="49.89313" lon="2.50682">
        <ele>40.4</ele>
        <time>2023-09-27T14:37:00Z</time>
      </trkpt>
      <trkpt lat="49.89312" lon="2.50683">
        <ele>40.5</ele>
        <time>2023-09-27T14:37:01Z</time>
      </trkpt>
      <trkpt lat="49.89311" lon="2.50683">
        <ele>40.5</ele>
        <time>2023-09-27T14:37:02Z</time>
      </trkpt>
      <trkpt lat="49.8931" lon="2.50683">
        <ele>40.5</ele>
        <time>2023-09-27T14:37:03Z</time>
      </trkpt>
      <trkpt lat="49.89309" lon="2.50683">
        <ele>40.5</ele>
        <time>2023-09-27T14:37:04Z</time>
      </trkpt>
      <trkpt lat="49.89308" lon="2.50683">
        <ele>40.6</ele>
        <time>2023-09-27T14:37:05Z</time>
      </trkpt>
      <trkpt lat="49.89307" lon="2.50684">
        <ele>40.6</ele>
        <time>2023-09-27T14:37:06Z</time>
      </trkpt>
      <trkpt lat="49.89306" lon="2.50684">
        <ele>40.6</ele>
        <time>2023-09-27T14:37:07Z</time>
      </trkpt>
      <trkpt lat="49.89305" lon="2.50684">
        <ele>40.7</ele>
        <time>2023-09-27T14:37:08Z</time>
      </trkpt>
      <trkpt lat="49.89304" lon="2.50685">
        <ele>40.7</ele>
        <time>2023-09-27T14:37:09Z</time>
      </trkpt>
      <trkpt lat="49.89303" lon="2.50685">
        <ele>40.7</ele>
        <time>2023-09-27T14:37:10Z</time>
      </trkpt>
      <trkpt lat="49.89303" lon="2.50685">
        <ele>40.7</ele>
        <time>2023-09-27T14:37:11Z</time>
      </trkpt>
      <trkpt lat="49.89302" lon="2.50685">
        <ele>40.8</ele>
        <time>2023-09-27T14:37:12Z</time>
      </trkpt>
      <trkpt lat="49.89301" lon="2.50686">
        <ele>40.8</ele>
        <time>2023-09-27T14:37:13Z</time>
      </trkpt>
      <trkpt lat="49.893" lon="2.50686">
        <ele>40.8</ele>
        <time>2023-09-27T14:37:14Z</time>
      </trkpt>
      <trkpt lat="49.893" lon="2.50686">
        <ele>40.8</ele>
        <time>2023-09-27T14:37:15Z</time>
      </trkpt>
      <trkpt lat="49.89299" lon="2.50686">
        <ele>40.9</ele>
        <time>2023-09-27T14:37:16Z</time>
      </trkpt>
      <trkpt lat="49.89298" lon="2.50686">
        <ele>40.9</ele>
        <time>2023-09-27T14:37:17Z</time>
      </trkpt>
      <trkpt lat="49.89298" lon="2.50686">
        <ele>40.9</ele>
        <time>2023-09-27T14:37:18Z</time>
      </trkpt>
      <trkpt lat="49.89297" lon="2.50687">
        <ele>41</ele>
        <time>2023-09-27T14:37:19Z</time>
      </trkpt>
      <trkpt lat="49.89295" lon="2.50687">
        <ele>41</ele>
        <time>2023-09-27T14:37:20Z</time>
      </trkpt>
      <trkpt lat="49.89295" lon="2.50687">
        <ele>41</ele>
        <time>2023-09-27T14:37:21Z</time>
      </trkpt>
      <trkpt lat="49.89294" lon="2.50687">
        <ele>41.1</ele>
        <time>2023-09-27T14:37:22Z</time>
      </trkpt>
      <trkpt lat="49.89293" lon="2.50687">
        <ele>41.1</ele>
        <time>2023-09-27T14:37:23Z</time>
      </trkpt>
      <trkpt lat="49.89292" lon="2.50688">
        <ele>41.1</ele>
        <time>2023-09-27T14:37:24Z</time>
      </trkpt>
      <trkpt lat="49.89291" lon="2.50688">
        <ele>41.2</ele>
        <time>2023-09-27T14:37:25Z</time>
      </trkpt>
      <trkpt lat="49.8929" lon="2.50688">
        <ele>41.2</ele>
        <time>2023-09-27T14:37:26Z</time>
      </trkpt>
      <trkpt lat="49.89289" lon="2.50688">
        <ele>41.2</ele>
        <time>2023-09-27T14:37:27Z</time>
      </trkpt>
      <trkpt lat="49.89288" lon="2.50688">
        <ele>41.3</ele>
        <time>2023-09-27T14:37:28Z</time>
      </trkpt>
      <trkpt lat="49.89287" lon="2.50688">
        <ele>41.3</ele>
        <time>2023-09-27T14:37:29Z</time>
      </trkpt>
      <trkpt lat="49.89286" lon="2.50688">
        <ele>41.4</ele>
        <time>2023-09-27T14:37:30Z</time>
      </trkpt>
      <trkpt lat="49.89286" lon="2.50688">
        <ele>41.4</ele>
        <time>2023-09-27T14:37:31Z</time>
      </trkpt>
      <trkpt lat="49.89285" lon="2.50688">
        <ele>41.4</ele>
        <time>2023-09-27T14:37:32Z</time>
      </trkpt>
      <trkpt lat="49.89284" lon="2.50688">
        <ele>41.5</ele>
        <time>2023-09-27T14:37:33Z</time>
      </trkpt>
      <trkpt lat="49.89283" lon="2.50689">
        <ele>41.5</ele>
        <time>2023-09-27T14:37:34Z</time>
      </trkpt>
      <trkpt lat="49.89282" lon="2.50689">
        <ele>41.5</ele>
        <time>2023-09-27T14:37:35Z</time>
      </trkpt>
      <trkpt lat="49.89282" lon="2.50689">
        <ele>41.6</ele>
        <time>2023-09-27T14:37:36Z</time>
      </trkpt>
      <trkpt lat="49.89281" lon="2.50689">
        <ele>41.6</ele>
        <time>2023-09-27T14:37:37Z</time>
      </trkpt>
      <trkpt lat="49.8928" lon="2.5069">
        <ele>41.6</ele>
        <time>2023-09-27T14:37:38Z</time>
      </trkpt>
      <trkpt lat="49.89279" lon="2.5069">
        <ele>41.7</ele>
        <time>2023-09-27T14:37:39Z</time>
      </trkpt>
      <trkpt lat="49.89278" lon="2.5069">
        <ele>41.7</ele>
        <time>2023-09-27T14:37:40Z</time>
      </trkpt>
      <trkpt lat="49.89278" lon="2.5069">
        <ele>41.7</ele>
        <time>2023-09-27T14:37:41Z</time>
      </trkpt>
      <trkpt lat="49.89277" lon="2.50691">
        <ele>41.8</ele>
        <time>2023-09-27T14:37:42Z</time>
      </trkpt>
      <trkpt lat="49.89276" lon="2.50691">
        <ele>41.8</ele>
        <time>2023-09-27T14:37:43Z</time>
      </trkpt>
      <trkpt lat="49.89275" lon="2.50691">
        <ele>41.8</ele>
        <time>2023-09-27T14:37:44Z</time>
      </trkpt>
      <trkpt lat="49.89274" lon="2.50692">
        <ele>41.9</ele>
        <time>2023-09-27T14:37:45Z</time>
      </trkpt>
      <trkpt lat="49.89273" lon="2.50692">
        <ele>41.9</ele>
        <time>2023-09-27T14:37:46Z</time>
      </trkpt>
      <trkpt lat="49.89272" lon="2.50692">
        <ele>42</ele>
        <time>2023-09-27T14:37:47Z</time>
      </trkpt>
      <trkpt lat="49.8927" lon="2.50693">
        <ele>42.1</ele>
        <time>2023-09-27T14:37:48Z</time>
      </trkpt>
      <trkpt lat="49.89269" lon="2.50693">
        <ele>42.1</ele>
        <time>2023-09-27T14:37:49Z</time>
      </trkpt>
      <trkpt lat="49.89268" lon="2.50694">
        <ele>42.2</ele>
        <time>2023-09-27T14:37:50Z</time>
      </trkpt>
      <trkpt lat="49.89267" lon="2.50694">
        <ele>42.2</ele>
        <time>2023-09-27T14:37:51Z</time>
      </trkpt>
      <trkpt lat="49.89266" lon="2.50694">
        <ele>42.3</ele>
        <time>2023-09-27T14:37:52Z</time>
      </trkpt>
      <trkpt lat="49.89266" lon="2.50695">
        <ele>42.3</ele>
        <time>2023-09-27T14:37:53Z</time>
      </trkpt>
      <trkpt lat="49.89265" lon="2.50695">
        <ele>42.3</ele>
        <time>2023-09-27T14:37:54Z</time>
      </trkpt>
      <trkpt lat="49.89264" lon="2.50695">
        <ele>42.4</ele>
        <time>2023-09-27T14:37:55Z</time>
      </trkpt>
      <trkpt lat="49.89263" lon="2.50696">
        <ele>42.4</ele>
        <time>2023-09-27T14:37:56Z</time>
      </trkpt>
      <trkpt lat="49.89263" lon="2.50696">
        <ele>42.5</ele>
        <time>2023-09-27T14:37:57Z</time>
      </trkpt>
      <trkpt lat="49.89262" lon="2.50696">
        <ele>42.5</ele>
        <time>2023-09-27T14:37:58Z</time>
      </trkpt>
      <trkpt lat="49.89261" lon="2.50697">
        <ele>42.5</ele>
        <time>2023-09-27T14:37:59Z</time>
      </trkpt>
      <trkpt lat="49.8926" lon="2.50697">
        <ele>42.6</ele>
        <time>2023-09-27T14:38:00Z</time>
      </trkpt>
      <trkpt lat="49.89259" lon="2.50698">
        <ele>42.6</ele>
        <time>2023-09-27T14:38:01Z</time>
      </trkpt>
      <trkpt lat="49.89259" lon="2.50698">
        <ele>42.7</ele>
        <time>2023-09-27T14:38:02Z</time>
      </trkpt>
      <trkpt lat="49.89258" lon="2.50698">
        <ele>42.7</ele>
        <time>2023-09-27T14:38:03Z</time>
      </trkpt>
      <trkpt lat="49.89257" lon="2.50699">
        <ele>42.8</ele>
        <time>2023-09-27T14:38:04Z</time>
      </trkpt>
      <trkpt lat="49.89257" lon="2.50699">
        <ele>42.8</ele>
        <time>2023-09-27T14:38:05Z</time>
      </trkpt>
      <trkpt lat="49.89256" lon="2.507">
        <ele>42.8</ele>
        <time>2023-09-27T14:38:06Z</time>
      </trkpt>
      <trkpt lat="49.89255" lon="2.507">
        <ele>42.9</ele>
        <time>2023-09-27T14:38:07Z</time>
      </trkpt>
      <trkpt lat="49.89254" lon="2.50701">
        <ele>42.9</ele>
        <time>2023-09-27T14:38:08Z</time>
      </trkpt>
      <trkpt lat="49.89253" lon="2.50701">
        <ele>43</ele>
        <time>2023-09-27T14:38:09Z</time>
      </trkpt>
      <trkpt lat="49.89253" lon="2.50701">
        <ele>43</ele>
        <time>2023-09-27T14:38:10Z</time>
      </trkpt>
      <trkpt lat="49.89252" lon="2.50702">
        <ele>43.1</ele>
        <time>2023-09-27T14:38:11Z</time>
      </trkpt>
      <trkpt lat="49.89251" lon="2.50702">
        <ele>43.1</ele>
        <time>2023-09-27T14:38:12Z</time>
      </trkpt>
      <trkpt lat="49.8925" lon="2.50702">
        <ele>43.1</ele>
        <time>2023-09-27T14:38:13Z</time>
      </trkpt>
      <trkpt lat="49.89249" lon="2.50703">
        <ele>43.2</ele>
        <time>2023-09-27T14:38:14Z</time>
      </trkpt>
      <trkpt lat="49.89248" lon="2.50703">
        <ele>43.2</ele>
        <time>2023-09-27T14:38:15Z</time>
      </trkpt>
      <trkpt lat="49.89247" lon="2.50703">
        <ele>43.3</ele>
        <time>2023-09-27T14:38:16Z</time>
      </trkpt>
      <trkpt lat="49.89246" lon="2.50704">
        <ele>43.3</ele>
        <time>2023-09-27T14:38:17Z</time>
      </trkpt>
      <trkpt lat="49.89246" lon="2.50704">
        <ele>43.4</ele>
        <time>2023-09-27T14:38:18Z</time>
      </trkpt>
      <trkpt lat="49.89245" lon="2.50704">
        <ele>43.4</ele>
        <time>2023-09-27T14:38:19Z</time>
      </trkpt>
      <trkpt lat="49.89243" lon="2.50704">
        <ele>43.5</ele>
        <time>2023-09-27T14:38:20Z</time>
      </trkpt>
      <trkpt lat="49.89242" lon="2.50704">
        <ele>43.6</ele>
        <time>2023-09-27T14:38:21Z</time>
      </trkpt>
      <trkpt lat="49.89241" lon="2.50704">
        <ele>43.6</ele>
        <time>2023-09-27T14:38:22Z</time>
      </trkpt>
      <trkpt lat="49.8924" lon="2.50704">
        <ele>43.7</ele>
        <time>2023-09-27T14:38:23Z</time>
      </trkpt>
      <trkpt lat="49.89239" lon="2.50705">
        <ele>43.8</ele>
        <time>2023-09-27T14:38:24Z</time>
      </trkpt>
      <trkpt lat="49.89238" lon="2.50705">
        <ele>43.8</ele>
        <time>2023-09-27T14:38:25Z</time>
      </trkpt>
      <trkpt lat="49.89237" lon="2.50705">
        <ele>43.9</ele>
        <time>2023-09-27T14:38:26Z</time>
      </trkpt>
      <trkpt lat="49.89236" lon="2.50705">
        <ele>44</ele>
        <time>2023-09-27T14:38:27Z</time>
      </trkpt>
      <trkpt lat="49.89235" lon="2.50705">
        <ele>44</ele>
        <time>2023-09-27T14:38:28Z</time>
      </trkpt>
      <trkpt lat="49.89234" lon="2.50706">
        <ele>44.1</ele>
        <time>2023-09-27T14:38:29Z</time>
      </trkpt>
      <trkpt lat="49.89233" lon="2.50706">
        <ele>44.1</ele>
        <time>2023-09-27T14:38:30Z</time>
      </trkpt>
      <trkpt lat="49.89232" lon="2.50706">
        <ele>44.2</ele>
        <time>2023-09-27T14:38:31Z</time>
      </trkpt>
      <trkpt lat="49.89231" lon="2.50705">
        <ele>44.3</ele>
        <time>2023-09-27T14:38:32Z</time>
      </trkpt>
      <trkpt lat="49.8923" lon="2.50705">
        <ele>44.3</ele>
        <time>2023-09-27T14:38:33Z</time>
      </trkpt>
      <trkpt lat="49.89229" lon="2.50705">
        <ele>44.4</ele>
        <time>2023-09-27T14:38:34Z</time>
      </trkpt>
      <trkpt lat="49.89228" lon="2.50705">
        <ele>44.4</ele>
        <time>2023-09-27T14:38:35Z</time>
      </trkpt>
      <trkpt lat="49.89227" lon="2.50705">
        <ele>44.5</ele>
        <time>2023-09-27T14:38:36Z</time>
      </trkpt>
      <trkpt lat="49.89226" lon="2.50705">
        <ele>44.5</ele>
        <time>2023-09-27T14:38:37Z</time>
      </trkpt>
      <trkpt lat="49.89225" lon="2.50705">
        <ele>44.6</ele>
        <time>2023-09-27T14:38:38Z</time>
      </trkpt>
      <trkpt lat="49.89224" lon="2.50705">
        <ele>44.7</ele>
        <time>2023-09-27T14:38:39Z</time>
      </trkpt>
      <trkpt lat="49.89223" lon="2.50705">
        <ele>44.7</ele>
        <time>2023-09-27T14:38:40Z</time>
      </trkpt>
      <trkpt lat="49.89222" lon="2.50705">
        <ele>44.8</ele>
        <time>2023-09-27T14:38:41Z</time>
      </trkpt>
      <trkpt lat="49.89221" lon="2.50704">
        <ele>44.8</ele>
        <time>2023-09-27T14:38:42Z</time>
      </trkpt>
      <trkpt lat="49.89221" lon="2.50704">
        <ele>44.9</ele>
        <time>2023-09-27T14:38:43Z</time>
      </trkpt>
      <trkpt lat="49.8922" lon="2.50704">
        <ele>44.9</ele>
        <time>2023-09-27T14:38:44Z</time>
      </trkpt>
      <trkpt lat="49.89219" lon="2.50704">
        <ele>45</ele>
        <time>2023-09-27T14:38:45Z</time>
      </trkpt>
      <trkpt lat="49.89218" lon="2.50705">
        <ele>45</ele>
        <time>2023-09-27T14:38:46Z</time>
      </trkpt>
      <trkpt lat="49.89217" lon="2.50705">
        <ele>45.1</ele>
        <time>2023-09-27T14:38:47Z</time>
      </trkpt>
      <trkpt lat="49.89217" lon="2.50705">
        <ele>45.1</ele>
        <time>2023-09-27T14:38:48Z</time>
      </trkpt>
      <trkpt lat="49.89216" lon="2.50705">
        <ele>45.2</ele>
        <time>2023-09-27T14:38:49Z</time>
      </trkpt>
      <trkpt lat="49.89215" lon="2.50705">
        <ele>45.2</ele>
        <time>2023-09-27T14:38:50Z</time>
      </trkpt>
      <trkpt lat="49.89214" lon="2.50705">
        <ele>45.2</ele>
        <time>2023-09-27T14:38:51Z</time>
      </trkpt>
      <trkpt lat="49.89213" lon="2.50705">
        <ele>45.3</ele>
        <time>2023-09-27T14:38:52Z</time>
      </trkpt>
      <trkpt lat="49.89212" lon="2.50705">
        <ele>45.4</ele>
        <time>2023-09-27T14:38:53Z</time>
      </trkpt>
      <trkpt lat="49.89211" lon="2.50705">
        <ele>45.4</ele>
        <time>2023-09-27T14:38:54Z</time>
      </trkpt>
      <trkpt lat="49.8921" lon="2.50705">
        <ele>45.5</ele>
        <time>2023-09-27T14:38:55Z</time>
      </trkpt>
      <trkpt lat="49.89209" lon="2.50705">
        <ele>45.5</ele>
        <time>2023-09-27T14:38:56Z</time>
      </trkpt>
      <trkpt lat="49.89208" lon="2.50705">
        <ele>45.6</ele>
        <time>2023-09-27T14:38:57Z</time>
      </trkpt>
      <trkpt lat="49.89207" lon="2.50705">
        <ele>45.6</ele>
        <time>2023-09-27T14:38:58Z</time>
      </trkpt>
      <trkpt lat="49.89207" lon="2.50705">
        <ele>45.7</ele>
        <time>2023-09-27T14:38:59Z</time>
      </trkpt>
      <trkpt lat="49.89206" lon="2.50705">
        <ele>45.7</ele>
        <time>2023-09-27T14:39:00Z</time>
      </trkpt>
      <trkpt lat="49.89205" lon="2.50705">
        <ele>45.8</ele>
        <time>2023-09-27T14:39:01Z</time>
      </trkpt>
      <trkpt lat="49.89204" lon="2.50705">
        <ele>45.8</ele>
        <time>2023-09-27T14:39:02Z</time>
      </trkpt>
      <trkpt lat="49.89203" lon="2.50705">
        <ele>45.9</ele>
        <time>2023-09-27T14:39:03Z</time>
      </trkpt>
      <trkpt lat="49.89202" lon="2.50705">
        <ele>46</ele>
        <time>2023-09-27T14:39:04Z</time>
      </trkpt>
      <trkpt lat="49.89201" lon="2.50706">
        <ele>46</ele>
        <time>2023-09-27T14:39:05Z</time>
      </trkpt>
      <trkpt lat="49.892" lon="2.50706">
        <ele>46.1</ele>
        <time>2023-09-27T14:39:06Z</time>
      </trkpt>
      <trkpt lat="49.89199" lon="2.50706">
        <ele>46.1</ele>
        <time>2023-09-27T14:39:07Z</time>
      </trkpt>
      <trkpt lat="49.89198" lon="2.50706">
        <ele>46.2</ele>
        <time>2023-09-27T14:39:08Z</time>
      </trkpt>
      <trkpt lat="49.89197" lon="2.50706">
        <ele>46.3</ele>
        <time>2023-09-27T14:39:09Z</time>
      </trkpt>
      <trkpt lat="49.89196" lon="2.50707">
        <ele>46.3</ele>
        <time>2023-09-27T14:39:10Z</time>
      </trkpt>
      <trkpt lat="49.89195" lon="2.50707">
        <ele>46.4</ele>
        <time>2023-09-27T14:39:11Z</time>
      </trkpt>
      <trkpt lat="49.89195" lon="2.50707">
        <ele>46.4</ele>
        <time>2023-09-27T14:39:12Z</time>
      </trkpt>
      <trkpt lat="49.89194" lon="2.50708">
        <ele>46.5</ele>
        <time>2023-09-27T14:39:13Z</time>
      </trkpt>
      <trkpt lat="49.89193" lon="2.50709">
        <ele>46.6</ele>
        <time>2023-09-27T14:39:14Z</time>
      </trkpt>
      <trkpt lat="49.89192" lon="2.50709">
        <ele>46.6</ele>
        <time>2023-09-27T14:39:15Z</time>
      </trkpt>
      <trkpt lat="49.89191" lon="2.5071">
        <ele>46.7</ele>
        <time>2023-09-27T14:39:16Z</time>
      </trkpt>
      <trkpt lat="49.8919" lon="2.5071">
        <ele>46.8</ele>
        <time>2023-09-27T14:39:17Z</time>
      </trkpt>
      <trkpt lat="49.89189" lon="2.5071">
        <ele>46.8</ele>
        <time>2023-09-27T14:39:18Z</time>
      </trkpt>
      <trkpt lat="49.89188" lon="2.50711">
        <ele>46.9</ele>
        <time>2023-09-27T14:39:19Z</time>
      </trkpt>
      <trkpt lat="49.89187" lon="2.50711">
        <ele>47</ele>
        <time>2023-09-27T14:39:20Z</time>
      </trkpt>
      <trkpt lat="49.89186" lon="2.50712">
        <ele>47</ele>
        <time>2023-09-27T14:39:21Z</time>
      </trkpt>
      <trkpt lat="49.89185" lon="2.50712">
        <ele>47.1</ele>
        <time>2023-09-27T14:39:22Z</time>
      </trkpt>
      <trkpt lat="49.89184" lon="2.50712">
        <ele>47.2</ele>
        <time>2023-09-27T14:39:23Z</time>
      </trkpt>
      <trkpt lat="49.89183" lon="2.50713">
        <ele>47.2</ele>
        <time>2023-09-27T14:39:24Z</time>
      </trkpt>
      <trkpt lat="49.89182" lon="2.50713">
        <ele>47.3</ele>
        <time>2023-09-27T14:39:25Z</time>
      </trkpt>
      <trkpt lat="49.89182" lon="2.50714">
        <ele>47.3</ele>
        <time>2023-09-27T14:39:26Z</time>
      </trkpt>
      <trkpt lat="49.89181" lon="2.50714">
        <ele>47.4</ele>
        <time>2023-09-27T14:39:27Z</time>
      </trkpt>
      <trkpt lat="49.8918" lon="2.50715">
        <ele>47.4</ele>
        <time>2023-09-27T14:39:28Z</time>
      </trkpt>
      <trkpt lat="49.89179" lon="2.50715">
        <ele>47.5</ele>
        <time>2023-09-27T14:39:29Z</time>
      </trkpt>
      <trkpt lat="49.89179" lon="2.50716">
        <ele>47.5</ele>
        <time>2023-09-27T14:39:30Z</time>
      </trkpt>
      <trkpt lat="49.89178" lon="2.50716">
        <ele>47.6</ele>
        <time>2023-09-27T14:39:31Z</time>
      </trkpt>
      <trkpt lat="49.89178" lon="2.50716">
        <ele>47.6</ele>
        <time>2023-09-27T14:39:32Z</time>
      </trkpt>
      <trkpt lat="49.89177" lon="2.50717">
        <ele>47.7</ele>
        <time>2023-09-27T14:39:33Z</time>
      </trkpt>
      <trkpt lat="49.89176" lon="2.50717">
        <ele>47.7</ele>
        <time>2023-09-27T14:39:34Z</time>
      </trkpt>
      <trkpt lat="49.89175" lon="2.50718">
        <ele>47.8</ele>
        <time>2023-09-27T14:39:35Z</time>
      </trkpt>
      <trkpt lat="49.89174" lon="2.50718">
        <ele>47.9</ele>
        <time>2023-09-27T14:39:36Z</time>
      </trkpt>
      <trkpt lat="49.89173" lon="2.50719">
        <ele>48</ele>
        <time>2023-09-27T14:39:37Z</time>
      </trkpt>
      <trkpt lat="49.89172" lon="2.50719">
        <ele>48</ele>
        <time>2023-09-27T14:39:38Z</time>
      </trkpt>
      <trkpt lat="49.89171" lon="2.50719">
        <ele>48.1</ele>
        <time>2023-09-27T14:39:39Z</time>
      </trkpt>
      <trkpt lat="49.8917" lon="2.5072">
        <ele>48.2</ele>
        <time>2023-09-27T14:39:40Z</time>
      </trkpt>
      <trkpt lat="49.89169" lon="2.5072">
        <ele>48.2</ele>
        <time>2023-09-27T14:39:41Z</time>
      </trkpt>
      <trkpt lat="49.89169" lon="2.5072">
        <ele>48.3</ele>
        <time>2023-09-27T14:39:42Z</time>
      </trkpt>
      <trkpt lat="49.89168" lon="2.5072">
        <ele>48.3</ele>
        <time>2023-09-27T14:39:43Z</time>
      </trkpt>
      <trkpt lat="49.89167" lon="2.50721">
        <ele>48.4</ele>
        <time>2023-09-27T14:39:44Z</time>
      </trkpt>
      <trkpt lat="49.89166" lon="2.50721">
        <ele>48.4</ele>
        <time>2023-09-27T14:39:45Z</time>
      </trkpt>
      <trkpt lat="49.89166" lon="2.50721">
        <ele>48.5</ele>
        <time>2023-09-27T14:39:46Z</time>
      </trkpt>
      <trkpt lat="49.89165" lon="2.50722">
        <ele>48.5</ele>
        <time>2023-09-27T14:39:47Z</time>
      </trkpt>
      <trkpt lat="49.89164" lon="2.50722">
        <ele>48.6</ele>
        <time>2023-09-27T14:39:48Z</time>
      </trkpt>
      <trkpt lat="49.89164" lon="2.50722">
        <ele>48.6</ele>
        <time>2023-09-27T14:39:49Z</time>
      </trkpt>
      <trkpt lat="49.89163" lon="2.50723">
        <ele>48.7</ele>
        <time>2023-09-27T14:39:50Z</time>
      </trkpt>
      <trkpt lat="49.89162" lon="2.50723">
        <ele>48.7</ele>
        <time>2023-09-27T14:39:51Z</time>
      </trkpt>
      <trkpt lat="49.89162" lon="2.50723">
        <ele>48.8</ele>
        <time>2023-09-27T14:39:52Z</time>
      </trkpt>
      <trkpt lat="49.89161" lon="2.50723">
        <ele>48.8</ele>
        <time>2023-09-27T14:39:53Z</time>
      </trkpt>
      <trkpt lat="49.89161" lon="2.50724">
        <ele>48.9</ele>
        <time>2023-09-27T14:39:54Z</time>
      </trkpt>
      <trkpt lat="49.8916" lon="2.50724">
        <ele>48.9</ele>
        <time>2023-09-27T14:39:55Z</time>
      </trkpt>
      <trkpt lat="49.8916" lon="2.50724">
        <ele>48.9</ele>
        <time>2023-09-27T14:39:56Z</time>
      </trkpt>
      <trkpt lat="49.89159" lon="2.50724">
        <ele>49</ele>
        <time>2023-09-27T14:39:57Z</time>
      </trkpt>
      <trkpt lat="49.89158" lon="2.50725">
        <ele>49</ele>
        <time>2023-09-27T14:39:58Z</time>
      </trkpt>
      <trkpt lat="49.89158" lon="2.50725">
        <ele>49.1</ele>
        <time>2023-09-27T14:39:59Z</time>
      </trkpt>
      <trkpt lat="49.89157" lon="2.50725">
        <ele>49.1</ele>
        <time>2023-09-27T14:40:00Z</time>
      </trkpt>
      <trkpt lat="49.89156" lon="2.50725">
        <ele>49.2</ele>
        <time>2023-09-27T14:40:01Z</time>
      </trkpt>
      <trkpt lat="49.89155" lon="2.50725">
        <ele>49.2</ele>
        <time>2023-09-27T14:40:02Z</time>
      </trkpt>
      <trkpt lat="49.89154" lon="2.50726">
        <ele>49.3</ele>
        <time>2023-09-27T14:40:03Z</time>
      </trkpt>
      <trkpt lat="49.89153" lon="2.50726">
        <ele>49.4</ele>
        <time>2023-09-27T14:40:04Z</time>
      </trkpt>
      <trkpt lat="49.89153" lon="2.50726">
        <ele>49.4</ele>
        <time>2023-09-27T14:40:05Z</time>
      </trkpt>
      <trkpt lat="49.89152" lon="2.50726">
        <ele>49.5</ele>
        <time>2023-09-27T14:40:06Z</time>
      </trkpt>
      <trkpt lat="49.89151" lon="2.50726">
        <ele>49.5</ele>
        <time>2023-09-27T14:40:07Z</time>
      </trkpt>
      <trkpt lat="49.8915" lon="2.50727">
        <ele>49.6</ele>
        <time>2023-09-27T14:40:08Z</time>
      </trkpt>
      <trkpt lat="49.8915" lon="2.50727">
        <ele>49.6</ele>
        <time>2023-09-27T14:40:09Z</time>
      </trkpt>
      <trkpt lat="49.89149" lon="2.50727">
        <ele>49.7</ele>
        <time>2023-09-27T14:40:10Z</time>
      </trkpt>
      <trkpt lat="49.89148" lon="2.50727">
        <ele>49.7</ele>
        <time>2023-09-27T14:40:11Z</time>
      </trkpt>
      <trkpt lat="49.89147" lon="2.50728">
        <ele>49.8</ele>
        <time>2023-09-27T14:40:12Z</time>
      </trkpt>
      <trkpt lat="49.89147" lon="2.50728">
        <ele>49.8</ele>
        <time>2023-09-27T14:40:13Z</time>
      </trkpt>
      <trkpt lat="49.89145" lon="2.50728">
        <ele>49.9</ele>
        <time>2023-09-27T14:40:14Z</time>
      </trkpt>
      <trkpt lat="49.89145" lon="2.50728">
        <ele>50</ele>
        <time>2023-09-27T14:40:15Z</time>
      </trkpt>
      <trkpt lat="49.89144" lon="2.50729">
        <ele>50.1</ele>
        <time>2023-09-27T14:40:16Z</time>
      </trkpt>
      <trkpt lat="49.89143" lon="2.50729">
        <ele>50.1</ele>
        <time>2023-09-27T14:40:17Z</time>
      </trkpt>
      <trkpt lat="49.89142" lon="2.50729">
        <ele>50.2</ele>
        <time>2023-09-27T14:40:18Z</time>
      </trkpt>
      <trkpt lat="49.89141" lon="2.5073">
        <ele>50.2</ele>
        <time>2023-09-27T14:40:19Z</time>
      </trkpt>
      <trkpt lat="49.8914" lon="2.5073">
        <ele>50.3</ele>
        <time>2023-09-27T14:40:20Z</time>
      </trkpt>
      <trkpt lat="49.89139" lon="2.5073">
        <ele>50.4</ele>
        <time>2023-09-27T14:40:21Z</time>
      </trkpt>
      <trkpt lat="49.89138" lon="2.5073">
        <ele>50.5</ele>
        <time>2023-09-27T14:40:22Z</time>
      </trkpt>
      <trkpt lat="49.89137" lon="2.50731">
        <ele>50.5</ele>
        <time>2023-09-27T14:40:23Z</time>
      </trkpt>
      <trkpt lat="49.89136" lon="2.50731">
        <ele>50.6</ele>
        <time>2023-09-27T14:40:24Z</time>
      </trkpt>
      <trkpt lat="49.89135" lon="2.50731">
        <ele>50.7</ele>
        <time>2023-09-27T14:40:25Z</time>
      </trkpt>
      <trkpt lat="49.89134" lon="2.50732">
        <ele>50.7</ele>
        <time>2023-09-27T14:40:26Z</time>
      </trkpt>
      <trkpt lat="49.89134" lon="2.50732">
        <ele>50.8</ele>
        <time>2023-09-27T14:40:27Z</time>
      </trkpt>
      <trkpt lat="49.89133" lon="2.50732">
        <ele>50.9</ele>
        <time>2023-09-27T14:40:28Z</time>
      </trkpt>
      <trkpt lat="49.89132" lon="2.50732">
        <ele>50.9</ele>
        <time>2023-09-27T14:40:29Z</time>
      </trkpt>
      <trkpt lat="49.89131" lon="2.50732">
        <ele>51</ele>
        <time>2023-09-27T14:40:30Z</time>
      </trkpt>
      <trkpt lat="49.8913" lon="2.50733">
        <ele>51.1</ele>
        <time>2023-09-27T14:40:31Z</time>
      </trkpt>
      <trkpt lat="49.89129" lon="2.50733">
        <ele>51.1</ele>
        <time>2023-09-27T14:40:32Z</time>
      </trkpt>
      <trkpt lat="49.89129" lon="2.50733">
        <ele>51.2</ele>
        <time>2023-09-27T14:40:33Z</time>
      </trkpt>
      <trkpt lat="49.89128" lon="2.50733">
        <ele>51.2</ele>
        <time>2023-09-27T14:40:34Z</time>
      </trkpt>
      <trkpt lat="49.89127" lon="2.50733">
        <ele>51.3</ele>
        <time>2023-09-27T14:40:35Z</time>
      </trkpt>
      <trkpt lat="49.89127" lon="2.50733">
        <ele>51.3</ele>
        <time>2023-09-27T14:40:36Z</time>
      </trkpt>
      <trkpt lat="49.89126" lon="2.50734">
        <ele>51.4</ele>
        <time>2023-09-27T14:40:37Z</time>
      </trkpt>
      <trkpt lat="49.89125" lon="2.50734">
        <ele>51.4</ele>
        <time>2023-09-27T14:40:38Z</time>
      </trkpt>
      <trkpt lat="49.89125" lon="2.50734">
        <ele>51.5</ele>
        <time>2023-09-27T14:40:39Z</time>
      </trkpt>
      <trkpt lat="49.89124" lon="2.50734">
        <ele>51.5</ele>
        <time>2023-09-27T14:40:40Z</time>
      </trkpt>
      <trkpt lat="49.89123" lon="2.50735">
        <ele>51.6</ele>
        <time>2023-09-27T14:40:41Z</time>
      </trkpt>
      <trkpt lat="49.89122" lon="2.50735">
        <ele>51.7</ele>
        <time>2023-09-27T14:40:42Z</time>
      </trkpt>
      <trkpt lat="49.89121" lon="2.50735">
        <ele>51.7</ele>
        <time>2023-09-27T14:40:43Z</time>
      </trkpt>
      <trkpt lat="49.8912" lon="2.50736">
        <ele>51.8</ele>
        <time>2023-09-27T14:40:44Z</time>
      </trkpt>
      <trkpt lat="49.89119" lon="2.50736">
        <ele>51.9</ele>
        <time>2023-09-27T14:40:45Z</time>
      </trkpt>
      <trkpt lat="49.89118" lon="2.50736">
        <ele>52</ele>
        <time>2023-09-27T14:40:46Z</time>
      </trkpt>
      <trkpt lat="49.89117" lon="2.50737">
        <ele>52</ele>
        <time>2023-09-27T14:40:47Z</time>
      </trkpt>
      <trkpt lat="49.89116" lon="2.50737">
        <ele>52.1</ele>
        <time>2023-09-27T14:40:48Z</time>
      </trkpt>
      <trkpt lat="49.89116" lon="2.50737">
        <ele>52.1</ele>
        <time>2023-09-27T14:40:49Z</time>
      </trkpt>
      <trkpt lat="49.89115" lon="2.50737">
        <ele>52.2</ele>
        <time>2023-09-27T14:40:50Z</time>
      </trkpt>
      <trkpt lat="49.89114" lon="2.50738">
        <ele>52.3</ele>
        <time>2023-09-27T14:40:51Z</time>
      </trkpt>
      <trkpt lat="49.89113" lon="2.50738">
        <ele>52.3</ele>
        <time>2023-09-27T14:40:52Z</time>
      </trkpt>
      <trkpt lat="49.89113" lon="2.50738">
        <ele>52.4</ele>
        <time>2023-09-27T14:40:53Z</time>
      </trkpt>
      <trkpt lat="49.89112" lon="2.50738">
        <ele>52.4</ele>
        <time>2023-09-27T14:40:54Z</time>
      </trkpt>
      <trkpt lat="49.89111" lon="2.50738">
        <ele>52.5</ele>
        <time>2023-09-27T14:40:55Z</time>
      </trkpt>
      <trkpt lat="49.8911" lon="2.50739">
        <ele>52.6</ele>
        <time>2023-09-27T14:40:56Z</time>
      </trkpt>
      <trkpt lat="49.89109" lon="2.50739">
        <ele>52.6</ele>
        <time>2023-09-27T14:40:57Z</time>
      </trkpt>
      <trkpt lat="49.89108" lon="2.50739">
        <ele>52.7</ele>
        <time>2023-09-27T14:40:58Z</time>
      </trkpt>
      <trkpt lat="49.89108" lon="2.50739">
        <ele>52.8</ele>
        <time>2023-09-27T14:40:59Z</time>
      </trkpt>
      <trkpt lat="49.89107" lon="2.5074">
        <ele>52.9</ele>
        <time>2023-09-27T14:41:00Z</time>
      </trkpt>
      <trkpt lat="49.89106" lon="2.5074">
        <ele>52.9</ele>
        <time>2023-09-27T14:41:01Z</time>
      </trkpt>
      <trkpt lat="49.89104" lon="2.5074">
        <ele>53</ele>
        <time>2023-09-27T14:41:02Z</time>
      </trkpt>
      <trkpt lat="49.89103" lon="2.50741">
        <ele>53.1</ele>
        <time>2023-09-27T14:41:03Z</time>
      </trkpt>
      <trkpt lat="49.89101" lon="2.50741">
        <ele>53.3</ele>
        <time>2023-09-27T14:41:04Z</time>
      </trkpt>
      <trkpt lat="49.89101" lon="2.50741">
        <ele>53.3</ele>
        <time>2023-09-27T14:41:05Z</time>
      </trkpt>
      <trkpt lat="49.891" lon="2.50742">
        <ele>53.4</ele>
        <time>2023-09-27T14:41:06Z</time>
      </trkpt>
      <trkpt lat="49.89099" lon="2.50742">
        <ele>53.5</ele>
        <time>2023-09-27T14:41:07Z</time>
      </trkpt>
      <trkpt lat="49.89098" lon="2.50742">
        <ele>53.6</ele>
        <time>2023-09-27T14:41:08Z</time>
      </trkpt>
      <trkpt lat="49.89096" lon="2.50742">
        <ele>53.6</ele>
        <time>2023-09-27T14:41:09Z</time>
      </trkpt>
      <trkpt lat="49.89095" lon="2.50742">
        <ele>53.7</ele>
        <time>2023-09-27T14:41:10Z</time>
      </trkpt>
      <trkpt lat="49.89094" lon="2.50742">
        <ele>53.8</ele>
        <time>2023-09-27T14:41:11Z</time>
      </trkpt>
      <trkpt lat="49.89093" lon="2.50742">
        <ele>53.9</ele>
        <time>2023-09-27T14:41:12Z</time>
      </trkpt>
      <trkpt lat="49.89092" lon="2.50742">
        <ele>54</ele>
        <time>2023-09-27T14:41:13Z</time>
      </trkpt>
      <trkpt lat="49.89091" lon="2.50742">
        <ele>54</ele>
        <time>2023-09-27T14:41:14Z</time>
      </trkpt>
      <trkpt lat="49.8909" lon="2.50742">
        <ele>54.1</ele>
        <time>2023-09-27T14:41:15Z</time>
      </trkpt>
      <trkpt lat="49.89089" lon="2.50742">
        <ele>54.2</ele>
        <time>2023-09-27T14:41:16Z</time>
      </trkpt>
      <trkpt lat="49.89088" lon="2.50742">
        <ele>54.3</ele>
        <time>2023-09-27T14:41:17Z</time>
      </trkpt>
      <trkpt lat="49.89088" lon="2.50742">
        <ele>54.3</ele>
        <time>2023-09-27T14:41:18Z</time>
      </trkpt>
      <trkpt lat="49.89087" lon="2.50742">
        <ele>54.4</ele>
        <time>2023-09-27T14:41:19Z</time>
      </trkpt>
      <trkpt lat="49.89086" lon="2.50742">
        <ele>54.5</ele>
        <time>2023-09-27T14:41:20Z</time>
      </trkpt>
      <trkpt lat="49.89085" lon="2.50742">
        <ele>54.5</ele>
        <time>2023-09-27T14:41:21Z</time>
      </trkpt>
      <trkpt lat="49.89084" lon="2.50742">
        <ele>54.6</ele>
        <time>2023-09-27T14:41:22Z</time>
      </trkpt>
      <trkpt lat="49.89083" lon="2.50742">
        <ele>54.7</ele>
        <time>2023-09-27T14:41:23Z</time>
      </trkpt>
      <trkpt lat="49.89082" lon="2.50742">
        <ele>54.7</ele>
        <time>2023-09-27T14:41:24Z</time>
      </trkpt>
      <trkpt lat="49.89081" lon="2.50743">
        <ele>54.8</ele>
        <time>2023-09-27T14:41:25Z</time>
      </trkpt>
      <trkpt lat="49.89081" lon="2.50743">
        <ele>54.8</ele>
        <time>2023-09-27T14:41:26Z</time>
      </trkpt>
      <trkpt lat="49.8908" lon="2.50743">
        <ele>54.9</ele>
        <time>2023-09-27T14:41:27Z</time>
      </trkpt>
      <trkpt lat="49.89079" lon="2.50743">
        <ele>54.9</ele>
        <time>2023-09-27T14:41:28Z</time>
      </trkpt>
      <trkpt lat="49.89078" lon="2.50743">
        <ele>55</ele>
        <time>2023-09-27T14:41:29Z</time>
      </trkpt>
      <trkpt lat="49.89077" lon="2.50743">
        <ele>55.1</ele>
        <time>2023-09-27T14:41:30Z</time>
      </trkpt>
      <trkpt lat="49.89076" lon="2.50743">
        <ele>55.1</ele>
        <time>2023-09-27T14:41:31Z</time>
      </trkpt>
      <trkpt lat="49.89075" lon="2.50744">
        <ele>55.2</ele>
        <time>2023-09-27T14:41:32Z</time>
      </trkpt>
      <trkpt lat="49.89074" lon="2.50744">
        <ele>55.3</ele>
        <time>2023-09-27T14:41:33Z</time>
      </trkpt>
      <trkpt lat="49.89073" lon="2.50744">
        <ele>55.3</ele>
        <time>2023-09-27T14:41:34Z</time>
      </trkpt>
      <trkpt lat="49.89073" lon="2.50744">
        <ele>55.4</ele>
        <time>2023-09-27T14:41:35Z</time>
      </trkpt>
      <trkpt lat="49.89072" lon="2.50744">
        <ele>55.5</ele>
        <time>2023-09-27T14:41:36Z</time>
      </trkpt>
      <trkpt lat="49.89071" lon="2.50745">
        <ele>55.5</ele>
        <time>2023-09-27T14:41:37Z</time>
      </trkpt>
      <trkpt lat="49.8907" lon="2.50745">
        <ele>55.6</ele>
        <time>2023-09-27T14:41:38Z</time>
      </trkpt>
      <trkpt lat="49.89069" lon="2.50745">
        <ele>55.6</ele>
        <time>2023-09-27T14:41:39Z</time>
      </trkpt>
      <trkpt lat="49.89069" lon="2.50745">
        <ele>55.7</ele>
        <time>2023-09-27T14:41:40Z</time>
      </trkpt>
      <trkpt lat="49.89068" lon="2.50745">
        <ele>55.7</ele>
        <time>2023-09-27T14:41:41Z</time>
      </trkpt>
      <trkpt lat="49.89067" lon="2.50745">
        <ele>55.8</ele>
        <time>2023-09-27T14:41:42Z</time>
      </trkpt>
      <trkpt lat="49.89067" lon="2.50745">
        <ele>55.8</ele>
        <time>2023-09-27T14:41:43Z</time>
      </trkpt>
      <trkpt lat="49.89066" lon="2.50745">
        <ele>55.9</ele>
        <time>2023-09-27T14:41:44Z</time>
      </trkpt>
      <trkpt lat="49.89065" lon="2.50746">
        <ele>55.9</ele>
        <time>2023-09-27T14:41:45Z</time>
      </trkpt>
      <trkpt lat="49.89064" lon="2.50746">
        <ele>56</ele>
        <time>2023-09-27T14:41:46Z</time>
      </trkpt>
      <trkpt lat="49.89064" lon="2.50746">
        <ele>56.1</ele>
        <time>2023-09-27T14:41:47Z</time>
      </trkpt>
      <trkpt lat="49.89063" lon="2.50746">
        <ele>56.1</ele>
        <time>2023-09-27T14:41:48Z</time>
      </trkpt>
      <trkpt lat="49.89062" lon="2.50747">
        <ele>56.2</ele>
        <time>2023-09-27T14:41:49Z</time>
      </trkpt>
      <trkpt lat="49.89061" lon="2.50747">
        <ele>56.2</ele>
        <time>2023-09-27T14:41:50Z</time>
      </trkpt>
      <trkpt lat="49.8906" lon="2.50747">
        <ele>56.3</ele>
        <time>2023-09-27T14:41:51Z</time>
      </trkpt>
      <trkpt lat="49.89059" lon="2.50747">
        <ele>56.4</ele>
        <time>2023-09-27T14:41:52Z</time>
      </trkpt>
      <trkpt lat="49.89059" lon="2.50747">
        <ele>56.4</ele>
        <time>2023-09-27T14:41:53Z</time>
      </trkpt>
      <trkpt lat="49.89058" lon="2.50747">
        <ele>56.5</ele>
        <time>2023-09-27T14:41:54Z</time>
      </trkpt>
      <trkpt lat="49.89057" lon="2.50747">
        <ele>56.6</ele>
        <time>2023-09-27T14:41:55Z</time>
      </trkpt>
      <trkpt lat="49.89056" lon="2.50748">
        <ele>56.6</ele>
        <time>2023-09-27T14:41:56Z</time>
      </trkpt>
      <trkpt lat="49.89055" lon="2.50748">
        <ele>56.7</ele>
        <time>2023-09-27T14:41:57Z</time>
      </trkpt>
      <trkpt lat="49.89054" lon="2.50748">
        <ele>56.7</ele>
        <time>2023-09-27T14:41:58Z</time>
      </trkpt>
      <trkpt lat="49.89053" lon="2.50749">
        <ele>56.8</ele>
        <time>2023-09-27T14:41:59Z</time>
      </trkpt>
      <trkpt lat="49.89052" lon="2.50749">
        <ele>56.9</ele>
        <time>2023-09-27T14:42:00Z</time>
      </trkpt>
      <trkpt lat="49.89051" lon="2.50749">
        <ele>57</ele>
        <time>2023-09-27T14:42:01Z</time>
      </trkpt>
      <trkpt lat="49.8905" lon="2.50749">
        <ele>57.1</ele>
        <time>2023-09-27T14:42:02Z</time>
      </trkpt>
      <trkpt lat="49.89049" lon="2.5075">
        <ele>57.1</ele>
        <time>2023-09-27T14:42:03Z</time>
      </trkpt>
      <trkpt lat="49.89049" lon="2.5075">
        <ele>57.1</ele>
        <time>2023-09-27T14:42:04Z</time>
      </trkpt>
      <trkpt lat="49.89049" lon="2.5075">
        <ele>57.2</ele>
        <time>2023-09-27T14:42:05Z</time>
      </trkpt>
      <trkpt lat="49.89048" lon="2.5075">
        <ele>57.2</ele>
        <time>2023-09-27T14:42:06Z</time>
      </trkpt>
      <trkpt lat="49.89047" lon="2.5075">
        <ele>57.3</ele>
        <time>2023-09-27T14:42:07Z</time>
      </trkpt>
      <trkpt lat="49.89047" lon="2.50751">
        <ele>57.3</ele>
        <time>2023-09-27T14:42:08Z</time>
      </trkpt>
      <trkpt lat="49.89046" lon="2.50751">
        <ele>57.4</ele>
        <time>2023-09-27T14:42:09Z</time>
      </trkpt>
      <trkpt lat="49.89045" lon="2.50751">
        <ele>57.4</ele>
        <time>2023-09-27T14:42:10Z</time>
      </trkpt>
      <trkpt lat="49.89045" lon="2.50751">
        <ele>57.4</ele>
        <time>2023-09-27T14:42:11Z</time>
      </trkpt>
      <trkpt lat="49.89044" lon="2.50751">
        <ele>57.5</ele>
        <time>2023-09-27T14:42:12Z</time>
      </trkpt>
      <trkpt lat="49.89043" lon="2.50752">
        <ele>57.5</ele>
        <time>2023-09-27T14:42:13Z</time>
      </trkpt>
      <trkpt lat="49.89043" lon="2.50752">
        <ele>57.6</ele>
        <time>2023-09-27T14:42:14Z</time>
      </trkpt>
      <trkpt lat="49.89042" lon="2.50752">
        <ele>57.7</ele>
        <time>2023-09-27T14:42:15Z</time>
      </trkpt>
      <trkpt lat="49.89041" lon="2.50752">
        <ele>57.7</ele>
        <time>2023-09-27T14:42:16Z</time>
      </trkpt>
      <trkpt lat="49.8904" lon="2.50752">
        <ele>57.8</ele>
        <time>2023-09-27T14:42:17Z</time>
      </trkpt>
      <trkpt lat="49.8904" lon="2.50752">
        <ele>57.8</ele>
        <time>2023-09-27T14:42:18Z</time>
      </trkpt>
      <trkpt lat="49.89039" lon="2.50752">
        <ele>57.9</ele>
        <time>2023-09-27T14:42:19Z</time>
      </trkpt>
      <trkpt lat="49.89038" lon="2.50753">
        <ele>57.9</ele>
        <time>2023-09-27T14:42:20Z</time>
      </trkpt>
      <trkpt lat="49.89037" lon="2.50753">
        <ele>58</ele>
        <time>2023-09-27T14:42:21Z</time>
      </trkpt>
      <trkpt lat="49.89036" lon="2.50753">
        <ele>58.1</ele>
        <time>2023-09-27T14:42:22Z</time>
      </trkpt>
      <trkpt lat="49.89036" lon="2.50753">
        <ele>58.1</ele>
        <time>2023-09-27T14:42:23Z</time>
      </trkpt>
      <trkpt lat="49.89035" lon="2.50753">
        <ele>58.2</ele>
        <time>2023-09-27T14:42:24Z</time>
      </trkpt>
      <trkpt lat="49.89034" lon="2.50754">
        <ele>58.2</ele>
        <time>2023-09-27T14:42:25Z</time>
      </trkpt>
      <trkpt lat="49.89034" lon="2.50754">
        <ele>58.3</ele>
        <time>2023-09-27T14:42:26Z</time>
      </trkpt>
      <trkpt lat="49.89033" lon="2.50754">
        <ele>58.3</ele>
        <time>2023-09-27T14:42:27Z</time>
      </trkpt>
      <trkpt lat="49.89032" lon="2.50754">
        <ele>58.4</ele>
        <time>2023-09-27T14:42:28Z</time>
      </trkpt>
      <trkpt lat="49.89032" lon="2.50754">
        <ele>58.4</ele>
        <time>2023-09-27T14:42:29Z</time>
      </trkpt>
      <trkpt lat="49.89031" lon="2.50755">
        <ele>58.5</ele>
        <time>2023-09-27T14:42:30Z</time>
      </trkpt>
      <trkpt lat="49.8903" lon="2.50755">
        <ele>58.5</ele>
        <time>2023-09-27T14:42:31Z</time>
      </trkpt>
      <trkpt lat="49.89029" lon="2.50755">
        <ele>58.6</ele>
        <time>2023-09-27T14:42:32Z</time>
      </trkpt>
      <trkpt lat="49.89028" lon="2.50756">
        <ele>58.7</ele>
        <time>2023-09-27T14:42:33Z</time>
      </trkpt>
      <trkpt lat="49.89027" lon="2.50756">
        <ele>58.7</ele>
        <time>2023-09-27T14:42:34Z</time>
      </trkpt>
      <trkpt lat="49.89026" lon="2.50756">
        <ele>58.8</ele>
        <time>2023-09-27T14:42:35Z</time>
      </trkpt>
      <trkpt lat="49.89025" lon="2.50756">
        <ele>58.9</ele>
        <time>2023-09-27T14:42:36Z</time>
      </trkpt>
      <trkpt lat="49.89025" lon="2.50757">
        <ele>58.9</ele>
        <time>2023-09-27T14:42:37Z</time>
      </trkpt>
      <trkpt lat="49.89024" lon="2.50757">
        <ele>59</ele>
        <time>2023-09-27T14:42:38Z</time>
      </trkpt>
      <trkpt lat="49.89023" lon="2.50757">
        <ele>59</ele>
        <time>2023-09-27T14:42:39Z</time>
      </trkpt>
      <trkpt lat="49.89023" lon="2.50757">
        <ele>59.1</ele>
        <time>2023-09-27T14:42:40Z</time>
      </trkpt>
      <trkpt lat="49.89022" lon="2.50758">
        <ele>59.1</ele>
        <time>2023-09-27T14:42:41Z</time>
      </trkpt>
      <trkpt lat="49.89022" lon="2.50758">
        <ele>59.2</ele>
        <time>2023-09-27T14:42:42Z</time>
      </trkpt>
      <trkpt lat="49.89021" lon="2.50758">
        <ele>59.2</ele>
        <time>2023-09-27T14:42:43Z</time>
      </trkpt>
      <trkpt lat="49.89021" lon="2.50758">
        <ele>59.2</ele>
        <time>2023-09-27T14:42:44Z</time>
      </trkpt>
      <trkpt lat="49.8902" lon="2.50758">
        <ele>59.3</ele>
        <time>2023-09-27T14:42:45Z</time>
      </trkpt>
      <trkpt lat="49.8902" lon="2.50759">
        <ele>59.3</ele>
        <time>2023-09-27T14:42:46Z</time>
      </trkpt>
      <trkpt lat="49.89019" lon="2.50759">
        <ele>59.4</ele>
        <time>2023-09-27T14:42:47Z</time>
      </trkpt>
      <trkpt lat="49.89018" lon="2.50759">
        <ele>59.4</ele>
        <time>2023-09-27T14:42:48Z</time>
      </trkpt>
      <trkpt lat="49.89017" lon="2.5076">
        <ele>59.5</ele>
        <time>2023-09-27T14:42:49Z</time>
      </trkpt>
      <trkpt lat="49.89016" lon="2.5076">
        <ele>59.6</ele>
        <time>2023-09-27T14:42:50Z</time>
      </trkpt>
      <trkpt lat="49.89016" lon="2.5076">
        <ele>59.6</ele>
        <time>2023-09-27T14:42:51Z</time>
      </trkpt>
      <trkpt lat="49.89015" lon="2.5076">
        <ele>59.6</ele>
        <time>2023-09-27T14:42:52Z</time>
      </trkpt>
      <trkpt lat="49.89015" lon="2.50761">
        <ele>59.7</ele>
        <time>2023-09-27T14:42:53Z</time>
      </trkpt>
      <trkpt lat="49.89014" lon="2.50761">
        <ele>59.7</ele>
        <time>2023-09-27T14:42:54Z</time>
      </trkpt>
      <trkpt lat="49.89013" lon="2.50761">
        <ele>59.8</ele>
        <time>2023-09-27T14:42:55Z</time>
      </trkpt>
      <trkpt lat="49.89013" lon="2.50761">
        <ele>59.8</ele>
        <time>2023-09-27T14:42:56Z</time>
      </trkpt>
      <trkpt lat="49.89012" lon="2.50761">
        <ele>59.8</ele>
        <time>2023-09-27T14:42:57Z</time>
      </trkpt>
      <trkpt lat="49.89012" lon="2.50761">
        <ele>59.9</ele>
        <time>2023-09-27T14:42:58Z</time>
      </trkpt>
      <trkpt lat="49.89011" lon="2.50761">
        <ele>59.9</ele>
        <time>2023-09-27T14:42:59Z</time>
      </trkpt>
      <trkpt lat="49.8901" lon="2.50761">
        <ele>60</ele>
        <time>2023-09-27T14:43:00Z</time>
      </trkpt>
      <trkpt lat="49.8901" lon="2.50762">
        <ele>60</ele>
        <time>2023-09-27T14:43:01Z</time>
      </trkpt>
      <trkpt lat="49.89009" lon="2.50762">
        <ele>60.1</ele>
        <time>2023-09-27T14:43:02Z</time>
      </trkpt>
      <trkpt lat="49.89008" lon="2.50762">
        <ele>60.2</ele>
        <time>2023-09-27T14:43:03Z</time>
      </trkpt>
      <trkpt lat="49.89007" lon="2.50762">
        <ele>60.2</ele>
        <time>2023-09-27T14:43:04Z</time>
      </trkpt>
      <trkpt lat="49.89006" lon="2.50761">
        <ele>60.3</ele>
        <time>2023-09-27T14:43:05Z</time>
      </trkpt>
      <trkpt lat="49.89005" lon="2.50761">
        <ele>60.4</ele>
        <time>2023-09-27T14:43:06Z</time>
      </trkpt>
      <trkpt lat="49.89004" lon="2.50761">
        <ele>60.4</ele>
        <time>2023-09-27T14:43:07Z</time>
      </trkpt>
      <trkpt lat="49.89003" lon="2.50761">
        <ele>60.5</ele>
        <time>2023-09-27T14:43:08Z</time>
      </trkpt>
      <trkpt lat="49.89002" lon="2.50761">
        <ele>60.5</ele>
        <time>2023-09-27T14:43:09Z</time>
      </trkpt>
      <trkpt lat="49.89002" lon="2.50761">
        <ele>60.6</ele>
        <time>2023-09-27T14:43:10Z</time>
      </trkpt>
      <trkpt lat="49.89001" lon="2.50761">
        <ele>60.7</ele>
        <time>2023-09-27T14:43:11Z</time>
      </trkpt>
      <trkpt lat="49.89" lon="2.50761">
        <ele>60.7</ele>
        <time>2023-09-27T14:43:12Z</time>
      </trkpt>
      <trkpt lat="49.88999" lon="2.50761">
        <ele>60.8</ele>
        <time>2023-09-27T14:43:13Z</time>
      </trkpt>
      <trkpt lat="49.88998" lon="2.50761">
        <ele>60.8</ele>
        <time>2023-09-27T14:43:14Z</time>
      </trkpt>
      <trkpt lat="49.88997" lon="2.50761">
        <ele>60.9</ele>
        <time>2023-09-27T14:43:15Z</time>
      </trkpt>
      <trkpt lat="49.88997" lon="2.50761">
        <ele>60.9</ele>
        <time>2023-09-27T14:43:16Z</time>
      </trkpt>
      <trkpt lat="49.88996" lon="2.50761">
        <ele>61</ele>
        <time>2023-09-27T14:43:17Z</time>
      </trkpt>
      <trkpt lat="49.88995" lon="2.50761">
        <ele>61.1</ele>
        <time>2023-09-27T14:43:18Z</time>
      </trkpt>
      <trkpt lat="49.88994" lon="2.50761">
        <ele>61.1</ele>
        <time>2023-09-27T14:43:19Z</time>
      </trkpt>
      <trkpt lat="49.88993" lon="2.50761">
        <ele>61.2</ele>
        <time>2023-09-27T14:43:20Z</time>
      </trkpt>
      <trkpt lat="49.88992" lon="2.50761">
        <ele>61.2</ele>
        <time>2023-09-27T14:43:21Z</time>
      </trkpt>
      <trkpt lat="49.88991" lon="2.50761">
        <ele>61.3</ele>
        <time>2023-09-27T14:43:22Z</time>
      </trkpt>
      <trkpt lat="49.88991" lon="2.50761">
        <ele>61.4</ele>
        <time>2023-09-27T14:43:23Z</time>
      </trkpt>
      <trkpt lat="49.8899" lon="2.50761">
        <ele>61.4</ele>
        <time>2023-09-27T14:43:24Z</time>
      </trkpt>
      <trkpt lat="49.88989" lon="2.50762">
        <ele>61.5</ele>
        <time>2023-09-27T14:43:25Z</time>
      </trkpt>
      <trkpt lat="49.88988" lon="2.50762">
        <ele>61.6</ele>
        <time>2023-09-27T14:43:26Z</time>
      </trkpt>
      <trkpt lat="49.88987" lon="2.50762">
        <ele>61.6</ele>
        <time>2023-09-27T14:43:27Z</time>
      </trkpt>
      <trkpt lat="49.88986" lon="2.50762">
        <ele>61.7</ele>
        <time>2023-09-27T14:43:28Z</time>
      </trkpt>
      <trkpt lat="49.88986" lon="2.50762">
        <ele>61.7</ele>
        <time>2023-09-27T14:43:29Z</time>
      </trkpt>
      <trkpt lat="49.88985" lon="2.50762">
        <ele>61.8</ele>
        <time>2023-09-27T14:43:30Z</time>
      </trkpt>
      <trkpt lat="49.88984" lon="2.50762">
        <ele>61.8</ele>
        <time>2023-09-27T14:43:31Z</time>
      </trkpt>
      <trkpt lat="49.88983" lon="2.50762">
        <ele>61.9</ele>
        <time>2023-09-27T14:43:32Z</time>
      </trkpt>
      <trkpt lat="49.88982" lon="2.50762">
        <ele>62</ele>
        <time>2023-09-27T14:43:33Z</time>
      </trkpt>
      <trkpt lat="49.88981" lon="2.50762">
        <ele>62</ele>
        <time>2023-09-27T14:43:34Z</time>
      </trkpt>
      <trkpt lat="49.8898" lon="2.50762">
        <ele>62.1</ele>
        <time>2023-09-27T14:43:35Z</time>
      </trkpt>
      <trkpt lat="49.88979" lon="2.50762">
        <ele>62.2</ele>
        <time>2023-09-27T14:43:36Z</time>
      </trkpt>
      <trkpt lat="49.88978" lon="2.50762">
        <ele>62.3</ele>
        <time>2023-09-27T14:43:37Z</time>
      </trkpt>
      <trkpt lat="49.88977" lon="2.50761">
        <ele>62.3</ele>
        <time>2023-09-27T14:43:38Z</time>
      </trkpt>
      <trkpt lat="49.88976" lon="2.50761">
        <ele>62.4</ele>
        <time>2023-09-27T14:43:39Z</time>
      </trkpt>
      <trkpt lat="49.88975" lon="2.50761">
        <ele>62.5</ele>
        <time>2023-09-27T14:43:40Z</time>
      </trkpt>
      <trkpt lat="49.88974" lon="2.50761">
        <ele>62.5</ele>
        <time>2023-09-27T14:43:41Z</time>
      </trkpt>
      <trkpt lat="49.88973" lon="2.50761">
        <ele>62.6</ele>
        <time>2023-09-27T14:43:42Z</time>
      </trkpt>
      <trkpt lat="49.88972" lon="2.50761">
        <ele>62.7</ele>
        <time>2023-09-27T14:43:43Z</time>
      </trkpt>
      <trkpt lat="49.88971" lon="2.50761">
        <ele>62.8</ele>
        <time>2023-09-27T14:43:44Z</time>
      </trkpt>
      <trkpt lat="49.8897" lon="2.50761">
        <ele>62.8</ele>
        <time>2023-09-27T14:43:45Z</time>
      </trkpt>
      <trkpt lat="49.88969" lon="2.50761">
        <ele>62.9</ele>
        <time>2023-09-27T14:43:46Z</time>
      </trkpt>
      <trkpt lat="49.88969" lon="2.50761">
        <ele>63</ele>
        <time>2023-09-27T14:43:47Z</time>
      </trkpt>
      <trkpt lat="49.88968" lon="2.50762">
        <ele>63.1</ele>
        <time>2023-09-27T14:43:48Z</time>
      </trkpt>
      <trkpt lat="49.88967" lon="2.50762">
        <ele>63.1</ele>
        <time>2023-09-27T14:43:49Z</time>
      </trkpt>
      <trkpt lat="49.88966" lon="2.50762">
        <ele>63.2</ele>
        <time>2023-09-27T14:43:50Z</time>
      </trkpt>
      <trkpt lat="49.88965" lon="2.50762">
        <ele>63.3</ele>
        <time>2023-09-27T14:43:51Z</time>
      </trkpt>
      <trkpt lat="49.88964" lon="2.50763">
        <ele>63.3</ele>
        <time>2023-09-27T14:43:52Z</time>
      </trkpt>
      <trkpt lat="49.88963" lon="2.50763">
        <ele>63.4</ele>
        <time>2023-09-27T14:43:53Z</time>
      </trkpt>
      <trkpt lat="49.88962" lon="2.50763">
        <ele>63.4</ele>
        <time>2023-09-27T14:43:54Z</time>
      </trkpt>
      <trkpt lat="49.88962" lon="2.50763">
        <ele>63.5</ele>
        <time>2023-09-27T14:43:55Z</time>
      </trkpt>
      <trkpt lat="49.88961" lon="2.50763">
        <ele>63.6</ele>
        <time>2023-09-27T14:43:56Z</time>
      </trkpt>
      <trkpt lat="49.8896" lon="2.50764">
        <ele>63.6</ele>
        <time>2023-09-27T14:43:57Z</time>
      </trkpt>
      <trkpt lat="49.88959" lon="2.50764">
        <ele>63.7</ele>
        <time>2023-09-27T14:43:58Z</time>
      </trkpt>
      <trkpt lat="49.88958" lon="2.50764">
        <ele>63.8</ele>
        <time>2023-09-27T14:43:59Z</time>
      </trkpt>
      <trkpt lat="49.88957" lon="2.50765">
        <ele>63.9</ele>
        <time>2023-09-27T14:44:00Z</time>
      </trkpt>
      <trkpt lat="49.88956" lon="2.50765">
        <ele>63.9</ele>
        <time>2023-09-27T14:44:01Z</time>
      </trkpt>
      <trkpt lat="49.88955" lon="2.50765">
        <ele>64</ele>
        <time>2023-09-27T14:44:02Z</time>
      </trkpt>
      <trkpt lat="49.88955" lon="2.50765">
        <ele>64</ele>
        <time>2023-09-27T14:44:03Z</time>
      </trkpt>
      <trkpt lat="49.88953" lon="2.50765">
        <ele>64.1</ele>
        <time>2023-09-27T14:44:04Z</time>
      </trkpt>
      <trkpt lat="49.88952" lon="2.50766">
        <ele>64.2</ele>
        <time>2023-09-27T14:44:05Z</time>
      </trkpt>
      <trkpt lat="49.88951" lon="2.50766">
        <ele>64.3</ele>
        <time>2023-09-27T14:44:06Z</time>
      </trkpt>
      <trkpt lat="49.8895" lon="2.50766">
        <ele>64.3</ele>
        <time>2023-09-27T14:44:07Z</time>
      </trkpt>
      <trkpt lat="49.88949" lon="2.50766">
        <ele>64.4</ele>
        <time>2023-09-27T14:44:08Z</time>
      </trkpt>
      <trkpt lat="49.88948" lon="2.50766">
        <ele>64.4</ele>
        <time>2023-09-27T14:44:09Z</time>
      </trkpt>
      <trkpt lat="49.88947" lon="2.50766">
        <ele>64.5</ele>
        <time>2023-09-27T14:44:10Z</time>
      </trkpt>
      <trkpt lat="49.88947" lon="2.50766">
        <ele>64.6</ele>
        <time>2023-09-27T14:44:11Z</time>
      </trkpt>
      <trkpt lat="49.88946" lon="2.50766">
        <ele>64.6</ele>
        <time>2023-09-27T14:44:12Z</time>
      </trkpt>
      <trkpt lat="49.88945" lon="2.50766">
        <ele>64.7</ele>
        <time>2023-09-27T14:44:13Z</time>
      </trkpt>
      <trkpt lat="49.88944" lon="2.50766">
        <ele>64.7</ele>
        <time>2023-09-27T14:44:14Z</time>
      </trkpt>
      <trkpt lat="49.88943" lon="2.50767">
        <ele>64.8</ele>
        <time>2023-09-27T14:44:15Z</time>
      </trkpt>
      <trkpt lat="49.88942" lon="2.50767">
        <ele>64.9</ele>
        <time>2023-09-27T14:44:16Z</time>
      </trkpt>
      <trkpt lat="49.88941" lon="2.50767">
        <ele>65</ele>
        <time>2023-09-27T14:44:17Z</time>
      </trkpt>
      <trkpt lat="49.8894" lon="2.50767">
        <ele>65</ele>
        <time>2023-09-27T14:44:18Z</time>
      </trkpt>
      <trkpt lat="49.88939" lon="2.50767">
        <ele>65.1</ele>
        <time>2023-09-27T14:44:19Z</time>
      </trkpt>
      <trkpt lat="49.88938" lon="2.50767">
        <ele>65.2</ele>
        <time>2023-09-27T14:44:20Z</time>
      </trkpt>
      <trkpt lat="49.88937" lon="2.50767">
        <ele>65.2</ele>
        <time>2023-09-27T14:44:21Z</time>
      </trkpt>
      <trkpt lat="49.88936" lon="2.50767">
        <ele>65.3</ele>
        <time>2023-09-27T14:44:22Z</time>
      </trkpt>
      <trkpt lat="49.88935" lon="2.50767">
        <ele>65.4</ele>
        <time>2023-09-27T14:44:23Z</time>
      </trkpt>
      <trkpt lat="49.88934" lon="2.50767">
        <ele>65.4</ele>
        <time>2023-09-27T14:44:24Z</time>
      </trkpt>
      <trkpt lat="49.88933" lon="2.50767">
        <ele>65.5</ele>
        <time>2023-09-27T14:44:25Z</time>
      </trkpt>
      <trkpt lat="49.88932" lon="2.50767">
        <ele>65.6</ele>
        <time>2023-09-27T14:44:26Z</time>
      </trkpt>
      <trkpt lat="49.88931" lon="2.50767">
        <ele>65.6</ele>
        <time>2023-09-27T14:44:27Z</time>
      </trkpt>
      <trkpt lat="49.8893" lon="2.50767">
        <ele>65.7</ele>
        <time>2023-09-27T14:44:28Z</time>
      </trkpt>
      <trkpt lat="49.88929" lon="2.50768">
        <ele>65.8</ele>
        <time>2023-09-27T14:44:29Z</time>
      </trkpt>
      <trkpt lat="49.88928" lon="2.50768">
        <ele>65.8</ele>
        <time>2023-09-27T14:44:30Z</time>
      </trkpt>
      <trkpt lat="49.88927" lon="2.50768">
        <ele>65.9</ele>
        <time>2023-09-27T14:44:31Z</time>
      </trkpt>
      <trkpt lat="49.88926" lon="2.50768">
        <ele>65.9</ele>
        <time>2023-09-27T14:44:32Z</time>
      </trkpt>
      <trkpt lat="49.88926" lon="2.50768">
        <ele>66</ele>
        <time>2023-09-27T14:44:33Z</time>
      </trkpt>
      <trkpt lat="49.88925" lon="2.50769">
        <ele>66.1</ele>
        <time>2023-09-27T14:44:34Z</time>
      </trkpt>
      <trkpt lat="49.88924" lon="2.50769">
        <ele>66.1</ele>
        <time>2023-09-27T14:44:35Z</time>
      </trkpt>
      <trkpt lat="49.88923" lon="2.50769">
        <ele>66.2</ele>
        <time>2023-09-27T14:44:36Z</time>
      </trkpt>
      <trkpt lat="49.88923" lon="2.50769">
        <ele>66.2</ele>
        <time>2023-09-27T14:44:37Z</time>
      </trkpt>
      <trkpt lat="49.88922" lon="2.50769">
        <ele>66.2</ele>
        <time>2023-09-27T14:44:38Z</time>
      </trkpt>
      <trkpt lat="49.88922" lon="2.50769">
        <ele>66.3</ele>
        <time>2023-09-27T14:44:39Z</time>
      </trkpt>
      <trkpt lat="49.88921" lon="2.50769">
        <ele>66.3</ele>
        <time>2023-09-27T14:44:40Z</time>
      </trkpt>
      <trkpt lat="49.8892" lon="2.5077">
        <ele>66.4</ele>
        <time>2023-09-27T14:44:41Z</time>
      </trkpt>
      <trkpt lat="49.8892" lon="2.5077">
        <ele>66.4</ele>
        <time>2023-09-27T14:44:42Z</time>
      </trkpt>
      <trkpt lat="49.88919" lon="2.5077">
        <ele>66.4</ele>
        <time>2023-09-27T14:44:43Z</time>
      </trkpt>
      <trkpt lat="49.88919" lon="2.5077">
        <ele>66.5</ele>
        <time>2023-09-27T14:44:44Z</time>
      </trkpt>
      <trkpt lat="49.88918" lon="2.5077">
        <ele>66.5</ele>
        <time>2023-09-27T14:44:45Z</time>
      </trkpt>
      <trkpt lat="49.88918" lon="2.50771">
        <ele>66.5</ele>
        <time>2023-09-27T14:44:46Z</time>
      </trkpt>
      <trkpt lat="49.88917" lon="2.50771">
        <ele>66.6</ele>
        <time>2023-09-27T14:44:47Z</time>
      </trkpt>
      <trkpt lat="49.88916" lon="2.50771">
        <ele>66.6</ele>
        <time>2023-09-27T14:44:48Z</time>
      </trkpt>
      <trkpt lat="49.88916" lon="2.50771">
        <ele>66.7</ele>
        <time>2023-09-27T14:44:49Z</time>
      </trkpt>
      <trkpt lat="49.88915" lon="2.5077">
        <ele>66.7</ele>
        <time>2023-09-27T14:44:50Z</time>
      </trkpt>
      <trkpt lat="49.88915" lon="2.5077">
        <ele>66.7</ele>
        <time>2023-09-27T14:44:51Z</time>
      </trkpt>
      <trkpt lat="49.88914" lon="2.5077">
        <ele>66.8</ele>
        <time>2023-09-27T14:44:52Z</time>
      </trkpt>
      <trkpt lat="49.88914" lon="2.5077">
        <ele>66.8</ele>
        <time>2023-09-27T14:44:53Z</time>
      </trkpt>
      <trkpt lat="49.88913" lon="2.50771">
        <ele>66.9</ele>
        <time>2023-09-27T14:44:54Z</time>
      </trkpt>
      <trkpt lat="49.88913" lon="2.50771">
        <ele>66.9</ele>
        <time>2023-09-27T14:44:55Z</time>
      </trkpt>
      <trkpt lat="49.88913" lon="2.50771">
        <ele>66.9</ele>
        <time>2023-09-27T14:44:56Z</time>
      </trkpt>
      <trkpt lat="49.88912" lon="2.50772">
        <ele>66.9</ele>
        <time>2023-09-27T14:44:57Z</time>
      </trkpt>
      <trkpt lat="49.88911" lon="2.50772">
        <ele>67</ele>
        <time>2023-09-27T14:44:58Z</time>
      </trkpt>
      <trkpt lat="49.88911" lon="2.50772">
        <ele>67</ele>
        <time>2023-09-27T14:44:59Z</time>
      </trkpt>
      <trkpt lat="49.8891" lon="2.50772">
        <ele>67.1</ele>
        <time>2023-09-27T14:45:00Z</time>
      </trkpt>
      <trkpt lat="49.88909" lon="2.50772">
        <ele>67.2</ele>
        <time>2023-09-27T14:45:01Z</time>
      </trkpt>
      <trkpt lat="49.88908" lon="2.50772">
        <ele>67.2</ele>
        <time>2023-09-27T14:45:02Z</time>
      </trkpt>
      <trkpt lat="49.88907" lon="2.50772">
        <ele>67.3</ele>
        <time>2023-09-27T14:45:03Z</time>
      </trkpt>
      <trkpt lat="49.88906" lon="2.50772">
        <ele>67.3</ele>
        <time>2023-09-27T14:45:04Z</time>
      </trkpt>
      <trkpt lat="49.88905" lon="2.50772">
        <ele>67.4</ele>
        <time>2023-09-27T14:45:05Z</time>
      </trkpt>
      <trkpt lat="49.88904" lon="2.50773">
        <ele>67.4</ele>
        <time>2023-09-27T14:45:06Z</time>
      </trkpt>
      <trkpt lat="49.88904" lon="2.50773">
        <ele>67.5</ele>
        <time>2023-09-27T14:45:07Z</time>
      </trkpt>
      <trkpt lat="49.88903" lon="2.50773">
        <ele>67.6</ele>
        <time>2023-09-27T14:45:08Z</time>
      </trkpt>
      <trkpt lat="49.88902" lon="2.50773">
        <ele>67.6</ele>
        <time>2023-09-27T14:45:09Z</time>
      </trkpt>
      <trkpt lat="49.88901" lon="2.50772">
        <ele>67.7</ele>
        <time>2023-09-27T14:45:10Z</time>
      </trkpt>
      <trkpt lat="49.88901" lon="2.50772">
        <ele>67.7</ele>
        <time>2023-09-27T14:45:11Z</time>
      </trkpt>
      <trkpt lat="49.889" lon="2.50772">
        <ele>67.8</ele>
        <time>2023-09-27T14:45:12Z</time>
      </trkpt>
      <trkpt lat="49.88899" lon="2.50772">
        <ele>67.8</ele>
        <time>2023-09-27T14:45:13Z</time>
      </trkpt>
      <trkpt lat="49.88898" lon="2.50772">
        <ele>67.9</ele>
        <time>2023-09-27T14:45:14Z</time>
      </trkpt>
      <trkpt lat="49.88898" lon="2.50772">
        <ele>67.9</ele>
        <time>2023-09-27T14:45:15Z</time>
      </trkpt>
      <trkpt lat="49.88897" lon="2.50772">
        <ele>68</ele>
        <time>2023-09-27T14:45:16Z</time>
      </trkpt>
      <trkpt lat="49.88896" lon="2.50772">
        <ele>68</ele>
        <time>2023-09-27T14:45:17Z</time>
      </trkpt>
      <trkpt lat="49.88895" lon="2.50772">
        <ele>68.1</ele>
        <time>2023-09-27T14:45:18Z</time>
      </trkpt>
      <trkpt lat="49.88894" lon="2.50772">
        <ele>68.1</ele>
        <time>2023-09-27T14:45:19Z</time>
      </trkpt>
      <trkpt lat="49.88893" lon="2.50772">
        <ele>68.2</ele>
        <time>2023-09-27T14:45:20Z</time>
      </trkpt>
      <trkpt lat="49.88892" lon="2.50773">
        <ele>68.2</ele>
        <time>2023-09-27T14:45:21Z</time>
      </trkpt>
      <trkpt lat="49.88892" lon="2.50773">
        <ele>68.3</ele>
        <time>2023-09-27T14:45:22Z</time>
      </trkpt>
      <trkpt lat="49.88891" lon="2.50773">
        <ele>68.3</ele>
        <time>2023-09-27T14:45:23Z</time>
      </trkpt>
      <trkpt lat="49.8889" lon="2.50773">
        <ele>68.4</ele>
        <time>2023-09-27T14:45:24Z</time>
      </trkpt>
      <trkpt lat="49.88889" lon="2.50773">
        <ele>68.5</ele>
        <time>2023-09-27T14:45:25Z</time>
      </trkpt>
      <trkpt lat="49.88888" lon="2.50774">
        <ele>68.5</ele>
        <time>2023-09-27T14:45:26Z</time>
      </trkpt>
      <trkpt lat="49.88887" lon="2.50774">
        <ele>68.6</ele>
        <time>2023-09-27T14:45:27Z</time>
      </trkpt>
      <trkpt lat="49.88886" lon="2.50775">
        <ele>68.7</ele>
        <time>2023-09-27T14:45:28Z</time>
      </trkpt>
      <trkpt lat="49.88886" lon="2.50775">
        <ele>68.7</ele>
        <time>2023-09-27T14:45:29Z</time>
      </trkpt>
      <trkpt lat="49.88885" lon="2.50775">
        <ele>68.8</ele>
        <time>2023-09-27T14:45:30Z</time>
      </trkpt>
      <trkpt lat="49.88884" lon="2.50776">
        <ele>68.8</ele>
        <time>2023-09-27T14:45:31Z</time>
      </trkpt>
      <trkpt lat="49.88883" lon="2.50776">
        <ele>68.9</ele>
        <time>2023-09-27T14:45:32Z</time>
      </trkpt>
      <trkpt lat="49.88882" lon="2.50776">
        <ele>69</ele>
        <time>2023-09-27T14:45:33Z</time>
      </trkpt>
      <trkpt lat="49.88882" lon="2.50776">
        <ele>69</ele>
        <time>2023-09-27T14:45:34Z</time>
      </trkpt>
      <trkpt lat="49.88881" lon="2.50776">
        <ele>69.1</ele>
        <time>2023-09-27T14:45:35Z</time>
      </trkpt>
      <trkpt lat="49.8888" lon="2.50776">
        <ele>69.1</ele>
        <time>2023-09-27T14:45:36Z</time>
      </trkpt>
      <trkpt lat="49.88879" lon="2.50776">
        <ele>69.2</ele>
        <time>2023-09-27T14:45:37Z</time>
      </trkpt>
      <trkpt lat="49.88878" lon="2.50776">
        <ele>69.3</ele>
        <time>2023-09-27T14:45:38Z</time>
      </trkpt>
      <trkpt lat="49.88877" lon="2.50776">
        <ele>69.4</ele>
        <time>2023-09-27T14:45:39Z</time>
      </trkpt>
      <trkpt lat="49.88875" lon="2.50776">
        <ele>69.4</ele>
        <time>2023-09-27T14:45:40Z</time>
      </trkpt>
      <trkpt lat="49.88874" lon="2.50776">
        <ele>69.5</ele>
        <time>2023-09-27T14:45:41Z</time>
      </trkpt>
      <trkpt lat="49.88873" lon="2.50776">
        <ele>69.6</ele>
        <time>2023-09-27T14:45:42Z</time>
      </trkpt>
      <trkpt lat="49.88872" lon="2.50776">
        <ele>69.6</ele>
        <time>2023-09-27T14:45:43Z</time>
      </trkpt>
      <trkpt lat="49.88871" lon="2.50776">
        <ele>69.7</ele>
        <time>2023-09-27T14:45:44Z</time>
      </trkpt>
      <trkpt lat="49.8887" lon="2.50776">
        <ele>69.8</ele>
        <time>2023-09-27T14:45:45Z</time>
      </trkpt>
      <trkpt lat="49.88869" lon="2.50776">
        <ele>69.9</ele>
        <time>2023-09-27T14:45:46Z</time>
      </trkpt>
      <trkpt lat="49.88868" lon="2.50775">
        <ele>69.9</ele>
        <time>2023-09-27T14:45:47Z</time>
      </trkpt>
      <trkpt lat="49.88867" lon="2.50775">
        <ele>70</ele>
        <time>2023-09-27T14:45:48Z</time>
      </trkpt>
      <trkpt lat="49.88866" lon="2.50775">
        <ele>70.1</ele>
        <time>2023-09-27T14:45:49Z</time>
      </trkpt>
      <trkpt lat="49.88865" lon="2.50775">
        <ele>70.1</ele>
        <time>2023-09-27T14:45:50Z</time>
      </trkpt>
      <trkpt lat="49.88864" lon="2.50775">
        <ele>70.2</ele>
        <time>2023-09-27T14:45:51Z</time>
      </trkpt>
      <trkpt lat="49.88863" lon="2.50775">
        <ele>70.3</ele>
        <time>2023-09-27T14:45:52Z</time>
      </trkpt>
      <trkpt lat="49.88863" lon="2.50775">
        <ele>70.3</ele>
        <time>2023-09-27T14:45:53Z</time>
      </trkpt>
      <trkpt lat="49.88862" lon="2.50775">
        <ele>70.4</ele>
        <time>2023-09-27T14:45:54Z</time>
      </trkpt>
      <trkpt lat="49.88861" lon="2.50775">
        <ele>70.4</ele>
        <time>2023-09-27T14:45:55Z</time>
      </trkpt>
      <trkpt lat="49.8886" lon="2.50775">
        <ele>70.5</ele>
        <time>2023-09-27T14:45:56Z</time>
      </trkpt>
      <trkpt lat="49.88859" lon="2.50775">
        <ele>70.5</ele>
        <time>2023-09-27T14:45:57Z</time>
      </trkpt>
      <trkpt lat="49.88859" lon="2.50775">
        <ele>70.6</ele>
        <time>2023-09-27T14:45:58Z</time>
      </trkpt>
      <trkpt lat="49.88858" lon="2.50775">
        <ele>70.6</ele>
        <time>2023-09-27T14:45:59Z</time>
      </trkpt>
      <trkpt lat="49.88857" lon="2.50775">
        <ele>70.7</ele>
        <time>2023-09-27T14:46:00Z</time>
      </trkpt>
      <trkpt lat="49.88857" lon="2.50775">
        <ele>70.7</ele>
        <time>2023-09-27T14:46:01Z</time>
      </trkpt>
      <trkpt lat="49.88856" lon="2.50776">
        <ele>70.8</ele>
        <time>2023-09-27T14:46:02Z</time>
      </trkpt>
      <trkpt lat="49.88855" lon="2.50776">
        <ele>70.8</ele>
        <time>2023-09-27T14:46:03Z</time>
      </trkpt>
      <trkpt lat="49.88854" lon="2.50776">
        <ele>70.9</ele>
        <time>2023-09-27T14:46:04Z</time>
      </trkpt>
      <trkpt lat="49.88853" lon="2.50776">
        <ele>71</ele>
        <time>2023-09-27T14:46:05Z</time>
      </trkpt>
      <trkpt lat="49.88852" lon="2.50776">
        <ele>71</ele>
        <time>2023-09-27T14:46:06Z</time>
      </trkpt>
      <trkpt lat="49.88851" lon="2.50776">
        <ele>71.1</ele>
        <time>2023-09-27T14:46:07Z</time>
      </trkpt>
      <trkpt lat="49.8885" lon="2.50776">
        <ele>71.2</ele>
        <time>2023-09-27T14:46:08Z</time>
      </trkpt>
      <trkpt lat="49.88849" lon="2.50776">
        <ele>71.2</ele>
        <time>2023-09-27T14:46:09Z</time>
      </trkpt>
      <trkpt lat="49.88848" lon="2.50776">
        <ele>71.3</ele>
        <time>2023-09-27T14:46:10Z</time>
      </trkpt>
      <trkpt lat="49.88847" lon="2.50776">
        <ele>71.3</ele>
        <time>2023-09-27T14:46:11Z</time>
      </trkpt>
      <trkpt lat="49.88846" lon="2.50776">
        <ele>71.4</ele>
        <time>2023-09-27T14:46:12Z</time>
      </trkpt>
      <trkpt lat="49.88845" lon="2.50776">
        <ele>71.4</ele>
        <time>2023-09-27T14:46:13Z</time>
      </trkpt>
      <trkpt lat="49.88844" lon="2.50776">
        <ele>71.5</ele>
        <time>2023-09-27T14:46:14Z</time>
      </trkpt>
      <trkpt lat="49.88844" lon="2.50776">
        <ele>71.5</ele>
        <time>2023-09-27T14:46:15Z</time>
      </trkpt>
      <trkpt lat="49.88843" lon="2.50776">
        <ele>71.6</ele>
        <time>2023-09-27T14:46:16Z</time>
      </trkpt>
      <trkpt lat="49.88843" lon="2.50776">
        <ele>71.6</ele>
        <time>2023-09-27T14:46:17Z</time>
      </trkpt>
      <trkpt lat="49.88842" lon="2.50776">
        <ele>71.6</ele>
        <time>2023-09-27T14:46:18Z</time>
      </trkpt>
      <trkpt lat="49.88842" lon="2.50777">
        <ele>71.7</ele>
        <time>2023-09-27T14:46:19Z</time>
      </trkpt>
      <trkpt lat="49.88841" lon="2.50777">
        <ele>71.7</ele>
        <time>2023-09-27T14:46:20Z</time>
      </trkpt>
      <trkpt lat="49.88841" lon="2.50777">
        <ele>71.7</ele>
        <time>2023-09-27T14:46:21Z</time>
      </trkpt>
      <trkpt lat="49.8884" lon="2.50777">
        <ele>71.7</ele>
        <time>2023-09-27T14:46:22Z</time>
      </trkpt>
      <trkpt lat="49.8884" lon="2.50777">
        <ele>71.8</ele>
        <time>2023-09-27T14:46:23Z</time>
      </trkpt>
      <trkpt lat="49.88839" lon="2.50777">
        <ele>71.8</ele>
        <time>2023-09-27T14:46:24Z</time>
      </trkpt>
      <trkpt lat="49.88839" lon="2.50778">
        <ele>71.8</ele>
        <time>2023-09-27T14:46:25Z</time>
      </trkpt>
      <trkpt lat="49.88838" lon="2.50778">
        <ele>71.9</ele>
        <time>2023-09-27T14:46:26Z</time>
      </trkpt>
      <trkpt lat="49.88838" lon="2.50778">
        <ele>71.9</ele>
        <time>2023-09-27T14:46:27Z</time>
      </trkpt>
      <trkpt lat="49.88837" lon="2.50778">
        <ele>71.9</ele>
        <time>2023-09-27T14:46:28Z</time>
      </trkpt>
      <trkpt lat="49.88836" lon="2.50778">
        <ele>72</ele>
        <time>2023-09-27T14:46:29Z</time>
      </trkpt>
      <trkpt lat="49.88836" lon="2.50778">
        <ele>72</ele>
        <time>2023-09-27T14:46:30Z</time>
      </trkpt>
      <trkpt lat="49.88835" lon="2.50778">
        <ele>72.1</ele>
        <time>2023-09-27T14:46:31Z</time>
      </trkpt>
      <trkpt lat="49.88834" lon="2.50778">
        <ele>72.1</ele>
        <time>2023-09-27T14:46:32Z</time>
      </trkpt>
      <trkpt lat="49.88833" lon="2.50778">
        <ele>72.2</ele>
        <time>2023-09-27T14:46:33Z</time>
      </trkpt>
      <trkpt lat="49.88833" lon="2.50777">
        <ele>72.2</ele>
        <time>2023-09-27T14:46:34Z</time>
      </trkpt>
      <trkpt lat="49.88832" lon="2.50777">
        <ele>72.3</ele>
        <time>2023-09-27T14:46:35Z</time>
      </trkpt>
      <trkpt lat="49.88831" lon="2.50777">
        <ele>72.3</ele>
        <time>2023-09-27T14:46:36Z</time>
      </trkpt>
      <trkpt lat="49.8883" lon="2.50777">
        <ele>72.4</ele>
        <time>2023-09-27T14:46:37Z</time>
      </trkpt>
      <trkpt lat="49.88829" lon="2.50777">
        <ele>72.4</ele>
        <time>2023-09-27T14:46:38Z</time>
      </trkpt>
      <trkpt lat="49.88828" lon="2.50777">
        <ele>72.5</ele>
        <time>2023-09-27T14:46:39Z</time>
      </trkpt>
      <trkpt lat="49.88827" lon="2.50777">
        <ele>72.6</ele>
        <time>2023-09-27T14:46:40Z</time>
      </trkpt>
      <trkpt lat="49.88826" lon="2.50776">
        <ele>72.6</ele>
        <time>2023-09-27T14:46:41Z</time>
      </trkpt>
      <trkpt lat="49.88826" lon="2.50776">
        <ele>72.7</ele>
        <time>2023-09-27T14:46:42Z</time>
      </trkpt>
      <trkpt lat="49.88825" lon="2.50776">
        <ele>72.7</ele>
        <time>2023-09-27T14:46:43Z</time>
      </trkpt>
      <trkpt lat="49.88824" lon="2.50776">
        <ele>72.8</ele>
        <time>2023-09-27T14:46:44Z</time>
      </trkpt>
      <trkpt lat="49.88823" lon="2.50776">
        <ele>72.8</ele>
        <time>2023-09-27T14:46:45Z</time>
      </trkpt>
      <trkpt lat="49.88823" lon="2.50776">
        <ele>72.8</ele>
        <time>2023-09-27T14:46:46Z</time>
      </trkpt>
      <trkpt lat="49.88822" lon="2.50776">
        <ele>72.9</ele>
        <time>2023-09-27T14:46:47Z</time>
      </trkpt>
      <trkpt lat="49.88821" lon="2.50775">
        <ele>72.9</ele>
        <time>2023-09-27T14:46:48Z</time>
      </trkpt>
      <trkpt lat="49.8882" lon="2.50775">
        <ele>73</ele>
        <time>2023-09-27T14:46:49Z</time>
      </trkpt>
      <trkpt lat="49.8882" lon="2.50775">
        <ele>73</ele>
        <time>2023-09-27T14:46:50Z</time>
      </trkpt>
      <trkpt lat="49.88819" lon="2.50775">
        <ele>73.1</ele>
        <time>2023-09-27T14:46:51Z</time>
      </trkpt>
      <trkpt lat="49.88818" lon="2.50775">
        <ele>73.1</ele>
        <time>2023-09-27T14:46:52Z</time>
      </trkpt>
      <trkpt lat="49.88817" lon="2.50775">
        <ele>73.2</ele>
        <time>2023-09-27T14:46:53Z</time>
      </trkpt>
      <trkpt lat="49.88816" lon="2.50775">
        <ele>73.2</ele>
        <time>2023-09-27T14:46:54Z</time>
      </trkpt>
      <trkpt lat="49.88815" lon="2.50775">
        <ele>73.3</ele>
        <time>2023-09-27T14:46:55Z</time>
      </trkpt>
      <trkpt lat="49.88814" lon="2.50775">
        <ele>73.4</ele>
        <time>2023-09-27T14:46:56Z</time>
      </trkpt>
      <trkpt lat="49.88813" lon="2.50774">
        <ele>73.4</ele>
        <time>2023-09-27T14:46:57Z</time>
      </trkpt>
      <trkpt lat="49.88811" lon="2.50774">
        <ele>73.5</ele>
        <time>2023-09-27T14:46:58Z</time>
      </trkpt>
      <trkpt lat="49.8881" lon="2.50774">
        <ele>73.6</ele>
        <time>2023-09-27T14:46:59Z</time>
      </trkpt>
      <trkpt lat="49.88809" lon="2.50774">
        <ele>73.6</ele>
        <time>2023-09-27T14:47:00Z</time>
      </trkpt>
      <trkpt lat="49.88808" lon="2.50774">
        <ele>73.7</ele>
        <time>2023-09-27T14:47:01Z</time>
      </trkpt>
      <trkpt lat="49.88807" lon="2.50774">
        <ele>73.8</ele>
        <time>2023-09-27T14:47:02Z</time>
      </trkpt>
      <trkpt lat="49.88806" lon="2.50774">
        <ele>73.8</ele>
        <time>2023-09-27T14:47:03Z</time>
      </trkpt>
      <trkpt lat="49.88804" lon="2.50774">
        <ele>73.9</ele>
        <time>2023-09-27T14:47:04Z</time>
      </trkpt>
      <trkpt lat="49.88803" lon="2.50774">
        <ele>74</ele>
        <time>2023-09-27T14:47:05Z</time>
      </trkpt>
      <trkpt lat="49.88802" lon="2.50773">
        <ele>74</ele>
        <time>2023-09-27T14:47:06Z</time>
      </trkpt>
      <trkpt lat="49.88802" lon="2.50773">
        <ele>74.1</ele>
        <time>2023-09-27T14:47:07Z</time>
      </trkpt>
      <trkpt lat="49.88801" lon="2.50774">
        <ele>74.1</ele>
        <time>2023-09-27T14:47:08Z</time>
      </trkpt>
      <trkpt lat="49.888" lon="2.50774">
        <ele>74.2</ele>
        <time>2023-09-27T14:47:09Z</time>
      </trkpt>
      <trkpt lat="49.88799" lon="2.50774">
        <ele>74.2</ele>
        <time>2023-09-27T14:47:10Z</time>
      </trkpt>
      <trkpt lat="49.88799" lon="2.50774">
        <ele>74.2</ele>
        <time>2023-09-27T14:47:11Z</time>
      </trkpt>
      <trkpt lat="49.88798" lon="2.50774">
        <ele>74.3</ele>
        <time>2023-09-27T14:47:12Z</time>
      </trkpt>
      <trkpt lat="49.88797" lon="2.50774">
        <ele>74.3</ele>
        <time>2023-09-27T14:47:13Z</time>
      </trkpt>
      <trkpt lat="49.88796" lon="2.50773">
        <ele>74.4</ele>
        <time>2023-09-27T14:47:14Z</time>
      </trkpt>
      <trkpt lat="49.88795" lon="2.50773">
        <ele>74.4</ele>
        <time>2023-09-27T14:47:15Z</time>
      </trkpt>
      <trkpt lat="49.88795" lon="2.50773">
        <ele>74.5</ele>
        <time>2023-09-27T14:47:16Z</time>
      </trkpt>
      <trkpt lat="49.88794" lon="2.50773">
        <ele>74.5</ele>
        <time>2023-09-27T14:47:17Z</time>
      </trkpt>
      <trkpt lat="49.88793" lon="2.50773">
        <ele>74.6</ele>
        <time>2023-09-27T14:47:18Z</time>
      </trkpt>
      <trkpt lat="49.88792" lon="2.50773">
        <ele>74.6</ele>
        <time>2023-09-27T14:47:19Z</time>
      </trkpt>
      <trkpt lat="49.88791" lon="2.50772">
        <ele>74.7</ele>
        <time>2023-09-27T14:47:20Z</time>
      </trkpt>
      <trkpt lat="49.8879" lon="2.50772">
        <ele>74.7</ele>
        <time>2023-09-27T14:47:21Z</time>
      </trkpt>
      <trkpt lat="49.8879" lon="2.50772">
        <ele>74.8</ele>
        <time>2023-09-27T14:47:22Z</time>
      </trkpt>
      <trkpt lat="49.88789" lon="2.50772">
        <ele>74.8</ele>
        <time>2023-09-27T14:47:23Z</time>
      </trkpt>
      <trkpt lat="49.88788" lon="2.50772">
        <ele>74.9</ele>
        <time>2023-09-27T14:47:24Z</time>
      </trkpt>
      <trkpt lat="49.88787" lon="2.50771">
        <ele>74.9</ele>
        <time>2023-09-27T14:47:25Z</time>
      </trkpt>
      <trkpt lat="49.88786" lon="2.50771">
        <ele>75</ele>
        <time>2023-09-27T14:47:26Z</time>
      </trkpt>
      <trkpt lat="49.88785" lon="2.50771">
        <ele>75</ele>
        <time>2023-09-27T14:47:27Z</time>
      </trkpt>
      <trkpt lat="49.88785" lon="2.50771">
        <ele>75</ele>
        <time>2023-09-27T14:47:28Z</time>
      </trkpt>
      <trkpt lat="49.88784" lon="2.5077">
        <ele>75.1</ele>
        <time>2023-09-27T14:47:29Z</time>
      </trkpt>
      <trkpt lat="49.88783" lon="2.5077">
        <ele>75.2</ele>
        <time>2023-09-27T14:47:30Z</time>
      </trkpt>
      <trkpt lat="49.88782" lon="2.5077">
        <ele>75.2</ele>
        <time>2023-09-27T14:47:31Z</time>
      </trkpt>
      <trkpt lat="49.88781" lon="2.5077">
        <ele>75.3</ele>
        <time>2023-09-27T14:47:32Z</time>
      </trkpt>
      <trkpt lat="49.8878" lon="2.5077">
        <ele>75.3</ele>
        <time>2023-09-27T14:47:33Z</time>
      </trkpt>
      <trkpt lat="49.88778" lon="2.5077">
        <ele>75.4</ele>
        <time>2023-09-27T14:47:34Z</time>
      </trkpt>
      <trkpt lat="49.88777" lon="2.5077">
        <ele>75.4</ele>
        <time>2023-09-27T14:47:35Z</time>
      </trkpt>
      <trkpt lat="49.88776" lon="2.5077">
        <ele>75.5</ele>
        <time>2023-09-27T14:47:36Z</time>
      </trkpt>
      <trkpt lat="49.88775" lon="2.5077">
        <ele>75.5</ele>
        <time>2023-09-27T14:47:37Z</time>
      </trkpt>
      <trkpt lat="49.88774" lon="2.50769">
        <ele>75.6</ele>
        <time>2023-09-27T14:47:38Z</time>
      </trkpt>
      <trkpt lat="49.88773" lon="2.50769">
        <ele>75.6</ele>
        <time>2023-09-27T14:47:39Z</time>
      </trkpt>
      <trkpt lat="49.88772" lon="2.50769">
        <ele>75.7</ele>
        <time>2023-09-27T14:47:40Z</time>
      </trkpt>
      <trkpt lat="49.88771" lon="2.50769">
        <ele>75.7</ele>
        <time>2023-09-27T14:47:41Z</time>
      </trkpt>
      <trkpt lat="49.88771" lon="2.50769">
        <ele>75.7</ele>
        <time>2023-09-27T14:47:42Z</time>
      </trkpt>
      <trkpt lat="49.8877" lon="2.50769">
        <ele>75.8</ele>
        <time>2023-09-27T14:47:43Z</time>
      </trkpt>
      <trkpt lat="49.88769" lon="2.50769">
        <ele>75.8</ele>
        <time>2023-09-27T14:47:44Z</time>
      </trkpt>
      <trkpt lat="49.88768" lon="2.50769">
        <ele>75.8</ele>
        <time>2023-09-27T14:47:45Z</time>
      </trkpt>
      <trkpt lat="49.88767" lon="2.50769">
        <ele>75.9</ele>
        <time>2023-09-27T14:47:46Z</time>
      </trkpt>
      <trkpt lat="49.88766" lon="2.5077">
        <ele>75.9</ele>
        <time>2023-09-27T14:47:47Z</time>
      </trkpt>
      <trkpt lat="49.88765" lon="2.5077">
        <ele>75.9</ele>
        <time>2023-09-27T14:47:48Z</time>
      </trkpt>
      <trkpt lat="49.88764" lon="2.5077">
        <ele>76</ele>
        <time>2023-09-27T14:47:49Z</time>
      </trkpt>
      <trkpt lat="49.88764" lon="2.5077">
        <ele>76</ele>
        <time>2023-09-27T14:47:50Z</time>
      </trkpt>
      <trkpt lat="49.88763" lon="2.5077">
        <ele>76</ele>
        <time>2023-09-27T14:47:51Z</time>
      </trkpt>
      <trkpt lat="49.88762" lon="2.5077">
        <ele>76</ele>
        <time>2023-09-27T14:47:52Z</time>
      </trkpt>
      <trkpt lat="49.88761" lon="2.5077">
        <ele>76</ele>
        <time>2023-09-27T14:47:53Z</time>
      </trkpt>
      <trkpt lat="49.8876" lon="2.5077">
        <ele>76.1</ele>
        <time>2023-09-27T14:47:54Z</time>
      </trkpt>
      <trkpt lat="49.88759" lon="2.5077">
        <ele>76.1</ele>
        <time>2023-09-27T14:47:55Z</time>
      </trkpt>
      <trkpt lat="49.88758" lon="2.50769">
        <ele>76.1</ele>
        <time>2023-09-27T14:47:56Z</time>
      </trkpt>
      <trkpt lat="49.88757" lon="2.50769">
        <ele>76.1</ele>
        <time>2023-09-27T14:47:57Z</time>
      </trkpt>
      <trkpt lat="49.88756" lon="2.50769">
        <ele>76.1</ele>
        <time>2023-09-27T14:47:58Z</time>
      </trkpt>
      <trkpt lat="49.88756" lon="2.50769">
        <ele>76.1</ele>
        <time>2023-09-27T14:47:59Z</time>
      </trkpt>
      <trkpt lat="49.88755" lon="2.50769">
        <ele>76.2</ele>
        <time>2023-09-27T14:48:00Z</time>
      </trkpt>
      <trkpt lat="49.88754" lon="2.50769">
        <ele>76.2</ele>
        <time>2023-09-27T14:48:01Z</time>
      </trkpt>
      <trkpt lat="49.88753" lon="2.50769">
        <ele>76.2</ele>
        <time>2023-09-27T14:48:02Z</time>
      </trkpt>
      <trkpt lat="49.88752" lon="2.50769">
        <ele>76.2</ele>
        <time>2023-09-27T14:48:03Z</time>
      </trkpt>
      <trkpt lat="49.88751" lon="2.50768">
        <ele>76.2</ele>
        <time>2023-09-27T14:48:04Z</time>
      </trkpt>
      <trkpt lat="49.8875" lon="2.50768">
        <ele>76.3</ele>
        <time>2023-09-27T14:48:05Z</time>
      </trkpt>
      <trkpt lat="49.88749" lon="2.50768">
        <ele>76.3</ele>
        <time>2023-09-27T14:48:06Z</time>
      </trkpt>
      <trkpt lat="49.88748" lon="2.50768">
        <ele>76.4</ele>
        <time>2023-09-27T14:48:07Z</time>
      </trkpt>
      <trkpt lat="49.88747" lon="2.50767">
        <ele>76.4</ele>
        <time>2023-09-27T14:48:08Z</time>
      </trkpt>
      <trkpt lat="49.88746" lon="2.50767">
        <ele>76.4</ele>
        <time>2023-09-27T14:48:09Z</time>
      </trkpt>
      <trkpt lat="49.88746" lon="2.50767">
        <ele>76.5</ele>
        <time>2023-09-27T14:48:10Z</time>
      </trkpt>
      <trkpt lat="49.88745" lon="2.50767">
        <ele>76.5</ele>
        <time>2023-09-27T14:48:11Z</time>
      </trkpt>
      <trkpt lat="49.88744" lon="2.50767">
        <ele>76.5</ele>
        <time>2023-09-27T14:48:12Z</time>
      </trkpt>
      <trkpt lat="49.88742" lon="2.50767">
        <ele>76.6</ele>
        <time>2023-09-27T14:48:13Z</time>
      </trkpt>
      <trkpt lat="49.88741" lon="2.50766">
        <ele>76.6</ele>
        <time>2023-09-27T14:48:14Z</time>
      </trkpt>
      <trkpt lat="49.8874" lon="2.50766">
        <ele>76.7</ele>
        <time>2023-09-27T14:48:15Z</time>
      </trkpt>
      <trkpt lat="49.88739" lon="2.50766">
        <ele>76.7</ele>
        <time>2023-09-27T14:48:16Z</time>
      </trkpt>
      <trkpt lat="49.88738" lon="2.50766">
        <ele>76.7</ele>
        <time>2023-09-27T14:48:17Z</time>
      </trkpt>
      <trkpt lat="49.88737" lon="2.50766">
        <ele>76.8</ele>
        <time>2023-09-27T14:48:18Z</time>
      </trkpt>
      <trkpt lat="49.88736" lon="2.50765">
        <ele>76.8</ele>
        <time>2023-09-27T14:48:19Z</time>
      </trkpt>
      <trkpt lat="49.88735" lon="2.50765">
        <ele>76.8</ele>
        <time>2023-09-27T14:48:20Z</time>
      </trkpt>
      <trkpt lat="49.88733" lon="2.50765">
        <ele>76.9</ele>
        <time>2023-09-27T14:48:21Z</time>
      </trkpt>
      <trkpt lat="49.88732" lon="2.50765">
        <ele>76.9</ele>
        <time>2023-09-27T14:48:22Z</time>
      </trkpt>
      <trkpt lat="49.88731" lon="2.50765">
        <ele>77</ele>
        <time>2023-09-27T14:48:23Z</time>
      </trkpt>
      <trkpt lat="49.8873" lon="2.50765">
        <ele>77</ele>
        <time>2023-09-27T14:48:24Z</time>
      </trkpt>
      <trkpt lat="49.88729" lon="2.50765">
        <ele>77</ele>
        <time>2023-09-27T14:48:25Z</time>
      </trkpt>
      <trkpt lat="49.88728" lon="2.50765">
        <ele>77</ele>
        <time>2023-09-27T14:48:26Z</time>
      </trkpt>
      <trkpt lat="49.88727" lon="2.50765">
        <ele>77.1</ele>
        <time>2023-09-27T14:48:27Z</time>
      </trkpt>
      <trkpt lat="49.88726" lon="2.50765">
        <ele>77.1</ele>
        <time>2023-09-27T14:48:28Z</time>
      </trkpt>
      <trkpt lat="49.88725" lon="2.50765">
        <ele>77.1</ele>
        <time>2023-09-27T14:48:29Z</time>
      </trkpt>
      <trkpt lat="49.88724" lon="2.50765">
        <ele>77.1</ele>
        <time>2023-09-27T14:48:30Z</time>
      </trkpt>
      <trkpt lat="49.88723" lon="2.50765">
        <ele>77.2</ele>
        <time>2023-09-27T14:48:31Z</time>
      </trkpt>
      <trkpt lat="49.88721" lon="2.50765">
        <ele>77.2</ele>
        <time>2023-09-27T14:48:32Z</time>
      </trkpt>
      <trkpt lat="49.8872" lon="2.50765">
        <ele>77.2</ele>
        <time>2023-09-27T14:48:33Z</time>
      </trkpt>
      <trkpt lat="49.88719" lon="2.50765">
        <ele>77.3</ele>
        <time>2023-09-27T14:48:34Z</time>
      </trkpt>
      <trkpt lat="49.88718" lon="2.50765">
        <ele>77.3</ele>
        <time>2023-09-27T14:48:35Z</time>
      </trkpt>
      <trkpt lat="49.88717" lon="2.50765">
        <ele>77.3</ele>
        <time>2023-09-27T14:48:36Z</time>
      </trkpt>
      <trkpt lat="49.88716" lon="2.50765">
        <ele>77.3</ele>
        <time>2023-09-27T14:48:37Z</time>
      </trkpt>
      <trkpt lat="49.88715" lon="2.50765">
        <ele>77.4</ele>
        <time>2023-09-27T14:48:38Z</time>
      </trkpt>
      <trkpt lat="49.88714" lon="2.50766">
        <ele>77.4</ele>
        <time>2023-09-27T14:48:39Z</time>
      </trkpt>
      <trkpt lat="49.88713" lon="2.50766">
        <ele>77.4</ele>
        <time>2023-09-27T14:48:40Z</time>
      </trkpt>
      <trkpt lat="49.88712" lon="2.50766">
        <ele>77.4</ele>
        <time>2023-09-27T14:48:41Z</time>
      </trkpt>
      <trkpt lat="49.88711" lon="2.50766">
        <ele>77.5</ele>
        <time>2023-09-27T14:48:42Z</time>
      </trkpt>
      <trkpt lat="49.8871" lon="2.50766">
        <ele>77.5</ele>
        <time>2023-09-27T14:48:43Z</time>
      </trkpt>
      <trkpt lat="49.88708" lon="2.50766">
        <ele>77.5</ele>
        <time>2023-09-27T14:48:44Z</time>
      </trkpt>
      <trkpt lat="49.88708" lon="2.50766">
        <ele>77.5</ele>
        <time>2023-09-27T14:48:45Z</time>
      </trkpt>
      <trkpt lat="49.88707" lon="2.50766">
        <ele>77.5</ele>
        <time>2023-09-27T14:48:46Z</time>
      </trkpt>
      <trkpt lat="49.88706" lon="2.50766">
        <ele>77.6</ele>
        <time>2023-09-27T14:48:47Z</time>
      </trkpt>
      <trkpt lat="49.88705" lon="2.50766">
        <ele>77.6</ele>
        <time>2023-09-27T14:48:48Z</time>
      </trkpt>
      <trkpt lat="49.88704" lon="2.50766">
        <ele>77.6</ele>
        <time>2023-09-27T14:48:49Z</time>
      </trkpt>
      <trkpt lat="49.88703" lon="2.50766">
        <ele>77.6</ele>
        <time>2023-09-27T14:48:50Z</time>
      </trkpt>
      <trkpt lat="49.88702" lon="2.50766">
        <ele>77.6</ele>
        <time>2023-09-27T14:48:51Z</time>
      </trkpt>
      <trkpt lat="49.88701" lon="2.50766">
        <ele>77.7</ele>
        <time>2023-09-27T14:48:52Z</time>
      </trkpt>
      <trkpt lat="49.887" lon="2.50766">
        <ele>77.7</ele>
        <time>2023-09-27T14:48:53Z</time>
      </trkpt>
      <trkpt lat="49.88699" lon="2.50766">
        <ele>77.7</ele>
        <time>2023-09-27T14:48:54Z</time>
      </trkpt>
      <trkpt lat="49.88698" lon="2.50767">
        <ele>77.7</ele>
        <time>2023-09-27T14:48:55Z</time>
      </trkpt>
      <trkpt lat="49.88696" lon="2.50767">
        <ele>77.8</ele>
        <time>2023-09-27T14:48:56Z</time>
      </trkpt>
      <trkpt lat="49.88695" lon="2.50767">
        <ele>77.8</ele>
        <time>2023-09-27T14:48:57Z</time>
      </trkpt>
      <trkpt lat="49.88694" lon="2.50767">
        <ele>77.8</ele>
        <time>2023-09-27T14:48:58Z</time>
      </trkpt>
      <trkpt lat="49.88693" lon="2.50767">
        <ele>77.8</ele>
        <time>2023-09-27T14:48:59Z</time>
      </trkpt>
      <trkpt lat="49.88692" lon="2.50767">
        <ele>77.8</ele>
        <time>2023-09-27T14:49:00Z</time>
      </trkpt>
      <trkpt lat="49.88691" lon="2.50767">
        <ele>77.9</ele>
        <time>2023-09-27T14:49:01Z</time>
      </trkpt>
      <trkpt lat="49.8869" lon="2.50767">
        <ele>77.9</ele>
        <time>2023-09-27T14:49:02Z</time>
      </trkpt>
      <trkpt lat="49.88689" lon="2.50767">
        <ele>77.9</ele>
        <time>2023-09-27T14:49:03Z</time>
      </trkpt>
      <trkpt lat="49.88688" lon="2.50767">
        <ele>77.9</ele>
        <time>2023-09-27T14:49:04Z</time>
      </trkpt>
      <trkpt lat="49.88687" lon="2.50766">
        <ele>78</ele>
        <time>2023-09-27T14:49:05Z</time>
      </trkpt>
      <trkpt lat="49.88686" lon="2.50766">
        <ele>78</ele>
        <time>2023-09-27T14:49:06Z</time>
      </trkpt>
      <trkpt lat="49.88685" lon="2.50766">
        <ele>78</ele>
        <time>2023-09-27T14:49:07Z</time>
      </trkpt>
      <trkpt lat="49.88684" lon="2.50767">
        <ele>78</ele>
        <time>2023-09-27T14:49:08Z</time>
      </trkpt>
      <trkpt lat="49.88683" lon="2.50767">
        <ele>78</ele>
        <time>2023-09-27T14:49:09Z</time>
      </trkpt>
      <trkpt lat="49.88682" lon="2.50767">
        <ele>78.1</ele>
        <time>2023-09-27T14:49:10Z</time>
      </trkpt>
      <trkpt lat="49.88681" lon="2.50767">
        <ele>78.1</ele>
        <time>2023-09-27T14:49:11Z</time>
      </trkpt>
      <trkpt lat="49.8868" lon="2.50767">
        <ele>78.1</ele>
        <time>2023-09-27T14:49:12Z</time>
      </trkpt>
      <trkpt lat="49.88679" lon="2.50767">
        <ele>78.1</ele>
        <time>2023-09-27T14:49:13Z</time>
      </trkpt>
      <trkpt lat="49.88679" lon="2.50767">
        <ele>78.1</ele>
        <time>2023-09-27T14:49:14Z</time>
      </trkpt>
      <trkpt lat="49.88678" lon="2.50767">
        <ele>78.1</ele>
        <time>2023-09-27T14:49:15Z</time>
      </trkpt>
      <trkpt lat="49.88677" lon="2.50767">
        <ele>78.1</ele>
        <time>2023-09-27T14:49:16Z</time>
      </trkpt>
      <trkpt lat="49.88676" lon="2.50767">
        <ele>78.2</ele>
        <time>2023-09-27T14:49:17Z</time>
      </trkpt>
      <trkpt lat="49.88675" lon="2.50767">
        <ele>78.2</ele>
        <time>2023-09-27T14:49:18Z</time>
      </trkpt>
      <trkpt lat="49.88674" lon="2.50767">
        <ele>78.2</ele>
        <time>2023-09-27T14:49:19Z</time>
      </trkpt>
      <trkpt lat="49.88673" lon="2.50767">
        <ele>78.2</ele>
        <time>2023-09-27T14:49:20Z</time>
      </trkpt>
      <trkpt lat="49.88672" lon="2.50767">
        <ele>78.2</ele>
        <time>2023-09-27T14:49:21Z</time>
      </trkpt>
      <trkpt lat="49.88671" lon="2.50768">
        <ele>78.2</ele>
        <time>2023-09-27T14:49:22Z</time>
      </trkpt>
      <trkpt lat="49.8867" lon="2.50768">
        <ele>78.2</ele>
        <time>2023-09-27T14:49:23Z</time>
      </trkpt>
      <trkpt lat="49.88669" lon="2.50768">
        <ele>78.3</ele>
        <time>2023-09-27T14:49:24Z</time>
      </trkpt>
      <trkpt lat="49.88668" lon="2.50768">
        <ele>78.3</ele>
        <time>2023-09-27T14:49:25Z</time>
      </trkpt>
      <trkpt lat="49.88667" lon="2.50768">
        <ele>78.3</ele>
        <time>2023-09-27T14:49:26Z</time>
      </trkpt>
      <trkpt lat="49.88666" lon="2.50768">
        <ele>78.3</ele>
        <time>2023-09-27T14:49:27Z</time>
      </trkpt>
      <trkpt lat="49.88666" lon="2.50769">
        <ele>78.3</ele>
        <time>2023-09-27T14:49:28Z</time>
      </trkpt>
      <trkpt lat="49.88665" lon="2.50769">
        <ele>78.3</ele>
        <time>2023-09-27T14:49:29Z</time>
      </trkpt>
      <trkpt lat="49.88663" lon="2.50769">
        <ele>78.3</ele>
        <time>2023-09-27T14:49:30Z</time>
      </trkpt>
      <trkpt lat="49.88662" lon="2.50769">
        <ele>78.3</ele>
        <time>2023-09-27T14:49:31Z</time>
      </trkpt>
      <trkpt lat="49.88661" lon="2.50769">
        <ele>78.3</ele>
        <time>2023-09-27T14:49:32Z</time>
      </trkpt>
      <trkpt lat="49.8866" lon="2.5077">
        <ele>78.3</ele>
        <time>2023-09-27T14:49:33Z</time>
      </trkpt>
      <trkpt lat="49.88659" lon="2.5077">
        <ele>78.3</ele>
        <time>2023-09-27T14:49:34Z</time>
      </trkpt>
      <trkpt lat="49.88658" lon="2.5077">
        <ele>78.4</ele>
        <time>2023-09-27T14:49:35Z</time>
      </trkpt>
      <trkpt lat="49.88657" lon="2.5077">
        <ele>78.4</ele>
        <time>2023-09-27T14:49:36Z</time>
      </trkpt>
      <trkpt lat="49.88656" lon="2.50771">
        <ele>78.4</ele>
        <time>2023-09-27T14:49:37Z</time>
      </trkpt>
      <trkpt lat="49.88655" lon="2.50771">
        <ele>78.4</ele>
        <time>2023-09-27T14:49:38Z</time>
      </trkpt>
      <trkpt lat="49.88654" lon="2.50771">
        <ele>78.4</ele>
        <time>2023-09-27T14:49:39Z</time>
      </trkpt>
      <trkpt lat="49.88653" lon="2.50772">
        <ele>78.4</ele>
        <time>2023-09-27T14:49:40Z</time>
      </trkpt>
      <trkpt lat="49.88652" lon="2.50772">
        <ele>78.4</ele>
        <time>2023-09-27T14:49:41Z</time>
      </trkpt>
      <trkpt lat="49.88651" lon="2.50772">
        <ele>78.4</ele>
        <time>2023-09-27T14:49:42Z</time>
      </trkpt>
      <trkpt lat="49.8865" lon="2.50772">
        <ele>78.4</ele>
        <time>2023-09-27T14:49:43Z</time>
      </trkpt>
      <trkpt lat="49.88649" lon="2.50773">
        <ele>78.4</ele>
        <time>2023-09-27T14:49:44Z</time>
      </trkpt>
      <trkpt lat="49.88648" lon="2.50773">
        <ele>78.4</ele>
        <time>2023-09-27T14:49:45Z</time>
      </trkpt>
      <trkpt lat="49.88647" lon="2.50773">
        <ele>78.4</ele>
        <time>2023-09-27T14:49:46Z</time>
      </trkpt>
      <trkpt lat="49.88646" lon="2.50773">
        <ele>78.4</ele>
        <time>2023-09-27T14:49:47Z</time>
      </trkpt>
      <trkpt lat="49.88645" lon="2.50774">
        <ele>78.4</ele>
        <time>2023-09-27T14:49:48Z</time>
      </trkpt>
      <trkpt lat="49.88643" lon="2.50774">
        <ele>78.4</ele>
        <time>2023-09-27T14:49:49Z</time>
      </trkpt>
      <trkpt lat="49.88642" lon="2.50774">
        <ele>78.4</ele>
        <time>2023-09-27T14:49:50Z</time>
      </trkpt>
      <trkpt lat="49.88641" lon="2.50774">
        <ele>78.4</ele>
        <time>2023-09-27T14:49:51Z</time>
      </trkpt>
      <trkpt lat="49.8864" lon="2.50774">
        <ele>78.4</ele>
        <time>2023-09-27T14:49:52Z</time>
      </trkpt>
      <trkpt lat="49.88639" lon="2.50774">
        <ele>78.4</ele>
        <time>2023-09-27T14:49:53Z</time>
      </trkpt>
      <trkpt lat="49.88638" lon="2.50774">
        <ele>78.4</ele>
        <time>2023-09-27T14:49:54Z</time>
      </trkpt>
      <trkpt lat="49.88636" lon="2.50775">
        <ele>78.5</ele>
        <time>2023-09-27T14:49:55Z</time>
      </trkpt>
      <trkpt lat="49.88635" lon="2.50775">
        <ele>78.5</ele>
        <time>2023-09-27T14:49:56Z</time>
      </trkpt>
      <trkpt lat="49.88634" lon="2.50775">
        <ele>78.5</ele>
        <time>2023-09-27T14:49:57Z</time>
      </trkpt>
      <trkpt lat="49.88632" lon="2.50775">
        <ele>78.5</ele>
        <time>2023-09-27T14:49:58Z</time>
      </trkpt>
      <trkpt lat="49.88631" lon="2.50775">
        <ele>78.5</ele>
        <time>2023-09-27T14:49:59Z</time>
      </trkpt>
      <trkpt lat="49.88631" lon="2.50775">
        <ele>78.5</ele>
        <time>2023-09-27T14:50:00Z</time>
      </trkpt>
      <trkpt lat="49.88629" lon="2.50775">
        <ele>78.5</ele>
        <time>2023-09-27T14:50:01Z</time>
      </trkpt>
      <trkpt lat="49.88628" lon="2.50776">
        <ele>78.5</ele>
        <time>2023-09-27T14:50:02Z</time>
      </trkpt>
      <trkpt lat="49.88627" lon="2.50776">
        <ele>78.5</ele>
        <time>2023-09-27T14:50:03Z</time>
      </trkpt>
      <trkpt lat="49.88626" lon="2.50776">
        <ele>78.5</ele>
        <time>2023-09-27T14:50:04Z</time>
      </trkpt>
      <trkpt lat="49.88625" lon="2.50777">
        <ele>78.5</ele>
        <time>2023-09-27T14:50:05Z</time>
      </trkpt>
      <trkpt lat="49.88624" lon="2.50777">
        <ele>78.5</ele>
        <time>2023-09-27T14:50:06Z</time>
      </trkpt>
      <trkpt lat="49.88623" lon="2.50777">
        <ele>78.5</ele>
        <time>2023-09-27T14:50:07Z</time>
      </trkpt>
      <trkpt lat="49.88622" lon="2.50777">
        <ele>78.5</ele>
        <time>2023-09-27T14:50:08Z</time>
      </trkpt>
      <trkpt lat="49.88621" lon="2.50778">
        <ele>78.5</ele>
        <time>2023-09-27T14:50:09Z</time>
      </trkpt>
      <trkpt lat="49.8862" lon="2.50778">
        <ele>78.4</ele>
        <time>2023-09-27T14:50:10Z</time>
      </trkpt>
      <trkpt lat="49.88619" lon="2.50779">
        <ele>78.4</ele>
        <time>2023-09-27T14:50:11Z</time>
      </trkpt>
      <trkpt lat="49.88618" lon="2.50779">
        <ele>78.4</ele>
        <time>2023-09-27T14:50:12Z</time>
      </trkpt>
      <trkpt lat="49.88616" lon="2.50779">
        <ele>78.4</ele>
        <time>2023-09-27T14:50:13Z</time>
      </trkpt>
      <trkpt lat="49.88616" lon="2.5078">
        <ele>78.4</ele>
        <time>2023-09-27T14:50:14Z</time>
      </trkpt>
      <trkpt lat="49.88615" lon="2.5078">
        <ele>78.4</ele>
        <time>2023-09-27T14:50:15Z</time>
      </trkpt>
      <trkpt lat="49.88614" lon="2.5078">
        <ele>78.4</ele>
        <time>2023-09-27T14:50:16Z</time>
      </trkpt>
      <trkpt lat="49.88613" lon="2.5078">
        <ele>78.4</ele>
        <time>2023-09-27T14:50:17Z</time>
      </trkpt>
      <trkpt lat="49.88612" lon="2.50781">
        <ele>78.4</ele>
        <time>2023-09-27T14:50:18Z</time>
      </trkpt>
      <trkpt lat="49.88611" lon="2.50781">
        <ele>78.4</ele>
        <time>2023-09-27T14:50:19Z</time>
      </trkpt>
      <trkpt lat="49.8861" lon="2.50781">
        <ele>78.4</ele>
        <time>2023-09-27T14:50:20Z</time>
      </trkpt>
      <trkpt lat="49.88608" lon="2.50782">
        <ele>78.4</ele>
        <time>2023-09-27T14:50:21Z</time>
      </trkpt>
      <trkpt lat="49.88607" lon="2.50782">
        <ele>78.4</ele>
        <time>2023-09-27T14:50:22Z</time>
      </trkpt>
      <trkpt lat="49.88605" lon="2.50782">
        <ele>78.3</ele>
        <time>2023-09-27T14:50:23Z</time>
      </trkpt>
      <trkpt lat="49.88604" lon="2.50783">
        <ele>78.3</ele>
        <time>2023-09-27T14:50:24Z</time>
      </trkpt>
      <trkpt lat="49.88603" lon="2.50783">
        <ele>78.3</ele>
        <time>2023-09-27T14:50:25Z</time>
      </trkpt>
      <trkpt lat="49.88602" lon="2.50783">
        <ele>78.3</ele>
        <time>2023-09-27T14:50:26Z</time>
      </trkpt>
      <trkpt lat="49.88601" lon="2.50784">
        <ele>78.3</ele>
        <time>2023-09-27T14:50:27Z</time>
      </trkpt>
      <trkpt lat="49.886" lon="2.50784">
        <ele>78.3</ele>
        <time>2023-09-27T14:50:28Z</time>
      </trkpt>
      <trkpt lat="49.88599" lon="2.50784">
        <ele>78.3</ele>
        <time>2023-09-27T14:50:29Z</time>
      </trkpt>
      <trkpt lat="49.88598" lon="2.50784">
        <ele>78.3</ele>
        <time>2023-09-27T14:50:30Z</time>
      </trkpt>
      <trkpt lat="49.88597" lon="2.50785">
        <ele>78.3</ele>
        <time>2023-09-27T14:50:31Z</time>
      </trkpt>
      <trkpt lat="49.88596" lon="2.50785">
        <ele>78.3</ele>
        <time>2023-09-27T14:50:32Z</time>
      </trkpt>
      <trkpt lat="49.88595" lon="2.50785">
        <ele>78.3</ele>
        <time>2023-09-27T14:50:33Z</time>
      </trkpt>
      <trkpt lat="49.88594" lon="2.50786">
        <ele>78.2</ele>
        <time>2023-09-27T14:50:34Z</time>
      </trkpt>
      <trkpt lat="49.88593" lon="2.50786">
        <ele>78.2</ele>
        <time>2023-09-27T14:50:35Z</time>
      </trkpt>
      <trkpt lat="49.88592" lon="2.50786">
        <ele>78.2</ele>
        <time>2023-09-27T14:50:36Z</time>
      </trkpt>
      <trkpt lat="49.88591" lon="2.50786">
        <ele>78.2</ele>
        <time>2023-09-27T14:50:37Z</time>
      </trkpt>
      <trkpt lat="49.8859" lon="2.50787">
        <ele>78.2</ele>
        <time>2023-09-27T14:50:38Z</time>
      </trkpt>
      <trkpt lat="49.88589" lon="2.50787">
        <ele>78.2</ele>
        <time>2023-09-27T14:50:39Z</time>
      </trkpt>
      <trkpt lat="49.88588" lon="2.50787">
        <ele>78.2</ele>
        <time>2023-09-27T14:50:40Z</time>
      </trkpt>
      <trkpt lat="49.88587" lon="2.50788">
        <ele>78.2</ele>
        <time>2023-09-27T14:50:41Z</time>
      </trkpt>
      <trkpt lat="49.88586" lon="2.50788">
        <ele>78.2</ele>
        <time>2023-09-27T14:50:42Z</time>
      </trkpt>
      <trkpt lat="49.88585" lon="2.50788">
        <ele>78.1</ele>
        <time>2023-09-27T14:50:43Z</time>
      </trkpt>
      <trkpt lat="49.88584" lon="2.50789">
        <ele>78.1</ele>
        <time>2023-09-27T14:50:44Z</time>
      </trkpt>
      <trkpt lat="49.88583" lon="2.50789">
        <ele>78.1</ele>
        <time>2023-09-27T14:50:45Z</time>
      </trkpt>
      <trkpt lat="49.88582" lon="2.5079">
        <ele>78.1</ele>
        <time>2023-09-27T14:50:46Z</time>
      </trkpt>
      <trkpt lat="49.88581" lon="2.5079">
        <ele>78.1</ele>
        <time>2023-09-27T14:50:47Z</time>
      </trkpt>
      <trkpt lat="49.8858" lon="2.50791">
        <ele>78.1</ele>
        <time>2023-09-27T14:50:48Z</time>
      </trkpt>
      <trkpt lat="49.88579" lon="2.50791">
        <ele>78</ele>
        <time>2023-09-27T14:50:49Z</time>
      </trkpt>
      <trkpt lat="49.88578" lon="2.50792">
        <ele>78</ele>
        <time>2023-09-27T14:50:50Z</time>
      </trkpt>
      <trkpt lat="49.88576" lon="2.50792">
        <ele>78</ele>
        <time>2023-09-27T14:50:51Z</time>
      </trkpt>
      <trkpt lat="49.88575" lon="2.50793">
        <ele>78</ele>
        <time>2023-09-27T14:50:52Z</time>
      </trkpt>
      <trkpt lat="49.88574" lon="2.50793">
        <ele>77.9</ele>
        <time>2023-09-27T14:50:53Z</time>
      </trkpt>
      <trkpt lat="49.88572" lon="2.50794">
        <ele>77.9</ele>
        <time>2023-09-27T14:50:54Z</time>
      </trkpt>
      <trkpt lat="49.88571" lon="2.50794">
        <ele>77.9</ele>
        <time>2023-09-27T14:50:55Z</time>
      </trkpt>
      <trkpt lat="49.88571" lon="2.50794">
        <ele>77.8</ele>
        <time>2023-09-27T14:50:56Z</time>
      </trkpt>
      <trkpt lat="49.8857" lon="2.50795">
        <ele>77.8</ele>
        <time>2023-09-27T14:50:57Z</time>
      </trkpt>
      <trkpt lat="49.88569" lon="2.50795">
        <ele>77.8</ele>
        <time>2023-09-27T14:50:58Z</time>
      </trkpt>
      <trkpt lat="49.88568" lon="2.50796">
        <ele>77.8</ele>
        <time>2023-09-27T14:50:59Z</time>
      </trkpt>
      <trkpt lat="49.88567" lon="2.50796">
        <ele>77.7</ele>
        <time>2023-09-27T14:51:00Z</time>
      </trkpt>
      <trkpt lat="49.88566" lon="2.50797">
        <ele>77.7</ele>
        <time>2023-09-27T14:51:01Z</time>
      </trkpt>
      <trkpt lat="49.88565" lon="2.50797">
        <ele>77.7</ele>
        <time>2023-09-27T14:51:02Z</time>
      </trkpt>
      <trkpt lat="49.88563" lon="2.50798">
        <ele>77.6</ele>
        <time>2023-09-27T14:51:03Z</time>
      </trkpt>
      <trkpt lat="49.88562" lon="2.50799">
        <ele>77.6</ele>
        <time>2023-09-27T14:51:04Z</time>
      </trkpt>
      <trkpt lat="49.88561" lon="2.50799">
        <ele>77.6</ele>
        <time>2023-09-27T14:51:05Z</time>
      </trkpt>
      <trkpt lat="49.8856" lon="2.508">
        <ele>77.5</ele>
        <time>2023-09-27T14:51:06Z</time>
      </trkpt>
      <trkpt lat="49.88559" lon="2.50801">
        <ele>77.5</ele>
        <time>2023-09-27T14:51:07Z</time>
      </trkpt>
      <trkpt lat="49.88558" lon="2.50801">
        <ele>77.5</ele>
        <time>2023-09-27T14:51:08Z</time>
      </trkpt>
      <trkpt lat="49.88557" lon="2.50802">
        <ele>77.4</ele>
        <time>2023-09-27T14:51:09Z</time>
      </trkpt>
      <trkpt lat="49.88556" lon="2.50802">
        <ele>77.4</ele>
        <time>2023-09-27T14:51:10Z</time>
      </trkpt>
      <trkpt lat="49.88555" lon="2.50803">
        <ele>77.4</ele>
        <time>2023-09-27T14:51:11Z</time>
      </trkpt>
      <trkpt lat="49.88554" lon="2.50804">
        <ele>77.4</ele>
        <time>2023-09-27T14:51:12Z</time>
      </trkpt>
      <trkpt lat="49.88553" lon="2.50804">
        <ele>77.3</ele>
        <time>2023-09-27T14:51:13Z</time>
      </trkpt>
      <trkpt lat="49.88552" lon="2.50805">
        <ele>77.3</ele>
        <time>2023-09-27T14:51:14Z</time>
      </trkpt>
      <trkpt lat="49.88551" lon="2.50806">
        <ele>77.3</ele>
        <time>2023-09-27T14:51:15Z</time>
      </trkpt>
      <trkpt lat="49.8855" lon="2.50807">
        <ele>77.2</ele>
        <time>2023-09-27T14:51:16Z</time>
      </trkpt>
      <trkpt lat="49.88549" lon="2.50808">
        <ele>77.2</ele>
        <time>2023-09-27T14:51:17Z</time>
      </trkpt>
      <trkpt lat="49.88548" lon="2.50808">
        <ele>77.2</ele>
        <time>2023-09-27T14:51:18Z</time>
      </trkpt>
      <trkpt lat="49.88547" lon="2.50809">
        <ele>77.2</ele>
        <time>2023-09-27T14:51:19Z</time>
      </trkpt>
      <trkpt lat="49.88546" lon="2.50809">
        <ele>77.1</ele>
        <time>2023-09-27T14:51:20Z</time>
      </trkpt>
      <trkpt lat="49.88545" lon="2.5081">
        <ele>77.1</ele>
        <time>2023-09-27T14:51:21Z</time>
      </trkpt>
      <trkpt lat="49.88545" lon="2.50811">
        <ele>77.1</ele>
        <time>2023-09-27T14:51:22Z</time>
      </trkpt>
      <trkpt lat="49.88544" lon="2.50811">
        <ele>77.1</ele>
        <time>2023-09-27T14:51:23Z</time>
      </trkpt>
      <trkpt lat="49.88543" lon="2.50812">
        <ele>77</ele>
        <time>2023-09-27T14:51:24Z</time>
      </trkpt>
      <trkpt lat="49.88542" lon="2.50812">
        <ele>77</ele>
        <time>2023-09-27T14:51:25Z</time>
      </trkpt>
      <trkpt lat="49.88541" lon="2.50812">
        <ele>77</ele>
        <time>2023-09-27T14:51:26Z</time>
      </trkpt>
      <trkpt lat="49.8854" lon="2.50813">
        <ele>77</ele>
        <time>2023-09-27T14:51:27Z</time>
      </trkpt>
      <trkpt lat="49.88539" lon="2.50813">
        <ele>76.9</ele>
        <time>2023-09-27T14:51:28Z</time>
      </trkpt>
      <trkpt lat="49.88538" lon="2.50813">
        <ele>76.9</ele>
        <time>2023-09-27T14:51:29Z</time>
      </trkpt>
      <trkpt lat="49.88537" lon="2.50814">
        <ele>76.9</ele>
        <time>2023-09-27T14:51:30Z</time>
      </trkpt>
      <trkpt lat="49.88536" lon="2.50814">
        <ele>76.9</ele>
        <time>2023-09-27T14:51:31Z</time>
      </trkpt>
      <trkpt lat="49.88535" lon="2.50815">
        <ele>76.8</ele>
        <time>2023-09-27T14:51:32Z</time>
      </trkpt>
      <trkpt lat="49.88534" lon="2.50815">
        <ele>76.8</ele>
        <time>2023-09-27T14:51:33Z</time>
      </trkpt>
      <trkpt lat="49.88533" lon="2.50815">
        <ele>76.8</ele>
        <time>2023-09-27T14:51:34Z</time>
      </trkpt>
      <trkpt lat="49.88532" lon="2.50816">
        <ele>76.8</ele>
        <time>2023-09-27T14:51:35Z</time>
      </trkpt>
      <trkpt lat="49.88531" lon="2.50816">
        <ele>76.7</ele>
        <time>2023-09-27T14:51:36Z</time>
      </trkpt>
      <trkpt lat="49.88531" lon="2.50817">
        <ele>76.7</ele>
        <time>2023-09-27T14:51:37Z</time>
      </trkpt>
      <trkpt lat="49.8853" lon="2.50818">
        <ele>76.7</ele>
        <time>2023-09-27T14:51:38Z</time>
      </trkpt>
      <trkpt lat="49.88529" lon="2.50819">
        <ele>76.7</ele>
        <time>2023-09-27T14:51:39Z</time>
      </trkpt>
      <trkpt lat="49.88529" lon="2.5082">
        <ele>76.6</ele>
        <time>2023-09-27T14:51:40Z</time>
      </trkpt>
      <trkpt lat="49.88528" lon="2.50821">
        <ele>76.6</ele>
        <time>2023-09-27T14:51:41Z</time>
      </trkpt>
      <trkpt lat="49.88528" lon="2.50823">
        <ele>73.9</ele>
        <time>2023-09-27T14:51:42Z</time>
      </trkpt>
      <trkpt lat="49.88528" lon="2.50824">
        <ele>73.6</ele>
        <time>2023-09-27T14:51:43Z</time>
      </trkpt>
      <trkpt lat="49.88528" lon="2.50826">
        <ele>73.7</ele>
        <time>2023-09-27T14:51:44Z</time>
      </trkpt>
      <trkpt lat="49.88528" lon="2.50827">
        <ele>73.8</ele>
        <time>2023-09-27T14:51:45Z</time>
      </trkpt>
      <trkpt lat="49.88529" lon="2.50829">
        <ele>73.9</ele>
        <time>2023-09-27T14:51:46Z</time>
      </trkpt>
      <trkpt lat="49.8853" lon="2.5083">
        <ele>74</ele>
        <time>2023-09-27T14:51:47Z</time>
      </trkpt>
      <trkpt lat="49.8853" lon="2.50831">
        <ele>74.1</ele>
        <time>2023-09-27T14:51:48Z</time>
      </trkpt>
      <trkpt lat="49.88531" lon="2.50833">
        <ele>74.1</ele>
        <time>2023-09-27T14:51:49Z</time>
      </trkpt>
      <trkpt lat="49.88531" lon="2.50834">
        <ele>74.2</ele>
        <time>2023-09-27T14:51:50Z</time>
      </trkpt>
      <trkpt lat="49.88532" lon="2.50835">
        <ele>74.3</ele>
        <time>2023-09-27T14:51:51Z</time>
      </trkpt>
      <trkpt lat="49.88532" lon="2.50836">
        <ele>74.6</ele>
        <time>2023-09-27T14:51:52Z</time>
      </trkpt>
      <trkpt lat="49.88532" lon="2.50837">
        <ele>75</ele>
        <time>2023-09-27T14:51:53Z</time>
      </trkpt>
      <trkpt lat="49.88533" lon="2.50838">
        <ele>75</ele>
        <time>2023-09-27T14:51:54Z</time>
      </trkpt>
      <trkpt lat="49.88533" lon="2.50839">
        <ele>75</ele>
        <time>2023-09-27T14:51:55Z</time>
      </trkpt>
      <trkpt lat="49.88533" lon="2.5084">
        <ele>75</ele>
        <time>2023-09-27T14:51:56Z</time>
      </trkpt>
      <trkpt lat="49.88534" lon="2.50841">
        <ele>75.4</ele>
        <time>2023-09-27T14:51:57Z</time>
      </trkpt>
      <trkpt lat="49.88534" lon="2.50842">
        <ele>75.4</ele>
        <time>2023-09-27T14:51:58Z</time>
      </trkpt>
      <trkpt lat="49.88535" lon="2.50844">
        <ele>75.7</ele>
        <time>2023-09-27T14:51:59Z</time>
      </trkpt>
      <trkpt lat="49.88535" lon="2.50844">
        <ele>75.8</ele>
        <time>2023-09-27T14:52:00Z</time>
      </trkpt>
      <trkpt lat="49.88535" lon="2.50845">
        <ele>76.2</ele>
        <time>2023-09-27T14:52:01Z</time>
      </trkpt>
      <trkpt lat="49.88535" lon="2.50845">
        <ele>76.2</ele>
        <time>2023-09-27T14:52:02Z</time>
      </trkpt>
      <trkpt lat="49.88535" lon="2.50845">
        <ele>76.2</ele>
        <time>2023-09-27T14:52:03Z</time>
      </trkpt>
      <trkpt lat="49.88536" lon="2.50845">
        <ele>76.2</ele>
        <time>2023-09-27T14:52:04Z</time>
      </trkpt>
      <trkpt lat="49.88536" lon="2.50845">
        <ele>76.2</ele>
        <time>2023-09-27T14:52:05Z</time>
      </trkpt>
      <trkpt lat="49.88536" lon="2.50845">
        <ele>76.2</ele>
        <time>2023-09-27T14:52:06Z</time>
      </trkpt>
      <trkpt lat="49.88536" lon="2.50846">
        <ele>76.2</ele>
        <time>2023-09-27T14:52:07Z</time>
      </trkpt>
      <trkpt lat="49.88536" lon="2.50846">
        <ele>76.2</ele>
        <time>2023-09-27T14:52:08Z</time>
      </trkpt>
      <trkpt lat="49.88537" lon="2.50847">
        <ele>76.3</ele>
        <time>2023-09-27T14:52:09Z</time>
      </trkpt>
      <trkpt lat="49.88537" lon="2.50848">
        <ele>76.3</ele>
        <time>2023-09-27T14:52:10Z</time>
      </trkpt>
      <trkpt lat="49.88537" lon="2.50849">
        <ele>76.3</ele>
        <time>2023-09-27T14:52:11Z</time>
      </trkpt>
      <trkpt lat="49.88537" lon="2.50849">
        <ele>76.7</ele>
        <time>2023-09-27T14:52:12Z</time>
      </trkpt>
      <trkpt lat="49.88537" lon="2.5085">
        <ele>77</ele>
        <time>2023-09-27T14:52:13Z</time>
      </trkpt>
      <trkpt lat="49.88538" lon="2.5085">
        <ele>77</ele>
        <time>2023-09-27T14:52:14Z</time>
      </trkpt>
      <trkpt lat="49.88538" lon="2.50851">
        <ele>77.1</ele>
        <time>2023-09-27T14:52:15Z</time>
      </trkpt>
      <trkpt lat="49.88539" lon="2.50851">
        <ele>77.1</ele>
        <time>2023-09-27T14:52:16Z</time>
      </trkpt>
      <trkpt lat="49.88539" lon="2.50852">
        <ele>77.1</ele>
        <time>2023-09-27T14:52:17Z</time>
      </trkpt>
      <trkpt lat="49.8854" lon="2.50853">
        <ele>77.1</ele>
        <time>2023-09-27T14:52:18Z</time>
      </trkpt>
      <trkpt lat="49.8854" lon="2.50853">
        <ele>77.5</ele>
        <time>2023-09-27T14:52:19Z</time>
      </trkpt>
      <trkpt lat="49.8854" lon="2.50854">
        <ele>77.8</ele>
        <time>2023-09-27T14:52:20Z</time>
      </trkpt>
      <trkpt lat="49.8854" lon="2.50855">
        <ele>77.8</ele>
        <time>2023-09-27T14:52:21Z</time>
      </trkpt>
      <trkpt lat="49.8854" lon="2.50855">
        <ele>77.8</ele>
        <time>2023-09-27T14:52:22Z</time>
      </trkpt>
      <trkpt lat="49.8854" lon="2.50855">
        <ele>77.9</ele>
        <time>2023-09-27T14:52:23Z</time>
      </trkpt>
      <trkpt lat="49.8854" lon="2.50855">
        <ele>77.9</ele>
        <time>2023-09-27T14:52:24Z</time>
      </trkpt>
      <trkpt lat="49.8854" lon="2.50855">
        <ele>77.9</ele>
        <time>2023-09-27T14:52:25Z</time>
      </trkpt>
      <trkpt lat="49.8854" lon="2.50855">
        <ele>77.9</ele>
        <time>2023-09-27T14:52:26Z</time>
      </trkpt>
      <trkpt lat="49.8854" lon="2.50855">
        <ele>77.9</ele>
        <time>2023-09-27T14:52:27Z</time>
      </trkpt>
      <trkpt lat="49.8854" lon="2.50855">
        <ele>77.9</ele>
        <time>2023-09-27T14:52:28Z</time>
      </trkpt>
      <trkpt lat="49.8854" lon="2.50855">
        <ele>77.9</ele>
        <time>2023-09-27T14:52:29Z</time>
      </trkpt>
      <trkpt lat="49.8854" lon="2.50855">
        <ele>78</ele>
        <time>2023-09-27T14:52:30Z</time>
      </trkpt>
      <trkpt lat="49.8854" lon="2.50855">
        <ele>78</ele>
        <time>2023-09-27T14:52:31Z</time>
      </trkpt>
      <trkpt lat="49.8854" lon="2.50855">
        <ele>78</ele>
        <time>2023-09-27T14:52:32Z</time>
      </trkpt>
      <trkpt lat="49.8854" lon="2.50855">
        <ele>78</ele>
        <time>2023-09-27T14:52:33Z</time>
      </trkpt>
      <trkpt lat="49.8854" lon="2.50855">
        <ele>78</ele>
        <time>2023-09-27T14:52:34Z</time>
      </trkpt>
      <trkpt lat="49.8854" lon="2.50855">
        <ele>78</ele>
        <time>2023-09-27T14:52:35Z</time>
      </trkpt>
      <trkpt lat="49.8854" lon="2.50855">
        <ele>78</ele>
        <time>2023-09-27T14:52:36Z</time>
      </trkpt>
      <trkpt lat="49.88541" lon="2.50856">
        <ele>78.1</ele>
        <time>2023-09-27T14:52:37Z</time>
      </trkpt>
      <trkpt lat="49.88541" lon="2.50856">
        <ele>78.1</ele>
        <time>2023-09-27T14:52:38Z</time>
      </trkpt>
      <trkpt lat="49.88541" lon="2.50856">
        <ele>78.1</ele>
        <time>2023-09-27T14:52:39Z</time>
      </trkpt>
      <trkpt lat="49.88542" lon="2.50857">
        <ele>78.1</ele>
        <time>2023-09-27T14:52:40Z</time>
      </trkpt>
      <trkpt lat="49.88542" lon="2.50857">
        <ele>78.1</ele>
        <time>2023-09-27T14:52:41Z</time>
      </trkpt>
      <trkpt lat="49.88543" lon="2.50858">
        <ele>78.8</ele>
        <time>2023-09-27T14:52:42Z</time>
      </trkpt>
      <trkpt lat="49.88543" lon="2.50859">
        <ele>78.8</ele>
        <time>2023-09-27T14:52:43Z</time>
      </trkpt>
      <trkpt lat="49.88543" lon="2.5086">
        <ele>78.9</ele>
        <time>2023-09-27T14:52:44Z</time>
      </trkpt>
      <trkpt lat="49.88544" lon="2.50861">
        <ele>78.9</ele>
        <time>2023-09-27T14:52:45Z</time>
      </trkpt>
      <trkpt lat="49.88544" lon="2.50861">
        <ele>78.9</ele>
        <time>2023-09-27T14:52:46Z</time>
      </trkpt>
      <trkpt lat="49.88545" lon="2.50861">
        <ele>78.9</ele>
        <time>2023-09-27T14:52:47Z</time>
      </trkpt>
      <trkpt lat="49.88546" lon="2.50861">
        <ele>78.9</ele>
        <time>2023-09-27T14:52:48Z</time>
      </trkpt>
      <trkpt lat="49.88546" lon="2.50861">
        <ele>79</ele>
        <time>2023-09-27T14:52:49Z</time>
      </trkpt>
      <trkpt lat="49.88547" lon="2.5086">
        <ele>79</ele>
        <time>2023-09-27T14:52:50Z</time>
      </trkpt>
      <trkpt lat="49.88548" lon="2.5086">
        <ele>79</ele>
        <time>2023-09-27T14:52:51Z</time>
      </trkpt>
      <trkpt lat="49.88549" lon="2.50859">
        <ele>79</ele>
        <time>2023-09-27T14:52:52Z</time>
      </trkpt>
      <trkpt lat="49.88549" lon="2.50858">
        <ele>79.1</ele>
        <time>2023-09-27T14:52:53Z</time>
      </trkpt>
      <trkpt lat="49.8855" lon="2.50858">
        <ele>79.1</ele>
        <time>2023-09-27T14:52:54Z</time>
      </trkpt>
      <trkpt lat="49.88551" lon="2.50858">
        <ele>79.1</ele>
        <time>2023-09-27T14:52:55Z</time>
      </trkpt>
      <trkpt lat="49.88552" lon="2.50858">
        <ele>79.2</ele>
        <time>2023-09-27T14:52:56Z</time>
      </trkpt>
      <trkpt lat="49.88553" lon="2.50858">
        <ele>79.3</ele>
        <time>2023-09-27T14:52:57Z</time>
      </trkpt>
      <trkpt lat="49.88554" lon="2.50858">
        <ele>79.3</ele>
        <time>2023-09-27T14:52:58Z</time>
      </trkpt>
      <trkpt lat="49.88555" lon="2.50858">
        <ele>79.4</ele>
        <time>2023-09-27T14:52:59Z</time>
      </trkpt>
      <trkpt lat="49.88557" lon="2.50858">
        <ele>79.4</ele>
        <time>2023-09-27T14:53:00Z</time>
      </trkpt>
      <trkpt lat="49.88558" lon="2.50858">
        <ele>79.5</ele>
        <time>2023-09-27T14:53:01Z</time>
      </trkpt>
      <trkpt lat="49.88559" lon="2.50858">
        <ele>79.5</ele>
        <time>2023-09-27T14:53:02Z</time>
      </trkpt>
      <trkpt lat="49.8856" lon="2.50858">
        <ele>79.5</ele>
        <time>2023-09-27T14:53:03Z</time>
      </trkpt>
      <trkpt lat="49.88561" lon="2.50858">
        <ele>79.6</ele>
        <time>2023-09-27T14:53:04Z</time>
      </trkpt>
      <trkpt lat="49.88562" lon="2.50858">
        <ele>79.6</ele>
        <time>2023-09-27T14:53:05Z</time>
      </trkpt>
      <trkpt lat="49.88562" lon="2.50858">
        <ele>79.7</ele>
        <time>2023-09-27T14:53:06Z</time>
      </trkpt>
      <trkpt lat="49.88563" lon="2.50858">
        <ele>79.7</ele>
        <time>2023-09-27T14:53:07Z</time>
      </trkpt>
      <trkpt lat="49.88564" lon="2.50858">
        <ele>79.7</ele>
        <time>2023-09-27T14:53:08Z</time>
      </trkpt>
      <trkpt lat="49.88565" lon="2.50858">
        <ele>79.7</ele>
        <time>2023-09-27T14:53:09Z</time>
      </trkpt>
      <trkpt lat="49.88566" lon="2.50858">
        <ele>79.7</ele>
        <time>2023-09-27T14:53:10Z</time>
      </trkpt>
      <trkpt lat="49.88567" lon="2.50858">
        <ele>79.7</ele>
        <time>2023-09-27T14:53:11Z</time>
      </trkpt>
      <trkpt lat="49.88568" lon="2.50859">
        <ele>79.7</ele>
        <time>2023-09-27T14:53:12Z</time>
      </trkpt>
      <trkpt lat="49.88569" lon="2.5086">
        <ele>79.7</ele>
        <time>2023-09-27T14:53:13Z</time>
      </trkpt>
      <trkpt lat="49.88569" lon="2.50861">
        <ele>79.7</ele>
        <time>2023-09-27T14:53:14Z</time>
      </trkpt>
      <trkpt lat="49.8857" lon="2.50862">
        <ele>79.7</ele>
        <time>2023-09-27T14:53:15Z</time>
      </trkpt>
      <trkpt lat="49.8857" lon="2.50863">
        <ele>79.7</ele>
        <time>2023-09-27T14:53:16Z</time>
      </trkpt>
      <trkpt lat="49.88571" lon="2.50864">
        <ele>79.7</ele>
        <time>2023-09-27T14:53:17Z</time>
      </trkpt>
      <trkpt lat="49.88571" lon="2.50865">
        <ele>79.7</ele>
        <time>2023-09-27T14:53:18Z</time>
      </trkpt>
      <trkpt lat="49.88572" lon="2.50866">
        <ele>79.7</ele>
        <time>2023-09-27T14:53:19Z</time>
      </trkpt>
      <trkpt lat="49.88572" lon="2.50866">
        <ele>79.7</ele>
        <time>2023-09-27T14:53:20Z</time>
      </trkpt>
      <trkpt lat="49.88573" lon="2.50867">
        <ele>79.7</ele>
        <time>2023-09-27T14:53:21Z</time>
      </trkpt>
      <trkpt lat="49.88572" lon="2.50868">
        <ele>79.7</ele>
        <time>2023-09-27T14:53:22Z</time>
      </trkpt>
      <trkpt lat="49.88572" lon="2.50868">
        <ele>79.7</ele>
        <time>2023-09-27T14:53:23Z</time>
      </trkpt>
      <trkpt lat="49.88572" lon="2.50867">
        <ele>79.7</ele>
        <time>2023-09-27T14:53:24Z</time>
      </trkpt>
      <trkpt lat="49.88572" lon="2.50867">
        <ele>79.7</ele>
        <time>2023-09-27T14:53:25Z</time>
      </trkpt>
      <trkpt lat="49.88572" lon="2.50867">
        <ele>79.7</ele>
        <time>2023-09-27T14:53:26Z</time>
      </trkpt>
      <trkpt lat="49.88572" lon="2.50867">
        <ele>79.7</ele>
        <time>2023-09-27T14:53:27Z</time>
      </trkpt>
      <trkpt lat="49.88572" lon="2.50867">
        <ele>79.7</ele>
        <time>2023-09-27T14:53:28Z</time>
      </trkpt>
      <trkpt lat="49.88572" lon="2.50867">
        <ele>79.7</ele>
        <time>2023-09-27T14:53:29Z</time>
      </trkpt>
      <trkpt lat="49.88571" lon="2.50867">
        <ele>79.7</ele>
        <time>2023-09-27T14:53:30Z</time>
      </trkpt>
      <trkpt lat="49.88571" lon="2.50867">
        <ele>79.7</ele>
        <time>2023-09-27T14:53:31Z</time>
      </trkpt>
      <trkpt lat="49.88571" lon="2.50867">
        <ele>79.7</ele>
        <time>2023-09-27T14:53:32Z</time>
      </trkpt>
      <trkpt lat="49.88571" lon="2.50867">
        <ele>79.7</ele>
        <time>2023-09-27T14:53:33Z</time>
      </trkpt>
      <trkpt lat="49.88571" lon="2.50867">
        <ele>79.7</ele>
        <time>2023-09-27T14:53:34Z</time>
      </trkpt>
      <trkpt lat="49.88571" lon="2.50866">
        <ele>79.7</ele>
        <time>2023-09-27T14:53:35Z</time>
      </trkpt>
      <trkpt lat="49.88571" lon="2.50866">
        <ele>79.7</ele>
        <time>2023-09-27T14:53:36Z</time>
      </trkpt>
      <trkpt lat="49.88571" lon="2.50866">
        <ele>79.7</ele>
        <time>2023-09-27T14:53:37Z</time>
      </trkpt>
      <trkpt lat="49.88571" lon="2.50866">
        <ele>79.7</ele>
        <time>2023-09-27T14:53:38Z</time>
      </trkpt>
      <trkpt lat="49.8857" lon="2.50866">
        <ele>79.7</ele>
        <time>2023-09-27T14:53:39Z</time>
      </trkpt>
      <trkpt lat="49.8857" lon="2.50866">
        <ele>79.7</ele>
        <time>2023-09-27T14:53:40Z</time>
      </trkpt>
      <trkpt lat="49.8857" lon="2.50866">
        <ele>79.7</ele>
        <time>2023-09-27T14:53:41Z</time>
      </trkpt>
      <trkpt lat="49.8857" lon="2.50866">
        <ele>79.7</ele>
        <time>2023-09-27T14:53:42Z</time>
      </trkpt>
      <trkpt lat="49.8857" lon="2.50866">
        <ele>79.7</ele>
        <time>2023-09-27T14:53:43Z</time>
      </trkpt>
      <trkpt lat="49.8857" lon="2.50866">
        <ele>79.7</ele>
        <time>2023-09-27T14:53:44Z</time>
      </trkpt>
      <trkpt lat="49.8857" lon="2.50866">
        <ele>79.7</ele>
        <time>2023-09-27T14:53:45Z</time>
      </trkpt>
      <trkpt lat="49.8857" lon="2.50865">
        <ele>79.7</ele>
        <time>2023-09-27T14:53:46Z</time>
      </trkpt>
      <trkpt lat="49.8857" lon="2.50865">
        <ele>79.7</ele>
        <time>2023-09-27T14:53:47Z</time>
      </trkpt>
      <trkpt lat="49.88569" lon="2.50865">
        <ele>79.7</ele>
        <time>2023-09-27T14:53:48Z</time>
      </trkpt>
      <trkpt lat="49.88569" lon="2.50865">
        <ele>79.7</ele>
        <time>2023-09-27T14:53:49Z</time>
      </trkpt>
      <trkpt lat="49.88569" lon="2.50865">
        <ele>79.7</ele>
        <time>2023-09-27T14:53:50Z</time>
      </trkpt>
      <trkpt lat="49.88569" lon="2.50865">
        <ele>79.7</ele>
        <time>2023-09-27T14:53:51Z</time>
      </trkpt>
      <trkpt lat="49.88569" lon="2.50865">
        <ele>79.7</ele>
        <time>2023-09-27T14:53:52Z</time>
      </trkpt>
      <trkpt lat="49.88568" lon="2.50863">
        <ele>79.8</ele>
        <time>2023-09-27T14:53:53Z</time>
      </trkpt>
      <trkpt lat="49.88567" lon="2.50863">
        <ele>79.8</ele>
        <time>2023-09-27T14:53:54Z</time>
      </trkpt>
      <trkpt lat="49.88567" lon="2.50863">
        <ele>79.8</ele>
        <time>2023-09-27T14:53:55Z</time>
      </trkpt>
      <trkpt lat="49.88567" lon="2.50863">
        <ele>79.8</ele>
        <time>2023-09-27T14:53:56Z</time>
      </trkpt>
      <trkpt lat="49.88567" lon="2.50863">
        <ele>79.8</ele>
        <time>2023-09-27T14:53:57Z</time>
      </trkpt>
      <trkpt lat="49.88567" lon="2.50863">
        <ele>79.8</ele>
        <time>2023-09-27T14:53:58Z</time>
      </trkpt>
      <trkpt lat="49.88567" lon="2.50863">
        <ele>79.8</ele>
        <time>2023-09-27T14:53:59Z</time>
      </trkpt>
      <trkpt lat="49.88567" lon="2.50863">
        <ele>79.8</ele>
        <time>2023-09-27T14:54:00Z</time>
      </trkpt>
      <trkpt lat="49.88567" lon="2.50863">
        <ele>79.8</ele>
        <time>2023-09-27T14:54:01Z</time>
      </trkpt>
      <trkpt lat="49.88567" lon="2.50863">
        <ele>79.8</ele>
        <time>2023-09-27T14:54:02Z</time>
      </trkpt>
      <trkpt lat="49.88567" lon="2.50863">
        <ele>79.8</ele>
        <time>2023-09-27T14:54:03Z</time>
      </trkpt>
      <trkpt lat="49.88567" lon="2.50863">
        <ele>79.8</ele>
        <time>2023-09-27T14:54:04Z</time>
      </trkpt>
      <trkpt lat="49.88567" lon="2.50863">
        <ele>79.8</ele>
        <time>2023-09-27T14:54:05Z</time>
      </trkpt>
      <trkpt lat="49.88567" lon="2.50863">
        <ele>79.8</ele>
        <time>2023-09-27T14:54:06Z</time>
      </trkpt>
      <trkpt lat="49.88567" lon="2.50863">
        <ele>79.8</ele>
        <time>2023-09-27T14:54:07Z</time>
      </trkpt>
      <trkpt lat="49.88567" lon="2.50863">
        <ele>79.8</ele>
        <time>2023-09-27T14:54:08Z</time>
      </trkpt>
      <trkpt lat="49.88567" lon="2.50863">
        <ele>79.8</ele>
        <time>2023-09-27T14:54:09Z</time>
      </trkpt>
      <trkpt lat="49.88567" lon="2.50863">
        <ele>79.8</ele>
        <time>2023-09-27T14:54:10Z</time>
      </trkpt>
      <trkpt lat="49.88567" lon="2.50863">
        <ele>79.8</ele>
        <time>2023-09-27T14:54:11Z</time>
      </trkpt>
      <trkpt lat="49.88567" lon="2.50863">
        <ele>79.8</ele>
        <time>2023-09-27T14:54:12Z</time>
      </trkpt>
      <trkpt lat="49.88567" lon="2.50863">
        <ele>79.8</ele>
        <time>2023-09-27T14:54:13Z</time>
      </trkpt>
      <trkpt lat="49.88567" lon="2.50863">
        <ele>79.8</ele>
        <time>2023-09-27T14:54:14Z</time>
      </trkpt>
      <trkpt lat="49.88567" lon="2.50863">
        <ele>79.8</ele>
        <time>2023-09-27T14:54:15Z</time>
      </trkpt>
      <trkpt lat="49.88567" lon="2.50863">
        <ele>79.8</ele>
        <time>2023-09-27T14:54:16Z</time>
      </trkpt>
      <trkpt lat="49.88567" lon="2.50863">
        <ele>79.8</ele>
        <time>2023-09-27T14:54:17Z</time>
      </trkpt>
      <trkpt lat="49.88567" lon="2.50863">
        <ele>79.8</ele>
        <time>2023-09-27T14:54:18Z</time>
      </trkpt>
      <trkpt lat="49.88567" lon="2.50863">
        <ele>79.8</ele>
        <time>2023-09-27T14:54:19Z</time>
      </trkpt>
      <trkpt lat="49.88567" lon="2.50863">
        <ele>79.8</ele>
        <time>2023-09-27T14:54:20Z</time>
      </trkpt>
      <trkpt lat="49.88567" lon="2.50863">
        <ele>79.8</ele>
        <time>2023-09-27T14:54:21Z</time>
      </trkpt>
      <trkpt lat="49.88567" lon="2.50863">
        <ele>79.8</ele>
        <time>2023-09-27T14:54:22Z</time>
      </trkpt>
      <trkpt lat="49.88567" lon="2.50863">
        <ele>79.8</ele>
        <time>2023-09-27T14:54:23Z</time>
      </trkpt>
      <trkpt lat="49.88567" lon="2.50863">
        <ele>79.8</ele>
        <time>2023-09-27T14:54:24Z</time>
      </trkpt>
      <trkpt lat="49.88567" lon="2.50863">
        <ele>79.8</ele>
        <time>2023-09-27T14:54:25Z</time>
      </trkpt>
      <trkpt lat="49.88567" lon="2.50863">
        <ele>79.8</ele>
        <time>2023-09-27T14:54:26Z</time>
      </trkpt>
      <trkpt lat="49.88567" lon="2.50863">
        <ele>79.8</ele>
        <time>2023-09-27T14:54:27Z</time>
      </trkpt>
      <trkpt lat="49.88567" lon="2.50863">
        <ele>79.8</ele>
        <time>2023-09-27T14:54:28Z</time>
      </trkpt>
      <trkpt lat="49.88567" lon="2.50863">
        <ele>79.8</ele>
        <time>2023-09-27T14:54:29Z</time>
      </trkpt>
      <trkpt lat="49.88567" lon="2.50863">
        <ele>79.8</ele>
        <time>2023-09-27T14:54:30Z</time>
      </trkpt>
      <trkpt lat="49.88567" lon="2.50863">
        <ele>79.8</ele>
        <time>2023-09-27T14:54:31Z</time>
      </trkpt>
      <trkpt lat="49.88567" lon="2.50863">
        <ele>79.8</ele>
        <time>2023-09-27T14:54:32Z</time>
      </trkpt>
      <trkpt lat="49.88567" lon="2.50863">
        <ele>79.8</ele>
        <time>2023-09-27T14:54:33Z</time>
      </trkpt>
      <trkpt lat="49.88567" lon="2.50861">
        <ele>79.8</ele>
        <time>2023-09-27T14:54:34Z</time>
      </trkpt>
      <trkpt lat="49.88568" lon="2.50855">
        <ele>79.8</ele>
        <time>2023-09-27T14:54:35Z</time>
      </trkpt>
      <trkpt lat="49.88568" lon="2.50854">
        <ele>79.8</ele>
        <time>2023-09-27T14:54:36Z</time>
      </trkpt>
      <trkpt lat="49.88568" lon="2.50853">
        <ele>79.8</ele>
        <time>2023-09-27T14:54:37Z</time>
      </trkpt>
      <trkpt lat="49.88567" lon="2.50852">
        <ele>79.8</ele>
        <time>2023-09-27T14:54:38Z</time>
      </trkpt>
      <trkpt lat="49.88568" lon="2.50852">
        <ele>79.8</ele>
        <time>2023-09-27T14:54:39Z</time>
      </trkpt>
      <trkpt lat="49.88568" lon="2.50852">
        <ele>79.8</ele>
        <time>2023-09-27T14:54:40Z</time>
      </trkpt>
      <trkpt lat="49.88569" lon="2.50853">
        <ele>79.8</ele>
        <time>2023-09-27T14:54:41Z</time>
      </trkpt>
      <trkpt lat="49.88569" lon="2.50853">
        <ele>79.8</ele>
        <time>2023-09-27T14:54:42Z</time>
      </trkpt>
      <trkpt lat="49.8857" lon="2.50853">
        <ele>79.8</ele>
        <time>2023-09-27T14:54:43Z</time>
      </trkpt>
      <trkpt lat="49.8857" lon="2.50853">
        <ele>79.8</ele>
        <time>2023-09-27T14:54:44Z</time>
      </trkpt>
      <trkpt lat="49.8857" lon="2.50853">
        <ele>79.8</ele>
        <time>2023-09-27T14:54:45Z</time>
      </trkpt>
      <trkpt lat="49.8857" lon="2.50853">
        <ele>79.8</ele>
        <time>2023-09-27T14:54:46Z</time>
      </trkpt>
      <trkpt lat="49.8857" lon="2.50853">
        <ele>79.8</ele>
        <time>2023-09-27T14:54:47Z</time>
      </trkpt>
      <trkpt lat="49.8857" lon="2.50853">
        <ele>79.8</ele>
        <time>2023-09-27T14:54:48Z</time>
      </trkpt>
      <trkpt lat="49.8857" lon="2.50853">
        <ele>79.8</ele>
        <time>2023-09-27T14:54:49Z</time>
      </trkpt>
      <trkpt lat="49.8857" lon="2.50853">
        <ele>79.8</ele>
        <time>2023-09-27T14:54:50Z</time>
      </trkpt>
      <trkpt lat="49.8857" lon="2.50853">
        <ele>79.8</ele>
        <time>2023-09-27T14:54:51Z</time>
      </trkpt>
      <trkpt lat="49.8857" lon="2.50853">
        <ele>79.8</ele>
        <time>2023-09-27T14:54:52Z</time>
      </trkpt>
      <trkpt lat="49.8857" lon="2.50853">
        <ele>79.8</ele>
        <time>2023-09-27T14:54:53Z</time>
      </trkpt>
      <trkpt lat="49.8857" lon="2.50853">
        <ele>79.8</ele>
        <time>2023-09-27T14:54:54Z</time>
      </trkpt>
      <trkpt lat="49.8857" lon="2.50853">
        <ele>79.8</ele>
        <time>2023-09-27T14:54:55Z</time>
      </trkpt>
      <trkpt lat="49.8857" lon="2.50853">
        <ele>79.8</ele>
        <time>2023-09-27T14:54:56Z</time>
      </trkpt>
      <trkpt lat="49.8857" lon="2.50853">
        <ele>79.8</ele>
        <time>2023-09-27T14:54:57Z</time>
      </trkpt>
      <trkpt lat="49.8857" lon="2.50853">
        <ele>79.8</ele>
        <time>2023-09-27T14:54:58Z</time>
      </trkpt>
      <trkpt lat="49.8857" lon="2.50853">
        <ele>79.8</ele>
        <time>2023-09-27T14:54:59Z</time>
      </trkpt>
      <trkpt lat="49.8857" lon="2.50853">
        <ele>79.8</ele>
        <time>2023-09-27T14:55:00Z</time>
      </trkpt>
      <trkpt lat="49.8857" lon="2.50854">
        <ele>79.8</ele>
        <time>2023-09-27T14:55:01Z</time>
      </trkpt>
      <trkpt lat="49.88571" lon="2.50853">
        <ele>79.8</ele>
        <time>2023-09-27T14:55:02Z</time>
      </trkpt>
      <trkpt lat="49.88571" lon="2.50852">
        <ele>79.8</ele>
        <time>2023-09-27T14:55:03Z</time>
      </trkpt>
      <trkpt lat="49.88571" lon="2.50852">
        <ele>79.8</ele>
        <time>2023-09-27T14:55:04Z</time>
      </trkpt>
      <trkpt lat="49.88571" lon="2.50851">
        <ele>79.8</ele>
        <time>2023-09-27T14:55:05Z</time>
      </trkpt>
      <trkpt lat="49.8857" lon="2.5085">
        <ele>79.8</ele>
        <time>2023-09-27T14:55:06Z</time>
      </trkpt>
      <trkpt lat="49.8857" lon="2.5085">
        <ele>79.8</ele>
        <time>2023-09-27T14:55:07Z</time>
      </trkpt>
      <trkpt lat="49.88569" lon="2.5085">
        <ele>79.8</ele>
        <time>2023-09-27T14:55:08Z</time>
      </trkpt>
      <trkpt lat="49.88569" lon="2.5085">
        <ele>79.8</ele>
        <time>2023-09-27T14:55:09Z</time>
      </trkpt>
      <trkpt lat="49.88569" lon="2.5085">
        <ele>79.8</ele>
        <time>2023-09-27T14:55:10Z</time>
      </trkpt>
      <trkpt lat="49.88569" lon="2.50851">
        <ele>79.8</ele>
        <time>2023-09-27T14:55:11Z</time>
      </trkpt>
      <trkpt lat="49.88569" lon="2.50851">
        <ele>79.8</ele>
        <time>2023-09-27T14:55:12Z</time>
      </trkpt>
      <trkpt lat="49.88569" lon="2.50851">
        <ele>79.8</ele>
        <time>2023-09-27T14:55:13Z</time>
      </trkpt>
      <trkpt lat="49.88569" lon="2.50851">
        <ele>79.8</ele>
        <time>2023-09-27T14:55:14Z</time>
      </trkpt>
      <trkpt lat="49.88569" lon="2.50851">
        <ele>79.8</ele>
        <time>2023-09-27T14:55:15Z</time>
      </trkpt>
      <trkpt lat="49.88569" lon="2.50851">
        <ele>79.8</ele>
        <time>2023-09-27T14:55:16Z</time>
      </trkpt>
      <trkpt lat="49.88569" lon="2.50851">
        <ele>79.8</ele>
        <time>2023-09-27T14:55:17Z</time>
      </trkpt>
      <trkpt lat="49.88569" lon="2.50851">
        <ele>79.8</ele>
        <time>2023-09-27T14:55:18Z</time>
      </trkpt>
      <trkpt lat="49.88569" lon="2.50851">
        <ele>79.8</ele>
        <time>2023-09-27T14:55:19Z</time>
      </trkpt>
      <trkpt lat="49.88569" lon="2.50851">
        <ele>79.8</ele>
        <time>2023-09-27T14:55:20Z</time>
      </trkpt>
      <trkpt lat="49.88569" lon="2.50851">
        <ele>79.8</ele>
        <time>2023-09-27T14:55:21Z</time>
      </trkpt>
      <trkpt lat="49.88569" lon="2.50851">
        <ele>79.8</ele>
        <time>2023-09-27T14:55:22Z</time>
      </trkpt>
      <trkpt lat="49.88569" lon="2.50851">
        <ele>79.8</ele>
        <time>2023-09-27T14:55:23Z</time>
      </trkpt>
      <trkpt lat="49.88569" lon="2.50851">
        <ele>79.8</ele>
        <time>2023-09-27T14:55:24Z</time>
      </trkpt>
      <trkpt lat="49.88569" lon="2.50851">
        <ele>79.8</ele>
        <time>2023-09-27T14:55:25Z</time>
      </trkpt>
      <trkpt lat="49.88569" lon="2.50851">
        <ele>79.8</ele>
        <time>2023-09-27T14:55:26Z</time>
      </trkpt>
      <trkpt lat="49.88569" lon="2.50851">
        <ele>79.8</ele>
        <time>2023-09-27T14:55:27Z</time>
      </trkpt>
      <trkpt lat="49.88569" lon="2.50851">
        <ele>79.8</ele>
        <time>2023-09-27T14:55:28Z</time>
      </trkpt>
      <trkpt lat="49.88569" lon="2.50851">
        <ele>79.8</ele>
        <time>2023-09-27T14:55:29Z</time>
      </trkpt>
      <trkpt lat="49.88571" lon="2.50855">
        <ele>79.9</ele>
        <time>2023-09-27T14:55:30Z</time>
      </trkpt>
      <trkpt lat="49.88572" lon="2.50856">
        <ele>79.9</ele>
        <time>2023-09-27T14:55:31Z</time>
      </trkpt>
      <trkpt lat="49.88572" lon="2.50856">
        <ele>79.9</ele>
        <time>2023-09-27T14:55:32Z</time>
      </trkpt>
      <trkpt lat="49.88572" lon="2.50857">
        <ele>79.9</ele>
        <time>2023-09-27T14:55:33Z</time>
      </trkpt>
      <trkpt lat="49.88573" lon="2.50857">
        <ele>79.9</ele>
        <time>2023-09-27T14:55:34Z</time>
      </trkpt>
      <trkpt lat="49.88573" lon="2.50857">
        <ele>79.9</ele>
        <time>2023-09-27T14:55:35Z</time>
      </trkpt>
      <trkpt lat="49.88573" lon="2.50857">
        <ele>79.9</ele>
        <time>2023-09-27T14:55:36Z</time>
      </trkpt>
      <trkpt lat="49.88573" lon="2.50857">
        <ele>79.9</ele>
        <time>2023-09-27T14:55:37Z</time>
      </trkpt>
      <trkpt lat="49.88573" lon="2.50857">
        <ele>79.9</ele>
        <time>2023-09-27T14:55:38Z</time>
      </trkpt>
      <trkpt lat="49.88573" lon="2.50857">
        <ele>79.9</ele>
        <time>2023-09-27T14:55:39Z</time>
      </trkpt>
      <trkpt lat="49.88573" lon="2.50857">
        <ele>79.9</ele>
        <time>2023-09-27T14:55:40Z</time>
      </trkpt>
      <trkpt lat="49.88573" lon="2.50857">
        <ele>79.9</ele>
        <time>2023-09-27T14:55:41Z</time>
      </trkpt>
      <trkpt lat="49.88573" lon="2.50857">
        <ele>79.9</ele>
        <time>2023-09-27T14:55:42Z</time>
      </trkpt>
      <trkpt lat="49.88573" lon="2.50857">
        <ele>79.9</ele>
        <time>2023-09-27T14:55:43Z</time>
      </trkpt>
      <trkpt lat="49.88573" lon="2.50857">
        <ele>79.9</ele>
        <time>2023-09-27T14:55:44Z</time>
      </trkpt>
      <trkpt lat="49.88573" lon="2.50858">
        <ele>79.9</ele>
        <time>2023-09-27T14:55:45Z</time>
      </trkpt>
      <trkpt lat="49.88573" lon="2.50858">
        <ele>79.9</ele>
        <time>2023-09-27T14:55:46Z</time>
      </trkpt>
      <trkpt lat="49.88573" lon="2.50858">
        <ele>79.9</ele>
        <time>2023-09-27T14:55:47Z</time>
      </trkpt>
      <trkpt lat="49.88573" lon="2.50858">
        <ele>79.9</ele>
        <time>2023-09-27T14:55:48Z</time>
      </trkpt>
      <trkpt lat="49.88573" lon="2.50858">
        <ele>79.9</ele>
        <time>2023-09-27T14:55:49Z</time>
      </trkpt>
      <trkpt lat="49.88573" lon="2.50858">
        <ele>79.9</ele>
        <time>2023-09-27T14:55:50Z</time>
      </trkpt>
      <trkpt lat="49.88573" lon="2.50858">
        <ele>79.9</ele>
        <time>2023-09-27T14:55:51Z</time>
      </trkpt>
      <trkpt lat="49.88573" lon="2.50858">
        <ele>79.9</ele>
        <time>2023-09-27T14:55:52Z</time>
      </trkpt>
      <trkpt lat="49.88573" lon="2.50858">
        <ele>79.9</ele>
        <time>2023-09-27T14:55:53Z</time>
      </trkpt>
      <trkpt lat="49.88573" lon="2.50858">
        <ele>79.9</ele>
        <time>2023-09-27T14:55:54Z</time>
      </trkpt>
      <trkpt lat="49.88573" lon="2.50858">
        <ele>79.9</ele>
        <time>2023-09-27T14:55:55Z</time>
      </trkpt>
      <trkpt lat="49.88573" lon="2.50858">
        <ele>79.9</ele>
        <time>2023-09-27T14:55:56Z</time>
      </trkpt>
      <trkpt lat="49.88573" lon="2.50858">
        <ele>79.9</ele>
        <time>2023-09-27T14:55:57Z</time>
      </trkpt>
      <trkpt lat="49.88573" lon="2.50858">
        <ele>79.9</ele>
        <time>2023-09-27T14:55:58Z</time>
      </trkpt>
      <trkpt lat="49.88573" lon="2.50858">
        <ele>79.9</ele>
        <time>2023-09-27T14:55:59Z</time>
      </trkpt>
      <trkpt lat="49.88573" lon="2.50858">
        <ele>79.9</ele>
        <time>2023-09-27T14:56:00Z</time>
      </trkpt>
      <trkpt lat="49.88573" lon="2.50858">
        <ele>79.9</ele>
        <time>2023-09-27T14:56:01Z</time>
      </trkpt>
      <trkpt lat="49.88573" lon="2.50858">
        <ele>79.9</ele>
        <time>2023-09-27T14:56:02Z</time>
      </trkpt>
      <trkpt lat="49.88573" lon="2.50858">
        <ele>79.9</ele>
        <time>2023-09-27T14:56:03Z</time>
      </trkpt>
      <trkpt lat="49.88573" lon="2.50858">
        <ele>79.9</ele>
        <time>2023-09-27T14:56:04Z</time>
      </trkpt>
      <trkpt lat="49.88573" lon="2.50858">
        <ele>79.9</ele>
        <time>2023-09-27T14:56:05Z</time>
      </trkpt>
      <trkpt lat="49.88573" lon="2.50858">
        <ele>79.9</ele>
        <time>2023-09-27T14:56:06Z</time>
      </trkpt>
      <trkpt lat="49.88573" lon="2.50858">
        <ele>79.9</ele>
        <time>2023-09-27T14:56:07Z</time>
      </trkpt>
      <trkpt lat="49.88573" lon="2.50858">
        <ele>79.9</ele>
        <time>2023-09-27T14:56:08Z</time>
      </trkpt>
      <trkpt lat="49.88573" lon="2.50858">
        <ele>79.9</ele>
        <time>2023-09-27T14:56:09Z</time>
      </trkpt>
      <trkpt lat="49.88573" lon="2.50858">
        <ele>79.9</ele>
        <time>2023-09-27T14:56:10Z</time>
      </trkpt>
      <trkpt lat="49.88573" lon="2.50858">
        <ele>79.9</ele>
        <time>2023-09-27T14:56:11Z</time>
      </trkpt>
      <trkpt lat="49.88573" lon="2.50858">
        <ele>79.9</ele>
        <time>2023-09-27T14:56:12Z</time>
      </trkpt>
      <trkpt lat="49.88573" lon="2.50858">
        <ele>79.9</ele>
        <time>2023-09-27T14:56:13Z</time>
      </trkpt>
      <trkpt lat="49.88573" lon="2.50858">
        <ele>79.9</ele>
        <time>2023-09-27T14:56:14Z</time>
      </trkpt>
      <trkpt lat="49.88573" lon="2.50859">
        <ele>79.9</ele>
        <time>2023-09-27T14:56:15Z</time>
      </trkpt>
      <trkpt lat="49.88573" lon="2.50859">
        <ele>79.9</ele>
        <time>2023-09-27T14:56:16Z</time>
      </trkpt>
      <trkpt lat="49.88573" lon="2.50859">
        <ele>79.9</ele>
        <time>2023-09-27T14:56:17Z</time>
      </trkpt>
      <trkpt lat="49.88573" lon="2.50859">
        <ele>79.9</ele>
        <time>2023-09-27T14:56:18Z</time>
      </trkpt>
      <trkpt lat="49.88572" lon="2.50859">
        <ele>79.9</ele>
        <time>2023-09-27T14:56:19Z</time>
      </trkpt>
      <trkpt lat="49.88572" lon="2.50858">
        <ele>79.9</ele>
        <time>2023-09-27T14:56:20Z</time>
      </trkpt>
      <trkpt lat="49.88572" lon="2.50858">
        <ele>79.9</ele>
        <time>2023-09-27T14:56:21Z</time>
      </trkpt>
      <trkpt lat="49.88572" lon="2.50859">
        <ele>79.9</ele>
        <time>2023-09-27T14:56:22Z</time>
      </trkpt>
      <trkpt lat="49.88571" lon="2.50856">
        <ele>79.9</ele>
        <time>2023-09-27T14:56:23Z</time>
      </trkpt>
      <trkpt lat="49.88571" lon="2.50855">
        <ele>79.9</ele>
        <time>2023-09-27T14:56:24Z</time>
      </trkpt>
      <trkpt lat="49.88571" lon="2.50855">
        <ele>79.9</ele>
        <time>2023-09-27T14:56:25Z</time>
      </trkpt>
      <trkpt lat="49.8857" lon="2.50855">
        <ele>79.9</ele>
        <time>2023-09-27T14:56:26Z</time>
      </trkpt>
      <trkpt lat="49.8857" lon="2.50854">
        <ele>79.9</ele>
        <time>2023-09-27T14:56:27Z</time>
      </trkpt>
      <trkpt lat="49.8857" lon="2.50854">
        <ele>79.9</ele>
        <time>2023-09-27T14:56:28Z</time>
      </trkpt>
      <trkpt lat="49.8857" lon="2.50854">
        <ele>79.9</ele>
        <time>2023-09-27T14:56:29Z</time>
      </trkpt>
      <trkpt lat="49.8857" lon="2.50854">
        <ele>79.9</ele>
        <time>2023-09-27T14:56:30Z</time>
      </trkpt>
      <trkpt lat="49.8857" lon="2.50854">
        <ele>79.9</ele>
        <time>2023-09-27T14:56:31Z</time>
      </trkpt>
      <trkpt lat="49.8857" lon="2.50853">
        <ele>79.9</ele>
        <time>2023-09-27T14:56:32Z</time>
      </trkpt>
      <trkpt lat="49.8857" lon="2.50854">
        <ele>79.9</ele>
        <time>2023-09-27T14:56:33Z</time>
      </trkpt>
      <trkpt lat="49.8857" lon="2.50854">
        <ele>79.9</ele>
        <time>2023-09-27T14:56:34Z</time>
      </trkpt>
      <trkpt lat="49.8857" lon="2.50854">
        <ele>79.9</ele>
        <time>2023-09-27T14:56:35Z</time>
      </trkpt>
      <trkpt lat="49.8857" lon="2.50854">
        <ele>79.9</ele>
        <time>2023-09-27T14:56:36Z</time>
      </trkpt>
      <trkpt lat="49.8857" lon="2.50855">
        <ele>79.9</ele>
        <time>2023-09-27T14:56:37Z</time>
      </trkpt>
      <trkpt lat="49.88569" lon="2.50856">
        <ele>79.9</ele>
        <time>2023-09-27T14:56:38Z</time>
      </trkpt>
      <trkpt lat="49.88569" lon="2.50856">
        <ele>79.9</ele>
        <time>2023-09-27T14:56:39Z</time>
      </trkpt>
      <trkpt lat="49.88568" lon="2.50856">
        <ele>79.9</ele>
        <time>2023-09-27T14:56:40Z</time>
      </trkpt>
      <trkpt lat="49.88568" lon="2.50855">
        <ele>79.9</ele>
        <time>2023-09-27T14:56:41Z</time>
      </trkpt>
      <trkpt lat="49.88568" lon="2.50855">
        <ele>79.9</ele>
        <time>2023-09-27T14:56:42Z</time>
      </trkpt>
      <trkpt lat="49.88568" lon="2.50854">
        <ele>79.9</ele>
        <time>2023-09-27T14:56:43Z</time>
      </trkpt>
      <trkpt lat="49.88568" lon="2.50854">
        <ele>79.9</ele>
        <time>2023-09-27T14:56:44Z</time>
      </trkpt>
      <trkpt lat="49.88568" lon="2.50854">
        <ele>79.9</ele>
        <time>2023-09-27T14:56:45Z</time>
      </trkpt>
      <trkpt lat="49.88569" lon="2.50854">
        <ele>79.9</ele>
        <time>2023-09-27T14:56:46Z</time>
      </trkpt>
      <trkpt lat="49.88569" lon="2.50854">
        <ele>79.9</ele>
        <time>2023-09-27T14:56:47Z</time>
      </trkpt>
      <trkpt lat="49.88569" lon="2.50854">
        <ele>79.9</ele>
        <time>2023-09-27T14:56:48Z</time>
      </trkpt>
      <trkpt lat="49.88569" lon="2.50854">
        <ele>79.9</ele>
        <time>2023-09-27T14:56:49Z</time>
      </trkpt>
      <trkpt lat="49.88569" lon="2.50854">
        <ele>79.9</ele>
        <time>2023-09-27T14:56:50Z</time>
      </trkpt>
      <trkpt lat="49.88569" lon="2.50854">
        <ele>79.9</ele>
        <time>2023-09-27T14:56:51Z</time>
      </trkpt>
      <trkpt lat="49.88569" lon="2.50854">
        <ele>80</ele>
        <time>2023-09-27T14:56:52Z</time>
      </trkpt>
      <trkpt lat="49.8857" lon="2.50854">
        <ele>80</ele>
        <time>2023-09-27T14:56:53Z</time>
      </trkpt>
      <trkpt lat="49.8857" lon="2.50854">
        <ele>80</ele>
        <time>2023-09-27T14:56:54Z</time>
      </trkpt>
      <trkpt lat="49.8857" lon="2.50854">
        <ele>80</ele>
        <time>2023-09-27T14:56:55Z</time>
      </trkpt>
      <trkpt lat="49.8857" lon="2.50854">
        <ele>80</ele>
        <time>2023-09-27T14:56:56Z</time>
      </trkpt>
      <trkpt lat="49.88571" lon="2.50854">
        <ele>80</ele>
        <time>2023-09-27T14:56:57Z</time>
      </trkpt>
      <trkpt lat="49.88571" lon="2.50854">
        <ele>80</ele>
        <time>2023-09-27T14:56:58Z</time>
      </trkpt>
      <trkpt lat="49.88103" lon="2.51918">
        <ele>91.6</ele>
        <time>2023-09-27T14:59:54Z</time>
      </trkpt>
      <trkpt lat="49.88103" lon="2.51919">
        <ele>91.6</ele>
        <time>2023-09-27T14:59:55Z</time>
      </trkpt>
      <trkpt lat="49.88103" lon="2.51918">
        <ele>91.6</ele>
        <time>2023-09-27T14:59:56Z</time>
      </trkpt>
      <trkpt lat="49.88103" lon="2.51919">
        <ele>91.6</ele>
        <time>2023-09-27T14:59:58Z</time>
      </trkpt>
      <trkpt lat="49.88308" lon="2.51451">
        <ele>75.1</ele>
        <time>2023-09-27T14:59:59Z</time>
      </trkpt>
      <trkpt lat="49.8839" lon="2.51268">
        <ele>85.3</ele>
        <time>2023-09-27T15:00:00Z</time>
      </trkpt>
      <trkpt lat="49.88427" lon="2.51187">
        <ele>88.3</ele>
        <time>2023-09-27T15:00:01Z</time>
      </trkpt>
      <trkpt lat="49.88458" lon="2.51116">
        <ele>88.7</ele>
        <time>2023-09-27T15:00:02Z</time>
      </trkpt>
      <trkpt lat="49.88479" lon="2.51071">
        <ele>88.7</ele>
        <time>2023-09-27T15:00:03Z</time>
      </trkpt>
      <trkpt lat="49.88494" lon="2.51036">
        <ele>88.9</ele>
        <time>2023-09-27T15:00:04Z</time>
      </trkpt>
      <trkpt lat="49.88542" lon="2.50925">
        <ele>86.7</ele>
        <time>2023-09-27T15:00:05Z</time>
      </trkpt>
      <trkpt lat="49.88545" lon="2.50919">
        <ele>86.6</ele>
        <time>2023-09-27T15:00:06Z</time>
      </trkpt>
      <trkpt lat="49.88546" lon="2.50916">
        <ele>86.5</ele>
        <time>2023-09-27T15:00:07Z</time>
      </trkpt>
      <trkpt lat="49.88549" lon="2.50907">
        <ele>86.1</ele>
        <time>2023-09-27T15:00:08Z</time>
      </trkpt>
      <trkpt lat="49.88551" lon="2.50898">
        <ele>85.7</ele>
        <time>2023-09-27T15:00:09Z</time>
      </trkpt>
      <trkpt lat="49.88553" lon="2.5089">
        <ele>84.9</ele>
        <time>2023-09-27T15:00:10Z</time>
      </trkpt>
      <trkpt lat="49.88554" lon="2.50883">
        <ele>84.8</ele>
        <time>2023-09-27T15:00:11Z</time>
      </trkpt>
      <trkpt lat="49.88554" lon="2.50877">
        <ele>84</ele>
        <time>2023-09-27T15:00:12Z</time>
      </trkpt>
      <trkpt lat="49.88554" lon="2.50872">
        <ele>83.7</ele>
        <time>2023-09-27T15:00:13Z</time>
      </trkpt>
      <trkpt lat="49.88553" lon="2.50867">
        <ele>83</ele>
        <time>2023-09-27T15:00:14Z</time>
      </trkpt>
      <trkpt lat="49.88552" lon="2.50865">
        <ele>82.7</ele>
        <time>2023-09-27T15:00:15Z</time>
      </trkpt>
      <trkpt lat="49.8855" lon="2.50862">
        <ele>82.4</ele>
        <time>2023-09-27T15:00:16Z</time>
      </trkpt>
      <trkpt lat="49.8855" lon="2.50861">
        <ele>82</ele>
        <time>2023-09-27T15:00:17Z</time>
      </trkpt>
      <trkpt lat="49.88548" lon="2.5086">
        <ele>82</ele>
        <time>2023-09-27T15:00:18Z</time>
      </trkpt>
      <trkpt lat="49.88547" lon="2.50859">
        <ele>81.7</ele>
        <time>2023-09-27T15:00:19Z</time>
      </trkpt>
      <trkpt lat="49.88545" lon="2.50858">
        <ele>81.5</ele>
        <time>2023-09-27T15:00:20Z</time>
      </trkpt>
      <trkpt lat="49.88544" lon="2.50857">
        <ele>81.5</ele>
        <time>2023-09-27T15:00:21Z</time>
      </trkpt>
      <trkpt lat="49.88543" lon="2.50857">
        <ele>80.8</ele>
        <time>2023-09-27T15:00:22Z</time>
      </trkpt>
      <trkpt lat="49.88541" lon="2.50857">
        <ele>80.8</ele>
        <time>2023-09-27T15:00:23Z</time>
      </trkpt>
      <trkpt lat="49.8854" lon="2.50857">
        <ele>80.8</ele>
        <time>2023-09-27T15:00:24Z</time>
      </trkpt>
      <trkpt lat="49.88539" lon="2.50857">
        <ele>80.5</ele>
        <time>2023-09-27T15:00:25Z</time>
      </trkpt>
      <trkpt lat="49.88538" lon="2.50858">
        <ele>80.8</ele>
        <time>2023-09-27T15:00:26Z</time>
      </trkpt>
      <trkpt lat="49.88537" lon="2.50858">
        <ele>80.5</ele>
        <time>2023-09-27T15:00:27Z</time>
      </trkpt>
      <trkpt lat="49.88536" lon="2.50858">
        <ele>80.5</ele>
        <time>2023-09-27T15:00:28Z</time>
      </trkpt>
      <trkpt lat="49.88535" lon="2.50859">
        <ele>80.5</ele>
        <time>2023-09-27T15:00:29Z</time>
      </trkpt>
      <trkpt lat="49.88534" lon="2.50859">
        <ele>80.2</ele>
        <time>2023-09-27T15:00:30Z</time>
      </trkpt>
      <trkpt lat="49.88534" lon="2.5086">
        <ele>80.2</ele>
        <time>2023-09-27T15:00:31Z</time>
      </trkpt>
      <trkpt lat="49.88533" lon="2.5086">
        <ele>80.2</ele>
        <time>2023-09-27T15:00:32Z</time>
      </trkpt>
      <trkpt lat="49.88533" lon="2.50861">
        <ele>80.2</ele>
        <time>2023-09-27T15:00:33Z</time>
      </trkpt>
      <trkpt lat="49.88532" lon="2.50861">
        <ele>80.2</ele>
        <time>2023-09-27T15:00:34Z</time>
      </trkpt>
      <trkpt lat="49.88532" lon="2.50861">
        <ele>80.2</ele>
        <time>2023-09-27T15:00:35Z</time>
      </trkpt>
      <trkpt lat="49.88532" lon="2.50862">
        <ele>79.8</ele>
        <time>2023-09-27T15:00:36Z</time>
      </trkpt>
      <trkpt lat="49.88531" lon="2.50862">
        <ele>80.2</ele>
        <time>2023-09-27T15:00:37Z</time>
      </trkpt>
      <trkpt lat="49.88531" lon="2.50862">
        <ele>80.2</ele>
        <time>2023-09-27T15:00:38Z</time>
      </trkpt>
      <trkpt lat="49.88531" lon="2.50862">
        <ele>80.2</ele>
        <time>2023-09-27T15:00:39Z</time>
      </trkpt>
      <trkpt lat="49.88531" lon="2.50862">
        <ele>80.2</ele>
        <time>2023-09-27T15:00:40Z</time>
      </trkpt>
      <trkpt lat="49.88531" lon="2.50862">
        <ele>80.2</ele>
        <time>2023-09-27T15:00:41Z</time>
      </trkpt>
      <trkpt lat="49.88531" lon="2.50862">
        <ele>80.2</ele>
        <time>2023-09-27T15:00:42Z</time>
      </trkpt>
      <trkpt lat="49.8853" lon="2.50862">
        <ele>80.2</ele>
        <time>2023-09-27T15:00:43Z</time>
      </trkpt>
      <trkpt lat="49.8853" lon="2.50862">
        <ele>80.2</ele>
        <time>2023-09-27T15:00:44Z</time>
      </trkpt>
      <trkpt lat="49.8853" lon="2.50862">
        <ele>80.2</ele>
        <time>2023-09-27T15:00:45Z</time>
      </trkpt>
      <trkpt lat="49.8853" lon="2.50862">
        <ele>80.2</ele>
        <time>2023-09-27T15:00:46Z</time>
      </trkpt>
      <trkpt lat="49.8853" lon="2.50862">
        <ele>80.2</ele>
        <time>2023-09-27T15:00:47Z</time>
      </trkpt>
      <trkpt lat="49.8853" lon="2.50862">
        <ele>80.2</ele>
        <time>2023-09-27T15:00:48Z</time>
      </trkpt>
      <trkpt lat="49.8853" lon="2.50862">
        <ele>80.2</ele>
        <time>2023-09-27T15:00:49Z</time>
      </trkpt>
      <trkpt lat="49.8853" lon="2.50862">
        <ele>80.2</ele>
        <time>2023-09-27T15:00:50Z</time>
      </trkpt>
      <trkpt lat="49.8853" lon="2.50862">
        <ele>80.2</ele>
        <time>2023-09-27T15:00:51Z</time>
      </trkpt>
      <trkpt lat="49.8853" lon="2.50862">
        <ele>80.2</ele>
        <time>2023-09-27T15:00:52Z</time>
      </trkpt>
      <trkpt lat="49.88531" lon="2.50862">
        <ele>80.2</ele>
        <time>2023-09-27T15:00:53Z</time>
      </trkpt>
      <trkpt lat="49.88531" lon="2.50862">
        <ele>80.2</ele>
        <time>2023-09-27T15:00:54Z</time>
      </trkpt>
      <trkpt lat="49.88531" lon="2.50862">
        <ele>80.2</ele>
        <time>2023-09-27T15:00:55Z</time>
      </trkpt>
      <trkpt lat="49.8853" lon="2.50862">
        <ele>80.2</ele>
        <time>2023-09-27T15:00:56Z</time>
      </trkpt>
      <trkpt lat="49.8853" lon="2.50862">
        <ele>80.2</ele>
        <time>2023-09-27T15:00:57Z</time>
      </trkpt>
      <trkpt lat="49.88531" lon="2.50862">
        <ele>80.2</ele>
        <time>2023-09-27T15:00:58Z</time>
      </trkpt>
      <trkpt lat="49.88531" lon="2.50862">
        <ele>80.2</ele>
        <time>2023-09-27T15:00:59Z</time>
      </trkpt>
      <trkpt lat="49.88531" lon="2.50862">
        <ele>80.2</ele>
        <time>2023-09-27T15:01:00Z</time>
      </trkpt>
      <trkpt lat="49.88531" lon="2.50862">
        <ele>80.2</ele>
        <time>2023-09-27T15:01:01Z</time>
      </trkpt>
      <trkpt lat="49.88531" lon="2.50862">
        <ele>80.2</ele>
        <time>2023-09-27T15:01:02Z</time>
      </trkpt>
      <trkpt lat="49.88531" lon="2.50862">
        <ele>80.2</ele>
        <time>2023-09-27T15:01:03Z</time>
      </trkpt>
      <trkpt lat="49.88531" lon="2.50862">
        <ele>80.2</ele>
        <time>2023-09-27T15:01:04Z</time>
      </trkpt>
      <trkpt lat="49.88531" lon="2.50862">
        <ele>80.2</ele>
        <time>2023-09-27T15:01:05Z</time>
      </trkpt>
      <trkpt lat="49.88531" lon="2.50862">
        <ele>80.2</ele>
        <time>2023-09-27T15:01:06Z</time>
      </trkpt>
      <trkpt lat="49.88531" lon="2.50862">
        <ele>80.2</ele>
        <time>2023-09-27T15:01:07Z</time>
      </trkpt>
      <trkpt lat="49.88531" lon="2.50862">
        <ele>80.2</ele>
        <time>2023-09-27T15:01:08Z</time>
      </trkpt>
      <trkpt lat="49.88531" lon="2.50862">
        <ele>80.2</ele>
        <time>2023-09-27T15:01:09Z</time>
      </trkpt>
      <trkpt lat="49.88531" lon="2.50862">
        <ele>80.2</ele>
        <time>2023-09-27T15:01:10Z</time>
      </trkpt>
      <trkpt lat="49.88531" lon="2.50862">
        <ele>80.2</ele>
        <time>2023-09-27T15:01:11Z</time>
      </trkpt>
      <trkpt lat="49.88531" lon="2.50862">
        <ele>80.2</ele>
        <time>2023-09-27T15:01:12Z</time>
      </trkpt>
      <trkpt lat="49.88531" lon="2.50862">
        <ele>80.2</ele>
        <time>2023-09-27T15:01:13Z</time>
      </trkpt>
      <trkpt lat="49.88531" lon="2.50862">
        <ele>80.2</ele>
        <time>2023-09-27T15:01:14Z</time>
      </trkpt>
      <trkpt lat="49.88531" lon="2.50862">
        <ele>80.2</ele>
        <time>2023-09-27T15:01:15Z</time>
      </trkpt>
      <trkpt lat="49.88531" lon="2.50862">
        <ele>80.2</ele>
        <time>2023-09-27T15:01:16Z</time>
      </trkpt>
      <trkpt lat="49.88531" lon="2.50862">
        <ele>80.2</ele>
        <time>2023-09-27T15:01:17Z</time>
      </trkpt>
      <trkpt lat="49.88531" lon="2.50862">
        <ele>80.2</ele>
        <time>2023-09-27T15:01:18Z</time>
      </trkpt>
      <trkpt lat="49.88531" lon="2.50862">
        <ele>80.2</ele>
        <time>2023-09-27T15:01:19Z</time>
      </trkpt>
      <trkpt lat="49.88531" lon="2.50862">
        <ele>80.2</ele>
        <time>2023-09-27T15:01:20Z</time>
      </trkpt>
      <trkpt lat="49.88531" lon="2.50862">
        <ele>80.2</ele>
        <time>2023-09-27T15:01:21Z</time>
      </trkpt>
      <trkpt lat="49.88531" lon="2.50862">
        <ele>80.2</ele>
        <time>2023-09-27T15:01:22Z</time>
      </trkpt>
      <trkpt lat="49.88531" lon="2.50862">
        <ele>80.2</ele>
        <time>2023-09-27T15:01:23Z</time>
      </trkpt>
      <trkpt lat="49.88531" lon="2.50862">
        <ele>80.2</ele>
        <time>2023-09-27T15:01:24Z</time>
      </trkpt>
      <trkpt lat="49.88531" lon="2.50862">
        <ele>80.2</ele>
        <time>2023-09-27T15:01:25Z</time>
      </trkpt>
      <trkpt lat="49.88531" lon="2.50862">
        <ele>80.2</ele>
        <time>2023-09-27T15:01:26Z</time>
      </trkpt>
      <trkpt lat="49.88531" lon="2.50862">
        <ele>80.2</ele>
        <time>2023-09-27T15:01:27Z</time>
      </trkpt>
      <trkpt lat="49.88531" lon="2.50862">
        <ele>80.2</ele>
        <time>2023-09-27T15:01:28Z</time>
      </trkpt>
      <trkpt lat="49.88531" lon="2.50862">
        <ele>80.2</ele>
        <time>2023-09-27T15:01:29Z</time>
      </trkpt>
      <trkpt lat="49.88531" lon="2.50862">
        <ele>80.2</ele>
        <time>2023-09-27T15:01:30Z</time>
      </trkpt>
      <trkpt lat="49.88531" lon="2.50862">
        <ele>80.2</ele>
        <time>2023-09-27T15:01:31Z</time>
      </trkpt>
      <trkpt lat="49.88531" lon="2.50862">
        <ele>80.2</ele>
        <time>2023-09-27T15:01:32Z</time>
      </trkpt>
      <trkpt lat="49.88531" lon="2.50862">
        <ele>80.2</ele>
        <time>2023-09-27T15:01:33Z</time>
      </trkpt>
      <trkpt lat="49.88531" lon="2.50862">
        <ele>80.2</ele>
        <time>2023-09-27T15:01:34Z</time>
      </trkpt>
      <trkpt lat="49.88531" lon="2.50862">
        <ele>80.2</ele>
        <time>2023-09-27T15:01:35Z</time>
      </trkpt>
      <trkpt lat="49.88531" lon="2.50862">
        <ele>80.2</ele>
        <time>2023-09-27T15:01:36Z</time>
      </trkpt>
      <trkpt lat="49.88531" lon="2.50862">
        <ele>80.2</ele>
        <time>2023-09-27T15:01:37Z</time>
      </trkpt>
      <trkpt lat="49.88531" lon="2.50862">
        <ele>80.2</ele>
        <time>2023-09-27T15:01:38Z</time>
      </trkpt>
      <trkpt lat="49.88531" lon="2.50862">
        <ele>80.2</ele>
        <time>2023-09-27T15:01:39Z</time>
      </trkpt>
      <trkpt lat="49.88531" lon="2.50862">
        <ele>80.2</ele>
        <time>2023-09-27T15:01:40Z</time>
      </trkpt>
      <trkpt lat="49.88531" lon="2.50862">
        <ele>80.2</ele>
        <time>2023-09-27T15:01:41Z</time>
      </trkpt>
      <trkpt lat="49.88531" lon="2.50862">
        <ele>80.2</ele>
        <time>2023-09-27T15:01:42Z</time>
      </trkpt>
      <trkpt lat="49.88531" lon="2.50862">
        <ele>80.2</ele>
        <time>2023-09-27T15:01:43Z</time>
      </trkpt>
      <trkpt lat="49.88531" lon="2.50862">
        <ele>80.2</ele>
        <time>2023-09-27T15:01:44Z</time>
      </trkpt>
      <trkpt lat="49.88531" lon="2.50862">
        <ele>80.2</ele>
        <time>2023-09-27T15:01:45Z</time>
      </trkpt>
      <trkpt lat="49.88531" lon="2.50862">
        <ele>80.2</ele>
        <time>2023-09-27T15:01:46Z</time>
      </trkpt>
      <trkpt lat="49.88531" lon="2.50862">
        <ele>80.2</ele>
        <time>2023-09-27T15:01:47Z</time>
      </trkpt>
      <trkpt lat="49.88531" lon="2.50862">
        <ele>80.2</ele>
        <time>2023-09-27T15:01:48Z</time>
      </trkpt>
      <trkpt lat="49.88531" lon="2.50862">
        <ele>80.2</ele>
        <time>2023-09-27T15:01:49Z</time>
      </trkpt>
      <trkpt lat="49.88531" lon="2.50862">
        <ele>80.2</ele>
        <time>2023-09-27T15:01:50Z</time>
      </trkpt>
      <trkpt lat="49.88531" lon="2.50862">
        <ele>80.2</ele>
        <time>2023-09-27T15:01:51Z</time>
      </trkpt>
      <trkpt lat="49.88531" lon="2.50862">
        <ele>80.2</ele>
        <time>2023-09-27T15:01:52Z</time>
      </trkpt>
      <trkpt lat="49.88531" lon="2.50862">
        <ele>80.2</ele>
        <time>2023-09-27T15:01:53Z</time>
      </trkpt>
      <trkpt lat="49.88531" lon="2.50862">
        <ele>80.2</ele>
        <time>2023-09-27T15:01:54Z</time>
      </trkpt>
      <trkpt lat="49.88531" lon="2.50862">
        <ele>80.2</ele>
        <time>2023-09-27T15:01:55Z</time>
      </trkpt>
      <trkpt lat="49.88531" lon="2.50862">
        <ele>80.2</ele>
        <time>2023-09-27T15:01:56Z</time>
      </trkpt>
      <trkpt lat="49.88531" lon="2.50862">
        <ele>80.2</ele>
        <time>2023-09-27T15:01:57Z</time>
      </trkpt>
      <trkpt lat="49.88531" lon="2.50862">
        <ele>80.2</ele>
        <time>2023-09-27T15:01:58Z</time>
      </trkpt>
      <trkpt lat="49.88531" lon="2.50862">
        <ele>80.2</ele>
        <time>2023-09-27T15:01:59Z</time>
      </trkpt>
      <trkpt lat="49.88531" lon="2.50862">
        <ele>80.2</ele>
        <time>2023-09-27T15:02:00Z</time>
      </trkpt>
      <trkpt lat="49.88531" lon="2.50862">
        <ele>80.2</ele>
        <time>2023-09-27T15:02:01Z</time>
      </trkpt>
      <trkpt lat="49.88531" lon="2.50862">
        <ele>80.2</ele>
        <time>2023-09-27T15:02:02Z</time>
      </trkpt>
      <trkpt lat="49.88531" lon="2.50862">
        <ele>80.2</ele>
        <time>2023-09-27T15:02:03Z</time>
      </trkpt>
      <trkpt lat="49.88531" lon="2.50862">
        <ele>80.2</ele>
        <time>2023-09-27T15:02:04Z</time>
      </trkpt>
      <trkpt lat="49.88531" lon="2.50862">
        <ele>80.2</ele>
        <time>2023-09-27T15:02:05Z</time>
      </trkpt>
      <trkpt lat="49.88531" lon="2.50862">
        <ele>80.2</ele>
        <time>2023-09-27T15:02:06Z</time>
      </trkpt>
      <trkpt lat="49.88531" lon="2.50862">
        <ele>80.2</ele>
        <time>2023-09-27T15:02:07Z</time>
      </trkpt>
      <trkpt lat="49.88531" lon="2.50862">
        <ele>80.2</ele>
        <time>2023-09-27T15:02:08Z</time>
      </trkpt>
      <trkpt lat="49.88531" lon="2.50862">
        <ele>80.2</ele>
        <time>2023-09-27T15:02:09Z</time>
      </trkpt>
      <trkpt lat="49.88531" lon="2.50862">
        <ele>80.2</ele>
        <time>2023-09-27T15:02:10Z</time>
      </trkpt>
      <trkpt lat="49.88531" lon="2.50862">
        <ele>80.2</ele>
        <time>2023-09-27T15:02:11Z</time>
      </trkpt>
      <trkpt lat="49.88531" lon="2.50862">
        <ele>80.2</ele>
        <time>2023-09-27T15:02:12Z</time>
      </trkpt>
      <trkpt lat="49.88531" lon="2.50862">
        <ele>80.2</ele>
        <time>2023-09-27T15:02:13Z</time>
      </trkpt>
      <trkpt lat="49.88531" lon="2.50862">
        <ele>80.2</ele>
        <time>2023-09-27T15:02:14Z</time>
      </trkpt>
      <trkpt lat="49.88531" lon="2.50862">
        <ele>80.2</ele>
        <time>2023-09-27T15:02:15Z</time>
      </trkpt>
      <trkpt lat="49.88531" lon="2.50862">
        <ele>80.2</ele>
        <time>2023-09-27T15:02:16Z</time>
      </trkpt>
      <trkpt lat="49.88531" lon="2.50862">
        <ele>80.2</ele>
        <time>2023-09-27T15:02:17Z</time>
      </trkpt>
      <trkpt lat="49.88531" lon="2.50862">
        <ele>80.2</ele>
        <time>2023-09-27T15:02:18Z</time>
      </trkpt>
      <trkpt lat="49.88531" lon="2.50862">
        <ele>80.2</ele>
        <time>2023-09-27T15:02:19Z</time>
      </trkpt>
      <trkpt lat="49.88531" lon="2.50862">
        <ele>80.2</ele>
        <time>2023-09-27T15:02:20Z</time>
      </trkpt>
      <trkpt lat="49.88531" lon="2.50862">
        <ele>80.2</ele>
        <time>2023-09-27T15:02:21Z</time>
      </trkpt>
      <trkpt lat="49.88531" lon="2.50862">
        <ele>80.2</ele>
        <time>2023-09-27T15:02:22Z</time>
      </trkpt>
      <trkpt lat="49.88531" lon="2.50862">
        <ele>80.2</ele>
        <time>2023-09-27T15:02:23Z</time>
      </trkpt>
      <trkpt lat="49.88531" lon="2.50862">
        <ele>80.2</ele>
        <time>2023-09-27T15:02:24Z</time>
      </trkpt>
      <trkpt lat="49.88531" lon="2.50862">
        <ele>80.2</ele>
        <time>2023-09-27T15:02:25Z</time>
      </trkpt>
      <trkpt lat="49.88531" lon="2.50862">
        <ele>80.2</ele>
        <time>2023-09-27T15:02:26Z</time>
      </trkpt>
      <trkpt lat="49.88531" lon="2.50862">
        <ele>80.2</ele>
        <time>2023-09-27T15:02:27Z</time>
      </trkpt>
      <trkpt lat="49.88531" lon="2.50862">
        <ele>80.2</ele>
        <time>2023-09-27T15:02:28Z</time>
      </trkpt>
      <trkpt lat="49.88531" lon="2.50862">
        <ele>80.2</ele>
        <time>2023-09-27T15:02:29Z</time>
      </trkpt>
      <trkpt lat="49.88531" lon="2.50862">
        <ele>80.2</ele>
        <time>2023-09-27T15:02:30Z</time>
      </trkpt>
      <trkpt lat="49.88531" lon="2.50862">
        <ele>80.2</ele>
        <time>2023-09-27T15:02:31Z</time>
      </trkpt>
      <trkpt lat="49.88531" lon="2.50862">
        <ele>80.2</ele>
        <time>2023-09-27T15:02:32Z</time>
      </trkpt>
      <trkpt lat="49.88531" lon="2.50862">
        <ele>80.2</ele>
        <time>2023-09-27T15:02:33Z</time>
      </trkpt>
      <trkpt lat="49.88531" lon="2.50862">
        <ele>80.2</ele>
        <time>2023-09-27T15:02:34Z</time>
      </trkpt>
      <trkpt lat="49.88531" lon="2.50862">
        <ele>80.2</ele>
        <time>2023-09-27T15:02:35Z</time>
      </trkpt>
      <trkpt lat="49.88531" lon="2.50862">
        <ele>80.2</ele>
        <time>2023-09-27T15:02:36Z</time>
      </trkpt>
      <trkpt lat="49.88531" lon="2.50862">
        <ele>80.2</ele>
        <time>2023-09-27T15:02:37Z</time>
      </trkpt>
      <trkpt lat="49.88531" lon="2.50862">
        <ele>80.2</ele>
        <time>2023-09-27T15:02:38Z</time>
      </trkpt>
      <trkpt lat="49.88531" lon="2.50862">
        <ele>80.2</ele>
        <time>2023-09-27T15:02:39Z</time>
      </trkpt>
      <trkpt lat="49.88531" lon="2.50862">
        <ele>80.2</ele>
        <time>2023-09-27T15:02:40Z</time>
      </trkpt>
      <trkpt lat="49.88531" lon="2.50862">
        <ele>80.2</ele>
        <time>2023-09-27T15:02:41Z</time>
      </trkpt>
      <trkpt lat="49.88531" lon="2.50862">
        <ele>80.2</ele>
        <time>2023-09-27T15:02:42Z</time>
      </trkpt>
      <trkpt lat="49.88531" lon="2.50862">
        <ele>80.2</ele>
        <time>2023-09-27T15:02:43Z</time>
      </trkpt>
      <trkpt lat="49.88531" lon="2.50862">
        <ele>80.2</ele>
        <time>2023-09-27T15:02:44Z</time>
      </trkpt>
      <trkpt lat="49.88531" lon="2.50862">
        <ele>80.2</ele>
        <time>2023-09-27T15:02:45Z</time>
      </trkpt>
      <trkpt lat="49.88531" lon="2.50862">
        <ele>80.2</ele>
        <time>2023-09-27T15:02:46Z</time>
      </trkpt>
      <trkpt lat="49.88531" lon="2.50862">
        <ele>80.2</ele>
        <time>2023-09-27T15:02:47Z</time>
      </trkpt>
      <trkpt lat="49.88531" lon="2.50862">
        <ele>80.2</ele>
        <time>2023-09-27T15:02:48Z</time>
      </trkpt>
      <trkpt lat="49.88531" lon="2.50862">
        <ele>80.2</ele>
        <time>2023-09-27T15:02:49Z</time>
      </trkpt>
      <trkpt lat="49.88531" lon="2.50862">
        <ele>80.2</ele>
        <time>2023-09-27T15:02:50Z</time>
      </trkpt>
      <trkpt lat="49.88531" lon="2.50862">
        <ele>80.2</ele>
        <time>2023-09-27T15:02:51Z</time>
      </trkpt>
      <trkpt lat="49.88531" lon="2.50862">
        <ele>80.2</ele>
        <time>2023-09-27T15:02:52Z</time>
      </trkpt>
      <trkpt lat="49.88531" lon="2.50862">
        <ele>80.2</ele>
        <time>2023-09-27T15:02:53Z</time>
      </trkpt>
      <trkpt lat="49.88531" lon="2.50862">
        <ele>80.2</ele>
        <time>2023-09-27T15:02:54Z</time>
      </trkpt>
      <trkpt lat="49.88531" lon="2.50862">
        <ele>80.2</ele>
        <time>2023-09-27T15:02:55Z</time>
      </trkpt>
      <trkpt lat="49.88531" lon="2.50862">
        <ele>80.2</ele>
        <time>2023-09-27T15:02:56Z</time>
      </trkpt>
      <trkpt lat="49.88531" lon="2.50862">
        <ele>80.2</ele>
        <time>2023-09-27T15:02:57Z</time>
      </trkpt>
      <trkpt lat="49.88531" lon="2.50862">
        <ele>80.2</ele>
        <time>2023-09-27T15:02:58Z</time>
      </trkpt>
      <trkpt lat="49.88531" lon="2.50862">
        <ele>80.2</ele>
        <time>2023-09-27T15:02:59Z</time>
      </trkpt>
      <trkpt lat="49.88531" lon="2.50862">
        <ele>80.2</ele>
        <time>2023-09-27T15:03:00Z</time>
      </trkpt>
      <trkpt lat="49.88531" lon="2.50862">
        <ele>80.2</ele>
        <time>2023-09-27T15:03:01Z</time>
      </trkpt>
      <trkpt lat="49.88531" lon="2.50862">
        <ele>80.2</ele>
        <time>2023-09-27T15:03:02Z</time>
      </trkpt>
      <trkpt lat="49.88531" lon="2.50862">
        <ele>80.2</ele>
        <time>2023-09-27T15:03:03Z</time>
      </trkpt>
      <trkpt lat="49.88531" lon="2.50862">
        <ele>80.2</ele>
        <time>2023-09-27T15:03:04Z</time>
      </trkpt>
      <trkpt lat="49.88531" lon="2.50862">
        <ele>80.2</ele>
        <time>2023-09-27T15:03:05Z</time>
      </trkpt>
      <trkpt lat="49.88531" lon="2.50862">
        <ele>80.2</ele>
        <time>2023-09-27T15:03:06Z</time>
      </trkpt>
      <trkpt lat="49.88531" lon="2.50862">
        <ele>80.2</ele>
        <time>2023-09-27T15:03:07Z</time>
      </trkpt>
      <trkpt lat="49.88531" lon="2.50862">
        <ele>80.2</ele>
        <time>2023-09-27T15:03:08Z</time>
      </trkpt>
      <trkpt lat="49.88531" lon="2.50862">
        <ele>80.2</ele>
        <time>2023-09-27T15:03:09Z</time>
      </trkpt>
      <trkpt lat="49.88531" lon="2.50862">
        <ele>80.2</ele>
        <time>2023-09-27T15:03:10Z</time>
      </trkpt>
      <trkpt lat="49.88531" lon="2.50862">
        <ele>80.2</ele>
        <time>2023-09-27T15:03:11Z</time>
      </trkpt>
      <trkpt lat="49.88531" lon="2.50862">
        <ele>80.2</ele>
        <time>2023-09-27T15:03:12Z</time>
      </trkpt>
      <trkpt lat="49.88531" lon="2.50862">
        <ele>80.2</ele>
        <time>2023-09-27T15:03:13Z</time>
      </trkpt>
      <trkpt lat="49.88531" lon="2.50862">
        <ele>80.2</ele>
        <time>2023-09-27T15:03:14Z</time>
      </trkpt>
      <trkpt lat="49.88531" lon="2.50862">
        <ele>80.2</ele>
        <time>2023-09-27T15:03:15Z</time>
      </trkpt>
      <trkpt lat="49.88531" lon="2.50862">
        <ele>80.2</ele>
        <time>2023-09-27T15:03:16Z</time>
      </trkpt>
      <trkpt lat="49.88531" lon="2.50862">
        <ele>80.2</ele>
        <time>2023-09-27T15:03:17Z</time>
      </trkpt>
      <trkpt lat="49.88531" lon="2.50862">
        <ele>80.2</ele>
        <time>2023-09-27T15:03:18Z</time>
      </trkpt>
      <trkpt lat="49.88531" lon="2.50862">
        <ele>80.2</ele>
        <time>2023-09-27T15:03:19Z</time>
      </trkpt>
      <trkpt lat="49.88531" lon="2.50862">
        <ele>80.2</ele>
        <time>2023-09-27T15:03:20Z</time>
      </trkpt>
      <trkpt lat="49.88531" lon="2.50862">
        <ele>80.2</ele>
        <time>2023-09-27T15:03:21Z</time>
      </trkpt>
      <trkpt lat="49.88531" lon="2.50862">
        <ele>80.2</ele>
        <time>2023-09-27T15:03:22Z</time>
      </trkpt>
      <trkpt lat="49.88531" lon="2.50862">
        <ele>80.2</ele>
        <time>2023-09-27T15:03:23Z</time>
      </trkpt>
      <trkpt lat="49.8853" lon="2.50861">
        <ele>79.8</ele>
        <time>2023-09-27T15:03:24Z</time>
      </trkpt>
      <trkpt lat="49.8853" lon="2.50861">
        <ele>79.8</ele>
        <time>2023-09-27T15:03:25Z</time>
      </trkpt>
      <trkpt lat="49.8853" lon="2.50861">
        <ele>79.8</ele>
        <time>2023-09-27T15:03:26Z</time>
      </trkpt>
      <trkpt lat="49.8853" lon="2.50861">
        <ele>79.8</ele>
        <time>2023-09-27T15:03:27Z</time>
      </trkpt>
      <trkpt lat="49.8853" lon="2.50861">
        <ele>79.8</ele>
        <time>2023-09-27T15:03:28Z</time>
      </trkpt>
      <trkpt lat="49.88529" lon="2.50861">
        <ele>79.8</ele>
        <time>2023-09-27T15:03:29Z</time>
      </trkpt>
      <trkpt lat="49.88529" lon="2.50861">
        <ele>79.8</ele>
        <time>2023-09-27T15:03:30Z</time>
      </trkpt>
      <trkpt lat="49.88529" lon="2.50861">
        <ele>79.8</ele>
        <time>2023-09-27T15:03:31Z</time>
      </trkpt>
      <trkpt lat="49.8853" lon="2.50861">
        <ele>79.8</ele>
        <time>2023-09-27T15:03:32Z</time>
      </trkpt>
      <trkpt lat="49.8853" lon="2.5086">
        <ele>79.8</ele>
        <time>2023-09-27T15:03:33Z</time>
      </trkpt>
      <trkpt lat="49.8853" lon="2.5086">
        <ele>79.8</ele>
        <time>2023-09-27T15:03:34Z</time>
      </trkpt>
      <trkpt lat="49.8853" lon="2.5086">
        <ele>79.8</ele>
        <time>2023-09-27T15:03:35Z</time>
      </trkpt>
      <trkpt lat="49.8853" lon="2.5086">
        <ele>79.8</ele>
        <time>2023-09-27T15:03:36Z</time>
      </trkpt>
      <trkpt lat="49.8853" lon="2.5086">
        <ele>79.8</ele>
        <time>2023-09-27T15:03:37Z</time>
      </trkpt>
      <trkpt lat="49.8853" lon="2.5086">
        <ele>79.8</ele>
        <time>2023-09-27T15:03:38Z</time>
      </trkpt>
      <trkpt lat="49.8853" lon="2.5086">
        <ele>79.8</ele>
        <time>2023-09-27T15:03:39Z</time>
      </trkpt>
      <trkpt lat="49.8853" lon="2.5086">
        <ele>79.8</ele>
        <time>2023-09-27T15:03:40Z</time>
      </trkpt>
      <trkpt lat="49.8853" lon="2.5086">
        <ele>79.8</ele>
        <time>2023-09-27T15:03:41Z</time>
      </trkpt>
      <trkpt lat="49.8853" lon="2.5086">
        <ele>79.8</ele>
        <time>2023-09-27T15:03:42Z</time>
      </trkpt>
      <trkpt lat="49.8853" lon="2.5086">
        <ele>79.8</ele>
        <time>2023-09-27T15:03:43Z</time>
      </trkpt>
      <trkpt lat="49.8853" lon="2.5086">
        <ele>79.8</ele>
        <time>2023-09-27T15:03:44Z</time>
      </trkpt>
      <trkpt lat="49.8853" lon="2.5086">
        <ele>79.8</ele>
        <time>2023-09-27T15:03:45Z</time>
      </trkpt>
      <trkpt lat="49.8853" lon="2.5086">
        <ele>79.8</ele>
        <time>2023-09-27T15:03:46Z</time>
      </trkpt>
      <trkpt lat="49.8853" lon="2.5086">
        <ele>79.8</ele>
        <time>2023-09-27T15:03:47Z</time>
      </trkpt>
      <trkpt lat="49.8853" lon="2.5086">
        <ele>79.8</ele>
        <time>2023-09-27T15:03:48Z</time>
      </trkpt>
      <trkpt lat="49.8853" lon="2.5086">
        <ele>79.8</ele>
        <time>2023-09-27T15:03:49Z</time>
      </trkpt>
      <trkpt lat="49.8853" lon="2.5086">
        <ele>79.8</ele>
        <time>2023-09-27T15:03:50Z</time>
      </trkpt>
      <trkpt lat="49.8853" lon="2.5086">
        <ele>79.8</ele>
        <time>2023-09-27T15:03:51Z</time>
      </trkpt>
      <trkpt lat="49.8853" lon="2.5086">
        <ele>79.8</ele>
        <time>2023-09-27T15:03:52Z</time>
      </trkpt>
      <trkpt lat="49.8853" lon="2.5086">
        <ele>79.8</ele>
        <time>2023-09-27T15:03:53Z</time>
      </trkpt>
      <trkpt lat="49.8853" lon="2.5086">
        <ele>79.8</ele>
        <time>2023-09-27T15:03:54Z</time>
      </trkpt>
      <trkpt lat="49.8853" lon="2.5086">
        <ele>79.8</ele>
        <time>2023-09-27T15:03:55Z</time>
      </trkpt>
      <trkpt lat="49.8853" lon="2.5086">
        <ele>79.8</ele>
        <time>2023-09-27T15:03:56Z</time>
      </trkpt>
      <trkpt lat="49.8853" lon="2.5086">
        <ele>79.8</ele>
        <time>2023-09-27T15:03:57Z</time>
      </trkpt>
      <trkpt lat="49.8853" lon="2.5086">
        <ele>79.8</ele>
        <time>2023-09-27T15:03:58Z</time>
      </trkpt>
      <trkpt lat="49.8853" lon="2.5086">
        <ele>79.8</ele>
        <time>2023-09-27T15:03:59Z</time>
      </trkpt>
      <trkpt lat="49.8853" lon="2.5086">
        <ele>79.8</ele>
        <time>2023-09-27T15:04:00Z</time>
      </trkpt>
      <trkpt lat="49.8853" lon="2.5086">
        <ele>79.8</ele>
        <time>2023-09-27T15:04:01Z</time>
      </trkpt>
      <trkpt lat="49.8853" lon="2.5086">
        <ele>79.8</ele>
        <time>2023-09-27T15:04:02Z</time>
      </trkpt>
      <trkpt lat="49.8853" lon="2.5086">
        <ele>79.8</ele>
        <time>2023-09-27T15:04:03Z</time>
      </trkpt>
      <trkpt lat="49.8853" lon="2.5086">
        <ele>79.8</ele>
        <time>2023-09-27T15:04:04Z</time>
      </trkpt>
      <trkpt lat="49.8853" lon="2.5086">
        <ele>79.8</ele>
        <time>2023-09-27T15:04:05Z</time>
      </trkpt>
      <trkpt lat="49.8853" lon="2.5086">
        <ele>79.8</ele>
        <time>2023-09-27T15:04:06Z</time>
      </trkpt>
      <trkpt lat="49.8853" lon="2.5086">
        <ele>79.8</ele>
        <time>2023-09-27T15:04:07Z</time>
      </trkpt>
      <trkpt lat="49.8853" lon="2.5086">
        <ele>79.8</ele>
        <time>2023-09-27T15:04:08Z</time>
      </trkpt>
      <trkpt lat="49.8853" lon="2.5086">
        <ele>79.8</ele>
        <time>2023-09-27T15:04:09Z</time>
      </trkpt>
      <trkpt lat="49.8853" lon="2.5086">
        <ele>79.8</ele>
        <time>2023-09-27T15:04:10Z</time>
      </trkpt>
      <trkpt lat="49.8853" lon="2.5086">
        <ele>79.8</ele>
        <time>2023-09-27T15:04:11Z</time>
      </trkpt>
      <trkpt lat="49.8853" lon="2.5086">
        <ele>79.8</ele>
        <time>2023-09-27T15:04:12Z</time>
      </trkpt>
      <trkpt lat="49.8853" lon="2.5086">
        <ele>79.8</ele>
        <time>2023-09-27T15:04:13Z</time>
      </trkpt>
      <trkpt lat="49.8853" lon="2.5086">
        <ele>79.8</ele>
        <time>2023-09-27T15:04:14Z</time>
      </trkpt>
      <trkpt lat="49.8853" lon="2.5086">
        <ele>79.8</ele>
        <time>2023-09-27T15:04:15Z</time>
      </trkpt>
      <trkpt lat="49.8853" lon="2.5086">
        <ele>79.8</ele>
        <time>2023-09-27T15:04:16Z</time>
      </trkpt>
      <trkpt lat="49.8853" lon="2.5086">
        <ele>79.8</ele>
        <time>2023-09-27T15:04:17Z</time>
      </trkpt>
      <trkpt lat="49.8853" lon="2.5086">
        <ele>79.8</ele>
        <time>2023-09-27T15:04:18Z</time>
      </trkpt>
      <trkpt lat="49.8853" lon="2.5086">
        <ele>79.8</ele>
        <time>2023-09-27T15:04:19Z</time>
      </trkpt>
      <trkpt lat="49.8853" lon="2.5086">
        <ele>79.8</ele>
        <time>2023-09-27T15:04:20Z</time>
      </trkpt>
      <trkpt lat="49.8853" lon="2.5086">
        <ele>79.8</ele>
        <time>2023-09-27T15:04:21Z</time>
      </trkpt>
      <trkpt lat="49.8853" lon="2.5086">
        <ele>79.8</ele>
        <time>2023-09-27T15:04:22Z</time>
      </trkpt>
      <trkpt lat="49.8853" lon="2.5086">
        <ele>79.8</ele>
        <time>2023-09-27T15:04:23Z</time>
      </trkpt>
      <trkpt lat="49.8853" lon="2.5086">
        <ele>79.8</ele>
        <time>2023-09-27T15:04:24Z</time>
      </trkpt>
      <trkpt lat="49.8853" lon="2.5086">
        <ele>79.8</ele>
        <time>2023-09-27T15:04:25Z</time>
      </trkpt>
      <trkpt lat="49.8853" lon="2.5086">
        <ele>79.8</ele>
        <time>2023-09-27T15:04:26Z</time>
      </trkpt>
      <trkpt lat="49.8853" lon="2.5086">
        <ele>79.8</ele>
        <time>2023-09-27T15:04:27Z</time>
      </trkpt>
      <trkpt lat="49.8853" lon="2.5086">
        <ele>79.8</ele>
        <time>2023-09-27T15:04:28Z</time>
      </trkpt>
      <trkpt lat="49.8853" lon="2.5086">
        <ele>79.8</ele>
        <time>2023-09-27T15:04:29Z</time>
      </trkpt>
      <trkpt lat="49.8853" lon="2.5086">
        <ele>79.8</ele>
        <time>2023-09-27T15:04:30Z</time>
      </trkpt>
      <trkpt lat="49.8853" lon="2.5086">
        <ele>79.8</ele>
        <time>2023-09-27T15:04:31Z</time>
      </trkpt>
      <trkpt lat="49.8853" lon="2.5086">
        <ele>79.8</ele>
        <time>2023-09-27T15:04:32Z</time>
      </trkpt>
      <trkpt lat="49.8853" lon="2.5086">
        <ele>79.8</ele>
        <time>2023-09-27T15:04:33Z</time>
      </trkpt>
      <trkpt lat="49.8853" lon="2.5086">
        <ele>79.8</ele>
        <time>2023-09-27T15:04:34Z</time>
      </trkpt>
      <trkpt lat="49.8853" lon="2.5086">
        <ele>79.8</ele>
        <time>2023-09-27T15:04:35Z</time>
      </trkpt>
      <trkpt lat="49.8853" lon="2.5086">
        <ele>79.8</ele>
        <time>2023-09-27T15:04:36Z</time>
      </trkpt>
      <trkpt lat="49.8853" lon="2.5086">
        <ele>79.8</ele>
        <time>2023-09-27T15:04:37Z</time>
      </trkpt>
      <trkpt lat="49.8853" lon="2.5086">
        <ele>79.8</ele>
        <time>2023-09-27T15:04:38Z</time>
      </trkpt>
      <trkpt lat="49.8853" lon="2.5086">
        <ele>79.8</ele>
        <time>2023-09-27T15:04:39Z</time>
      </trkpt>
      <trkpt lat="49.8853" lon="2.5086">
        <ele>79.8</ele>
        <time>2023-09-27T15:04:40Z</time>
      </trkpt>
      <trkpt lat="49.8853" lon="2.5086">
        <ele>79.8</ele>
        <time>2023-09-27T15:04:41Z</time>
      </trkpt>
      <trkpt lat="49.8853" lon="2.5086">
        <ele>79.8</ele>
        <time>2023-09-27T15:04:42Z</time>
      </trkpt>
      <trkpt lat="49.8853" lon="2.5086">
        <ele>79.8</ele>
        <time>2023-09-27T15:04:43Z</time>
      </trkpt>
      <trkpt lat="49.8853" lon="2.5086">
        <ele>79.8</ele>
        <time>2023-09-27T15:04:44Z</time>
      </trkpt>
      <trkpt lat="49.8853" lon="2.5086">
        <ele>79.8</ele>
        <time>2023-09-27T15:04:45Z</time>
      </trkpt>
      <trkpt lat="49.8853" lon="2.5086">
        <ele>79.8</ele>
        <time>2023-09-27T15:04:46Z</time>
      </trkpt>
      <trkpt lat="49.8853" lon="2.5086">
        <ele>79.8</ele>
        <time>2023-09-27T15:04:47Z</time>
      </trkpt>
      <trkpt lat="49.8853" lon="2.5086">
        <ele>79.8</ele>
        <time>2023-09-27T15:04:48Z</time>
      </trkpt>
      <trkpt lat="49.8853" lon="2.5086">
        <ele>79.8</ele>
        <time>2023-09-27T15:04:49Z</time>
      </trkpt>
      <trkpt lat="49.8853" lon="2.5086">
        <ele>79.8</ele>
        <time>2023-09-27T15:04:50Z</time>
      </trkpt>
      <trkpt lat="49.8853" lon="2.5086">
        <ele>79.8</ele>
        <time>2023-09-27T15:04:51Z</time>
      </trkpt>
      <trkpt lat="49.8853" lon="2.5086">
        <ele>79.8</ele>
        <time>2023-09-27T15:04:52Z</time>
      </trkpt>
      <trkpt lat="49.8853" lon="2.5086">
        <ele>79.8</ele>
        <time>2023-09-27T15:04:53Z</time>
      </trkpt>
      <trkpt lat="49.8853" lon="2.5086">
        <ele>79.8</ele>
        <time>2023-09-27T15:04:54Z</time>
      </trkpt>
      <trkpt lat="49.8853" lon="2.5086">
        <ele>79.8</ele>
        <time>2023-09-27T15:04:55Z</time>
      </trkpt>
      <trkpt lat="49.8853" lon="2.5086">
        <ele>79.8</ele>
        <time>2023-09-27T15:04:56Z</time>
      </trkpt>
      <trkpt lat="49.8853" lon="2.5086">
        <ele>79.8</ele>
        <time>2023-09-27T15:04:57Z</time>
      </trkpt>
      <trkpt lat="49.8853" lon="2.5086">
        <ele>79.8</ele>
        <time>2023-09-27T15:04:58Z</time>
      </trkpt>
      <trkpt lat="49.8853" lon="2.5086">
        <ele>79.8</ele>
        <time>2023-09-27T15:04:59Z</time>
      </trkpt>
      <trkpt lat="49.8853" lon="2.5086">
        <ele>79.8</ele>
        <time>2023-09-27T15:05:00Z</time>
      </trkpt>
      <trkpt lat="49.8853" lon="2.5086">
        <ele>79.8</ele>
        <time>2023-09-27T15:05:01Z</time>
      </trkpt>
      <trkpt lat="49.8853" lon="2.5086">
        <ele>79.8</ele>
        <time>2023-09-27T15:05:02Z</time>
      </trkpt>
      <trkpt lat="49.8853" lon="2.5086">
        <ele>79.8</ele>
        <time>2023-09-27T15:05:03Z</time>
      </trkpt>
      <trkpt lat="49.8853" lon="2.5086">
        <ele>79.8</ele>
        <time>2023-09-27T15:05:04Z</time>
      </trkpt>
      <trkpt lat="49.8853" lon="2.5086">
        <ele>79.8</ele>
        <time>2023-09-27T15:05:05Z</time>
      </trkpt>
      <trkpt lat="49.8853" lon="2.5086">
        <ele>79.8</ele>
        <time>2023-09-27T15:05:06Z</time>
      </trkpt>
      <trkpt lat="49.8853" lon="2.5086">
        <ele>79.8</ele>
        <time>2023-09-27T15:05:07Z</time>
      </trkpt>
      <trkpt lat="49.8853" lon="2.5086">
        <ele>79.8</ele>
        <time>2023-09-27T15:05:08Z</time>
      </trkpt>
      <trkpt lat="49.8853" lon="2.5086">
        <ele>79.8</ele>
        <time>2023-09-27T15:05:09Z</time>
      </trkpt>
      <trkpt lat="49.8853" lon="2.5086">
        <ele>79.8</ele>
        <time>2023-09-27T15:05:10Z</time>
      </trkpt>
      <trkpt lat="49.8853" lon="2.5086">
        <ele>79.8</ele>
        <time>2023-09-27T15:05:11Z</time>
      </trkpt>
      <trkpt lat="49.8853" lon="2.5086">
        <ele>79.8</ele>
        <time>2023-09-27T15:05:12Z</time>
      </trkpt>
      <trkpt lat="49.8853" lon="2.5086">
        <ele>79.8</ele>
        <time>2023-09-27T15:05:13Z</time>
      </trkpt>
      <trkpt lat="49.8853" lon="2.5086">
        <ele>79.8</ele>
        <time>2023-09-27T15:05:14Z</time>
      </trkpt>
      <trkpt lat="49.8853" lon="2.5086">
        <ele>79.8</ele>
        <time>2023-09-27T15:05:15Z</time>
      </trkpt>
      <trkpt lat="49.8853" lon="2.5086">
        <ele>79.8</ele>
        <time>2023-09-27T15:05:16Z</time>
      </trkpt>
      <trkpt lat="49.8853" lon="2.5086">
        <ele>79.8</ele>
        <time>2023-09-27T15:05:17Z</time>
      </trkpt>
      <trkpt lat="49.8853" lon="2.5086">
        <ele>79.8</ele>
        <time>2023-09-27T15:05:18Z</time>
      </trkpt>
      <trkpt lat="49.8853" lon="2.5086">
        <ele>79.8</ele>
        <time>2023-09-27T15:05:19Z</time>
      </trkpt>
      <trkpt lat="49.8853" lon="2.5086">
        <ele>79.8</ele>
        <time>2023-09-27T15:05:20Z</time>
      </trkpt>
      <trkpt lat="49.8853" lon="2.5086">
        <ele>79.8</ele>
        <time>2023-09-27T15:05:21Z</time>
      </trkpt>
      <trkpt lat="49.8853" lon="2.5086">
        <ele>79.8</ele>
        <time>2023-09-27T15:05:22Z</time>
      </trkpt>
      <trkpt lat="49.8853" lon="2.5086">
        <ele>79.8</ele>
        <time>2023-09-27T15:05:23Z</time>
      </trkpt>
      <trkpt lat="49.8853" lon="2.5086">
        <ele>79.8</ele>
        <time>2023-09-27T15:05:24Z</time>
      </trkpt>
      <trkpt lat="49.8853" lon="2.5086">
        <ele>79.8</ele>
        <time>2023-09-27T15:05:25Z</time>
      </trkpt>
      <trkpt lat="49.8853" lon="2.5086">
        <ele>79.8</ele>
        <time>2023-09-27T15:05:26Z</time>
      </trkpt>
      <trkpt lat="49.8853" lon="2.5086">
        <ele>79.8</ele>
        <time>2023-09-27T15:05:27Z</time>
      </trkpt>
      <trkpt lat="49.8853" lon="2.5086">
        <ele>79.8</ele>
        <time>2023-09-27T15:05:28Z</time>
      </trkpt>
      <trkpt lat="49.8853" lon="2.5086">
        <ele>79.8</ele>
        <time>2023-09-27T15:05:29Z</time>
      </trkpt>
      <trkpt lat="49.8853" lon="2.5086">
        <ele>79.8</ele>
        <time>2023-09-27T15:05:30Z</time>
      </trkpt>
      <trkpt lat="49.8853" lon="2.5086">
        <ele>79.8</ele>
        <time>2023-09-27T15:05:31Z</time>
      </trkpt>
      <trkpt lat="49.8853" lon="2.5086">
        <ele>79.8</ele>
        <time>2023-09-27T15:05:32Z</time>
      </trkpt>
      <trkpt lat="49.8853" lon="2.5086">
        <ele>79.8</ele>
        <time>2023-09-27T15:05:33Z</time>
      </trkpt>
      <trkpt lat="49.8853" lon="2.5086">
        <ele>79.8</ele>
        <time>2023-09-27T15:05:34Z</time>
      </trkpt>
      <trkpt lat="49.8853" lon="2.5086">
        <ele>79.8</ele>
        <time>2023-09-27T15:05:35Z</time>
      </trkpt>
      <trkpt lat="49.8853" lon="2.5086">
        <ele>79.8</ele>
        <time>2023-09-27T15:05:36Z</time>
      </trkpt>
      <trkpt lat="49.8853" lon="2.5086">
        <ele>79.8</ele>
        <time>2023-09-27T15:05:37Z</time>
      </trkpt>
      <trkpt lat="49.8853" lon="2.5086">
        <ele>79.8</ele>
        <time>2023-09-27T15:05:38Z</time>
      </trkpt>
      <trkpt lat="49.8853" lon="2.5086">
        <ele>79.8</ele>
        <time>2023-09-27T15:05:39Z</time>
      </trkpt>
      <trkpt lat="49.8853" lon="2.5086">
        <ele>79.8</ele>
        <time>2023-09-27T15:05:40Z</time>
      </trkpt>
      <trkpt lat="49.8853" lon="2.5086">
        <ele>79.8</ele>
        <time>2023-09-27T15:05:41Z</time>
      </trkpt>
      <trkpt lat="49.8853" lon="2.5086">
        <ele>79.8</ele>
        <time>2023-09-27T15:05:42Z</time>
      </trkpt>
      <trkpt lat="49.8853" lon="2.5086">
        <ele>79.8</ele>
        <time>2023-09-27T15:05:43Z</time>
      </trkpt>
      <trkpt lat="49.8853" lon="2.5086">
        <ele>79.8</ele>
        <time>2023-09-27T15:05:44Z</time>
      </trkpt>
      <trkpt lat="49.8853" lon="2.5086">
        <ele>79.8</ele>
        <time>2023-09-27T15:05:45Z</time>
      </trkpt>
      <trkpt lat="49.8853" lon="2.5086">
        <ele>79.8</ele>
        <time>2023-09-27T15:05:46Z</time>
      </trkpt>
      <trkpt lat="49.8853" lon="2.5086">
        <ele>79.8</ele>
        <time>2023-09-27T15:05:47Z</time>
      </trkpt>
      <trkpt lat="49.8853" lon="2.5086">
        <ele>79.8</ele>
        <time>2023-09-27T15:05:48Z</time>
      </trkpt>
      <trkpt lat="49.8853" lon="2.5086">
        <ele>79.8</ele>
        <time>2023-09-27T15:05:49Z</time>
      </trkpt>
      <trkpt lat="49.8853" lon="2.5086">
        <ele>79.8</ele>
        <time>2023-09-27T15:05:50Z</time>
      </trkpt>
      <trkpt lat="49.8853" lon="2.5086">
        <ele>79.8</ele>
        <time>2023-09-27T15:05:51Z</time>
      </trkpt>
      <trkpt lat="49.8853" lon="2.5086">
        <ele>79.8</ele>
        <time>2023-09-27T15:05:52Z</time>
      </trkpt>
      <trkpt lat="49.8853" lon="2.5086">
        <ele>79.8</ele>
        <time>2023-09-27T15:05:53Z</time>
      </trkpt>
      <trkpt lat="49.8853" lon="2.5086">
        <ele>79.8</ele>
        <time>2023-09-27T15:05:54Z</time>
      </trkpt>
      <trkpt lat="49.8853" lon="2.5086">
        <ele>79.8</ele>
        <time>2023-09-27T15:05:55Z</time>
      </trkpt>
      <trkpt lat="49.8853" lon="2.5086">
        <ele>79.8</ele>
        <time>2023-09-27T15:05:56Z</time>
      </trkpt>
      <trkpt lat="49.8853" lon="2.5086">
        <ele>79.8</ele>
        <time>2023-09-27T15:05:57Z</time>
      </trkpt>
      <trkpt lat="49.8853" lon="2.5086">
        <ele>79.8</ele>
        <time>2023-09-27T15:05:58Z</time>
      </trkpt>
      <trkpt lat="49.8853" lon="2.5086">
        <ele>79.8</ele>
        <time>2023-09-27T15:05:59Z</time>
      </trkpt>
      <trkpt lat="49.8853" lon="2.5086">
        <ele>79.8</ele>
        <time>2023-09-27T15:06:00Z</time>
      </trkpt>
      <trkpt lat="49.8853" lon="2.5086">
        <ele>79.8</ele>
        <time>2023-09-27T15:06:01Z</time>
      </trkpt>
      <trkpt lat="49.8853" lon="2.5086">
        <ele>79.8</ele>
        <time>2023-09-27T15:06:02Z</time>
      </trkpt>
      <trkpt lat="49.8853" lon="2.5086">
        <ele>79.8</ele>
        <time>2023-09-27T15:06:03Z</time>
      </trkpt>
      <trkpt lat="49.8853" lon="2.5086">
        <ele>79.8</ele>
        <time>2023-09-27T15:06:04Z</time>
      </trkpt>
      <trkpt lat="49.8853" lon="2.5086">
        <ele>79.8</ele>
        <time>2023-09-27T15:06:05Z</time>
      </trkpt>
      <trkpt lat="49.8853" lon="2.5086">
        <ele>79.8</ele>
        <time>2023-09-27T15:06:06Z</time>
      </trkpt>
      <trkpt lat="49.8853" lon="2.5086">
        <ele>79.8</ele>
        <time>2023-09-27T15:06:07Z</time>
      </trkpt>
      <trkpt lat="49.8853" lon="2.5086">
        <ele>79.8</ele>
        <time>2023-09-27T15:06:08Z</time>
      </trkpt>
      <trkpt lat="49.8853" lon="2.5086">
        <ele>79.8</ele>
        <time>2023-09-27T15:06:09Z</time>
      </trkpt>
      <trkpt lat="49.8853" lon="2.5086">
        <ele>79.8</ele>
        <time>2023-09-27T15:06:10Z</time>
      </trkpt>
      <trkpt lat="49.8853" lon="2.5086">
        <ele>79.8</ele>
        <time>2023-09-27T15:06:11Z</time>
      </trkpt>
      <trkpt lat="49.8853" lon="2.5086">
        <ele>79.8</ele>
        <time>2023-09-27T15:06:12Z</time>
      </trkpt>
      <trkpt lat="49.8853" lon="2.5086">
        <ele>79.8</ele>
        <time>2023-09-27T15:06:13Z</time>
      </trkpt>
      <trkpt lat="49.8853" lon="2.5086">
        <ele>79.8</ele>
        <time>2023-09-27T15:06:14Z</time>
      </trkpt>
      <trkpt lat="49.8853" lon="2.5086">
        <ele>79.8</ele>
        <time>2023-09-27T15:06:15Z</time>
      </trkpt>
      <trkpt lat="49.8853" lon="2.5086">
        <ele>79.8</ele>
        <time>2023-09-27T15:06:16Z</time>
      </trkpt>
      <trkpt lat="49.8853" lon="2.5086">
        <ele>79.8</ele>
        <time>2023-09-27T15:06:17Z</time>
      </trkpt>
      <trkpt lat="49.8853" lon="2.5086">
        <ele>79.8</ele>
        <time>2023-09-27T15:06:18Z</time>
      </trkpt>
      <trkpt lat="49.8853" lon="2.5086">
        <ele>79.8</ele>
        <time>2023-09-27T15:06:19Z</time>
      </trkpt>
      <trkpt lat="49.8853" lon="2.5086">
        <ele>79.8</ele>
        <time>2023-09-27T15:06:20Z</time>
      </trkpt>
      <trkpt lat="49.8853" lon="2.5086">
        <ele>79.8</ele>
        <time>2023-09-27T15:06:21Z</time>
      </trkpt>
      <trkpt lat="49.8853" lon="2.5086">
        <ele>79.8</ele>
        <time>2023-09-27T15:06:22Z</time>
      </trkpt>
      <trkpt lat="49.8853" lon="2.5086">
        <ele>79.8</ele>
        <time>2023-09-27T15:06:23Z</time>
      </trkpt>
      <trkpt lat="49.8853" lon="2.5086">
        <ele>79.8</ele>
        <time>2023-09-27T15:06:24Z</time>
      </trkpt>
      <trkpt lat="49.8853" lon="2.5086">
        <ele>79.8</ele>
        <time>2023-09-27T15:06:25Z</time>
      </trkpt>
      <trkpt lat="49.8853" lon="2.5086">
        <ele>79.8</ele>
        <time>2023-09-27T15:06:26Z</time>
      </trkpt>
      <trkpt lat="49.8853" lon="2.5086">
        <ele>79.8</ele>
        <time>2023-09-27T15:06:27Z</time>
      </trkpt>
      <trkpt lat="49.8853" lon="2.5086">
        <ele>79.8</ele>
        <time>2023-09-27T15:06:28Z</time>
      </trkpt>
      <trkpt lat="49.8853" lon="2.5086">
        <ele>79.8</ele>
        <time>2023-09-27T15:06:29Z</time>
      </trkpt>
      <trkpt lat="49.8853" lon="2.5086">
        <ele>79.8</ele>
        <time>2023-09-27T15:06:30Z</time>
      </trkpt>
      <trkpt lat="49.8853" lon="2.5086">
        <ele>79.8</ele>
        <time>2023-09-27T15:06:31Z</time>
      </trkpt>
      <trkpt lat="49.8853" lon="2.5086">
        <ele>79.8</ele>
        <time>2023-09-27T15:06:32Z</time>
      </trkpt>
      <trkpt lat="49.8853" lon="2.5086">
        <ele>79.8</ele>
        <time>2023-09-27T15:06:33Z</time>
      </trkpt>
      <trkpt lat="49.8853" lon="2.5086">
        <ele>79.8</ele>
        <time>2023-09-27T15:06:34Z</time>
      </trkpt>
      <trkpt lat="49.8853" lon="2.5086">
        <ele>79.8</ele>
        <time>2023-09-27T15:06:35Z</time>
      </trkpt>
      <trkpt lat="49.8853" lon="2.5086">
        <ele>79.8</ele>
        <time>2023-09-27T15:06:36Z</time>
      </trkpt>
      <trkpt lat="49.8853" lon="2.5086">
        <ele>79.8</ele>
        <time>2023-09-27T15:06:37Z</time>
      </trkpt>
      <trkpt lat="49.8853" lon="2.5086">
        <ele>79.8</ele>
        <time>2023-09-27T15:06:38Z</time>
      </trkpt>
      <trkpt lat="49.8853" lon="2.5086">
        <ele>79.8</ele>
        <time>2023-09-27T15:06:39Z</time>
      </trkpt>
      <trkpt lat="49.8853" lon="2.5086">
        <ele>79.8</ele>
        <time>2023-09-27T15:06:40Z</time>
      </trkpt>
      <trkpt lat="49.8853" lon="2.5086">
        <ele>79.8</ele>
        <time>2023-09-27T15:06:41Z</time>
      </trkpt>
      <trkpt lat="49.8853" lon="2.5086">
        <ele>79.8</ele>
        <time>2023-09-27T15:06:42Z</time>
      </trkpt>
      <trkpt lat="49.8853" lon="2.5086">
        <ele>79.8</ele>
        <time>2023-09-27T15:06:43Z</time>
      </trkpt>
      <trkpt lat="49.8853" lon="2.5086">
        <ele>79.8</ele>
        <time>2023-09-27T15:06:44Z</time>
      </trkpt>
      <trkpt lat="49.8853" lon="2.5086">
        <ele>79.8</ele>
        <time>2023-09-27T15:06:45Z</time>
      </trkpt>
      <trkpt lat="49.8853" lon="2.5086">
        <ele>79.8</ele>
        <time>2023-09-27T15:06:46Z</time>
      </trkpt>
      <trkpt lat="49.8853" lon="2.5086">
        <ele>79.8</ele>
        <time>2023-09-27T15:06:47Z</time>
      </trkpt>
      <trkpt lat="49.8853" lon="2.5086">
        <ele>79.8</ele>
        <time>2023-09-27T15:06:48Z</time>
      </trkpt>
      <trkpt lat="49.8853" lon="2.5086">
        <ele>79.8</ele>
        <time>2023-09-27T15:06:49Z</time>
      </trkpt>
      <trkpt lat="49.8853" lon="2.5086">
        <ele>79.8</ele>
        <time>2023-09-27T15:06:50Z</time>
      </trkpt>
      <trkpt lat="49.8853" lon="2.5086">
        <ele>79.8</ele>
        <time>2023-09-27T15:06:51Z</time>
      </trkpt>
      <trkpt lat="49.8853" lon="2.5086">
        <ele>79.8</ele>
        <time>2023-09-27T15:06:52Z</time>
      </trkpt>
      <trkpt lat="49.8853" lon="2.5086">
        <ele>79.8</ele>
        <time>2023-09-27T15:06:53Z</time>
      </trkpt>
      <trkpt lat="49.8853" lon="2.5086">
        <ele>79.8</ele>
        <time>2023-09-27T15:06:54Z</time>
      </trkpt>
      <trkpt lat="49.8853" lon="2.5086">
        <ele>79.8</ele>
        <time>2023-09-27T15:06:55Z</time>
      </trkpt>
      <trkpt lat="49.8853" lon="2.5086">
        <ele>79.8</ele>
        <time>2023-09-27T15:06:56Z</time>
      </trkpt>
      <trkpt lat="49.8853" lon="2.5086">
        <ele>79.8</ele>
        <time>2023-09-27T15:06:57Z</time>
      </trkpt>
      <trkpt lat="49.8853" lon="2.5086">
        <ele>79.8</ele>
        <time>2023-09-27T15:06:58Z</time>
      </trkpt>
      <trkpt lat="49.8853" lon="2.5086">
        <ele>79.8</ele>
        <time>2023-09-27T15:06:59Z</time>
      </trkpt>
      <trkpt lat="49.8853" lon="2.5086">
        <ele>79.8</ele>
        <time>2023-09-27T15:07:00Z</time>
      </trkpt>
      <trkpt lat="49.8853" lon="2.5086">
        <ele>79.8</ele>
        <time>2023-09-27T15:07:01Z</time>
      </trkpt>
      <trkpt lat="49.8853" lon="2.5086">
        <ele>79.8</ele>
        <time>2023-09-27T15:07:02Z</time>
      </trkpt>
      <trkpt lat="49.8853" lon="2.5086">
        <ele>79.8</ele>
        <time>2023-09-27T15:07:03Z</time>
      </trkpt>
      <trkpt lat="49.8853" lon="2.5086">
        <ele>79.8</ele>
        <time>2023-09-27T15:07:04Z</time>
      </trkpt>
      <trkpt lat="49.8853" lon="2.5086">
        <ele>79.8</ele>
        <time>2023-09-27T15:07:05Z</time>
      </trkpt>
      <trkpt lat="49.8853" lon="2.5086">
        <ele>79.8</ele>
        <time>2023-09-27T15:07:06Z</time>
      </trkpt>
      <trkpt lat="49.8853" lon="2.5086">
        <ele>79.8</ele>
        <time>2023-09-27T15:07:07Z</time>
      </trkpt>
      <trkpt lat="49.8853" lon="2.5086">
        <ele>79.8</ele>
        <time>2023-09-27T15:07:08Z</time>
      </trkpt>
      <trkpt lat="49.8853" lon="2.5086">
        <ele>79.8</ele>
        <time>2023-09-27T15:07:09Z</time>
      </trkpt>
      <trkpt lat="49.8853" lon="2.5086">
        <ele>79.8</ele>
        <time>2023-09-27T15:07:10Z</time>
      </trkpt>
      <trkpt lat="49.8853" lon="2.5086">
        <ele>79.8</ele>
        <time>2023-09-27T15:07:11Z</time>
      </trkpt>
      <trkpt lat="49.8853" lon="2.5086">
        <ele>79.8</ele>
        <time>2023-09-27T15:07:12Z</time>
      </trkpt>
      <trkpt lat="49.8853" lon="2.5086">
        <ele>79.8</ele>
        <time>2023-09-27T15:07:13Z</time>
      </trkpt>
      <trkpt lat="49.8853" lon="2.5086">
        <ele>79.8</ele>
        <time>2023-09-27T15:07:14Z</time>
      </trkpt>
      <trkpt lat="49.8853" lon="2.5086">
        <ele>79.8</ele>
        <time>2023-09-27T15:07:15Z</time>
      </trkpt>
      <trkpt lat="49.8853" lon="2.5086">
        <ele>79.8</ele>
        <time>2023-09-27T15:07:16Z</time>
      </trkpt>
      <trkpt lat="49.8853" lon="2.5086">
        <ele>79.8</ele>
        <time>2023-09-27T15:07:17Z</time>
      </trkpt>
      <trkpt lat="49.8853" lon="2.5086">
        <ele>79.8</ele>
        <time>2023-09-27T15:07:18Z</time>
      </trkpt>
      <trkpt lat="49.8853" lon="2.5086">
        <ele>79.8</ele>
        <time>2023-09-27T15:07:19Z</time>
      </trkpt>
      <trkpt lat="49.8853" lon="2.5086">
        <ele>79.8</ele>
        <time>2023-09-27T15:07:20Z</time>
      </trkpt>
      <trkpt lat="49.8853" lon="2.5086">
        <ele>79.8</ele>
        <time>2023-09-27T15:07:21Z</time>
      </trkpt>
      <trkpt lat="49.8853" lon="2.5086">
        <ele>79.8</ele>
        <time>2023-09-27T15:07:22Z</time>
      </trkpt>
      <trkpt lat="49.8853" lon="2.5086">
        <ele>79.8</ele>
        <time>2023-09-27T15:07:23Z</time>
      </trkpt>
      <trkpt lat="49.8853" lon="2.5086">
        <ele>79.8</ele>
        <time>2023-09-27T15:07:24Z</time>
      </trkpt>
      <trkpt lat="49.8853" lon="2.5086">
        <ele>79.8</ele>
        <time>2023-09-27T15:07:25Z</time>
      </trkpt>
      <trkpt lat="49.8853" lon="2.5086">
        <ele>79.8</ele>
        <time>2023-09-27T15:07:26Z</time>
      </trkpt>
      <trkpt lat="49.8853" lon="2.5086">
        <ele>79.8</ele>
        <time>2023-09-27T15:07:27Z</time>
      </trkpt>
      <trkpt lat="49.8853" lon="2.5086">
        <ele>79.8</ele>
        <time>2023-09-27T15:07:28Z</time>
      </trkpt>
      <trkpt lat="49.8853" lon="2.5086">
        <ele>79.8</ele>
        <time>2023-09-27T15:07:29Z</time>
      </trkpt>
      <trkpt lat="49.8853" lon="2.5086">
        <ele>79.8</ele>
        <time>2023-09-27T15:07:30Z</time>
      </trkpt>
      <trkpt lat="49.8853" lon="2.5086">
        <ele>79.8</ele>
        <time>2023-09-27T15:07:31Z</time>
      </trkpt>
      <trkpt lat="49.8853" lon="2.5086">
        <ele>79.8</ele>
        <time>2023-09-27T15:07:32Z</time>
      </trkpt>
      <trkpt lat="49.8853" lon="2.5086">
        <ele>79.8</ele>
        <time>2023-09-27T15:07:33Z</time>
      </trkpt>
      <trkpt lat="49.8853" lon="2.5086">
        <ele>79.8</ele>
        <time>2023-09-27T15:07:34Z</time>
      </trkpt>
      <trkpt lat="49.8853" lon="2.5086">
        <ele>79.8</ele>
        <time>2023-09-27T15:07:35Z</time>
      </trkpt>
      <trkpt lat="49.8853" lon="2.5086">
        <ele>79.8</ele>
        <time>2023-09-27T15:07:36Z</time>
      </trkpt>
      <trkpt lat="49.8853" lon="2.5086">
        <ele>79.8</ele>
        <time>2023-09-27T15:07:37Z</time>
      </trkpt>
      <trkpt lat="49.8853" lon="2.5086">
        <ele>79.8</ele>
        <time>2023-09-27T15:07:38Z</time>
      </trkpt>
      <trkpt lat="49.8853" lon="2.5086">
        <ele>79.8</ele>
        <time>2023-09-27T15:07:39Z</time>
      </trkpt>
      <trkpt lat="49.8853" lon="2.5086">
        <ele>79.8</ele>
        <time>2023-09-27T15:07:40Z</time>
      </trkpt>
      <trkpt lat="49.8853" lon="2.5086">
        <ele>79.8</ele>
        <time>2023-09-27T15:07:41Z</time>
      </trkpt>
      <trkpt lat="49.8853" lon="2.5086">
        <ele>79.8</ele>
        <time>2023-09-27T15:07:42Z</time>
      </trkpt>
      <trkpt lat="49.8853" lon="2.5086">
        <ele>79.8</ele>
        <time>2023-09-27T15:07:43Z</time>
      </trkpt>
      <trkpt lat="49.8853" lon="2.5086">
        <ele>79.8</ele>
        <time>2023-09-27T15:07:44Z</time>
      </trkpt>
      <trkpt lat="49.8853" lon="2.5086">
        <ele>79.8</ele>
        <time>2023-09-27T15:07:45Z</time>
      </trkpt>
      <trkpt lat="49.8853" lon="2.5086">
        <ele>79.8</ele>
        <time>2023-09-27T15:07:46Z</time>
      </trkpt>
      <trkpt lat="49.8853" lon="2.5086">
        <ele>79.8</ele>
        <time>2023-09-27T15:07:47Z</time>
      </trkpt>
      <trkpt lat="49.8853" lon="2.5086">
        <ele>79.8</ele>
        <time>2023-09-27T15:07:48Z</time>
      </trkpt>
      <trkpt lat="49.8853" lon="2.5086">
        <ele>79.8</ele>
        <time>2023-09-27T15:07:49Z</time>
      </trkpt>
      <trkpt lat="49.8853" lon="2.5086">
        <ele>79.8</ele>
        <time>2023-09-27T15:07:50Z</time>
      </trkpt>
      <trkpt lat="49.8853" lon="2.5086">
        <ele>79.8</ele>
        <time>2023-09-27T15:07:51Z</time>
      </trkpt>
      <trkpt lat="49.8853" lon="2.5086">
        <ele>79.8</ele>
        <time>2023-09-27T15:07:52Z</time>
      </trkpt>
      <trkpt lat="49.8853" lon="2.5086">
        <ele>79.8</ele>
        <time>2023-09-27T15:07:53Z</time>
      </trkpt>
      <trkpt lat="49.8853" lon="2.5086">
        <ele>79.8</ele>
        <time>2023-09-27T15:07:54Z</time>
      </trkpt>
      <trkpt lat="49.8853" lon="2.5086">
        <ele>79.8</ele>
        <time>2023-09-27T15:07:55Z</time>
      </trkpt>
      <trkpt lat="49.8853" lon="2.5086">
        <ele>79.8</ele>
        <time>2023-09-27T15:07:56Z</time>
      </trkpt>
      <trkpt lat="49.8853" lon="2.5086">
        <ele>79.8</ele>
        <time>2023-09-27T15:07:57Z</time>
      </trkpt>
      <trkpt lat="49.8853" lon="2.5086">
        <ele>79.8</ele>
        <time>2023-09-27T15:07:58Z</time>
      </trkpt>
      <trkpt lat="49.8853" lon="2.5086">
        <ele>79.8</ele>
        <time>2023-09-27T15:07:59Z</time>
      </trkpt>
      <trkpt lat="49.8853" lon="2.5086">
        <ele>79.8</ele>
        <time>2023-09-27T15:08:00Z</time>
      </trkpt>
      <trkpt lat="49.8853" lon="2.5086">
        <ele>79.8</ele>
        <time>2023-09-27T15:08:01Z</time>
      </trkpt>
      <trkpt lat="49.8853" lon="2.5086">
        <ele>79.8</ele>
        <time>2023-09-27T15:08:02Z</time>
      </trkpt>
      <trkpt lat="49.8853" lon="2.5086">
        <ele>79.8</ele>
        <time>2023-09-27T15:08:03Z</time>
      </trkpt>
      <trkpt lat="49.8853" lon="2.5086">
        <ele>79.8</ele>
        <time>2023-09-27T15:08:04Z</time>
      </trkpt>
      <trkpt lat="49.8853" lon="2.5086">
        <ele>79.8</ele>
        <time>2023-09-27T15:08:05Z</time>
      </trkpt>
      <trkpt lat="49.8853" lon="2.5086">
        <ele>79.8</ele>
        <time>2023-09-27T15:08:06Z</time>
      </trkpt>
      <trkpt lat="49.8853" lon="2.5086">
        <ele>79.8</ele>
        <time>2023-09-27T15:08:07Z</time>
      </trkpt>
      <trkpt lat="49.8853" lon="2.5086">
        <ele>79.8</ele>
        <time>2023-09-27T15:08:08Z</time>
      </trkpt>
      <trkpt lat="49.8853" lon="2.5086">
        <ele>79.8</ele>
        <time>2023-09-27T15:08:09Z</time>
      </trkpt>
      <trkpt lat="49.8853" lon="2.5086">
        <ele>79.8</ele>
        <time>2023-09-27T15:08:10Z</time>
      </trkpt>
      <trkpt lat="49.8853" lon="2.5086">
        <ele>79.8</ele>
        <time>2023-09-27T15:08:11Z</time>
      </trkpt>
      <trkpt lat="49.8853" lon="2.5086">
        <ele>79.8</ele>
        <time>2023-09-27T15:08:12Z</time>
      </trkpt>
      <trkpt lat="49.8853" lon="2.5086">
        <ele>79.8</ele>
        <time>2023-09-27T15:08:13Z</time>
      </trkpt>
      <trkpt lat="49.8853" lon="2.5086">
        <ele>79.8</ele>
        <time>2023-09-27T15:08:14Z</time>
      </trkpt>
      <trkpt lat="49.8853" lon="2.5086">
        <ele>79.8</ele>
        <time>2023-09-27T15:08:15Z</time>
      </trkpt>
      <trkpt lat="49.8853" lon="2.5086">
        <ele>79.8</ele>
        <time>2023-09-27T15:08:16Z</time>
      </trkpt>
      <trkpt lat="49.8853" lon="2.5086">
        <ele>79.8</ele>
        <time>2023-09-27T15:08:17Z</time>
      </trkpt>
      <trkpt lat="49.8853" lon="2.5086">
        <ele>79.8</ele>
        <time>2023-09-27T15:08:18Z</time>
      </trkpt>
      <trkpt lat="49.8853" lon="2.5086">
        <ele>79.8</ele>
        <time>2023-09-27T15:08:19Z</time>
      </trkpt>
      <trkpt lat="49.8853" lon="2.5086">
        <ele>79.8</ele>
        <time>2023-09-27T15:08:20Z</time>
      </trkpt>
      <trkpt lat="49.8853" lon="2.5086">
        <ele>79.8</ele>
        <time>2023-09-27T15:08:21Z</time>
      </trkpt>
      <trkpt lat="49.8853" lon="2.5086">
        <ele>79.8</ele>
        <time>2023-09-27T15:08:22Z</time>
      </trkpt>
      <trkpt lat="49.8853" lon="2.5086">
        <ele>79.8</ele>
        <time>2023-09-27T15:08:23Z</time>
      </trkpt>
      <trkpt lat="49.8853" lon="2.5086">
        <ele>79.8</ele>
        <time>2023-09-27T15:08:24Z</time>
      </trkpt>
      <trkpt lat="49.8853" lon="2.5086">
        <ele>79.8</ele>
        <time>2023-09-27T15:08:25Z</time>
      </trkpt>
      <trkpt lat="49.8853" lon="2.5086">
        <ele>79.8</ele>
        <time>2023-09-27T15:08:26Z</time>
      </trkpt>
      <trkpt lat="49.8853" lon="2.5086">
        <ele>79.8</ele>
        <time>2023-09-27T15:08:27Z</time>
      </trkpt>
      <trkpt lat="49.8853" lon="2.5086">
        <ele>79.8</ele>
        <time>2023-09-27T15:08:28Z</time>
      </trkpt>
      <trkpt lat="49.8853" lon="2.5086">
        <ele>79.8</ele>
        <time>2023-09-27T15:08:29Z</time>
      </trkpt>
      <trkpt lat="49.8853" lon="2.5086">
        <ele>79.8</ele>
        <time>2023-09-27T15:08:30Z</time>
      </trkpt>
      <trkpt lat="49.8853" lon="2.5086">
        <ele>79.8</ele>
        <time>2023-09-27T15:08:31Z</time>
      </trkpt>
      <trkpt lat="49.8853" lon="2.5086">
        <ele>79.8</ele>
        <time>2023-09-27T15:08:32Z</time>
      </trkpt>
      <trkpt lat="49.8853" lon="2.5086">
        <ele>79.8</ele>
        <time>2023-09-27T15:08:33Z</time>
      </trkpt>
      <trkpt lat="49.8853" lon="2.5086">
        <ele>79.8</ele>
        <time>2023-09-27T15:08:34Z</time>
      </trkpt>
      <trkpt lat="49.8853" lon="2.5086">
        <ele>79.8</ele>
        <time>2023-09-27T15:08:35Z</time>
      </trkpt>
      <trkpt lat="49.8853" lon="2.5086">
        <ele>79.8</ele>
        <time>2023-09-27T15:08:36Z</time>
      </trkpt>
      <trkpt lat="49.8853" lon="2.5086">
        <ele>79.8</ele>
        <time>2023-09-27T15:08:37Z</time>
      </trkpt>
      <trkpt lat="49.8853" lon="2.5086">
        <ele>79.8</ele>
        <time>2023-09-27T15:08:38Z</time>
      </trkpt>
      <trkpt lat="49.8853" lon="2.5086">
        <ele>79.8</ele>
        <time>2023-09-27T15:08:39Z</time>
      </trkpt>
      <trkpt lat="49.8853" lon="2.5086">
        <ele>79.8</ele>
        <time>2023-09-27T15:08:40Z</time>
      </trkpt>
      <trkpt lat="49.8853" lon="2.5086">
        <ele>79.8</ele>
        <time>2023-09-27T15:08:41Z</time>
      </trkpt>
      <trkpt lat="49.8853" lon="2.5086">
        <ele>79.8</ele>
        <time>2023-09-27T15:08:42Z</time>
      </trkpt>
      <trkpt lat="49.88531" lon="2.50862">
        <ele>79.8</ele>
        <time>2023-09-27T15:08:43Z</time>
      </trkpt>
      <trkpt lat="49.88531" lon="2.50862">
        <ele>80.2</ele>
        <time>2023-09-27T15:08:44Z</time>
      </trkpt>
      <trkpt lat="49.88532" lon="2.50862">
        <ele>80.6</ele>
        <time>2023-09-27T15:08:45Z</time>
      </trkpt>
      <trkpt lat="49.88532" lon="2.50862">
        <ele>80.6</ele>
        <time>2023-09-27T15:08:46Z</time>
      </trkpt>
      <trkpt lat="49.88532" lon="2.50863">
        <ele>80.6</ele>
        <time>2023-09-27T15:08:47Z</time>
      </trkpt>
      <trkpt lat="49.88532" lon="2.50863">
        <ele>80.6</ele>
        <time>2023-09-27T15:08:48Z</time>
      </trkpt>
      <trkpt lat="49.88532" lon="2.50863">
        <ele>80.6</ele>
        <time>2023-09-27T15:08:49Z</time>
      </trkpt>
      <trkpt lat="49.88532" lon="2.50863">
        <ele>80.6</ele>
        <time>2023-09-27T15:08:50Z</time>
      </trkpt>
      <trkpt lat="49.88532" lon="2.50863">
        <ele>80.6</ele>
        <time>2023-09-27T15:08:51Z</time>
      </trkpt>
      <trkpt lat="49.88532" lon="2.50863">
        <ele>80.6</ele>
        <time>2023-09-27T15:08:52Z</time>
      </trkpt>
      <trkpt lat="49.88532" lon="2.50863">
        <ele>80.6</ele>
        <time>2023-09-27T15:08:53Z</time>
      </trkpt>
      <trkpt lat="49.88532" lon="2.50863">
        <ele>80.6</ele>
        <time>2023-09-27T15:08:54Z</time>
      </trkpt>
      <trkpt lat="49.88533" lon="2.50863">
        <ele>80.6</ele>
        <time>2023-09-27T15:08:55Z</time>
      </trkpt>
      <trkpt lat="49.88533" lon="2.50863">
        <ele>80.6</ele>
        <time>2023-09-27T15:08:56Z</time>
      </trkpt>
      <trkpt lat="49.88533" lon="2.50863">
        <ele>80.6</ele>
        <time>2023-09-27T15:08:57Z</time>
      </trkpt>
      <trkpt lat="49.88533" lon="2.50863">
        <ele>80.6</ele>
        <time>2023-09-27T15:08:58Z</time>
      </trkpt>
      <trkpt lat="49.88533" lon="2.50863">
        <ele>80.6</ele>
        <time>2023-09-27T15:08:59Z</time>
      </trkpt>
      <trkpt lat="49.88534" lon="2.50863">
        <ele>80.6</ele>
        <time>2023-09-27T15:09:00Z</time>
      </trkpt>
      <trkpt lat="49.88534" lon="2.50864">
        <ele>80.6</ele>
        <time>2023-09-27T15:09:01Z</time>
      </trkpt>
      <trkpt lat="49.88535" lon="2.50864">
        <ele>80.9</ele>
        <time>2023-09-27T15:09:02Z</time>
      </trkpt>
      <trkpt lat="49.88536" lon="2.50864">
        <ele>80.9</ele>
        <time>2023-09-27T15:09:03Z</time>
      </trkpt>
      <trkpt lat="49.88537" lon="2.50864">
        <ele>80.9</ele>
        <time>2023-09-27T15:09:04Z</time>
      </trkpt>
      <trkpt lat="49.88537" lon="2.50863">
        <ele>81.2</ele>
        <time>2023-09-27T15:09:05Z</time>
      </trkpt>
      <trkpt lat="49.88538" lon="2.50863">
        <ele>81.2</ele>
        <time>2023-09-27T15:09:06Z</time>
      </trkpt>
      <trkpt lat="49.88539" lon="2.50863">
        <ele>81.2</ele>
        <time>2023-09-27T15:09:07Z</time>
      </trkpt>
      <trkpt lat="49.8854" lon="2.50862">
        <ele>81.2</ele>
        <time>2023-09-27T15:09:08Z</time>
      </trkpt>
      <trkpt lat="49.8854" lon="2.50862">
        <ele>81.5</ele>
        <time>2023-09-27T15:09:09Z</time>
      </trkpt>
      <trkpt lat="49.8854" lon="2.50862">
        <ele>81.5</ele>
        <time>2023-09-27T15:09:10Z</time>
      </trkpt>
      <trkpt lat="49.88541" lon="2.50862">
        <ele>81.5</ele>
        <time>2023-09-27T15:09:11Z</time>
      </trkpt>
      <trkpt lat="49.88541" lon="2.50862">
        <ele>81.5</ele>
        <time>2023-09-27T15:09:12Z</time>
      </trkpt>
      <trkpt lat="49.88541" lon="2.50862">
        <ele>81.5</ele>
        <time>2023-09-27T15:09:13Z</time>
      </trkpt>
      <trkpt lat="49.88542" lon="2.50863">
        <ele>81.5</ele>
        <time>2023-09-27T15:09:14Z</time>
      </trkpt>
      <trkpt lat="49.88543" lon="2.50862">
        <ele>81.8</ele>
        <time>2023-09-27T15:09:15Z</time>
      </trkpt>
      <trkpt lat="49.88544" lon="2.50862">
        <ele>81.8</ele>
        <time>2023-09-27T15:09:16Z</time>
      </trkpt>
      <trkpt lat="49.88544" lon="2.50862">
        <ele>81.5</ele>
        <time>2023-09-27T15:09:17Z</time>
      </trkpt>
      <trkpt lat="49.88544" lon="2.50861">
        <ele>81.5</ele>
        <time>2023-09-27T15:09:18Z</time>
      </trkpt>
      <trkpt lat="49.88545" lon="2.50861">
        <ele>81.5</ele>
        <time>2023-09-27T15:09:19Z</time>
      </trkpt>
      <trkpt lat="49.88545" lon="2.50861">
        <ele>81.5</ele>
        <time>2023-09-27T15:09:20Z</time>
      </trkpt>
      <trkpt lat="49.88545" lon="2.5086">
        <ele>81.5</ele>
        <time>2023-09-27T15:09:21Z</time>
      </trkpt>
      <trkpt lat="49.88546" lon="2.5086">
        <ele>81.5</ele>
        <time>2023-09-27T15:09:22Z</time>
      </trkpt>
      <trkpt lat="49.88546" lon="2.5086">
        <ele>81.7</ele>
        <time>2023-09-27T15:09:23Z</time>
      </trkpt>
      <trkpt lat="49.88546" lon="2.5086">
        <ele>81.7</ele>
        <time>2023-09-27T15:09:24Z</time>
      </trkpt>
      <trkpt lat="49.88546" lon="2.5086">
        <ele>81.7</ele>
        <time>2023-09-27T15:09:25Z</time>
      </trkpt>
      <trkpt lat="49.88546" lon="2.5086">
        <ele>81.7</ele>
        <time>2023-09-27T15:09:26Z</time>
      </trkpt>
      <trkpt lat="49.88546" lon="2.5086">
        <ele>81.7</ele>
        <time>2023-09-27T15:09:27Z</time>
      </trkpt>
      <trkpt lat="49.88546" lon="2.5086">
        <ele>81.7</ele>
        <time>2023-09-27T15:09:28Z</time>
      </trkpt>
      <trkpt lat="49.88546" lon="2.5086">
        <ele>81.7</ele>
        <time>2023-09-27T15:09:29Z</time>
      </trkpt>
      <trkpt lat="49.88546" lon="2.5086">
        <ele>81.7</ele>
        <time>2023-09-27T15:09:30Z</time>
      </trkpt>
      <trkpt lat="49.88546" lon="2.5086">
        <ele>81.7</ele>
        <time>2023-09-27T15:09:31Z</time>
      </trkpt>
      <trkpt lat="49.88546" lon="2.5086">
        <ele>81.7</ele>
        <time>2023-09-27T15:09:33Z</time>
      </trkpt>
      <trkpt lat="49.88546" lon="2.5086">
        <ele>81.5</ele>
        <time>2023-09-27T15:09:34Z</time>
      </trkpt>
      <trkpt lat="49.88546" lon="2.5086">
        <ele>81.5</ele>
        <time>2023-09-27T15:09:36Z</time>
      </trkpt>
      <trkpt lat="49.88546" lon="2.5086">
        <ele>81.5</ele>
        <time>2023-09-27T15:09:37Z</time>
      </trkpt>
      <trkpt lat="49.88546" lon="2.5086">
        <ele>81.5</ele>
        <time>2023-09-27T15:09:38Z</time>
      </trkpt>
      <trkpt lat="49.88546" lon="2.5086">
        <ele>81.5</ele>
        <time>2023-09-27T15:09:40Z</time>
      </trkpt>
      <trkpt lat="49.88546" lon="2.5086">
        <ele>81.5</ele>
        <time>2023-09-27T15:09:41Z</time>
      </trkpt>
      <trkpt lat="49.88546" lon="2.5086">
        <ele>81.5</ele>
        <time>2023-09-27T15:09:42Z</time>
      </trkpt>
      <trkpt lat="49.88546" lon="2.5086">
        <ele>81.5</ele>
        <time>2023-09-27T15:09:43Z</time>
      </trkpt>
      <trkpt lat="49.88546" lon="2.5086">
        <ele>81.5</ele>
        <time>2023-09-27T15:09:44Z</time>
      </trkpt>
      <trkpt lat="49.88546" lon="2.5086">
        <ele>81.5</ele>
        <time>2023-09-27T15:09:45Z</time>
      </trkpt>
      <trkpt lat="49.88546" lon="2.5086">
        <ele>81.5</ele>
        <time>2023-09-27T15:09:46Z</time>
      </trkpt>
      <trkpt lat="49.88546" lon="2.5086">
        <ele>81.5</ele>
        <time>2023-09-27T15:09:47Z</time>
      </trkpt>
      <trkpt lat="49.88546" lon="2.5086">
        <ele>81.5</ele>
        <time>2023-09-27T15:09:48Z</time>
      </trkpt>
      <trkpt lat="49.88546" lon="2.5086">
        <ele>81.5</ele>
        <time>2023-09-27T15:09:49Z</time>
      </trkpt>
      <trkpt lat="49.88546" lon="2.5086">
        <ele>81.5</ele>
        <time>2023-09-27T15:09:50Z</time>
      </trkpt>
      <trkpt lat="49.88546" lon="2.5086">
        <ele>81.5</ele>
        <time>2023-09-27T15:09:51Z</time>
      </trkpt>
      <trkpt lat="49.88546" lon="2.5086">
        <ele>81.5</ele>
        <time>2023-09-27T15:09:52Z</time>
      </trkpt>
      <trkpt lat="49.88547" lon="2.50859">
        <ele>81.7</ele>
        <time>2023-09-27T15:09:53Z</time>
      </trkpt>
      <trkpt lat="49.88548" lon="2.50859">
        <ele>81.7</ele>
        <time>2023-09-27T15:09:54Z</time>
      </trkpt>
      <trkpt lat="49.88548" lon="2.50858">
        <ele>82</ele>
        <time>2023-09-27T15:09:55Z</time>
      </trkpt>
      <trkpt lat="49.88549" lon="2.50858">
        <ele>82</ele>
        <time>2023-09-27T15:09:56Z</time>
      </trkpt>
      <trkpt lat="49.88549" lon="2.50858">
        <ele>82</ele>
        <time>2023-09-27T15:09:57Z</time>
      </trkpt>
      <trkpt lat="49.88549" lon="2.50858">
        <ele>82</ele>
        <time>2023-09-27T15:09:58Z</time>
      </trkpt>
      <trkpt lat="49.88549" lon="2.50858">
        <ele>82</ele>
        <time>2023-09-27T15:09:59Z</time>
      </trkpt>
      <trkpt lat="49.88549" lon="2.50858">
        <ele>82</ele>
        <time>2023-09-27T15:10:00Z</time>
      </trkpt>
      <trkpt lat="49.88549" lon="2.50857">
        <ele>82</ele>
        <time>2023-09-27T15:10:01Z</time>
      </trkpt>
      <trkpt lat="49.88549" lon="2.50857">
        <ele>82</ele>
        <time>2023-09-27T15:10:02Z</time>
      </trkpt>
      <trkpt lat="49.88549" lon="2.50857">
        <ele>81.6</ele>
        <time>2023-09-27T15:10:03Z</time>
      </trkpt>
      <trkpt lat="49.88549" lon="2.50858">
        <ele>82</ele>
        <time>2023-09-27T15:10:04Z</time>
      </trkpt>
      <trkpt lat="49.88549" lon="2.50858">
        <ele>82</ele>
        <time>2023-09-27T15:10:05Z</time>
      </trkpt>
      <trkpt lat="49.88549" lon="2.50858">
        <ele>82</ele>
        <time>2023-09-27T15:10:06Z</time>
      </trkpt>
      <trkpt lat="49.88549" lon="2.50858">
        <ele>82</ele>
        <time>2023-09-27T15:10:07Z</time>
      </trkpt>
      <trkpt lat="49.88549" lon="2.50857">
        <ele>81.6</ele>
        <time>2023-09-27T15:10:08Z</time>
      </trkpt>
      <trkpt lat="49.88549" lon="2.50857">
        <ele>81.6</ele>
        <time>2023-09-27T15:10:09Z</time>
      </trkpt>
      <trkpt lat="49.88549" lon="2.50857">
        <ele>81.6</ele>
        <time>2023-09-27T15:10:10Z</time>
      </trkpt>
      <trkpt lat="49.88549" lon="2.50857">
        <ele>81.6</ele>
        <time>2023-09-27T15:10:11Z</time>
      </trkpt>
      <trkpt lat="49.88549" lon="2.50857">
        <ele>81.6</ele>
        <time>2023-09-27T15:10:12Z</time>
      </trkpt>
      <trkpt lat="49.88549" lon="2.50857">
        <ele>81.6</ele>
        <time>2023-09-27T15:10:13Z</time>
      </trkpt>
      <trkpt lat="49.88549" lon="2.50857">
        <ele>81.6</ele>
        <time>2023-09-27T15:10:15Z</time>
      </trkpt>
    </trkseg>
  </trk>
</gpx>